<?xml version="1.0" encoding="UTF-8" standalone="no" ?>
<gpx xmlns="http://www.topografix.com/GPX/1/1" xmlns:xsi="http://www.w3.org/2001/XMLSchema-instance" xsi:schemaLocation="http://www.topografix.com/GPX/1/1 http://www.topografix.com/GPX/1/1/gpx.xsd" version="1.1" creator="VisuGPX - https://www.visugpx.com">
  <metadata>
    <name>20200908 - Gigondas - Montmirail</name>
  </metadata>
  <trk>
    <name><![CDATA[20200908 - Gigondas - Montmirail_1]]></name>
    <trkseg>
      <trkpt lat="44.16423" lon="5.00673">
        <ele>260.8</ele>
        <time>2020-09-08T08:59:39Z</time>
      </trkpt>
      <trkpt lat="44.16428" lon="5.00678">
        <ele>261.1</ele>
        <time>2020-09-08T08:59:40Z</time>
      </trkpt>
      <trkpt lat="44.16433" lon="5.00683">
        <ele>261.4</ele>
        <time>2020-09-08T08:59:41Z</time>
      </trkpt>
      <trkpt lat="44.16438" lon="5.00688">
        <ele>261.8</ele>
        <time>2020-09-08T08:59:42Z</time>
      </trkpt>
      <trkpt lat="44.16443" lon="5.00693">
        <ele>262.2</ele>
        <time>2020-09-08T08:59:43Z</time>
      </trkpt>
      <trkpt lat="44.16443" lon="5.00694">
        <ele>262.3</ele>
        <time>2020-09-08T08:59:44Z</time>
      </trkpt>
      <trkpt lat="44.16442" lon="5.00695">
        <ele>262.4</ele>
        <time>2020-09-08T08:59:45Z</time>
      </trkpt>
      <trkpt lat="44.16441" lon="5.00695">
        <ele>262.6</ele>
        <time>2020-09-08T08:59:46Z</time>
      </trkpt>
      <trkpt lat="44.1644" lon="5.00695">
        <ele>262.7</ele>
        <time>2020-09-08T08:59:47Z</time>
      </trkpt>
      <trkpt lat="44.16439" lon="5.00695">
        <ele>262.7</ele>
        <time>2020-09-08T08:59:48Z</time>
      </trkpt>
      <trkpt lat="44.16439" lon="5.00695">
        <ele>262.7</ele>
        <time>2020-09-08T08:59:49Z</time>
      </trkpt>
      <trkpt lat="44.16438" lon="5.00695">
        <ele>262.8</ele>
        <time>2020-09-08T08:59:50Z</time>
      </trkpt>
      <trkpt lat="44.16436" lon="5.00695">
        <ele>263.1</ele>
        <time>2020-09-08T08:59:51Z</time>
      </trkpt>
      <trkpt lat="44.16434" lon="5.00695">
        <ele>263.3</ele>
        <time>2020-09-08T08:59:52Z</time>
      </trkpt>
      <trkpt lat="44.16433" lon="5.00696">
        <ele>263.4</ele>
        <time>2020-09-08T08:59:53Z</time>
      </trkpt>
      <trkpt lat="44.16433" lon="5.00696">
        <ele>263.5</ele>
        <time>2020-09-08T08:59:54Z</time>
      </trkpt>
      <trkpt lat="44.16432" lon="5.00696">
        <ele>263.6</ele>
        <time>2020-09-08T08:59:55Z</time>
      </trkpt>
      <trkpt lat="44.1643" lon="5.00696">
        <ele>263.8</ele>
        <time>2020-09-08T08:59:56Z</time>
      </trkpt>
      <trkpt lat="44.16429" lon="5.00696">
        <ele>263.9</ele>
        <time>2020-09-08T08:59:57Z</time>
      </trkpt>
      <trkpt lat="44.16428" lon="5.00696">
        <ele>264.1</ele>
        <time>2020-09-08T08:59:58Z</time>
      </trkpt>
      <trkpt lat="44.16426" lon="5.00697">
        <ele>264.2</ele>
        <time>2020-09-08T08:59:59Z</time>
      </trkpt>
      <trkpt lat="44.16426" lon="5.00696">
        <ele>264.3</ele>
        <time>2020-09-08T09:00:00Z</time>
      </trkpt>
      <trkpt lat="44.16425" lon="5.00696">
        <ele>264.5</ele>
        <time>2020-09-08T09:00:01Z</time>
      </trkpt>
      <trkpt lat="44.16423" lon="5.00697">
        <ele>264.6</ele>
        <time>2020-09-08T09:00:02Z</time>
      </trkpt>
      <trkpt lat="44.16422" lon="5.00697">
        <ele>264.8</ele>
        <time>2020-09-08T09:00:03Z</time>
      </trkpt>
      <trkpt lat="44.16421" lon="5.00697">
        <ele>264.9</ele>
        <time>2020-09-08T09:00:04Z</time>
      </trkpt>
      <trkpt lat="44.1642" lon="5.00696">
        <ele>265.1</ele>
        <time>2020-09-08T09:00:05Z</time>
      </trkpt>
      <trkpt lat="44.16419" lon="5.00697">
        <ele>265.2</ele>
        <time>2020-09-08T09:00:06Z</time>
      </trkpt>
      <trkpt lat="44.16418" lon="5.00697">
        <ele>265.3</ele>
        <time>2020-09-08T09:00:07Z</time>
      </trkpt>
      <trkpt lat="44.16417" lon="5.00697">
        <ele>265.5</ele>
        <time>2020-09-08T09:00:08Z</time>
      </trkpt>
      <trkpt lat="44.16416" lon="5.00696">
        <ele>265.6</ele>
        <time>2020-09-08T09:00:09Z</time>
      </trkpt>
      <trkpt lat="44.16415" lon="5.00696">
        <ele>265.8</ele>
        <time>2020-09-08T09:00:10Z</time>
      </trkpt>
      <trkpt lat="44.16414" lon="5.00696">
        <ele>265.9</ele>
        <time>2020-09-08T09:00:11Z</time>
      </trkpt>
      <trkpt lat="44.16413" lon="5.00695">
        <ele>266</ele>
        <time>2020-09-08T09:00:12Z</time>
      </trkpt>
      <trkpt lat="44.16412" lon="5.00695">
        <ele>266.2</ele>
        <time>2020-09-08T09:00:13Z</time>
      </trkpt>
      <trkpt lat="44.1641" lon="5.00694">
        <ele>266.5</ele>
        <time>2020-09-08T09:00:14Z</time>
      </trkpt>
      <trkpt lat="44.16407" lon="5.00691">
        <ele>266.9</ele>
        <time>2020-09-08T09:00:15Z</time>
      </trkpt>
      <trkpt lat="44.16407" lon="5.00691">
        <ele>267</ele>
        <time>2020-09-08T09:00:16Z</time>
      </trkpt>
      <trkpt lat="44.16406" lon="5.00691">
        <ele>267.1</ele>
        <time>2020-09-08T09:00:17Z</time>
      </trkpt>
      <trkpt lat="44.16404" lon="5.0069">
        <ele>267.3</ele>
        <time>2020-09-08T09:00:18Z</time>
      </trkpt>
      <trkpt lat="44.16403" lon="5.0069">
        <ele>267.5</ele>
        <time>2020-09-08T09:00:19Z</time>
      </trkpt>
      <trkpt lat="44.16402" lon="5.0069">
        <ele>267.6</ele>
        <time>2020-09-08T09:00:20Z</time>
      </trkpt>
      <trkpt lat="44.16401" lon="5.00689">
        <ele>267.8</ele>
        <time>2020-09-08T09:00:21Z</time>
      </trkpt>
      <trkpt lat="44.164" lon="5.00688">
        <ele>267.9</ele>
        <time>2020-09-08T09:00:22Z</time>
      </trkpt>
      <trkpt lat="44.16399" lon="5.00688">
        <ele>268.1</ele>
        <time>2020-09-08T09:00:23Z</time>
      </trkpt>
      <trkpt lat="44.16398" lon="5.00687">
        <ele>268.2</ele>
        <time>2020-09-08T09:00:24Z</time>
      </trkpt>
      <trkpt lat="44.16398" lon="5.00687">
        <ele>268.3</ele>
        <time>2020-09-08T09:00:25Z</time>
      </trkpt>
      <trkpt lat="44.16397" lon="5.00686">
        <ele>268.4</ele>
        <time>2020-09-08T09:00:26Z</time>
      </trkpt>
      <trkpt lat="44.16396" lon="5.00686">
        <ele>268.6</ele>
        <time>2020-09-08T09:00:27Z</time>
      </trkpt>
      <trkpt lat="44.16394" lon="5.00685">
        <ele>268.8</ele>
        <time>2020-09-08T09:00:28Z</time>
      </trkpt>
      <trkpt lat="44.16394" lon="5.00685">
        <ele>268.9</ele>
        <time>2020-09-08T09:00:29Z</time>
      </trkpt>
      <trkpt lat="44.16393" lon="5.00684">
        <ele>269.1</ele>
        <time>2020-09-08T09:00:30Z</time>
      </trkpt>
      <trkpt lat="44.16392" lon="5.00683">
        <ele>269.2</ele>
        <time>2020-09-08T09:00:31Z</time>
      </trkpt>
      <trkpt lat="44.1639" lon="5.00682">
        <ele>269.4</ele>
        <time>2020-09-08T09:00:32Z</time>
      </trkpt>
      <trkpt lat="44.16389" lon="5.00681">
        <ele>269.6</ele>
        <time>2020-09-08T09:00:34Z</time>
      </trkpt>
      <trkpt lat="44.16388" lon="5.0068">
        <ele>269.7</ele>
        <time>2020-09-08T09:00:35Z</time>
      </trkpt>
      <trkpt lat="44.16388" lon="5.00679">
        <ele>269.8</ele>
        <time>2020-09-08T09:00:36Z</time>
      </trkpt>
      <trkpt lat="44.16386" lon="5.00678">
        <ele>270</ele>
        <time>2020-09-08T09:00:37Z</time>
      </trkpt>
      <trkpt lat="44.16386" lon="5.00677">
        <ele>270.2</ele>
        <time>2020-09-08T09:00:38Z</time>
      </trkpt>
      <trkpt lat="44.16385" lon="5.00676">
        <ele>270.3</ele>
        <time>2020-09-08T09:00:39Z</time>
      </trkpt>
      <trkpt lat="44.16384" lon="5.00675">
        <ele>270.4</ele>
        <time>2020-09-08T09:00:40Z</time>
      </trkpt>
      <trkpt lat="44.16382" lon="5.00674">
        <ele>270.6</ele>
        <time>2020-09-08T09:00:41Z</time>
      </trkpt>
      <trkpt lat="44.16382" lon="5.00673">
        <ele>270.7</ele>
        <time>2020-09-08T09:00:42Z</time>
      </trkpt>
      <trkpt lat="44.1638" lon="5.00672">
        <ele>270.9</ele>
        <time>2020-09-08T09:00:44Z</time>
      </trkpt>
      <trkpt lat="44.1638" lon="5.00671">
        <ele>271</ele>
        <time>2020-09-08T09:00:45Z</time>
      </trkpt>
      <trkpt lat="44.16379" lon="5.0067">
        <ele>271.1</ele>
        <time>2020-09-08T09:00:46Z</time>
      </trkpt>
      <trkpt lat="44.16378" lon="5.00669">
        <ele>271.3</ele>
        <time>2020-09-08T09:00:47Z</time>
      </trkpt>
      <trkpt lat="44.16377" lon="5.00668">
        <ele>271.4</ele>
        <time>2020-09-08T09:00:48Z</time>
      </trkpt>
      <trkpt lat="44.16376" lon="5.00667">
        <ele>271.5</ele>
        <time>2020-09-08T09:00:49Z</time>
      </trkpt>
      <trkpt lat="44.16376" lon="5.00667">
        <ele>271.6</ele>
        <time>2020-09-08T09:00:50Z</time>
      </trkpt>
      <trkpt lat="44.16375" lon="5.00666">
        <ele>271.7</ele>
        <time>2020-09-08T09:00:51Z</time>
      </trkpt>
      <trkpt lat="44.16374" lon="5.00665">
        <ele>271.9</ele>
        <time>2020-09-08T09:00:52Z</time>
      </trkpt>
      <trkpt lat="44.16374" lon="5.00664">
        <ele>271.9</ele>
        <time>2020-09-08T09:00:53Z</time>
      </trkpt>
      <trkpt lat="44.16372" lon="5.00662">
        <ele>272.1</ele>
        <time>2020-09-08T09:00:54Z</time>
      </trkpt>
      <trkpt lat="44.16372" lon="5.00661">
        <ele>272.3</ele>
        <time>2020-09-08T09:00:55Z</time>
      </trkpt>
      <trkpt lat="44.16371" lon="5.0066">
        <ele>272.4</ele>
        <time>2020-09-08T09:00:56Z</time>
      </trkpt>
      <trkpt lat="44.16371" lon="5.00659">
        <ele>272.4</ele>
        <time>2020-09-08T09:00:57Z</time>
      </trkpt>
      <trkpt lat="44.1637" lon="5.00659">
        <ele>272.5</ele>
        <time>2020-09-08T09:00:58Z</time>
      </trkpt>
      <trkpt lat="44.16369" lon="5.00658">
        <ele>272.6</ele>
        <time>2020-09-08T09:00:59Z</time>
      </trkpt>
      <trkpt lat="44.16368" lon="5.00656">
        <ele>272.8</ele>
        <time>2020-09-08T09:01:00Z</time>
      </trkpt>
      <trkpt lat="44.16367" lon="5.00656">
        <ele>272.9</ele>
        <time>2020-09-08T09:01:01Z</time>
      </trkpt>
      <trkpt lat="44.16367" lon="5.00655">
        <ele>273</ele>
        <time>2020-09-08T09:01:02Z</time>
      </trkpt>
      <trkpt lat="44.16366" lon="5.00654">
        <ele>273.1</ele>
        <time>2020-09-08T09:01:03Z</time>
      </trkpt>
      <trkpt lat="44.16365" lon="5.00654">
        <ele>273.2</ele>
        <time>2020-09-08T09:01:04Z</time>
      </trkpt>
      <trkpt lat="44.16364" lon="5.00653">
        <ele>273.3</ele>
        <time>2020-09-08T09:01:05Z</time>
      </trkpt>
      <trkpt lat="44.16364" lon="5.00652">
        <ele>273.3</ele>
        <time>2020-09-08T09:01:06Z</time>
      </trkpt>
      <trkpt lat="44.16363" lon="5.00652">
        <ele>273.4</ele>
        <time>2020-09-08T09:01:07Z</time>
      </trkpt>
      <trkpt lat="44.16362" lon="5.00651">
        <ele>273.5</ele>
        <time>2020-09-08T09:01:08Z</time>
      </trkpt>
      <trkpt lat="44.16361" lon="5.0065">
        <ele>273.6</ele>
        <time>2020-09-08T09:01:09Z</time>
      </trkpt>
      <trkpt lat="44.1636" lon="5.00649">
        <ele>273.8</ele>
        <time>2020-09-08T09:01:10Z</time>
      </trkpt>
      <trkpt lat="44.16359" lon="5.00649">
        <ele>273.8</ele>
        <time>2020-09-08T09:01:11Z</time>
      </trkpt>
      <trkpt lat="44.16357" lon="5.00647">
        <ele>274</ele>
        <time>2020-09-08T09:01:12Z</time>
      </trkpt>
      <trkpt lat="44.16357" lon="5.00646">
        <ele>274.1</ele>
        <time>2020-09-08T09:01:13Z</time>
      </trkpt>
      <trkpt lat="44.16356" lon="5.00645">
        <ele>274.2</ele>
        <time>2020-09-08T09:01:14Z</time>
      </trkpt>
      <trkpt lat="44.16355" lon="5.00644">
        <ele>274.3</ele>
        <time>2020-09-08T09:01:15Z</time>
      </trkpt>
      <trkpt lat="44.16354" lon="5.00642">
        <ele>274.4</ele>
        <time>2020-09-08T09:01:16Z</time>
      </trkpt>
      <trkpt lat="44.16353" lon="5.00641">
        <ele>274.5</ele>
        <time>2020-09-08T09:01:17Z</time>
      </trkpt>
      <trkpt lat="44.16352" lon="5.0064">
        <ele>274.6</ele>
        <time>2020-09-08T09:01:18Z</time>
      </trkpt>
      <trkpt lat="44.16351" lon="5.00639">
        <ele>274.7</ele>
        <time>2020-09-08T09:01:19Z</time>
      </trkpt>
      <trkpt lat="44.16351" lon="5.00638">
        <ele>274.7</ele>
        <time>2020-09-08T09:01:20Z</time>
      </trkpt>
      <trkpt lat="44.1635" lon="5.00638">
        <ele>274.8</ele>
        <time>2020-09-08T09:01:21Z</time>
      </trkpt>
      <trkpt lat="44.16348" lon="5.00637">
        <ele>274.9</ele>
        <time>2020-09-08T09:01:22Z</time>
      </trkpt>
      <trkpt lat="44.16347" lon="5.00636">
        <ele>275</ele>
        <time>2020-09-08T09:01:23Z</time>
      </trkpt>
      <trkpt lat="44.16347" lon="5.00635">
        <ele>275</ele>
        <time>2020-09-08T09:01:24Z</time>
      </trkpt>
      <trkpt lat="44.16346" lon="5.00635">
        <ele>275.1</ele>
        <time>2020-09-08T09:01:25Z</time>
      </trkpt>
      <trkpt lat="44.16345" lon="5.00635">
        <ele>275.1</ele>
        <time>2020-09-08T09:01:26Z</time>
      </trkpt>
      <trkpt lat="44.16344" lon="5.00634">
        <ele>275.2</ele>
        <time>2020-09-08T09:01:27Z</time>
      </trkpt>
      <trkpt lat="44.16344" lon="5.00633">
        <ele>275.2</ele>
        <time>2020-09-08T09:01:28Z</time>
      </trkpt>
      <trkpt lat="44.16343" lon="5.00632">
        <ele>275.2</ele>
        <time>2020-09-08T09:01:29Z</time>
      </trkpt>
      <trkpt lat="44.16342" lon="5.00632">
        <ele>275.3</ele>
        <time>2020-09-08T09:01:30Z</time>
      </trkpt>
      <trkpt lat="44.16341" lon="5.00631">
        <ele>275.3</ele>
        <time>2020-09-08T09:01:31Z</time>
      </trkpt>
      <trkpt lat="44.16341" lon="5.0063">
        <ele>275.4</ele>
        <time>2020-09-08T09:01:32Z</time>
      </trkpt>
      <trkpt lat="44.1634" lon="5.0063">
        <ele>275.4</ele>
        <time>2020-09-08T09:01:33Z</time>
      </trkpt>
      <trkpt lat="44.16338" lon="5.00629">
        <ele>275.4</ele>
        <time>2020-09-08T09:01:34Z</time>
      </trkpt>
      <trkpt lat="44.16337" lon="5.00629">
        <ele>275.4</ele>
        <time>2020-09-08T09:01:35Z</time>
      </trkpt>
      <trkpt lat="44.16338" lon="5.00626">
        <ele>275.5</ele>
        <time>2020-09-08T09:01:36Z</time>
      </trkpt>
      <trkpt lat="44.16338" lon="5.00624">
        <ele>275.5</ele>
        <time>2020-09-08T09:01:37Z</time>
      </trkpt>
      <trkpt lat="44.16337" lon="5.00623">
        <ele>275.5</ele>
        <time>2020-09-08T09:01:38Z</time>
      </trkpt>
      <trkpt lat="44.16336" lon="5.00622">
        <ele>275.5</ele>
        <time>2020-09-08T09:01:39Z</time>
      </trkpt>
      <trkpt lat="44.16335" lon="5.00621">
        <ele>275.5</ele>
        <time>2020-09-08T09:01:40Z</time>
      </trkpt>
      <trkpt lat="44.16334" lon="5.0062">
        <ele>275.5</ele>
        <time>2020-09-08T09:01:41Z</time>
      </trkpt>
      <trkpt lat="44.16333" lon="5.00619">
        <ele>275.5</ele>
        <time>2020-09-08T09:01:42Z</time>
      </trkpt>
      <trkpt lat="44.16332" lon="5.00618">
        <ele>275.5</ele>
        <time>2020-09-08T09:01:43Z</time>
      </trkpt>
      <trkpt lat="44.16332" lon="5.00618">
        <ele>275.5</ele>
        <time>2020-09-08T09:01:44Z</time>
      </trkpt>
      <trkpt lat="44.16331" lon="5.00617">
        <ele>275.5</ele>
        <time>2020-09-08T09:01:45Z</time>
      </trkpt>
      <trkpt lat="44.16331" lon="5.00617">
        <ele>275.5</ele>
        <time>2020-09-08T09:01:46Z</time>
      </trkpt>
      <trkpt lat="44.16329" lon="5.00616">
        <ele>275.4</ele>
        <time>2020-09-08T09:01:47Z</time>
      </trkpt>
      <trkpt lat="44.16328" lon="5.00616">
        <ele>275.4</ele>
        <time>2020-09-08T09:01:48Z</time>
      </trkpt>
      <trkpt lat="44.16327" lon="5.00614">
        <ele>275.3</ele>
        <time>2020-09-08T09:01:49Z</time>
      </trkpt>
      <trkpt lat="44.16326" lon="5.00614">
        <ele>275.3</ele>
        <time>2020-09-08T09:01:50Z</time>
      </trkpt>
      <trkpt lat="44.16324" lon="5.00613">
        <ele>275.3</ele>
        <time>2020-09-08T09:01:51Z</time>
      </trkpt>
      <trkpt lat="44.16323" lon="5.00614">
        <ele>275.2</ele>
        <time>2020-09-08T09:01:52Z</time>
      </trkpt>
      <trkpt lat="44.16321" lon="5.00614">
        <ele>275.2</ele>
        <time>2020-09-08T09:01:53Z</time>
      </trkpt>
      <trkpt lat="44.16319" lon="5.00614">
        <ele>275.1</ele>
        <time>2020-09-08T09:01:54Z</time>
      </trkpt>
      <trkpt lat="44.16318" lon="5.00614">
        <ele>275</ele>
        <time>2020-09-08T09:01:55Z</time>
      </trkpt>
      <trkpt lat="44.16317" lon="5.00613">
        <ele>275</ele>
        <time>2020-09-08T09:01:56Z</time>
      </trkpt>
      <trkpt lat="44.16317" lon="5.00614">
        <ele>275</ele>
        <time>2020-09-08T09:01:57Z</time>
      </trkpt>
      <trkpt lat="44.16316" lon="5.00614">
        <ele>274.9</ele>
        <time>2020-09-08T09:01:58Z</time>
      </trkpt>
      <trkpt lat="44.16315" lon="5.00613">
        <ele>274.9</ele>
        <time>2020-09-08T09:01:59Z</time>
      </trkpt>
      <trkpt lat="44.16315" lon="5.00613">
        <ele>274.9</ele>
        <time>2020-09-08T09:02:00Z</time>
      </trkpt>
      <trkpt lat="44.16315" lon="5.00613">
        <ele>274.9</ele>
        <time>2020-09-08T09:02:01Z</time>
      </trkpt>
      <trkpt lat="44.16314" lon="5.00612">
        <ele>274.8</ele>
        <time>2020-09-08T09:02:02Z</time>
      </trkpt>
      <trkpt lat="44.16314" lon="5.00612">
        <ele>274.8</ele>
        <time>2020-09-08T09:02:03Z</time>
      </trkpt>
      <trkpt lat="44.16314" lon="5.00612">
        <ele>274.8</ele>
        <time>2020-09-08T09:02:04Z</time>
      </trkpt>
      <trkpt lat="44.16314" lon="5.00611">
        <ele>274.8</ele>
        <time>2020-09-08T09:02:05Z</time>
      </trkpt>
      <trkpt lat="44.16314" lon="5.00611">
        <ele>274.8</ele>
        <time>2020-09-08T09:02:06Z</time>
      </trkpt>
      <trkpt lat="44.16313" lon="5.00611">
        <ele>274.8</ele>
        <time>2020-09-08T09:02:07Z</time>
      </trkpt>
      <trkpt lat="44.16313" lon="5.0061">
        <ele>274.8</ele>
        <time>2020-09-08T09:02:08Z</time>
      </trkpt>
      <trkpt lat="44.16313" lon="5.0061">
        <ele>274.7</ele>
        <time>2020-09-08T09:02:09Z</time>
      </trkpt>
      <trkpt lat="44.16313" lon="5.00609">
        <ele>274.7</ele>
        <time>2020-09-08T09:02:10Z</time>
      </trkpt>
      <trkpt lat="44.16313" lon="5.00609">
        <ele>274.7</ele>
        <time>2020-09-08T09:02:11Z</time>
      </trkpt>
      <trkpt lat="44.16313" lon="5.00608">
        <ele>274.7</ele>
        <time>2020-09-08T09:02:12Z</time>
      </trkpt>
      <trkpt lat="44.16312" lon="5.00609">
        <ele>274.7</ele>
        <time>2020-09-08T09:02:13Z</time>
      </trkpt>
      <trkpt lat="44.16313" lon="5.00609">
        <ele>274.7</ele>
        <time>2020-09-08T09:02:14Z</time>
      </trkpt>
      <trkpt lat="44.16313" lon="5.00609">
        <ele>274.7</ele>
        <time>2020-09-08T09:02:15Z</time>
      </trkpt>
      <trkpt lat="44.16313" lon="5.00608">
        <ele>274.6</ele>
        <time>2020-09-08T09:02:16Z</time>
      </trkpt>
      <trkpt lat="44.16313" lon="5.00608">
        <ele>274.6</ele>
        <time>2020-09-08T09:02:17Z</time>
      </trkpt>
      <trkpt lat="44.16312" lon="5.00609">
        <ele>274.6</ele>
        <time>2020-09-08T09:02:18Z</time>
      </trkpt>
      <trkpt lat="44.16311" lon="5.00611">
        <ele>274.5</ele>
        <time>2020-09-08T09:02:19Z</time>
      </trkpt>
      <trkpt lat="44.16311" lon="5.00611">
        <ele>274.5</ele>
        <time>2020-09-08T09:02:20Z</time>
      </trkpt>
      <trkpt lat="44.1631" lon="5.00612">
        <ele>274.5</ele>
        <time>2020-09-08T09:02:21Z</time>
      </trkpt>
      <trkpt lat="44.1631" lon="5.00612">
        <ele>274.5</ele>
        <time>2020-09-08T09:02:22Z</time>
      </trkpt>
      <trkpt lat="44.16309" lon="5.00614">
        <ele>274.5</ele>
        <time>2020-09-08T09:02:23Z</time>
      </trkpt>
      <trkpt lat="44.16309" lon="5.00615">
        <ele>274.6</ele>
        <time>2020-09-08T09:02:24Z</time>
      </trkpt>
      <trkpt lat="44.16309" lon="5.00617">
        <ele>274.6</ele>
        <time>2020-09-08T09:02:25Z</time>
      </trkpt>
      <trkpt lat="44.1631" lon="5.00619">
        <ele>274.6</ele>
        <time>2020-09-08T09:02:26Z</time>
      </trkpt>
      <trkpt lat="44.16309" lon="5.00621">
        <ele>274.7</ele>
        <time>2020-09-08T09:02:27Z</time>
      </trkpt>
      <trkpt lat="44.1631" lon="5.00623">
        <ele>274.7</ele>
        <time>2020-09-08T09:02:28Z</time>
      </trkpt>
      <trkpt lat="44.1631" lon="5.00625">
        <ele>274.8</ele>
        <time>2020-09-08T09:02:29Z</time>
      </trkpt>
      <trkpt lat="44.16311" lon="5.00628">
        <ele>274.9</ele>
        <time>2020-09-08T09:02:30Z</time>
      </trkpt>
      <trkpt lat="44.16311" lon="5.00629">
        <ele>274.9</ele>
        <time>2020-09-08T09:02:31Z</time>
      </trkpt>
      <trkpt lat="44.16312" lon="5.0063">
        <ele>275</ele>
        <time>2020-09-08T09:02:32Z</time>
      </trkpt>
      <trkpt lat="44.16312" lon="5.00632">
        <ele>275</ele>
        <time>2020-09-08T09:02:33Z</time>
      </trkpt>
      <trkpt lat="44.16312" lon="5.00633">
        <ele>275.1</ele>
        <time>2020-09-08T09:02:34Z</time>
      </trkpt>
      <trkpt lat="44.16313" lon="5.00635">
        <ele>275.2</ele>
        <time>2020-09-08T09:02:35Z</time>
      </trkpt>
      <trkpt lat="44.16313" lon="5.00636">
        <ele>275.2</ele>
        <time>2020-09-08T09:02:36Z</time>
      </trkpt>
      <trkpt lat="44.16314" lon="5.00638">
        <ele>275.3</ele>
        <time>2020-09-08T09:02:37Z</time>
      </trkpt>
      <trkpt lat="44.16314" lon="5.00639">
        <ele>275.3</ele>
        <time>2020-09-08T09:02:38Z</time>
      </trkpt>
      <trkpt lat="44.16314" lon="5.00641">
        <ele>275.4</ele>
        <time>2020-09-08T09:02:39Z</time>
      </trkpt>
      <trkpt lat="44.16315" lon="5.00642">
        <ele>275.4</ele>
        <time>2020-09-08T09:02:40Z</time>
      </trkpt>
      <trkpt lat="44.16315" lon="5.00643">
        <ele>275.4</ele>
        <time>2020-09-08T09:02:41Z</time>
      </trkpt>
      <trkpt lat="44.16315" lon="5.00645">
        <ele>275.5</ele>
        <time>2020-09-08T09:02:42Z</time>
      </trkpt>
      <trkpt lat="44.16316" lon="5.00647">
        <ele>275.5</ele>
        <time>2020-09-08T09:02:43Z</time>
      </trkpt>
      <trkpt lat="44.16316" lon="5.00647">
        <ele>275.7</ele>
        <time>2020-09-08T09:02:44Z</time>
      </trkpt>
      <trkpt lat="44.16315" lon="5.00649">
        <ele>275.9</ele>
        <time>2020-09-08T09:02:45Z</time>
      </trkpt>
      <trkpt lat="44.16315" lon="5.0065">
        <ele>276</ele>
        <time>2020-09-08T09:02:46Z</time>
      </trkpt>
      <trkpt lat="44.16315" lon="5.00651">
        <ele>276.1</ele>
        <time>2020-09-08T09:02:47Z</time>
      </trkpt>
      <trkpt lat="44.16315" lon="5.00652">
        <ele>276.2</ele>
        <time>2020-09-08T09:02:48Z</time>
      </trkpt>
      <trkpt lat="44.16314" lon="5.00653">
        <ele>276.3</ele>
        <time>2020-09-08T09:02:49Z</time>
      </trkpt>
      <trkpt lat="44.16313" lon="5.00652">
        <ele>276.4</ele>
        <time>2020-09-08T09:02:50Z</time>
      </trkpt>
      <trkpt lat="44.16311" lon="5.00652">
        <ele>276.6</ele>
        <time>2020-09-08T09:02:51Z</time>
      </trkpt>
      <trkpt lat="44.1631" lon="5.00651">
        <ele>276.9</ele>
        <time>2020-09-08T09:02:52Z</time>
      </trkpt>
      <trkpt lat="44.16309" lon="5.0065">
        <ele>277</ele>
        <time>2020-09-08T09:02:53Z</time>
      </trkpt>
      <trkpt lat="44.16308" lon="5.0065">
        <ele>277.1</ele>
        <time>2020-09-08T09:02:54Z</time>
      </trkpt>
      <trkpt lat="44.16307" lon="5.0065">
        <ele>277.3</ele>
        <time>2020-09-08T09:02:55Z</time>
      </trkpt>
      <trkpt lat="44.16305" lon="5.00649">
        <ele>277.4</ele>
        <time>2020-09-08T09:02:56Z</time>
      </trkpt>
      <trkpt lat="44.16305" lon="5.00649">
        <ele>277.5</ele>
        <time>2020-09-08T09:02:57Z</time>
      </trkpt>
      <trkpt lat="44.16304" lon="5.00649">
        <ele>277.6</ele>
        <time>2020-09-08T09:02:58Z</time>
      </trkpt>
      <trkpt lat="44.16302" lon="5.00649">
        <ele>277.7</ele>
        <time>2020-09-08T09:02:59Z</time>
      </trkpt>
      <trkpt lat="44.16301" lon="5.00649">
        <ele>277.8</ele>
        <time>2020-09-08T09:03:00Z</time>
      </trkpt>
      <trkpt lat="44.163" lon="5.00648">
        <ele>277.9</ele>
        <time>2020-09-08T09:03:01Z</time>
      </trkpt>
      <trkpt lat="44.16299" lon="5.00649">
        <ele>278</ele>
        <time>2020-09-08T09:03:02Z</time>
      </trkpt>
      <trkpt lat="44.16297" lon="5.00649">
        <ele>278.1</ele>
        <time>2020-09-08T09:03:03Z</time>
      </trkpt>
      <trkpt lat="44.16296" lon="5.00649">
        <ele>278.2</ele>
        <time>2020-09-08T09:03:04Z</time>
      </trkpt>
      <trkpt lat="44.16295" lon="5.00649">
        <ele>278.2</ele>
        <time>2020-09-08T09:03:05Z</time>
      </trkpt>
      <trkpt lat="44.16294" lon="5.00648">
        <ele>278.3</ele>
        <time>2020-09-08T09:03:06Z</time>
      </trkpt>
      <trkpt lat="44.16293" lon="5.00649">
        <ele>278.4</ele>
        <time>2020-09-08T09:03:07Z</time>
      </trkpt>
      <trkpt lat="44.16292" lon="5.00649">
        <ele>278.5</ele>
        <time>2020-09-08T09:03:08Z</time>
      </trkpt>
      <trkpt lat="44.16291" lon="5.00649">
        <ele>278.5</ele>
        <time>2020-09-08T09:03:09Z</time>
      </trkpt>
      <trkpt lat="44.1629" lon="5.0065">
        <ele>278.6</ele>
        <time>2020-09-08T09:03:10Z</time>
      </trkpt>
      <trkpt lat="44.16289" lon="5.00651">
        <ele>278.7</ele>
        <time>2020-09-08T09:03:11Z</time>
      </trkpt>
      <trkpt lat="44.16288" lon="5.00651">
        <ele>278.8</ele>
        <time>2020-09-08T09:03:12Z</time>
      </trkpt>
      <trkpt lat="44.16287" lon="5.00652">
        <ele>278.9</ele>
        <time>2020-09-08T09:03:13Z</time>
      </trkpt>
      <trkpt lat="44.16286" lon="5.00653">
        <ele>278.9</ele>
        <time>2020-09-08T09:03:14Z</time>
      </trkpt>
      <trkpt lat="44.16286" lon="5.00654">
        <ele>279</ele>
        <time>2020-09-08T09:03:15Z</time>
      </trkpt>
      <trkpt lat="44.16284" lon="5.00655">
        <ele>279.1</ele>
        <time>2020-09-08T09:03:16Z</time>
      </trkpt>
      <trkpt lat="44.16283" lon="5.00655">
        <ele>279.2</ele>
        <time>2020-09-08T09:03:17Z</time>
      </trkpt>
      <trkpt lat="44.16283" lon="5.00655">
        <ele>279.2</ele>
        <time>2020-09-08T09:03:18Z</time>
      </trkpt>
      <trkpt lat="44.16282" lon="5.00655">
        <ele>279.3</ele>
        <time>2020-09-08T09:03:19Z</time>
      </trkpt>
      <trkpt lat="44.16281" lon="5.00655">
        <ele>279.4</ele>
        <time>2020-09-08T09:03:20Z</time>
      </trkpt>
      <trkpt lat="44.16279" lon="5.00654">
        <ele>279.5</ele>
        <time>2020-09-08T09:03:21Z</time>
      </trkpt>
      <trkpt lat="44.16278" lon="5.00654">
        <ele>279.6</ele>
        <time>2020-09-08T09:03:22Z</time>
      </trkpt>
      <trkpt lat="44.16277" lon="5.00653">
        <ele>279.6</ele>
        <time>2020-09-08T09:03:23Z</time>
      </trkpt>
      <trkpt lat="44.16277" lon="5.00652">
        <ele>279.6</ele>
        <time>2020-09-08T09:03:24Z</time>
      </trkpt>
      <trkpt lat="44.16276" lon="5.00651">
        <ele>279.7</ele>
        <time>2020-09-08T09:03:25Z</time>
      </trkpt>
      <trkpt lat="44.16275" lon="5.0065">
        <ele>279.7</ele>
        <time>2020-09-08T09:03:26Z</time>
      </trkpt>
      <trkpt lat="44.16274" lon="5.00648">
        <ele>279.7</ele>
        <time>2020-09-08T09:03:27Z</time>
      </trkpt>
      <trkpt lat="44.16273" lon="5.00647">
        <ele>279.7</ele>
        <time>2020-09-08T09:03:28Z</time>
      </trkpt>
      <trkpt lat="44.16272" lon="5.00646">
        <ele>279.7</ele>
        <time>2020-09-08T09:03:29Z</time>
      </trkpt>
      <trkpt lat="44.16272" lon="5.00645">
        <ele>279.7</ele>
        <time>2020-09-08T09:03:30Z</time>
      </trkpt>
      <trkpt lat="44.16271" lon="5.00644">
        <ele>279.7</ele>
        <time>2020-09-08T09:03:31Z</time>
      </trkpt>
      <trkpt lat="44.1627" lon="5.00644">
        <ele>279.7</ele>
        <time>2020-09-08T09:03:32Z</time>
      </trkpt>
      <trkpt lat="44.16269" lon="5.00643">
        <ele>279.7</ele>
        <time>2020-09-08T09:03:33Z</time>
      </trkpt>
      <trkpt lat="44.16267" lon="5.00642">
        <ele>279.7</ele>
        <time>2020-09-08T09:03:34Z</time>
      </trkpt>
      <trkpt lat="44.16266" lon="5.00641">
        <ele>279.7</ele>
        <time>2020-09-08T09:03:35Z</time>
      </trkpt>
      <trkpt lat="44.16265" lon="5.0064">
        <ele>279.6</ele>
        <time>2020-09-08T09:03:36Z</time>
      </trkpt>
      <trkpt lat="44.16264" lon="5.0064">
        <ele>279.6</ele>
        <time>2020-09-08T09:03:37Z</time>
      </trkpt>
      <trkpt lat="44.16262" lon="5.00637">
        <ele>279.5</ele>
        <time>2020-09-08T09:03:38Z</time>
      </trkpt>
      <trkpt lat="44.16262" lon="5.00637">
        <ele>279.5</ele>
        <time>2020-09-08T09:03:39Z</time>
      </trkpt>
      <trkpt lat="44.16261" lon="5.00636">
        <ele>279.5</ele>
        <time>2020-09-08T09:03:40Z</time>
      </trkpt>
      <trkpt lat="44.1626" lon="5.00634">
        <ele>279.4</ele>
        <time>2020-09-08T09:03:41Z</time>
      </trkpt>
      <trkpt lat="44.1626" lon="5.00634">
        <ele>279.3</ele>
        <time>2020-09-08T09:03:42Z</time>
      </trkpt>
      <trkpt lat="44.16259" lon="5.00633">
        <ele>279.3</ele>
        <time>2020-09-08T09:03:43Z</time>
      </trkpt>
      <trkpt lat="44.16259" lon="5.00632">
        <ele>279.3</ele>
        <time>2020-09-08T09:03:44Z</time>
      </trkpt>
      <trkpt lat="44.16259" lon="5.00631">
        <ele>279.2</ele>
        <time>2020-09-08T09:03:45Z</time>
      </trkpt>
      <trkpt lat="44.16258" lon="5.0063">
        <ele>279.2</ele>
        <time>2020-09-08T09:03:46Z</time>
      </trkpt>
      <trkpt lat="44.16258" lon="5.00629">
        <ele>279.1</ele>
        <time>2020-09-08T09:03:47Z</time>
      </trkpt>
      <trkpt lat="44.16258" lon="5.00628">
        <ele>279.1</ele>
        <time>2020-09-08T09:03:48Z</time>
      </trkpt>
      <trkpt lat="44.16257" lon="5.00626">
        <ele>278.9</ele>
        <time>2020-09-08T09:03:49Z</time>
      </trkpt>
      <trkpt lat="44.16258" lon="5.00625">
        <ele>278.9</ele>
        <time>2020-09-08T09:03:50Z</time>
      </trkpt>
      <trkpt lat="44.16258" lon="5.00624">
        <ele>278.8</ele>
        <time>2020-09-08T09:03:51Z</time>
      </trkpt>
      <trkpt lat="44.16259" lon="5.00623">
        <ele>278.8</ele>
        <time>2020-09-08T09:03:52Z</time>
      </trkpt>
      <trkpt lat="44.16259" lon="5.00622">
        <ele>278.7</ele>
        <time>2020-09-08T09:03:53Z</time>
      </trkpt>
      <trkpt lat="44.16259" lon="5.0062">
        <ele>278.6</ele>
        <time>2020-09-08T09:03:54Z</time>
      </trkpt>
      <trkpt lat="44.1626" lon="5.00619">
        <ele>278.5</ele>
        <time>2020-09-08T09:03:55Z</time>
      </trkpt>
      <trkpt lat="44.1626" lon="5.00618">
        <ele>278.4</ele>
        <time>2020-09-08T09:03:56Z</time>
      </trkpt>
      <trkpt lat="44.1626" lon="5.00616">
        <ele>278.3</ele>
        <time>2020-09-08T09:03:57Z</time>
      </trkpt>
      <trkpt lat="44.1626" lon="5.00615">
        <ele>278.2</ele>
        <time>2020-09-08T09:03:58Z</time>
      </trkpt>
      <trkpt lat="44.1626" lon="5.00613">
        <ele>278.1</ele>
        <time>2020-09-08T09:03:59Z</time>
      </trkpt>
      <trkpt lat="44.16261" lon="5.00611">
        <ele>278</ele>
        <time>2020-09-08T09:04:00Z</time>
      </trkpt>
      <trkpt lat="44.16261" lon="5.0061">
        <ele>277.9</ele>
        <time>2020-09-08T09:04:01Z</time>
      </trkpt>
      <trkpt lat="44.16261" lon="5.00608">
        <ele>277.8</ele>
        <time>2020-09-08T09:04:02Z</time>
      </trkpt>
      <trkpt lat="44.16261" lon="5.00607">
        <ele>277.7</ele>
        <time>2020-09-08T09:04:03Z</time>
      </trkpt>
      <trkpt lat="44.16262" lon="5.00605">
        <ele>277.6</ele>
        <time>2020-09-08T09:04:04Z</time>
      </trkpt>
      <trkpt lat="44.16262" lon="5.00604">
        <ele>277.6</ele>
        <time>2020-09-08T09:04:05Z</time>
      </trkpt>
      <trkpt lat="44.16262" lon="5.00603">
        <ele>277.5</ele>
        <time>2020-09-08T09:04:06Z</time>
      </trkpt>
      <trkpt lat="44.16262" lon="5.00601">
        <ele>277.4</ele>
        <time>2020-09-08T09:04:07Z</time>
      </trkpt>
      <trkpt lat="44.16262" lon="5.006">
        <ele>277.3</ele>
        <time>2020-09-08T09:04:08Z</time>
      </trkpt>
      <trkpt lat="44.16263" lon="5.00599">
        <ele>277.3</ele>
        <time>2020-09-08T09:04:09Z</time>
      </trkpt>
      <trkpt lat="44.16263" lon="5.00597">
        <ele>277.2</ele>
        <time>2020-09-08T09:04:10Z</time>
      </trkpt>
      <trkpt lat="44.16263" lon="5.00595">
        <ele>277.1</ele>
        <time>2020-09-08T09:04:11Z</time>
      </trkpt>
      <trkpt lat="44.16263" lon="5.00594">
        <ele>277</ele>
        <time>2020-09-08T09:04:12Z</time>
      </trkpt>
      <trkpt lat="44.16263" lon="5.0059">
        <ele>276.9</ele>
        <time>2020-09-08T09:04:13Z</time>
      </trkpt>
      <trkpt lat="44.16263" lon="5.00589">
        <ele>276.8</ele>
        <time>2020-09-08T09:04:14Z</time>
      </trkpt>
      <trkpt lat="44.16263" lon="5.00587">
        <ele>276.7</ele>
        <time>2020-09-08T09:04:15Z</time>
      </trkpt>
      <trkpt lat="44.16263" lon="5.00586">
        <ele>276.7</ele>
        <time>2020-09-08T09:04:16Z</time>
      </trkpt>
      <trkpt lat="44.16262" lon="5.00585">
        <ele>276.6</ele>
        <time>2020-09-08T09:04:17Z</time>
      </trkpt>
      <trkpt lat="44.16262" lon="5.00582">
        <ele>276.5</ele>
        <time>2020-09-08T09:04:18Z</time>
      </trkpt>
      <trkpt lat="44.16262" lon="5.0058">
        <ele>276.4</ele>
        <time>2020-09-08T09:04:19Z</time>
      </trkpt>
      <trkpt lat="44.16262" lon="5.00578">
        <ele>276.4</ele>
        <time>2020-09-08T09:04:20Z</time>
      </trkpt>
      <trkpt lat="44.16262" lon="5.00577">
        <ele>276.3</ele>
        <time>2020-09-08T09:04:21Z</time>
      </trkpt>
      <trkpt lat="44.16262" lon="5.00575">
        <ele>276.3</ele>
        <time>2020-09-08T09:04:22Z</time>
      </trkpt>
      <trkpt lat="44.16261" lon="5.00573">
        <ele>276.2</ele>
        <time>2020-09-08T09:04:23Z</time>
      </trkpt>
      <trkpt lat="44.1626" lon="5.00572">
        <ele>276.2</ele>
        <time>2020-09-08T09:04:24Z</time>
      </trkpt>
      <trkpt lat="44.1626" lon="5.0057">
        <ele>276.1</ele>
        <time>2020-09-08T09:04:25Z</time>
      </trkpt>
      <trkpt lat="44.16259" lon="5.00569">
        <ele>276.1</ele>
        <time>2020-09-08T09:04:26Z</time>
      </trkpt>
      <trkpt lat="44.1626" lon="5.00567">
        <ele>276.1</ele>
        <time>2020-09-08T09:04:27Z</time>
      </trkpt>
      <trkpt lat="44.16261" lon="5.00565">
        <ele>276.1</ele>
        <time>2020-09-08T09:04:28Z</time>
      </trkpt>
      <trkpt lat="44.16262" lon="5.00564">
        <ele>276.1</ele>
        <time>2020-09-08T09:04:29Z</time>
      </trkpt>
      <trkpt lat="44.16263" lon="5.00564">
        <ele>276</ele>
        <time>2020-09-08T09:04:30Z</time>
      </trkpt>
      <trkpt lat="44.16264" lon="5.00565">
        <ele>276</ele>
        <time>2020-09-08T09:04:31Z</time>
      </trkpt>
      <trkpt lat="44.16265" lon="5.00565">
        <ele>276</ele>
        <time>2020-09-08T09:04:32Z</time>
      </trkpt>
      <trkpt lat="44.16266" lon="5.00565">
        <ele>276</ele>
        <time>2020-09-08T09:04:33Z</time>
      </trkpt>
      <trkpt lat="44.16267" lon="5.00566">
        <ele>276</ele>
        <time>2020-09-08T09:04:34Z</time>
      </trkpt>
      <trkpt lat="44.16269" lon="5.00567">
        <ele>276.1</ele>
        <time>2020-09-08T09:04:35Z</time>
      </trkpt>
      <trkpt lat="44.1627" lon="5.00567">
        <ele>276.1</ele>
        <time>2020-09-08T09:04:36Z</time>
      </trkpt>
      <trkpt lat="44.16271" lon="5.00567">
        <ele>276.1</ele>
        <time>2020-09-08T09:04:37Z</time>
      </trkpt>
      <trkpt lat="44.16272" lon="5.00568">
        <ele>276.1</ele>
        <time>2020-09-08T09:04:38Z</time>
      </trkpt>
      <trkpt lat="44.16273" lon="5.00569">
        <ele>276.2</ele>
        <time>2020-09-08T09:04:39Z</time>
      </trkpt>
      <trkpt lat="44.16274" lon="5.0057">
        <ele>276.2</ele>
        <time>2020-09-08T09:04:40Z</time>
      </trkpt>
      <trkpt lat="44.16276" lon="5.00571">
        <ele>276.2</ele>
        <time>2020-09-08T09:04:41Z</time>
      </trkpt>
      <trkpt lat="44.16276" lon="5.00571">
        <ele>276.3</ele>
        <time>2020-09-08T09:04:42Z</time>
      </trkpt>
      <trkpt lat="44.16277" lon="5.00571">
        <ele>276.3</ele>
        <time>2020-09-08T09:04:43Z</time>
      </trkpt>
      <trkpt lat="44.16278" lon="5.00571">
        <ele>276.3</ele>
        <time>2020-09-08T09:04:44Z</time>
      </trkpt>
      <trkpt lat="44.16279" lon="5.00571">
        <ele>276.3</ele>
        <time>2020-09-08T09:04:46Z</time>
      </trkpt>
      <trkpt lat="44.1628" lon="5.00571">
        <ele>276.4</ele>
        <time>2020-09-08T09:04:47Z</time>
      </trkpt>
      <trkpt lat="44.1628" lon="5.0057">
        <ele>276.4</ele>
        <time>2020-09-08T09:04:48Z</time>
      </trkpt>
      <trkpt lat="44.16281" lon="5.0057">
        <ele>276.4</ele>
        <time>2020-09-08T09:04:49Z</time>
      </trkpt>
      <trkpt lat="44.16283" lon="5.00569">
        <ele>276.5</ele>
        <time>2020-09-08T09:04:50Z</time>
      </trkpt>
      <trkpt lat="44.16282" lon="5.00566">
        <ele>276.5</ele>
        <time>2020-09-08T09:04:51Z</time>
      </trkpt>
      <trkpt lat="44.16282" lon="5.00563">
        <ele>276.5</ele>
        <time>2020-09-08T09:04:52Z</time>
      </trkpt>
      <trkpt lat="44.16282" lon="5.00561">
        <ele>276.5</ele>
        <time>2020-09-08T09:04:53Z</time>
      </trkpt>
      <trkpt lat="44.16282" lon="5.0056">
        <ele>276.5</ele>
        <time>2020-09-08T09:04:54Z</time>
      </trkpt>
      <trkpt lat="44.16282" lon="5.00557">
        <ele>276.5</ele>
        <time>2020-09-08T09:04:55Z</time>
      </trkpt>
      <trkpt lat="44.16283" lon="5.00556">
        <ele>276.5</ele>
        <time>2020-09-08T09:04:56Z</time>
      </trkpt>
      <trkpt lat="44.16284" lon="5.00555">
        <ele>276.5</ele>
        <time>2020-09-08T09:04:57Z</time>
      </trkpt>
      <trkpt lat="44.16286" lon="5.00551">
        <ele>276.4</ele>
        <time>2020-09-08T09:04:58Z</time>
      </trkpt>
      <trkpt lat="44.16287" lon="5.0055">
        <ele>276.4</ele>
        <time>2020-09-08T09:05:00Z</time>
      </trkpt>
      <trkpt lat="44.16288" lon="5.00548">
        <ele>276.4</ele>
        <time>2020-09-08T09:05:01Z</time>
      </trkpt>
      <trkpt lat="44.16289" lon="5.00548">
        <ele>276.3</ele>
        <time>2020-09-08T09:05:02Z</time>
      </trkpt>
      <trkpt lat="44.16288" lon="5.00547">
        <ele>276.3</ele>
        <time>2020-09-08T09:05:03Z</time>
      </trkpt>
      <trkpt lat="44.16288" lon="5.00546">
        <ele>276.3</ele>
        <time>2020-09-08T09:05:04Z</time>
      </trkpt>
      <trkpt lat="44.16288" lon="5.00544">
        <ele>276.2</ele>
        <time>2020-09-08T09:05:05Z</time>
      </trkpt>
      <trkpt lat="44.16289" lon="5.00541">
        <ele>276.1</ele>
        <time>2020-09-08T09:05:06Z</time>
      </trkpt>
      <trkpt lat="44.16289" lon="5.0054">
        <ele>276.1</ele>
        <time>2020-09-08T09:05:07Z</time>
      </trkpt>
      <trkpt lat="44.16289" lon="5.00539">
        <ele>276.1</ele>
        <time>2020-09-08T09:05:08Z</time>
      </trkpt>
      <trkpt lat="44.1629" lon="5.00537">
        <ele>276</ele>
        <time>2020-09-08T09:05:09Z</time>
      </trkpt>
      <trkpt lat="44.1629" lon="5.00536">
        <ele>275.9</ele>
        <time>2020-09-08T09:05:10Z</time>
      </trkpt>
      <trkpt lat="44.1629" lon="5.00535">
        <ele>275.9</ele>
        <time>2020-09-08T09:05:11Z</time>
      </trkpt>
      <trkpt lat="44.1629" lon="5.00535">
        <ele>275.9</ele>
        <time>2020-09-08T09:05:12Z</time>
      </trkpt>
      <trkpt lat="44.1629" lon="5.00533">
        <ele>275.8</ele>
        <time>2020-09-08T09:05:13Z</time>
      </trkpt>
      <trkpt lat="44.1629" lon="5.00532">
        <ele>275.8</ele>
        <time>2020-09-08T09:05:14Z</time>
      </trkpt>
      <trkpt lat="44.16289" lon="5.00532">
        <ele>275.7</ele>
        <time>2020-09-08T09:05:15Z</time>
      </trkpt>
      <trkpt lat="44.1629" lon="5.00532">
        <ele>275.7</ele>
        <time>2020-09-08T09:05:16Z</time>
      </trkpt>
      <trkpt lat="44.1629" lon="5.00532">
        <ele>275.7</ele>
        <time>2020-09-08T09:05:17Z</time>
      </trkpt>
      <trkpt lat="44.1629" lon="5.00532">
        <ele>275.6</ele>
        <time>2020-09-08T09:05:18Z</time>
      </trkpt>
      <trkpt lat="44.16289" lon="5.00531">
        <ele>275.6</ele>
        <time>2020-09-08T09:05:19Z</time>
      </trkpt>
      <trkpt lat="44.16289" lon="5.00531">
        <ele>275.6</ele>
        <time>2020-09-08T09:05:20Z</time>
      </trkpt>
      <trkpt lat="44.1629" lon="5.0053">
        <ele>275.5</ele>
        <time>2020-09-08T09:05:21Z</time>
      </trkpt>
      <trkpt lat="44.1629" lon="5.0053">
        <ele>275.5</ele>
        <time>2020-09-08T09:05:22Z</time>
      </trkpt>
      <trkpt lat="44.16289" lon="5.0053">
        <ele>275.5</ele>
        <time>2020-09-08T09:05:23Z</time>
      </trkpt>
      <trkpt lat="44.16289" lon="5.00532">
        <ele>275.4</ele>
        <time>2020-09-08T09:05:24Z</time>
      </trkpt>
      <trkpt lat="44.16289" lon="5.00532">
        <ele>275.4</ele>
        <time>2020-09-08T09:05:25Z</time>
      </trkpt>
      <trkpt lat="44.16288" lon="5.00533">
        <ele>275.3</ele>
        <time>2020-09-08T09:05:26Z</time>
      </trkpt>
      <trkpt lat="44.16288" lon="5.00533">
        <ele>275.3</ele>
        <time>2020-09-08T09:05:27Z</time>
      </trkpt>
      <trkpt lat="44.16288" lon="5.00533">
        <ele>275.2</ele>
        <time>2020-09-08T09:05:28Z</time>
      </trkpt>
      <trkpt lat="44.16287" lon="5.00533">
        <ele>275.2</ele>
        <time>2020-09-08T09:05:29Z</time>
      </trkpt>
      <trkpt lat="44.16287" lon="5.00532">
        <ele>275.1</ele>
        <time>2020-09-08T09:05:30Z</time>
      </trkpt>
      <trkpt lat="44.16288" lon="5.00533">
        <ele>275</ele>
        <time>2020-09-08T09:05:31Z</time>
      </trkpt>
      <trkpt lat="44.16287" lon="5.00533">
        <ele>274.9</ele>
        <time>2020-09-08T09:05:32Z</time>
      </trkpt>
      <trkpt lat="44.16287" lon="5.00531">
        <ele>274.8</ele>
        <time>2020-09-08T09:05:33Z</time>
      </trkpt>
      <trkpt lat="44.16287" lon="5.0053">
        <ele>274.7</ele>
        <time>2020-09-08T09:05:34Z</time>
      </trkpt>
      <trkpt lat="44.16288" lon="5.00529">
        <ele>274.6</ele>
        <time>2020-09-08T09:05:35Z</time>
      </trkpt>
      <trkpt lat="44.16289" lon="5.00528">
        <ele>274.4</ele>
        <time>2020-09-08T09:05:36Z</time>
      </trkpt>
      <trkpt lat="44.16288" lon="5.00527">
        <ele>274.3</ele>
        <time>2020-09-08T09:05:37Z</time>
      </trkpt>
      <trkpt lat="44.16288" lon="5.00523">
        <ele>274</ele>
        <time>2020-09-08T09:05:38Z</time>
      </trkpt>
      <trkpt lat="44.16289" lon="5.00522">
        <ele>273.8</ele>
        <time>2020-09-08T09:05:39Z</time>
      </trkpt>
      <trkpt lat="44.16289" lon="5.00521">
        <ele>273.7</ele>
        <time>2020-09-08T09:05:40Z</time>
      </trkpt>
      <trkpt lat="44.16289" lon="5.0052">
        <ele>273.6</ele>
        <time>2020-09-08T09:05:41Z</time>
      </trkpt>
      <trkpt lat="44.16291" lon="5.00521">
        <ele>273.4</ele>
        <time>2020-09-08T09:05:42Z</time>
      </trkpt>
      <trkpt lat="44.16292" lon="5.00522">
        <ele>273.2</ele>
        <time>2020-09-08T09:05:43Z</time>
      </trkpt>
      <trkpt lat="44.16293" lon="5.00522">
        <ele>273</ele>
        <time>2020-09-08T09:05:44Z</time>
      </trkpt>
      <trkpt lat="44.16293" lon="5.00524">
        <ele>272.8</ele>
        <time>2020-09-08T09:05:45Z</time>
      </trkpt>
      <trkpt lat="44.16294" lon="5.00525">
        <ele>272.6</ele>
        <time>2020-09-08T09:05:46Z</time>
      </trkpt>
      <trkpt lat="44.16294" lon="5.00527">
        <ele>272.5</ele>
        <time>2020-09-08T09:05:47Z</time>
      </trkpt>
      <trkpt lat="44.16294" lon="5.00528">
        <ele>272.3</ele>
        <time>2020-09-08T09:05:48Z</time>
      </trkpt>
      <trkpt lat="44.16294" lon="5.00529">
        <ele>272.1</ele>
        <time>2020-09-08T09:05:49Z</time>
      </trkpt>
      <trkpt lat="44.16294" lon="5.00531">
        <ele>272</ele>
        <time>2020-09-08T09:05:50Z</time>
      </trkpt>
      <trkpt lat="44.16295" lon="5.00532">
        <ele>271.8</ele>
        <time>2020-09-08T09:05:51Z</time>
      </trkpt>
      <trkpt lat="44.16295" lon="5.00533">
        <ele>271.7</ele>
        <time>2020-09-08T09:05:52Z</time>
      </trkpt>
      <trkpt lat="44.16295" lon="5.00534">
        <ele>271.5</ele>
        <time>2020-09-08T09:05:53Z</time>
      </trkpt>
      <trkpt lat="44.16296" lon="5.00535">
        <ele>271.4</ele>
        <time>2020-09-08T09:05:54Z</time>
      </trkpt>
      <trkpt lat="44.16296" lon="5.00537">
        <ele>271.1</ele>
        <time>2020-09-08T09:05:55Z</time>
      </trkpt>
      <trkpt lat="44.16297" lon="5.00538">
        <ele>270.9</ele>
        <time>2020-09-08T09:05:56Z</time>
      </trkpt>
      <trkpt lat="44.16297" lon="5.00539">
        <ele>270.8</ele>
        <time>2020-09-08T09:05:57Z</time>
      </trkpt>
      <trkpt lat="44.16297" lon="5.0054">
        <ele>270.7</ele>
        <time>2020-09-08T09:05:58Z</time>
      </trkpt>
      <trkpt lat="44.16297" lon="5.00539">
        <ele>270.6</ele>
        <time>2020-09-08T09:05:59Z</time>
      </trkpt>
      <trkpt lat="44.16298" lon="5.00539">
        <ele>270.4</ele>
        <time>2020-09-08T09:06:00Z</time>
      </trkpt>
      <trkpt lat="44.16298" lon="5.00538">
        <ele>270.4</ele>
        <time>2020-09-08T09:06:01Z</time>
      </trkpt>
      <trkpt lat="44.16299" lon="5.00537">
        <ele>270.2</ele>
        <time>2020-09-08T09:06:02Z</time>
      </trkpt>
      <trkpt lat="44.16299" lon="5.00536">
        <ele>270.1</ele>
        <time>2020-09-08T09:06:03Z</time>
      </trkpt>
      <trkpt lat="44.163" lon="5.00536">
        <ele>269.9</ele>
        <time>2020-09-08T09:06:04Z</time>
      </trkpt>
      <trkpt lat="44.16301" lon="5.00535">
        <ele>269.8</ele>
        <time>2020-09-08T09:06:05Z</time>
      </trkpt>
      <trkpt lat="44.16301" lon="5.00534">
        <ele>269.7</ele>
        <time>2020-09-08T09:06:06Z</time>
      </trkpt>
      <trkpt lat="44.16301" lon="5.00534">
        <ele>269.6</ele>
        <time>2020-09-08T09:06:07Z</time>
      </trkpt>
      <trkpt lat="44.16301" lon="5.00533">
        <ele>269.5</ele>
        <time>2020-09-08T09:06:08Z</time>
      </trkpt>
      <trkpt lat="44.16302" lon="5.00533">
        <ele>269.4</ele>
        <time>2020-09-08T09:06:09Z</time>
      </trkpt>
      <trkpt lat="44.16302" lon="5.00533">
        <ele>269.4</ele>
        <time>2020-09-08T09:06:10Z</time>
      </trkpt>
      <trkpt lat="44.16302" lon="5.00533">
        <ele>269.4</ele>
        <time>2020-09-08T09:06:11Z</time>
      </trkpt>
      <trkpt lat="44.16302" lon="5.00532">
        <ele>269.3</ele>
        <time>2020-09-08T09:06:12Z</time>
      </trkpt>
      <trkpt lat="44.16303" lon="5.00532">
        <ele>269.3</ele>
        <time>2020-09-08T09:06:13Z</time>
      </trkpt>
      <trkpt lat="44.16304" lon="5.00533">
        <ele>269.1</ele>
        <time>2020-09-08T09:06:14Z</time>
      </trkpt>
      <trkpt lat="44.16305" lon="5.00534">
        <ele>268.9</ele>
        <time>2020-09-08T09:06:15Z</time>
      </trkpt>
      <trkpt lat="44.16305" lon="5.00536">
        <ele>268.7</ele>
        <time>2020-09-08T09:06:16Z</time>
      </trkpt>
      <trkpt lat="44.16305" lon="5.00538">
        <ele>268.5</ele>
        <time>2020-09-08T09:06:17Z</time>
      </trkpt>
      <trkpt lat="44.16305" lon="5.00538">
        <ele>268.5</ele>
        <time>2020-09-08T09:06:18Z</time>
      </trkpt>
      <trkpt lat="44.16305" lon="5.00538">
        <ele>268.4</ele>
        <time>2020-09-08T09:06:19Z</time>
      </trkpt>
      <trkpt lat="44.16304" lon="5.00537">
        <ele>268.3</ele>
        <time>2020-09-08T09:06:20Z</time>
      </trkpt>
      <trkpt lat="44.16304" lon="5.00536">
        <ele>268.2</ele>
        <time>2020-09-08T09:06:21Z</time>
      </trkpt>
      <trkpt lat="44.16304" lon="5.00536">
        <ele>268.2</ele>
        <time>2020-09-08T09:06:22Z</time>
      </trkpt>
      <trkpt lat="44.16303" lon="5.00535">
        <ele>268.1</ele>
        <time>2020-09-08T09:06:23Z</time>
      </trkpt>
      <trkpt lat="44.16303" lon="5.00534">
        <ele>268</ele>
        <time>2020-09-08T09:06:24Z</time>
      </trkpt>
      <trkpt lat="44.16302" lon="5.00534">
        <ele>268</ele>
        <time>2020-09-08T09:06:25Z</time>
      </trkpt>
      <trkpt lat="44.16303" lon="5.00531">
        <ele>267.8</ele>
        <time>2020-09-08T09:06:26Z</time>
      </trkpt>
      <trkpt lat="44.16303" lon="5.0053">
        <ele>267.7</ele>
        <time>2020-09-08T09:06:27Z</time>
      </trkpt>
      <trkpt lat="44.16303" lon="5.00529">
        <ele>267.6</ele>
        <time>2020-09-08T09:06:28Z</time>
      </trkpt>
      <trkpt lat="44.16302" lon="5.00527">
        <ele>267.5</ele>
        <time>2020-09-08T09:06:29Z</time>
      </trkpt>
      <trkpt lat="44.16303" lon="5.00526">
        <ele>267.4</ele>
        <time>2020-09-08T09:06:30Z</time>
      </trkpt>
      <trkpt lat="44.16302" lon="5.00524">
        <ele>267.3</ele>
        <time>2020-09-08T09:06:31Z</time>
      </trkpt>
      <trkpt lat="44.16302" lon="5.00522">
        <ele>267.1</ele>
        <time>2020-09-08T09:06:32Z</time>
      </trkpt>
      <trkpt lat="44.16302" lon="5.0052">
        <ele>267.1</ele>
        <time>2020-09-08T09:06:33Z</time>
      </trkpt>
      <trkpt lat="44.16301" lon="5.0052">
        <ele>267</ele>
        <time>2020-09-08T09:06:34Z</time>
      </trkpt>
      <trkpt lat="44.16301" lon="5.0052">
        <ele>267</ele>
        <time>2020-09-08T09:06:35Z</time>
      </trkpt>
      <trkpt lat="44.163" lon="5.00519">
        <ele>266.9</ele>
        <time>2020-09-08T09:06:36Z</time>
      </trkpt>
      <trkpt lat="44.16299" lon="5.00517">
        <ele>266.8</ele>
        <time>2020-09-08T09:06:37Z</time>
      </trkpt>
      <trkpt lat="44.16298" lon="5.00516">
        <ele>266.7</ele>
        <time>2020-09-08T09:06:38Z</time>
      </trkpt>
      <trkpt lat="44.16297" lon="5.00515">
        <ele>266.6</ele>
        <time>2020-09-08T09:06:39Z</time>
      </trkpt>
      <trkpt lat="44.16296" lon="5.00514">
        <ele>266.5</ele>
        <time>2020-09-08T09:06:40Z</time>
      </trkpt>
      <trkpt lat="44.16295" lon="5.00512">
        <ele>266.3</ele>
        <time>2020-09-08T09:06:41Z</time>
      </trkpt>
      <trkpt lat="44.16295" lon="5.00511">
        <ele>266.2</ele>
        <time>2020-09-08T09:06:42Z</time>
      </trkpt>
      <trkpt lat="44.16294" lon="5.0051">
        <ele>266.2</ele>
        <time>2020-09-08T09:06:43Z</time>
      </trkpt>
      <trkpt lat="44.16293" lon="5.00508">
        <ele>266</ele>
        <time>2020-09-08T09:06:44Z</time>
      </trkpt>
      <trkpt lat="44.16292" lon="5.00508">
        <ele>265.9</ele>
        <time>2020-09-08T09:06:45Z</time>
      </trkpt>
      <trkpt lat="44.16291" lon="5.00507">
        <ele>265.8</ele>
        <time>2020-09-08T09:06:46Z</time>
      </trkpt>
      <trkpt lat="44.1629" lon="5.00506">
        <ele>265.7</ele>
        <time>2020-09-08T09:06:47Z</time>
      </trkpt>
      <trkpt lat="44.1629" lon="5.00505">
        <ele>265.6</ele>
        <time>2020-09-08T09:06:48Z</time>
      </trkpt>
      <trkpt lat="44.16289" lon="5.00504">
        <ele>265.5</ele>
        <time>2020-09-08T09:06:49Z</time>
      </trkpt>
      <trkpt lat="44.16288" lon="5.00503">
        <ele>265.4</ele>
        <time>2020-09-08T09:06:50Z</time>
      </trkpt>
      <trkpt lat="44.16287" lon="5.00503">
        <ele>265.3</ele>
        <time>2020-09-08T09:06:51Z</time>
      </trkpt>
      <trkpt lat="44.16286" lon="5.00503">
        <ele>265.2</ele>
        <time>2020-09-08T09:06:52Z</time>
      </trkpt>
      <trkpt lat="44.16285" lon="5.00503">
        <ele>265.1</ele>
        <time>2020-09-08T09:06:53Z</time>
      </trkpt>
      <trkpt lat="44.16284" lon="5.00502">
        <ele>265</ele>
        <time>2020-09-08T09:06:54Z</time>
      </trkpt>
      <trkpt lat="44.16283" lon="5.00501">
        <ele>264.9</ele>
        <time>2020-09-08T09:06:55Z</time>
      </trkpt>
      <trkpt lat="44.16282" lon="5.005">
        <ele>264.8</ele>
        <time>2020-09-08T09:06:56Z</time>
      </trkpt>
      <trkpt lat="44.16281" lon="5.005">
        <ele>264.6</ele>
        <time>2020-09-08T09:06:57Z</time>
      </trkpt>
      <trkpt lat="44.1628" lon="5.00499">
        <ele>264.5</ele>
        <time>2020-09-08T09:06:58Z</time>
      </trkpt>
      <trkpt lat="44.16279" lon="5.00499">
        <ele>264.4</ele>
        <time>2020-09-08T09:06:59Z</time>
      </trkpt>
      <trkpt lat="44.16278" lon="5.00498">
        <ele>264.3</ele>
        <time>2020-09-08T09:07:00Z</time>
      </trkpt>
      <trkpt lat="44.16277" lon="5.00498">
        <ele>264.1</ele>
        <time>2020-09-08T09:07:01Z</time>
      </trkpt>
      <trkpt lat="44.16275" lon="5.00497">
        <ele>264</ele>
        <time>2020-09-08T09:07:02Z</time>
      </trkpt>
      <trkpt lat="44.16274" lon="5.00497">
        <ele>263.8</ele>
        <time>2020-09-08T09:07:03Z</time>
      </trkpt>
      <trkpt lat="44.16272" lon="5.00497">
        <ele>263.6</ele>
        <time>2020-09-08T09:07:04Z</time>
      </trkpt>
      <trkpt lat="44.16271" lon="5.00497">
        <ele>263.5</ele>
        <time>2020-09-08T09:07:05Z</time>
      </trkpt>
      <trkpt lat="44.16271" lon="5.00496">
        <ele>263.4</ele>
        <time>2020-09-08T09:07:06Z</time>
      </trkpt>
      <trkpt lat="44.16269" lon="5.00496">
        <ele>263.2</ele>
        <time>2020-09-08T09:07:07Z</time>
      </trkpt>
      <trkpt lat="44.16268" lon="5.00496">
        <ele>263</ele>
        <time>2020-09-08T09:07:08Z</time>
      </trkpt>
      <trkpt lat="44.16267" lon="5.00495">
        <ele>262.9</ele>
        <time>2020-09-08T09:07:09Z</time>
      </trkpt>
      <trkpt lat="44.16266" lon="5.00495">
        <ele>262.8</ele>
        <time>2020-09-08T09:07:10Z</time>
      </trkpt>
      <trkpt lat="44.16265" lon="5.00495">
        <ele>262.6</ele>
        <time>2020-09-08T09:07:11Z</time>
      </trkpt>
      <trkpt lat="44.16263" lon="5.00495">
        <ele>262.5</ele>
        <time>2020-09-08T09:07:12Z</time>
      </trkpt>
      <trkpt lat="44.16262" lon="5.00495">
        <ele>262.3</ele>
        <time>2020-09-08T09:07:13Z</time>
      </trkpt>
      <trkpt lat="44.16261" lon="5.00495">
        <ele>262.1</ele>
        <time>2020-09-08T09:07:14Z</time>
      </trkpt>
      <trkpt lat="44.1626" lon="5.00496">
        <ele>262</ele>
        <time>2020-09-08T09:07:15Z</time>
      </trkpt>
      <trkpt lat="44.1626" lon="5.00496">
        <ele>261.9</ele>
        <time>2020-09-08T09:07:16Z</time>
      </trkpt>
      <trkpt lat="44.16259" lon="5.00496">
        <ele>261.8</ele>
        <time>2020-09-08T09:07:17Z</time>
      </trkpt>
      <trkpt lat="44.16259" lon="5.00496">
        <ele>261.7</ele>
        <time>2020-09-08T09:07:18Z</time>
      </trkpt>
      <trkpt lat="44.16258" lon="5.00497">
        <ele>261.6</ele>
        <time>2020-09-08T09:07:19Z</time>
      </trkpt>
      <trkpt lat="44.16257" lon="5.00497">
        <ele>261.5</ele>
        <time>2020-09-08T09:07:20Z</time>
      </trkpt>
      <trkpt lat="44.16256" lon="5.00497">
        <ele>261.4</ele>
        <time>2020-09-08T09:07:21Z</time>
      </trkpt>
      <trkpt lat="44.16255" lon="5.00496">
        <ele>261.2</ele>
        <time>2020-09-08T09:07:22Z</time>
      </trkpt>
      <trkpt lat="44.16255" lon="5.00495">
        <ele>261.1</ele>
        <time>2020-09-08T09:07:23Z</time>
      </trkpt>
      <trkpt lat="44.16256" lon="5.00493">
        <ele>260.7</ele>
        <time>2020-09-08T09:07:24Z</time>
      </trkpt>
      <trkpt lat="44.16257" lon="5.00492">
        <ele>260.6</ele>
        <time>2020-09-08T09:07:25Z</time>
      </trkpt>
      <trkpt lat="44.16257" lon="5.00491">
        <ele>260.5</ele>
        <time>2020-09-08T09:07:26Z</time>
      </trkpt>
      <trkpt lat="44.16258" lon="5.0049">
        <ele>260.3</ele>
        <time>2020-09-08T09:07:27Z</time>
      </trkpt>
      <trkpt lat="44.16259" lon="5.0049">
        <ele>260.2</ele>
        <time>2020-09-08T09:07:28Z</time>
      </trkpt>
      <trkpt lat="44.1626" lon="5.00489">
        <ele>260</ele>
        <time>2020-09-08T09:07:29Z</time>
      </trkpt>
      <trkpt lat="44.16261" lon="5.00489">
        <ele>259.9</ele>
        <time>2020-09-08T09:07:30Z</time>
      </trkpt>
      <trkpt lat="44.16263" lon="5.00489">
        <ele>259.7</ele>
        <time>2020-09-08T09:07:31Z</time>
      </trkpt>
      <trkpt lat="44.16264" lon="5.00489">
        <ele>259.6</ele>
        <time>2020-09-08T09:07:32Z</time>
      </trkpt>
      <trkpt lat="44.16266" lon="5.00489">
        <ele>259.3</ele>
        <time>2020-09-08T09:07:33Z</time>
      </trkpt>
      <trkpt lat="44.16267" lon="5.00488">
        <ele>259.2</ele>
        <time>2020-09-08T09:07:34Z</time>
      </trkpt>
      <trkpt lat="44.16268" lon="5.00488">
        <ele>259.1</ele>
        <time>2020-09-08T09:07:35Z</time>
      </trkpt>
      <trkpt lat="44.16269" lon="5.00487">
        <ele>258.9</ele>
        <time>2020-09-08T09:07:36Z</time>
      </trkpt>
      <trkpt lat="44.1627" lon="5.00487">
        <ele>258.8</ele>
        <time>2020-09-08T09:07:37Z</time>
      </trkpt>
      <trkpt lat="44.16272" lon="5.00486">
        <ele>258.6</ele>
        <time>2020-09-08T09:07:38Z</time>
      </trkpt>
      <trkpt lat="44.16273" lon="5.00486">
        <ele>258.5</ele>
        <time>2020-09-08T09:07:39Z</time>
      </trkpt>
      <trkpt lat="44.16274" lon="5.00485">
        <ele>258.4</ele>
        <time>2020-09-08T09:07:40Z</time>
      </trkpt>
      <trkpt lat="44.16276" lon="5.00484">
        <ele>258.1</ele>
        <time>2020-09-08T09:07:41Z</time>
      </trkpt>
      <trkpt lat="44.16277" lon="5.00484">
        <ele>258</ele>
        <time>2020-09-08T09:07:42Z</time>
      </trkpt>
      <trkpt lat="44.16278" lon="5.00484">
        <ele>257.9</ele>
        <time>2020-09-08T09:07:43Z</time>
      </trkpt>
      <trkpt lat="44.16279" lon="5.00483">
        <ele>257.8</ele>
        <time>2020-09-08T09:07:44Z</time>
      </trkpt>
      <trkpt lat="44.1628" lon="5.00483">
        <ele>257.7</ele>
        <time>2020-09-08T09:07:45Z</time>
      </trkpt>
      <trkpt lat="44.1628" lon="5.00483">
        <ele>257.6</ele>
        <time>2020-09-08T09:07:46Z</time>
      </trkpt>
      <trkpt lat="44.16281" lon="5.00484">
        <ele>257.5</ele>
        <time>2020-09-08T09:07:47Z</time>
      </trkpt>
      <trkpt lat="44.16283" lon="5.00484">
        <ele>257.2</ele>
        <time>2020-09-08T09:07:48Z</time>
      </trkpt>
      <trkpt lat="44.16284" lon="5.00483">
        <ele>257.1</ele>
        <time>2020-09-08T09:07:49Z</time>
      </trkpt>
      <trkpt lat="44.16285" lon="5.00483">
        <ele>257</ele>
        <time>2020-09-08T09:07:50Z</time>
      </trkpt>
      <trkpt lat="44.16285" lon="5.00484">
        <ele>256.9</ele>
        <time>2020-09-08T09:07:51Z</time>
      </trkpt>
      <trkpt lat="44.16286" lon="5.00485">
        <ele>256.8</ele>
        <time>2020-09-08T09:07:52Z</time>
      </trkpt>
      <trkpt lat="44.16287" lon="5.00484">
        <ele>256.7</ele>
        <time>2020-09-08T09:07:53Z</time>
      </trkpt>
      <trkpt lat="44.16287" lon="5.00484">
        <ele>256.6</ele>
        <time>2020-09-08T09:07:54Z</time>
      </trkpt>
      <trkpt lat="44.16288" lon="5.00483">
        <ele>256.4</ele>
        <time>2020-09-08T09:07:55Z</time>
      </trkpt>
      <trkpt lat="44.16288" lon="5.00481">
        <ele>256.2</ele>
        <time>2020-09-08T09:07:56Z</time>
      </trkpt>
      <trkpt lat="44.16287" lon="5.0048">
        <ele>256</ele>
        <time>2020-09-08T09:07:57Z</time>
      </trkpt>
      <trkpt lat="44.16285" lon="5.0048">
        <ele>255.7</ele>
        <time>2020-09-08T09:07:58Z</time>
      </trkpt>
      <trkpt lat="44.16284" lon="5.0048">
        <ele>255.5</ele>
        <time>2020-09-08T09:07:59Z</time>
      </trkpt>
      <trkpt lat="44.16283" lon="5.0048">
        <ele>255.4</ele>
        <time>2020-09-08T09:08:00Z</time>
      </trkpt>
      <trkpt lat="44.16282" lon="5.00482">
        <ele>255.2</ele>
        <time>2020-09-08T09:08:01Z</time>
      </trkpt>
      <trkpt lat="44.16281" lon="5.00482">
        <ele>254.9</ele>
        <time>2020-09-08T09:08:02Z</time>
      </trkpt>
      <trkpt lat="44.1628" lon="5.00481">
        <ele>254.9</ele>
        <time>2020-09-08T09:08:03Z</time>
      </trkpt>
      <trkpt lat="44.1628" lon="5.0048">
        <ele>254.7</ele>
        <time>2020-09-08T09:08:04Z</time>
      </trkpt>
      <trkpt lat="44.16279" lon="5.00479">
        <ele>254.4</ele>
        <time>2020-09-08T09:08:05Z</time>
      </trkpt>
      <trkpt lat="44.16278" lon="5.00478">
        <ele>254.3</ele>
        <time>2020-09-08T09:08:06Z</time>
      </trkpt>
      <trkpt lat="44.16278" lon="5.00478">
        <ele>254.3</ele>
        <time>2020-09-08T09:08:07Z</time>
      </trkpt>
      <trkpt lat="44.16278" lon="5.00478">
        <ele>253.7</ele>
        <time>2020-09-08T09:08:08Z</time>
      </trkpt>
      <trkpt lat="44.16277" lon="5.00478">
        <ele>253.7</ele>
        <time>2020-09-08T09:08:09Z</time>
      </trkpt>
      <trkpt lat="44.16277" lon="5.00477">
        <ele>253.7</ele>
        <time>2020-09-08T09:08:10Z</time>
      </trkpt>
      <trkpt lat="44.16277" lon="5.00477">
        <ele>253.7</ele>
        <time>2020-09-08T09:08:11Z</time>
      </trkpt>
      <trkpt lat="44.16277" lon="5.00477">
        <ele>253.7</ele>
        <time>2020-09-08T09:08:12Z</time>
      </trkpt>
      <trkpt lat="44.16278" lon="5.00477">
        <ele>253.7</ele>
        <time>2020-09-08T09:08:13Z</time>
      </trkpt>
      <trkpt lat="44.16278" lon="5.00477">
        <ele>253.7</ele>
        <time>2020-09-08T09:08:14Z</time>
      </trkpt>
      <trkpt lat="44.16277" lon="5.00477">
        <ele>253.6</ele>
        <time>2020-09-08T09:08:15Z</time>
      </trkpt>
      <trkpt lat="44.16277" lon="5.00477">
        <ele>253.6</ele>
        <time>2020-09-08T09:08:16Z</time>
      </trkpt>
      <trkpt lat="44.16277" lon="5.00477">
        <ele>253.6</ele>
        <time>2020-09-08T09:08:17Z</time>
      </trkpt>
      <trkpt lat="44.16277" lon="5.00478">
        <ele>253.6</ele>
        <time>2020-09-08T09:08:18Z</time>
      </trkpt>
      <trkpt lat="44.16277" lon="5.0048">
        <ele>253.6</ele>
        <time>2020-09-08T09:08:19Z</time>
      </trkpt>
      <trkpt lat="44.16277" lon="5.0048">
        <ele>253.5</ele>
        <time>2020-09-08T09:08:20Z</time>
      </trkpt>
      <trkpt lat="44.16276" lon="5.0048">
        <ele>253.5</ele>
        <time>2020-09-08T09:08:21Z</time>
      </trkpt>
      <trkpt lat="44.16273" lon="5.0048">
        <ele>253.4</ele>
        <time>2020-09-08T09:08:22Z</time>
      </trkpt>
      <trkpt lat="44.16272" lon="5.00481">
        <ele>253.4</ele>
        <time>2020-09-08T09:08:23Z</time>
      </trkpt>
      <trkpt lat="44.16272" lon="5.00481">
        <ele>253.3</ele>
        <time>2020-09-08T09:08:24Z</time>
      </trkpt>
      <trkpt lat="44.16271" lon="5.00481">
        <ele>253.3</ele>
        <time>2020-09-08T09:08:25Z</time>
      </trkpt>
      <trkpt lat="44.16269" lon="5.00482">
        <ele>253.2</ele>
        <time>2020-09-08T09:08:26Z</time>
      </trkpt>
      <trkpt lat="44.16268" lon="5.00481">
        <ele>253.1</ele>
        <time>2020-09-08T09:08:27Z</time>
      </trkpt>
      <trkpt lat="44.16266" lon="5.00482">
        <ele>253</ele>
        <time>2020-09-08T09:08:28Z</time>
      </trkpt>
      <trkpt lat="44.16265" lon="5.00482">
        <ele>253</ele>
        <time>2020-09-08T09:08:29Z</time>
      </trkpt>
      <trkpt lat="44.16264" lon="5.00482">
        <ele>252.9</ele>
        <time>2020-09-08T09:08:30Z</time>
      </trkpt>
      <trkpt lat="44.16262" lon="5.00482">
        <ele>252.8</ele>
        <time>2020-09-08T09:08:31Z</time>
      </trkpt>
      <trkpt lat="44.16261" lon="5.00482">
        <ele>252.7</ele>
        <time>2020-09-08T09:08:32Z</time>
      </trkpt>
      <trkpt lat="44.1626" lon="5.00483">
        <ele>252.6</ele>
        <time>2020-09-08T09:08:33Z</time>
      </trkpt>
      <trkpt lat="44.16258" lon="5.00483">
        <ele>252.5</ele>
        <time>2020-09-08T09:08:34Z</time>
      </trkpt>
      <trkpt lat="44.16257" lon="5.00483">
        <ele>252.4</ele>
        <time>2020-09-08T09:08:35Z</time>
      </trkpt>
      <trkpt lat="44.16256" lon="5.00483">
        <ele>252.3</ele>
        <time>2020-09-08T09:08:36Z</time>
      </trkpt>
      <trkpt lat="44.16254" lon="5.00484">
        <ele>252.2</ele>
        <time>2020-09-08T09:08:37Z</time>
      </trkpt>
      <trkpt lat="44.16253" lon="5.00484">
        <ele>252.1</ele>
        <time>2020-09-08T09:08:38Z</time>
      </trkpt>
      <trkpt lat="44.16252" lon="5.00484">
        <ele>252</ele>
        <time>2020-09-08T09:08:39Z</time>
      </trkpt>
      <trkpt lat="44.1625" lon="5.00484">
        <ele>251.9</ele>
        <time>2020-09-08T09:08:40Z</time>
      </trkpt>
      <trkpt lat="44.16249" lon="5.00484">
        <ele>251.9</ele>
        <time>2020-09-08T09:08:41Z</time>
      </trkpt>
      <trkpt lat="44.16248" lon="5.00484">
        <ele>251.8</ele>
        <time>2020-09-08T09:08:42Z</time>
      </trkpt>
      <trkpt lat="44.16247" lon="5.00484">
        <ele>251.7</ele>
        <time>2020-09-08T09:08:43Z</time>
      </trkpt>
      <trkpt lat="44.16247" lon="5.00484">
        <ele>251.6</ele>
        <time>2020-09-08T09:08:44Z</time>
      </trkpt>
      <trkpt lat="44.16245" lon="5.00485">
        <ele>251.5</ele>
        <time>2020-09-08T09:08:45Z</time>
      </trkpt>
      <trkpt lat="44.16244" lon="5.00485">
        <ele>251.4</ele>
        <time>2020-09-08T09:08:46Z</time>
      </trkpt>
      <trkpt lat="44.16243" lon="5.00485">
        <ele>251.3</ele>
        <time>2020-09-08T09:08:47Z</time>
      </trkpt>
      <trkpt lat="44.16242" lon="5.00485">
        <ele>251.3</ele>
        <time>2020-09-08T09:08:48Z</time>
      </trkpt>
      <trkpt lat="44.1624" lon="5.00485">
        <ele>251.2</ele>
        <time>2020-09-08T09:08:49Z</time>
      </trkpt>
      <trkpt lat="44.1624" lon="5.00485">
        <ele>251.1</ele>
        <time>2020-09-08T09:08:50Z</time>
      </trkpt>
      <trkpt lat="44.16239" lon="5.00485">
        <ele>251.1</ele>
        <time>2020-09-08T09:08:51Z</time>
      </trkpt>
      <trkpt lat="44.16237" lon="5.00485">
        <ele>250.9</ele>
        <time>2020-09-08T09:08:52Z</time>
      </trkpt>
      <trkpt lat="44.16236" lon="5.00486">
        <ele>250.9</ele>
        <time>2020-09-08T09:08:53Z</time>
      </trkpt>
      <trkpt lat="44.16235" lon="5.00486">
        <ele>250.8</ele>
        <time>2020-09-08T09:08:54Z</time>
      </trkpt>
      <trkpt lat="44.16234" lon="5.00487">
        <ele>250.8</ele>
        <time>2020-09-08T09:08:55Z</time>
      </trkpt>
      <trkpt lat="44.16233" lon="5.00487">
        <ele>250.7</ele>
        <time>2020-09-08T09:08:56Z</time>
      </trkpt>
      <trkpt lat="44.16232" lon="5.00487">
        <ele>250.6</ele>
        <time>2020-09-08T09:08:57Z</time>
      </trkpt>
      <trkpt lat="44.1623" lon="5.00488">
        <ele>250.5</ele>
        <time>2020-09-08T09:08:58Z</time>
      </trkpt>
      <trkpt lat="44.16229" lon="5.00488">
        <ele>250.4</ele>
        <time>2020-09-08T09:08:59Z</time>
      </trkpt>
      <trkpt lat="44.16228" lon="5.00488">
        <ele>250.4</ele>
        <time>2020-09-08T09:09:00Z</time>
      </trkpt>
      <trkpt lat="44.16227" lon="5.00488">
        <ele>250.3</ele>
        <time>2020-09-08T09:09:01Z</time>
      </trkpt>
      <trkpt lat="44.16225" lon="5.00488">
        <ele>250.2</ele>
        <time>2020-09-08T09:09:02Z</time>
      </trkpt>
      <trkpt lat="44.16224" lon="5.00488">
        <ele>250.1</ele>
        <time>2020-09-08T09:09:03Z</time>
      </trkpt>
      <trkpt lat="44.16222" lon="5.00487">
        <ele>250</ele>
        <time>2020-09-08T09:09:04Z</time>
      </trkpt>
      <trkpt lat="44.16221" lon="5.00486">
        <ele>249.9</ele>
        <time>2020-09-08T09:09:05Z</time>
      </trkpt>
      <trkpt lat="44.1622" lon="5.00485">
        <ele>249.8</ele>
        <time>2020-09-08T09:09:06Z</time>
      </trkpt>
      <trkpt lat="44.16219" lon="5.00485">
        <ele>249.7</ele>
        <time>2020-09-08T09:09:07Z</time>
      </trkpt>
      <trkpt lat="44.16218" lon="5.00484">
        <ele>249.7</ele>
        <time>2020-09-08T09:09:08Z</time>
      </trkpt>
      <trkpt lat="44.16217" lon="5.00483">
        <ele>249.6</ele>
        <time>2020-09-08T09:09:09Z</time>
      </trkpt>
      <trkpt lat="44.16215" lon="5.00481">
        <ele>249.8</ele>
        <time>2020-09-08T09:09:10Z</time>
      </trkpt>
      <trkpt lat="44.16214" lon="5.00481">
        <ele>249.9</ele>
        <time>2020-09-08T09:09:11Z</time>
      </trkpt>
      <trkpt lat="44.16214" lon="5.0048">
        <ele>250</ele>
        <time>2020-09-08T09:09:12Z</time>
      </trkpt>
      <trkpt lat="44.16212" lon="5.00479">
        <ele>250.1</ele>
        <time>2020-09-08T09:09:13Z</time>
      </trkpt>
      <trkpt lat="44.16211" lon="5.00479">
        <ele>250.2</ele>
        <time>2020-09-08T09:09:14Z</time>
      </trkpt>
      <trkpt lat="44.1621" lon="5.00478">
        <ele>250.3</ele>
        <time>2020-09-08T09:09:15Z</time>
      </trkpt>
      <trkpt lat="44.16209" lon="5.00478">
        <ele>250.4</ele>
        <time>2020-09-08T09:09:16Z</time>
      </trkpt>
      <trkpt lat="44.16207" lon="5.00477">
        <ele>250.6</ele>
        <time>2020-09-08T09:09:17Z</time>
      </trkpt>
      <trkpt lat="44.16207" lon="5.00477">
        <ele>250.6</ele>
        <time>2020-09-08T09:09:18Z</time>
      </trkpt>
      <trkpt lat="44.16205" lon="5.00476">
        <ele>250.8</ele>
        <time>2020-09-08T09:09:19Z</time>
      </trkpt>
      <trkpt lat="44.16204" lon="5.00475">
        <ele>251</ele>
        <time>2020-09-08T09:09:20Z</time>
      </trkpt>
      <trkpt lat="44.16203" lon="5.00474">
        <ele>251.1</ele>
        <time>2020-09-08T09:09:21Z</time>
      </trkpt>
      <trkpt lat="44.16202" lon="5.00474">
        <ele>251.2</ele>
        <time>2020-09-08T09:09:22Z</time>
      </trkpt>
      <trkpt lat="44.16201" lon="5.00474">
        <ele>251.3</ele>
        <time>2020-09-08T09:09:23Z</time>
      </trkpt>
      <trkpt lat="44.16199" lon="5.00473">
        <ele>251.5</ele>
        <time>2020-09-08T09:09:24Z</time>
      </trkpt>
      <trkpt lat="44.16198" lon="5.00473">
        <ele>251.6</ele>
        <time>2020-09-08T09:09:25Z</time>
      </trkpt>
      <trkpt lat="44.16197" lon="5.00472">
        <ele>251.8</ele>
        <time>2020-09-08T09:09:26Z</time>
      </trkpt>
      <trkpt lat="44.16196" lon="5.00471">
        <ele>251.9</ele>
        <time>2020-09-08T09:09:27Z</time>
      </trkpt>
      <trkpt lat="44.16195" lon="5.00471">
        <ele>252.1</ele>
        <time>2020-09-08T09:09:28Z</time>
      </trkpt>
      <trkpt lat="44.16194" lon="5.0047">
        <ele>252.2</ele>
        <time>2020-09-08T09:09:29Z</time>
      </trkpt>
      <trkpt lat="44.16192" lon="5.00468">
        <ele>252.6</ele>
        <time>2020-09-08T09:09:30Z</time>
      </trkpt>
      <trkpt lat="44.16191" lon="5.00467">
        <ele>252.7</ele>
        <time>2020-09-08T09:09:31Z</time>
      </trkpt>
      <trkpt lat="44.1619" lon="5.00466">
        <ele>252.9</ele>
        <time>2020-09-08T09:09:32Z</time>
      </trkpt>
      <trkpt lat="44.16189" lon="5.00465">
        <ele>253</ele>
        <time>2020-09-08T09:09:33Z</time>
      </trkpt>
      <trkpt lat="44.16188" lon="5.00465">
        <ele>253.1</ele>
        <time>2020-09-08T09:09:34Z</time>
      </trkpt>
      <trkpt lat="44.16187" lon="5.00464">
        <ele>253.3</ele>
        <time>2020-09-08T09:09:35Z</time>
      </trkpt>
      <trkpt lat="44.16186" lon="5.00463">
        <ele>253.4</ele>
        <time>2020-09-08T09:09:36Z</time>
      </trkpt>
      <trkpt lat="44.16185" lon="5.00462">
        <ele>253.6</ele>
        <time>2020-09-08T09:09:37Z</time>
      </trkpt>
      <trkpt lat="44.16184" lon="5.00462">
        <ele>253.7</ele>
        <time>2020-09-08T09:09:38Z</time>
      </trkpt>
      <trkpt lat="44.16183" lon="5.00461">
        <ele>253.9</ele>
        <time>2020-09-08T09:09:39Z</time>
      </trkpt>
      <trkpt lat="44.16182" lon="5.0046">
        <ele>254</ele>
        <time>2020-09-08T09:09:40Z</time>
      </trkpt>
      <trkpt lat="44.16182" lon="5.00459">
        <ele>254.2</ele>
        <time>2020-09-08T09:09:41Z</time>
      </trkpt>
      <trkpt lat="44.16181" lon="5.00458">
        <ele>254.3</ele>
        <time>2020-09-08T09:09:42Z</time>
      </trkpt>
      <trkpt lat="44.1618" lon="5.00458">
        <ele>254.4</ele>
        <time>2020-09-08T09:09:43Z</time>
      </trkpt>
      <trkpt lat="44.1618" lon="5.00457">
        <ele>254.5</ele>
        <time>2020-09-08T09:09:44Z</time>
      </trkpt>
      <trkpt lat="44.16179" lon="5.00456">
        <ele>254.6</ele>
        <time>2020-09-08T09:09:45Z</time>
      </trkpt>
      <trkpt lat="44.16178" lon="5.00456">
        <ele>254.8</ele>
        <time>2020-09-08T09:09:46Z</time>
      </trkpt>
      <trkpt lat="44.16177" lon="5.00456">
        <ele>254.9</ele>
        <time>2020-09-08T09:09:47Z</time>
      </trkpt>
      <trkpt lat="44.16177" lon="5.00455">
        <ele>255.1</ele>
        <time>2020-09-08T09:09:48Z</time>
      </trkpt>
      <trkpt lat="44.16175" lon="5.00453">
        <ele>255.4</ele>
        <time>2020-09-08T09:09:49Z</time>
      </trkpt>
      <trkpt lat="44.16175" lon="5.00452">
        <ele>255.5</ele>
        <time>2020-09-08T09:09:50Z</time>
      </trkpt>
      <trkpt lat="44.16174" lon="5.00451">
        <ele>255.7</ele>
        <time>2020-09-08T09:09:51Z</time>
      </trkpt>
      <trkpt lat="44.16173" lon="5.0045">
        <ele>255.9</ele>
        <time>2020-09-08T09:09:52Z</time>
      </trkpt>
      <trkpt lat="44.16172" lon="5.00449">
        <ele>256.1</ele>
        <time>2020-09-08T09:09:53Z</time>
      </trkpt>
      <trkpt lat="44.16171" lon="5.00448">
        <ele>256.3</ele>
        <time>2020-09-08T09:09:54Z</time>
      </trkpt>
      <trkpt lat="44.1617" lon="5.00445">
        <ele>256.7</ele>
        <time>2020-09-08T09:09:55Z</time>
      </trkpt>
      <trkpt lat="44.16169" lon="5.00445">
        <ele>256.8</ele>
        <time>2020-09-08T09:09:56Z</time>
      </trkpt>
      <trkpt lat="44.16168" lon="5.00443">
        <ele>257</ele>
        <time>2020-09-08T09:09:57Z</time>
      </trkpt>
      <trkpt lat="44.16167" lon="5.00442">
        <ele>257.2</ele>
        <time>2020-09-08T09:09:58Z</time>
      </trkpt>
      <trkpt lat="44.16166" lon="5.00441">
        <ele>257.4</ele>
        <time>2020-09-08T09:09:59Z</time>
      </trkpt>
      <trkpt lat="44.16165" lon="5.00441">
        <ele>257.6</ele>
        <time>2020-09-08T09:10:00Z</time>
      </trkpt>
      <trkpt lat="44.16164" lon="5.0044">
        <ele>257.8</ele>
        <time>2020-09-08T09:10:01Z</time>
      </trkpt>
      <trkpt lat="44.16163" lon="5.00439">
        <ele>258</ele>
        <time>2020-09-08T09:10:02Z</time>
      </trkpt>
      <trkpt lat="44.16162" lon="5.00438">
        <ele>258.2</ele>
        <time>2020-09-08T09:10:03Z</time>
      </trkpt>
      <trkpt lat="44.16161" lon="5.00437">
        <ele>258.4</ele>
        <time>2020-09-08T09:10:04Z</time>
      </trkpt>
      <trkpt lat="44.1616" lon="5.00436">
        <ele>258.5</ele>
        <time>2020-09-08T09:10:05Z</time>
      </trkpt>
      <trkpt lat="44.16159" lon="5.00435">
        <ele>258.7</ele>
        <time>2020-09-08T09:10:06Z</time>
      </trkpt>
      <trkpt lat="44.16158" lon="5.00435">
        <ele>258.9</ele>
        <time>2020-09-08T09:10:07Z</time>
      </trkpt>
      <trkpt lat="44.16157" lon="5.00435">
        <ele>259.1</ele>
        <time>2020-09-08T09:10:08Z</time>
      </trkpt>
      <trkpt lat="44.16156" lon="5.00435">
        <ele>259.2</ele>
        <time>2020-09-08T09:10:09Z</time>
      </trkpt>
      <trkpt lat="44.16156" lon="5.00434">
        <ele>259.3</ele>
        <time>2020-09-08T09:10:10Z</time>
      </trkpt>
      <trkpt lat="44.16154" lon="5.00434">
        <ele>259.5</ele>
        <time>2020-09-08T09:10:11Z</time>
      </trkpt>
      <trkpt lat="44.16153" lon="5.00434">
        <ele>259.7</ele>
        <time>2020-09-08T09:10:12Z</time>
      </trkpt>
      <trkpt lat="44.16153" lon="5.00433">
        <ele>259.8</ele>
        <time>2020-09-08T09:10:13Z</time>
      </trkpt>
      <trkpt lat="44.16152" lon="5.00432">
        <ele>260</ele>
        <time>2020-09-08T09:10:14Z</time>
      </trkpt>
      <trkpt lat="44.16151" lon="5.00431">
        <ele>260.2</ele>
        <time>2020-09-08T09:10:15Z</time>
      </trkpt>
      <trkpt lat="44.1615" lon="5.00431">
        <ele>260.3</ele>
        <time>2020-09-08T09:10:16Z</time>
      </trkpt>
      <trkpt lat="44.1615" lon="5.0043">
        <ele>260.4</ele>
        <time>2020-09-08T09:10:17Z</time>
      </trkpt>
      <trkpt lat="44.16149" lon="5.00429">
        <ele>260.6</ele>
        <time>2020-09-08T09:10:18Z</time>
      </trkpt>
      <trkpt lat="44.16148" lon="5.00428">
        <ele>260.8</ele>
        <time>2020-09-08T09:10:19Z</time>
      </trkpt>
      <trkpt lat="44.16147" lon="5.00428">
        <ele>260.9</ele>
        <time>2020-09-08T09:10:20Z</time>
      </trkpt>
      <trkpt lat="44.16147" lon="5.00428">
        <ele>260.9</ele>
        <time>2020-09-08T09:10:21Z</time>
      </trkpt>
      <trkpt lat="44.16148" lon="5.00428">
        <ele>261</ele>
        <time>2020-09-08T09:10:22Z</time>
      </trkpt>
      <trkpt lat="44.16148" lon="5.00427">
        <ele>261.1</ele>
        <time>2020-09-08T09:10:23Z</time>
      </trkpt>
      <trkpt lat="44.16149" lon="5.00427">
        <ele>261.2</ele>
        <time>2020-09-08T09:10:24Z</time>
      </trkpt>
      <trkpt lat="44.16149" lon="5.00427">
        <ele>261.3</ele>
        <time>2020-09-08T09:10:25Z</time>
      </trkpt>
      <trkpt lat="44.16147" lon="5.00428">
        <ele>261.6</ele>
        <time>2020-09-08T09:10:26Z</time>
      </trkpt>
      <trkpt lat="44.16146" lon="5.00428">
        <ele>261.7</ele>
        <time>2020-09-08T09:10:27Z</time>
      </trkpt>
      <trkpt lat="44.16146" lon="5.00428">
        <ele>261.8</ele>
        <time>2020-09-08T09:10:28Z</time>
      </trkpt>
      <trkpt lat="44.16145" lon="5.00427">
        <ele>262</ele>
        <time>2020-09-08T09:10:29Z</time>
      </trkpt>
      <trkpt lat="44.16143" lon="5.00426">
        <ele>262.3</ele>
        <time>2020-09-08T09:10:30Z</time>
      </trkpt>
      <trkpt lat="44.16142" lon="5.00425">
        <ele>262.5</ele>
        <time>2020-09-08T09:10:31Z</time>
      </trkpt>
      <trkpt lat="44.16142" lon="5.00424">
        <ele>262.6</ele>
        <time>2020-09-08T09:10:32Z</time>
      </trkpt>
      <trkpt lat="44.16141" lon="5.00423">
        <ele>262.8</ele>
        <time>2020-09-08T09:10:33Z</time>
      </trkpt>
      <trkpt lat="44.1614" lon="5.00423">
        <ele>262.9</ele>
        <time>2020-09-08T09:10:34Z</time>
      </trkpt>
      <trkpt lat="44.16139" lon="5.00422">
        <ele>263.1</ele>
        <time>2020-09-08T09:10:35Z</time>
      </trkpt>
      <trkpt lat="44.16139" lon="5.00421">
        <ele>263.3</ele>
        <time>2020-09-08T09:10:36Z</time>
      </trkpt>
      <trkpt lat="44.16138" lon="5.0042">
        <ele>263.4</ele>
        <time>2020-09-08T09:10:37Z</time>
      </trkpt>
      <trkpt lat="44.16137" lon="5.0042">
        <ele>263.6</ele>
        <time>2020-09-08T09:10:38Z</time>
      </trkpt>
      <trkpt lat="44.16135" lon="5.00418">
        <ele>263.9</ele>
        <time>2020-09-08T09:10:39Z</time>
      </trkpt>
      <trkpt lat="44.16135" lon="5.00417">
        <ele>264</ele>
        <time>2020-09-08T09:10:40Z</time>
      </trkpt>
      <trkpt lat="44.16134" lon="5.00416">
        <ele>264.1</ele>
        <time>2020-09-08T09:10:41Z</time>
      </trkpt>
      <trkpt lat="44.16133" lon="5.00416">
        <ele>264.3</ele>
        <time>2020-09-08T09:10:42Z</time>
      </trkpt>
      <trkpt lat="44.16132" lon="5.00415">
        <ele>264.5</ele>
        <time>2020-09-08T09:10:43Z</time>
      </trkpt>
      <trkpt lat="44.16131" lon="5.00415">
        <ele>264.6</ele>
        <time>2020-09-08T09:10:44Z</time>
      </trkpt>
      <trkpt lat="44.1613" lon="5.00415">
        <ele>264.8</ele>
        <time>2020-09-08T09:10:45Z</time>
      </trkpt>
      <trkpt lat="44.16129" lon="5.00415">
        <ele>264.9</ele>
        <time>2020-09-08T09:10:46Z</time>
      </trkpt>
      <trkpt lat="44.16128" lon="5.00415">
        <ele>265.1</ele>
        <time>2020-09-08T09:10:47Z</time>
      </trkpt>
      <trkpt lat="44.16127" lon="5.00414">
        <ele>265.2</ele>
        <time>2020-09-08T09:10:48Z</time>
      </trkpt>
      <trkpt lat="44.16126" lon="5.00414">
        <ele>265.4</ele>
        <time>2020-09-08T09:10:49Z</time>
      </trkpt>
      <trkpt lat="44.16125" lon="5.00414">
        <ele>265.5</ele>
        <time>2020-09-08T09:10:50Z</time>
      </trkpt>
      <trkpt lat="44.16125" lon="5.00414">
        <ele>265.6</ele>
        <time>2020-09-08T09:10:51Z</time>
      </trkpt>
      <trkpt lat="44.16123" lon="5.00413">
        <ele>265.8</ele>
        <time>2020-09-08T09:10:52Z</time>
      </trkpt>
      <trkpt lat="44.16122" lon="5.00414">
        <ele>266</ele>
        <time>2020-09-08T09:10:53Z</time>
      </trkpt>
      <trkpt lat="44.16122" lon="5.00413">
        <ele>266.1</ele>
        <time>2020-09-08T09:10:54Z</time>
      </trkpt>
      <trkpt lat="44.16121" lon="5.00412">
        <ele>266.3</ele>
        <time>2020-09-08T09:10:55Z</time>
      </trkpt>
      <trkpt lat="44.1612" lon="5.00412">
        <ele>266.3</ele>
        <time>2020-09-08T09:10:56Z</time>
      </trkpt>
      <trkpt lat="44.1612" lon="5.00411">
        <ele>266.5</ele>
        <time>2020-09-08T09:10:57Z</time>
      </trkpt>
      <trkpt lat="44.16119" lon="5.00411">
        <ele>266.5</ele>
        <time>2020-09-08T09:10:58Z</time>
      </trkpt>
      <trkpt lat="44.16118" lon="5.0041">
        <ele>266.7</ele>
        <time>2020-09-08T09:10:59Z</time>
      </trkpt>
      <trkpt lat="44.16117" lon="5.00409">
        <ele>266.8</ele>
        <time>2020-09-08T09:11:00Z</time>
      </trkpt>
      <trkpt lat="44.16116" lon="5.00409">
        <ele>267</ele>
        <time>2020-09-08T09:11:01Z</time>
      </trkpt>
      <trkpt lat="44.16116" lon="5.00408">
        <ele>267.1</ele>
        <time>2020-09-08T09:11:02Z</time>
      </trkpt>
      <trkpt lat="44.16115" lon="5.00407">
        <ele>267.3</ele>
        <time>2020-09-08T09:11:04Z</time>
      </trkpt>
      <trkpt lat="44.16114" lon="5.00406">
        <ele>267.4</ele>
        <time>2020-09-08T09:11:05Z</time>
      </trkpt>
      <trkpt lat="44.16113" lon="5.00405">
        <ele>267.6</ele>
        <time>2020-09-08T09:11:06Z</time>
      </trkpt>
      <trkpt lat="44.16112" lon="5.00405">
        <ele>267.7</ele>
        <time>2020-09-08T09:11:07Z</time>
      </trkpt>
      <trkpt lat="44.16112" lon="5.00404">
        <ele>267.8</ele>
        <time>2020-09-08T09:11:08Z</time>
      </trkpt>
      <trkpt lat="44.1611" lon="5.00402">
        <ele>268.1</ele>
        <time>2020-09-08T09:11:09Z</time>
      </trkpt>
      <trkpt lat="44.1611" lon="5.00402">
        <ele>268.2</ele>
        <time>2020-09-08T09:11:10Z</time>
      </trkpt>
      <trkpt lat="44.16109" lon="5.00402">
        <ele>268.3</ele>
        <time>2020-09-08T09:11:11Z</time>
      </trkpt>
      <trkpt lat="44.16107" lon="5.004">
        <ele>268.6</ele>
        <time>2020-09-08T09:11:12Z</time>
      </trkpt>
      <trkpt lat="44.16107" lon="5.004">
        <ele>268.7</ele>
        <time>2020-09-08T09:11:13Z</time>
      </trkpt>
      <trkpt lat="44.16106" lon="5.00399">
        <ele>268.7</ele>
        <time>2020-09-08T09:11:14Z</time>
      </trkpt>
      <trkpt lat="44.16105" lon="5.00399">
        <ele>268.8</ele>
        <time>2020-09-08T09:11:15Z</time>
      </trkpt>
      <trkpt lat="44.16104" lon="5.00397">
        <ele>269.1</ele>
        <time>2020-09-08T09:11:16Z</time>
      </trkpt>
      <trkpt lat="44.16103" lon="5.00396">
        <ele>269.2</ele>
        <time>2020-09-08T09:11:17Z</time>
      </trkpt>
      <trkpt lat="44.16101" lon="5.00394">
        <ele>269.5</ele>
        <time>2020-09-08T09:11:18Z</time>
      </trkpt>
      <trkpt lat="44.161" lon="5.00393">
        <ele>269.7</ele>
        <time>2020-09-08T09:11:19Z</time>
      </trkpt>
      <trkpt lat="44.16099" lon="5.00393">
        <ele>269.8</ele>
        <time>2020-09-08T09:11:20Z</time>
      </trkpt>
      <trkpt lat="44.16098" lon="5.00391">
        <ele>270</ele>
        <time>2020-09-08T09:11:21Z</time>
      </trkpt>
      <trkpt lat="44.16097" lon="5.0039">
        <ele>270.1</ele>
        <time>2020-09-08T09:11:22Z</time>
      </trkpt>
      <trkpt lat="44.16096" lon="5.00389">
        <ele>270.2</ele>
        <time>2020-09-08T09:11:23Z</time>
      </trkpt>
      <trkpt lat="44.16095" lon="5.00388">
        <ele>270.4</ele>
        <time>2020-09-08T09:11:24Z</time>
      </trkpt>
      <trkpt lat="44.16095" lon="5.00387">
        <ele>270.5</ele>
        <time>2020-09-08T09:11:25Z</time>
      </trkpt>
      <trkpt lat="44.16094" lon="5.00386">
        <ele>270.7</ele>
        <time>2020-09-08T09:11:26Z</time>
      </trkpt>
      <trkpt lat="44.16093" lon="5.00384">
        <ele>270.8</ele>
        <time>2020-09-08T09:11:27Z</time>
      </trkpt>
      <trkpt lat="44.16092" lon="5.00383">
        <ele>271</ele>
        <time>2020-09-08T09:11:28Z</time>
      </trkpt>
      <trkpt lat="44.16092" lon="5.00382">
        <ele>271.1</ele>
        <time>2020-09-08T09:11:29Z</time>
      </trkpt>
      <trkpt lat="44.16091" lon="5.00381">
        <ele>271.3</ele>
        <time>2020-09-08T09:11:30Z</time>
      </trkpt>
      <trkpt lat="44.1609" lon="5.00379">
        <ele>271.4</ele>
        <time>2020-09-08T09:11:31Z</time>
      </trkpt>
      <trkpt lat="44.16089" lon="5.00378">
        <ele>271.6</ele>
        <time>2020-09-08T09:11:32Z</time>
      </trkpt>
      <trkpt lat="44.16088" lon="5.00377">
        <ele>271.7</ele>
        <time>2020-09-08T09:11:33Z</time>
      </trkpt>
      <trkpt lat="44.16088" lon="5.00376">
        <ele>271.8</ele>
        <time>2020-09-08T09:11:34Z</time>
      </trkpt>
      <trkpt lat="44.16086" lon="5.00374">
        <ele>272.1</ele>
        <time>2020-09-08T09:11:35Z</time>
      </trkpt>
      <trkpt lat="44.16085" lon="5.00373">
        <ele>272.2</ele>
        <time>2020-09-08T09:11:36Z</time>
      </trkpt>
      <trkpt lat="44.16085" lon="5.00373">
        <ele>272.3</ele>
        <time>2020-09-08T09:11:37Z</time>
      </trkpt>
      <trkpt lat="44.16083" lon="5.00371">
        <ele>272.5</ele>
        <time>2020-09-08T09:11:38Z</time>
      </trkpt>
      <trkpt lat="44.16082" lon="5.00371">
        <ele>272.7</ele>
        <time>2020-09-08T09:11:39Z</time>
      </trkpt>
      <trkpt lat="44.16082" lon="5.0037">
        <ele>272.8</ele>
        <time>2020-09-08T09:11:40Z</time>
      </trkpt>
      <trkpt lat="44.16081" lon="5.00369">
        <ele>272.9</ele>
        <time>2020-09-08T09:11:41Z</time>
      </trkpt>
      <trkpt lat="44.16081" lon="5.00367">
        <ele>273</ele>
        <time>2020-09-08T09:11:42Z</time>
      </trkpt>
      <trkpt lat="44.16081" lon="5.00366">
        <ele>273.1</ele>
        <time>2020-09-08T09:11:43Z</time>
      </trkpt>
      <trkpt lat="44.1608" lon="5.00365">
        <ele>273.2</ele>
        <time>2020-09-08T09:11:44Z</time>
      </trkpt>
      <trkpt lat="44.16079" lon="5.00364">
        <ele>273.3</ele>
        <time>2020-09-08T09:11:45Z</time>
      </trkpt>
      <trkpt lat="44.16079" lon="5.00363">
        <ele>273.5</ele>
        <time>2020-09-08T09:11:46Z</time>
      </trkpt>
      <trkpt lat="44.16077" lon="5.0036">
        <ele>273.8</ele>
        <time>2020-09-08T09:11:47Z</time>
      </trkpt>
      <trkpt lat="44.16077" lon="5.00359">
        <ele>273.9</ele>
        <time>2020-09-08T09:11:48Z</time>
      </trkpt>
      <trkpt lat="44.16076" lon="5.00358">
        <ele>274</ele>
        <time>2020-09-08T09:11:49Z</time>
      </trkpt>
      <trkpt lat="44.16074" lon="5.00357">
        <ele>274.3</ele>
        <time>2020-09-08T09:11:50Z</time>
      </trkpt>
      <trkpt lat="44.16074" lon="5.00356">
        <ele>274.4</ele>
        <time>2020-09-08T09:11:51Z</time>
      </trkpt>
      <trkpt lat="44.16073" lon="5.00355">
        <ele>274.5</ele>
        <time>2020-09-08T09:11:52Z</time>
      </trkpt>
      <trkpt lat="44.16072" lon="5.00355">
        <ele>274.6</ele>
        <time>2020-09-08T09:11:53Z</time>
      </trkpt>
      <trkpt lat="44.16071" lon="5.00353">
        <ele>274.8</ele>
        <time>2020-09-08T09:11:54Z</time>
      </trkpt>
      <trkpt lat="44.1607" lon="5.00352">
        <ele>274.9</ele>
        <time>2020-09-08T09:11:55Z</time>
      </trkpt>
      <trkpt lat="44.1607" lon="5.00351">
        <ele>275</ele>
        <time>2020-09-08T09:11:56Z</time>
      </trkpt>
      <trkpt lat="44.16069" lon="5.00351">
        <ele>275.2</ele>
        <time>2020-09-08T09:11:57Z</time>
      </trkpt>
      <trkpt lat="44.16068" lon="5.00349">
        <ele>275.4</ele>
        <time>2020-09-08T09:11:58Z</time>
      </trkpt>
      <trkpt lat="44.16067" lon="5.00349">
        <ele>275.5</ele>
        <time>2020-09-08T09:11:59Z</time>
      </trkpt>
      <trkpt lat="44.16066" lon="5.00348">
        <ele>275.6</ele>
        <time>2020-09-08T09:12:00Z</time>
      </trkpt>
      <trkpt lat="44.16066" lon="5.00347">
        <ele>275.7</ele>
        <time>2020-09-08T09:12:01Z</time>
      </trkpt>
      <trkpt lat="44.16065" lon="5.00346">
        <ele>275.8</ele>
        <time>2020-09-08T09:12:02Z</time>
      </trkpt>
      <trkpt lat="44.16065" lon="5.00346">
        <ele>275.9</ele>
        <time>2020-09-08T09:12:03Z</time>
      </trkpt>
      <trkpt lat="44.16064" lon="5.00345">
        <ele>276</ele>
        <time>2020-09-08T09:12:04Z</time>
      </trkpt>
      <trkpt lat="44.16064" lon="5.00344">
        <ele>276.1</ele>
        <time>2020-09-08T09:12:05Z</time>
      </trkpt>
      <trkpt lat="44.16063" lon="5.00343">
        <ele>276.3</ele>
        <time>2020-09-08T09:12:06Z</time>
      </trkpt>
      <trkpt lat="44.16063" lon="5.00342">
        <ele>276.4</ele>
        <time>2020-09-08T09:12:07Z</time>
      </trkpt>
      <trkpt lat="44.16063" lon="5.00341">
        <ele>276.5</ele>
        <time>2020-09-08T09:12:08Z</time>
      </trkpt>
      <trkpt lat="44.16063" lon="5.0034">
        <ele>276.5</ele>
        <time>2020-09-08T09:12:09Z</time>
      </trkpt>
      <trkpt lat="44.16062" lon="5.0034">
        <ele>276.6</ele>
        <time>2020-09-08T09:12:10Z</time>
      </trkpt>
      <trkpt lat="44.16062" lon="5.00339">
        <ele>276.7</ele>
        <time>2020-09-08T09:12:11Z</time>
      </trkpt>
      <trkpt lat="44.16061" lon="5.00337">
        <ele>277</ele>
        <time>2020-09-08T09:12:12Z</time>
      </trkpt>
      <trkpt lat="44.1606" lon="5.00336">
        <ele>277.1</ele>
        <time>2020-09-08T09:12:13Z</time>
      </trkpt>
      <trkpt lat="44.1606" lon="5.00334">
        <ele>277.2</ele>
        <time>2020-09-08T09:12:14Z</time>
      </trkpt>
      <trkpt lat="44.1606" lon="5.00333">
        <ele>277.3</ele>
        <time>2020-09-08T09:12:15Z</time>
      </trkpt>
      <trkpt lat="44.16059" lon="5.00332">
        <ele>277.5</ele>
        <time>2020-09-08T09:12:16Z</time>
      </trkpt>
      <trkpt lat="44.16058" lon="5.00331">
        <ele>277.7</ele>
        <time>2020-09-08T09:12:17Z</time>
      </trkpt>
      <trkpt lat="44.16057" lon="5.00331">
        <ele>277.8</ele>
        <time>2020-09-08T09:12:18Z</time>
      </trkpt>
      <trkpt lat="44.16057" lon="5.0033">
        <ele>278</ele>
        <time>2020-09-08T09:12:19Z</time>
      </trkpt>
      <trkpt lat="44.16056" lon="5.0033">
        <ele>278.1</ele>
        <time>2020-09-08T09:12:20Z</time>
      </trkpt>
      <trkpt lat="44.16055" lon="5.00329">
        <ele>278.2</ele>
        <time>2020-09-08T09:12:21Z</time>
      </trkpt>
      <trkpt lat="44.16055" lon="5.00328">
        <ele>278.4</ele>
        <time>2020-09-08T09:12:22Z</time>
      </trkpt>
      <trkpt lat="44.16054" lon="5.00327">
        <ele>278.6</ele>
        <time>2020-09-08T09:12:23Z</time>
      </trkpt>
      <trkpt lat="44.16053" lon="5.00326">
        <ele>278.7</ele>
        <time>2020-09-08T09:12:24Z</time>
      </trkpt>
      <trkpt lat="44.16052" lon="5.00326">
        <ele>278.9</ele>
        <time>2020-09-08T09:12:25Z</time>
      </trkpt>
      <trkpt lat="44.16051" lon="5.00327">
        <ele>279.2</ele>
        <time>2020-09-08T09:12:26Z</time>
      </trkpt>
      <trkpt lat="44.1605" lon="5.00327">
        <ele>279.3</ele>
        <time>2020-09-08T09:12:27Z</time>
      </trkpt>
      <trkpt lat="44.16049" lon="5.00326">
        <ele>279.5</ele>
        <time>2020-09-08T09:12:28Z</time>
      </trkpt>
      <trkpt lat="44.16049" lon="5.00325">
        <ele>279.7</ele>
        <time>2020-09-08T09:12:29Z</time>
      </trkpt>
      <trkpt lat="44.16048" lon="5.00325">
        <ele>279.8</ele>
        <time>2020-09-08T09:12:30Z</time>
      </trkpt>
      <trkpt lat="44.16048" lon="5.00324">
        <ele>280</ele>
        <time>2020-09-08T09:12:31Z</time>
      </trkpt>
      <trkpt lat="44.16047" lon="5.00323">
        <ele>280.1</ele>
        <time>2020-09-08T09:12:32Z</time>
      </trkpt>
      <trkpt lat="44.16046" lon="5.00322">
        <ele>280.4</ele>
        <time>2020-09-08T09:12:33Z</time>
      </trkpt>
      <trkpt lat="44.16045" lon="5.00321">
        <ele>280.7</ele>
        <time>2020-09-08T09:12:34Z</time>
      </trkpt>
      <trkpt lat="44.16044" lon="5.0032">
        <ele>280.8</ele>
        <time>2020-09-08T09:12:35Z</time>
      </trkpt>
      <trkpt lat="44.16043" lon="5.0032">
        <ele>281</ele>
        <time>2020-09-08T09:12:36Z</time>
      </trkpt>
      <trkpt lat="44.16043" lon="5.00319">
        <ele>281.1</ele>
        <time>2020-09-08T09:12:37Z</time>
      </trkpt>
      <trkpt lat="44.16042" lon="5.00318">
        <ele>281.3</ele>
        <time>2020-09-08T09:12:38Z</time>
      </trkpt>
      <trkpt lat="44.16042" lon="5.00317">
        <ele>281.5</ele>
        <time>2020-09-08T09:12:39Z</time>
      </trkpt>
      <trkpt lat="44.16041" lon="5.00317">
        <ele>281.6</ele>
        <time>2020-09-08T09:12:40Z</time>
      </trkpt>
      <trkpt lat="44.1604" lon="5.00317">
        <ele>281.8</ele>
        <time>2020-09-08T09:12:41Z</time>
      </trkpt>
      <trkpt lat="44.1604" lon="5.00316">
        <ele>281.9</ele>
        <time>2020-09-08T09:12:42Z</time>
      </trkpt>
      <trkpt lat="44.16039" lon="5.00315">
        <ele>282.2</ele>
        <time>2020-09-08T09:12:43Z</time>
      </trkpt>
      <trkpt lat="44.16038" lon="5.00315">
        <ele>282.3</ele>
        <time>2020-09-08T09:12:44Z</time>
      </trkpt>
      <trkpt lat="44.16037" lon="5.00315">
        <ele>282.5</ele>
        <time>2020-09-08T09:12:45Z</time>
      </trkpt>
      <trkpt lat="44.16036" lon="5.00315">
        <ele>282.7</ele>
        <time>2020-09-08T09:12:46Z</time>
      </trkpt>
      <trkpt lat="44.16035" lon="5.00315">
        <ele>282.9</ele>
        <time>2020-09-08T09:12:47Z</time>
      </trkpt>
      <trkpt lat="44.16034" lon="5.00315">
        <ele>283.1</ele>
        <time>2020-09-08T09:12:48Z</time>
      </trkpt>
      <trkpt lat="44.16034" lon="5.00315">
        <ele>283.2</ele>
        <time>2020-09-08T09:12:49Z</time>
      </trkpt>
      <trkpt lat="44.16033" lon="5.00315">
        <ele>283.3</ele>
        <time>2020-09-08T09:12:50Z</time>
      </trkpt>
      <trkpt lat="44.16032" lon="5.00314">
        <ele>283.6</ele>
        <time>2020-09-08T09:12:51Z</time>
      </trkpt>
      <trkpt lat="44.16032" lon="5.00314">
        <ele>283.6</ele>
        <time>2020-09-08T09:12:52Z</time>
      </trkpt>
      <trkpt lat="44.16031" lon="5.00315">
        <ele>283.7</ele>
        <time>2020-09-08T09:12:53Z</time>
      </trkpt>
      <trkpt lat="44.1603" lon="5.00314">
        <ele>284</ele>
        <time>2020-09-08T09:12:54Z</time>
      </trkpt>
      <trkpt lat="44.1603" lon="5.00314">
        <ele>284.8</ele>
        <time>2020-09-08T09:12:55Z</time>
      </trkpt>
      <trkpt lat="44.16029" lon="5.00315">
        <ele>284.9</ele>
        <time>2020-09-08T09:12:56Z</time>
      </trkpt>
      <trkpt lat="44.16029" lon="5.00316">
        <ele>285</ele>
        <time>2020-09-08T09:12:57Z</time>
      </trkpt>
      <trkpt lat="44.16028" lon="5.00316">
        <ele>285.1</ele>
        <time>2020-09-08T09:12:58Z</time>
      </trkpt>
      <trkpt lat="44.16029" lon="5.00317">
        <ele>285.2</ele>
        <time>2020-09-08T09:12:59Z</time>
      </trkpt>
      <trkpt lat="44.16027" lon="5.00318">
        <ele>285.5</ele>
        <time>2020-09-08T09:13:00Z</time>
      </trkpt>
      <trkpt lat="44.16027" lon="5.00319">
        <ele>285.7</ele>
        <time>2020-09-08T09:13:01Z</time>
      </trkpt>
      <trkpt lat="44.16027" lon="5.0032">
        <ele>285.8</ele>
        <time>2020-09-08T09:13:02Z</time>
      </trkpt>
      <trkpt lat="44.16026" lon="5.00322">
        <ele>286</ele>
        <time>2020-09-08T09:13:03Z</time>
      </trkpt>
      <trkpt lat="44.16027" lon="5.00324">
        <ele>286.3</ele>
        <time>2020-09-08T09:13:04Z</time>
      </trkpt>
      <trkpt lat="44.16027" lon="5.00324">
        <ele>286.4</ele>
        <time>2020-09-08T09:13:05Z</time>
      </trkpt>
      <trkpt lat="44.16026" lon="5.00326">
        <ele>286.5</ele>
        <time>2020-09-08T09:13:06Z</time>
      </trkpt>
      <trkpt lat="44.16026" lon="5.00326">
        <ele>286.6</ele>
        <time>2020-09-08T09:13:07Z</time>
      </trkpt>
      <trkpt lat="44.16025" lon="5.00327">
        <ele>286.8</ele>
        <time>2020-09-08T09:13:08Z</time>
      </trkpt>
      <trkpt lat="44.16025" lon="5.00328">
        <ele>286.9</ele>
        <time>2020-09-08T09:13:10Z</time>
      </trkpt>
      <trkpt lat="44.16025" lon="5.00328">
        <ele>286.9</ele>
        <time>2020-09-08T09:13:11Z</time>
      </trkpt>
      <trkpt lat="44.16024" lon="5.00329">
        <ele>287.2</ele>
        <time>2020-09-08T09:13:12Z</time>
      </trkpt>
      <trkpt lat="44.16024" lon="5.0033">
        <ele>287.3</ele>
        <time>2020-09-08T09:13:13Z</time>
      </trkpt>
      <trkpt lat="44.16023" lon="5.00331">
        <ele>287.5</ele>
        <time>2020-09-08T09:13:14Z</time>
      </trkpt>
      <trkpt lat="44.16022" lon="5.00332">
        <ele>287.6</ele>
        <time>2020-09-08T09:13:15Z</time>
      </trkpt>
      <trkpt lat="44.16022" lon="5.00333">
        <ele>287.7</ele>
        <time>2020-09-08T09:13:16Z</time>
      </trkpt>
      <trkpt lat="44.16021" lon="5.00333">
        <ele>287.9</ele>
        <time>2020-09-08T09:13:17Z</time>
      </trkpt>
      <trkpt lat="44.16021" lon="5.00334">
        <ele>288</ele>
        <time>2020-09-08T09:13:18Z</time>
      </trkpt>
      <trkpt lat="44.1602" lon="5.00335">
        <ele>288.2</ele>
        <time>2020-09-08T09:13:19Z</time>
      </trkpt>
      <trkpt lat="44.1602" lon="5.00336">
        <ele>288.3</ele>
        <time>2020-09-08T09:13:20Z</time>
      </trkpt>
      <trkpt lat="44.16019" lon="5.00338">
        <ele>288.6</ele>
        <time>2020-09-08T09:13:21Z</time>
      </trkpt>
      <trkpt lat="44.16017" lon="5.00338">
        <ele>288.8</ele>
        <time>2020-09-08T09:13:22Z</time>
      </trkpt>
      <trkpt lat="44.16016" lon="5.00339">
        <ele>289</ele>
        <time>2020-09-08T09:13:23Z</time>
      </trkpt>
      <trkpt lat="44.16016" lon="5.00339">
        <ele>289.1</ele>
        <time>2020-09-08T09:13:24Z</time>
      </trkpt>
      <trkpt lat="44.16015" lon="5.0034">
        <ele>289.3</ele>
        <time>2020-09-08T09:13:25Z</time>
      </trkpt>
      <trkpt lat="44.16015" lon="5.00341">
        <ele>289.4</ele>
        <time>2020-09-08T09:13:26Z</time>
      </trkpt>
      <trkpt lat="44.16014" lon="5.00342">
        <ele>289.6</ele>
        <time>2020-09-08T09:13:27Z</time>
      </trkpt>
      <trkpt lat="44.16013" lon="5.00342">
        <ele>289.7</ele>
        <time>2020-09-08T09:13:28Z</time>
      </trkpt>
      <trkpt lat="44.16013" lon="5.00343">
        <ele>289.8</ele>
        <time>2020-09-08T09:13:29Z</time>
      </trkpt>
      <trkpt lat="44.16012" lon="5.00344">
        <ele>290</ele>
        <time>2020-09-08T09:13:30Z</time>
      </trkpt>
      <trkpt lat="44.16011" lon="5.00345">
        <ele>290.2</ele>
        <time>2020-09-08T09:13:31Z</time>
      </trkpt>
      <trkpt lat="44.1601" lon="5.00346">
        <ele>290.4</ele>
        <time>2020-09-08T09:13:32Z</time>
      </trkpt>
      <trkpt lat="44.16009" lon="5.00347">
        <ele>290.6</ele>
        <time>2020-09-08T09:13:33Z</time>
      </trkpt>
      <trkpt lat="44.16009" lon="5.00348">
        <ele>290.7</ele>
        <time>2020-09-08T09:13:34Z</time>
      </trkpt>
      <trkpt lat="44.16007" lon="5.00349">
        <ele>291</ele>
        <time>2020-09-08T09:13:35Z</time>
      </trkpt>
      <trkpt lat="44.16007" lon="5.0035">
        <ele>291.1</ele>
        <time>2020-09-08T09:13:36Z</time>
      </trkpt>
      <trkpt lat="44.16006" lon="5.00351">
        <ele>291.3</ele>
        <time>2020-09-08T09:13:37Z</time>
      </trkpt>
      <trkpt lat="44.16005" lon="5.00351">
        <ele>291.4</ele>
        <time>2020-09-08T09:13:38Z</time>
      </trkpt>
      <trkpt lat="44.16005" lon="5.00353">
        <ele>291.6</ele>
        <time>2020-09-08T09:13:39Z</time>
      </trkpt>
      <trkpt lat="44.16003" lon="5.00354">
        <ele>291.8</ele>
        <time>2020-09-08T09:13:40Z</time>
      </trkpt>
      <trkpt lat="44.16003" lon="5.00354">
        <ele>291.9</ele>
        <time>2020-09-08T09:13:41Z</time>
      </trkpt>
      <trkpt lat="44.16002" lon="5.00355">
        <ele>292.1</ele>
        <time>2020-09-08T09:13:42Z</time>
      </trkpt>
      <trkpt lat="44.16001" lon="5.00357">
        <ele>292.3</ele>
        <time>2020-09-08T09:13:43Z</time>
      </trkpt>
      <trkpt lat="44.16" lon="5.00357">
        <ele>292.5</ele>
        <time>2020-09-08T09:13:44Z</time>
      </trkpt>
      <trkpt lat="44.15999" lon="5.00357">
        <ele>292.6</ele>
        <time>2020-09-08T09:13:45Z</time>
      </trkpt>
      <trkpt lat="44.15999" lon="5.00358">
        <ele>292.8</ele>
        <time>2020-09-08T09:13:46Z</time>
      </trkpt>
      <trkpt lat="44.15998" lon="5.00359">
        <ele>292.9</ele>
        <time>2020-09-08T09:13:47Z</time>
      </trkpt>
      <trkpt lat="44.15997" lon="5.00359">
        <ele>293.1</ele>
        <time>2020-09-08T09:13:48Z</time>
      </trkpt>
      <trkpt lat="44.15996" lon="5.0036">
        <ele>293.2</ele>
        <time>2020-09-08T09:13:49Z</time>
      </trkpt>
      <trkpt lat="44.15995" lon="5.00359">
        <ele>293.4</ele>
        <time>2020-09-08T09:13:50Z</time>
      </trkpt>
      <trkpt lat="44.15994" lon="5.00359">
        <ele>293.5</ele>
        <time>2020-09-08T09:13:51Z</time>
      </trkpt>
      <trkpt lat="44.15994" lon="5.00359">
        <ele>293.7</ele>
        <time>2020-09-08T09:13:52Z</time>
      </trkpt>
      <trkpt lat="44.15993" lon="5.0036">
        <ele>293.8</ele>
        <time>2020-09-08T09:13:53Z</time>
      </trkpt>
      <trkpt lat="44.15992" lon="5.0036">
        <ele>294</ele>
        <time>2020-09-08T09:13:54Z</time>
      </trkpt>
      <trkpt lat="44.15992" lon="5.00361">
        <ele>294.1</ele>
        <time>2020-09-08T09:13:55Z</time>
      </trkpt>
      <trkpt lat="44.15991" lon="5.00363">
        <ele>294.3</ele>
        <time>2020-09-08T09:13:56Z</time>
      </trkpt>
      <trkpt lat="44.1599" lon="5.00364">
        <ele>294.4</ele>
        <time>2020-09-08T09:13:57Z</time>
      </trkpt>
      <trkpt lat="44.1599" lon="5.00365">
        <ele>294.6</ele>
        <time>2020-09-08T09:13:58Z</time>
      </trkpt>
      <trkpt lat="44.15989" lon="5.00366">
        <ele>294.8</ele>
        <time>2020-09-08T09:13:59Z</time>
      </trkpt>
      <trkpt lat="44.15988" lon="5.00367">
        <ele>295</ele>
        <time>2020-09-08T09:14:00Z</time>
      </trkpt>
      <trkpt lat="44.15987" lon="5.00368">
        <ele>295.1</ele>
        <time>2020-09-08T09:14:01Z</time>
      </trkpt>
      <trkpt lat="44.15986" lon="5.00368">
        <ele>295.2</ele>
        <time>2020-09-08T09:14:02Z</time>
      </trkpt>
      <trkpt lat="44.15986" lon="5.00369">
        <ele>295.3</ele>
        <time>2020-09-08T09:14:03Z</time>
      </trkpt>
      <trkpt lat="44.15986" lon="5.0037">
        <ele>295.5</ele>
        <time>2020-09-08T09:14:04Z</time>
      </trkpt>
      <trkpt lat="44.15986" lon="5.00372">
        <ele>295.6</ele>
        <time>2020-09-08T09:14:05Z</time>
      </trkpt>
      <trkpt lat="44.15985" lon="5.00373">
        <ele>295.8</ele>
        <time>2020-09-08T09:14:06Z</time>
      </trkpt>
      <trkpt lat="44.15985" lon="5.00374">
        <ele>295.9</ele>
        <time>2020-09-08T09:14:07Z</time>
      </trkpt>
      <trkpt lat="44.15984" lon="5.00375">
        <ele>296.1</ele>
        <time>2020-09-08T09:14:08Z</time>
      </trkpt>
      <trkpt lat="44.15983" lon="5.00376">
        <ele>296.2</ele>
        <time>2020-09-08T09:14:09Z</time>
      </trkpt>
      <trkpt lat="44.15983" lon="5.00378">
        <ele>296.4</ele>
        <time>2020-09-08T09:14:10Z</time>
      </trkpt>
      <trkpt lat="44.15983" lon="5.00379">
        <ele>296.5</ele>
        <time>2020-09-08T09:14:11Z</time>
      </trkpt>
      <trkpt lat="44.15982" lon="5.0038">
        <ele>296.7</ele>
        <time>2020-09-08T09:14:12Z</time>
      </trkpt>
      <trkpt lat="44.15982" lon="5.00381">
        <ele>296.8</ele>
        <time>2020-09-08T09:14:13Z</time>
      </trkpt>
      <trkpt lat="44.15981" lon="5.00381">
        <ele>296.9</ele>
        <time>2020-09-08T09:14:14Z</time>
      </trkpt>
      <trkpt lat="44.15981" lon="5.00383">
        <ele>297.1</ele>
        <time>2020-09-08T09:14:15Z</time>
      </trkpt>
      <trkpt lat="44.15981" lon="5.00383">
        <ele>297.2</ele>
        <time>2020-09-08T09:14:16Z</time>
      </trkpt>
      <trkpt lat="44.1598" lon="5.00385">
        <ele>297.4</ele>
        <time>2020-09-08T09:14:17Z</time>
      </trkpt>
      <trkpt lat="44.15979" lon="5.00386">
        <ele>297.5</ele>
        <time>2020-09-08T09:14:18Z</time>
      </trkpt>
      <trkpt lat="44.15979" lon="5.00387">
        <ele>297.7</ele>
        <time>2020-09-08T09:14:19Z</time>
      </trkpt>
      <trkpt lat="44.15979" lon="5.00388">
        <ele>297.8</ele>
        <time>2020-09-08T09:14:20Z</time>
      </trkpt>
      <trkpt lat="44.15979" lon="5.0039">
        <ele>298</ele>
        <time>2020-09-08T09:14:21Z</time>
      </trkpt>
      <trkpt lat="44.15978" lon="5.00391">
        <ele>298.2</ele>
        <time>2020-09-08T09:14:22Z</time>
      </trkpt>
      <trkpt lat="44.15979" lon="5.00391">
        <ele>298.2</ele>
        <time>2020-09-08T09:14:23Z</time>
      </trkpt>
      <trkpt lat="44.15978" lon="5.00393">
        <ele>298.5</ele>
        <time>2020-09-08T09:14:24Z</time>
      </trkpt>
      <trkpt lat="44.15977" lon="5.00394">
        <ele>298.7</ele>
        <time>2020-09-08T09:14:25Z</time>
      </trkpt>
      <trkpt lat="44.15977" lon="5.00396">
        <ele>298.8</ele>
        <time>2020-09-08T09:14:26Z</time>
      </trkpt>
      <trkpt lat="44.15976" lon="5.00397">
        <ele>298.9</ele>
        <time>2020-09-08T09:14:27Z</time>
      </trkpt>
      <trkpt lat="44.15976" lon="5.00398">
        <ele>299.1</ele>
        <time>2020-09-08T09:14:28Z</time>
      </trkpt>
      <trkpt lat="44.15975" lon="5.00399">
        <ele>299.2</ele>
        <time>2020-09-08T09:14:29Z</time>
      </trkpt>
      <trkpt lat="44.15975" lon="5.004">
        <ele>299.4</ele>
        <time>2020-09-08T09:14:30Z</time>
      </trkpt>
      <trkpt lat="44.15974" lon="5.00401">
        <ele>299.6</ele>
        <time>2020-09-08T09:14:31Z</time>
      </trkpt>
      <trkpt lat="44.15974" lon="5.00401">
        <ele>299.7</ele>
        <time>2020-09-08T09:14:32Z</time>
      </trkpt>
      <trkpt lat="44.15973" lon="5.00401">
        <ele>299.7</ele>
        <time>2020-09-08T09:14:33Z</time>
      </trkpt>
      <trkpt lat="44.15973" lon="5.00402">
        <ele>299.8</ele>
        <time>2020-09-08T09:14:34Z</time>
      </trkpt>
      <trkpt lat="44.15973" lon="5.00402">
        <ele>299.8</ele>
        <time>2020-09-08T09:14:35Z</time>
      </trkpt>
      <trkpt lat="44.15972" lon="5.00402">
        <ele>299.9</ele>
        <time>2020-09-08T09:14:36Z</time>
      </trkpt>
      <trkpt lat="44.15972" lon="5.00402">
        <ele>299.9</ele>
        <time>2020-09-08T09:14:37Z</time>
      </trkpt>
      <trkpt lat="44.15972" lon="5.00402">
        <ele>300</ele>
        <time>2020-09-08T09:14:38Z</time>
      </trkpt>
      <trkpt lat="44.15971" lon="5.00404">
        <ele>300.2</ele>
        <time>2020-09-08T09:14:39Z</time>
      </trkpt>
      <trkpt lat="44.1597" lon="5.00405">
        <ele>300.4</ele>
        <time>2020-09-08T09:14:40Z</time>
      </trkpt>
      <trkpt lat="44.1597" lon="5.00406">
        <ele>300.5</ele>
        <time>2020-09-08T09:14:41Z</time>
      </trkpt>
      <trkpt lat="44.15969" lon="5.00408">
        <ele>300.8</ele>
        <time>2020-09-08T09:14:42Z</time>
      </trkpt>
      <trkpt lat="44.15968" lon="5.00409">
        <ele>300.9</ele>
        <time>2020-09-08T09:14:43Z</time>
      </trkpt>
      <trkpt lat="44.15968" lon="5.00409">
        <ele>301</ele>
        <time>2020-09-08T09:14:44Z</time>
      </trkpt>
      <trkpt lat="44.15967" lon="5.0041">
        <ele>301.1</ele>
        <time>2020-09-08T09:14:45Z</time>
      </trkpt>
      <trkpt lat="44.15967" lon="5.00411">
        <ele>301.2</ele>
        <time>2020-09-08T09:14:46Z</time>
      </trkpt>
      <trkpt lat="44.15966" lon="5.00412">
        <ele>301.3</ele>
        <time>2020-09-08T09:14:47Z</time>
      </trkpt>
      <trkpt lat="44.15965" lon="5.00413">
        <ele>301.5</ele>
        <time>2020-09-08T09:14:48Z</time>
      </trkpt>
      <trkpt lat="44.15965" lon="5.00414">
        <ele>301.7</ele>
        <time>2020-09-08T09:14:49Z</time>
      </trkpt>
      <trkpt lat="44.15964" lon="5.00416">
        <ele>301.8</ele>
        <time>2020-09-08T09:14:50Z</time>
      </trkpt>
      <trkpt lat="44.15964" lon="5.00417">
        <ele>301.9</ele>
        <time>2020-09-08T09:14:51Z</time>
      </trkpt>
      <trkpt lat="44.15963" lon="5.00418">
        <ele>302.1</ele>
        <time>2020-09-08T09:14:52Z</time>
      </trkpt>
      <trkpt lat="44.15963" lon="5.00419">
        <ele>302.2</ele>
        <time>2020-09-08T09:14:53Z</time>
      </trkpt>
      <trkpt lat="44.15962" lon="5.0042">
        <ele>302.3</ele>
        <time>2020-09-08T09:14:54Z</time>
      </trkpt>
      <trkpt lat="44.1596" lon="5.00422">
        <ele>302.6</ele>
        <time>2020-09-08T09:14:55Z</time>
      </trkpt>
      <trkpt lat="44.1596" lon="5.00423">
        <ele>302.7</ele>
        <time>2020-09-08T09:14:56Z</time>
      </trkpt>
      <trkpt lat="44.15959" lon="5.00424">
        <ele>302.8</ele>
        <time>2020-09-08T09:14:57Z</time>
      </trkpt>
      <trkpt lat="44.1596" lon="5.00425">
        <ele>303</ele>
        <time>2020-09-08T09:14:58Z</time>
      </trkpt>
      <trkpt lat="44.15959" lon="5.00426">
        <ele>303.1</ele>
        <time>2020-09-08T09:14:59Z</time>
      </trkpt>
      <trkpt lat="44.15958" lon="5.00428">
        <ele>303.3</ele>
        <time>2020-09-08T09:15:00Z</time>
      </trkpt>
      <trkpt lat="44.15957" lon="5.00429">
        <ele>303.5</ele>
        <time>2020-09-08T09:15:01Z</time>
      </trkpt>
      <trkpt lat="44.15956" lon="5.0043">
        <ele>303.6</ele>
        <time>2020-09-08T09:15:02Z</time>
      </trkpt>
      <trkpt lat="44.15956" lon="5.00431">
        <ele>303.7</ele>
        <time>2020-09-08T09:15:03Z</time>
      </trkpt>
      <trkpt lat="44.15955" lon="5.00432">
        <ele>303.8</ele>
        <time>2020-09-08T09:15:04Z</time>
      </trkpt>
      <trkpt lat="44.15955" lon="5.00432">
        <ele>304</ele>
        <time>2020-09-08T09:15:05Z</time>
      </trkpt>
      <trkpt lat="44.15954" lon="5.00433">
        <ele>304.1</ele>
        <time>2020-09-08T09:15:06Z</time>
      </trkpt>
      <trkpt lat="44.15954" lon="5.00434">
        <ele>304.2</ele>
        <time>2020-09-08T09:15:07Z</time>
      </trkpt>
      <trkpt lat="44.15953" lon="5.00436">
        <ele>304.4</ele>
        <time>2020-09-08T09:15:08Z</time>
      </trkpt>
      <trkpt lat="44.15952" lon="5.00437">
        <ele>304.5</ele>
        <time>2020-09-08T09:15:09Z</time>
      </trkpt>
      <trkpt lat="44.15952" lon="5.00438">
        <ele>304.6</ele>
        <time>2020-09-08T09:15:10Z</time>
      </trkpt>
      <trkpt lat="44.15952" lon="5.00438">
        <ele>304.7</ele>
        <time>2020-09-08T09:15:11Z</time>
      </trkpt>
      <trkpt lat="44.15951" lon="5.0044">
        <ele>304.9</ele>
        <time>2020-09-08T09:15:12Z</time>
      </trkpt>
      <trkpt lat="44.1595" lon="5.00441">
        <ele>305</ele>
        <time>2020-09-08T09:15:13Z</time>
      </trkpt>
      <trkpt lat="44.15949" lon="5.00442">
        <ele>305.3</ele>
        <time>2020-09-08T09:15:14Z</time>
      </trkpt>
      <trkpt lat="44.15949" lon="5.00443">
        <ele>305.4</ele>
        <time>2020-09-08T09:15:16Z</time>
      </trkpt>
      <trkpt lat="44.15948" lon="5.00444">
        <ele>305.6</ele>
        <time>2020-09-08T09:15:17Z</time>
      </trkpt>
      <trkpt lat="44.15947" lon="5.00446">
        <ele>305.8</ele>
        <time>2020-09-08T09:15:18Z</time>
      </trkpt>
      <trkpt lat="44.15946" lon="5.00447">
        <ele>306.1</ele>
        <time>2020-09-08T09:15:19Z</time>
      </trkpt>
      <trkpt lat="44.15945" lon="5.00448">
        <ele>306.3</ele>
        <time>2020-09-08T09:15:20Z</time>
      </trkpt>
      <trkpt lat="44.15945" lon="5.00449">
        <ele>306.4</ele>
        <time>2020-09-08T09:15:21Z</time>
      </trkpt>
      <trkpt lat="44.15944" lon="5.00449">
        <ele>306.6</ele>
        <time>2020-09-08T09:15:22Z</time>
      </trkpt>
      <trkpt lat="44.15943" lon="5.0045">
        <ele>306.7</ele>
        <time>2020-09-08T09:15:23Z</time>
      </trkpt>
      <trkpt lat="44.15943" lon="5.00451">
        <ele>306.9</ele>
        <time>2020-09-08T09:15:24Z</time>
      </trkpt>
      <trkpt lat="44.15943" lon="5.00453">
        <ele>307.2</ele>
        <time>2020-09-08T09:15:25Z</time>
      </trkpt>
      <trkpt lat="44.15942" lon="5.00453">
        <ele>307.4</ele>
        <time>2020-09-08T09:15:26Z</time>
      </trkpt>
      <trkpt lat="44.15941" lon="5.00454">
        <ele>307.5</ele>
        <time>2020-09-08T09:15:27Z</time>
      </trkpt>
      <trkpt lat="44.15941" lon="5.00456">
        <ele>307.8</ele>
        <time>2020-09-08T09:15:28Z</time>
      </trkpt>
      <trkpt lat="44.15941" lon="5.00458">
        <ele>308.1</ele>
        <time>2020-09-08T09:15:29Z</time>
      </trkpt>
      <trkpt lat="44.1594" lon="5.00461">
        <ele>308.6</ele>
        <time>2020-09-08T09:15:30Z</time>
      </trkpt>
      <trkpt lat="44.1594" lon="5.00462">
        <ele>308.7</ele>
        <time>2020-09-08T09:15:31Z</time>
      </trkpt>
      <trkpt lat="44.15939" lon="5.00463">
        <ele>308.9</ele>
        <time>2020-09-08T09:15:32Z</time>
      </trkpt>
      <trkpt lat="44.1594" lon="5.00464">
        <ele>309.2</ele>
        <time>2020-09-08T09:15:33Z</time>
      </trkpt>
      <trkpt lat="44.15939" lon="5.00466">
        <ele>309.3</ele>
        <time>2020-09-08T09:15:34Z</time>
      </trkpt>
      <trkpt lat="44.1594" lon="5.00467">
        <ele>309.9</ele>
        <time>2020-09-08T09:15:35Z</time>
      </trkpt>
      <trkpt lat="44.15939" lon="5.00468">
        <ele>310</ele>
        <time>2020-09-08T09:15:36Z</time>
      </trkpt>
      <trkpt lat="44.15939" lon="5.00469">
        <ele>310.1</ele>
        <time>2020-09-08T09:15:37Z</time>
      </trkpt>
      <trkpt lat="44.15939" lon="5.00471">
        <ele>310.3</ele>
        <time>2020-09-08T09:15:39Z</time>
      </trkpt>
      <trkpt lat="44.1594" lon="5.00471">
        <ele>310.4</ele>
        <time>2020-09-08T09:15:40Z</time>
      </trkpt>
      <trkpt lat="44.1594" lon="5.00472">
        <ele>310.6</ele>
        <time>2020-09-08T09:15:41Z</time>
      </trkpt>
      <trkpt lat="44.15941" lon="5.00473">
        <ele>310.7</ele>
        <time>2020-09-08T09:15:42Z</time>
      </trkpt>
      <trkpt lat="44.15941" lon="5.00473">
        <ele>310.8</ele>
        <time>2020-09-08T09:15:43Z</time>
      </trkpt>
      <trkpt lat="44.15941" lon="5.00474">
        <ele>310.9</ele>
        <time>2020-09-08T09:15:44Z</time>
      </trkpt>
      <trkpt lat="44.15941" lon="5.00475">
        <ele>311</ele>
        <time>2020-09-08T09:15:45Z</time>
      </trkpt>
      <trkpt lat="44.15941" lon="5.00476">
        <ele>311.1</ele>
        <time>2020-09-08T09:15:46Z</time>
      </trkpt>
      <trkpt lat="44.15941" lon="5.00477">
        <ele>311.3</ele>
        <time>2020-09-08T09:15:47Z</time>
      </trkpt>
      <trkpt lat="44.15941" lon="5.00476">
        <ele>311.4</ele>
        <time>2020-09-08T09:15:48Z</time>
      </trkpt>
      <trkpt lat="44.15941" lon="5.00476">
        <ele>311.5</ele>
        <time>2020-09-08T09:15:49Z</time>
      </trkpt>
      <trkpt lat="44.15942" lon="5.00476">
        <ele>311.6</ele>
        <time>2020-09-08T09:15:50Z</time>
      </trkpt>
      <trkpt lat="44.15942" lon="5.00475">
        <ele>311.7</ele>
        <time>2020-09-08T09:15:51Z</time>
      </trkpt>
      <trkpt lat="44.15942" lon="5.00475">
        <ele>311.8</ele>
        <time>2020-09-08T09:15:52Z</time>
      </trkpt>
      <trkpt lat="44.15943" lon="5.00475">
        <ele>311.9</ele>
        <time>2020-09-08T09:15:53Z</time>
      </trkpt>
      <trkpt lat="44.15943" lon="5.00475">
        <ele>311.9</ele>
        <time>2020-09-08T09:15:54Z</time>
      </trkpt>
      <trkpt lat="44.15944" lon="5.00475">
        <ele>312</ele>
        <time>2020-09-08T09:15:55Z</time>
      </trkpt>
      <trkpt lat="44.15944" lon="5.00475">
        <ele>312.1</ele>
        <time>2020-09-08T09:15:56Z</time>
      </trkpt>
      <trkpt lat="44.15944" lon="5.00476">
        <ele>312.2</ele>
        <time>2020-09-08T09:15:57Z</time>
      </trkpt>
      <trkpt lat="44.15944" lon="5.00476">
        <ele>312.3</ele>
        <time>2020-09-08T09:15:58Z</time>
      </trkpt>
      <trkpt lat="44.15944" lon="5.00476">
        <ele>312.3</ele>
        <time>2020-09-08T09:15:59Z</time>
      </trkpt>
      <trkpt lat="44.15944" lon="5.00476">
        <ele>312.4</ele>
        <time>2020-09-08T09:16:00Z</time>
      </trkpt>
      <trkpt lat="44.15944" lon="5.00476">
        <ele>312.5</ele>
        <time>2020-09-08T09:16:01Z</time>
      </trkpt>
      <trkpt lat="44.15945" lon="5.00477">
        <ele>312.7</ele>
        <time>2020-09-08T09:16:02Z</time>
      </trkpt>
      <trkpt lat="44.15945" lon="5.00477">
        <ele>312.7</ele>
        <time>2020-09-08T09:16:03Z</time>
      </trkpt>
      <trkpt lat="44.15945" lon="5.00477">
        <ele>312.8</ele>
        <time>2020-09-08T09:16:04Z</time>
      </trkpt>
      <trkpt lat="44.15944" lon="5.00477">
        <ele>313</ele>
        <time>2020-09-08T09:16:05Z</time>
      </trkpt>
      <trkpt lat="44.15944" lon="5.00476">
        <ele>313.1</ele>
        <time>2020-09-08T09:16:06Z</time>
      </trkpt>
      <trkpt lat="44.15944" lon="5.00475">
        <ele>313.2</ele>
        <time>2020-09-08T09:16:07Z</time>
      </trkpt>
      <trkpt lat="44.15944" lon="5.00475">
        <ele>313.3</ele>
        <time>2020-09-08T09:16:08Z</time>
      </trkpt>
      <trkpt lat="44.15944" lon="5.00474">
        <ele>313.4</ele>
        <time>2020-09-08T09:16:09Z</time>
      </trkpt>
      <trkpt lat="44.15944" lon="5.00474">
        <ele>313.4</ele>
        <time>2020-09-08T09:16:10Z</time>
      </trkpt>
      <trkpt lat="44.15943" lon="5.00473">
        <ele>313.5</ele>
        <time>2020-09-08T09:16:11Z</time>
      </trkpt>
      <trkpt lat="44.15943" lon="5.00473">
        <ele>313.6</ele>
        <time>2020-09-08T09:16:12Z</time>
      </trkpt>
      <trkpt lat="44.15943" lon="5.00473">
        <ele>313.6</ele>
        <time>2020-09-08T09:16:13Z</time>
      </trkpt>
      <trkpt lat="44.15944" lon="5.00472">
        <ele>313.7</ele>
        <time>2020-09-08T09:16:14Z</time>
      </trkpt>
      <trkpt lat="44.15944" lon="5.00473">
        <ele>313.7</ele>
        <time>2020-09-08T09:16:15Z</time>
      </trkpt>
      <trkpt lat="44.15944" lon="5.00473">
        <ele>313.7</ele>
        <time>2020-09-08T09:16:16Z</time>
      </trkpt>
      <trkpt lat="44.15944" lon="5.00473">
        <ele>313.8</ele>
        <time>2020-09-08T09:16:17Z</time>
      </trkpt>
      <trkpt lat="44.15943" lon="5.00473">
        <ele>314</ele>
        <time>2020-09-08T09:16:18Z</time>
      </trkpt>
      <trkpt lat="44.15942" lon="5.00473">
        <ele>314</ele>
        <time>2020-09-08T09:16:19Z</time>
      </trkpt>
      <trkpt lat="44.15943" lon="5.00472">
        <ele>314.1</ele>
        <time>2020-09-08T09:16:20Z</time>
      </trkpt>
      <trkpt lat="44.15943" lon="5.00472">
        <ele>314.1</ele>
        <time>2020-09-08T09:16:21Z</time>
      </trkpt>
      <trkpt lat="44.15943" lon="5.00473">
        <ele>314.2</ele>
        <time>2020-09-08T09:16:22Z</time>
      </trkpt>
      <trkpt lat="44.15943" lon="5.00474">
        <ele>314.3</ele>
        <time>2020-09-08T09:16:23Z</time>
      </trkpt>
      <trkpt lat="44.15942" lon="5.00475">
        <ele>314.5</ele>
        <time>2020-09-08T09:16:24Z</time>
      </trkpt>
      <trkpt lat="44.15941" lon="5.00476">
        <ele>314.8</ele>
        <time>2020-09-08T09:16:25Z</time>
      </trkpt>
      <trkpt lat="44.1594" lon="5.00478">
        <ele>315.1</ele>
        <time>2020-09-08T09:16:26Z</time>
      </trkpt>
      <trkpt lat="44.1594" lon="5.00479">
        <ele>315.3</ele>
        <time>2020-09-08T09:16:27Z</time>
      </trkpt>
      <trkpt lat="44.1594" lon="5.0048">
        <ele>315.4</ele>
        <time>2020-09-08T09:16:28Z</time>
      </trkpt>
      <trkpt lat="44.1594" lon="5.00481">
        <ele>315.5</ele>
        <time>2020-09-08T09:16:29Z</time>
      </trkpt>
      <trkpt lat="44.1594" lon="5.00484">
        <ele>316</ele>
        <time>2020-09-08T09:16:30Z</time>
      </trkpt>
      <trkpt lat="44.1594" lon="5.00485">
        <ele>316.2</ele>
        <time>2020-09-08T09:16:31Z</time>
      </trkpt>
      <trkpt lat="44.1594" lon="5.00486">
        <ele>316.4</ele>
        <time>2020-09-08T09:16:32Z</time>
      </trkpt>
      <trkpt lat="44.1594" lon="5.00488">
        <ele>316.6</ele>
        <time>2020-09-08T09:16:33Z</time>
      </trkpt>
      <trkpt lat="44.1594" lon="5.00489">
        <ele>316.8</ele>
        <time>2020-09-08T09:16:34Z</time>
      </trkpt>
      <trkpt lat="44.15941" lon="5.00491">
        <ele>317</ele>
        <time>2020-09-08T09:16:35Z</time>
      </trkpt>
      <trkpt lat="44.15941" lon="5.00493">
        <ele>317.3</ele>
        <time>2020-09-08T09:16:36Z</time>
      </trkpt>
      <trkpt lat="44.15942" lon="5.00495">
        <ele>317.6</ele>
        <time>2020-09-08T09:16:37Z</time>
      </trkpt>
      <trkpt lat="44.15942" lon="5.00498">
        <ele>318.1</ele>
        <time>2020-09-08T09:16:38Z</time>
      </trkpt>
      <trkpt lat="44.15942" lon="5.00499">
        <ele>318.3</ele>
        <time>2020-09-08T09:16:39Z</time>
      </trkpt>
      <trkpt lat="44.15942" lon="5.00501">
        <ele>318.5</ele>
        <time>2020-09-08T09:16:40Z</time>
      </trkpt>
      <trkpt lat="44.15943" lon="5.00504">
        <ele>319</ele>
        <time>2020-09-08T09:16:41Z</time>
      </trkpt>
      <trkpt lat="44.15943" lon="5.00505">
        <ele>319.2</ele>
        <time>2020-09-08T09:16:42Z</time>
      </trkpt>
      <trkpt lat="44.15943" lon="5.00506">
        <ele>319.3</ele>
        <time>2020-09-08T09:16:43Z</time>
      </trkpt>
      <trkpt lat="44.15943" lon="5.0051">
        <ele>319.8</ele>
        <time>2020-09-08T09:16:44Z</time>
      </trkpt>
      <trkpt lat="44.15943" lon="5.00511">
        <ele>320</ele>
        <time>2020-09-08T09:16:45Z</time>
      </trkpt>
      <trkpt lat="44.15943" lon="5.00512">
        <ele>320.2</ele>
        <time>2020-09-08T09:16:46Z</time>
      </trkpt>
      <trkpt lat="44.15943" lon="5.00513">
        <ele>320.3</ele>
        <time>2020-09-08T09:16:47Z</time>
      </trkpt>
      <trkpt lat="44.15943" lon="5.00515">
        <ele>320.6</ele>
        <time>2020-09-08T09:16:48Z</time>
      </trkpt>
      <trkpt lat="44.15943" lon="5.00517">
        <ele>320.9</ele>
        <time>2020-09-08T09:16:49Z</time>
      </trkpt>
      <trkpt lat="44.15944" lon="5.00518">
        <ele>321.2</ele>
        <time>2020-09-08T09:16:50Z</time>
      </trkpt>
      <trkpt lat="44.15945" lon="5.0052">
        <ele>321.4</ele>
        <time>2020-09-08T09:16:51Z</time>
      </trkpt>
      <trkpt lat="44.15945" lon="5.00521">
        <ele>321.7</ele>
        <time>2020-09-08T09:16:52Z</time>
      </trkpt>
      <trkpt lat="44.15945" lon="5.00523">
        <ele>321.9</ele>
        <time>2020-09-08T09:16:53Z</time>
      </trkpt>
      <trkpt lat="44.15946" lon="5.00524">
        <ele>322.1</ele>
        <time>2020-09-08T09:16:54Z</time>
      </trkpt>
      <trkpt lat="44.15946" lon="5.00526">
        <ele>322.5</ele>
        <time>2020-09-08T09:16:55Z</time>
      </trkpt>
      <trkpt lat="44.15946" lon="5.00528">
        <ele>322.6</ele>
        <time>2020-09-08T09:16:56Z</time>
      </trkpt>
      <trkpt lat="44.15946" lon="5.00529">
        <ele>322.8</ele>
        <time>2020-09-08T09:16:57Z</time>
      </trkpt>
      <trkpt lat="44.15946" lon="5.0053">
        <ele>323</ele>
        <time>2020-09-08T09:16:58Z</time>
      </trkpt>
      <trkpt lat="44.15946" lon="5.00532">
        <ele>323.3</ele>
        <time>2020-09-08T09:16:59Z</time>
      </trkpt>
      <trkpt lat="44.15946" lon="5.00533">
        <ele>323.5</ele>
        <time>2020-09-08T09:17:00Z</time>
      </trkpt>
      <trkpt lat="44.15946" lon="5.00536">
        <ele>323.9</ele>
        <time>2020-09-08T09:17:01Z</time>
      </trkpt>
      <trkpt lat="44.15946" lon="5.00538">
        <ele>324.1</ele>
        <time>2020-09-08T09:17:02Z</time>
      </trkpt>
      <trkpt lat="44.15946" lon="5.00539">
        <ele>324.2</ele>
        <time>2020-09-08T09:17:03Z</time>
      </trkpt>
      <trkpt lat="44.15946" lon="5.0054">
        <ele>324.4</ele>
        <time>2020-09-08T09:17:04Z</time>
      </trkpt>
      <trkpt lat="44.15946" lon="5.00541">
        <ele>324.5</ele>
        <time>2020-09-08T09:17:05Z</time>
      </trkpt>
      <trkpt lat="44.15946" lon="5.00543">
        <ele>324.8</ele>
        <time>2020-09-08T09:17:06Z</time>
      </trkpt>
      <trkpt lat="44.15947" lon="5.00545">
        <ele>325</ele>
        <time>2020-09-08T09:17:07Z</time>
      </trkpt>
      <trkpt lat="44.15947" lon="5.00546">
        <ele>325.3</ele>
        <time>2020-09-08T09:17:08Z</time>
      </trkpt>
      <trkpt lat="44.15947" lon="5.00547">
        <ele>325.3</ele>
        <time>2020-09-08T09:17:09Z</time>
      </trkpt>
      <trkpt lat="44.15947" lon="5.00548">
        <ele>325.5</ele>
        <time>2020-09-08T09:17:10Z</time>
      </trkpt>
      <trkpt lat="44.15947" lon="5.0055">
        <ele>325.7</ele>
        <time>2020-09-08T09:17:11Z</time>
      </trkpt>
      <trkpt lat="44.15947" lon="5.00551">
        <ele>325.8</ele>
        <time>2020-09-08T09:17:12Z</time>
      </trkpt>
      <trkpt lat="44.15947" lon="5.00553">
        <ele>326.1</ele>
        <time>2020-09-08T09:17:13Z</time>
      </trkpt>
      <trkpt lat="44.15948" lon="5.00554">
        <ele>326.3</ele>
        <time>2020-09-08T09:17:14Z</time>
      </trkpt>
      <trkpt lat="44.15947" lon="5.00555">
        <ele>326.4</ele>
        <time>2020-09-08T09:17:15Z</time>
      </trkpt>
      <trkpt lat="44.15947" lon="5.00556">
        <ele>326.6</ele>
        <time>2020-09-08T09:17:16Z</time>
      </trkpt>
      <trkpt lat="44.15947" lon="5.00558">
        <ele>326.8</ele>
        <time>2020-09-08T09:17:17Z</time>
      </trkpt>
      <trkpt lat="44.15947" lon="5.00559">
        <ele>327</ele>
        <time>2020-09-08T09:17:18Z</time>
      </trkpt>
      <trkpt lat="44.15947" lon="5.00561">
        <ele>327.2</ele>
        <time>2020-09-08T09:17:19Z</time>
      </trkpt>
      <trkpt lat="44.15947" lon="5.00563">
        <ele>327.5</ele>
        <time>2020-09-08T09:17:20Z</time>
      </trkpt>
      <trkpt lat="44.15947" lon="5.00566">
        <ele>327.8</ele>
        <time>2020-09-08T09:17:21Z</time>
      </trkpt>
      <trkpt lat="44.15947" lon="5.00567">
        <ele>328</ele>
        <time>2020-09-08T09:17:22Z</time>
      </trkpt>
      <trkpt lat="44.15947" lon="5.00568">
        <ele>328.1</ele>
        <time>2020-09-08T09:17:23Z</time>
      </trkpt>
      <trkpt lat="44.15947" lon="5.0057">
        <ele>328.3</ele>
        <time>2020-09-08T09:17:24Z</time>
      </trkpt>
      <trkpt lat="44.15947" lon="5.00571">
        <ele>328.4</ele>
        <time>2020-09-08T09:17:25Z</time>
      </trkpt>
      <trkpt lat="44.15947" lon="5.00572">
        <ele>328.6</ele>
        <time>2020-09-08T09:17:26Z</time>
      </trkpt>
      <trkpt lat="44.15947" lon="5.00575">
        <ele>328.9</ele>
        <time>2020-09-08T09:17:27Z</time>
      </trkpt>
      <trkpt lat="44.15947" lon="5.00576">
        <ele>329.1</ele>
        <time>2020-09-08T09:17:28Z</time>
      </trkpt>
      <trkpt lat="44.15947" lon="5.00579">
        <ele>329.4</ele>
        <time>2020-09-08T09:17:29Z</time>
      </trkpt>
      <trkpt lat="44.15947" lon="5.0058">
        <ele>329.6</ele>
        <time>2020-09-08T09:17:30Z</time>
      </trkpt>
      <trkpt lat="44.15946" lon="5.00582">
        <ele>329.7</ele>
        <time>2020-09-08T09:17:31Z</time>
      </trkpt>
      <trkpt lat="44.15946" lon="5.00583">
        <ele>329.9</ele>
        <time>2020-09-08T09:17:32Z</time>
      </trkpt>
      <trkpt lat="44.15947" lon="5.00586">
        <ele>330.2</ele>
        <time>2020-09-08T09:17:33Z</time>
      </trkpt>
      <trkpt lat="44.15947" lon="5.00587">
        <ele>330.3</ele>
        <time>2020-09-08T09:17:34Z</time>
      </trkpt>
      <trkpt lat="44.15947" lon="5.00588">
        <ele>330.5</ele>
        <time>2020-09-08T09:17:35Z</time>
      </trkpt>
      <trkpt lat="44.15946" lon="5.00589">
        <ele>330.6</ele>
        <time>2020-09-08T09:17:36Z</time>
      </trkpt>
      <trkpt lat="44.15946" lon="5.00591">
        <ele>330.8</ele>
        <time>2020-09-08T09:17:37Z</time>
      </trkpt>
      <trkpt lat="44.15945" lon="5.00592">
        <ele>331</ele>
        <time>2020-09-08T09:17:38Z</time>
      </trkpt>
      <trkpt lat="44.15945" lon="5.00594">
        <ele>331.1</ele>
        <time>2020-09-08T09:17:39Z</time>
      </trkpt>
      <trkpt lat="44.15945" lon="5.00595">
        <ele>331.3</ele>
        <time>2020-09-08T09:17:40Z</time>
      </trkpt>
      <trkpt lat="44.15944" lon="5.00596">
        <ele>331.4</ele>
        <time>2020-09-08T09:17:41Z</time>
      </trkpt>
      <trkpt lat="44.15944" lon="5.00598">
        <ele>331.6</ele>
        <time>2020-09-08T09:17:42Z</time>
      </trkpt>
      <trkpt lat="44.15944" lon="5.006">
        <ele>331.8</ele>
        <time>2020-09-08T09:17:43Z</time>
      </trkpt>
      <trkpt lat="44.15945" lon="5.00602">
        <ele>332</ele>
        <time>2020-09-08T09:17:44Z</time>
      </trkpt>
      <trkpt lat="44.15945" lon="5.00603">
        <ele>332.2</ele>
        <time>2020-09-08T09:17:45Z</time>
      </trkpt>
      <trkpt lat="44.15945" lon="5.00604">
        <ele>332.3</ele>
        <time>2020-09-08T09:17:46Z</time>
      </trkpt>
      <trkpt lat="44.15945" lon="5.00606">
        <ele>332.5</ele>
        <time>2020-09-08T09:17:47Z</time>
      </trkpt>
      <trkpt lat="44.15945" lon="5.00608">
        <ele>332.6</ele>
        <time>2020-09-08T09:17:48Z</time>
      </trkpt>
      <trkpt lat="44.15945" lon="5.00609">
        <ele>332.8</ele>
        <time>2020-09-08T09:17:49Z</time>
      </trkpt>
      <trkpt lat="44.15945" lon="5.00611">
        <ele>332.9</ele>
        <time>2020-09-08T09:17:50Z</time>
      </trkpt>
      <trkpt lat="44.15945" lon="5.00612">
        <ele>333.1</ele>
        <time>2020-09-08T09:17:51Z</time>
      </trkpt>
      <trkpt lat="44.15945" lon="5.00614">
        <ele>333.2</ele>
        <time>2020-09-08T09:17:52Z</time>
      </trkpt>
      <trkpt lat="44.15945" lon="5.00615">
        <ele>333.4</ele>
        <time>2020-09-08T09:17:54Z</time>
      </trkpt>
      <trkpt lat="44.15945" lon="5.00617">
        <ele>333.5</ele>
        <time>2020-09-08T09:17:55Z</time>
      </trkpt>
      <trkpt lat="44.15945" lon="5.00618">
        <ele>333.6</ele>
        <time>2020-09-08T09:17:56Z</time>
      </trkpt>
      <trkpt lat="44.15945" lon="5.00618">
        <ele>333.7</ele>
        <time>2020-09-08T09:17:57Z</time>
      </trkpt>
      <trkpt lat="44.15945" lon="5.0062">
        <ele>333.9</ele>
        <time>2020-09-08T09:17:58Z</time>
      </trkpt>
      <trkpt lat="44.15945" lon="5.00622">
        <ele>334.1</ele>
        <time>2020-09-08T09:17:59Z</time>
      </trkpt>
      <trkpt lat="44.15946" lon="5.00624">
        <ele>334.3</ele>
        <time>2020-09-08T09:18:00Z</time>
      </trkpt>
      <trkpt lat="44.15946" lon="5.00625">
        <ele>334.4</ele>
        <time>2020-09-08T09:18:01Z</time>
      </trkpt>
      <trkpt lat="44.15946" lon="5.00626">
        <ele>334.5</ele>
        <time>2020-09-08T09:18:02Z</time>
      </trkpt>
      <trkpt lat="44.15946" lon="5.00627">
        <ele>334.6</ele>
        <time>2020-09-08T09:18:03Z</time>
      </trkpt>
      <trkpt lat="44.15946" lon="5.0063">
        <ele>334.9</ele>
        <time>2020-09-08T09:18:04Z</time>
      </trkpt>
      <trkpt lat="44.15946" lon="5.00631">
        <ele>335</ele>
        <time>2020-09-08T09:18:05Z</time>
      </trkpt>
      <trkpt lat="44.15946" lon="5.00633">
        <ele>335.2</ele>
        <time>2020-09-08T09:18:06Z</time>
      </trkpt>
      <trkpt lat="44.15946" lon="5.00635">
        <ele>335.4</ele>
        <time>2020-09-08T09:18:07Z</time>
      </trkpt>
      <trkpt lat="44.15946" lon="5.00637">
        <ele>335.6</ele>
        <time>2020-09-08T09:18:08Z</time>
      </trkpt>
      <trkpt lat="44.15946" lon="5.00638">
        <ele>335.7</ele>
        <time>2020-09-08T09:18:09Z</time>
      </trkpt>
      <trkpt lat="44.15946" lon="5.00639">
        <ele>335.9</ele>
        <time>2020-09-08T09:18:10Z</time>
      </trkpt>
      <trkpt lat="44.15946" lon="5.00641">
        <ele>336</ele>
        <time>2020-09-08T09:18:11Z</time>
      </trkpt>
      <trkpt lat="44.15947" lon="5.00642">
        <ele>336.2</ele>
        <time>2020-09-08T09:18:12Z</time>
      </trkpt>
      <trkpt lat="44.15947" lon="5.00644">
        <ele>336.3</ele>
        <time>2020-09-08T09:18:13Z</time>
      </trkpt>
      <trkpt lat="44.15947" lon="5.00645">
        <ele>336.5</ele>
        <time>2020-09-08T09:18:14Z</time>
      </trkpt>
      <trkpt lat="44.15948" lon="5.00646">
        <ele>336.6</ele>
        <time>2020-09-08T09:18:15Z</time>
      </trkpt>
      <trkpt lat="44.15948" lon="5.00648">
        <ele>336.8</ele>
        <time>2020-09-08T09:18:16Z</time>
      </trkpt>
      <trkpt lat="44.15948" lon="5.0065">
        <ele>337</ele>
        <time>2020-09-08T09:18:17Z</time>
      </trkpt>
      <trkpt lat="44.15948" lon="5.00652">
        <ele>337.3</ele>
        <time>2020-09-08T09:18:18Z</time>
      </trkpt>
      <trkpt lat="44.15948" lon="5.00654">
        <ele>337.4</ele>
        <time>2020-09-08T09:18:19Z</time>
      </trkpt>
      <trkpt lat="44.15948" lon="5.00655">
        <ele>337.5</ele>
        <time>2020-09-08T09:18:20Z</time>
      </trkpt>
      <trkpt lat="44.15948" lon="5.00656">
        <ele>337.7</ele>
        <time>2020-09-08T09:18:21Z</time>
      </trkpt>
      <trkpt lat="44.15948" lon="5.00658">
        <ele>337.8</ele>
        <time>2020-09-08T09:18:22Z</time>
      </trkpt>
      <trkpt lat="44.15948" lon="5.00659">
        <ele>338</ele>
        <time>2020-09-08T09:18:23Z</time>
      </trkpt>
      <trkpt lat="44.15948" lon="5.00661">
        <ele>338.1</ele>
        <time>2020-09-08T09:18:24Z</time>
      </trkpt>
      <trkpt lat="44.15947" lon="5.00662">
        <ele>338.3</ele>
        <time>2020-09-08T09:18:25Z</time>
      </trkpt>
      <trkpt lat="44.15947" lon="5.00664">
        <ele>338.4</ele>
        <time>2020-09-08T09:18:26Z</time>
      </trkpt>
      <trkpt lat="44.15947" lon="5.00666">
        <ele>338.6</ele>
        <time>2020-09-08T09:18:27Z</time>
      </trkpt>
      <trkpt lat="44.15946" lon="5.00667">
        <ele>338.9</ele>
        <time>2020-09-08T09:18:28Z</time>
      </trkpt>
      <trkpt lat="44.15946" lon="5.00669">
        <ele>339</ele>
        <time>2020-09-08T09:18:29Z</time>
      </trkpt>
      <trkpt lat="44.15945" lon="5.00669">
        <ele>339.1</ele>
        <time>2020-09-08T09:18:30Z</time>
      </trkpt>
      <trkpt lat="44.15945" lon="5.00671">
        <ele>339.2</ele>
        <time>2020-09-08T09:18:31Z</time>
      </trkpt>
      <trkpt lat="44.15945" lon="5.00672">
        <ele>339.3</ele>
        <time>2020-09-08T09:18:32Z</time>
      </trkpt>
      <trkpt lat="44.15944" lon="5.00673">
        <ele>339.5</ele>
        <time>2020-09-08T09:18:33Z</time>
      </trkpt>
      <trkpt lat="44.15944" lon="5.00674">
        <ele>339.6</ele>
        <time>2020-09-08T09:18:34Z</time>
      </trkpt>
      <trkpt lat="44.15943" lon="5.00675">
        <ele>339.7</ele>
        <time>2020-09-08T09:18:35Z</time>
      </trkpt>
      <trkpt lat="44.15943" lon="5.00676">
        <ele>339.9</ele>
        <time>2020-09-08T09:18:36Z</time>
      </trkpt>
      <trkpt lat="44.15942" lon="5.00678">
        <ele>340.1</ele>
        <time>2020-09-08T09:18:37Z</time>
      </trkpt>
      <trkpt lat="44.15942" lon="5.00679">
        <ele>340.2</ele>
        <time>2020-09-08T09:18:38Z</time>
      </trkpt>
      <trkpt lat="44.15941" lon="5.00681">
        <ele>340.4</ele>
        <time>2020-09-08T09:18:39Z</time>
      </trkpt>
      <trkpt lat="44.15941" lon="5.00683">
        <ele>340.6</ele>
        <time>2020-09-08T09:18:40Z</time>
      </trkpt>
      <trkpt lat="44.15941" lon="5.00684">
        <ele>340.7</ele>
        <time>2020-09-08T09:18:41Z</time>
      </trkpt>
      <trkpt lat="44.1594" lon="5.00685">
        <ele>340.7</ele>
        <time>2020-09-08T09:18:42Z</time>
      </trkpt>
      <trkpt lat="44.1594" lon="5.00686">
        <ele>340.9</ele>
        <time>2020-09-08T09:18:43Z</time>
      </trkpt>
      <trkpt lat="44.15939" lon="5.00687">
        <ele>341</ele>
        <time>2020-09-08T09:18:44Z</time>
      </trkpt>
      <trkpt lat="44.15939" lon="5.00688">
        <ele>341.1</ele>
        <time>2020-09-08T09:18:45Z</time>
      </trkpt>
      <trkpt lat="44.15938" lon="5.00689">
        <ele>341.3</ele>
        <time>2020-09-08T09:18:46Z</time>
      </trkpt>
      <trkpt lat="44.15938" lon="5.00691">
        <ele>341.4</ele>
        <time>2020-09-08T09:18:47Z</time>
      </trkpt>
      <trkpt lat="44.15938" lon="5.00692">
        <ele>341.6</ele>
        <time>2020-09-08T09:18:48Z</time>
      </trkpt>
      <trkpt lat="44.15937" lon="5.00694">
        <ele>341.8</ele>
        <time>2020-09-08T09:18:49Z</time>
      </trkpt>
      <trkpt lat="44.15937" lon="5.00695">
        <ele>341.9</ele>
        <time>2020-09-08T09:18:50Z</time>
      </trkpt>
      <trkpt lat="44.15936" lon="5.00697">
        <ele>342.1</ele>
        <time>2020-09-08T09:18:51Z</time>
      </trkpt>
      <trkpt lat="44.15936" lon="5.00699">
        <ele>342.3</ele>
        <time>2020-09-08T09:18:52Z</time>
      </trkpt>
      <trkpt lat="44.15935" lon="5.007">
        <ele>342.4</ele>
        <time>2020-09-08T09:18:53Z</time>
      </trkpt>
      <trkpt lat="44.15935" lon="5.00702">
        <ele>342.6</ele>
        <time>2020-09-08T09:18:54Z</time>
      </trkpt>
      <trkpt lat="44.15935" lon="5.00703">
        <ele>342.7</ele>
        <time>2020-09-08T09:18:55Z</time>
      </trkpt>
      <trkpt lat="44.15935" lon="5.00704">
        <ele>342.8</ele>
        <time>2020-09-08T09:18:56Z</time>
      </trkpt>
      <trkpt lat="44.15935" lon="5.00705">
        <ele>343</ele>
        <time>2020-09-08T09:18:57Z</time>
      </trkpt>
      <trkpt lat="44.15935" lon="5.00707">
        <ele>343.1</ele>
        <time>2020-09-08T09:18:58Z</time>
      </trkpt>
      <trkpt lat="44.15935" lon="5.00708">
        <ele>343.3</ele>
        <time>2020-09-08T09:18:59Z</time>
      </trkpt>
      <trkpt lat="44.15935" lon="5.0071">
        <ele>343.4</ele>
        <time>2020-09-08T09:19:00Z</time>
      </trkpt>
      <trkpt lat="44.15935" lon="5.00711">
        <ele>343.5</ele>
        <time>2020-09-08T09:19:01Z</time>
      </trkpt>
      <trkpt lat="44.15935" lon="5.00712">
        <ele>343.7</ele>
        <time>2020-09-08T09:19:02Z</time>
      </trkpt>
      <trkpt lat="44.15934" lon="5.00713">
        <ele>343.8</ele>
        <time>2020-09-08T09:19:03Z</time>
      </trkpt>
      <trkpt lat="44.15934" lon="5.00714">
        <ele>343.9</ele>
        <time>2020-09-08T09:19:04Z</time>
      </trkpt>
      <trkpt lat="44.15934" lon="5.00715">
        <ele>344</ele>
        <time>2020-09-08T09:19:05Z</time>
      </trkpt>
      <trkpt lat="44.15933" lon="5.00715">
        <ele>344.1</ele>
        <time>2020-09-08T09:19:06Z</time>
      </trkpt>
      <trkpt lat="44.15933" lon="5.00716">
        <ele>344.2</ele>
        <time>2020-09-08T09:19:07Z</time>
      </trkpt>
      <trkpt lat="44.15934" lon="5.00718">
        <ele>344.4</ele>
        <time>2020-09-08T09:19:08Z</time>
      </trkpt>
      <trkpt lat="44.15934" lon="5.0072">
        <ele>344.6</ele>
        <time>2020-09-08T09:19:09Z</time>
      </trkpt>
      <trkpt lat="44.15934" lon="5.00721">
        <ele>344.7</ele>
        <time>2020-09-08T09:19:10Z</time>
      </trkpt>
      <trkpt lat="44.15934" lon="5.00723">
        <ele>344.9</ele>
        <time>2020-09-08T09:19:11Z</time>
      </trkpt>
      <trkpt lat="44.15934" lon="5.00724">
        <ele>345.1</ele>
        <time>2020-09-08T09:19:12Z</time>
      </trkpt>
      <trkpt lat="44.15934" lon="5.00725">
        <ele>345.2</ele>
        <time>2020-09-08T09:19:13Z</time>
      </trkpt>
      <trkpt lat="44.15934" lon="5.00726">
        <ele>345.3</ele>
        <time>2020-09-08T09:19:14Z</time>
      </trkpt>
      <trkpt lat="44.15934" lon="5.00726">
        <ele>345.3</ele>
        <time>2020-09-08T09:19:15Z</time>
      </trkpt>
      <trkpt lat="44.15934" lon="5.00727">
        <ele>345.4</ele>
        <time>2020-09-08T09:19:16Z</time>
      </trkpt>
      <trkpt lat="44.15934" lon="5.00728">
        <ele>345.5</ele>
        <time>2020-09-08T09:19:17Z</time>
      </trkpt>
      <trkpt lat="44.15934" lon="5.00728">
        <ele>345.6</ele>
        <time>2020-09-08T09:19:18Z</time>
      </trkpt>
      <trkpt lat="44.15934" lon="5.00729">
        <ele>345.7</ele>
        <time>2020-09-08T09:19:19Z</time>
      </trkpt>
      <trkpt lat="44.15934" lon="5.0073">
        <ele>345.8</ele>
        <time>2020-09-08T09:19:20Z</time>
      </trkpt>
      <trkpt lat="44.15933" lon="5.0073">
        <ele>345.8</ele>
        <time>2020-09-08T09:19:21Z</time>
      </trkpt>
      <trkpt lat="44.15933" lon="5.00731">
        <ele>345.9</ele>
        <time>2020-09-08T09:19:22Z</time>
      </trkpt>
      <trkpt lat="44.15933" lon="5.00732">
        <ele>346</ele>
        <time>2020-09-08T09:19:23Z</time>
      </trkpt>
      <trkpt lat="44.15933" lon="5.00732">
        <ele>346.1</ele>
        <time>2020-09-08T09:19:24Z</time>
      </trkpt>
      <trkpt lat="44.15933" lon="5.00733">
        <ele>346.2</ele>
        <time>2020-09-08T09:19:25Z</time>
      </trkpt>
      <trkpt lat="44.15933" lon="5.00734">
        <ele>346.3</ele>
        <time>2020-09-08T09:19:26Z</time>
      </trkpt>
      <trkpt lat="44.15933" lon="5.00735">
        <ele>346.3</ele>
        <time>2020-09-08T09:19:27Z</time>
      </trkpt>
      <trkpt lat="44.15933" lon="5.00735">
        <ele>346.4</ele>
        <time>2020-09-08T09:19:28Z</time>
      </trkpt>
      <trkpt lat="44.15933" lon="5.00736">
        <ele>346.5</ele>
        <time>2020-09-08T09:19:29Z</time>
      </trkpt>
      <trkpt lat="44.15933" lon="5.00737">
        <ele>346.6</ele>
        <time>2020-09-08T09:19:30Z</time>
      </trkpt>
      <trkpt lat="44.15933" lon="5.00737">
        <ele>346.7</ele>
        <time>2020-09-08T09:19:31Z</time>
      </trkpt>
      <trkpt lat="44.15933" lon="5.00738">
        <ele>346.8</ele>
        <time>2020-09-08T09:19:32Z</time>
      </trkpt>
      <trkpt lat="44.15933" lon="5.00739">
        <ele>346.8</ele>
        <time>2020-09-08T09:19:33Z</time>
      </trkpt>
      <trkpt lat="44.15933" lon="5.00739">
        <ele>346.9</ele>
        <time>2020-09-08T09:19:34Z</time>
      </trkpt>
      <trkpt lat="44.15933" lon="5.0074">
        <ele>347</ele>
        <time>2020-09-08T09:19:35Z</time>
      </trkpt>
      <trkpt lat="44.15933" lon="5.00741">
        <ele>347.1</ele>
        <time>2020-09-08T09:19:36Z</time>
      </trkpt>
      <trkpt lat="44.15933" lon="5.00741">
        <ele>347.2</ele>
        <time>2020-09-08T09:19:37Z</time>
      </trkpt>
      <trkpt lat="44.15933" lon="5.00742">
        <ele>347.3</ele>
        <time>2020-09-08T09:19:38Z</time>
      </trkpt>
      <trkpt lat="44.15933" lon="5.00743">
        <ele>347.4</ele>
        <time>2020-09-08T09:19:39Z</time>
      </trkpt>
      <trkpt lat="44.15933" lon="5.00745">
        <ele>347.7</ele>
        <time>2020-09-08T09:19:40Z</time>
      </trkpt>
      <trkpt lat="44.15934" lon="5.00746">
        <ele>347.8</ele>
        <time>2020-09-08T09:19:41Z</time>
      </trkpt>
      <trkpt lat="44.15934" lon="5.00747">
        <ele>348</ele>
        <time>2020-09-08T09:19:42Z</time>
      </trkpt>
      <trkpt lat="44.15934" lon="5.00749">
        <ele>348.2</ele>
        <time>2020-09-08T09:19:43Z</time>
      </trkpt>
      <trkpt lat="44.15933" lon="5.0075">
        <ele>348.4</ele>
        <time>2020-09-08T09:19:44Z</time>
      </trkpt>
      <trkpt lat="44.15933" lon="5.00752">
        <ele>348.5</ele>
        <time>2020-09-08T09:19:45Z</time>
      </trkpt>
      <trkpt lat="44.15933" lon="5.00753">
        <ele>348.7</ele>
        <time>2020-09-08T09:19:46Z</time>
      </trkpt>
      <trkpt lat="44.15932" lon="5.00754">
        <ele>348.9</ele>
        <time>2020-09-08T09:19:47Z</time>
      </trkpt>
      <trkpt lat="44.15932" lon="5.00756">
        <ele>349.1</ele>
        <time>2020-09-08T09:19:48Z</time>
      </trkpt>
      <trkpt lat="44.15932" lon="5.00757">
        <ele>349.3</ele>
        <time>2020-09-08T09:19:49Z</time>
      </trkpt>
      <trkpt lat="44.15932" lon="5.00759">
        <ele>349.5</ele>
        <time>2020-09-08T09:19:50Z</time>
      </trkpt>
      <trkpt lat="44.15933" lon="5.00762">
        <ele>349.8</ele>
        <time>2020-09-08T09:19:51Z</time>
      </trkpt>
      <trkpt lat="44.15933" lon="5.00763">
        <ele>350</ele>
        <time>2020-09-08T09:19:52Z</time>
      </trkpt>
      <trkpt lat="44.15933" lon="5.00764">
        <ele>350.2</ele>
        <time>2020-09-08T09:19:53Z</time>
      </trkpt>
      <trkpt lat="44.15933" lon="5.00767">
        <ele>350.5</ele>
        <time>2020-09-08T09:19:54Z</time>
      </trkpt>
      <trkpt lat="44.15933" lon="5.00768">
        <ele>350.7</ele>
        <time>2020-09-08T09:19:55Z</time>
      </trkpt>
      <trkpt lat="44.15933" lon="5.0077">
        <ele>350.8</ele>
        <time>2020-09-08T09:19:56Z</time>
      </trkpt>
      <trkpt lat="44.15933" lon="5.00772">
        <ele>351</ele>
        <time>2020-09-08T09:19:57Z</time>
      </trkpt>
      <trkpt lat="44.15933" lon="5.00773">
        <ele>351.2</ele>
        <time>2020-09-08T09:19:58Z</time>
      </trkpt>
      <trkpt lat="44.15933" lon="5.00774">
        <ele>351.4</ele>
        <time>2020-09-08T09:19:59Z</time>
      </trkpt>
      <trkpt lat="44.15934" lon="5.00776">
        <ele>351.6</ele>
        <time>2020-09-08T09:20:00Z</time>
      </trkpt>
      <trkpt lat="44.15933" lon="5.00777">
        <ele>351.7</ele>
        <time>2020-09-08T09:20:01Z</time>
      </trkpt>
      <trkpt lat="44.15933" lon="5.00778">
        <ele>351.9</ele>
        <time>2020-09-08T09:20:02Z</time>
      </trkpt>
      <trkpt lat="44.15933" lon="5.00779">
        <ele>352</ele>
        <time>2020-09-08T09:20:03Z</time>
      </trkpt>
      <trkpt lat="44.15932" lon="5.0078">
        <ele>352.2</ele>
        <time>2020-09-08T09:20:04Z</time>
      </trkpt>
      <trkpt lat="44.15932" lon="5.00782">
        <ele>352.4</ele>
        <time>2020-09-08T09:20:05Z</time>
      </trkpt>
      <trkpt lat="44.15932" lon="5.00784">
        <ele>352.6</ele>
        <time>2020-09-08T09:20:06Z</time>
      </trkpt>
      <trkpt lat="44.15932" lon="5.00785">
        <ele>352.7</ele>
        <time>2020-09-08T09:20:07Z</time>
      </trkpt>
      <trkpt lat="44.15931" lon="5.00787">
        <ele>352.9</ele>
        <time>2020-09-08T09:20:08Z</time>
      </trkpt>
      <trkpt lat="44.15931" lon="5.00789">
        <ele>353.1</ele>
        <time>2020-09-08T09:20:09Z</time>
      </trkpt>
      <trkpt lat="44.15931" lon="5.00791">
        <ele>353.3</ele>
        <time>2020-09-08T09:20:10Z</time>
      </trkpt>
      <trkpt lat="44.15929" lon="5.00793">
        <ele>353.6</ele>
        <time>2020-09-08T09:20:11Z</time>
      </trkpt>
      <trkpt lat="44.15929" lon="5.00794">
        <ele>353.7</ele>
        <time>2020-09-08T09:20:12Z</time>
      </trkpt>
      <trkpt lat="44.15928" lon="5.00795">
        <ele>353.8</ele>
        <time>2020-09-08T09:20:13Z</time>
      </trkpt>
      <trkpt lat="44.15928" lon="5.00796">
        <ele>354</ele>
        <time>2020-09-08T09:20:14Z</time>
      </trkpt>
      <trkpt lat="44.15927" lon="5.00797">
        <ele>354.1</ele>
        <time>2020-09-08T09:20:15Z</time>
      </trkpt>
      <trkpt lat="44.15927" lon="5.00798">
        <ele>354.2</ele>
        <time>2020-09-08T09:20:16Z</time>
      </trkpt>
      <trkpt lat="44.15926" lon="5.00799">
        <ele>354.3</ele>
        <time>2020-09-08T09:20:17Z</time>
      </trkpt>
      <trkpt lat="44.15926" lon="5.00801">
        <ele>354.4</ele>
        <time>2020-09-08T09:20:18Z</time>
      </trkpt>
      <trkpt lat="44.15925" lon="5.00802">
        <ele>354.5</ele>
        <time>2020-09-08T09:20:19Z</time>
      </trkpt>
      <trkpt lat="44.15925" lon="5.00803">
        <ele>354.7</ele>
        <time>2020-09-08T09:20:20Z</time>
      </trkpt>
      <trkpt lat="44.15924" lon="5.00804">
        <ele>354.8</ele>
        <time>2020-09-08T09:20:21Z</time>
      </trkpt>
      <trkpt lat="44.15924" lon="5.00806">
        <ele>354.9</ele>
        <time>2020-09-08T09:20:22Z</time>
      </trkpt>
      <trkpt lat="44.15924" lon="5.00807">
        <ele>355</ele>
        <time>2020-09-08T09:20:23Z</time>
      </trkpt>
      <trkpt lat="44.15924" lon="5.00809">
        <ele>355.1</ele>
        <time>2020-09-08T09:20:24Z</time>
      </trkpt>
      <trkpt lat="44.15924" lon="5.0081">
        <ele>355.2</ele>
        <time>2020-09-08T09:20:25Z</time>
      </trkpt>
      <trkpt lat="44.15923" lon="5.00812">
        <ele>355.4</ele>
        <time>2020-09-08T09:20:26Z</time>
      </trkpt>
      <trkpt lat="44.15923" lon="5.00814">
        <ele>355.5</ele>
        <time>2020-09-08T09:20:27Z</time>
      </trkpt>
      <trkpt lat="44.15923" lon="5.00815">
        <ele>355.6</ele>
        <time>2020-09-08T09:20:28Z</time>
      </trkpt>
      <trkpt lat="44.15923" lon="5.00816">
        <ele>355.7</ele>
        <time>2020-09-08T09:20:29Z</time>
      </trkpt>
      <trkpt lat="44.15922" lon="5.00817">
        <ele>355.8</ele>
        <time>2020-09-08T09:20:30Z</time>
      </trkpt>
      <trkpt lat="44.15922" lon="5.00819">
        <ele>355.9</ele>
        <time>2020-09-08T09:20:31Z</time>
      </trkpt>
      <trkpt lat="44.15922" lon="5.00822">
        <ele>356.1</ele>
        <time>2020-09-08T09:20:32Z</time>
      </trkpt>
      <trkpt lat="44.15922" lon="5.00823">
        <ele>356.1</ele>
        <time>2020-09-08T09:20:33Z</time>
      </trkpt>
      <trkpt lat="44.15922" lon="5.00824">
        <ele>356.2</ele>
        <time>2020-09-08T09:20:34Z</time>
      </trkpt>
      <trkpt lat="44.15923" lon="5.00825">
        <ele>356.2</ele>
        <time>2020-09-08T09:20:35Z</time>
      </trkpt>
      <trkpt lat="44.15922" lon="5.00826">
        <ele>356.3</ele>
        <time>2020-09-08T09:20:36Z</time>
      </trkpt>
      <trkpt lat="44.15923" lon="5.00829">
        <ele>356.5</ele>
        <time>2020-09-08T09:20:37Z</time>
      </trkpt>
      <trkpt lat="44.15923" lon="5.0083">
        <ele>356.6</ele>
        <time>2020-09-08T09:20:38Z</time>
      </trkpt>
      <trkpt lat="44.15923" lon="5.00832">
        <ele>356.7</ele>
        <time>2020-09-08T09:20:39Z</time>
      </trkpt>
      <trkpt lat="44.15923" lon="5.00834">
        <ele>356.8</ele>
        <time>2020-09-08T09:20:40Z</time>
      </trkpt>
      <trkpt lat="44.15923" lon="5.00835">
        <ele>356.8</ele>
        <time>2020-09-08T09:20:41Z</time>
      </trkpt>
      <trkpt lat="44.15922" lon="5.00836">
        <ele>356.9</ele>
        <time>2020-09-08T09:20:42Z</time>
      </trkpt>
      <trkpt lat="44.15922" lon="5.00837">
        <ele>357</ele>
        <time>2020-09-08T09:20:43Z</time>
      </trkpt>
      <trkpt lat="44.15922" lon="5.00839">
        <ele>357.1</ele>
        <time>2020-09-08T09:20:44Z</time>
      </trkpt>
      <trkpt lat="44.15922" lon="5.0084">
        <ele>357.2</ele>
        <time>2020-09-08T09:20:45Z</time>
      </trkpt>
      <trkpt lat="44.15922" lon="5.00842">
        <ele>357.3</ele>
        <time>2020-09-08T09:20:46Z</time>
      </trkpt>
      <trkpt lat="44.15922" lon="5.00843">
        <ele>357.4</ele>
        <time>2020-09-08T09:20:47Z</time>
      </trkpt>
      <trkpt lat="44.15923" lon="5.00845">
        <ele>357.5</ele>
        <time>2020-09-08T09:20:48Z</time>
      </trkpt>
      <trkpt lat="44.15923" lon="5.00847">
        <ele>357.5</ele>
        <time>2020-09-08T09:20:49Z</time>
      </trkpt>
      <trkpt lat="44.15923" lon="5.00847">
        <ele>357.6</ele>
        <time>2020-09-08T09:20:50Z</time>
      </trkpt>
      <trkpt lat="44.15923" lon="5.00848">
        <ele>357.6</ele>
        <time>2020-09-08T09:20:51Z</time>
      </trkpt>
      <trkpt lat="44.15923" lon="5.00849">
        <ele>357.7</ele>
        <time>2020-09-08T09:20:52Z</time>
      </trkpt>
      <trkpt lat="44.15924" lon="5.0085">
        <ele>357.8</ele>
        <time>2020-09-08T09:20:53Z</time>
      </trkpt>
      <trkpt lat="44.15924" lon="5.00851">
        <ele>357.9</ele>
        <time>2020-09-08T09:20:54Z</time>
      </trkpt>
      <trkpt lat="44.15924" lon="5.00853">
        <ele>357.9</ele>
        <time>2020-09-08T09:20:55Z</time>
      </trkpt>
      <trkpt lat="44.15924" lon="5.00854">
        <ele>358</ele>
        <time>2020-09-08T09:20:56Z</time>
      </trkpt>
      <trkpt lat="44.15924" lon="5.00855">
        <ele>358.1</ele>
        <time>2020-09-08T09:20:57Z</time>
      </trkpt>
      <trkpt lat="44.15924" lon="5.00856">
        <ele>358.1</ele>
        <time>2020-09-08T09:20:58Z</time>
      </trkpt>
      <trkpt lat="44.15924" lon="5.00857">
        <ele>358.2</ele>
        <time>2020-09-08T09:20:59Z</time>
      </trkpt>
      <trkpt lat="44.15924" lon="5.00858">
        <ele>358.2</ele>
        <time>2020-09-08T09:21:00Z</time>
      </trkpt>
      <trkpt lat="44.15924" lon="5.00859">
        <ele>358.3</ele>
        <time>2020-09-08T09:21:01Z</time>
      </trkpt>
      <trkpt lat="44.15924" lon="5.00861">
        <ele>358.4</ele>
        <time>2020-09-08T09:21:02Z</time>
      </trkpt>
      <trkpt lat="44.15924" lon="5.00863">
        <ele>358.5</ele>
        <time>2020-09-08T09:21:03Z</time>
      </trkpt>
      <trkpt lat="44.15924" lon="5.00863">
        <ele>358.5</ele>
        <time>2020-09-08T09:21:04Z</time>
      </trkpt>
      <trkpt lat="44.15925" lon="5.00864">
        <ele>358.5</ele>
        <time>2020-09-08T09:21:05Z</time>
      </trkpt>
      <trkpt lat="44.15925" lon="5.00866">
        <ele>358.6</ele>
        <time>2020-09-08T09:21:06Z</time>
      </trkpt>
      <trkpt lat="44.15926" lon="5.00866">
        <ele>358.7</ele>
        <time>2020-09-08T09:21:07Z</time>
      </trkpt>
      <trkpt lat="44.15926" lon="5.00867">
        <ele>358.7</ele>
        <time>2020-09-08T09:21:08Z</time>
      </trkpt>
      <trkpt lat="44.15927" lon="5.00868">
        <ele>358.8</ele>
        <time>2020-09-08T09:21:09Z</time>
      </trkpt>
      <trkpt lat="44.15927" lon="5.00869">
        <ele>358.8</ele>
        <time>2020-09-08T09:21:10Z</time>
      </trkpt>
      <trkpt lat="44.15928" lon="5.0087">
        <ele>358.9</ele>
        <time>2020-09-08T09:21:11Z</time>
      </trkpt>
      <trkpt lat="44.15928" lon="5.00871">
        <ele>358.9</ele>
        <time>2020-09-08T09:21:12Z</time>
      </trkpt>
      <trkpt lat="44.15929" lon="5.00873">
        <ele>359</ele>
        <time>2020-09-08T09:21:13Z</time>
      </trkpt>
      <trkpt lat="44.15928" lon="5.00874">
        <ele>359</ele>
        <time>2020-09-08T09:21:14Z</time>
      </trkpt>
      <trkpt lat="44.15929" lon="5.00875">
        <ele>359.1</ele>
        <time>2020-09-08T09:21:15Z</time>
      </trkpt>
      <trkpt lat="44.15929" lon="5.00876">
        <ele>359.1</ele>
        <time>2020-09-08T09:21:16Z</time>
      </trkpt>
      <trkpt lat="44.1593" lon="5.00877">
        <ele>359.2</ele>
        <time>2020-09-08T09:21:17Z</time>
      </trkpt>
      <trkpt lat="44.1593" lon="5.00878">
        <ele>359.2</ele>
        <time>2020-09-08T09:21:18Z</time>
      </trkpt>
      <trkpt lat="44.1593" lon="5.0088">
        <ele>359.3</ele>
        <time>2020-09-08T09:21:19Z</time>
      </trkpt>
      <trkpt lat="44.15931" lon="5.00881">
        <ele>359.3</ele>
        <time>2020-09-08T09:21:20Z</time>
      </trkpt>
      <trkpt lat="44.15931" lon="5.00882">
        <ele>359.3</ele>
        <time>2020-09-08T09:21:21Z</time>
      </trkpt>
      <trkpt lat="44.15932" lon="5.00883">
        <ele>359.4</ele>
        <time>2020-09-08T09:21:22Z</time>
      </trkpt>
      <trkpt lat="44.15932" lon="5.00884">
        <ele>359.4</ele>
        <time>2020-09-08T09:21:23Z</time>
      </trkpt>
      <trkpt lat="44.15933" lon="5.00885">
        <ele>359.5</ele>
        <time>2020-09-08T09:21:24Z</time>
      </trkpt>
      <trkpt lat="44.15933" lon="5.00886">
        <ele>359.5</ele>
        <time>2020-09-08T09:21:25Z</time>
      </trkpt>
      <trkpt lat="44.15934" lon="5.00888">
        <ele>359.6</ele>
        <time>2020-09-08T09:21:26Z</time>
      </trkpt>
      <trkpt lat="44.15934" lon="5.00889">
        <ele>359.6</ele>
        <time>2020-09-08T09:21:27Z</time>
      </trkpt>
      <trkpt lat="44.15934" lon="5.0089">
        <ele>359.7</ele>
        <time>2020-09-08T09:21:28Z</time>
      </trkpt>
      <trkpt lat="44.15935" lon="5.00892">
        <ele>359.7</ele>
        <time>2020-09-08T09:21:29Z</time>
      </trkpt>
      <trkpt lat="44.15935" lon="5.00893">
        <ele>359.8</ele>
        <time>2020-09-08T09:21:30Z</time>
      </trkpt>
      <trkpt lat="44.15936" lon="5.00894">
        <ele>359.8</ele>
        <time>2020-09-08T09:21:31Z</time>
      </trkpt>
      <trkpt lat="44.15936" lon="5.00895">
        <ele>359.9</ele>
        <time>2020-09-08T09:21:32Z</time>
      </trkpt>
      <trkpt lat="44.15937" lon="5.00896">
        <ele>359.9</ele>
        <time>2020-09-08T09:21:33Z</time>
      </trkpt>
      <trkpt lat="44.15937" lon="5.00898">
        <ele>360</ele>
        <time>2020-09-08T09:21:34Z</time>
      </trkpt>
      <trkpt lat="44.15938" lon="5.00899">
        <ele>360</ele>
        <time>2020-09-08T09:21:35Z</time>
      </trkpt>
      <trkpt lat="44.15938" lon="5.009">
        <ele>360.1</ele>
        <time>2020-09-08T09:21:36Z</time>
      </trkpt>
      <trkpt lat="44.15938" lon="5.00901">
        <ele>360.1</ele>
        <time>2020-09-08T09:21:37Z</time>
      </trkpt>
      <trkpt lat="44.15938" lon="5.00902">
        <ele>360.1</ele>
        <time>2020-09-08T09:21:38Z</time>
      </trkpt>
      <trkpt lat="44.15938" lon="5.00904">
        <ele>360.2</ele>
        <time>2020-09-08T09:21:39Z</time>
      </trkpt>
      <trkpt lat="44.15938" lon="5.00905">
        <ele>360.3</ele>
        <time>2020-09-08T09:21:40Z</time>
      </trkpt>
      <trkpt lat="44.15939" lon="5.00906">
        <ele>360.3</ele>
        <time>2020-09-08T09:21:41Z</time>
      </trkpt>
      <trkpt lat="44.1594" lon="5.00907">
        <ele>360.4</ele>
        <time>2020-09-08T09:21:42Z</time>
      </trkpt>
      <trkpt lat="44.15941" lon="5.00908">
        <ele>360.5</ele>
        <time>2020-09-08T09:21:43Z</time>
      </trkpt>
      <trkpt lat="44.15941" lon="5.00909">
        <ele>360.5</ele>
        <time>2020-09-08T09:21:44Z</time>
      </trkpt>
      <trkpt lat="44.15943" lon="5.00912">
        <ele>360.7</ele>
        <time>2020-09-08T09:21:45Z</time>
      </trkpt>
      <trkpt lat="44.15943" lon="5.00913">
        <ele>360.8</ele>
        <time>2020-09-08T09:21:46Z</time>
      </trkpt>
      <trkpt lat="44.15943" lon="5.00914">
        <ele>360.8</ele>
        <time>2020-09-08T09:21:47Z</time>
      </trkpt>
      <trkpt lat="44.15944" lon="5.00916">
        <ele>360.9</ele>
        <time>2020-09-08T09:21:48Z</time>
      </trkpt>
      <trkpt lat="44.15944" lon="5.00917">
        <ele>361</ele>
        <time>2020-09-08T09:21:49Z</time>
      </trkpt>
      <trkpt lat="44.15944" lon="5.00919">
        <ele>361.1</ele>
        <time>2020-09-08T09:21:50Z</time>
      </trkpt>
      <trkpt lat="44.15944" lon="5.00919">
        <ele>361.1</ele>
        <time>2020-09-08T09:21:51Z</time>
      </trkpt>
      <trkpt lat="44.15944" lon="5.0092">
        <ele>361.2</ele>
        <time>2020-09-08T09:21:52Z</time>
      </trkpt>
      <trkpt lat="44.15943" lon="5.00921">
        <ele>361.3</ele>
        <time>2020-09-08T09:21:53Z</time>
      </trkpt>
      <trkpt lat="44.15942" lon="5.00922">
        <ele>361.5</ele>
        <time>2020-09-08T09:21:54Z</time>
      </trkpt>
      <trkpt lat="44.15942" lon="5.00923">
        <ele>361.6</ele>
        <time>2020-09-08T09:21:55Z</time>
      </trkpt>
      <trkpt lat="44.15942" lon="5.00924">
        <ele>361.6</ele>
        <time>2020-09-08T09:21:56Z</time>
      </trkpt>
      <trkpt lat="44.15942" lon="5.00924">
        <ele>361.6</ele>
        <time>2020-09-08T09:21:57Z</time>
      </trkpt>
      <trkpt lat="44.15941" lon="5.00923">
        <ele>362.7</ele>
        <time>2020-09-08T09:21:58Z</time>
      </trkpt>
      <trkpt lat="44.15941" lon="5.00923">
        <ele>362.7</ele>
        <time>2020-09-08T09:21:59Z</time>
      </trkpt>
      <trkpt lat="44.15941" lon="5.00922">
        <ele>362.7</ele>
        <time>2020-09-08T09:22:00Z</time>
      </trkpt>
      <trkpt lat="44.15941" lon="5.00922">
        <ele>362.7</ele>
        <time>2020-09-08T09:22:01Z</time>
      </trkpt>
      <trkpt lat="44.15941" lon="5.00921">
        <ele>362.7</ele>
        <time>2020-09-08T09:22:02Z</time>
      </trkpt>
      <trkpt lat="44.1594" lon="5.0092">
        <ele>362.7</ele>
        <time>2020-09-08T09:22:03Z</time>
      </trkpt>
      <trkpt lat="44.15939" lon="5.0092">
        <ele>362.7</ele>
        <time>2020-09-08T09:22:04Z</time>
      </trkpt>
      <trkpt lat="44.15939" lon="5.0092">
        <ele>362.7</ele>
        <time>2020-09-08T09:22:05Z</time>
      </trkpt>
      <trkpt lat="44.15939" lon="5.0092">
        <ele>362.7</ele>
        <time>2020-09-08T09:22:06Z</time>
      </trkpt>
      <trkpt lat="44.15939" lon="5.00921">
        <ele>362.7</ele>
        <time>2020-09-08T09:22:07Z</time>
      </trkpt>
      <trkpt lat="44.15939" lon="5.00922">
        <ele>362.7</ele>
        <time>2020-09-08T09:22:08Z</time>
      </trkpt>
      <trkpt lat="44.15939" lon="5.00923">
        <ele>362.7</ele>
        <time>2020-09-08T09:22:09Z</time>
      </trkpt>
      <trkpt lat="44.1594" lon="5.00924">
        <ele>362.7</ele>
        <time>2020-09-08T09:22:10Z</time>
      </trkpt>
      <trkpt lat="44.15941" lon="5.00924">
        <ele>362.7</ele>
        <time>2020-09-08T09:22:11Z</time>
      </trkpt>
      <trkpt lat="44.15941" lon="5.00924">
        <ele>362.7</ele>
        <time>2020-09-08T09:22:12Z</time>
      </trkpt>
      <trkpt lat="44.15942" lon="5.00924">
        <ele>362.7</ele>
        <time>2020-09-08T09:22:13Z</time>
      </trkpt>
      <trkpt lat="44.15942" lon="5.00924">
        <ele>362.7</ele>
        <time>2020-09-08T09:22:14Z</time>
      </trkpt>
      <trkpt lat="44.1594" lon="5.00923">
        <ele>362.7</ele>
        <time>2020-09-08T09:22:15Z</time>
      </trkpt>
      <trkpt lat="44.1594" lon="5.00923">
        <ele>362.7</ele>
        <time>2020-09-08T09:22:16Z</time>
      </trkpt>
      <trkpt lat="44.1594" lon="5.00923">
        <ele>362.7</ele>
        <time>2020-09-08T09:22:17Z</time>
      </trkpt>
      <trkpt lat="44.15939" lon="5.00922">
        <ele>362.7</ele>
        <time>2020-09-08T09:22:18Z</time>
      </trkpt>
      <trkpt lat="44.15939" lon="5.00923">
        <ele>362.7</ele>
        <time>2020-09-08T09:22:19Z</time>
      </trkpt>
      <trkpt lat="44.15939" lon="5.00922">
        <ele>362.7</ele>
        <time>2020-09-08T09:22:20Z</time>
      </trkpt>
      <trkpt lat="44.15939" lon="5.00921">
        <ele>362.7</ele>
        <time>2020-09-08T09:22:21Z</time>
      </trkpt>
      <trkpt lat="44.15939" lon="5.00921">
        <ele>362.7</ele>
        <time>2020-09-08T09:22:22Z</time>
      </trkpt>
      <trkpt lat="44.15939" lon="5.0092">
        <ele>362.7</ele>
        <time>2020-09-08T09:22:23Z</time>
      </trkpt>
      <trkpt lat="44.15939" lon="5.0092">
        <ele>362.7</ele>
        <time>2020-09-08T09:22:24Z</time>
      </trkpt>
      <trkpt lat="44.15938" lon="5.0092">
        <ele>362.7</ele>
        <time>2020-09-08T09:22:25Z</time>
      </trkpt>
      <trkpt lat="44.15938" lon="5.00919">
        <ele>362.7</ele>
        <time>2020-09-08T09:22:26Z</time>
      </trkpt>
      <trkpt lat="44.15937" lon="5.00918">
        <ele>362.7</ele>
        <time>2020-09-08T09:22:27Z</time>
      </trkpt>
      <trkpt lat="44.15936" lon="5.00917">
        <ele>362.7</ele>
        <time>2020-09-08T09:22:28Z</time>
      </trkpt>
      <trkpt lat="44.15936" lon="5.00916">
        <ele>362.7</ele>
        <time>2020-09-08T09:22:29Z</time>
      </trkpt>
      <trkpt lat="44.15935" lon="5.00916">
        <ele>362.7</ele>
        <time>2020-09-08T09:22:30Z</time>
      </trkpt>
      <trkpt lat="44.15934" lon="5.00915">
        <ele>362.7</ele>
        <time>2020-09-08T09:22:31Z</time>
      </trkpt>
      <trkpt lat="44.15934" lon="5.00914">
        <ele>363.6</ele>
        <time>2020-09-08T09:22:32Z</time>
      </trkpt>
      <trkpt lat="44.15933" lon="5.00912">
        <ele>363.7</ele>
        <time>2020-09-08T09:22:33Z</time>
      </trkpt>
      <trkpt lat="44.15932" lon="5.00911">
        <ele>363.8</ele>
        <time>2020-09-08T09:22:34Z</time>
      </trkpt>
      <trkpt lat="44.15931" lon="5.0091">
        <ele>363.9</ele>
        <time>2020-09-08T09:22:35Z</time>
      </trkpt>
      <trkpt lat="44.1593" lon="5.00909">
        <ele>364</ele>
        <time>2020-09-08T09:22:36Z</time>
      </trkpt>
      <trkpt lat="44.1593" lon="5.00907">
        <ele>364.1</ele>
        <time>2020-09-08T09:22:37Z</time>
      </trkpt>
      <trkpt lat="44.15929" lon="5.00906">
        <ele>364.2</ele>
        <time>2020-09-08T09:22:38Z</time>
      </trkpt>
      <trkpt lat="44.15929" lon="5.00905">
        <ele>364.3</ele>
        <time>2020-09-08T09:22:39Z</time>
      </trkpt>
      <trkpt lat="44.15928" lon="5.00904">
        <ele>364.4</ele>
        <time>2020-09-08T09:22:40Z</time>
      </trkpt>
      <trkpt lat="44.15927" lon="5.00902">
        <ele>364.5</ele>
        <time>2020-09-08T09:22:41Z</time>
      </trkpt>
      <trkpt lat="44.15927" lon="5.00901">
        <ele>364.6</ele>
        <time>2020-09-08T09:22:42Z</time>
      </trkpt>
      <trkpt lat="44.15926" lon="5.009">
        <ele>364.7</ele>
        <time>2020-09-08T09:22:43Z</time>
      </trkpt>
      <trkpt lat="44.15925" lon="5.00898">
        <ele>364.9</ele>
        <time>2020-09-08T09:22:44Z</time>
      </trkpt>
      <trkpt lat="44.15925" lon="5.00896">
        <ele>365</ele>
        <time>2020-09-08T09:22:45Z</time>
      </trkpt>
      <trkpt lat="44.15924" lon="5.00895">
        <ele>365.1</ele>
        <time>2020-09-08T09:22:46Z</time>
      </trkpt>
      <trkpt lat="44.15924" lon="5.00895">
        <ele>365.1</ele>
        <time>2020-09-08T09:22:47Z</time>
      </trkpt>
      <trkpt lat="44.15923" lon="5.00895">
        <ele>365.2</ele>
        <time>2020-09-08T09:22:48Z</time>
      </trkpt>
      <trkpt lat="44.15923" lon="5.00894">
        <ele>365.3</ele>
        <time>2020-09-08T09:22:49Z</time>
      </trkpt>
      <trkpt lat="44.15922" lon="5.00892">
        <ele>365.5</ele>
        <time>2020-09-08T09:22:50Z</time>
      </trkpt>
      <trkpt lat="44.15921" lon="5.00892">
        <ele>365.6</ele>
        <time>2020-09-08T09:22:51Z</time>
      </trkpt>
      <trkpt lat="44.15919" lon="5.00891">
        <ele>365.7</ele>
        <time>2020-09-08T09:22:52Z</time>
      </trkpt>
      <trkpt lat="44.15919" lon="5.0089">
        <ele>365.8</ele>
        <time>2020-09-08T09:22:53Z</time>
      </trkpt>
      <trkpt lat="44.15918" lon="5.00889">
        <ele>366</ele>
        <time>2020-09-08T09:22:54Z</time>
      </trkpt>
      <trkpt lat="44.15916" lon="5.00887">
        <ele>366.2</ele>
        <time>2020-09-08T09:22:55Z</time>
      </trkpt>
      <trkpt lat="44.15915" lon="5.00886">
        <ele>366.4</ele>
        <time>2020-09-08T09:22:56Z</time>
      </trkpt>
      <trkpt lat="44.15914" lon="5.00885">
        <ele>366.6</ele>
        <time>2020-09-08T09:22:57Z</time>
      </trkpt>
      <trkpt lat="44.15912" lon="5.00884">
        <ele>366.8</ele>
        <time>2020-09-08T09:22:58Z</time>
      </trkpt>
      <trkpt lat="44.15912" lon="5.00882">
        <ele>367</ele>
        <time>2020-09-08T09:22:59Z</time>
      </trkpt>
      <trkpt lat="44.15912" lon="5.0088">
        <ele>367.1</ele>
        <time>2020-09-08T09:23:00Z</time>
      </trkpt>
      <trkpt lat="44.15911" lon="5.0088">
        <ele>367.1</ele>
        <time>2020-09-08T09:23:01Z</time>
      </trkpt>
      <trkpt lat="44.15911" lon="5.0088">
        <ele>367.2</ele>
        <time>2020-09-08T09:23:02Z</time>
      </trkpt>
      <trkpt lat="44.1591" lon="5.00878">
        <ele>367.4</ele>
        <time>2020-09-08T09:23:03Z</time>
      </trkpt>
      <trkpt lat="44.15909" lon="5.00877">
        <ele>367.6</ele>
        <time>2020-09-08T09:23:04Z</time>
      </trkpt>
      <trkpt lat="44.15908" lon="5.00877">
        <ele>367.6</ele>
        <time>2020-09-08T09:23:05Z</time>
      </trkpt>
      <trkpt lat="44.15908" lon="5.00876">
        <ele>367.7</ele>
        <time>2020-09-08T09:23:06Z</time>
      </trkpt>
      <trkpt lat="44.15907" lon="5.00876">
        <ele>367.8</ele>
        <time>2020-09-08T09:23:07Z</time>
      </trkpt>
      <trkpt lat="44.15907" lon="5.00875">
        <ele>367.9</ele>
        <time>2020-09-08T09:23:08Z</time>
      </trkpt>
      <trkpt lat="44.15907" lon="5.00874">
        <ele>367.9</ele>
        <time>2020-09-08T09:23:09Z</time>
      </trkpt>
      <trkpt lat="44.15907" lon="5.00874">
        <ele>367.9</ele>
        <time>2020-09-08T09:23:10Z</time>
      </trkpt>
      <trkpt lat="44.15906" lon="5.00874">
        <ele>368.1</ele>
        <time>2020-09-08T09:23:11Z</time>
      </trkpt>
      <trkpt lat="44.15905" lon="5.00873">
        <ele>368.2</ele>
        <time>2020-09-08T09:23:12Z</time>
      </trkpt>
      <trkpt lat="44.15904" lon="5.00873">
        <ele>368.3</ele>
        <time>2020-09-08T09:23:13Z</time>
      </trkpt>
      <trkpt lat="44.15904" lon="5.00872">
        <ele>368.3</ele>
        <time>2020-09-08T09:23:14Z</time>
      </trkpt>
      <trkpt lat="44.15903" lon="5.00872">
        <ele>368.4</ele>
        <time>2020-09-08T09:23:15Z</time>
      </trkpt>
      <trkpt lat="44.15902" lon="5.00872">
        <ele>368.6</ele>
        <time>2020-09-08T09:23:16Z</time>
      </trkpt>
      <trkpt lat="44.15901" lon="5.00871">
        <ele>368.8</ele>
        <time>2020-09-08T09:23:17Z</time>
      </trkpt>
      <trkpt lat="44.159" lon="5.0087">
        <ele>368.9</ele>
        <time>2020-09-08T09:23:18Z</time>
      </trkpt>
      <trkpt lat="44.15899" lon="5.0087">
        <ele>369</ele>
        <time>2020-09-08T09:23:19Z</time>
      </trkpt>
      <trkpt lat="44.15898" lon="5.0087">
        <ele>369.1</ele>
        <time>2020-09-08T09:23:20Z</time>
      </trkpt>
      <trkpt lat="44.15898" lon="5.00869">
        <ele>369.1</ele>
        <time>2020-09-08T09:23:21Z</time>
      </trkpt>
      <trkpt lat="44.15897" lon="5.0087">
        <ele>369.2</ele>
        <time>2020-09-08T09:23:22Z</time>
      </trkpt>
      <trkpt lat="44.15896" lon="5.00869">
        <ele>369.3</ele>
        <time>2020-09-08T09:23:23Z</time>
      </trkpt>
      <trkpt lat="44.15895" lon="5.00868">
        <ele>369.5</ele>
        <time>2020-09-08T09:23:24Z</time>
      </trkpt>
      <trkpt lat="44.15894" lon="5.00867">
        <ele>369.6</ele>
        <time>2020-09-08T09:23:25Z</time>
      </trkpt>
      <trkpt lat="44.15893" lon="5.00867">
        <ele>369.8</ele>
        <time>2020-09-08T09:23:26Z</time>
      </trkpt>
      <trkpt lat="44.15892" lon="5.00867">
        <ele>369.9</ele>
        <time>2020-09-08T09:23:27Z</time>
      </trkpt>
      <trkpt lat="44.15891" lon="5.00867">
        <ele>370</ele>
        <time>2020-09-08T09:23:28Z</time>
      </trkpt>
      <trkpt lat="44.1589" lon="5.00867">
        <ele>370.1</ele>
        <time>2020-09-08T09:23:29Z</time>
      </trkpt>
      <trkpt lat="44.15889" lon="5.00867">
        <ele>370.3</ele>
        <time>2020-09-08T09:23:30Z</time>
      </trkpt>
      <trkpt lat="44.15888" lon="5.00867">
        <ele>370.4</ele>
        <time>2020-09-08T09:23:31Z</time>
      </trkpt>
      <trkpt lat="44.15887" lon="5.00867">
        <ele>370.5</ele>
        <time>2020-09-08T09:23:32Z</time>
      </trkpt>
      <trkpt lat="44.15887" lon="5.00867">
        <ele>370.5</ele>
        <time>2020-09-08T09:23:33Z</time>
      </trkpt>
      <trkpt lat="44.15887" lon="5.00867">
        <ele>370.6</ele>
        <time>2020-09-08T09:23:34Z</time>
      </trkpt>
      <trkpt lat="44.15886" lon="5.00868">
        <ele>370.7</ele>
        <time>2020-09-08T09:23:35Z</time>
      </trkpt>
      <trkpt lat="44.15885" lon="5.00867">
        <ele>370.9</ele>
        <time>2020-09-08T09:23:36Z</time>
      </trkpt>
      <trkpt lat="44.15884" lon="5.00867">
        <ele>370.9</ele>
        <time>2020-09-08T09:23:37Z</time>
      </trkpt>
      <trkpt lat="44.15883" lon="5.00868">
        <ele>371.1</ele>
        <time>2020-09-08T09:23:38Z</time>
      </trkpt>
      <trkpt lat="44.15883" lon="5.00869">
        <ele>371.1</ele>
        <time>2020-09-08T09:23:39Z</time>
      </trkpt>
      <trkpt lat="44.15883" lon="5.0087">
        <ele>371.2</ele>
        <time>2020-09-08T09:23:40Z</time>
      </trkpt>
      <trkpt lat="44.15882" lon="5.0087">
        <ele>371.3</ele>
        <time>2020-09-08T09:23:41Z</time>
      </trkpt>
      <trkpt lat="44.15882" lon="5.00871">
        <ele>371.4</ele>
        <time>2020-09-08T09:23:42Z</time>
      </trkpt>
      <trkpt lat="44.15882" lon="5.00872">
        <ele>371.5</ele>
        <time>2020-09-08T09:23:43Z</time>
      </trkpt>
      <trkpt lat="44.15881" lon="5.00872">
        <ele>371.5</ele>
        <time>2020-09-08T09:23:44Z</time>
      </trkpt>
      <trkpt lat="44.15881" lon="5.00873">
        <ele>371.6</ele>
        <time>2020-09-08T09:23:45Z</time>
      </trkpt>
      <trkpt lat="44.1588" lon="5.00874">
        <ele>371.8</ele>
        <time>2020-09-08T09:23:46Z</time>
      </trkpt>
      <trkpt lat="44.15879" lon="5.00874">
        <ele>371.8</ele>
        <time>2020-09-08T09:23:47Z</time>
      </trkpt>
      <trkpt lat="44.15879" lon="5.00874">
        <ele>371.9</ele>
        <time>2020-09-08T09:23:48Z</time>
      </trkpt>
      <trkpt lat="44.15877" lon="5.00875">
        <ele>372.1</ele>
        <time>2020-09-08T09:23:49Z</time>
      </trkpt>
      <trkpt lat="44.15877" lon="5.00876">
        <ele>372.2</ele>
        <time>2020-09-08T09:23:50Z</time>
      </trkpt>
      <trkpt lat="44.15875" lon="5.00876">
        <ele>372.5</ele>
        <time>2020-09-08T09:23:51Z</time>
      </trkpt>
      <trkpt lat="44.15874" lon="5.00877">
        <ele>372.6</ele>
        <time>2020-09-08T09:23:52Z</time>
      </trkpt>
      <trkpt lat="44.15873" lon="5.00877">
        <ele>372.7</ele>
        <time>2020-09-08T09:23:53Z</time>
      </trkpt>
      <trkpt lat="44.15871" lon="5.00878">
        <ele>373</ele>
        <time>2020-09-08T09:23:54Z</time>
      </trkpt>
      <trkpt lat="44.1587" lon="5.00879">
        <ele>373.2</ele>
        <time>2020-09-08T09:23:55Z</time>
      </trkpt>
      <trkpt lat="44.15869" lon="5.0088">
        <ele>373.3</ele>
        <time>2020-09-08T09:23:56Z</time>
      </trkpt>
      <trkpt lat="44.15866" lon="5.00879">
        <ele>373.8</ele>
        <time>2020-09-08T09:23:57Z</time>
      </trkpt>
      <trkpt lat="44.15865" lon="5.00879">
        <ele>373.9</ele>
        <time>2020-09-08T09:23:58Z</time>
      </trkpt>
      <trkpt lat="44.15863" lon="5.00879">
        <ele>374.2</ele>
        <time>2020-09-08T09:23:59Z</time>
      </trkpt>
      <trkpt lat="44.15862" lon="5.00878">
        <ele>374.4</ele>
        <time>2020-09-08T09:24:00Z</time>
      </trkpt>
      <trkpt lat="44.1586" lon="5.00877">
        <ele>374.6</ele>
        <time>2020-09-08T09:24:01Z</time>
      </trkpt>
      <trkpt lat="44.15859" lon="5.00877">
        <ele>374.9</ele>
        <time>2020-09-08T09:24:02Z</time>
      </trkpt>
      <trkpt lat="44.15857" lon="5.00877">
        <ele>375</ele>
        <time>2020-09-08T09:24:03Z</time>
      </trkpt>
      <trkpt lat="44.15856" lon="5.00877">
        <ele>375.2</ele>
        <time>2020-09-08T09:24:04Z</time>
      </trkpt>
      <trkpt lat="44.15855" lon="5.00877">
        <ele>375.3</ele>
        <time>2020-09-08T09:24:05Z</time>
      </trkpt>
      <trkpt lat="44.15853" lon="5.00878">
        <ele>375.6</ele>
        <time>2020-09-08T09:24:06Z</time>
      </trkpt>
      <trkpt lat="44.15852" lon="5.00878">
        <ele>375.8</ele>
        <time>2020-09-08T09:24:07Z</time>
      </trkpt>
      <trkpt lat="44.15851" lon="5.00878">
        <ele>375.9</ele>
        <time>2020-09-08T09:24:08Z</time>
      </trkpt>
      <trkpt lat="44.15851" lon="5.00877">
        <ele>376</ele>
        <time>2020-09-08T09:24:09Z</time>
      </trkpt>
      <trkpt lat="44.1585" lon="5.00876">
        <ele>376.2</ele>
        <time>2020-09-08T09:24:10Z</time>
      </trkpt>
      <trkpt lat="44.15849" lon="5.00875">
        <ele>376.4</ele>
        <time>2020-09-08T09:24:11Z</time>
      </trkpt>
      <trkpt lat="44.15848" lon="5.00874">
        <ele>376.6</ele>
        <time>2020-09-08T09:24:12Z</time>
      </trkpt>
      <trkpt lat="44.15847" lon="5.00874">
        <ele>376.7</ele>
        <time>2020-09-08T09:24:13Z</time>
      </trkpt>
      <trkpt lat="44.15846" lon="5.00874">
        <ele>376.9</ele>
        <time>2020-09-08T09:24:14Z</time>
      </trkpt>
      <trkpt lat="44.15845" lon="5.00874">
        <ele>377</ele>
        <time>2020-09-08T09:24:15Z</time>
      </trkpt>
      <trkpt lat="44.15844" lon="5.00873">
        <ele>377.2</ele>
        <time>2020-09-08T09:24:16Z</time>
      </trkpt>
      <trkpt lat="44.15843" lon="5.00873">
        <ele>377.3</ele>
        <time>2020-09-08T09:24:17Z</time>
      </trkpt>
      <trkpt lat="44.15842" lon="5.00874">
        <ele>377.5</ele>
        <time>2020-09-08T09:24:18Z</time>
      </trkpt>
      <trkpt lat="44.15841" lon="5.00873">
        <ele>377.6</ele>
        <time>2020-09-08T09:24:19Z</time>
      </trkpt>
      <trkpt lat="44.15841" lon="5.00873">
        <ele>377.7</ele>
        <time>2020-09-08T09:24:20Z</time>
      </trkpt>
      <trkpt lat="44.1584" lon="5.00873">
        <ele>377.7</ele>
        <time>2020-09-08T09:24:21Z</time>
      </trkpt>
      <trkpt lat="44.1584" lon="5.00873">
        <ele>377.8</ele>
        <time>2020-09-08T09:24:22Z</time>
      </trkpt>
      <trkpt lat="44.15839" lon="5.00874">
        <ele>377.9</ele>
        <time>2020-09-08T09:24:23Z</time>
      </trkpt>
      <trkpt lat="44.15838" lon="5.00875">
        <ele>378.1</ele>
        <time>2020-09-08T09:24:24Z</time>
      </trkpt>
      <trkpt lat="44.15838" lon="5.00875">
        <ele>378.2</ele>
        <time>2020-09-08T09:24:25Z</time>
      </trkpt>
      <trkpt lat="44.15837" lon="5.00875">
        <ele>378.3</ele>
        <time>2020-09-08T09:24:26Z</time>
      </trkpt>
      <trkpt lat="44.15836" lon="5.00875">
        <ele>378.4</ele>
        <time>2020-09-08T09:24:27Z</time>
      </trkpt>
      <trkpt lat="44.15835" lon="5.00875">
        <ele>378.6</ele>
        <time>2020-09-08T09:24:28Z</time>
      </trkpt>
      <trkpt lat="44.15833" lon="5.00874">
        <ele>378.8</ele>
        <time>2020-09-08T09:24:29Z</time>
      </trkpt>
      <trkpt lat="44.15832" lon="5.00874">
        <ele>378.9</ele>
        <time>2020-09-08T09:24:30Z</time>
      </trkpt>
      <trkpt lat="44.15831" lon="5.00875">
        <ele>379.1</ele>
        <time>2020-09-08T09:24:31Z</time>
      </trkpt>
      <trkpt lat="44.1583" lon="5.00874">
        <ele>379.3</ele>
        <time>2020-09-08T09:24:32Z</time>
      </trkpt>
      <trkpt lat="44.15828" lon="5.00874">
        <ele>379.5</ele>
        <time>2020-09-08T09:24:33Z</time>
      </trkpt>
      <trkpt lat="44.15827" lon="5.00874">
        <ele>379.6</ele>
        <time>2020-09-08T09:24:34Z</time>
      </trkpt>
      <trkpt lat="44.15825" lon="5.00874">
        <ele>380</ele>
        <time>2020-09-08T09:24:35Z</time>
      </trkpt>
      <trkpt lat="44.15824" lon="5.00874">
        <ele>380.2</ele>
        <time>2020-09-08T09:24:36Z</time>
      </trkpt>
      <trkpt lat="44.15824" lon="5.00874">
        <ele>380.3</ele>
        <time>2020-09-08T09:24:37Z</time>
      </trkpt>
      <trkpt lat="44.15823" lon="5.00874">
        <ele>380.5</ele>
        <time>2020-09-08T09:24:38Z</time>
      </trkpt>
      <trkpt lat="44.15822" lon="5.00875">
        <ele>380.8</ele>
        <time>2020-09-08T09:24:39Z</time>
      </trkpt>
      <trkpt lat="44.15822" lon="5.00875">
        <ele>380.9</ele>
        <time>2020-09-08T09:24:40Z</time>
      </trkpt>
      <trkpt lat="44.15821" lon="5.00876">
        <ele>381.1</ele>
        <time>2020-09-08T09:24:41Z</time>
      </trkpt>
      <trkpt lat="44.1582" lon="5.00877">
        <ele>381.4</ele>
        <time>2020-09-08T09:24:42Z</time>
      </trkpt>
      <trkpt lat="44.1582" lon="5.00878">
        <ele>381.6</ele>
        <time>2020-09-08T09:24:43Z</time>
      </trkpt>
      <trkpt lat="44.1582" lon="5.00878">
        <ele>381.6</ele>
        <time>2020-09-08T09:24:44Z</time>
      </trkpt>
      <trkpt lat="44.1582" lon="5.00878">
        <ele>381.7</ele>
        <time>2020-09-08T09:24:45Z</time>
      </trkpt>
      <trkpt lat="44.15819" lon="5.00878">
        <ele>381.8</ele>
        <time>2020-09-08T09:24:46Z</time>
      </trkpt>
      <trkpt lat="44.15819" lon="5.00879">
        <ele>381.9</ele>
        <time>2020-09-08T09:24:47Z</time>
      </trkpt>
      <trkpt lat="44.15819" lon="5.00879">
        <ele>382.1</ele>
        <time>2020-09-08T09:24:48Z</time>
      </trkpt>
      <trkpt lat="44.15819" lon="5.00879">
        <ele>382.2</ele>
        <time>2020-09-08T09:24:49Z</time>
      </trkpt>
      <trkpt lat="44.15818" lon="5.0088">
        <ele>382.3</ele>
        <time>2020-09-08T09:24:50Z</time>
      </trkpt>
      <trkpt lat="44.15818" lon="5.0088">
        <ele>382.5</ele>
        <time>2020-09-08T09:24:51Z</time>
      </trkpt>
      <trkpt lat="44.15816" lon="5.0088">
        <ele>382.8</ele>
        <time>2020-09-08T09:24:52Z</time>
      </trkpt>
      <trkpt lat="44.15816" lon="5.0088">
        <ele>383</ele>
        <time>2020-09-08T09:24:53Z</time>
      </trkpt>
      <trkpt lat="44.15815" lon="5.0088">
        <ele>383.3</ele>
        <time>2020-09-08T09:24:54Z</time>
      </trkpt>
      <trkpt lat="44.15814" lon="5.00879">
        <ele>383.5</ele>
        <time>2020-09-08T09:24:55Z</time>
      </trkpt>
      <trkpt lat="44.15813" lon="5.00879">
        <ele>383.8</ele>
        <time>2020-09-08T09:24:56Z</time>
      </trkpt>
      <trkpt lat="44.15812" lon="5.0088">
        <ele>384</ele>
        <time>2020-09-08T09:24:57Z</time>
      </trkpt>
      <trkpt lat="44.15812" lon="5.00879">
        <ele>384</ele>
        <time>2020-09-08T09:24:58Z</time>
      </trkpt>
      <trkpt lat="44.15811" lon="5.0088">
        <ele>384.2</ele>
        <time>2020-09-08T09:24:59Z</time>
      </trkpt>
      <trkpt lat="44.1581" lon="5.0088">
        <ele>384.6</ele>
        <time>2020-09-08T09:25:00Z</time>
      </trkpt>
      <trkpt lat="44.15809" lon="5.00881">
        <ele>384.8</ele>
        <time>2020-09-08T09:25:01Z</time>
      </trkpt>
      <trkpt lat="44.15808" lon="5.00882">
        <ele>385.1</ele>
        <time>2020-09-08T09:25:02Z</time>
      </trkpt>
      <trkpt lat="44.15808" lon="5.00882">
        <ele>385.1</ele>
        <time>2020-09-08T09:25:03Z</time>
      </trkpt>
      <trkpt lat="44.15807" lon="5.00882">
        <ele>385.3</ele>
        <time>2020-09-08T09:25:04Z</time>
      </trkpt>
      <trkpt lat="44.15807" lon="5.00882">
        <ele>385.4</ele>
        <time>2020-09-08T09:25:05Z</time>
      </trkpt>
      <trkpt lat="44.15805" lon="5.00882">
        <ele>385.9</ele>
        <time>2020-09-08T09:25:06Z</time>
      </trkpt>
      <trkpt lat="44.15804" lon="5.00883">
        <ele>386.3</ele>
        <time>2020-09-08T09:25:07Z</time>
      </trkpt>
      <trkpt lat="44.15803" lon="5.00884">
        <ele>386.4</ele>
        <time>2020-09-08T09:25:08Z</time>
      </trkpt>
      <trkpt lat="44.15803" lon="5.00884">
        <ele>386.5</ele>
        <time>2020-09-08T09:25:09Z</time>
      </trkpt>
      <trkpt lat="44.15802" lon="5.00884">
        <ele>386.7</ele>
        <time>2020-09-08T09:25:10Z</time>
      </trkpt>
      <trkpt lat="44.15802" lon="5.00885">
        <ele>386.9</ele>
        <time>2020-09-08T09:25:11Z</time>
      </trkpt>
      <trkpt lat="44.15802" lon="5.00886">
        <ele>386.9</ele>
        <time>2020-09-08T09:25:12Z</time>
      </trkpt>
      <trkpt lat="44.15801" lon="5.00887">
        <ele>387.3</ele>
        <time>2020-09-08T09:25:13Z</time>
      </trkpt>
      <trkpt lat="44.158" lon="5.00888">
        <ele>387.5</ele>
        <time>2020-09-08T09:25:14Z</time>
      </trkpt>
      <trkpt lat="44.15799" lon="5.00889">
        <ele>387.7</ele>
        <time>2020-09-08T09:25:15Z</time>
      </trkpt>
      <trkpt lat="44.15799" lon="5.00889">
        <ele>387.8</ele>
        <time>2020-09-08T09:25:16Z</time>
      </trkpt>
      <trkpt lat="44.15799" lon="5.0089">
        <ele>388</ele>
        <time>2020-09-08T09:25:17Z</time>
      </trkpt>
      <trkpt lat="44.15798" lon="5.00891">
        <ele>388.2</ele>
        <time>2020-09-08T09:25:18Z</time>
      </trkpt>
      <trkpt lat="44.15798" lon="5.00892">
        <ele>388.3</ele>
        <time>2020-09-08T09:25:19Z</time>
      </trkpt>
      <trkpt lat="44.15796" lon="5.00893">
        <ele>388.6</ele>
        <time>2020-09-08T09:25:20Z</time>
      </trkpt>
      <trkpt lat="44.15795" lon="5.00893">
        <ele>388.9</ele>
        <time>2020-09-08T09:25:21Z</time>
      </trkpt>
      <trkpt lat="44.15795" lon="5.00893">
        <ele>389.1</ele>
        <time>2020-09-08T09:25:22Z</time>
      </trkpt>
      <trkpt lat="44.15794" lon="5.00894">
        <ele>389.2</ele>
        <time>2020-09-08T09:25:23Z</time>
      </trkpt>
      <trkpt lat="44.15794" lon="5.00895">
        <ele>389.4</ele>
        <time>2020-09-08T09:25:24Z</time>
      </trkpt>
      <trkpt lat="44.15793" lon="5.00896">
        <ele>389.7</ele>
        <time>2020-09-08T09:25:25Z</time>
      </trkpt>
      <trkpt lat="44.15792" lon="5.00897">
        <ele>389.9</ele>
        <time>2020-09-08T09:25:26Z</time>
      </trkpt>
      <trkpt lat="44.15792" lon="5.00898">
        <ele>390.2</ele>
        <time>2020-09-08T09:25:27Z</time>
      </trkpt>
      <trkpt lat="44.15791" lon="5.00899">
        <ele>390.3</ele>
        <time>2020-09-08T09:25:28Z</time>
      </trkpt>
      <trkpt lat="44.15791" lon="5.00899">
        <ele>390.3</ele>
        <time>2020-09-08T09:25:29Z</time>
      </trkpt>
      <trkpt lat="44.15791" lon="5.009">
        <ele>390.6</ele>
        <time>2020-09-08T09:25:30Z</time>
      </trkpt>
      <trkpt lat="44.1579" lon="5.00901">
        <ele>390.7</ele>
        <time>2020-09-08T09:25:31Z</time>
      </trkpt>
      <trkpt lat="44.15791" lon="5.00902">
        <ele>391</ele>
        <time>2020-09-08T09:25:32Z</time>
      </trkpt>
      <trkpt lat="44.15791" lon="5.00903">
        <ele>391.1</ele>
        <time>2020-09-08T09:25:33Z</time>
      </trkpt>
      <trkpt lat="44.1579" lon="5.00904">
        <ele>391.3</ele>
        <time>2020-09-08T09:25:34Z</time>
      </trkpt>
      <trkpt lat="44.1579" lon="5.00907">
        <ele>391.7</ele>
        <time>2020-09-08T09:25:35Z</time>
      </trkpt>
      <trkpt lat="44.1579" lon="5.00908">
        <ele>391.9</ele>
        <time>2020-09-08T09:25:36Z</time>
      </trkpt>
      <trkpt lat="44.1579" lon="5.00909">
        <ele>392.1</ele>
        <time>2020-09-08T09:25:37Z</time>
      </trkpt>
      <trkpt lat="44.1579" lon="5.0091">
        <ele>392.3</ele>
        <time>2020-09-08T09:25:38Z</time>
      </trkpt>
      <trkpt lat="44.15789" lon="5.00913">
        <ele>392.7</ele>
        <time>2020-09-08T09:25:39Z</time>
      </trkpt>
      <trkpt lat="44.15789" lon="5.00913">
        <ele>392.8</ele>
        <time>2020-09-08T09:25:40Z</time>
      </trkpt>
      <trkpt lat="44.15788" lon="5.00914">
        <ele>392.9</ele>
        <time>2020-09-08T09:25:41Z</time>
      </trkpt>
      <trkpt lat="44.15788" lon="5.00915">
        <ele>393.2</ele>
        <time>2020-09-08T09:25:42Z</time>
      </trkpt>
      <trkpt lat="44.15787" lon="5.00916">
        <ele>393.4</ele>
        <time>2020-09-08T09:25:43Z</time>
      </trkpt>
      <trkpt lat="44.15788" lon="5.00918">
        <ele>393.6</ele>
        <time>2020-09-08T09:25:44Z</time>
      </trkpt>
      <trkpt lat="44.15787" lon="5.00918">
        <ele>393.7</ele>
        <time>2020-09-08T09:25:45Z</time>
      </trkpt>
      <trkpt lat="44.15787" lon="5.00918">
        <ele>393.7</ele>
        <time>2020-09-08T09:25:46Z</time>
      </trkpt>
      <trkpt lat="44.15788" lon="5.00919">
        <ele>393.9</ele>
        <time>2020-09-08T09:25:47Z</time>
      </trkpt>
      <trkpt lat="44.15788" lon="5.0092">
        <ele>394.1</ele>
        <time>2020-09-08T09:25:48Z</time>
      </trkpt>
      <trkpt lat="44.15787" lon="5.00922">
        <ele>394.3</ele>
        <time>2020-09-08T09:25:49Z</time>
      </trkpt>
      <trkpt lat="44.15786" lon="5.00922">
        <ele>394.5</ele>
        <time>2020-09-08T09:25:50Z</time>
      </trkpt>
      <trkpt lat="44.15786" lon="5.00923">
        <ele>394.7</ele>
        <time>2020-09-08T09:25:51Z</time>
      </trkpt>
      <trkpt lat="44.15785" lon="5.00923">
        <ele>394.9</ele>
        <time>2020-09-08T09:25:52Z</time>
      </trkpt>
      <trkpt lat="44.15784" lon="5.00924">
        <ele>395.1</ele>
        <time>2020-09-08T09:25:53Z</time>
      </trkpt>
      <trkpt lat="44.15784" lon="5.00925">
        <ele>395.2</ele>
        <time>2020-09-08T09:25:54Z</time>
      </trkpt>
      <trkpt lat="44.15784" lon="5.00926">
        <ele>395.4</ele>
        <time>2020-09-08T09:25:55Z</time>
      </trkpt>
      <trkpt lat="44.15784" lon="5.00928">
        <ele>395.7</ele>
        <time>2020-09-08T09:25:56Z</time>
      </trkpt>
      <trkpt lat="44.15783" lon="5.00929">
        <ele>395.9</ele>
        <time>2020-09-08T09:25:57Z</time>
      </trkpt>
      <trkpt lat="44.15782" lon="5.0093">
        <ele>396.2</ele>
        <time>2020-09-08T09:25:58Z</time>
      </trkpt>
      <trkpt lat="44.15782" lon="5.00931">
        <ele>396.4</ele>
        <time>2020-09-08T09:25:59Z</time>
      </trkpt>
      <trkpt lat="44.1578" lon="5.00931">
        <ele>396.7</ele>
        <time>2020-09-08T09:26:00Z</time>
      </trkpt>
      <trkpt lat="44.1578" lon="5.00931">
        <ele>396.9</ele>
        <time>2020-09-08T09:26:01Z</time>
      </trkpt>
      <trkpt lat="44.15779" lon="5.00931">
        <ele>397.1</ele>
        <time>2020-09-08T09:26:02Z</time>
      </trkpt>
      <trkpt lat="44.15778" lon="5.00931">
        <ele>397.3</ele>
        <time>2020-09-08T09:26:03Z</time>
      </trkpt>
      <trkpt lat="44.15778" lon="5.00932">
        <ele>397.4</ele>
        <time>2020-09-08T09:26:04Z</time>
      </trkpt>
      <trkpt lat="44.15778" lon="5.00933">
        <ele>397.6</ele>
        <time>2020-09-08T09:26:05Z</time>
      </trkpt>
      <trkpt lat="44.15777" lon="5.00933">
        <ele>397.7</ele>
        <time>2020-09-08T09:26:06Z</time>
      </trkpt>
      <trkpt lat="44.15777" lon="5.00934">
        <ele>398</ele>
        <time>2020-09-08T09:26:07Z</time>
      </trkpt>
      <trkpt lat="44.15776" lon="5.00935">
        <ele>398.1</ele>
        <time>2020-09-08T09:26:08Z</time>
      </trkpt>
      <trkpt lat="44.15775" lon="5.00935">
        <ele>398.3</ele>
        <time>2020-09-08T09:26:09Z</time>
      </trkpt>
      <trkpt lat="44.15774" lon="5.00935">
        <ele>398.7</ele>
        <time>2020-09-08T09:26:10Z</time>
      </trkpt>
      <trkpt lat="44.15774" lon="5.00935">
        <ele>398.8</ele>
        <time>2020-09-08T09:26:11Z</time>
      </trkpt>
      <trkpt lat="44.15773" lon="5.00936">
        <ele>398.8</ele>
        <time>2020-09-08T09:26:12Z</time>
      </trkpt>
      <trkpt lat="44.15772" lon="5.00936">
        <ele>399.1</ele>
        <time>2020-09-08T09:26:13Z</time>
      </trkpt>
      <trkpt lat="44.15772" lon="5.00938">
        <ele>399.4</ele>
        <time>2020-09-08T09:26:14Z</time>
      </trkpt>
      <trkpt lat="44.15772" lon="5.00939">
        <ele>399.6</ele>
        <time>2020-09-08T09:26:15Z</time>
      </trkpt>
      <trkpt lat="44.15771" lon="5.00939">
        <ele>399.6</ele>
        <time>2020-09-08T09:26:16Z</time>
      </trkpt>
      <trkpt lat="44.15771" lon="5.00939">
        <ele>399.8</ele>
        <time>2020-09-08T09:26:17Z</time>
      </trkpt>
      <trkpt lat="44.1577" lon="5.00941">
        <ele>400.1</ele>
        <time>2020-09-08T09:26:18Z</time>
      </trkpt>
      <trkpt lat="44.1577" lon="5.0094">
        <ele>400.2</ele>
        <time>2020-09-08T09:26:19Z</time>
      </trkpt>
      <trkpt lat="44.1577" lon="5.00941">
        <ele>400.3</ele>
        <time>2020-09-08T09:26:20Z</time>
      </trkpt>
      <trkpt lat="44.15769" lon="5.00942">
        <ele>400.5</ele>
        <time>2020-09-08T09:26:21Z</time>
      </trkpt>
      <trkpt lat="44.15769" lon="5.00942">
        <ele>400.6</ele>
        <time>2020-09-08T09:26:22Z</time>
      </trkpt>
      <trkpt lat="44.1577" lon="5.00943">
        <ele>400.8</ele>
        <time>2020-09-08T09:26:23Z</time>
      </trkpt>
      <trkpt lat="44.15769" lon="5.00944">
        <ele>401</ele>
        <time>2020-09-08T09:26:24Z</time>
      </trkpt>
      <trkpt lat="44.15767" lon="5.00945">
        <ele>401.8</ele>
        <time>2020-09-08T09:26:25Z</time>
      </trkpt>
      <trkpt lat="44.15767" lon="5.00946">
        <ele>401.9</ele>
        <time>2020-09-08T09:26:26Z</time>
      </trkpt>
      <trkpt lat="44.15766" lon="5.00946">
        <ele>402.1</ele>
        <time>2020-09-08T09:26:27Z</time>
      </trkpt>
      <trkpt lat="44.15765" lon="5.00946">
        <ele>402.3</ele>
        <time>2020-09-08T09:26:28Z</time>
      </trkpt>
      <trkpt lat="44.15763" lon="5.00947">
        <ele>402.6</ele>
        <time>2020-09-08T09:26:29Z</time>
      </trkpt>
      <trkpt lat="44.15763" lon="5.00947">
        <ele>402.8</ele>
        <time>2020-09-08T09:26:30Z</time>
      </trkpt>
      <trkpt lat="44.15762" lon="5.00948">
        <ele>402.9</ele>
        <time>2020-09-08T09:26:31Z</time>
      </trkpt>
      <trkpt lat="44.15761" lon="5.00949">
        <ele>403.1</ele>
        <time>2020-09-08T09:26:32Z</time>
      </trkpt>
      <trkpt lat="44.15761" lon="5.0095">
        <ele>403.2</ele>
        <time>2020-09-08T09:26:33Z</time>
      </trkpt>
      <trkpt lat="44.1576" lon="5.0095">
        <ele>403.3</ele>
        <time>2020-09-08T09:26:34Z</time>
      </trkpt>
      <trkpt lat="44.15759" lon="5.00951">
        <ele>403.6</ele>
        <time>2020-09-08T09:26:35Z</time>
      </trkpt>
      <trkpt lat="44.15758" lon="5.00952">
        <ele>403.8</ele>
        <time>2020-09-08T09:26:36Z</time>
      </trkpt>
      <trkpt lat="44.15758" lon="5.00953">
        <ele>404</ele>
        <time>2020-09-08T09:26:37Z</time>
      </trkpt>
      <trkpt lat="44.15756" lon="5.00953">
        <ele>404.2</ele>
        <time>2020-09-08T09:26:38Z</time>
      </trkpt>
      <trkpt lat="44.15756" lon="5.00955">
        <ele>404.4</ele>
        <time>2020-09-08T09:26:39Z</time>
      </trkpt>
      <trkpt lat="44.15755" lon="5.00955">
        <ele>404.6</ele>
        <time>2020-09-08T09:26:40Z</time>
      </trkpt>
      <trkpt lat="44.15754" lon="5.00956">
        <ele>404.7</ele>
        <time>2020-09-08T09:26:41Z</time>
      </trkpt>
      <trkpt lat="44.15754" lon="5.00957">
        <ele>404.9</ele>
        <time>2020-09-08T09:26:42Z</time>
      </trkpt>
      <trkpt lat="44.15753" lon="5.00958">
        <ele>405</ele>
        <time>2020-09-08T09:26:43Z</time>
      </trkpt>
      <trkpt lat="44.15753" lon="5.00958">
        <ele>405</ele>
        <time>2020-09-08T09:26:44Z</time>
      </trkpt>
      <trkpt lat="44.15753" lon="5.00958">
        <ele>405.1</ele>
        <time>2020-09-08T09:26:45Z</time>
      </trkpt>
      <trkpt lat="44.15754" lon="5.00958">
        <ele>405.3</ele>
        <time>2020-09-08T09:26:46Z</time>
      </trkpt>
      <trkpt lat="44.15755" lon="5.00957">
        <ele>405.4</ele>
        <time>2020-09-08T09:26:47Z</time>
      </trkpt>
      <trkpt lat="44.15755" lon="5.00958">
        <ele>405.4</ele>
        <time>2020-09-08T09:26:48Z</time>
      </trkpt>
      <trkpt lat="44.15755" lon="5.00957">
        <ele>405.5</ele>
        <time>2020-09-08T09:26:49Z</time>
      </trkpt>
      <trkpt lat="44.15754" lon="5.00957">
        <ele>405.5</ele>
        <time>2020-09-08T09:26:50Z</time>
      </trkpt>
      <trkpt lat="44.15755" lon="5.00958">
        <ele>405.6</ele>
        <time>2020-09-08T09:26:51Z</time>
      </trkpt>
      <trkpt lat="44.15755" lon="5.00958">
        <ele>405.6</ele>
        <time>2020-09-08T09:26:52Z</time>
      </trkpt>
      <trkpt lat="44.15755" lon="5.00958">
        <ele>405.6</ele>
        <time>2020-09-08T09:26:53Z</time>
      </trkpt>
      <trkpt lat="44.15755" lon="5.00957">
        <ele>405.7</ele>
        <time>2020-09-08T09:26:54Z</time>
      </trkpt>
      <trkpt lat="44.15754" lon="5.00957">
        <ele>405.8</ele>
        <time>2020-09-08T09:26:55Z</time>
      </trkpt>
      <trkpt lat="44.15754" lon="5.00957">
        <ele>405.8</ele>
        <time>2020-09-08T09:26:56Z</time>
      </trkpt>
      <trkpt lat="44.15755" lon="5.00957">
        <ele>405.9</ele>
        <time>2020-09-08T09:26:57Z</time>
      </trkpt>
      <trkpt lat="44.15755" lon="5.00956">
        <ele>405.9</ele>
        <time>2020-09-08T09:26:58Z</time>
      </trkpt>
      <trkpt lat="44.15754" lon="5.00956">
        <ele>405.9</ele>
        <time>2020-09-08T09:26:59Z</time>
      </trkpt>
      <trkpt lat="44.15754" lon="5.00956">
        <ele>406</ele>
        <time>2020-09-08T09:27:00Z</time>
      </trkpt>
      <trkpt lat="44.15754" lon="5.00955">
        <ele>406.1</ele>
        <time>2020-09-08T09:27:01Z</time>
      </trkpt>
      <trkpt lat="44.15754" lon="5.00956">
        <ele>406.1</ele>
        <time>2020-09-08T09:27:02Z</time>
      </trkpt>
      <trkpt lat="44.15754" lon="5.00956">
        <ele>406.2</ele>
        <time>2020-09-08T09:27:03Z</time>
      </trkpt>
      <trkpt lat="44.15755" lon="5.00956">
        <ele>406.2</ele>
        <time>2020-09-08T09:27:04Z</time>
      </trkpt>
      <trkpt lat="44.15755" lon="5.00956">
        <ele>406.3</ele>
        <time>2020-09-08T09:27:05Z</time>
      </trkpt>
      <trkpt lat="44.15755" lon="5.00956">
        <ele>406.3</ele>
        <time>2020-09-08T09:27:06Z</time>
      </trkpt>
      <trkpt lat="44.15755" lon="5.00956">
        <ele>406.3</ele>
        <time>2020-09-08T09:27:07Z</time>
      </trkpt>
      <trkpt lat="44.15755" lon="5.00956">
        <ele>406.4</ele>
        <time>2020-09-08T09:27:08Z</time>
      </trkpt>
      <trkpt lat="44.15755" lon="5.00956">
        <ele>406.4</ele>
        <time>2020-09-08T09:27:09Z</time>
      </trkpt>
      <trkpt lat="44.15755" lon="5.00956">
        <ele>406.4</ele>
        <time>2020-09-08T09:27:10Z</time>
      </trkpt>
      <trkpt lat="44.15755" lon="5.00956">
        <ele>406.5</ele>
        <time>2020-09-08T09:27:11Z</time>
      </trkpt>
      <trkpt lat="44.15754" lon="5.00955">
        <ele>406.6</ele>
        <time>2020-09-08T09:27:12Z</time>
      </trkpt>
      <trkpt lat="44.15754" lon="5.00956">
        <ele>406.6</ele>
        <time>2020-09-08T09:27:13Z</time>
      </trkpt>
      <trkpt lat="44.15754" lon="5.00955">
        <ele>406.7</ele>
        <time>2020-09-08T09:27:14Z</time>
      </trkpt>
      <trkpt lat="44.15753" lon="5.00955">
        <ele>406.7</ele>
        <time>2020-09-08T09:27:15Z</time>
      </trkpt>
      <trkpt lat="44.15753" lon="5.00956">
        <ele>406.7</ele>
        <time>2020-09-08T09:27:16Z</time>
      </trkpt>
      <trkpt lat="44.15753" lon="5.00956">
        <ele>406.7</ele>
        <time>2020-09-08T09:27:17Z</time>
      </trkpt>
      <trkpt lat="44.15754" lon="5.00955">
        <ele>406.9</ele>
        <time>2020-09-08T09:27:18Z</time>
      </trkpt>
      <trkpt lat="44.15754" lon="5.00955">
        <ele>406.9</ele>
        <time>2020-09-08T09:27:19Z</time>
      </trkpt>
      <trkpt lat="44.15754" lon="5.00955">
        <ele>406.9</ele>
        <time>2020-09-08T09:27:20Z</time>
      </trkpt>
      <trkpt lat="44.15752" lon="5.00955">
        <ele>407.1</ele>
        <time>2020-09-08T09:27:21Z</time>
      </trkpt>
      <trkpt lat="44.15752" lon="5.00956">
        <ele>407.3</ele>
        <time>2020-09-08T09:27:22Z</time>
      </trkpt>
      <trkpt lat="44.15751" lon="5.00957">
        <ele>407.4</ele>
        <time>2020-09-08T09:27:23Z</time>
      </trkpt>
      <trkpt lat="44.15751" lon="5.00958">
        <ele>407.6</ele>
        <time>2020-09-08T09:27:24Z</time>
      </trkpt>
      <trkpt lat="44.15751" lon="5.0096">
        <ele>407.9</ele>
        <time>2020-09-08T09:27:25Z</time>
      </trkpt>
      <trkpt lat="44.15751" lon="5.00961">
        <ele>407.9</ele>
        <time>2020-09-08T09:27:26Z</time>
      </trkpt>
      <trkpt lat="44.15751" lon="5.00961">
        <ele>408</ele>
        <time>2020-09-08T09:27:27Z</time>
      </trkpt>
      <trkpt lat="44.1575" lon="5.00961">
        <ele>408.1</ele>
        <time>2020-09-08T09:27:28Z</time>
      </trkpt>
      <trkpt lat="44.15749" lon="5.00963">
        <ele>408.4</ele>
        <time>2020-09-08T09:27:29Z</time>
      </trkpt>
      <trkpt lat="44.15748" lon="5.00963">
        <ele>408.6</ele>
        <time>2020-09-08T09:27:30Z</time>
      </trkpt>
      <trkpt lat="44.15747" lon="5.00964">
        <ele>408.8</ele>
        <time>2020-09-08T09:27:31Z</time>
      </trkpt>
      <trkpt lat="44.15745" lon="5.00964">
        <ele>409.2</ele>
        <time>2020-09-08T09:27:32Z</time>
      </trkpt>
      <trkpt lat="44.15744" lon="5.00965">
        <ele>409.5</ele>
        <time>2020-09-08T09:27:33Z</time>
      </trkpt>
      <trkpt lat="44.15743" lon="5.00967">
        <ele>409.7</ele>
        <time>2020-09-08T09:27:34Z</time>
      </trkpt>
      <trkpt lat="44.15743" lon="5.00968">
        <ele>409.9</ele>
        <time>2020-09-08T09:27:35Z</time>
      </trkpt>
      <trkpt lat="44.15742" lon="5.00969">
        <ele>410.1</ele>
        <time>2020-09-08T09:27:36Z</time>
      </trkpt>
      <trkpt lat="44.15741" lon="5.00971">
        <ele>410.4</ele>
        <time>2020-09-08T09:27:37Z</time>
      </trkpt>
      <trkpt lat="44.1574" lon="5.00972">
        <ele>410.6</ele>
        <time>2020-09-08T09:27:38Z</time>
      </trkpt>
      <trkpt lat="44.15739" lon="5.00973">
        <ele>410.8</ele>
        <time>2020-09-08T09:27:39Z</time>
      </trkpt>
      <trkpt lat="44.15739" lon="5.00975">
        <ele>411.1</ele>
        <time>2020-09-08T09:27:40Z</time>
      </trkpt>
      <trkpt lat="44.15738" lon="5.00976">
        <ele>411.3</ele>
        <time>2020-09-08T09:27:41Z</time>
      </trkpt>
      <trkpt lat="44.15738" lon="5.00976">
        <ele>411.3</ele>
        <time>2020-09-08T09:27:42Z</time>
      </trkpt>
      <trkpt lat="44.15737" lon="5.00977">
        <ele>411.5</ele>
        <time>2020-09-08T09:27:43Z</time>
      </trkpt>
      <trkpt lat="44.15737" lon="5.00979">
        <ele>411.8</ele>
        <time>2020-09-08T09:27:44Z</time>
      </trkpt>
      <trkpt lat="44.15737" lon="5.0098">
        <ele>411.9</ele>
        <time>2020-09-08T09:27:45Z</time>
      </trkpt>
      <trkpt lat="44.15736" lon="5.0098">
        <ele>411.9</ele>
        <time>2020-09-08T09:27:46Z</time>
      </trkpt>
      <trkpt lat="44.15736" lon="5.00981">
        <ele>412.1</ele>
        <time>2020-09-08T09:27:47Z</time>
      </trkpt>
      <trkpt lat="44.15735" lon="5.00982">
        <ele>412.3</ele>
        <time>2020-09-08T09:27:48Z</time>
      </trkpt>
      <trkpt lat="44.15734" lon="5.00984">
        <ele>412.6</ele>
        <time>2020-09-08T09:27:49Z</time>
      </trkpt>
      <trkpt lat="44.15733" lon="5.00984">
        <ele>412.8</ele>
        <time>2020-09-08T09:27:50Z</time>
      </trkpt>
      <trkpt lat="44.15733" lon="5.00986">
        <ele>413</ele>
        <time>2020-09-08T09:27:51Z</time>
      </trkpt>
      <trkpt lat="44.15733" lon="5.00987">
        <ele>413.2</ele>
        <time>2020-09-08T09:27:52Z</time>
      </trkpt>
      <trkpt lat="44.15732" lon="5.00987">
        <ele>413.4</ele>
        <time>2020-09-08T09:27:53Z</time>
      </trkpt>
      <trkpt lat="44.15732" lon="5.00989">
        <ele>413.6</ele>
        <time>2020-09-08T09:27:54Z</time>
      </trkpt>
      <trkpt lat="44.15731" lon="5.0099">
        <ele>413.8</ele>
        <time>2020-09-08T09:27:55Z</time>
      </trkpt>
      <trkpt lat="44.15731" lon="5.00992">
        <ele>414.1</ele>
        <time>2020-09-08T09:27:56Z</time>
      </trkpt>
      <trkpt lat="44.15731" lon="5.00993">
        <ele>414.2</ele>
        <time>2020-09-08T09:27:57Z</time>
      </trkpt>
      <trkpt lat="44.1573" lon="5.00994">
        <ele>414.4</ele>
        <time>2020-09-08T09:27:58Z</time>
      </trkpt>
      <trkpt lat="44.1573" lon="5.00997">
        <ele>414.8</ele>
        <time>2020-09-08T09:27:59Z</time>
      </trkpt>
      <trkpt lat="44.1573" lon="5.00998">
        <ele>415</ele>
        <time>2020-09-08T09:28:00Z</time>
      </trkpt>
      <trkpt lat="44.1573" lon="5.00999">
        <ele>415.1</ele>
        <time>2020-09-08T09:28:01Z</time>
      </trkpt>
      <trkpt lat="44.1573" lon="5.01">
        <ele>415.3</ele>
        <time>2020-09-08T09:28:02Z</time>
      </trkpt>
      <trkpt lat="44.15729" lon="5.01003">
        <ele>415.7</ele>
        <time>2020-09-08T09:28:03Z</time>
      </trkpt>
      <trkpt lat="44.15729" lon="5.01004">
        <ele>415.9</ele>
        <time>2020-09-08T09:28:04Z</time>
      </trkpt>
      <trkpt lat="44.15729" lon="5.01005">
        <ele>416</ele>
        <time>2020-09-08T09:28:05Z</time>
      </trkpt>
      <trkpt lat="44.15729" lon="5.01008">
        <ele>416.4</ele>
        <time>2020-09-08T09:28:06Z</time>
      </trkpt>
      <trkpt lat="44.15728" lon="5.01009">
        <ele>416.6</ele>
        <time>2020-09-08T09:28:07Z</time>
      </trkpt>
      <trkpt lat="44.15728" lon="5.0101">
        <ele>416.7</ele>
        <time>2020-09-08T09:28:08Z</time>
      </trkpt>
      <trkpt lat="44.15727" lon="5.01013">
        <ele>417.2</ele>
        <time>2020-09-08T09:28:09Z</time>
      </trkpt>
      <trkpt lat="44.15727" lon="5.01014">
        <ele>417.3</ele>
        <time>2020-09-08T09:28:10Z</time>
      </trkpt>
      <trkpt lat="44.15727" lon="5.01015">
        <ele>417.4</ele>
        <time>2020-09-08T09:28:11Z</time>
      </trkpt>
      <trkpt lat="44.15727" lon="5.01016">
        <ele>417.6</ele>
        <time>2020-09-08T09:28:12Z</time>
      </trkpt>
      <trkpt lat="44.15726" lon="5.01019">
        <ele>418</ele>
        <time>2020-09-08T09:28:13Z</time>
      </trkpt>
      <trkpt lat="44.15727" lon="5.01021">
        <ele>418.4</ele>
        <time>2020-09-08T09:28:14Z</time>
      </trkpt>
      <trkpt lat="44.15727" lon="5.01022">
        <ele>418.5</ele>
        <time>2020-09-08T09:28:15Z</time>
      </trkpt>
      <trkpt lat="44.15727" lon="5.01024">
        <ele>418.7</ele>
        <time>2020-09-08T09:28:16Z</time>
      </trkpt>
      <trkpt lat="44.15727" lon="5.01025">
        <ele>418.8</ele>
        <time>2020-09-08T09:28:17Z</time>
      </trkpt>
      <trkpt lat="44.15728" lon="5.01026">
        <ele>419</ele>
        <time>2020-09-08T09:28:18Z</time>
      </trkpt>
      <trkpt lat="44.15727" lon="5.01028">
        <ele>419.2</ele>
        <time>2020-09-08T09:28:19Z</time>
      </trkpt>
      <trkpt lat="44.15727" lon="5.01029">
        <ele>419.4</ele>
        <time>2020-09-08T09:28:20Z</time>
      </trkpt>
      <trkpt lat="44.15726" lon="5.0103">
        <ele>419.6</ele>
        <time>2020-09-08T09:28:21Z</time>
      </trkpt>
      <trkpt lat="44.15727" lon="5.01031">
        <ele>419.6</ele>
        <time>2020-09-08T09:28:22Z</time>
      </trkpt>
      <trkpt lat="44.15727" lon="5.01032">
        <ele>419.8</ele>
        <time>2020-09-08T09:28:23Z</time>
      </trkpt>
      <trkpt lat="44.15726" lon="5.01033">
        <ele>420</ele>
        <time>2020-09-08T09:28:24Z</time>
      </trkpt>
      <trkpt lat="44.15727" lon="5.01035">
        <ele>420.2</ele>
        <time>2020-09-08T09:28:25Z</time>
      </trkpt>
      <trkpt lat="44.15727" lon="5.01036">
        <ele>420.4</ele>
        <time>2020-09-08T09:28:26Z</time>
      </trkpt>
      <trkpt lat="44.15727" lon="5.01038">
        <ele>420.6</ele>
        <time>2020-09-08T09:28:27Z</time>
      </trkpt>
      <trkpt lat="44.15727" lon="5.01039">
        <ele>420.8</ele>
        <time>2020-09-08T09:28:28Z</time>
      </trkpt>
      <trkpt lat="44.15727" lon="5.0104">
        <ele>420.9</ele>
        <time>2020-09-08T09:28:29Z</time>
      </trkpt>
      <trkpt lat="44.15727" lon="5.01041">
        <ele>421</ele>
        <time>2020-09-08T09:28:30Z</time>
      </trkpt>
      <trkpt lat="44.15728" lon="5.01044">
        <ele>421.3</ele>
        <time>2020-09-08T09:28:31Z</time>
      </trkpt>
      <trkpt lat="44.15728" lon="5.01045">
        <ele>421.5</ele>
        <time>2020-09-08T09:28:32Z</time>
      </trkpt>
      <trkpt lat="44.15728" lon="5.01046">
        <ele>421.6</ele>
        <time>2020-09-08T09:28:33Z</time>
      </trkpt>
      <trkpt lat="44.15728" lon="5.01047">
        <ele>421.8</ele>
        <time>2020-09-08T09:28:34Z</time>
      </trkpt>
      <trkpt lat="44.15728" lon="5.01049">
        <ele>422</ele>
        <time>2020-09-08T09:28:35Z</time>
      </trkpt>
      <trkpt lat="44.15728" lon="5.0105">
        <ele>422.1</ele>
        <time>2020-09-08T09:28:36Z</time>
      </trkpt>
      <trkpt lat="44.15728" lon="5.01052">
        <ele>422.3</ele>
        <time>2020-09-08T09:28:37Z</time>
      </trkpt>
      <trkpt lat="44.15727" lon="5.01053">
        <ele>422.5</ele>
        <time>2020-09-08T09:28:38Z</time>
      </trkpt>
      <trkpt lat="44.15727" lon="5.01056">
        <ele>422.9</ele>
        <time>2020-09-08T09:28:39Z</time>
      </trkpt>
      <trkpt lat="44.15726" lon="5.01058">
        <ele>423.1</ele>
        <time>2020-09-08T09:28:40Z</time>
      </trkpt>
      <trkpt lat="44.15726" lon="5.01059">
        <ele>423.2</ele>
        <time>2020-09-08T09:28:41Z</time>
      </trkpt>
      <trkpt lat="44.15726" lon="5.01062">
        <ele>423.7</ele>
        <time>2020-09-08T09:28:42Z</time>
      </trkpt>
      <trkpt lat="44.15726" lon="5.01064">
        <ele>423.8</ele>
        <time>2020-09-08T09:28:43Z</time>
      </trkpt>
      <trkpt lat="44.15726" lon="5.01067">
        <ele>424.2</ele>
        <time>2020-09-08T09:28:44Z</time>
      </trkpt>
      <trkpt lat="44.15726" lon="5.01068">
        <ele>424.3</ele>
        <time>2020-09-08T09:28:45Z</time>
      </trkpt>
      <trkpt lat="44.15726" lon="5.01069">
        <ele>424.4</ele>
        <time>2020-09-08T09:28:46Z</time>
      </trkpt>
      <trkpt lat="44.15726" lon="5.01071">
        <ele>424.6</ele>
        <time>2020-09-08T09:28:47Z</time>
      </trkpt>
      <trkpt lat="44.15726" lon="5.01072">
        <ele>424.7</ele>
        <time>2020-09-08T09:28:48Z</time>
      </trkpt>
      <trkpt lat="44.15725" lon="5.01073">
        <ele>424.9</ele>
        <time>2020-09-08T09:28:49Z</time>
      </trkpt>
      <trkpt lat="44.15725" lon="5.01075">
        <ele>425</ele>
        <time>2020-09-08T09:28:50Z</time>
      </trkpt>
      <trkpt lat="44.15725" lon="5.01077">
        <ele>425.3</ele>
        <time>2020-09-08T09:28:51Z</time>
      </trkpt>
      <trkpt lat="44.15725" lon="5.01078">
        <ele>425.4</ele>
        <time>2020-09-08T09:28:52Z</time>
      </trkpt>
      <trkpt lat="44.15724" lon="5.0108">
        <ele>425.6</ele>
        <time>2020-09-08T09:28:53Z</time>
      </trkpt>
      <trkpt lat="44.15724" lon="5.01081">
        <ele>425.7</ele>
        <time>2020-09-08T09:28:54Z</time>
      </trkpt>
      <trkpt lat="44.15723" lon="5.01082">
        <ele>425.8</ele>
        <time>2020-09-08T09:28:55Z</time>
      </trkpt>
      <trkpt lat="44.15723" lon="5.01083">
        <ele>425.9</ele>
        <time>2020-09-08T09:28:56Z</time>
      </trkpt>
      <trkpt lat="44.15723" lon="5.01084">
        <ele>426</ele>
        <time>2020-09-08T09:28:57Z</time>
      </trkpt>
      <trkpt lat="44.15722" lon="5.01085">
        <ele>426.2</ele>
        <time>2020-09-08T09:28:58Z</time>
      </trkpt>
      <trkpt lat="44.15721" lon="5.01087">
        <ele>426.4</ele>
        <time>2020-09-08T09:28:59Z</time>
      </trkpt>
      <trkpt lat="44.15721" lon="5.01088">
        <ele>426.5</ele>
        <time>2020-09-08T09:29:00Z</time>
      </trkpt>
      <trkpt lat="44.15721" lon="5.01089">
        <ele>426.6</ele>
        <time>2020-09-08T09:29:01Z</time>
      </trkpt>
      <trkpt lat="44.1572" lon="5.01092">
        <ele>426.9</ele>
        <time>2020-09-08T09:29:02Z</time>
      </trkpt>
      <trkpt lat="44.1572" lon="5.01094">
        <ele>427</ele>
        <time>2020-09-08T09:29:03Z</time>
      </trkpt>
      <trkpt lat="44.1572" lon="5.01095">
        <ele>427.1</ele>
        <time>2020-09-08T09:29:04Z</time>
      </trkpt>
      <trkpt lat="44.1572" lon="5.01096">
        <ele>427.3</ele>
        <time>2020-09-08T09:29:05Z</time>
      </trkpt>
      <trkpt lat="44.15719" lon="5.01098">
        <ele>427.4</ele>
        <time>2020-09-08T09:29:06Z</time>
      </trkpt>
      <trkpt lat="44.15719" lon="5.01099">
        <ele>427.5</ele>
        <time>2020-09-08T09:29:07Z</time>
      </trkpt>
      <trkpt lat="44.1572" lon="5.011">
        <ele>427.7</ele>
        <time>2020-09-08T09:29:08Z</time>
      </trkpt>
      <trkpt lat="44.1572" lon="5.01102">
        <ele>427.8</ele>
        <time>2020-09-08T09:29:09Z</time>
      </trkpt>
      <trkpt lat="44.1572" lon="5.01104">
        <ele>428.1</ele>
        <time>2020-09-08T09:29:10Z</time>
      </trkpt>
      <trkpt lat="44.1572" lon="5.01106">
        <ele>428.2</ele>
        <time>2020-09-08T09:29:11Z</time>
      </trkpt>
      <trkpt lat="44.1572" lon="5.01107">
        <ele>428.3</ele>
        <time>2020-09-08T09:29:12Z</time>
      </trkpt>
      <trkpt lat="44.15719" lon="5.01109">
        <ele>428.5</ele>
        <time>2020-09-08T09:29:13Z</time>
      </trkpt>
      <trkpt lat="44.15719" lon="5.01111">
        <ele>428.6</ele>
        <time>2020-09-08T09:29:14Z</time>
      </trkpt>
      <trkpt lat="44.15719" lon="5.01112">
        <ele>428.7</ele>
        <time>2020-09-08T09:29:15Z</time>
      </trkpt>
      <trkpt lat="44.1572" lon="5.01111">
        <ele>428.8</ele>
        <time>2020-09-08T09:29:16Z</time>
      </trkpt>
      <trkpt lat="44.1572" lon="5.01111">
        <ele>428.8</ele>
        <time>2020-09-08T09:29:17Z</time>
      </trkpt>
      <trkpt lat="44.1572" lon="5.01111">
        <ele>428.9</ele>
        <time>2020-09-08T09:29:18Z</time>
      </trkpt>
      <trkpt lat="44.15721" lon="5.01111">
        <ele>428.9</ele>
        <time>2020-09-08T09:29:19Z</time>
      </trkpt>
      <trkpt lat="44.15721" lon="5.01111">
        <ele>428.9</ele>
        <time>2020-09-08T09:29:20Z</time>
      </trkpt>
      <trkpt lat="44.15721" lon="5.01111">
        <ele>428.9</ele>
        <time>2020-09-08T09:29:21Z</time>
      </trkpt>
      <trkpt lat="44.15721" lon="5.01111">
        <ele>429</ele>
        <time>2020-09-08T09:29:22Z</time>
      </trkpt>
      <trkpt lat="44.15721" lon="5.0111">
        <ele>429</ele>
        <time>2020-09-08T09:29:23Z</time>
      </trkpt>
      <trkpt lat="44.15721" lon="5.0111">
        <ele>429</ele>
        <time>2020-09-08T09:29:24Z</time>
      </trkpt>
      <trkpt lat="44.15722" lon="5.0111">
        <ele>429</ele>
        <time>2020-09-08T09:29:25Z</time>
      </trkpt>
      <trkpt lat="44.15722" lon="5.0111">
        <ele>429.1</ele>
        <time>2020-09-08T09:29:26Z</time>
      </trkpt>
      <trkpt lat="44.15722" lon="5.0111">
        <ele>429.1</ele>
        <time>2020-09-08T09:29:27Z</time>
      </trkpt>
      <trkpt lat="44.15722" lon="5.0111">
        <ele>429.1</ele>
        <time>2020-09-08T09:29:28Z</time>
      </trkpt>
      <trkpt lat="44.15722" lon="5.0111">
        <ele>429.1</ele>
        <time>2020-09-08T09:29:29Z</time>
      </trkpt>
      <trkpt lat="44.15722" lon="5.01109">
        <ele>429.2</ele>
        <time>2020-09-08T09:29:30Z</time>
      </trkpt>
      <trkpt lat="44.15723" lon="5.01109">
        <ele>429.2</ele>
        <time>2020-09-08T09:29:31Z</time>
      </trkpt>
      <trkpt lat="44.15723" lon="5.01109">
        <ele>429.2</ele>
        <time>2020-09-08T09:29:32Z</time>
      </trkpt>
      <trkpt lat="44.15719" lon="5.01109">
        <ele>429.7</ele>
        <time>2020-09-08T09:29:33Z</time>
      </trkpt>
      <trkpt lat="44.15719" lon="5.01108">
        <ele>429.7</ele>
        <time>2020-09-08T09:29:34Z</time>
      </trkpt>
      <trkpt lat="44.15718" lon="5.01109">
        <ele>429.8</ele>
        <time>2020-09-08T09:29:35Z</time>
      </trkpt>
      <trkpt lat="44.15719" lon="5.0111">
        <ele>429.9</ele>
        <time>2020-09-08T09:29:36Z</time>
      </trkpt>
      <trkpt lat="44.1572" lon="5.01113">
        <ele>430.2</ele>
        <time>2020-09-08T09:29:37Z</time>
      </trkpt>
      <trkpt lat="44.15721" lon="5.01117">
        <ele>430.4</ele>
        <time>2020-09-08T09:29:38Z</time>
      </trkpt>
      <trkpt lat="44.15721" lon="5.01117">
        <ele>430.5</ele>
        <time>2020-09-08T09:29:39Z</time>
      </trkpt>
      <trkpt lat="44.15721" lon="5.01118">
        <ele>430.5</ele>
        <time>2020-09-08T09:29:40Z</time>
      </trkpt>
      <trkpt lat="44.15721" lon="5.01119">
        <ele>430.6</ele>
        <time>2020-09-08T09:29:41Z</time>
      </trkpt>
      <trkpt lat="44.15722" lon="5.01121">
        <ele>431.2</ele>
        <time>2020-09-08T09:29:42Z</time>
      </trkpt>
      <trkpt lat="44.15722" lon="5.01123">
        <ele>431.2</ele>
        <time>2020-09-08T09:29:43Z</time>
      </trkpt>
      <trkpt lat="44.15722" lon="5.01124">
        <ele>431.3</ele>
        <time>2020-09-08T09:29:44Z</time>
      </trkpt>
      <trkpt lat="44.15723" lon="5.01125">
        <ele>431.3</ele>
        <time>2020-09-08T09:29:45Z</time>
      </trkpt>
      <trkpt lat="44.15723" lon="5.01126">
        <ele>431.3</ele>
        <time>2020-09-08T09:29:46Z</time>
      </trkpt>
      <trkpt lat="44.15723" lon="5.01126">
        <ele>431.3</ele>
        <time>2020-09-08T09:29:47Z</time>
      </trkpt>
      <trkpt lat="44.15723" lon="5.01126">
        <ele>431.3</ele>
        <time>2020-09-08T09:29:48Z</time>
      </trkpt>
      <trkpt lat="44.15724" lon="5.01128">
        <ele>431.4</ele>
        <time>2020-09-08T09:29:49Z</time>
      </trkpt>
      <trkpt lat="44.15725" lon="5.01129">
        <ele>431.4</ele>
        <time>2020-09-08T09:29:50Z</time>
      </trkpt>
      <trkpt lat="44.15725" lon="5.01129">
        <ele>431.4</ele>
        <time>2020-09-08T09:29:51Z</time>
      </trkpt>
      <trkpt lat="44.15726" lon="5.01125">
        <ele>431.5</ele>
        <time>2020-09-08T09:29:52Z</time>
      </trkpt>
      <trkpt lat="44.15727" lon="5.01124">
        <ele>431.5</ele>
        <time>2020-09-08T09:29:53Z</time>
      </trkpt>
      <trkpt lat="44.15729" lon="5.01121">
        <ele>431.6</ele>
        <time>2020-09-08T09:29:54Z</time>
      </trkpt>
      <trkpt lat="44.15728" lon="5.01119">
        <ele>431.7</ele>
        <time>2020-09-08T09:29:55Z</time>
      </trkpt>
      <trkpt lat="44.15728" lon="5.0112">
        <ele>431.7</ele>
        <time>2020-09-08T09:29:56Z</time>
      </trkpt>
      <trkpt lat="44.15728" lon="5.0112">
        <ele>431.7</ele>
        <time>2020-09-08T09:29:58Z</time>
      </trkpt>
      <trkpt lat="44.15727" lon="5.0112">
        <ele>431.7</ele>
        <time>2020-09-08T09:29:59Z</time>
      </trkpt>
      <trkpt lat="44.15727" lon="5.0112">
        <ele>431.7</ele>
        <time>2020-09-08T09:30:00Z</time>
      </trkpt>
      <trkpt lat="44.15727" lon="5.0112">
        <ele>431.7</ele>
        <time>2020-09-08T09:30:01Z</time>
      </trkpt>
      <trkpt lat="44.15728" lon="5.0112">
        <ele>431.7</ele>
        <time>2020-09-08T09:30:02Z</time>
      </trkpt>
      <trkpt lat="44.15729" lon="5.01119">
        <ele>431.8</ele>
        <time>2020-09-08T09:30:03Z</time>
      </trkpt>
      <trkpt lat="44.15728" lon="5.01119">
        <ele>431.8</ele>
        <time>2020-09-08T09:30:04Z</time>
      </trkpt>
      <trkpt lat="44.15727" lon="5.01119">
        <ele>431.8</ele>
        <time>2020-09-08T09:30:05Z</time>
      </trkpt>
      <trkpt lat="44.15727" lon="5.01119">
        <ele>431.8</ele>
        <time>2020-09-08T09:30:06Z</time>
      </trkpt>
      <trkpt lat="44.15727" lon="5.01118">
        <ele>431.8</ele>
        <time>2020-09-08T09:30:07Z</time>
      </trkpt>
      <trkpt lat="44.15727" lon="5.01118">
        <ele>431.9</ele>
        <time>2020-09-08T09:30:08Z</time>
      </trkpt>
      <trkpt lat="44.15726" lon="5.01119">
        <ele>431.9</ele>
        <time>2020-09-08T09:30:09Z</time>
      </trkpt>
      <trkpt lat="44.15727" lon="5.01117">
        <ele>431.9</ele>
        <time>2020-09-08T09:30:10Z</time>
      </trkpt>
      <trkpt lat="44.15727" lon="5.01118">
        <ele>431.9</ele>
        <time>2020-09-08T09:30:11Z</time>
      </trkpt>
      <trkpt lat="44.15726" lon="5.01118">
        <ele>431.9</ele>
        <time>2020-09-08T09:30:12Z</time>
      </trkpt>
      <trkpt lat="44.15725" lon="5.01118">
        <ele>432</ele>
        <time>2020-09-08T09:30:13Z</time>
      </trkpt>
      <trkpt lat="44.15725" lon="5.01118">
        <ele>432</ele>
        <time>2020-09-08T09:30:14Z</time>
      </trkpt>
      <trkpt lat="44.15725" lon="5.01118">
        <ele>432</ele>
        <time>2020-09-08T09:30:15Z</time>
      </trkpt>
      <trkpt lat="44.15725" lon="5.01119">
        <ele>432</ele>
        <time>2020-09-08T09:30:16Z</time>
      </trkpt>
      <trkpt lat="44.15725" lon="5.01119">
        <ele>432</ele>
        <time>2020-09-08T09:30:17Z</time>
      </trkpt>
      <trkpt lat="44.15725" lon="5.01119">
        <ele>432</ele>
        <time>2020-09-08T09:30:18Z</time>
      </trkpt>
      <trkpt lat="44.15724" lon="5.01119">
        <ele>432</ele>
        <time>2020-09-08T09:30:19Z</time>
      </trkpt>
      <trkpt lat="44.15724" lon="5.01119">
        <ele>432.1</ele>
        <time>2020-09-08T09:30:20Z</time>
      </trkpt>
      <trkpt lat="44.15724" lon="5.0112">
        <ele>432.1</ele>
        <time>2020-09-08T09:30:21Z</time>
      </trkpt>
      <trkpt lat="44.15724" lon="5.0112">
        <ele>432.1</ele>
        <time>2020-09-08T09:30:22Z</time>
      </trkpt>
      <trkpt lat="44.15724" lon="5.0112">
        <ele>432.1</ele>
        <time>2020-09-08T09:30:23Z</time>
      </trkpt>
      <trkpt lat="44.15724" lon="5.0112">
        <ele>432.1</ele>
        <time>2020-09-08T09:30:24Z</time>
      </trkpt>
      <trkpt lat="44.15724" lon="5.0112">
        <ele>432.1</ele>
        <time>2020-09-08T09:30:25Z</time>
      </trkpt>
      <trkpt lat="44.15724" lon="5.0112">
        <ele>432.1</ele>
        <time>2020-09-08T09:30:26Z</time>
      </trkpt>
      <trkpt lat="44.15725" lon="5.0112">
        <ele>432.1</ele>
        <time>2020-09-08T09:30:27Z</time>
      </trkpt>
      <trkpt lat="44.15725" lon="5.0112">
        <ele>432.1</ele>
        <time>2020-09-08T09:30:28Z</time>
      </trkpt>
      <trkpt lat="44.15725" lon="5.0112">
        <ele>432.1</ele>
        <time>2020-09-08T09:30:29Z</time>
      </trkpt>
      <trkpt lat="44.15725" lon="5.0112">
        <ele>432.1</ele>
        <time>2020-09-08T09:30:30Z</time>
      </trkpt>
      <trkpt lat="44.15725" lon="5.0112">
        <ele>432.1</ele>
        <time>2020-09-08T09:30:31Z</time>
      </trkpt>
      <trkpt lat="44.15725" lon="5.0112">
        <ele>432.1</ele>
        <time>2020-09-08T09:30:32Z</time>
      </trkpt>
      <trkpt lat="44.15725" lon="5.0112">
        <ele>432.1</ele>
        <time>2020-09-08T09:30:33Z</time>
      </trkpt>
      <trkpt lat="44.15725" lon="5.0112">
        <ele>432.1</ele>
        <time>2020-09-08T09:30:34Z</time>
      </trkpt>
      <trkpt lat="44.15725" lon="5.0112">
        <ele>432.1</ele>
        <time>2020-09-08T09:30:35Z</time>
      </trkpt>
      <trkpt lat="44.15725" lon="5.0112">
        <ele>432.1</ele>
        <time>2020-09-08T09:30:36Z</time>
      </trkpt>
      <trkpt lat="44.15726" lon="5.0112">
        <ele>432.1</ele>
        <time>2020-09-08T09:30:37Z</time>
      </trkpt>
      <trkpt lat="44.15726" lon="5.01121">
        <ele>432.1</ele>
        <time>2020-09-08T09:30:38Z</time>
      </trkpt>
      <trkpt lat="44.15726" lon="5.01121">
        <ele>432.2</ele>
        <time>2020-09-08T09:30:39Z</time>
      </trkpt>
      <trkpt lat="44.15726" lon="5.01121">
        <ele>432.2</ele>
        <time>2020-09-08T09:30:40Z</time>
      </trkpt>
      <trkpt lat="44.15726" lon="5.01121">
        <ele>432.2</ele>
        <time>2020-09-08T09:30:41Z</time>
      </trkpt>
      <trkpt lat="44.15726" lon="5.01121">
        <ele>432.2</ele>
        <time>2020-09-08T09:30:42Z</time>
      </trkpt>
      <trkpt lat="44.15726" lon="5.01121">
        <ele>432.2</ele>
        <time>2020-09-08T09:30:43Z</time>
      </trkpt>
      <trkpt lat="44.15726" lon="5.01121">
        <ele>432.2</ele>
        <time>2020-09-08T09:30:44Z</time>
      </trkpt>
      <trkpt lat="44.15726" lon="5.01121">
        <ele>432.2</ele>
        <time>2020-09-08T09:30:45Z</time>
      </trkpt>
      <trkpt lat="44.15726" lon="5.01121">
        <ele>432.2</ele>
        <time>2020-09-08T09:30:46Z</time>
      </trkpt>
      <trkpt lat="44.15727" lon="5.01121">
        <ele>432.2</ele>
        <time>2020-09-08T09:30:47Z</time>
      </trkpt>
      <trkpt lat="44.15727" lon="5.01121">
        <ele>432.2</ele>
        <time>2020-09-08T09:30:48Z</time>
      </trkpt>
      <trkpt lat="44.15727" lon="5.01121">
        <ele>432.2</ele>
        <time>2020-09-08T09:30:49Z</time>
      </trkpt>
      <trkpt lat="44.15727" lon="5.01121">
        <ele>432.2</ele>
        <time>2020-09-08T09:30:50Z</time>
      </trkpt>
      <trkpt lat="44.15727" lon="5.01121">
        <ele>432.2</ele>
        <time>2020-09-08T09:30:51Z</time>
      </trkpt>
      <trkpt lat="44.15727" lon="5.01121">
        <ele>432.2</ele>
        <time>2020-09-08T09:30:52Z</time>
      </trkpt>
      <trkpt lat="44.15727" lon="5.01121">
        <ele>432.2</ele>
        <time>2020-09-08T09:30:53Z</time>
      </trkpt>
      <trkpt lat="44.15727" lon="5.01121">
        <ele>432.2</ele>
        <time>2020-09-08T09:30:54Z</time>
      </trkpt>
      <trkpt lat="44.15727" lon="5.01122">
        <ele>432.2</ele>
        <time>2020-09-08T09:30:55Z</time>
      </trkpt>
      <trkpt lat="44.15728" lon="5.01122">
        <ele>432.2</ele>
        <time>2020-09-08T09:30:56Z</time>
      </trkpt>
      <trkpt lat="44.15728" lon="5.01122">
        <ele>432.2</ele>
        <time>2020-09-08T09:30:57Z</time>
      </trkpt>
      <trkpt lat="44.15728" lon="5.01122">
        <ele>432.2</ele>
        <time>2020-09-08T09:30:58Z</time>
      </trkpt>
      <trkpt lat="44.15728" lon="5.01122">
        <ele>432.2</ele>
        <time>2020-09-08T09:30:59Z</time>
      </trkpt>
      <trkpt lat="44.15728" lon="5.01122">
        <ele>432.3</ele>
        <time>2020-09-08T09:31:00Z</time>
      </trkpt>
      <trkpt lat="44.15728" lon="5.01122">
        <ele>432.3</ele>
        <time>2020-09-08T09:31:01Z</time>
      </trkpt>
      <trkpt lat="44.15728" lon="5.01122">
        <ele>432.3</ele>
        <time>2020-09-08T09:31:02Z</time>
      </trkpt>
      <trkpt lat="44.15728" lon="5.01122">
        <ele>432.3</ele>
        <time>2020-09-08T09:31:03Z</time>
      </trkpt>
      <trkpt lat="44.15728" lon="5.01122">
        <ele>432.3</ele>
        <time>2020-09-08T09:31:04Z</time>
      </trkpt>
      <trkpt lat="44.15728" lon="5.01122">
        <ele>432.3</ele>
        <time>2020-09-08T09:31:05Z</time>
      </trkpt>
      <trkpt lat="44.15729" lon="5.01122">
        <ele>432.3</ele>
        <time>2020-09-08T09:31:06Z</time>
      </trkpt>
      <trkpt lat="44.15729" lon="5.01122">
        <ele>432.3</ele>
        <time>2020-09-08T09:31:07Z</time>
      </trkpt>
      <trkpt lat="44.15729" lon="5.01122">
        <ele>432.3</ele>
        <time>2020-09-08T09:31:08Z</time>
      </trkpt>
      <trkpt lat="44.15729" lon="5.01122">
        <ele>432.3</ele>
        <time>2020-09-08T09:31:09Z</time>
      </trkpt>
      <trkpt lat="44.15729" lon="5.01122">
        <ele>432.3</ele>
        <time>2020-09-08T09:31:10Z</time>
      </trkpt>
      <trkpt lat="44.15729" lon="5.01122">
        <ele>432.3</ele>
        <time>2020-09-08T09:31:11Z</time>
      </trkpt>
      <trkpt lat="44.15729" lon="5.01123">
        <ele>432.3</ele>
        <time>2020-09-08T09:31:12Z</time>
      </trkpt>
      <trkpt lat="44.15729" lon="5.01123">
        <ele>432.3</ele>
        <time>2020-09-08T09:31:13Z</time>
      </trkpt>
      <trkpt lat="44.15729" lon="5.01123">
        <ele>432.3</ele>
        <time>2020-09-08T09:31:14Z</time>
      </trkpt>
      <trkpt lat="44.15729" lon="5.01123">
        <ele>432.3</ele>
        <time>2020-09-08T09:31:15Z</time>
      </trkpt>
      <trkpt lat="44.1573" lon="5.01123">
        <ele>432.3</ele>
        <time>2020-09-08T09:31:16Z</time>
      </trkpt>
      <trkpt lat="44.1573" lon="5.01123">
        <ele>432.3</ele>
        <time>2020-09-08T09:31:17Z</time>
      </trkpt>
      <trkpt lat="44.1573" lon="5.01123">
        <ele>432.3</ele>
        <time>2020-09-08T09:31:18Z</time>
      </trkpt>
      <trkpt lat="44.1573" lon="5.01123">
        <ele>432.3</ele>
        <time>2020-09-08T09:31:19Z</time>
      </trkpt>
      <trkpt lat="44.1573" lon="5.01123">
        <ele>432.4</ele>
        <time>2020-09-08T09:31:20Z</time>
      </trkpt>
      <trkpt lat="44.1573" lon="5.01123">
        <ele>432.4</ele>
        <time>2020-09-08T09:31:21Z</time>
      </trkpt>
      <trkpt lat="44.1573" lon="5.01123">
        <ele>432.4</ele>
        <time>2020-09-08T09:31:22Z</time>
      </trkpt>
      <trkpt lat="44.1573" lon="5.01123">
        <ele>432.4</ele>
        <time>2020-09-08T09:31:23Z</time>
      </trkpt>
      <trkpt lat="44.1573" lon="5.01123">
        <ele>432.4</ele>
        <time>2020-09-08T09:31:24Z</time>
      </trkpt>
      <trkpt lat="44.1573" lon="5.01123">
        <ele>432.4</ele>
        <time>2020-09-08T09:31:25Z</time>
      </trkpt>
      <trkpt lat="44.15731" lon="5.01123">
        <ele>432.4</ele>
        <time>2020-09-08T09:31:26Z</time>
      </trkpt>
      <trkpt lat="44.15731" lon="5.01123">
        <ele>432.4</ele>
        <time>2020-09-08T09:31:27Z</time>
      </trkpt>
      <trkpt lat="44.15731" lon="5.01123">
        <ele>432.4</ele>
        <time>2020-09-08T09:31:28Z</time>
      </trkpt>
      <trkpt lat="44.15731" lon="5.01124">
        <ele>432.4</ele>
        <time>2020-09-08T09:31:29Z</time>
      </trkpt>
      <trkpt lat="44.15731" lon="5.01124">
        <ele>432.4</ele>
        <time>2020-09-08T09:31:30Z</time>
      </trkpt>
      <trkpt lat="44.15731" lon="5.01124">
        <ele>432.4</ele>
        <time>2020-09-08T09:31:31Z</time>
      </trkpt>
      <trkpt lat="44.15731" lon="5.01124">
        <ele>432.4</ele>
        <time>2020-09-08T09:31:32Z</time>
      </trkpt>
      <trkpt lat="44.15731" lon="5.01124">
        <ele>432.4</ele>
        <time>2020-09-08T09:31:33Z</time>
      </trkpt>
      <trkpt lat="44.15731" lon="5.01124">
        <ele>432.4</ele>
        <time>2020-09-08T09:31:34Z</time>
      </trkpt>
      <trkpt lat="44.15731" lon="5.01124">
        <ele>432.4</ele>
        <time>2020-09-08T09:31:35Z</time>
      </trkpt>
      <trkpt lat="44.15732" lon="5.01124">
        <ele>432.4</ele>
        <time>2020-09-08T09:31:36Z</time>
      </trkpt>
      <trkpt lat="44.15732" lon="5.01124">
        <ele>432.4</ele>
        <time>2020-09-08T09:31:37Z</time>
      </trkpt>
      <trkpt lat="44.15732" lon="5.01124">
        <ele>432.4</ele>
        <time>2020-09-08T09:31:38Z</time>
      </trkpt>
      <trkpt lat="44.15732" lon="5.01124">
        <ele>432.4</ele>
        <time>2020-09-08T09:31:39Z</time>
      </trkpt>
      <trkpt lat="44.15732" lon="5.01124">
        <ele>432.4</ele>
        <time>2020-09-08T09:31:40Z</time>
      </trkpt>
      <trkpt lat="44.15732" lon="5.01124">
        <ele>432.5</ele>
        <time>2020-09-08T09:31:41Z</time>
      </trkpt>
      <trkpt lat="44.15732" lon="5.01124">
        <ele>432.5</ele>
        <time>2020-09-08T09:31:42Z</time>
      </trkpt>
      <trkpt lat="44.15732" lon="5.01124">
        <ele>432.5</ele>
        <time>2020-09-08T09:31:43Z</time>
      </trkpt>
      <trkpt lat="44.15732" lon="5.01124">
        <ele>432.5</ele>
        <time>2020-09-08T09:31:44Z</time>
      </trkpt>
      <trkpt lat="44.15732" lon="5.01124">
        <ele>432.5</ele>
        <time>2020-09-08T09:31:45Z</time>
      </trkpt>
      <trkpt lat="44.15733" lon="5.01125">
        <ele>432.5</ele>
        <time>2020-09-08T09:31:46Z</time>
      </trkpt>
      <trkpt lat="44.15733" lon="5.01125">
        <ele>432.5</ele>
        <time>2020-09-08T09:31:47Z</time>
      </trkpt>
      <trkpt lat="44.15733" lon="5.01125">
        <ele>432.5</ele>
        <time>2020-09-08T09:31:48Z</time>
      </trkpt>
      <trkpt lat="44.15733" lon="5.01125">
        <ele>432.5</ele>
        <time>2020-09-08T09:31:49Z</time>
      </trkpt>
      <trkpt lat="44.15733" lon="5.01125">
        <ele>432.5</ele>
        <time>2020-09-08T09:31:50Z</time>
      </trkpt>
      <trkpt lat="44.15733" lon="5.01125">
        <ele>432.5</ele>
        <time>2020-09-08T09:31:51Z</time>
      </trkpt>
      <trkpt lat="44.15733" lon="5.01125">
        <ele>432.5</ele>
        <time>2020-09-08T09:31:52Z</time>
      </trkpt>
      <trkpt lat="44.15733" lon="5.01125">
        <ele>432.5</ele>
        <time>2020-09-08T09:31:53Z</time>
      </trkpt>
      <trkpt lat="44.15733" lon="5.01125">
        <ele>432.5</ele>
        <time>2020-09-08T09:31:54Z</time>
      </trkpt>
      <trkpt lat="44.15734" lon="5.01125">
        <ele>432.5</ele>
        <time>2020-09-08T09:31:55Z</time>
      </trkpt>
      <trkpt lat="44.15734" lon="5.01125">
        <ele>432.5</ele>
        <time>2020-09-08T09:31:56Z</time>
      </trkpt>
      <trkpt lat="44.15734" lon="5.01125">
        <ele>432.5</ele>
        <time>2020-09-08T09:31:57Z</time>
      </trkpt>
      <trkpt lat="44.15734" lon="5.01125">
        <ele>432.5</ele>
        <time>2020-09-08T09:31:58Z</time>
      </trkpt>
      <trkpt lat="44.15734" lon="5.01125">
        <ele>432.5</ele>
        <time>2020-09-08T09:31:59Z</time>
      </trkpt>
      <trkpt lat="44.15734" lon="5.01125">
        <ele>432.6</ele>
        <time>2020-09-08T09:32:00Z</time>
      </trkpt>
      <trkpt lat="44.15734" lon="5.01125">
        <ele>432.6</ele>
        <time>2020-09-08T09:32:01Z</time>
      </trkpt>
      <trkpt lat="44.15734" lon="5.01126">
        <ele>432.6</ele>
        <time>2020-09-08T09:32:02Z</time>
      </trkpt>
      <trkpt lat="44.15734" lon="5.01126">
        <ele>432.6</ele>
        <time>2020-09-08T09:32:04Z</time>
      </trkpt>
      <trkpt lat="44.15734" lon="5.01126">
        <ele>432.6</ele>
        <time>2020-09-08T09:32:05Z</time>
      </trkpt>
      <trkpt lat="44.15735" lon="5.01126">
        <ele>432.6</ele>
        <time>2020-09-08T09:32:06Z</time>
      </trkpt>
      <trkpt lat="44.15735" lon="5.01126">
        <ele>432.6</ele>
        <time>2020-09-08T09:32:07Z</time>
      </trkpt>
      <trkpt lat="44.15735" lon="5.01126">
        <ele>432.6</ele>
        <time>2020-09-08T09:32:08Z</time>
      </trkpt>
      <trkpt lat="44.15735" lon="5.01126">
        <ele>432.6</ele>
        <time>2020-09-08T09:32:09Z</time>
      </trkpt>
      <trkpt lat="44.15735" lon="5.01126">
        <ele>432.6</ele>
        <time>2020-09-08T09:32:10Z</time>
      </trkpt>
      <trkpt lat="44.15735" lon="5.01126">
        <ele>432.6</ele>
        <time>2020-09-08T09:32:11Z</time>
      </trkpt>
      <trkpt lat="44.15735" lon="5.01126">
        <ele>432.6</ele>
        <time>2020-09-08T09:32:12Z</time>
      </trkpt>
      <trkpt lat="44.15735" lon="5.01126">
        <ele>432.6</ele>
        <time>2020-09-08T09:32:13Z</time>
      </trkpt>
      <trkpt lat="44.15735" lon="5.01126">
        <ele>432.6</ele>
        <time>2020-09-08T09:32:14Z</time>
      </trkpt>
      <trkpt lat="44.15735" lon="5.01126">
        <ele>432.6</ele>
        <time>2020-09-08T09:32:15Z</time>
      </trkpt>
      <trkpt lat="44.15736" lon="5.01126">
        <ele>432.6</ele>
        <time>2020-09-08T09:32:16Z</time>
      </trkpt>
      <trkpt lat="44.15736" lon="5.01126">
        <ele>432.6</ele>
        <time>2020-09-08T09:32:17Z</time>
      </trkpt>
      <trkpt lat="44.15736" lon="5.01126">
        <ele>432.6</ele>
        <time>2020-09-08T09:32:18Z</time>
      </trkpt>
      <trkpt lat="44.15736" lon="5.01126">
        <ele>432.6</ele>
        <time>2020-09-08T09:32:19Z</time>
      </trkpt>
      <trkpt lat="44.15736" lon="5.01127">
        <ele>432.6</ele>
        <time>2020-09-08T09:32:20Z</time>
      </trkpt>
      <trkpt lat="44.15736" lon="5.01127">
        <ele>432.7</ele>
        <time>2020-09-08T09:32:21Z</time>
      </trkpt>
      <trkpt lat="44.15736" lon="5.01127">
        <ele>432.7</ele>
        <time>2020-09-08T09:32:22Z</time>
      </trkpt>
      <trkpt lat="44.15736" lon="5.01127">
        <ele>432.7</ele>
        <time>2020-09-08T09:32:23Z</time>
      </trkpt>
      <trkpt lat="44.15736" lon="5.01127">
        <ele>432.7</ele>
        <time>2020-09-08T09:32:24Z</time>
      </trkpt>
      <trkpt lat="44.15737" lon="5.01127">
        <ele>432.7</ele>
        <time>2020-09-08T09:32:25Z</time>
      </trkpt>
      <trkpt lat="44.15738" lon="5.01128">
        <ele>432.8</ele>
        <time>2020-09-08T09:32:26Z</time>
      </trkpt>
      <trkpt lat="44.15739" lon="5.01128">
        <ele>432.8</ele>
        <time>2020-09-08T09:32:27Z</time>
      </trkpt>
      <trkpt lat="44.15739" lon="5.01128">
        <ele>432.8</ele>
        <time>2020-09-08T09:32:28Z</time>
      </trkpt>
      <trkpt lat="44.1574" lon="5.01128">
        <ele>432.9</ele>
        <time>2020-09-08T09:32:29Z</time>
      </trkpt>
      <trkpt lat="44.15742" lon="5.01128">
        <ele>433</ele>
        <time>2020-09-08T09:32:30Z</time>
      </trkpt>
      <trkpt lat="44.15743" lon="5.01128">
        <ele>433</ele>
        <time>2020-09-08T09:32:31Z</time>
      </trkpt>
      <trkpt lat="44.15745" lon="5.01128">
        <ele>433.1</ele>
        <time>2020-09-08T09:32:32Z</time>
      </trkpt>
      <trkpt lat="44.15746" lon="5.01128">
        <ele>433.2</ele>
        <time>2020-09-08T09:32:33Z</time>
      </trkpt>
      <trkpt lat="44.15747" lon="5.01128">
        <ele>433.2</ele>
        <time>2020-09-08T09:32:34Z</time>
      </trkpt>
      <trkpt lat="44.15748" lon="5.01128">
        <ele>433.3</ele>
        <time>2020-09-08T09:32:35Z</time>
      </trkpt>
      <trkpt lat="44.15748" lon="5.01127">
        <ele>433.3</ele>
        <time>2020-09-08T09:32:36Z</time>
      </trkpt>
      <trkpt lat="44.15749" lon="5.01128">
        <ele>433.3</ele>
        <time>2020-09-08T09:32:37Z</time>
      </trkpt>
      <trkpt lat="44.1575" lon="5.01127">
        <ele>433.4</ele>
        <time>2020-09-08T09:32:38Z</time>
      </trkpt>
      <trkpt lat="44.15751" lon="5.01126">
        <ele>433.5</ele>
        <time>2020-09-08T09:32:39Z</time>
      </trkpt>
      <trkpt lat="44.15752" lon="5.01126">
        <ele>433.6</ele>
        <time>2020-09-08T09:32:40Z</time>
      </trkpt>
      <trkpt lat="44.15752" lon="5.01127">
        <ele>433.6</ele>
        <time>2020-09-08T09:32:41Z</time>
      </trkpt>
      <trkpt lat="44.15753" lon="5.01127">
        <ele>433.7</ele>
        <time>2020-09-08T09:32:42Z</time>
      </trkpt>
      <trkpt lat="44.15753" lon="5.01127">
        <ele>433.7</ele>
        <time>2020-09-08T09:32:43Z</time>
      </trkpt>
      <trkpt lat="44.15754" lon="5.01127">
        <ele>433.7</ele>
        <time>2020-09-08T09:32:44Z</time>
      </trkpt>
      <trkpt lat="44.15755" lon="5.01126">
        <ele>433.8</ele>
        <time>2020-09-08T09:32:45Z</time>
      </trkpt>
      <trkpt lat="44.15756" lon="5.01126">
        <ele>433.9</ele>
        <time>2020-09-08T09:32:46Z</time>
      </trkpt>
      <trkpt lat="44.15758" lon="5.01124">
        <ele>434.1</ele>
        <time>2020-09-08T09:32:47Z</time>
      </trkpt>
      <trkpt lat="44.15759" lon="5.01123">
        <ele>434.2</ele>
        <time>2020-09-08T09:32:48Z</time>
      </trkpt>
      <trkpt lat="44.1576" lon="5.01123">
        <ele>434.2</ele>
        <time>2020-09-08T09:32:49Z</time>
      </trkpt>
      <trkpt lat="44.15761" lon="5.01122">
        <ele>434.3</ele>
        <time>2020-09-08T09:32:50Z</time>
      </trkpt>
      <trkpt lat="44.15761" lon="5.01122">
        <ele>434.3</ele>
        <time>2020-09-08T09:32:51Z</time>
      </trkpt>
      <trkpt lat="44.15762" lon="5.01122">
        <ele>434.4</ele>
        <time>2020-09-08T09:32:52Z</time>
      </trkpt>
      <trkpt lat="44.15763" lon="5.01121">
        <ele>434.4</ele>
        <time>2020-09-08T09:32:53Z</time>
      </trkpt>
      <trkpt lat="44.15763" lon="5.01121">
        <ele>434.5</ele>
        <time>2020-09-08T09:32:54Z</time>
      </trkpt>
      <trkpt lat="44.15764" lon="5.0112">
        <ele>434.6</ele>
        <time>2020-09-08T09:32:55Z</time>
      </trkpt>
      <trkpt lat="44.15765" lon="5.01119">
        <ele>434.6</ele>
        <time>2020-09-08T09:32:56Z</time>
      </trkpt>
      <trkpt lat="44.15766" lon="5.01119">
        <ele>434.7</ele>
        <time>2020-09-08T09:32:57Z</time>
      </trkpt>
      <trkpt lat="44.15767" lon="5.01118">
        <ele>434.9</ele>
        <time>2020-09-08T09:32:58Z</time>
      </trkpt>
      <trkpt lat="44.15768" lon="5.01118">
        <ele>434.9</ele>
        <time>2020-09-08T09:32:59Z</time>
      </trkpt>
      <trkpt lat="44.15768" lon="5.01119">
        <ele>435</ele>
        <time>2020-09-08T09:33:00Z</time>
      </trkpt>
      <trkpt lat="44.15769" lon="5.01119">
        <ele>435</ele>
        <time>2020-09-08T09:33:01Z</time>
      </trkpt>
      <trkpt lat="44.15769" lon="5.01119">
        <ele>435.1</ele>
        <time>2020-09-08T09:33:02Z</time>
      </trkpt>
      <trkpt lat="44.1577" lon="5.01119">
        <ele>435.1</ele>
        <time>2020-09-08T09:33:03Z</time>
      </trkpt>
      <trkpt lat="44.1577" lon="5.01119">
        <ele>435.2</ele>
        <time>2020-09-08T09:33:04Z</time>
      </trkpt>
      <trkpt lat="44.1577" lon="5.01118">
        <ele>435.2</ele>
        <time>2020-09-08T09:33:05Z</time>
      </trkpt>
      <trkpt lat="44.15771" lon="5.01116">
        <ele>435.3</ele>
        <time>2020-09-08T09:33:06Z</time>
      </trkpt>
      <trkpt lat="44.15771" lon="5.01116">
        <ele>435.3</ele>
        <time>2020-09-08T09:33:07Z</time>
      </trkpt>
      <trkpt lat="44.15771" lon="5.01116">
        <ele>435.4</ele>
        <time>2020-09-08T09:33:08Z</time>
      </trkpt>
      <trkpt lat="44.15772" lon="5.01116">
        <ele>435.4</ele>
        <time>2020-09-08T09:33:09Z</time>
      </trkpt>
      <trkpt lat="44.15772" lon="5.01117">
        <ele>435.4</ele>
        <time>2020-09-08T09:33:10Z</time>
      </trkpt>
      <trkpt lat="44.15772" lon="5.01117">
        <ele>435.5</ele>
        <time>2020-09-08T09:33:11Z</time>
      </trkpt>
      <trkpt lat="44.15772" lon="5.01118">
        <ele>435.5</ele>
        <time>2020-09-08T09:33:12Z</time>
      </trkpt>
      <trkpt lat="44.15774" lon="5.01118">
        <ele>435.7</ele>
        <time>2020-09-08T09:33:13Z</time>
      </trkpt>
      <trkpt lat="44.15774" lon="5.01118">
        <ele>435.8</ele>
        <time>2020-09-08T09:33:14Z</time>
      </trkpt>
      <trkpt lat="44.15775" lon="5.01117">
        <ele>435.9</ele>
        <time>2020-09-08T09:33:15Z</time>
      </trkpt>
      <trkpt lat="44.15776" lon="5.01119">
        <ele>436</ele>
        <time>2020-09-08T09:33:16Z</time>
      </trkpt>
      <trkpt lat="44.15777" lon="5.01119">
        <ele>436.1</ele>
        <time>2020-09-08T09:33:17Z</time>
      </trkpt>
      <trkpt lat="44.15778" lon="5.0112">
        <ele>436.1</ele>
        <time>2020-09-08T09:33:18Z</time>
      </trkpt>
      <trkpt lat="44.15779" lon="5.01119">
        <ele>436.3</ele>
        <time>2020-09-08T09:33:19Z</time>
      </trkpt>
      <trkpt lat="44.15779" lon="5.01119">
        <ele>436.3</ele>
        <time>2020-09-08T09:33:20Z</time>
      </trkpt>
      <trkpt lat="44.1578" lon="5.01118">
        <ele>436.4</ele>
        <time>2020-09-08T09:33:21Z</time>
      </trkpt>
      <trkpt lat="44.1578" lon="5.0112">
        <ele>436.5</ele>
        <time>2020-09-08T09:33:22Z</time>
      </trkpt>
      <trkpt lat="44.15781" lon="5.01119">
        <ele>436.6</ele>
        <time>2020-09-08T09:33:23Z</time>
      </trkpt>
      <trkpt lat="44.15783" lon="5.0112">
        <ele>436.8</ele>
        <time>2020-09-08T09:33:24Z</time>
      </trkpt>
      <trkpt lat="44.15784" lon="5.0112">
        <ele>436.9</ele>
        <time>2020-09-08T09:33:25Z</time>
      </trkpt>
      <trkpt lat="44.15785" lon="5.0112">
        <ele>437</ele>
        <time>2020-09-08T09:33:26Z</time>
      </trkpt>
      <trkpt lat="44.15785" lon="5.0112">
        <ele>437</ele>
        <time>2020-09-08T09:33:27Z</time>
      </trkpt>
      <trkpt lat="44.15785" lon="5.0112">
        <ele>437</ele>
        <time>2020-09-08T09:33:28Z</time>
      </trkpt>
      <trkpt lat="44.15786" lon="5.01121">
        <ele>437.1</ele>
        <time>2020-09-08T09:33:29Z</time>
      </trkpt>
      <trkpt lat="44.15787" lon="5.01122">
        <ele>437.3</ele>
        <time>2020-09-08T09:33:30Z</time>
      </trkpt>
      <trkpt lat="44.15788" lon="5.01123">
        <ele>437.4</ele>
        <time>2020-09-08T09:33:31Z</time>
      </trkpt>
      <trkpt lat="44.15789" lon="5.01125">
        <ele>437.6</ele>
        <time>2020-09-08T09:33:32Z</time>
      </trkpt>
      <trkpt lat="44.1579" lon="5.01126">
        <ele>437.7</ele>
        <time>2020-09-08T09:33:33Z</time>
      </trkpt>
      <trkpt lat="44.15791" lon="5.01126">
        <ele>437.9</ele>
        <time>2020-09-08T09:33:34Z</time>
      </trkpt>
      <trkpt lat="44.15792" lon="5.01126">
        <ele>437.9</ele>
        <time>2020-09-08T09:33:35Z</time>
      </trkpt>
      <trkpt lat="44.15792" lon="5.01126">
        <ele>438</ele>
        <time>2020-09-08T09:33:36Z</time>
      </trkpt>
      <trkpt lat="44.15794" lon="5.01125">
        <ele>438.1</ele>
        <time>2020-09-08T09:33:37Z</time>
      </trkpt>
      <trkpt lat="44.15794" lon="5.01125">
        <ele>438.2</ele>
        <time>2020-09-08T09:33:38Z</time>
      </trkpt>
      <trkpt lat="44.15795" lon="5.01125">
        <ele>438.3</ele>
        <time>2020-09-08T09:33:39Z</time>
      </trkpt>
      <trkpt lat="44.15796" lon="5.01123">
        <ele>438.5</ele>
        <time>2020-09-08T09:33:40Z</time>
      </trkpt>
      <trkpt lat="44.15797" lon="5.01123">
        <ele>438.6</ele>
        <time>2020-09-08T09:33:41Z</time>
      </trkpt>
      <trkpt lat="44.15797" lon="5.01121">
        <ele>438.8</ele>
        <time>2020-09-08T09:33:42Z</time>
      </trkpt>
      <trkpt lat="44.15797" lon="5.01119">
        <ele>439</ele>
        <time>2020-09-08T09:33:43Z</time>
      </trkpt>
      <trkpt lat="44.15797" lon="5.01118">
        <ele>439.1</ele>
        <time>2020-09-08T09:33:44Z</time>
      </trkpt>
      <trkpt lat="44.15797" lon="5.01117">
        <ele>439.2</ele>
        <time>2020-09-08T09:33:45Z</time>
      </trkpt>
      <trkpt lat="44.15797" lon="5.01117">
        <ele>439.2</ele>
        <time>2020-09-08T09:33:46Z</time>
      </trkpt>
      <trkpt lat="44.15797" lon="5.01116">
        <ele>439.3</ele>
        <time>2020-09-08T09:33:47Z</time>
      </trkpt>
      <trkpt lat="44.15797" lon="5.01115">
        <ele>439.4</ele>
        <time>2020-09-08T09:33:48Z</time>
      </trkpt>
      <trkpt lat="44.15797" lon="5.01114">
        <ele>439.5</ele>
        <time>2020-09-08T09:33:49Z</time>
      </trkpt>
      <trkpt lat="44.15798" lon="5.01113">
        <ele>439.6</ele>
        <time>2020-09-08T09:33:50Z</time>
      </trkpt>
      <trkpt lat="44.15798" lon="5.01112">
        <ele>439.6</ele>
        <time>2020-09-08T09:33:51Z</time>
      </trkpt>
      <trkpt lat="44.15799" lon="5.01112">
        <ele>439.7</ele>
        <time>2020-09-08T09:33:52Z</time>
      </trkpt>
      <trkpt lat="44.15799" lon="5.0111">
        <ele>439.9</ele>
        <time>2020-09-08T09:33:53Z</time>
      </trkpt>
      <trkpt lat="44.158" lon="5.01109">
        <ele>440.1</ele>
        <time>2020-09-08T09:33:54Z</time>
      </trkpt>
      <trkpt lat="44.158" lon="5.01107">
        <ele>440.2</ele>
        <time>2020-09-08T09:33:55Z</time>
      </trkpt>
      <trkpt lat="44.158" lon="5.01106">
        <ele>440.3</ele>
        <time>2020-09-08T09:33:56Z</time>
      </trkpt>
      <trkpt lat="44.15801" lon="5.01105">
        <ele>440.4</ele>
        <time>2020-09-08T09:33:57Z</time>
      </trkpt>
      <trkpt lat="44.15801" lon="5.01104">
        <ele>440.5</ele>
        <time>2020-09-08T09:33:58Z</time>
      </trkpt>
      <trkpt lat="44.15801" lon="5.01103">
        <ele>440.6</ele>
        <time>2020-09-08T09:33:59Z</time>
      </trkpt>
      <trkpt lat="44.15801" lon="5.01103">
        <ele>440.6</ele>
        <time>2020-09-08T09:34:00Z</time>
      </trkpt>
      <trkpt lat="44.15802" lon="5.01103">
        <ele>440.8</ele>
        <time>2020-09-08T09:34:01Z</time>
      </trkpt>
      <trkpt lat="44.15802" lon="5.01102">
        <ele>440.8</ele>
        <time>2020-09-08T09:34:02Z</time>
      </trkpt>
      <trkpt lat="44.15803" lon="5.011">
        <ele>441</ele>
        <time>2020-09-08T09:34:03Z</time>
      </trkpt>
      <trkpt lat="44.15804" lon="5.01099">
        <ele>441.2</ele>
        <time>2020-09-08T09:34:04Z</time>
      </trkpt>
      <trkpt lat="44.15804" lon="5.01099">
        <ele>441.2</ele>
        <time>2020-09-08T09:34:05Z</time>
      </trkpt>
      <trkpt lat="44.15803" lon="5.01097">
        <ele>441.3</ele>
        <time>2020-09-08T09:34:06Z</time>
      </trkpt>
      <trkpt lat="44.15804" lon="5.01096">
        <ele>441.5</ele>
        <time>2020-09-08T09:34:07Z</time>
      </trkpt>
      <trkpt lat="44.15805" lon="5.01094">
        <ele>441.6</ele>
        <time>2020-09-08T09:34:08Z</time>
      </trkpt>
      <trkpt lat="44.15806" lon="5.01092">
        <ele>441.8</ele>
        <time>2020-09-08T09:34:10Z</time>
      </trkpt>
      <trkpt lat="44.15805" lon="5.01091">
        <ele>442</ele>
        <time>2020-09-08T09:34:11Z</time>
      </trkpt>
      <trkpt lat="44.15805" lon="5.01089">
        <ele>442.1</ele>
        <time>2020-09-08T09:34:12Z</time>
      </trkpt>
      <trkpt lat="44.15805" lon="5.01088">
        <ele>442.2</ele>
        <time>2020-09-08T09:34:13Z</time>
      </trkpt>
      <trkpt lat="44.15806" lon="5.01086">
        <ele>442.4</ele>
        <time>2020-09-08T09:34:14Z</time>
      </trkpt>
      <trkpt lat="44.15806" lon="5.01086">
        <ele>442.5</ele>
        <time>2020-09-08T09:34:15Z</time>
      </trkpt>
      <trkpt lat="44.15807" lon="5.01085">
        <ele>442.5</ele>
        <time>2020-09-08T09:34:16Z</time>
      </trkpt>
      <trkpt lat="44.15807" lon="5.01084">
        <ele>442.6</ele>
        <time>2020-09-08T09:34:17Z</time>
      </trkpt>
      <trkpt lat="44.15807" lon="5.01084">
        <ele>442.7</ele>
        <time>2020-09-08T09:34:18Z</time>
      </trkpt>
      <trkpt lat="44.15808" lon="5.01083">
        <ele>442.8</ele>
        <time>2020-09-08T09:34:19Z</time>
      </trkpt>
      <trkpt lat="44.15809" lon="5.01082">
        <ele>442.9</ele>
        <time>2020-09-08T09:34:20Z</time>
      </trkpt>
      <trkpt lat="44.1581" lon="5.01081">
        <ele>443.1</ele>
        <time>2020-09-08T09:34:21Z</time>
      </trkpt>
      <trkpt lat="44.1581" lon="5.0108">
        <ele>443.2</ele>
        <time>2020-09-08T09:34:22Z</time>
      </trkpt>
      <trkpt lat="44.15811" lon="5.01081">
        <ele>443.2</ele>
        <time>2020-09-08T09:34:23Z</time>
      </trkpt>
      <trkpt lat="44.15811" lon="5.01081">
        <ele>443.3</ele>
        <time>2020-09-08T09:34:24Z</time>
      </trkpt>
      <trkpt lat="44.15812" lon="5.01082">
        <ele>443.4</ele>
        <time>2020-09-08T09:34:25Z</time>
      </trkpt>
      <trkpt lat="44.15812" lon="5.01082">
        <ele>443.4</ele>
        <time>2020-09-08T09:34:26Z</time>
      </trkpt>
      <trkpt lat="44.15813" lon="5.01083">
        <ele>443.5</ele>
        <time>2020-09-08T09:34:27Z</time>
      </trkpt>
      <trkpt lat="44.15813" lon="5.01083">
        <ele>443.6</ele>
        <time>2020-09-08T09:34:28Z</time>
      </trkpt>
      <trkpt lat="44.15814" lon="5.01084">
        <ele>443.7</ele>
        <time>2020-09-08T09:34:29Z</time>
      </trkpt>
      <trkpt lat="44.15814" lon="5.01084">
        <ele>443.8</ele>
        <time>2020-09-08T09:34:30Z</time>
      </trkpt>
      <trkpt lat="44.15815" lon="5.01086">
        <ele>443.9</ele>
        <time>2020-09-08T09:34:31Z</time>
      </trkpt>
      <trkpt lat="44.15816" lon="5.01086">
        <ele>444.1</ele>
        <time>2020-09-08T09:34:32Z</time>
      </trkpt>
      <trkpt lat="44.15817" lon="5.01086">
        <ele>444.1</ele>
        <time>2020-09-08T09:34:33Z</time>
      </trkpt>
      <trkpt lat="44.15818" lon="5.01086">
        <ele>444.2</ele>
        <time>2020-09-08T09:34:34Z</time>
      </trkpt>
      <trkpt lat="44.15818" lon="5.01088">
        <ele>444.4</ele>
        <time>2020-09-08T09:34:35Z</time>
      </trkpt>
      <trkpt lat="44.15819" lon="5.01086">
        <ele>444.6</ele>
        <time>2020-09-08T09:34:36Z</time>
      </trkpt>
      <trkpt lat="44.1582" lon="5.01086">
        <ele>444.6</ele>
        <time>2020-09-08T09:34:37Z</time>
      </trkpt>
      <trkpt lat="44.15821" lon="5.01086">
        <ele>444.7</ele>
        <time>2020-09-08T09:34:38Z</time>
      </trkpt>
      <trkpt lat="44.15821" lon="5.01086">
        <ele>444.8</ele>
        <time>2020-09-08T09:34:39Z</time>
      </trkpt>
      <trkpt lat="44.15822" lon="5.01086">
        <ele>444.9</ele>
        <time>2020-09-08T09:34:40Z</time>
      </trkpt>
      <trkpt lat="44.15822" lon="5.01086">
        <ele>444.9</ele>
        <time>2020-09-08T09:34:41Z</time>
      </trkpt>
      <trkpt lat="44.15821" lon="5.01087">
        <ele>445</ele>
        <time>2020-09-08T09:34:42Z</time>
      </trkpt>
      <trkpt lat="44.15821" lon="5.01087">
        <ele>445.1</ele>
        <time>2020-09-08T09:34:43Z</time>
      </trkpt>
      <trkpt lat="44.15821" lon="5.01086">
        <ele>445.1</ele>
        <time>2020-09-08T09:34:44Z</time>
      </trkpt>
      <trkpt lat="44.15821" lon="5.01087">
        <ele>445.2</ele>
        <time>2020-09-08T09:34:45Z</time>
      </trkpt>
      <trkpt lat="44.15821" lon="5.01086">
        <ele>445.3</ele>
        <time>2020-09-08T09:34:46Z</time>
      </trkpt>
      <trkpt lat="44.15821" lon="5.01086">
        <ele>445.4</ele>
        <time>2020-09-08T09:34:47Z</time>
      </trkpt>
      <trkpt lat="44.15821" lon="5.01084">
        <ele>445.5</ele>
        <time>2020-09-08T09:34:48Z</time>
      </trkpt>
      <trkpt lat="44.15821" lon="5.01085">
        <ele>445.5</ele>
        <time>2020-09-08T09:34:49Z</time>
      </trkpt>
      <trkpt lat="44.1582" lon="5.01084">
        <ele>445.6</ele>
        <time>2020-09-08T09:34:50Z</time>
      </trkpt>
      <trkpt lat="44.15819" lon="5.01084">
        <ele>445.7</ele>
        <time>2020-09-08T09:34:51Z</time>
      </trkpt>
      <trkpt lat="44.15819" lon="5.01084">
        <ele>445.7</ele>
        <time>2020-09-08T09:34:52Z</time>
      </trkpt>
      <trkpt lat="44.15819" lon="5.01083">
        <ele>445.8</ele>
        <time>2020-09-08T09:34:53Z</time>
      </trkpt>
      <trkpt lat="44.15819" lon="5.01083">
        <ele>445.8</ele>
        <time>2020-09-08T09:34:54Z</time>
      </trkpt>
      <trkpt lat="44.15818" lon="5.01083">
        <ele>445.8</ele>
        <time>2020-09-08T09:34:55Z</time>
      </trkpt>
      <trkpt lat="44.15819" lon="5.01084">
        <ele>445.9</ele>
        <time>2020-09-08T09:34:56Z</time>
      </trkpt>
      <trkpt lat="44.15818" lon="5.01083">
        <ele>445.9</ele>
        <time>2020-09-08T09:34:57Z</time>
      </trkpt>
      <trkpt lat="44.15818" lon="5.01084">
        <ele>446</ele>
        <time>2020-09-08T09:34:58Z</time>
      </trkpt>
      <trkpt lat="44.15818" lon="5.01084">
        <ele>446</ele>
        <time>2020-09-08T09:34:59Z</time>
      </trkpt>
      <trkpt lat="44.15818" lon="5.01083">
        <ele>446.1</ele>
        <time>2020-09-08T09:35:00Z</time>
      </trkpt>
      <trkpt lat="44.15819" lon="5.01082">
        <ele>446.2</ele>
        <time>2020-09-08T09:35:01Z</time>
      </trkpt>
      <trkpt lat="44.1582" lon="5.01082">
        <ele>446.2</ele>
        <time>2020-09-08T09:35:02Z</time>
      </trkpt>
      <trkpt lat="44.1582" lon="5.01082">
        <ele>446.3</ele>
        <time>2020-09-08T09:35:03Z</time>
      </trkpt>
      <trkpt lat="44.1582" lon="5.01083">
        <ele>446.3</ele>
        <time>2020-09-08T09:35:04Z</time>
      </trkpt>
      <trkpt lat="44.1582" lon="5.01083">
        <ele>446.4</ele>
        <time>2020-09-08T09:35:05Z</time>
      </trkpt>
      <trkpt lat="44.1582" lon="5.01083">
        <ele>446.4</ele>
        <time>2020-09-08T09:35:06Z</time>
      </trkpt>
      <trkpt lat="44.1582" lon="5.01083">
        <ele>446.4</ele>
        <time>2020-09-08T09:35:07Z</time>
      </trkpt>
      <trkpt lat="44.1582" lon="5.01083">
        <ele>446.4</ele>
        <time>2020-09-08T09:35:08Z</time>
      </trkpt>
      <trkpt lat="44.1582" lon="5.01083">
        <ele>446.5</ele>
        <time>2020-09-08T09:35:09Z</time>
      </trkpt>
      <trkpt lat="44.1582" lon="5.01083">
        <ele>446.5</ele>
        <time>2020-09-08T09:35:10Z</time>
      </trkpt>
      <trkpt lat="44.1582" lon="5.01083">
        <ele>446.5</ele>
        <time>2020-09-08T09:35:11Z</time>
      </trkpt>
      <trkpt lat="44.1582" lon="5.01083">
        <ele>446.5</ele>
        <time>2020-09-08T09:35:12Z</time>
      </trkpt>
      <trkpt lat="44.1582" lon="5.01083">
        <ele>446.5</ele>
        <time>2020-09-08T09:35:13Z</time>
      </trkpt>
      <trkpt lat="44.1582" lon="5.01083">
        <ele>446.6</ele>
        <time>2020-09-08T09:35:14Z</time>
      </trkpt>
      <trkpt lat="44.1582" lon="5.01083">
        <ele>446.6</ele>
        <time>2020-09-08T09:35:15Z</time>
      </trkpt>
      <trkpt lat="44.1582" lon="5.01083">
        <ele>446.6</ele>
        <time>2020-09-08T09:35:16Z</time>
      </trkpt>
      <trkpt lat="44.1582" lon="5.01083">
        <ele>446.7</ele>
        <time>2020-09-08T09:35:17Z</time>
      </trkpt>
      <trkpt lat="44.1582" lon="5.01083">
        <ele>446.7</ele>
        <time>2020-09-08T09:35:18Z</time>
      </trkpt>
      <trkpt lat="44.1582" lon="5.01083">
        <ele>446.7</ele>
        <time>2020-09-08T09:35:19Z</time>
      </trkpt>
      <trkpt lat="44.1582" lon="5.01083">
        <ele>446.8</ele>
        <time>2020-09-08T09:35:20Z</time>
      </trkpt>
      <trkpt lat="44.15819" lon="5.01083">
        <ele>446.8</ele>
        <time>2020-09-08T09:35:21Z</time>
      </trkpt>
      <trkpt lat="44.15819" lon="5.01083">
        <ele>446.8</ele>
        <time>2020-09-08T09:35:22Z</time>
      </trkpt>
      <trkpt lat="44.15819" lon="5.01083">
        <ele>446.8</ele>
        <time>2020-09-08T09:35:23Z</time>
      </trkpt>
      <trkpt lat="44.15819" lon="5.01083">
        <ele>446.9</ele>
        <time>2020-09-08T09:35:24Z</time>
      </trkpt>
      <trkpt lat="44.15819" lon="5.01083">
        <ele>446.9</ele>
        <time>2020-09-08T09:35:25Z</time>
      </trkpt>
      <trkpt lat="44.15819" lon="5.01084">
        <ele>446.9</ele>
        <time>2020-09-08T09:35:26Z</time>
      </trkpt>
      <trkpt lat="44.15819" lon="5.01084">
        <ele>447</ele>
        <time>2020-09-08T09:35:27Z</time>
      </trkpt>
      <trkpt lat="44.15819" lon="5.01084">
        <ele>447</ele>
        <time>2020-09-08T09:35:28Z</time>
      </trkpt>
      <trkpt lat="44.15818" lon="5.01084">
        <ele>447</ele>
        <time>2020-09-08T09:35:30Z</time>
      </trkpt>
      <trkpt lat="44.15818" lon="5.01084">
        <ele>447.1</ele>
        <time>2020-09-08T09:35:31Z</time>
      </trkpt>
      <trkpt lat="44.15818" lon="5.01084">
        <ele>447.1</ele>
        <time>2020-09-08T09:35:32Z</time>
      </trkpt>
      <trkpt lat="44.15818" lon="5.01084">
        <ele>447.1</ele>
        <time>2020-09-08T09:35:33Z</time>
      </trkpt>
      <trkpt lat="44.15818" lon="5.01084">
        <ele>447.1</ele>
        <time>2020-09-08T09:35:34Z</time>
      </trkpt>
      <trkpt lat="44.15818" lon="5.01085">
        <ele>447.1</ele>
        <time>2020-09-08T09:35:35Z</time>
      </trkpt>
      <trkpt lat="44.15818" lon="5.01084">
        <ele>447.2</ele>
        <time>2020-09-08T09:35:36Z</time>
      </trkpt>
      <trkpt lat="44.15818" lon="5.01084">
        <ele>447.2</ele>
        <time>2020-09-08T09:35:37Z</time>
      </trkpt>
      <trkpt lat="44.15818" lon="5.01084">
        <ele>447.2</ele>
        <time>2020-09-08T09:35:38Z</time>
      </trkpt>
      <trkpt lat="44.15818" lon="5.01083">
        <ele>447.2</ele>
        <time>2020-09-08T09:35:39Z</time>
      </trkpt>
      <trkpt lat="44.15818" lon="5.01083">
        <ele>447.3</ele>
        <time>2020-09-08T09:35:40Z</time>
      </trkpt>
      <trkpt lat="44.15818" lon="5.01083">
        <ele>447.3</ele>
        <time>2020-09-08T09:35:41Z</time>
      </trkpt>
      <trkpt lat="44.15819" lon="5.01084">
        <ele>447.3</ele>
        <time>2020-09-08T09:35:42Z</time>
      </trkpt>
      <trkpt lat="44.15818" lon="5.01085">
        <ele>447.4</ele>
        <time>2020-09-08T09:35:43Z</time>
      </trkpt>
      <trkpt lat="44.15818" lon="5.01085">
        <ele>447.5</ele>
        <time>2020-09-08T09:35:44Z</time>
      </trkpt>
      <trkpt lat="44.15818" lon="5.01085">
        <ele>447.5</ele>
        <time>2020-09-08T09:35:45Z</time>
      </trkpt>
      <trkpt lat="44.15819" lon="5.01085">
        <ele>447.5</ele>
        <time>2020-09-08T09:35:46Z</time>
      </trkpt>
      <trkpt lat="44.15819" lon="5.01085">
        <ele>447.6</ele>
        <time>2020-09-08T09:35:47Z</time>
      </trkpt>
      <trkpt lat="44.15819" lon="5.01085">
        <ele>447.6</ele>
        <time>2020-09-08T09:35:48Z</time>
      </trkpt>
      <trkpt lat="44.15819" lon="5.01085">
        <ele>447.6</ele>
        <time>2020-09-08T09:35:49Z</time>
      </trkpt>
      <trkpt lat="44.15818" lon="5.01085">
        <ele>447.7</ele>
        <time>2020-09-08T09:35:50Z</time>
      </trkpt>
      <trkpt lat="44.15818" lon="5.01085">
        <ele>447.7</ele>
        <time>2020-09-08T09:35:51Z</time>
      </trkpt>
      <trkpt lat="44.15818" lon="5.01085">
        <ele>447.7</ele>
        <time>2020-09-08T09:35:52Z</time>
      </trkpt>
      <trkpt lat="44.15818" lon="5.01085">
        <ele>447.7</ele>
        <time>2020-09-08T09:35:53Z</time>
      </trkpt>
      <trkpt lat="44.15818" lon="5.01085">
        <ele>447.7</ele>
        <time>2020-09-08T09:35:54Z</time>
      </trkpt>
      <trkpt lat="44.15818" lon="5.01085">
        <ele>447.7</ele>
        <time>2020-09-08T09:35:55Z</time>
      </trkpt>
      <trkpt lat="44.15818" lon="5.01085">
        <ele>447.7</ele>
        <time>2020-09-08T09:35:56Z</time>
      </trkpt>
      <trkpt lat="44.15818" lon="5.01085">
        <ele>447.7</ele>
        <time>2020-09-08T09:35:57Z</time>
      </trkpt>
      <trkpt lat="44.15818" lon="5.01085">
        <ele>447.7</ele>
        <time>2020-09-08T09:35:58Z</time>
      </trkpt>
      <trkpt lat="44.15818" lon="5.01085">
        <ele>447.7</ele>
        <time>2020-09-08T09:35:59Z</time>
      </trkpt>
      <trkpt lat="44.15818" lon="5.01085">
        <ele>447.7</ele>
        <time>2020-09-08T09:36:00Z</time>
      </trkpt>
      <trkpt lat="44.15818" lon="5.01085">
        <ele>447.7</ele>
        <time>2020-09-08T09:36:01Z</time>
      </trkpt>
      <trkpt lat="44.15818" lon="5.01085">
        <ele>447.7</ele>
        <time>2020-09-08T09:36:02Z</time>
      </trkpt>
      <trkpt lat="44.15818" lon="5.01085">
        <ele>447.7</ele>
        <time>2020-09-08T09:36:03Z</time>
      </trkpt>
      <trkpt lat="44.15818" lon="5.01085">
        <ele>447.7</ele>
        <time>2020-09-08T09:36:04Z</time>
      </trkpt>
      <trkpt lat="44.15818" lon="5.01085">
        <ele>447.7</ele>
        <time>2020-09-08T09:36:05Z</time>
      </trkpt>
      <trkpt lat="44.15818" lon="5.01085">
        <ele>447.7</ele>
        <time>2020-09-08T09:36:06Z</time>
      </trkpt>
      <trkpt lat="44.15818" lon="5.01085">
        <ele>447.7</ele>
        <time>2020-09-08T09:36:07Z</time>
      </trkpt>
      <trkpt lat="44.15818" lon="5.01085">
        <ele>447.7</ele>
        <time>2020-09-08T09:36:08Z</time>
      </trkpt>
      <trkpt lat="44.15818" lon="5.01085">
        <ele>447.7</ele>
        <time>2020-09-08T09:36:09Z</time>
      </trkpt>
      <trkpt lat="44.15818" lon="5.01085">
        <ele>447.7</ele>
        <time>2020-09-08T09:36:10Z</time>
      </trkpt>
      <trkpt lat="44.15818" lon="5.01085">
        <ele>447.7</ele>
        <time>2020-09-08T09:36:11Z</time>
      </trkpt>
      <trkpt lat="44.15818" lon="5.01085">
        <ele>447.7</ele>
        <time>2020-09-08T09:36:12Z</time>
      </trkpt>
      <trkpt lat="44.15818" lon="5.01085">
        <ele>447.7</ele>
        <time>2020-09-08T09:36:13Z</time>
      </trkpt>
      <trkpt lat="44.15818" lon="5.01085">
        <ele>447.7</ele>
        <time>2020-09-08T09:36:14Z</time>
      </trkpt>
      <trkpt lat="44.15818" lon="5.01085">
        <ele>447.7</ele>
        <time>2020-09-08T09:36:16Z</time>
      </trkpt>
      <trkpt lat="44.15818" lon="5.01085">
        <ele>447.7</ele>
        <time>2020-09-08T09:36:17Z</time>
      </trkpt>
      <trkpt lat="44.15818" lon="5.01085">
        <ele>447.7</ele>
        <time>2020-09-08T09:36:18Z</time>
      </trkpt>
      <trkpt lat="44.15818" lon="5.01085">
        <ele>447.7</ele>
        <time>2020-09-08T09:36:19Z</time>
      </trkpt>
      <trkpt lat="44.15818" lon="5.01085">
        <ele>447.7</ele>
        <time>2020-09-08T09:36:20Z</time>
      </trkpt>
      <trkpt lat="44.15818" lon="5.01085">
        <ele>447.7</ele>
        <time>2020-09-08T09:36:21Z</time>
      </trkpt>
      <trkpt lat="44.15818" lon="5.01085">
        <ele>447.7</ele>
        <time>2020-09-08T09:36:22Z</time>
      </trkpt>
      <trkpt lat="44.15818" lon="5.01085">
        <ele>447.7</ele>
        <time>2020-09-08T09:36:23Z</time>
      </trkpt>
      <trkpt lat="44.15818" lon="5.01085">
        <ele>447.7</ele>
        <time>2020-09-08T09:36:24Z</time>
      </trkpt>
      <trkpt lat="44.15818" lon="5.01085">
        <ele>447.7</ele>
        <time>2020-09-08T09:36:25Z</time>
      </trkpt>
      <trkpt lat="44.15818" lon="5.01085">
        <ele>447.7</ele>
        <time>2020-09-08T09:36:26Z</time>
      </trkpt>
      <trkpt lat="44.15818" lon="5.01085">
        <ele>447.7</ele>
        <time>2020-09-08T09:36:27Z</time>
      </trkpt>
      <trkpt lat="44.15818" lon="5.01085">
        <ele>447.7</ele>
        <time>2020-09-08T09:36:28Z</time>
      </trkpt>
      <trkpt lat="44.15818" lon="5.01085">
        <ele>447.7</ele>
        <time>2020-09-08T09:36:29Z</time>
      </trkpt>
      <trkpt lat="44.15818" lon="5.01085">
        <ele>447.7</ele>
        <time>2020-09-08T09:36:30Z</time>
      </trkpt>
      <trkpt lat="44.15818" lon="5.01085">
        <ele>447.7</ele>
        <time>2020-09-08T09:36:32Z</time>
      </trkpt>
      <trkpt lat="44.15818" lon="5.01085">
        <ele>447.7</ele>
        <time>2020-09-08T09:36:33Z</time>
      </trkpt>
      <trkpt lat="44.15818" lon="5.01085">
        <ele>447.7</ele>
        <time>2020-09-08T09:36:34Z</time>
      </trkpt>
      <trkpt lat="44.15818" lon="5.01085">
        <ele>447.7</ele>
        <time>2020-09-08T09:36:35Z</time>
      </trkpt>
      <trkpt lat="44.15818" lon="5.01085">
        <ele>447.7</ele>
        <time>2020-09-08T09:36:36Z</time>
      </trkpt>
      <trkpt lat="44.15818" lon="5.01085">
        <ele>447.7</ele>
        <time>2020-09-08T09:36:37Z</time>
      </trkpt>
      <trkpt lat="44.15818" lon="5.01085">
        <ele>447.7</ele>
        <time>2020-09-08T09:36:38Z</time>
      </trkpt>
      <trkpt lat="44.15818" lon="5.01085">
        <ele>447.7</ele>
        <time>2020-09-08T09:36:39Z</time>
      </trkpt>
      <trkpt lat="44.15818" lon="5.01085">
        <ele>447.7</ele>
        <time>2020-09-08T09:36:40Z</time>
      </trkpt>
      <trkpt lat="44.15818" lon="5.01085">
        <ele>447.7</ele>
        <time>2020-09-08T09:36:41Z</time>
      </trkpt>
      <trkpt lat="44.15818" lon="5.01085">
        <ele>447.7</ele>
        <time>2020-09-08T09:36:42Z</time>
      </trkpt>
      <trkpt lat="44.15818" lon="5.01085">
        <ele>447.7</ele>
        <time>2020-09-08T09:36:43Z</time>
      </trkpt>
      <trkpt lat="44.15818" lon="5.01085">
        <ele>447.7</ele>
        <time>2020-09-08T09:36:44Z</time>
      </trkpt>
      <trkpt lat="44.15818" lon="5.01085">
        <ele>447.7</ele>
        <time>2020-09-08T09:36:45Z</time>
      </trkpt>
      <trkpt lat="44.15818" lon="5.01085">
        <ele>447.7</ele>
        <time>2020-09-08T09:36:46Z</time>
      </trkpt>
      <trkpt lat="44.15818" lon="5.01085">
        <ele>447.7</ele>
        <time>2020-09-08T09:36:47Z</time>
      </trkpt>
      <trkpt lat="44.15818" lon="5.01085">
        <ele>447.7</ele>
        <time>2020-09-08T09:36:48Z</time>
      </trkpt>
      <trkpt lat="44.15818" lon="5.01085">
        <ele>447.7</ele>
        <time>2020-09-08T09:36:49Z</time>
      </trkpt>
      <trkpt lat="44.15818" lon="5.01085">
        <ele>447.7</ele>
        <time>2020-09-08T09:36:50Z</time>
      </trkpt>
      <trkpt lat="44.15818" lon="5.01085">
        <ele>447.7</ele>
        <time>2020-09-08T09:36:51Z</time>
      </trkpt>
      <trkpt lat="44.15818" lon="5.01085">
        <ele>447.7</ele>
        <time>2020-09-08T09:36:52Z</time>
      </trkpt>
      <trkpt lat="44.15818" lon="5.01085">
        <ele>447.7</ele>
        <time>2020-09-08T09:36:53Z</time>
      </trkpt>
      <trkpt lat="44.15818" lon="5.01085">
        <ele>447.7</ele>
        <time>2020-09-08T09:36:54Z</time>
      </trkpt>
      <trkpt lat="44.15818" lon="5.01085">
        <ele>447.7</ele>
        <time>2020-09-08T09:36:55Z</time>
      </trkpt>
      <trkpt lat="44.15818" lon="5.01085">
        <ele>447.7</ele>
        <time>2020-09-08T09:36:56Z</time>
      </trkpt>
      <trkpt lat="44.15818" lon="5.01085">
        <ele>447.7</ele>
        <time>2020-09-08T09:36:57Z</time>
      </trkpt>
      <trkpt lat="44.15818" lon="5.01085">
        <ele>447.7</ele>
        <time>2020-09-08T09:36:58Z</time>
      </trkpt>
      <trkpt lat="44.15818" lon="5.01085">
        <ele>447.7</ele>
        <time>2020-09-08T09:36:59Z</time>
      </trkpt>
      <trkpt lat="44.15818" lon="5.01085">
        <ele>447.7</ele>
        <time>2020-09-08T09:37:00Z</time>
      </trkpt>
      <trkpt lat="44.15818" lon="5.01085">
        <ele>447.7</ele>
        <time>2020-09-08T09:37:01Z</time>
      </trkpt>
      <trkpt lat="44.15818" lon="5.01085">
        <ele>447.7</ele>
        <time>2020-09-08T09:37:02Z</time>
      </trkpt>
      <trkpt lat="44.15818" lon="5.01085">
        <ele>447.7</ele>
        <time>2020-09-08T09:37:03Z</time>
      </trkpt>
      <trkpt lat="44.15818" lon="5.01085">
        <ele>447.7</ele>
        <time>2020-09-08T09:37:04Z</time>
      </trkpt>
      <trkpt lat="44.15818" lon="5.01085">
        <ele>447.7</ele>
        <time>2020-09-08T09:37:05Z</time>
      </trkpt>
      <trkpt lat="44.15818" lon="5.01085">
        <ele>447.7</ele>
        <time>2020-09-08T09:37:06Z</time>
      </trkpt>
      <trkpt lat="44.15818" lon="5.01085">
        <ele>447.7</ele>
        <time>2020-09-08T09:37:07Z</time>
      </trkpt>
      <trkpt lat="44.15818" lon="5.01085">
        <ele>447.7</ele>
        <time>2020-09-08T09:37:08Z</time>
      </trkpt>
      <trkpt lat="44.15818" lon="5.01085">
        <ele>447.7</ele>
        <time>2020-09-08T09:37:09Z</time>
      </trkpt>
      <trkpt lat="44.15818" lon="5.01085">
        <ele>447.7</ele>
        <time>2020-09-08T09:37:10Z</time>
      </trkpt>
      <trkpt lat="44.15818" lon="5.01085">
        <ele>447.7</ele>
        <time>2020-09-08T09:37:11Z</time>
      </trkpt>
      <trkpt lat="44.15818" lon="5.01085">
        <ele>447.7</ele>
        <time>2020-09-08T09:37:12Z</time>
      </trkpt>
      <trkpt lat="44.15818" lon="5.01085">
        <ele>447.7</ele>
        <time>2020-09-08T09:37:13Z</time>
      </trkpt>
      <trkpt lat="44.15818" lon="5.01085">
        <ele>447.7</ele>
        <time>2020-09-08T09:37:14Z</time>
      </trkpt>
      <trkpt lat="44.15818" lon="5.01085">
        <ele>447.7</ele>
        <time>2020-09-08T09:37:15Z</time>
      </trkpt>
      <trkpt lat="44.15818" lon="5.01085">
        <ele>447.7</ele>
        <time>2020-09-08T09:37:16Z</time>
      </trkpt>
      <trkpt lat="44.15818" lon="5.01085">
        <ele>447.7</ele>
        <time>2020-09-08T09:37:17Z</time>
      </trkpt>
      <trkpt lat="44.15818" lon="5.01085">
        <ele>447.7</ele>
        <time>2020-09-08T09:37:18Z</time>
      </trkpt>
      <trkpt lat="44.15818" lon="5.01085">
        <ele>447.7</ele>
        <time>2020-09-08T09:37:19Z</time>
      </trkpt>
      <trkpt lat="44.15818" lon="5.01085">
        <ele>447.7</ele>
        <time>2020-09-08T09:37:20Z</time>
      </trkpt>
      <trkpt lat="44.15818" lon="5.01085">
        <ele>447.7</ele>
        <time>2020-09-08T09:37:21Z</time>
      </trkpt>
      <trkpt lat="44.15818" lon="5.01085">
        <ele>447.7</ele>
        <time>2020-09-08T09:37:22Z</time>
      </trkpt>
      <trkpt lat="44.15818" lon="5.01085">
        <ele>447.7</ele>
        <time>2020-09-08T09:37:23Z</time>
      </trkpt>
      <trkpt lat="44.15818" lon="5.01085">
        <ele>447.7</ele>
        <time>2020-09-08T09:37:24Z</time>
      </trkpt>
      <trkpt lat="44.15818" lon="5.01085">
        <ele>447.7</ele>
        <time>2020-09-08T09:37:25Z</time>
      </trkpt>
      <trkpt lat="44.15818" lon="5.01085">
        <ele>447.7</ele>
        <time>2020-09-08T09:37:26Z</time>
      </trkpt>
      <trkpt lat="44.15818" lon="5.01085">
        <ele>447.7</ele>
        <time>2020-09-08T09:37:27Z</time>
      </trkpt>
      <trkpt lat="44.15818" lon="5.01085">
        <ele>447.7</ele>
        <time>2020-09-08T09:37:28Z</time>
      </trkpt>
      <trkpt lat="44.15818" lon="5.01085">
        <ele>447.7</ele>
        <time>2020-09-08T09:37:29Z</time>
      </trkpt>
      <trkpt lat="44.15818" lon="5.01085">
        <ele>447.7</ele>
        <time>2020-09-08T09:37:30Z</time>
      </trkpt>
      <trkpt lat="44.15818" lon="5.01085">
        <ele>447.7</ele>
        <time>2020-09-08T09:37:31Z</time>
      </trkpt>
      <trkpt lat="44.15818" lon="5.01085">
        <ele>447.7</ele>
        <time>2020-09-08T09:37:32Z</time>
      </trkpt>
      <trkpt lat="44.15818" lon="5.01085">
        <ele>447.7</ele>
        <time>2020-09-08T09:37:33Z</time>
      </trkpt>
      <trkpt lat="44.15818" lon="5.01085">
        <ele>447.7</ele>
        <time>2020-09-08T09:37:34Z</time>
      </trkpt>
      <trkpt lat="44.15818" lon="5.01085">
        <ele>447.7</ele>
        <time>2020-09-08T09:37:35Z</time>
      </trkpt>
      <trkpt lat="44.15818" lon="5.01085">
        <ele>447.7</ele>
        <time>2020-09-08T09:37:36Z</time>
      </trkpt>
      <trkpt lat="44.15818" lon="5.01085">
        <ele>447.7</ele>
        <time>2020-09-08T09:37:37Z</time>
      </trkpt>
      <trkpt lat="44.15818" lon="5.01085">
        <ele>447.7</ele>
        <time>2020-09-08T09:37:38Z</time>
      </trkpt>
      <trkpt lat="44.15818" lon="5.01085">
        <ele>447.7</ele>
        <time>2020-09-08T09:37:39Z</time>
      </trkpt>
      <trkpt lat="44.15818" lon="5.01085">
        <ele>447.7</ele>
        <time>2020-09-08T09:37:40Z</time>
      </trkpt>
      <trkpt lat="44.15818" lon="5.01085">
        <ele>447.7</ele>
        <time>2020-09-08T09:37:41Z</time>
      </trkpt>
      <trkpt lat="44.15818" lon="5.01085">
        <ele>447.7</ele>
        <time>2020-09-08T09:37:42Z</time>
      </trkpt>
      <trkpt lat="44.15818" lon="5.01085">
        <ele>447.7</ele>
        <time>2020-09-08T09:37:43Z</time>
      </trkpt>
      <trkpt lat="44.15818" lon="5.01085">
        <ele>447.7</ele>
        <time>2020-09-08T09:37:44Z</time>
      </trkpt>
      <trkpt lat="44.15818" lon="5.01085">
        <ele>447.7</ele>
        <time>2020-09-08T09:37:45Z</time>
      </trkpt>
      <trkpt lat="44.15818" lon="5.01085">
        <ele>447.7</ele>
        <time>2020-09-08T09:37:46Z</time>
      </trkpt>
      <trkpt lat="44.15818" lon="5.01085">
        <ele>447.7</ele>
        <time>2020-09-08T09:37:47Z</time>
      </trkpt>
      <trkpt lat="44.15818" lon="5.01085">
        <ele>447.7</ele>
        <time>2020-09-08T09:37:48Z</time>
      </trkpt>
      <trkpt lat="44.15818" lon="5.01085">
        <ele>447.7</ele>
        <time>2020-09-08T09:37:49Z</time>
      </trkpt>
      <trkpt lat="44.15818" lon="5.01085">
        <ele>447.7</ele>
        <time>2020-09-08T09:37:50Z</time>
      </trkpt>
      <trkpt lat="44.15818" lon="5.01085">
        <ele>447.7</ele>
        <time>2020-09-08T09:37:51Z</time>
      </trkpt>
      <trkpt lat="44.15818" lon="5.01085">
        <ele>447.7</ele>
        <time>2020-09-08T09:37:52Z</time>
      </trkpt>
      <trkpt lat="44.15818" lon="5.01085">
        <ele>447.7</ele>
        <time>2020-09-08T09:37:53Z</time>
      </trkpt>
      <trkpt lat="44.15818" lon="5.01085">
        <ele>447.7</ele>
        <time>2020-09-08T09:37:54Z</time>
      </trkpt>
      <trkpt lat="44.15818" lon="5.01085">
        <ele>447.7</ele>
        <time>2020-09-08T09:37:55Z</time>
      </trkpt>
      <trkpt lat="44.15818" lon="5.01085">
        <ele>447.7</ele>
        <time>2020-09-08T09:37:56Z</time>
      </trkpt>
      <trkpt lat="44.15818" lon="5.01085">
        <ele>447.7</ele>
        <time>2020-09-08T09:37:57Z</time>
      </trkpt>
      <trkpt lat="44.15821" lon="5.01083">
        <ele>448.1</ele>
        <time>2020-09-08T09:37:58Z</time>
      </trkpt>
      <trkpt lat="44.15821" lon="5.01083">
        <ele>448.1</ele>
        <time>2020-09-08T09:37:59Z</time>
      </trkpt>
      <trkpt lat="44.15821" lon="5.01083">
        <ele>448.1</ele>
        <time>2020-09-08T09:38:00Z</time>
      </trkpt>
      <trkpt lat="44.15821" lon="5.01084">
        <ele>448.1</ele>
        <time>2020-09-08T09:38:01Z</time>
      </trkpt>
      <trkpt lat="44.15821" lon="5.01084">
        <ele>448.2</ele>
        <time>2020-09-08T09:38:02Z</time>
      </trkpt>
      <trkpt lat="44.15821" lon="5.01084">
        <ele>448.2</ele>
        <time>2020-09-08T09:38:03Z</time>
      </trkpt>
      <trkpt lat="44.15821" lon="5.01085">
        <ele>448.2</ele>
        <time>2020-09-08T09:38:04Z</time>
      </trkpt>
      <trkpt lat="44.15821" lon="5.01085">
        <ele>448.3</ele>
        <time>2020-09-08T09:38:05Z</time>
      </trkpt>
      <trkpt lat="44.15821" lon="5.01085">
        <ele>448.3</ele>
        <time>2020-09-08T09:38:06Z</time>
      </trkpt>
      <trkpt lat="44.15821" lon="5.01085">
        <ele>448.3</ele>
        <time>2020-09-08T09:38:07Z</time>
      </trkpt>
      <trkpt lat="44.15821" lon="5.01086">
        <ele>448.3</ele>
        <time>2020-09-08T09:38:08Z</time>
      </trkpt>
      <trkpt lat="44.15821" lon="5.01086">
        <ele>448.4</ele>
        <time>2020-09-08T09:38:09Z</time>
      </trkpt>
      <trkpt lat="44.15821" lon="5.01086">
        <ele>448.4</ele>
        <time>2020-09-08T09:38:10Z</time>
      </trkpt>
      <trkpt lat="44.15821" lon="5.01087">
        <ele>448.5</ele>
        <time>2020-09-08T09:38:11Z</time>
      </trkpt>
      <trkpt lat="44.15821" lon="5.01088">
        <ele>448.5</ele>
        <time>2020-09-08T09:38:12Z</time>
      </trkpt>
      <trkpt lat="44.15821" lon="5.01088">
        <ele>448.6</ele>
        <time>2020-09-08T09:38:13Z</time>
      </trkpt>
      <trkpt lat="44.1582" lon="5.01089">
        <ele>448.6</ele>
        <time>2020-09-08T09:38:14Z</time>
      </trkpt>
      <trkpt lat="44.1582" lon="5.01091">
        <ele>448.8</ele>
        <time>2020-09-08T09:38:15Z</time>
      </trkpt>
      <trkpt lat="44.15818" lon="5.01091">
        <ele>449</ele>
        <time>2020-09-08T09:38:16Z</time>
      </trkpt>
      <trkpt lat="44.15819" lon="5.01091">
        <ele>449</ele>
        <time>2020-09-08T09:38:17Z</time>
      </trkpt>
      <trkpt lat="44.15819" lon="5.01092">
        <ele>449.1</ele>
        <time>2020-09-08T09:38:18Z</time>
      </trkpt>
      <trkpt lat="44.15819" lon="5.01092">
        <ele>449.1</ele>
        <time>2020-09-08T09:38:19Z</time>
      </trkpt>
      <trkpt lat="44.15818" lon="5.01092">
        <ele>449.1</ele>
        <time>2020-09-08T09:38:20Z</time>
      </trkpt>
      <trkpt lat="44.15819" lon="5.01092">
        <ele>449.1</ele>
        <time>2020-09-08T09:38:21Z</time>
      </trkpt>
      <trkpt lat="44.15818" lon="5.01092">
        <ele>449.1</ele>
        <time>2020-09-08T09:38:22Z</time>
      </trkpt>
      <trkpt lat="44.15819" lon="5.01092">
        <ele>449.2</ele>
        <time>2020-09-08T09:38:23Z</time>
      </trkpt>
      <trkpt lat="44.15819" lon="5.01092">
        <ele>449.2</ele>
        <time>2020-09-08T09:38:24Z</time>
      </trkpt>
      <trkpt lat="44.15818" lon="5.01092">
        <ele>449.2</ele>
        <time>2020-09-08T09:38:25Z</time>
      </trkpt>
      <trkpt lat="44.15819" lon="5.01092">
        <ele>449.2</ele>
        <time>2020-09-08T09:38:26Z</time>
      </trkpt>
      <trkpt lat="44.15819" lon="5.01091">
        <ele>449.3</ele>
        <time>2020-09-08T09:38:27Z</time>
      </trkpt>
      <trkpt lat="44.15819" lon="5.01092">
        <ele>449.3</ele>
        <time>2020-09-08T09:38:28Z</time>
      </trkpt>
      <trkpt lat="44.15819" lon="5.01092">
        <ele>449.3</ele>
        <time>2020-09-08T09:38:29Z</time>
      </trkpt>
      <trkpt lat="44.15819" lon="5.01091">
        <ele>449.3</ele>
        <time>2020-09-08T09:38:30Z</time>
      </trkpt>
      <trkpt lat="44.15819" lon="5.01091">
        <ele>449.4</ele>
        <time>2020-09-08T09:38:31Z</time>
      </trkpt>
      <trkpt lat="44.15818" lon="5.01091">
        <ele>449.4</ele>
        <time>2020-09-08T09:38:32Z</time>
      </trkpt>
      <trkpt lat="44.15819" lon="5.01091">
        <ele>449.4</ele>
        <time>2020-09-08T09:38:33Z</time>
      </trkpt>
      <trkpt lat="44.15818" lon="5.01091">
        <ele>449.4</ele>
        <time>2020-09-08T09:38:34Z</time>
      </trkpt>
      <trkpt lat="44.15819" lon="5.01092">
        <ele>449.5</ele>
        <time>2020-09-08T09:38:35Z</time>
      </trkpt>
      <trkpt lat="44.15819" lon="5.01093">
        <ele>449.6</ele>
        <time>2020-09-08T09:38:36Z</time>
      </trkpt>
      <trkpt lat="44.15819" lon="5.01093">
        <ele>449.6</ele>
        <time>2020-09-08T09:38:37Z</time>
      </trkpt>
      <trkpt lat="44.15819" lon="5.01093">
        <ele>449.6</ele>
        <time>2020-09-08T09:38:38Z</time>
      </trkpt>
      <trkpt lat="44.15819" lon="5.01094">
        <ele>449.7</ele>
        <time>2020-09-08T09:38:39Z</time>
      </trkpt>
      <trkpt lat="44.15819" lon="5.01094">
        <ele>449.7</ele>
        <time>2020-09-08T09:38:40Z</time>
      </trkpt>
      <trkpt lat="44.15819" lon="5.01093">
        <ele>449.7</ele>
        <time>2020-09-08T09:38:41Z</time>
      </trkpt>
      <trkpt lat="44.15819" lon="5.01093">
        <ele>449.7</ele>
        <time>2020-09-08T09:38:42Z</time>
      </trkpt>
      <trkpt lat="44.15819" lon="5.01093">
        <ele>449.8</ele>
        <time>2020-09-08T09:38:43Z</time>
      </trkpt>
      <trkpt lat="44.15819" lon="5.01092">
        <ele>449.8</ele>
        <time>2020-09-08T09:38:44Z</time>
      </trkpt>
      <trkpt lat="44.15819" lon="5.01092">
        <ele>449.8</ele>
        <time>2020-09-08T09:38:45Z</time>
      </trkpt>
      <trkpt lat="44.15819" lon="5.01092">
        <ele>449.9</ele>
        <time>2020-09-08T09:38:46Z</time>
      </trkpt>
      <trkpt lat="44.15819" lon="5.01092">
        <ele>449.9</ele>
        <time>2020-09-08T09:38:47Z</time>
      </trkpt>
      <trkpt lat="44.15819" lon="5.01092">
        <ele>449.9</ele>
        <time>2020-09-08T09:38:48Z</time>
      </trkpt>
      <trkpt lat="44.15818" lon="5.01092">
        <ele>450</ele>
        <time>2020-09-08T09:38:49Z</time>
      </trkpt>
      <trkpt lat="44.15819" lon="5.01092">
        <ele>450</ele>
        <time>2020-09-08T09:38:50Z</time>
      </trkpt>
      <trkpt lat="44.15818" lon="5.01092">
        <ele>450</ele>
        <time>2020-09-08T09:38:51Z</time>
      </trkpt>
      <trkpt lat="44.15818" lon="5.01092">
        <ele>450</ele>
        <time>2020-09-08T09:38:52Z</time>
      </trkpt>
      <trkpt lat="44.15819" lon="5.01093">
        <ele>450</ele>
        <time>2020-09-08T09:38:53Z</time>
      </trkpt>
      <trkpt lat="44.15819" lon="5.01093">
        <ele>450</ele>
        <time>2020-09-08T09:38:54Z</time>
      </trkpt>
      <trkpt lat="44.15819" lon="5.01093">
        <ele>450</ele>
        <time>2020-09-08T09:38:55Z</time>
      </trkpt>
      <trkpt lat="44.15819" lon="5.01093">
        <ele>450.1</ele>
        <time>2020-09-08T09:38:56Z</time>
      </trkpt>
      <trkpt lat="44.15819" lon="5.01093">
        <ele>450.1</ele>
        <time>2020-09-08T09:38:57Z</time>
      </trkpt>
      <trkpt lat="44.15819" lon="5.01094">
        <ele>450.1</ele>
        <time>2020-09-08T09:38:58Z</time>
      </trkpt>
      <trkpt lat="44.15818" lon="5.01093">
        <ele>450.2</ele>
        <time>2020-09-08T09:38:59Z</time>
      </trkpt>
      <trkpt lat="44.15818" lon="5.01093">
        <ele>450.2</ele>
        <time>2020-09-08T09:39:00Z</time>
      </trkpt>
      <trkpt lat="44.15818" lon="5.01093">
        <ele>450.3</ele>
        <time>2020-09-08T09:39:01Z</time>
      </trkpt>
      <trkpt lat="44.15818" lon="5.01092">
        <ele>450.3</ele>
        <time>2020-09-08T09:39:02Z</time>
      </trkpt>
      <trkpt lat="44.15818" lon="5.01092">
        <ele>450.3</ele>
        <time>2020-09-08T09:39:03Z</time>
      </trkpt>
      <trkpt lat="44.15818" lon="5.01092">
        <ele>450.4</ele>
        <time>2020-09-08T09:39:04Z</time>
      </trkpt>
      <trkpt lat="44.15819" lon="5.01091">
        <ele>450.4</ele>
        <time>2020-09-08T09:39:05Z</time>
      </trkpt>
      <trkpt lat="44.15818" lon="5.01092">
        <ele>450.5</ele>
        <time>2020-09-08T09:39:06Z</time>
      </trkpt>
      <trkpt lat="44.15818" lon="5.01091">
        <ele>450.5</ele>
        <time>2020-09-08T09:39:07Z</time>
      </trkpt>
      <trkpt lat="44.15818" lon="5.01092">
        <ele>450.5</ele>
        <time>2020-09-08T09:39:08Z</time>
      </trkpt>
      <trkpt lat="44.15818" lon="5.01092">
        <ele>450.5</ele>
        <time>2020-09-08T09:39:09Z</time>
      </trkpt>
      <trkpt lat="44.15818" lon="5.01091">
        <ele>450.5</ele>
        <time>2020-09-08T09:39:10Z</time>
      </trkpt>
      <trkpt lat="44.15818" lon="5.01091">
        <ele>450.5</ele>
        <time>2020-09-08T09:39:11Z</time>
      </trkpt>
      <trkpt lat="44.15818" lon="5.01091">
        <ele>450.6</ele>
        <time>2020-09-08T09:39:12Z</time>
      </trkpt>
      <trkpt lat="44.15818" lon="5.01091">
        <ele>450.6</ele>
        <time>2020-09-08T09:39:13Z</time>
      </trkpt>
      <trkpt lat="44.15818" lon="5.01091">
        <ele>450.6</ele>
        <time>2020-09-08T09:39:14Z</time>
      </trkpt>
      <trkpt lat="44.15818" lon="5.01091">
        <ele>450.6</ele>
        <time>2020-09-08T09:39:15Z</time>
      </trkpt>
      <trkpt lat="44.15818" lon="5.01091">
        <ele>450.6</ele>
        <time>2020-09-08T09:39:16Z</time>
      </trkpt>
      <trkpt lat="44.15818" lon="5.01091">
        <ele>450.6</ele>
        <time>2020-09-08T09:39:17Z</time>
      </trkpt>
      <trkpt lat="44.15818" lon="5.01091">
        <ele>450.6</ele>
        <time>2020-09-08T09:39:18Z</time>
      </trkpt>
      <trkpt lat="44.15818" lon="5.01091">
        <ele>450.6</ele>
        <time>2020-09-08T09:39:19Z</time>
      </trkpt>
      <trkpt lat="44.15818" lon="5.01091">
        <ele>450.6</ele>
        <time>2020-09-08T09:39:20Z</time>
      </trkpt>
      <trkpt lat="44.15818" lon="5.01091">
        <ele>450.6</ele>
        <time>2020-09-08T09:39:21Z</time>
      </trkpt>
      <trkpt lat="44.15818" lon="5.01091">
        <ele>450.6</ele>
        <time>2020-09-08T09:39:22Z</time>
      </trkpt>
      <trkpt lat="44.15818" lon="5.01091">
        <ele>450.6</ele>
        <time>2020-09-08T09:39:23Z</time>
      </trkpt>
      <trkpt lat="44.15818" lon="5.01091">
        <ele>450.6</ele>
        <time>2020-09-08T09:39:24Z</time>
      </trkpt>
      <trkpt lat="44.15818" lon="5.01091">
        <ele>450.6</ele>
        <time>2020-09-08T09:39:25Z</time>
      </trkpt>
      <trkpt lat="44.15818" lon="5.01091">
        <ele>450.6</ele>
        <time>2020-09-08T09:39:26Z</time>
      </trkpt>
      <trkpt lat="44.15818" lon="5.01091">
        <ele>450.6</ele>
        <time>2020-09-08T09:39:27Z</time>
      </trkpt>
      <trkpt lat="44.15818" lon="5.01091">
        <ele>450.6</ele>
        <time>2020-09-08T09:39:28Z</time>
      </trkpt>
      <trkpt lat="44.15818" lon="5.01091">
        <ele>450.6</ele>
        <time>2020-09-08T09:39:29Z</time>
      </trkpt>
      <trkpt lat="44.15818" lon="5.01091">
        <ele>450.6</ele>
        <time>2020-09-08T09:39:30Z</time>
      </trkpt>
      <trkpt lat="44.15818" lon="5.01091">
        <ele>450.6</ele>
        <time>2020-09-08T09:39:31Z</time>
      </trkpt>
      <trkpt lat="44.15818" lon="5.01091">
        <ele>450.6</ele>
        <time>2020-09-08T09:39:32Z</time>
      </trkpt>
      <trkpt lat="44.15818" lon="5.01091">
        <ele>450.6</ele>
        <time>2020-09-08T09:39:33Z</time>
      </trkpt>
      <trkpt lat="44.15818" lon="5.01091">
        <ele>450.6</ele>
        <time>2020-09-08T09:39:34Z</time>
      </trkpt>
      <trkpt lat="44.15818" lon="5.01091">
        <ele>450.6</ele>
        <time>2020-09-08T09:39:35Z</time>
      </trkpt>
      <trkpt lat="44.15818" lon="5.01091">
        <ele>450.6</ele>
        <time>2020-09-08T09:39:36Z</time>
      </trkpt>
      <trkpt lat="44.15818" lon="5.01091">
        <ele>450.6</ele>
        <time>2020-09-08T09:39:37Z</time>
      </trkpt>
      <trkpt lat="44.15818" lon="5.01091">
        <ele>450.6</ele>
        <time>2020-09-08T09:39:38Z</time>
      </trkpt>
      <trkpt lat="44.15818" lon="5.01091">
        <ele>450.6</ele>
        <time>2020-09-08T09:39:39Z</time>
      </trkpt>
      <trkpt lat="44.15818" lon="5.01091">
        <ele>450.6</ele>
        <time>2020-09-08T09:39:40Z</time>
      </trkpt>
      <trkpt lat="44.15818" lon="5.01091">
        <ele>450.6</ele>
        <time>2020-09-08T09:39:41Z</time>
      </trkpt>
      <trkpt lat="44.15818" lon="5.01091">
        <ele>450.6</ele>
        <time>2020-09-08T09:39:42Z</time>
      </trkpt>
      <trkpt lat="44.15819" lon="5.01092">
        <ele>450.9</ele>
        <time>2020-09-08T09:39:43Z</time>
      </trkpt>
      <trkpt lat="44.1582" lon="5.01092">
        <ele>450.9</ele>
        <time>2020-09-08T09:39:44Z</time>
      </trkpt>
      <trkpt lat="44.1582" lon="5.01092">
        <ele>450.9</ele>
        <time>2020-09-08T09:39:45Z</time>
      </trkpt>
      <trkpt lat="44.1582" lon="5.01092">
        <ele>450.9</ele>
        <time>2020-09-08T09:39:46Z</time>
      </trkpt>
      <trkpt lat="44.1582" lon="5.01091">
        <ele>451</ele>
        <time>2020-09-08T09:39:47Z</time>
      </trkpt>
      <trkpt lat="44.1582" lon="5.01092">
        <ele>451</ele>
        <time>2020-09-08T09:39:48Z</time>
      </trkpt>
      <trkpt lat="44.1582" lon="5.01091">
        <ele>451.1</ele>
        <time>2020-09-08T09:39:49Z</time>
      </trkpt>
      <trkpt lat="44.1582" lon="5.01091">
        <ele>451.1</ele>
        <time>2020-09-08T09:39:50Z</time>
      </trkpt>
      <trkpt lat="44.1582" lon="5.01092">
        <ele>451.1</ele>
        <time>2020-09-08T09:39:51Z</time>
      </trkpt>
      <trkpt lat="44.1582" lon="5.01091">
        <ele>451.1</ele>
        <time>2020-09-08T09:39:52Z</time>
      </trkpt>
      <trkpt lat="44.15819" lon="5.01092">
        <ele>451.2</ele>
        <time>2020-09-08T09:39:53Z</time>
      </trkpt>
      <trkpt lat="44.1582" lon="5.01091">
        <ele>451.3</ele>
        <time>2020-09-08T09:39:54Z</time>
      </trkpt>
      <trkpt lat="44.1582" lon="5.01092">
        <ele>451.4</ele>
        <time>2020-09-08T09:39:55Z</time>
      </trkpt>
      <trkpt lat="44.15821" lon="5.01092">
        <ele>451.5</ele>
        <time>2020-09-08T09:39:56Z</time>
      </trkpt>
      <trkpt lat="44.15821" lon="5.01092">
        <ele>451.5</ele>
        <time>2020-09-08T09:39:57Z</time>
      </trkpt>
      <trkpt lat="44.15822" lon="5.01092">
        <ele>451.6</ele>
        <time>2020-09-08T09:39:58Z</time>
      </trkpt>
      <trkpt lat="44.15822" lon="5.01092">
        <ele>451.6</ele>
        <time>2020-09-08T09:39:59Z</time>
      </trkpt>
      <trkpt lat="44.15823" lon="5.01093">
        <ele>451.6</ele>
        <time>2020-09-08T09:40:00Z</time>
      </trkpt>
      <trkpt lat="44.15823" lon="5.01092">
        <ele>451.7</ele>
        <time>2020-09-08T09:40:01Z</time>
      </trkpt>
      <trkpt lat="44.15823" lon="5.01092">
        <ele>451.7</ele>
        <time>2020-09-08T09:40:02Z</time>
      </trkpt>
      <trkpt lat="44.15822" lon="5.01092">
        <ele>451.7</ele>
        <time>2020-09-08T09:40:03Z</time>
      </trkpt>
      <trkpt lat="44.15822" lon="5.01092">
        <ele>451.7</ele>
        <time>2020-09-08T09:40:04Z</time>
      </trkpt>
      <trkpt lat="44.15822" lon="5.01092">
        <ele>451.7</ele>
        <time>2020-09-08T09:40:05Z</time>
      </trkpt>
      <trkpt lat="44.15822" lon="5.01092">
        <ele>451.7</ele>
        <time>2020-09-08T09:40:06Z</time>
      </trkpt>
      <trkpt lat="44.15822" lon="5.01092">
        <ele>451.7</ele>
        <time>2020-09-08T09:40:07Z</time>
      </trkpt>
      <trkpt lat="44.15822" lon="5.01092">
        <ele>451.7</ele>
        <time>2020-09-08T09:40:08Z</time>
      </trkpt>
      <trkpt lat="44.15822" lon="5.01092">
        <ele>451.8</ele>
        <time>2020-09-08T09:40:09Z</time>
      </trkpt>
      <trkpt lat="44.15822" lon="5.01092">
        <ele>451.8</ele>
        <time>2020-09-08T09:40:10Z</time>
      </trkpt>
      <trkpt lat="44.15822" lon="5.01091">
        <ele>451.8</ele>
        <time>2020-09-08T09:40:11Z</time>
      </trkpt>
      <trkpt lat="44.15822" lon="5.01091">
        <ele>451.8</ele>
        <time>2020-09-08T09:40:12Z</time>
      </trkpt>
      <trkpt lat="44.15822" lon="5.01091">
        <ele>451.8</ele>
        <time>2020-09-08T09:40:13Z</time>
      </trkpt>
      <trkpt lat="44.15822" lon="5.01091">
        <ele>451.8</ele>
        <time>2020-09-08T09:40:14Z</time>
      </trkpt>
      <trkpt lat="44.15822" lon="5.01091">
        <ele>451.8</ele>
        <time>2020-09-08T09:40:15Z</time>
      </trkpt>
      <trkpt lat="44.15822" lon="5.01091">
        <ele>451.8</ele>
        <time>2020-09-08T09:40:16Z</time>
      </trkpt>
      <trkpt lat="44.15822" lon="5.01091">
        <ele>451.8</ele>
        <time>2020-09-08T09:40:17Z</time>
      </trkpt>
      <trkpt lat="44.15822" lon="5.01091">
        <ele>451.8</ele>
        <time>2020-09-08T09:40:18Z</time>
      </trkpt>
      <trkpt lat="44.15822" lon="5.01091">
        <ele>451.9</ele>
        <time>2020-09-08T09:40:19Z</time>
      </trkpt>
      <trkpt lat="44.15822" lon="5.01091">
        <ele>451.9</ele>
        <time>2020-09-08T09:40:20Z</time>
      </trkpt>
      <trkpt lat="44.15822" lon="5.0109">
        <ele>451.9</ele>
        <time>2020-09-08T09:40:21Z</time>
      </trkpt>
      <trkpt lat="44.15822" lon="5.0109">
        <ele>451.9</ele>
        <time>2020-09-08T09:40:22Z</time>
      </trkpt>
      <trkpt lat="44.15821" lon="5.0109">
        <ele>451.9</ele>
        <time>2020-09-08T09:40:23Z</time>
      </trkpt>
      <trkpt lat="44.15821" lon="5.0109">
        <ele>451.9</ele>
        <time>2020-09-08T09:40:24Z</time>
      </trkpt>
      <trkpt lat="44.15821" lon="5.0109">
        <ele>451.9</ele>
        <time>2020-09-08T09:40:25Z</time>
      </trkpt>
      <trkpt lat="44.15821" lon="5.0109">
        <ele>451.9</ele>
        <time>2020-09-08T09:40:26Z</time>
      </trkpt>
      <trkpt lat="44.15821" lon="5.0109">
        <ele>452</ele>
        <time>2020-09-08T09:40:27Z</time>
      </trkpt>
      <trkpt lat="44.15821" lon="5.0109">
        <ele>452</ele>
        <time>2020-09-08T09:40:28Z</time>
      </trkpt>
      <trkpt lat="44.15821" lon="5.0109">
        <ele>452</ele>
        <time>2020-09-08T09:40:29Z</time>
      </trkpt>
      <trkpt lat="44.15821" lon="5.0109">
        <ele>452</ele>
        <time>2020-09-08T09:40:30Z</time>
      </trkpt>
      <trkpt lat="44.15821" lon="5.01089">
        <ele>452</ele>
        <time>2020-09-08T09:40:31Z</time>
      </trkpt>
      <trkpt lat="44.15821" lon="5.01089">
        <ele>452</ele>
        <time>2020-09-08T09:40:32Z</time>
      </trkpt>
      <trkpt lat="44.15821" lon="5.01089">
        <ele>452</ele>
        <time>2020-09-08T09:40:33Z</time>
      </trkpt>
      <trkpt lat="44.15821" lon="5.01089">
        <ele>452</ele>
        <time>2020-09-08T09:40:34Z</time>
      </trkpt>
      <trkpt lat="44.15821" lon="5.01089">
        <ele>452</ele>
        <time>2020-09-08T09:40:35Z</time>
      </trkpt>
      <trkpt lat="44.15821" lon="5.01089">
        <ele>452.1</ele>
        <time>2020-09-08T09:40:36Z</time>
      </trkpt>
      <trkpt lat="44.15821" lon="5.01089">
        <ele>452.1</ele>
        <time>2020-09-08T09:40:37Z</time>
      </trkpt>
      <trkpt lat="44.15821" lon="5.01089">
        <ele>452.1</ele>
        <time>2020-09-08T09:40:38Z</time>
      </trkpt>
      <trkpt lat="44.15821" lon="5.01089">
        <ele>452.1</ele>
        <time>2020-09-08T09:40:39Z</time>
      </trkpt>
      <trkpt lat="44.15821" lon="5.01089">
        <ele>452.1</ele>
        <time>2020-09-08T09:40:40Z</time>
      </trkpt>
      <trkpt lat="44.15821" lon="5.01088">
        <ele>452.2</ele>
        <time>2020-09-08T09:40:41Z</time>
      </trkpt>
      <trkpt lat="44.15821" lon="5.01088">
        <ele>452.3</ele>
        <time>2020-09-08T09:40:42Z</time>
      </trkpt>
      <trkpt lat="44.1582" lon="5.01088">
        <ele>452.4</ele>
        <time>2020-09-08T09:40:43Z</time>
      </trkpt>
      <trkpt lat="44.1582" lon="5.01088">
        <ele>452.5</ele>
        <time>2020-09-08T09:40:44Z</time>
      </trkpt>
      <trkpt lat="44.1582" lon="5.01088">
        <ele>452.7</ele>
        <time>2020-09-08T09:40:45Z</time>
      </trkpt>
      <trkpt lat="44.15821" lon="5.01088">
        <ele>452.8</ele>
        <time>2020-09-08T09:40:46Z</time>
      </trkpt>
      <trkpt lat="44.15821" lon="5.01088">
        <ele>452.9</ele>
        <time>2020-09-08T09:40:47Z</time>
      </trkpt>
      <trkpt lat="44.15821" lon="5.01088">
        <ele>453.1</ele>
        <time>2020-09-08T09:40:48Z</time>
      </trkpt>
      <trkpt lat="44.15821" lon="5.01089">
        <ele>453.2</ele>
        <time>2020-09-08T09:40:49Z</time>
      </trkpt>
      <trkpt lat="44.15821" lon="5.01088">
        <ele>453.4</ele>
        <time>2020-09-08T09:40:50Z</time>
      </trkpt>
      <trkpt lat="44.15821" lon="5.01088">
        <ele>453.5</ele>
        <time>2020-09-08T09:40:51Z</time>
      </trkpt>
      <trkpt lat="44.15821" lon="5.01088">
        <ele>453.6</ele>
        <time>2020-09-08T09:40:52Z</time>
      </trkpt>
      <trkpt lat="44.15821" lon="5.01088">
        <ele>453.7</ele>
        <time>2020-09-08T09:40:53Z</time>
      </trkpt>
      <trkpt lat="44.15821" lon="5.01088">
        <ele>453.8</ele>
        <time>2020-09-08T09:40:54Z</time>
      </trkpt>
      <trkpt lat="44.1582" lon="5.01088">
        <ele>454</ele>
        <time>2020-09-08T09:40:55Z</time>
      </trkpt>
      <trkpt lat="44.1582" lon="5.01089">
        <ele>454.1</ele>
        <time>2020-09-08T09:40:56Z</time>
      </trkpt>
      <trkpt lat="44.1582" lon="5.01089">
        <ele>454.2</ele>
        <time>2020-09-08T09:40:57Z</time>
      </trkpt>
      <trkpt lat="44.1582" lon="5.01089">
        <ele>454.3</ele>
        <time>2020-09-08T09:40:58Z</time>
      </trkpt>
      <trkpt lat="44.15819" lon="5.01089">
        <ele>454.5</ele>
        <time>2020-09-08T09:40:59Z</time>
      </trkpt>
      <trkpt lat="44.15819" lon="5.01089">
        <ele>454.6</ele>
        <time>2020-09-08T09:41:00Z</time>
      </trkpt>
      <trkpt lat="44.15818" lon="5.01089">
        <ele>454.7</ele>
        <time>2020-09-08T09:41:01Z</time>
      </trkpt>
      <trkpt lat="44.15818" lon="5.01089">
        <ele>454.9</ele>
        <time>2020-09-08T09:41:02Z</time>
      </trkpt>
      <trkpt lat="44.15818" lon="5.01089">
        <ele>455</ele>
        <time>2020-09-08T09:41:03Z</time>
      </trkpt>
      <trkpt lat="44.15818" lon="5.01089">
        <ele>455.1</ele>
        <time>2020-09-08T09:41:04Z</time>
      </trkpt>
      <trkpt lat="44.15818" lon="5.01089">
        <ele>455.2</ele>
        <time>2020-09-08T09:41:05Z</time>
      </trkpt>
      <trkpt lat="44.15818" lon="5.0109">
        <ele>455.3</ele>
        <time>2020-09-08T09:41:06Z</time>
      </trkpt>
      <trkpt lat="44.15819" lon="5.01089">
        <ele>455.4</ele>
        <time>2020-09-08T09:41:07Z</time>
      </trkpt>
      <trkpt lat="44.15818" lon="5.01089">
        <ele>455.5</ele>
        <time>2020-09-08T09:41:08Z</time>
      </trkpt>
      <trkpt lat="44.15819" lon="5.0109">
        <ele>455.7</ele>
        <time>2020-09-08T09:41:09Z</time>
      </trkpt>
      <trkpt lat="44.15819" lon="5.01089">
        <ele>455.8</ele>
        <time>2020-09-08T09:41:10Z</time>
      </trkpt>
      <trkpt lat="44.15819" lon="5.01089">
        <ele>455.9</ele>
        <time>2020-09-08T09:41:11Z</time>
      </trkpt>
      <trkpt lat="44.15819" lon="5.01089">
        <ele>456</ele>
        <time>2020-09-08T09:41:12Z</time>
      </trkpt>
      <trkpt lat="44.15819" lon="5.01089">
        <ele>456.1</ele>
        <time>2020-09-08T09:41:13Z</time>
      </trkpt>
      <trkpt lat="44.1582" lon="5.0109">
        <ele>456.2</ele>
        <time>2020-09-08T09:41:14Z</time>
      </trkpt>
      <trkpt lat="44.15819" lon="5.0109">
        <ele>456.3</ele>
        <time>2020-09-08T09:41:15Z</time>
      </trkpt>
      <trkpt lat="44.15819" lon="5.0109">
        <ele>456.4</ele>
        <time>2020-09-08T09:41:16Z</time>
      </trkpt>
      <trkpt lat="44.15819" lon="5.0109">
        <ele>456.5</ele>
        <time>2020-09-08T09:41:17Z</time>
      </trkpt>
      <trkpt lat="44.15819" lon="5.0109">
        <ele>456.5</ele>
        <time>2020-09-08T09:41:18Z</time>
      </trkpt>
      <trkpt lat="44.15819" lon="5.0109">
        <ele>456.6</ele>
        <time>2020-09-08T09:41:19Z</time>
      </trkpt>
      <trkpt lat="44.15819" lon="5.0109">
        <ele>456.8</ele>
        <time>2020-09-08T09:41:20Z</time>
      </trkpt>
      <trkpt lat="44.1582" lon="5.0109">
        <ele>456.8</ele>
        <time>2020-09-08T09:41:21Z</time>
      </trkpt>
      <trkpt lat="44.1582" lon="5.0109">
        <ele>456.9</ele>
        <time>2020-09-08T09:41:22Z</time>
      </trkpt>
      <trkpt lat="44.1582" lon="5.0109">
        <ele>457</ele>
        <time>2020-09-08T09:41:23Z</time>
      </trkpt>
      <trkpt lat="44.1582" lon="5.0109">
        <ele>457</ele>
        <time>2020-09-08T09:41:24Z</time>
      </trkpt>
      <trkpt lat="44.1582" lon="5.0109">
        <ele>457.1</ele>
        <time>2020-09-08T09:41:25Z</time>
      </trkpt>
      <trkpt lat="44.1582" lon="5.0109">
        <ele>457.2</ele>
        <time>2020-09-08T09:41:26Z</time>
      </trkpt>
      <trkpt lat="44.1582" lon="5.0109">
        <ele>457.3</ele>
        <time>2020-09-08T09:41:27Z</time>
      </trkpt>
      <trkpt lat="44.1582" lon="5.0109">
        <ele>457.4</ele>
        <time>2020-09-08T09:41:28Z</time>
      </trkpt>
      <trkpt lat="44.1582" lon="5.0109">
        <ele>457.5</ele>
        <time>2020-09-08T09:41:29Z</time>
      </trkpt>
      <trkpt lat="44.1582" lon="5.01091">
        <ele>457.6</ele>
        <time>2020-09-08T09:41:30Z</time>
      </trkpt>
      <trkpt lat="44.1582" lon="5.0109">
        <ele>457.6</ele>
        <time>2020-09-08T09:41:31Z</time>
      </trkpt>
      <trkpt lat="44.1582" lon="5.0109">
        <ele>457.7</ele>
        <time>2020-09-08T09:41:32Z</time>
      </trkpt>
      <trkpt lat="44.1582" lon="5.0109">
        <ele>457.8</ele>
        <time>2020-09-08T09:41:33Z</time>
      </trkpt>
      <trkpt lat="44.1582" lon="5.01089">
        <ele>457.8</ele>
        <time>2020-09-08T09:41:34Z</time>
      </trkpt>
      <trkpt lat="44.1582" lon="5.01089">
        <ele>457.9</ele>
        <time>2020-09-08T09:41:35Z</time>
      </trkpt>
      <trkpt lat="44.15819" lon="5.01089">
        <ele>458</ele>
        <time>2020-09-08T09:41:36Z</time>
      </trkpt>
      <trkpt lat="44.15819" lon="5.01089">
        <ele>458.1</ele>
        <time>2020-09-08T09:41:37Z</time>
      </trkpt>
      <trkpt lat="44.15819" lon="5.01089">
        <ele>458.2</ele>
        <time>2020-09-08T09:41:38Z</time>
      </trkpt>
      <trkpt lat="44.15819" lon="5.01089">
        <ele>458.2</ele>
        <time>2020-09-08T09:41:39Z</time>
      </trkpt>
      <trkpt lat="44.1582" lon="5.01089">
        <ele>458.3</ele>
        <time>2020-09-08T09:41:40Z</time>
      </trkpt>
      <trkpt lat="44.1582" lon="5.01089">
        <ele>458.4</ele>
        <time>2020-09-08T09:41:41Z</time>
      </trkpt>
      <trkpt lat="44.1582" lon="5.01088">
        <ele>458.4</ele>
        <time>2020-09-08T09:41:42Z</time>
      </trkpt>
      <trkpt lat="44.1582" lon="5.01088">
        <ele>458.5</ele>
        <time>2020-09-08T09:41:43Z</time>
      </trkpt>
      <trkpt lat="44.1582" lon="5.01089">
        <ele>458.6</ele>
        <time>2020-09-08T09:41:44Z</time>
      </trkpt>
      <trkpt lat="44.1582" lon="5.01089">
        <ele>458.7</ele>
        <time>2020-09-08T09:41:45Z</time>
      </trkpt>
      <trkpt lat="44.1582" lon="5.01089">
        <ele>458.8</ele>
        <time>2020-09-08T09:41:46Z</time>
      </trkpt>
      <trkpt lat="44.1582" lon="5.01088">
        <ele>458.8</ele>
        <time>2020-09-08T09:41:47Z</time>
      </trkpt>
      <trkpt lat="44.1582" lon="5.01089">
        <ele>458.8</ele>
        <time>2020-09-08T09:41:48Z</time>
      </trkpt>
      <trkpt lat="44.15819" lon="5.01089">
        <ele>458.9</ele>
        <time>2020-09-08T09:41:49Z</time>
      </trkpt>
      <trkpt lat="44.15819" lon="5.0109">
        <ele>458.9</ele>
        <time>2020-09-08T09:41:50Z</time>
      </trkpt>
      <trkpt lat="44.15819" lon="5.01089">
        <ele>459</ele>
        <time>2020-09-08T09:41:51Z</time>
      </trkpt>
      <trkpt lat="44.15821" lon="5.01087">
        <ele>459</ele>
        <time>2020-09-08T09:41:52Z</time>
      </trkpt>
      <trkpt lat="44.1582" lon="5.01087">
        <ele>459</ele>
        <time>2020-09-08T09:41:53Z</time>
      </trkpt>
      <trkpt lat="44.15819" lon="5.01088">
        <ele>459</ele>
        <time>2020-09-08T09:41:54Z</time>
      </trkpt>
      <trkpt lat="44.15819" lon="5.01088">
        <ele>459.1</ele>
        <time>2020-09-08T09:41:55Z</time>
      </trkpt>
      <trkpt lat="44.15819" lon="5.01089">
        <ele>459.2</ele>
        <time>2020-09-08T09:41:56Z</time>
      </trkpt>
      <trkpt lat="44.15819" lon="5.01089">
        <ele>459.2</ele>
        <time>2020-09-08T09:41:57Z</time>
      </trkpt>
      <trkpt lat="44.15819" lon="5.01089">
        <ele>459.3</ele>
        <time>2020-09-08T09:41:58Z</time>
      </trkpt>
      <trkpt lat="44.15819" lon="5.01089">
        <ele>459.3</ele>
        <time>2020-09-08T09:41:59Z</time>
      </trkpt>
      <trkpt lat="44.15819" lon="5.01089">
        <ele>459.4</ele>
        <time>2020-09-08T09:42:00Z</time>
      </trkpt>
      <trkpt lat="44.15819" lon="5.01089">
        <ele>459.4</ele>
        <time>2020-09-08T09:42:01Z</time>
      </trkpt>
      <trkpt lat="44.15819" lon="5.01089">
        <ele>459.5</ele>
        <time>2020-09-08T09:42:02Z</time>
      </trkpt>
      <trkpt lat="44.15819" lon="5.01089">
        <ele>459.5</ele>
        <time>2020-09-08T09:42:03Z</time>
      </trkpt>
      <trkpt lat="44.15819" lon="5.01089">
        <ele>459.6</ele>
        <time>2020-09-08T09:42:04Z</time>
      </trkpt>
      <trkpt lat="44.15819" lon="5.01089">
        <ele>459.7</ele>
        <time>2020-09-08T09:42:05Z</time>
      </trkpt>
      <trkpt lat="44.15819" lon="5.01089">
        <ele>459.7</ele>
        <time>2020-09-08T09:42:06Z</time>
      </trkpt>
      <trkpt lat="44.15819" lon="5.01089">
        <ele>459.8</ele>
        <time>2020-09-08T09:42:07Z</time>
      </trkpt>
      <trkpt lat="44.15819" lon="5.01089">
        <ele>459.8</ele>
        <time>2020-09-08T09:42:08Z</time>
      </trkpt>
      <trkpt lat="44.15819" lon="5.01089">
        <ele>459.9</ele>
        <time>2020-09-08T09:42:09Z</time>
      </trkpt>
      <trkpt lat="44.15819" lon="5.01089">
        <ele>459.9</ele>
        <time>2020-09-08T09:42:10Z</time>
      </trkpt>
      <trkpt lat="44.15819" lon="5.01089">
        <ele>460</ele>
        <time>2020-09-08T09:42:11Z</time>
      </trkpt>
      <trkpt lat="44.15819" lon="5.01089">
        <ele>460.1</ele>
        <time>2020-09-08T09:42:12Z</time>
      </trkpt>
      <trkpt lat="44.15819" lon="5.01089">
        <ele>460.1</ele>
        <time>2020-09-08T09:42:13Z</time>
      </trkpt>
      <trkpt lat="44.15819" lon="5.01089">
        <ele>460.2</ele>
        <time>2020-09-08T09:42:14Z</time>
      </trkpt>
      <trkpt lat="44.15819" lon="5.01089">
        <ele>460.2</ele>
        <time>2020-09-08T09:42:15Z</time>
      </trkpt>
      <trkpt lat="44.15819" lon="5.01089">
        <ele>460.3</ele>
        <time>2020-09-08T09:42:16Z</time>
      </trkpt>
      <trkpt lat="44.15819" lon="5.01089">
        <ele>460.3</ele>
        <time>2020-09-08T09:42:17Z</time>
      </trkpt>
      <trkpt lat="44.15819" lon="5.01089">
        <ele>460.4</ele>
        <time>2020-09-08T09:42:18Z</time>
      </trkpt>
      <trkpt lat="44.15819" lon="5.01089">
        <ele>460.4</ele>
        <time>2020-09-08T09:42:19Z</time>
      </trkpt>
      <trkpt lat="44.15819" lon="5.01089">
        <ele>460.5</ele>
        <time>2020-09-08T09:42:20Z</time>
      </trkpt>
      <trkpt lat="44.15819" lon="5.01089">
        <ele>460.5</ele>
        <time>2020-09-08T09:42:21Z</time>
      </trkpt>
      <trkpt lat="44.15819" lon="5.01089">
        <ele>460.5</ele>
        <time>2020-09-08T09:42:22Z</time>
      </trkpt>
      <trkpt lat="44.15819" lon="5.01089">
        <ele>460.5</ele>
        <time>2020-09-08T09:42:23Z</time>
      </trkpt>
      <trkpt lat="44.15819" lon="5.01089">
        <ele>460.5</ele>
        <time>2020-09-08T09:42:24Z</time>
      </trkpt>
      <trkpt lat="44.15819" lon="5.01089">
        <ele>460.5</ele>
        <time>2020-09-08T09:42:25Z</time>
      </trkpt>
      <trkpt lat="44.15819" lon="5.01089">
        <ele>460.5</ele>
        <time>2020-09-08T09:42:26Z</time>
      </trkpt>
      <trkpt lat="44.15819" lon="5.01089">
        <ele>460.5</ele>
        <time>2020-09-08T09:42:27Z</time>
      </trkpt>
      <trkpt lat="44.15819" lon="5.01089">
        <ele>460.5</ele>
        <time>2020-09-08T09:42:28Z</time>
      </trkpt>
      <trkpt lat="44.15819" lon="5.01089">
        <ele>460.5</ele>
        <time>2020-09-08T09:42:29Z</time>
      </trkpt>
      <trkpt lat="44.15819" lon="5.01089">
        <ele>460.5</ele>
        <time>2020-09-08T09:42:30Z</time>
      </trkpt>
      <trkpt lat="44.15819" lon="5.01089">
        <ele>460.5</ele>
        <time>2020-09-08T09:42:31Z</time>
      </trkpt>
      <trkpt lat="44.15819" lon="5.01089">
        <ele>460.5</ele>
        <time>2020-09-08T09:42:32Z</time>
      </trkpt>
      <trkpt lat="44.15819" lon="5.01089">
        <ele>460.5</ele>
        <time>2020-09-08T09:42:33Z</time>
      </trkpt>
      <trkpt lat="44.15819" lon="5.01089">
        <ele>460.5</ele>
        <time>2020-09-08T09:42:34Z</time>
      </trkpt>
      <trkpt lat="44.15819" lon="5.01089">
        <ele>460.5</ele>
        <time>2020-09-08T09:42:35Z</time>
      </trkpt>
      <trkpt lat="44.15819" lon="5.01089">
        <ele>460.5</ele>
        <time>2020-09-08T09:42:36Z</time>
      </trkpt>
      <trkpt lat="44.15819" lon="5.01089">
        <ele>460.5</ele>
        <time>2020-09-08T09:42:37Z</time>
      </trkpt>
      <trkpt lat="44.15819" lon="5.01089">
        <ele>460.5</ele>
        <time>2020-09-08T09:42:38Z</time>
      </trkpt>
      <trkpt lat="44.15819" lon="5.01089">
        <ele>460.5</ele>
        <time>2020-09-08T09:42:39Z</time>
      </trkpt>
      <trkpt lat="44.15819" lon="5.01089">
        <ele>460.5</ele>
        <time>2020-09-08T09:42:40Z</time>
      </trkpt>
      <trkpt lat="44.15819" lon="5.01089">
        <ele>460.5</ele>
        <time>2020-09-08T09:42:41Z</time>
      </trkpt>
      <trkpt lat="44.15819" lon="5.01089">
        <ele>460.5</ele>
        <time>2020-09-08T09:42:42Z</time>
      </trkpt>
      <trkpt lat="44.15819" lon="5.01089">
        <ele>460.5</ele>
        <time>2020-09-08T09:42:43Z</time>
      </trkpt>
      <trkpt lat="44.15819" lon="5.01089">
        <ele>460.5</ele>
        <time>2020-09-08T09:42:44Z</time>
      </trkpt>
      <trkpt lat="44.15819" lon="5.01089">
        <ele>460.5</ele>
        <time>2020-09-08T09:42:45Z</time>
      </trkpt>
      <trkpt lat="44.15818" lon="5.01089">
        <ele>460.4</ele>
        <time>2020-09-08T09:42:46Z</time>
      </trkpt>
      <trkpt lat="44.15817" lon="5.01089">
        <ele>460.4</ele>
        <time>2020-09-08T09:42:47Z</time>
      </trkpt>
      <trkpt lat="44.15817" lon="5.01089">
        <ele>460.3</ele>
        <time>2020-09-08T09:42:48Z</time>
      </trkpt>
      <trkpt lat="44.15817" lon="5.01089">
        <ele>460.3</ele>
        <time>2020-09-08T09:42:49Z</time>
      </trkpt>
      <trkpt lat="44.15817" lon="5.01088">
        <ele>460.3</ele>
        <time>2020-09-08T09:42:50Z</time>
      </trkpt>
      <trkpt lat="44.15817" lon="5.01088">
        <ele>460.3</ele>
        <time>2020-09-08T09:42:51Z</time>
      </trkpt>
      <trkpt lat="44.15817" lon="5.01088">
        <ele>460.2</ele>
        <time>2020-09-08T09:42:52Z</time>
      </trkpt>
      <trkpt lat="44.15817" lon="5.01088">
        <ele>460.2</ele>
        <time>2020-09-08T09:42:53Z</time>
      </trkpt>
      <trkpt lat="44.15816" lon="5.01088">
        <ele>460.2</ele>
        <time>2020-09-08T09:42:54Z</time>
      </trkpt>
      <trkpt lat="44.15816" lon="5.01088">
        <ele>460.2</ele>
        <time>2020-09-08T09:42:55Z</time>
      </trkpt>
      <trkpt lat="44.15816" lon="5.01087">
        <ele>460.2</ele>
        <time>2020-09-08T09:42:56Z</time>
      </trkpt>
      <trkpt lat="44.15816" lon="5.01087">
        <ele>460.1</ele>
        <time>2020-09-08T09:42:57Z</time>
      </trkpt>
      <trkpt lat="44.15816" lon="5.01086">
        <ele>460.1</ele>
        <time>2020-09-08T09:42:58Z</time>
      </trkpt>
      <trkpt lat="44.15816" lon="5.01085">
        <ele>460.1</ele>
        <time>2020-09-08T09:42:59Z</time>
      </trkpt>
      <trkpt lat="44.15816" lon="5.01085">
        <ele>460</ele>
        <time>2020-09-08T09:43:00Z</time>
      </trkpt>
      <trkpt lat="44.15815" lon="5.01084">
        <ele>460</ele>
        <time>2020-09-08T09:43:01Z</time>
      </trkpt>
      <trkpt lat="44.15816" lon="5.01083">
        <ele>459.9</ele>
        <time>2020-09-08T09:43:02Z</time>
      </trkpt>
      <trkpt lat="44.15815" lon="5.01082">
        <ele>459.9</ele>
        <time>2020-09-08T09:43:03Z</time>
      </trkpt>
      <trkpt lat="44.15815" lon="5.01082">
        <ele>459.8</ele>
        <time>2020-09-08T09:43:04Z</time>
      </trkpt>
      <trkpt lat="44.15816" lon="5.01082">
        <ele>459.8</ele>
        <time>2020-09-08T09:43:05Z</time>
      </trkpt>
      <trkpt lat="44.15816" lon="5.01082">
        <ele>459.8</ele>
        <time>2020-09-08T09:43:06Z</time>
      </trkpt>
      <trkpt lat="44.15816" lon="5.01082">
        <ele>459.8</ele>
        <time>2020-09-08T09:43:07Z</time>
      </trkpt>
      <trkpt lat="44.15815" lon="5.01081">
        <ele>459.7</ele>
        <time>2020-09-08T09:43:08Z</time>
      </trkpt>
      <trkpt lat="44.15815" lon="5.01081">
        <ele>459.7</ele>
        <time>2020-09-08T09:43:09Z</time>
      </trkpt>
      <trkpt lat="44.15815" lon="5.01081">
        <ele>459.7</ele>
        <time>2020-09-08T09:43:10Z</time>
      </trkpt>
      <trkpt lat="44.15814" lon="5.01081">
        <ele>459.7</ele>
        <time>2020-09-08T09:43:11Z</time>
      </trkpt>
      <trkpt lat="44.15814" lon="5.01081">
        <ele>459.6</ele>
        <time>2020-09-08T09:43:12Z</time>
      </trkpt>
      <trkpt lat="44.15814" lon="5.0108">
        <ele>459.6</ele>
        <time>2020-09-08T09:43:13Z</time>
      </trkpt>
      <trkpt lat="44.15813" lon="5.0108">
        <ele>459.6</ele>
        <time>2020-09-08T09:43:14Z</time>
      </trkpt>
      <trkpt lat="44.15813" lon="5.0108">
        <ele>459.6</ele>
        <time>2020-09-08T09:43:15Z</time>
      </trkpt>
      <trkpt lat="44.15813" lon="5.0108">
        <ele>459.5</ele>
        <time>2020-09-08T09:43:16Z</time>
      </trkpt>
      <trkpt lat="44.15812" lon="5.0108">
        <ele>459.5</ele>
        <time>2020-09-08T09:43:17Z</time>
      </trkpt>
      <trkpt lat="44.15812" lon="5.0108">
        <ele>459.5</ele>
        <time>2020-09-08T09:43:18Z</time>
      </trkpt>
      <trkpt lat="44.15812" lon="5.0108">
        <ele>459.5</ele>
        <time>2020-09-08T09:43:19Z</time>
      </trkpt>
      <trkpt lat="44.15812" lon="5.0108">
        <ele>459.5</ele>
        <time>2020-09-08T09:43:20Z</time>
      </trkpt>
      <trkpt lat="44.15811" lon="5.0108">
        <ele>459.4</ele>
        <time>2020-09-08T09:43:21Z</time>
      </trkpt>
      <trkpt lat="44.1581" lon="5.01081">
        <ele>459.3</ele>
        <time>2020-09-08T09:43:22Z</time>
      </trkpt>
      <trkpt lat="44.15809" lon="5.01081">
        <ele>459.3</ele>
        <time>2020-09-08T09:43:23Z</time>
      </trkpt>
      <trkpt lat="44.1581" lon="5.01081">
        <ele>459.2</ele>
        <time>2020-09-08T09:43:24Z</time>
      </trkpt>
      <trkpt lat="44.15809" lon="5.01083">
        <ele>459.2</ele>
        <time>2020-09-08T09:43:25Z</time>
      </trkpt>
      <trkpt lat="44.15809" lon="5.01082">
        <ele>459.1</ele>
        <time>2020-09-08T09:43:26Z</time>
      </trkpt>
      <trkpt lat="44.15809" lon="5.01083">
        <ele>459.1</ele>
        <time>2020-09-08T09:43:27Z</time>
      </trkpt>
      <trkpt lat="44.15809" lon="5.01084">
        <ele>459</ele>
        <time>2020-09-08T09:43:28Z</time>
      </trkpt>
      <trkpt lat="44.15808" lon="5.01085">
        <ele>458.9</ele>
        <time>2020-09-08T09:43:29Z</time>
      </trkpt>
      <trkpt lat="44.15807" lon="5.01086">
        <ele>458.9</ele>
        <time>2020-09-08T09:43:30Z</time>
      </trkpt>
      <trkpt lat="44.15807" lon="5.01088">
        <ele>458.8</ele>
        <time>2020-09-08T09:43:31Z</time>
      </trkpt>
      <trkpt lat="44.15807" lon="5.01091">
        <ele>458.6</ele>
        <time>2020-09-08T09:43:32Z</time>
      </trkpt>
      <trkpt lat="44.15807" lon="5.01093">
        <ele>458.5</ele>
        <time>2020-09-08T09:43:33Z</time>
      </trkpt>
      <trkpt lat="44.15807" lon="5.01095">
        <ele>458.4</ele>
        <time>2020-09-08T09:43:34Z</time>
      </trkpt>
      <trkpt lat="44.15806" lon="5.01096">
        <ele>458.3</ele>
        <time>2020-09-08T09:43:35Z</time>
      </trkpt>
      <trkpt lat="44.15806" lon="5.01101">
        <ele>457.4</ele>
        <time>2020-09-08T09:43:36Z</time>
      </trkpt>
      <trkpt lat="44.15806" lon="5.01102">
        <ele>457.1</ele>
        <time>2020-09-08T09:43:37Z</time>
      </trkpt>
      <trkpt lat="44.15805" lon="5.01103">
        <ele>456.9</ele>
        <time>2020-09-08T09:43:38Z</time>
      </trkpt>
      <trkpt lat="44.15805" lon="5.01104">
        <ele>456.7</ele>
        <time>2020-09-08T09:43:39Z</time>
      </trkpt>
      <trkpt lat="44.15805" lon="5.01106">
        <ele>456.3</ele>
        <time>2020-09-08T09:43:40Z</time>
      </trkpt>
      <trkpt lat="44.15804" lon="5.01107">
        <ele>456</ele>
        <time>2020-09-08T09:43:41Z</time>
      </trkpt>
      <trkpt lat="44.15803" lon="5.01109">
        <ele>455.6</ele>
        <time>2020-09-08T09:43:42Z</time>
      </trkpt>
      <trkpt lat="44.15803" lon="5.0111">
        <ele>455.4</ele>
        <time>2020-09-08T09:43:43Z</time>
      </trkpt>
      <trkpt lat="44.15802" lon="5.01111">
        <ele>455.2</ele>
        <time>2020-09-08T09:43:44Z</time>
      </trkpt>
      <trkpt lat="44.15802" lon="5.01111">
        <ele>455</ele>
        <time>2020-09-08T09:43:45Z</time>
      </trkpt>
      <trkpt lat="44.15802" lon="5.01114">
        <ele>454.5</ele>
        <time>2020-09-08T09:43:46Z</time>
      </trkpt>
      <trkpt lat="44.15802" lon="5.01116">
        <ele>454</ele>
        <time>2020-09-08T09:43:47Z</time>
      </trkpt>
      <trkpt lat="44.15801" lon="5.01117">
        <ele>453.8</ele>
        <time>2020-09-08T09:43:48Z</time>
      </trkpt>
      <trkpt lat="44.158" lon="5.01119">
        <ele>453.2</ele>
        <time>2020-09-08T09:43:49Z</time>
      </trkpt>
      <trkpt lat="44.15799" lon="5.01121">
        <ele>452.6</ele>
        <time>2020-09-08T09:43:50Z</time>
      </trkpt>
      <trkpt lat="44.15798" lon="5.01123">
        <ele>452.1</ele>
        <time>2020-09-08T09:43:51Z</time>
      </trkpt>
      <trkpt lat="44.15795" lon="5.01125">
        <ele>451.1</ele>
        <time>2020-09-08T09:43:52Z</time>
      </trkpt>
      <trkpt lat="44.15794" lon="5.01126">
        <ele>450.8</ele>
        <time>2020-09-08T09:43:53Z</time>
      </trkpt>
      <trkpt lat="44.15794" lon="5.01126">
        <ele>450.5</ele>
        <time>2020-09-08T09:43:54Z</time>
      </trkpt>
      <trkpt lat="44.15793" lon="5.01125">
        <ele>450.2</ele>
        <time>2020-09-08T09:43:55Z</time>
      </trkpt>
      <trkpt lat="44.15791" lon="5.01125">
        <ele>449.8</ele>
        <time>2020-09-08T09:43:56Z</time>
      </trkpt>
      <trkpt lat="44.15789" lon="5.01126">
        <ele>449.1</ele>
        <time>2020-09-08T09:43:57Z</time>
      </trkpt>
      <trkpt lat="44.15788" lon="5.01127">
        <ele>448.8</ele>
        <time>2020-09-08T09:43:58Z</time>
      </trkpt>
      <trkpt lat="44.15787" lon="5.01127">
        <ele>448.5</ele>
        <time>2020-09-08T09:43:59Z</time>
      </trkpt>
      <trkpt lat="44.15787" lon="5.01127">
        <ele>448.3</ele>
        <time>2020-09-08T09:44:00Z</time>
      </trkpt>
      <trkpt lat="44.15786" lon="5.01127">
        <ele>448.1</ele>
        <time>2020-09-08T09:44:01Z</time>
      </trkpt>
      <trkpt lat="44.15785" lon="5.01125">
        <ele>447.5</ele>
        <time>2020-09-08T09:44:02Z</time>
      </trkpt>
      <trkpt lat="44.15783" lon="5.01124">
        <ele>447</ele>
        <time>2020-09-08T09:44:03Z</time>
      </trkpt>
      <trkpt lat="44.15782" lon="5.01124">
        <ele>446.6</ele>
        <time>2020-09-08T09:44:04Z</time>
      </trkpt>
      <trkpt lat="44.15781" lon="5.01125">
        <ele>446.3</ele>
        <time>2020-09-08T09:44:05Z</time>
      </trkpt>
      <trkpt lat="44.1578" lon="5.01125">
        <ele>446</ele>
        <time>2020-09-08T09:44:06Z</time>
      </trkpt>
      <trkpt lat="44.15779" lon="5.01125">
        <ele>445.6</ele>
        <time>2020-09-08T09:44:07Z</time>
      </trkpt>
      <trkpt lat="44.15777" lon="5.01126">
        <ele>445.1</ele>
        <time>2020-09-08T09:44:08Z</time>
      </trkpt>
      <trkpt lat="44.15776" lon="5.01126">
        <ele>444.8</ele>
        <time>2020-09-08T09:44:09Z</time>
      </trkpt>
      <trkpt lat="44.15775" lon="5.01125">
        <ele>444.4</ele>
        <time>2020-09-08T09:44:10Z</time>
      </trkpt>
      <trkpt lat="44.15772" lon="5.01125">
        <ele>443.4</ele>
        <time>2020-09-08T09:44:11Z</time>
      </trkpt>
      <trkpt lat="44.15771" lon="5.01125">
        <ele>443</ele>
        <time>2020-09-08T09:44:12Z</time>
      </trkpt>
      <trkpt lat="44.15767" lon="5.01124">
        <ele>441.8</ele>
        <time>2020-09-08T09:44:13Z</time>
      </trkpt>
      <trkpt lat="44.15766" lon="5.01124">
        <ele>441.5</ele>
        <time>2020-09-08T09:44:14Z</time>
      </trkpt>
      <trkpt lat="44.15764" lon="5.01124">
        <ele>440.9</ele>
        <time>2020-09-08T09:44:15Z</time>
      </trkpt>
      <trkpt lat="44.15763" lon="5.01123">
        <ele>440.4</ele>
        <time>2020-09-08T09:44:16Z</time>
      </trkpt>
      <trkpt lat="44.15759" lon="5.01126">
        <ele>439.3</ele>
        <time>2020-09-08T09:44:17Z</time>
      </trkpt>
      <trkpt lat="44.15758" lon="5.01127">
        <ele>438.8</ele>
        <time>2020-09-08T09:44:18Z</time>
      </trkpt>
      <trkpt lat="44.15755" lon="5.01128">
        <ele>438</ele>
        <time>2020-09-08T09:44:19Z</time>
      </trkpt>
      <trkpt lat="44.15752" lon="5.01129">
        <ele>437.1</ele>
        <time>2020-09-08T09:44:20Z</time>
      </trkpt>
      <trkpt lat="44.1575" lon="5.01128">
        <ele>436.6</ele>
        <time>2020-09-08T09:44:21Z</time>
      </trkpt>
      <trkpt lat="44.15747" lon="5.01126">
        <ele>435.7</ele>
        <time>2020-09-08T09:44:22Z</time>
      </trkpt>
      <trkpt lat="44.15745" lon="5.01126">
        <ele>435.3</ele>
        <time>2020-09-08T09:44:23Z</time>
      </trkpt>
      <trkpt lat="44.15742" lon="5.01126">
        <ele>434.6</ele>
        <time>2020-09-08T09:44:24Z</time>
      </trkpt>
      <trkpt lat="44.15741" lon="5.01126">
        <ele>434.4</ele>
        <time>2020-09-08T09:44:25Z</time>
      </trkpt>
      <trkpt lat="44.15738" lon="5.01126">
        <ele>433.9</ele>
        <time>2020-09-08T09:44:26Z</time>
      </trkpt>
      <trkpt lat="44.15737" lon="5.01127">
        <ele>433.7</ele>
        <time>2020-09-08T09:44:27Z</time>
      </trkpt>
      <trkpt lat="44.15736" lon="5.01127">
        <ele>433.4</ele>
        <time>2020-09-08T09:44:28Z</time>
      </trkpt>
      <trkpt lat="44.15734" lon="5.01128">
        <ele>433.2</ele>
        <time>2020-09-08T09:44:29Z</time>
      </trkpt>
      <trkpt lat="44.15732" lon="5.01129">
        <ele>431.1</ele>
        <time>2020-09-08T09:44:30Z</time>
      </trkpt>
      <trkpt lat="44.15731" lon="5.01129">
        <ele>431.1</ele>
        <time>2020-09-08T09:44:31Z</time>
      </trkpt>
      <trkpt lat="44.15729" lon="5.01129">
        <ele>431.1</ele>
        <time>2020-09-08T09:44:32Z</time>
      </trkpt>
      <trkpt lat="44.1573" lon="5.01128">
        <ele>431.2</ele>
        <time>2020-09-08T09:44:33Z</time>
      </trkpt>
      <trkpt lat="44.15731" lon="5.01128">
        <ele>431.2</ele>
        <time>2020-09-08T09:44:34Z</time>
      </trkpt>
      <trkpt lat="44.15732" lon="5.01129">
        <ele>431.2</ele>
        <time>2020-09-08T09:44:35Z</time>
      </trkpt>
      <trkpt lat="44.15732" lon="5.0113">
        <ele>431.2</ele>
        <time>2020-09-08T09:44:36Z</time>
      </trkpt>
      <trkpt lat="44.15732" lon="5.0113">
        <ele>431.2</ele>
        <time>2020-09-08T09:44:37Z</time>
      </trkpt>
      <trkpt lat="44.15731" lon="5.0113">
        <ele>431.2</ele>
        <time>2020-09-08T09:44:38Z</time>
      </trkpt>
      <trkpt lat="44.15731" lon="5.0113">
        <ele>431.2</ele>
        <time>2020-09-08T09:44:40Z</time>
      </trkpt>
      <trkpt lat="44.15731" lon="5.01129">
        <ele>431.2</ele>
        <time>2020-09-08T09:44:41Z</time>
      </trkpt>
      <trkpt lat="44.15731" lon="5.01129">
        <ele>431.2</ele>
        <time>2020-09-08T09:44:42Z</time>
      </trkpt>
      <trkpt lat="44.15731" lon="5.01129">
        <ele>431.2</ele>
        <time>2020-09-08T09:44:43Z</time>
      </trkpt>
      <trkpt lat="44.15731" lon="5.01129">
        <ele>431.2</ele>
        <time>2020-09-08T09:44:44Z</time>
      </trkpt>
      <trkpt lat="44.15731" lon="5.0113">
        <ele>431.2</ele>
        <time>2020-09-08T09:44:45Z</time>
      </trkpt>
      <trkpt lat="44.15731" lon="5.0113">
        <ele>431.2</ele>
        <time>2020-09-08T09:44:46Z</time>
      </trkpt>
      <trkpt lat="44.15731" lon="5.0113">
        <ele>431.2</ele>
        <time>2020-09-08T09:44:47Z</time>
      </trkpt>
      <trkpt lat="44.15733" lon="5.0113">
        <ele>431.2</ele>
        <time>2020-09-08T09:44:48Z</time>
      </trkpt>
      <trkpt lat="44.15733" lon="5.0113">
        <ele>431.2</ele>
        <time>2020-09-08T09:44:49Z</time>
      </trkpt>
      <trkpt lat="44.15733" lon="5.0113">
        <ele>431.2</ele>
        <time>2020-09-08T09:44:50Z</time>
      </trkpt>
      <trkpt lat="44.15733" lon="5.0113">
        <ele>431.2</ele>
        <time>2020-09-08T09:44:51Z</time>
      </trkpt>
      <trkpt lat="44.15733" lon="5.01131">
        <ele>431.2</ele>
        <time>2020-09-08T09:44:52Z</time>
      </trkpt>
      <trkpt lat="44.15732" lon="5.0113">
        <ele>431.2</ele>
        <time>2020-09-08T09:44:54Z</time>
      </trkpt>
      <trkpt lat="44.15732" lon="5.0113">
        <ele>431.2</ele>
        <time>2020-09-08T09:44:55Z</time>
      </trkpt>
      <trkpt lat="44.15732" lon="5.0113">
        <ele>431.2</ele>
        <time>2020-09-08T09:44:56Z</time>
      </trkpt>
      <trkpt lat="44.15731" lon="5.0113">
        <ele>431.2</ele>
        <time>2020-09-08T09:44:57Z</time>
      </trkpt>
      <trkpt lat="44.15731" lon="5.0113">
        <ele>431.2</ele>
        <time>2020-09-08T09:44:59Z</time>
      </trkpt>
      <trkpt lat="44.15731" lon="5.01129">
        <ele>431.2</ele>
        <time>2020-09-08T09:45:00Z</time>
      </trkpt>
      <trkpt lat="44.1573" lon="5.01129">
        <ele>431.2</ele>
        <time>2020-09-08T09:45:01Z</time>
      </trkpt>
      <trkpt lat="44.15729" lon="5.01129">
        <ele>431.2</ele>
        <time>2020-09-08T09:45:02Z</time>
      </trkpt>
      <trkpt lat="44.15729" lon="5.01129">
        <ele>431.2</ele>
        <time>2020-09-08T09:45:03Z</time>
      </trkpt>
      <trkpt lat="44.15729" lon="5.01129">
        <ele>431.2</ele>
        <time>2020-09-08T09:45:04Z</time>
      </trkpt>
      <trkpt lat="44.1573" lon="5.01129">
        <ele>431.2</ele>
        <time>2020-09-08T09:45:05Z</time>
      </trkpt>
      <trkpt lat="44.1573" lon="5.01129">
        <ele>431.2</ele>
        <time>2020-09-08T09:45:06Z</time>
      </trkpt>
      <trkpt lat="44.1573" lon="5.01129">
        <ele>431.2</ele>
        <time>2020-09-08T09:45:07Z</time>
      </trkpt>
      <trkpt lat="44.1573" lon="5.01129">
        <ele>431.2</ele>
        <time>2020-09-08T09:45:08Z</time>
      </trkpt>
      <trkpt lat="44.1573" lon="5.01129">
        <ele>431.2</ele>
        <time>2020-09-08T09:45:09Z</time>
      </trkpt>
      <trkpt lat="44.1573" lon="5.0113">
        <ele>431.2</ele>
        <time>2020-09-08T09:45:10Z</time>
      </trkpt>
      <trkpt lat="44.1573" lon="5.0113">
        <ele>431.2</ele>
        <time>2020-09-08T09:45:11Z</time>
      </trkpt>
      <trkpt lat="44.1573" lon="5.0113">
        <ele>431.2</ele>
        <time>2020-09-08T09:45:12Z</time>
      </trkpt>
      <trkpt lat="44.15729" lon="5.0113">
        <ele>431.2</ele>
        <time>2020-09-08T09:45:13Z</time>
      </trkpt>
      <trkpt lat="44.15729" lon="5.0113">
        <ele>431.2</ele>
        <time>2020-09-08T09:45:14Z</time>
      </trkpt>
      <trkpt lat="44.15729" lon="5.01131">
        <ele>431.2</ele>
        <time>2020-09-08T09:45:15Z</time>
      </trkpt>
      <trkpt lat="44.15729" lon="5.01132">
        <ele>431.2</ele>
        <time>2020-09-08T09:45:16Z</time>
      </trkpt>
      <trkpt lat="44.15729" lon="5.01132">
        <ele>431.2</ele>
        <time>2020-09-08T09:45:17Z</time>
      </trkpt>
      <trkpt lat="44.15728" lon="5.01133">
        <ele>431.2</ele>
        <time>2020-09-08T09:45:18Z</time>
      </trkpt>
      <trkpt lat="44.15726" lon="5.01135">
        <ele>431.2</ele>
        <time>2020-09-08T09:45:19Z</time>
      </trkpt>
      <trkpt lat="44.15727" lon="5.01136">
        <ele>431.2</ele>
        <time>2020-09-08T09:45:20Z</time>
      </trkpt>
      <trkpt lat="44.15726" lon="5.01136">
        <ele>431.2</ele>
        <time>2020-09-08T09:45:21Z</time>
      </trkpt>
      <trkpt lat="44.15727" lon="5.01136">
        <ele>431.3</ele>
        <time>2020-09-08T09:45:22Z</time>
      </trkpt>
      <trkpt lat="44.15727" lon="5.01135">
        <ele>431.3</ele>
        <time>2020-09-08T09:45:23Z</time>
      </trkpt>
      <trkpt lat="44.15726" lon="5.01134">
        <ele>431.3</ele>
        <time>2020-09-08T09:45:24Z</time>
      </trkpt>
      <trkpt lat="44.15726" lon="5.01134">
        <ele>431.3</ele>
        <time>2020-09-08T09:45:25Z</time>
      </trkpt>
      <trkpt lat="44.15726" lon="5.01132">
        <ele>431.3</ele>
        <time>2020-09-08T09:45:26Z</time>
      </trkpt>
      <trkpt lat="44.15727" lon="5.01132">
        <ele>431.3</ele>
        <time>2020-09-08T09:45:27Z</time>
      </trkpt>
      <trkpt lat="44.15726" lon="5.01132">
        <ele>431.3</ele>
        <time>2020-09-08T09:45:28Z</time>
      </trkpt>
      <trkpt lat="44.15726" lon="5.01132">
        <ele>431.3</ele>
        <time>2020-09-08T09:45:29Z</time>
      </trkpt>
      <trkpt lat="44.15725" lon="5.01132">
        <ele>431.3</ele>
        <time>2020-09-08T09:45:30Z</time>
      </trkpt>
      <trkpt lat="44.15725" lon="5.01133">
        <ele>431.3</ele>
        <time>2020-09-08T09:45:31Z</time>
      </trkpt>
      <trkpt lat="44.15726" lon="5.01134">
        <ele>431.3</ele>
        <time>2020-09-08T09:45:32Z</time>
      </trkpt>
      <trkpt lat="44.15726" lon="5.01134">
        <ele>431.3</ele>
        <time>2020-09-08T09:45:33Z</time>
      </trkpt>
      <trkpt lat="44.15728" lon="5.01136">
        <ele>431.3</ele>
        <time>2020-09-08T09:45:34Z</time>
      </trkpt>
      <trkpt lat="44.15728" lon="5.01137">
        <ele>431.3</ele>
        <time>2020-09-08T09:45:35Z</time>
      </trkpt>
      <trkpt lat="44.15728" lon="5.01139">
        <ele>431.3</ele>
        <time>2020-09-08T09:45:36Z</time>
      </trkpt>
      <trkpt lat="44.15727" lon="5.01141">
        <ele>431.3</ele>
        <time>2020-09-08T09:45:37Z</time>
      </trkpt>
      <trkpt lat="44.15725" lon="5.01142">
        <ele>431.3</ele>
        <time>2020-09-08T09:45:38Z</time>
      </trkpt>
      <trkpt lat="44.15723" lon="5.01143">
        <ele>431.3</ele>
        <time>2020-09-08T09:45:39Z</time>
      </trkpt>
      <trkpt lat="44.15722" lon="5.01145">
        <ele>431.3</ele>
        <time>2020-09-08T09:45:40Z</time>
      </trkpt>
      <trkpt lat="44.15721" lon="5.01147">
        <ele>431.3</ele>
        <time>2020-09-08T09:45:41Z</time>
      </trkpt>
      <trkpt lat="44.15721" lon="5.01148">
        <ele>431.3</ele>
        <time>2020-09-08T09:45:42Z</time>
      </trkpt>
      <trkpt lat="44.1572" lon="5.01148">
        <ele>431.3</ele>
        <time>2020-09-08T09:45:43Z</time>
      </trkpt>
      <trkpt lat="44.1572" lon="5.01149">
        <ele>431.3</ele>
        <time>2020-09-08T09:45:44Z</time>
      </trkpt>
      <trkpt lat="44.15719" lon="5.0115">
        <ele>431.3</ele>
        <time>2020-09-08T09:45:45Z</time>
      </trkpt>
      <trkpt lat="44.15717" lon="5.0115">
        <ele>431.3</ele>
        <time>2020-09-08T09:45:46Z</time>
      </trkpt>
      <trkpt lat="44.15717" lon="5.0115">
        <ele>431.3</ele>
        <time>2020-09-08T09:45:47Z</time>
      </trkpt>
      <trkpt lat="44.15715" lon="5.01152">
        <ele>431.3</ele>
        <time>2020-09-08T09:45:48Z</time>
      </trkpt>
      <trkpt lat="44.15715" lon="5.01152">
        <ele>431.3</ele>
        <time>2020-09-08T09:45:49Z</time>
      </trkpt>
      <trkpt lat="44.15715" lon="5.01152">
        <ele>431.3</ele>
        <time>2020-09-08T09:45:50Z</time>
      </trkpt>
      <trkpt lat="44.15714" lon="5.01154">
        <ele>431.3</ele>
        <time>2020-09-08T09:45:51Z</time>
      </trkpt>
      <trkpt lat="44.15713" lon="5.01156">
        <ele>431.3</ele>
        <time>2020-09-08T09:45:52Z</time>
      </trkpt>
      <trkpt lat="44.15712" lon="5.01157">
        <ele>431.3</ele>
        <time>2020-09-08T09:45:53Z</time>
      </trkpt>
      <trkpt lat="44.15712" lon="5.01157">
        <ele>431.3</ele>
        <time>2020-09-08T09:45:54Z</time>
      </trkpt>
      <trkpt lat="44.15711" lon="5.01155">
        <ele>431.6</ele>
        <time>2020-09-08T09:45:55Z</time>
      </trkpt>
      <trkpt lat="44.15711" lon="5.01156">
        <ele>431.7</ele>
        <time>2020-09-08T09:45:56Z</time>
      </trkpt>
      <trkpt lat="44.15711" lon="5.01155">
        <ele>431.9</ele>
        <time>2020-09-08T09:45:57Z</time>
      </trkpt>
      <trkpt lat="44.1571" lon="5.01156">
        <ele>432.1</ele>
        <time>2020-09-08T09:45:58Z</time>
      </trkpt>
      <trkpt lat="44.15709" lon="5.01157">
        <ele>432.4</ele>
        <time>2020-09-08T09:45:59Z</time>
      </trkpt>
      <trkpt lat="44.15709" lon="5.01158">
        <ele>432.6</ele>
        <time>2020-09-08T09:46:00Z</time>
      </trkpt>
      <trkpt lat="44.15707" lon="5.01158">
        <ele>433</ele>
        <time>2020-09-08T09:46:01Z</time>
      </trkpt>
      <trkpt lat="44.15707" lon="5.01158">
        <ele>433</ele>
        <time>2020-09-08T09:46:02Z</time>
      </trkpt>
      <trkpt lat="44.15706" lon="5.01157">
        <ele>433.2</ele>
        <time>2020-09-08T09:46:03Z</time>
      </trkpt>
      <trkpt lat="44.15706" lon="5.01157">
        <ele>433.3</ele>
        <time>2020-09-08T09:46:04Z</time>
      </trkpt>
      <trkpt lat="44.15705" lon="5.01158">
        <ele>433.5</ele>
        <time>2020-09-08T09:46:05Z</time>
      </trkpt>
      <trkpt lat="44.15705" lon="5.01157">
        <ele>433.6</ele>
        <time>2020-09-08T09:46:06Z</time>
      </trkpt>
      <trkpt lat="44.15704" lon="5.01158">
        <ele>433.8</ele>
        <time>2020-09-08T09:46:07Z</time>
      </trkpt>
      <trkpt lat="44.15703" lon="5.01159">
        <ele>434.1</ele>
        <time>2020-09-08T09:46:08Z</time>
      </trkpt>
      <trkpt lat="44.15702" lon="5.01158">
        <ele>434.4</ele>
        <time>2020-09-08T09:46:09Z</time>
      </trkpt>
      <trkpt lat="44.15702" lon="5.01158">
        <ele>434.5</ele>
        <time>2020-09-08T09:46:10Z</time>
      </trkpt>
      <trkpt lat="44.15702" lon="5.01159">
        <ele>434.6</ele>
        <time>2020-09-08T09:46:11Z</time>
      </trkpt>
      <trkpt lat="44.157" lon="5.0116">
        <ele>434.9</ele>
        <time>2020-09-08T09:46:12Z</time>
      </trkpt>
      <trkpt lat="44.157" lon="5.01161">
        <ele>435.1</ele>
        <time>2020-09-08T09:46:13Z</time>
      </trkpt>
      <trkpt lat="44.15701" lon="5.01161">
        <ele>435.2</ele>
        <time>2020-09-08T09:46:14Z</time>
      </trkpt>
      <trkpt lat="44.157" lon="5.01161">
        <ele>435.3</ele>
        <time>2020-09-08T09:46:15Z</time>
      </trkpt>
      <trkpt lat="44.15699" lon="5.01161">
        <ele>435.6</ele>
        <time>2020-09-08T09:46:16Z</time>
      </trkpt>
      <trkpt lat="44.15699" lon="5.01161">
        <ele>435.8</ele>
        <time>2020-09-08T09:46:17Z</time>
      </trkpt>
      <trkpt lat="44.15698" lon="5.01161">
        <ele>435.9</ele>
        <time>2020-09-08T09:46:18Z</time>
      </trkpt>
      <trkpt lat="44.15698" lon="5.01161">
        <ele>436.1</ele>
        <time>2020-09-08T09:46:19Z</time>
      </trkpt>
      <trkpt lat="44.15697" lon="5.01161">
        <ele>436.2</ele>
        <time>2020-09-08T09:46:20Z</time>
      </trkpt>
      <trkpt lat="44.15697" lon="5.01161">
        <ele>436.3</ele>
        <time>2020-09-08T09:46:21Z</time>
      </trkpt>
      <trkpt lat="44.15697" lon="5.01162">
        <ele>436.4</ele>
        <time>2020-09-08T09:46:22Z</time>
      </trkpt>
      <trkpt lat="44.15696" lon="5.01162">
        <ele>436.6</ele>
        <time>2020-09-08T09:46:23Z</time>
      </trkpt>
      <trkpt lat="44.15695" lon="5.01163">
        <ele>436.9</ele>
        <time>2020-09-08T09:46:24Z</time>
      </trkpt>
      <trkpt lat="44.15694" lon="5.01165">
        <ele>437.3</ele>
        <time>2020-09-08T09:46:25Z</time>
      </trkpt>
      <trkpt lat="44.15693" lon="5.01167">
        <ele>437.8</ele>
        <time>2020-09-08T09:46:26Z</time>
      </trkpt>
      <trkpt lat="44.15693" lon="5.01167">
        <ele>437.9</ele>
        <time>2020-09-08T09:46:27Z</time>
      </trkpt>
      <trkpt lat="44.15692" lon="5.01168">
        <ele>438.2</ele>
        <time>2020-09-08T09:46:28Z</time>
      </trkpt>
      <trkpt lat="44.15691" lon="5.01168">
        <ele>438.4</ele>
        <time>2020-09-08T09:46:29Z</time>
      </trkpt>
      <trkpt lat="44.1569" lon="5.01168">
        <ele>438.7</ele>
        <time>2020-09-08T09:46:30Z</time>
      </trkpt>
      <trkpt lat="44.1569" lon="5.01168">
        <ele>438.8</ele>
        <time>2020-09-08T09:46:31Z</time>
      </trkpt>
      <trkpt lat="44.15689" lon="5.01169">
        <ele>439.1</ele>
        <time>2020-09-08T09:46:32Z</time>
      </trkpt>
      <trkpt lat="44.15688" lon="5.0117">
        <ele>439.3</ele>
        <time>2020-09-08T09:46:33Z</time>
      </trkpt>
      <trkpt lat="44.15688" lon="5.01171">
        <ele>439.5</ele>
        <time>2020-09-08T09:46:34Z</time>
      </trkpt>
      <trkpt lat="44.15687" lon="5.01172">
        <ele>439.8</ele>
        <time>2020-09-08T09:46:35Z</time>
      </trkpt>
      <trkpt lat="44.15686" lon="5.01172">
        <ele>440.1</ele>
        <time>2020-09-08T09:46:36Z</time>
      </trkpt>
      <trkpt lat="44.15685" lon="5.01172">
        <ele>440.2</ele>
        <time>2020-09-08T09:46:37Z</time>
      </trkpt>
      <trkpt lat="44.15685" lon="5.01173">
        <ele>440.4</ele>
        <time>2020-09-08T09:46:38Z</time>
      </trkpt>
      <trkpt lat="44.15684" lon="5.01173">
        <ele>440.6</ele>
        <time>2020-09-08T09:46:39Z</time>
      </trkpt>
      <trkpt lat="44.15684" lon="5.01173">
        <ele>440.7</ele>
        <time>2020-09-08T09:46:40Z</time>
      </trkpt>
      <trkpt lat="44.15683" lon="5.01174">
        <ele>440.9</ele>
        <time>2020-09-08T09:46:41Z</time>
      </trkpt>
      <trkpt lat="44.15683" lon="5.01175">
        <ele>441.1</ele>
        <time>2020-09-08T09:46:42Z</time>
      </trkpt>
      <trkpt lat="44.15682" lon="5.01175">
        <ele>441.3</ele>
        <time>2020-09-08T09:46:43Z</time>
      </trkpt>
      <trkpt lat="44.15682" lon="5.01176">
        <ele>441.5</ele>
        <time>2020-09-08T09:46:44Z</time>
      </trkpt>
      <trkpt lat="44.15681" lon="5.01177">
        <ele>441.6</ele>
        <time>2020-09-08T09:46:45Z</time>
      </trkpt>
      <trkpt lat="44.1568" lon="5.01177">
        <ele>441.9</ele>
        <time>2020-09-08T09:46:46Z</time>
      </trkpt>
      <trkpt lat="44.1568" lon="5.01178">
        <ele>442</ele>
        <time>2020-09-08T09:46:47Z</time>
      </trkpt>
      <trkpt lat="44.15679" lon="5.01178">
        <ele>442.2</ele>
        <time>2020-09-08T09:46:48Z</time>
      </trkpt>
      <trkpt lat="44.15679" lon="5.01178">
        <ele>442.4</ele>
        <time>2020-09-08T09:46:49Z</time>
      </trkpt>
      <trkpt lat="44.15678" lon="5.01178">
        <ele>442.6</ele>
        <time>2020-09-08T09:46:50Z</time>
      </trkpt>
      <trkpt lat="44.15677" lon="5.01179">
        <ele>442.7</ele>
        <time>2020-09-08T09:46:51Z</time>
      </trkpt>
      <trkpt lat="44.15677" lon="5.0118">
        <ele>442.8</ele>
        <time>2020-09-08T09:46:52Z</time>
      </trkpt>
      <trkpt lat="44.15677" lon="5.01181">
        <ele>443.1</ele>
        <time>2020-09-08T09:46:53Z</time>
      </trkpt>
      <trkpt lat="44.15676" lon="5.01182">
        <ele>443.3</ele>
        <time>2020-09-08T09:46:54Z</time>
      </trkpt>
      <trkpt lat="44.15675" lon="5.01182">
        <ele>443.4</ele>
        <time>2020-09-08T09:46:55Z</time>
      </trkpt>
      <trkpt lat="44.15675" lon="5.01182">
        <ele>443.5</ele>
        <time>2020-09-08T09:46:56Z</time>
      </trkpt>
      <trkpt lat="44.15674" lon="5.01182">
        <ele>443.6</ele>
        <time>2020-09-08T09:46:57Z</time>
      </trkpt>
      <trkpt lat="44.15674" lon="5.01182">
        <ele>443.7</ele>
        <time>2020-09-08T09:46:58Z</time>
      </trkpt>
      <trkpt lat="44.15674" lon="5.01182">
        <ele>443.8</ele>
        <time>2020-09-08T09:46:59Z</time>
      </trkpt>
      <trkpt lat="44.15673" lon="5.01182">
        <ele>444</ele>
        <time>2020-09-08T09:47:00Z</time>
      </trkpt>
      <trkpt lat="44.15672" lon="5.01183">
        <ele>444.2</ele>
        <time>2020-09-08T09:47:01Z</time>
      </trkpt>
      <trkpt lat="44.15671" lon="5.01184">
        <ele>444.4</ele>
        <time>2020-09-08T09:47:02Z</time>
      </trkpt>
      <trkpt lat="44.15671" lon="5.01185">
        <ele>444.6</ele>
        <time>2020-09-08T09:47:03Z</time>
      </trkpt>
      <trkpt lat="44.1567" lon="5.01185">
        <ele>444.8</ele>
        <time>2020-09-08T09:47:04Z</time>
      </trkpt>
      <trkpt lat="44.15669" lon="5.01185">
        <ele>445</ele>
        <time>2020-09-08T09:47:05Z</time>
      </trkpt>
      <trkpt lat="44.15668" lon="5.01185">
        <ele>445.1</ele>
        <time>2020-09-08T09:47:06Z</time>
      </trkpt>
      <trkpt lat="44.15668" lon="5.01186">
        <ele>445.3</ele>
        <time>2020-09-08T09:47:07Z</time>
      </trkpt>
      <trkpt lat="44.15667" lon="5.01187">
        <ele>445.4</ele>
        <time>2020-09-08T09:47:08Z</time>
      </trkpt>
      <trkpt lat="44.15668" lon="5.01187">
        <ele>445.5</ele>
        <time>2020-09-08T09:47:09Z</time>
      </trkpt>
      <trkpt lat="44.15667" lon="5.01188">
        <ele>445.6</ele>
        <time>2020-09-08T09:47:10Z</time>
      </trkpt>
      <trkpt lat="44.15666" lon="5.01189">
        <ele>445.8</ele>
        <time>2020-09-08T09:47:11Z</time>
      </trkpt>
      <trkpt lat="44.15666" lon="5.0119">
        <ele>446.1</ele>
        <time>2020-09-08T09:47:12Z</time>
      </trkpt>
      <trkpt lat="44.15665" lon="5.01191">
        <ele>446.3</ele>
        <time>2020-09-08T09:47:13Z</time>
      </trkpt>
      <trkpt lat="44.15663" lon="5.01192">
        <ele>446.7</ele>
        <time>2020-09-08T09:47:14Z</time>
      </trkpt>
      <trkpt lat="44.15663" lon="5.01193">
        <ele>446.8</ele>
        <time>2020-09-08T09:47:15Z</time>
      </trkpt>
      <trkpt lat="44.15663" lon="5.01194">
        <ele>447</ele>
        <time>2020-09-08T09:47:16Z</time>
      </trkpt>
      <trkpt lat="44.15662" lon="5.01195">
        <ele>447.3</ele>
        <time>2020-09-08T09:47:17Z</time>
      </trkpt>
      <trkpt lat="44.15661" lon="5.01196">
        <ele>447.5</ele>
        <time>2020-09-08T09:47:18Z</time>
      </trkpt>
      <trkpt lat="44.15661" lon="5.01197">
        <ele>447.6</ele>
        <time>2020-09-08T09:47:19Z</time>
      </trkpt>
      <trkpt lat="44.1566" lon="5.01199">
        <ele>447.9</ele>
        <time>2020-09-08T09:47:20Z</time>
      </trkpt>
      <trkpt lat="44.1566" lon="5.012">
        <ele>448.1</ele>
        <time>2020-09-08T09:47:21Z</time>
      </trkpt>
      <trkpt lat="44.15659" lon="5.01201">
        <ele>448.4</ele>
        <time>2020-09-08T09:47:22Z</time>
      </trkpt>
      <trkpt lat="44.15658" lon="5.01201">
        <ele>448.5</ele>
        <time>2020-09-08T09:47:23Z</time>
      </trkpt>
      <trkpt lat="44.15657" lon="5.01203">
        <ele>448.9</ele>
        <time>2020-09-08T09:47:24Z</time>
      </trkpt>
      <trkpt lat="44.15656" lon="5.01203">
        <ele>449.1</ele>
        <time>2020-09-08T09:47:25Z</time>
      </trkpt>
      <trkpt lat="44.15656" lon="5.01204">
        <ele>449.2</ele>
        <time>2020-09-08T09:47:26Z</time>
      </trkpt>
      <trkpt lat="44.15655" lon="5.01204">
        <ele>449.3</ele>
        <time>2020-09-08T09:47:27Z</time>
      </trkpt>
      <trkpt lat="44.15655" lon="5.01205">
        <ele>449.5</ele>
        <time>2020-09-08T09:47:28Z</time>
      </trkpt>
      <trkpt lat="44.15654" lon="5.01205">
        <ele>449.9</ele>
        <time>2020-09-08T09:47:29Z</time>
      </trkpt>
      <trkpt lat="44.15653" lon="5.01206">
        <ele>450.1</ele>
        <time>2020-09-08T09:47:30Z</time>
      </trkpt>
      <trkpt lat="44.15652" lon="5.01207">
        <ele>450.4</ele>
        <time>2020-09-08T09:47:31Z</time>
      </trkpt>
      <trkpt lat="44.15652" lon="5.01208">
        <ele>450.5</ele>
        <time>2020-09-08T09:47:32Z</time>
      </trkpt>
      <trkpt lat="44.15652" lon="5.01209">
        <ele>450.7</ele>
        <time>2020-09-08T09:47:33Z</time>
      </trkpt>
      <trkpt lat="44.15651" lon="5.01209">
        <ele>450.9</ele>
        <time>2020-09-08T09:47:34Z</time>
      </trkpt>
      <trkpt lat="44.15652" lon="5.0121">
        <ele>451</ele>
        <time>2020-09-08T09:47:35Z</time>
      </trkpt>
      <trkpt lat="44.15652" lon="5.01209">
        <ele>451.2</ele>
        <time>2020-09-08T09:47:36Z</time>
      </trkpt>
      <trkpt lat="44.15652" lon="5.01208">
        <ele>451.4</ele>
        <time>2020-09-08T09:47:37Z</time>
      </trkpt>
      <trkpt lat="44.15652" lon="5.01208">
        <ele>451.4</ele>
        <time>2020-09-08T09:47:38Z</time>
      </trkpt>
      <trkpt lat="44.15651" lon="5.01207">
        <ele>451.8</ele>
        <time>2020-09-08T09:47:39Z</time>
      </trkpt>
      <trkpt lat="44.1565" lon="5.01206">
        <ele>452</ele>
        <time>2020-09-08T09:47:40Z</time>
      </trkpt>
      <trkpt lat="44.15649" lon="5.01205">
        <ele>452.4</ele>
        <time>2020-09-08T09:47:41Z</time>
      </trkpt>
      <trkpt lat="44.15648" lon="5.01205">
        <ele>452.7</ele>
        <time>2020-09-08T09:47:42Z</time>
      </trkpt>
      <trkpt lat="44.15648" lon="5.01206">
        <ele>452.9</ele>
        <time>2020-09-08T09:47:43Z</time>
      </trkpt>
      <trkpt lat="44.15647" lon="5.01206">
        <ele>453.2</ele>
        <time>2020-09-08T09:47:44Z</time>
      </trkpt>
      <trkpt lat="44.15647" lon="5.01206">
        <ele>453.2</ele>
        <time>2020-09-08T09:47:45Z</time>
      </trkpt>
      <trkpt lat="44.15646" lon="5.01207">
        <ele>453.6</ele>
        <time>2020-09-08T09:47:46Z</time>
      </trkpt>
      <trkpt lat="44.15645" lon="5.01207">
        <ele>453.9</ele>
        <time>2020-09-08T09:47:47Z</time>
      </trkpt>
      <trkpt lat="44.15645" lon="5.01208">
        <ele>454</ele>
        <time>2020-09-08T09:47:48Z</time>
      </trkpt>
      <trkpt lat="44.15645" lon="5.01209">
        <ele>454.3</ele>
        <time>2020-09-08T09:47:49Z</time>
      </trkpt>
      <trkpt lat="44.15645" lon="5.01209">
        <ele>454.3</ele>
        <time>2020-09-08T09:47:50Z</time>
      </trkpt>
      <trkpt lat="44.15645" lon="5.01209">
        <ele>454.5</ele>
        <time>2020-09-08T09:47:51Z</time>
      </trkpt>
      <trkpt lat="44.15644" lon="5.0121">
        <ele>454.7</ele>
        <time>2020-09-08T09:47:52Z</time>
      </trkpt>
      <trkpt lat="44.15643" lon="5.0121">
        <ele>455</ele>
        <time>2020-09-08T09:47:53Z</time>
      </trkpt>
      <trkpt lat="44.15643" lon="5.01211">
        <ele>455.2</ele>
        <time>2020-09-08T09:47:54Z</time>
      </trkpt>
      <trkpt lat="44.15642" lon="5.01211">
        <ele>455.6</ele>
        <time>2020-09-08T09:47:55Z</time>
      </trkpt>
      <trkpt lat="44.15641" lon="5.01212">
        <ele>455.8</ele>
        <time>2020-09-08T09:47:56Z</time>
      </trkpt>
      <trkpt lat="44.1564" lon="5.01212">
        <ele>456.1</ele>
        <time>2020-09-08T09:47:57Z</time>
      </trkpt>
      <trkpt lat="44.1564" lon="5.01212">
        <ele>456.3</ele>
        <time>2020-09-08T09:47:58Z</time>
      </trkpt>
      <trkpt lat="44.15639" lon="5.01213">
        <ele>456.6</ele>
        <time>2020-09-08T09:47:59Z</time>
      </trkpt>
      <trkpt lat="44.15638" lon="5.01214">
        <ele>457</ele>
        <time>2020-09-08T09:48:00Z</time>
      </trkpt>
      <trkpt lat="44.15637" lon="5.01214">
        <ele>457.2</ele>
        <time>2020-09-08T09:48:01Z</time>
      </trkpt>
      <trkpt lat="44.15636" lon="5.01214">
        <ele>457.5</ele>
        <time>2020-09-08T09:48:02Z</time>
      </trkpt>
      <trkpt lat="44.15636" lon="5.01215">
        <ele>457.8</ele>
        <time>2020-09-08T09:48:03Z</time>
      </trkpt>
      <trkpt lat="44.15635" lon="5.01215">
        <ele>457.9</ele>
        <time>2020-09-08T09:48:04Z</time>
      </trkpt>
      <trkpt lat="44.15635" lon="5.01215">
        <ele>458.1</ele>
        <time>2020-09-08T09:48:05Z</time>
      </trkpt>
      <trkpt lat="44.15633" lon="5.01216">
        <ele>458.5</ele>
        <time>2020-09-08T09:48:06Z</time>
      </trkpt>
      <trkpt lat="44.15633" lon="5.01216">
        <ele>458.6</ele>
        <time>2020-09-08T09:48:07Z</time>
      </trkpt>
      <trkpt lat="44.15633" lon="5.01217">
        <ele>458.8</ele>
        <time>2020-09-08T09:48:08Z</time>
      </trkpt>
      <trkpt lat="44.15633" lon="5.01217">
        <ele>458.8</ele>
        <time>2020-09-08T09:48:09Z</time>
      </trkpt>
      <trkpt lat="44.15632" lon="5.01218">
        <ele>459.1</ele>
        <time>2020-09-08T09:48:10Z</time>
      </trkpt>
      <trkpt lat="44.15631" lon="5.01218">
        <ele>459.3</ele>
        <time>2020-09-08T09:48:11Z</time>
      </trkpt>
      <trkpt lat="44.15629" lon="5.01218">
        <ele>459.9</ele>
        <time>2020-09-08T09:48:12Z</time>
      </trkpt>
      <trkpt lat="44.15629" lon="5.01218">
        <ele>460.1</ele>
        <time>2020-09-08T09:48:13Z</time>
      </trkpt>
      <trkpt lat="44.15629" lon="5.01219">
        <ele>460.4</ele>
        <time>2020-09-08T09:48:14Z</time>
      </trkpt>
      <trkpt lat="44.15628" lon="5.0122">
        <ele>460.6</ele>
        <time>2020-09-08T09:48:15Z</time>
      </trkpt>
      <trkpt lat="44.15628" lon="5.0122">
        <ele>460.8</ele>
        <time>2020-09-08T09:48:16Z</time>
      </trkpt>
      <trkpt lat="44.15627" lon="5.01221">
        <ele>461.4</ele>
        <time>2020-09-08T09:48:17Z</time>
      </trkpt>
      <trkpt lat="44.15626" lon="5.01222">
        <ele>461.6</ele>
        <time>2020-09-08T09:48:18Z</time>
      </trkpt>
      <trkpt lat="44.15625" lon="5.01221">
        <ele>461.7</ele>
        <time>2020-09-08T09:48:19Z</time>
      </trkpt>
      <trkpt lat="44.15625" lon="5.01222">
        <ele>461.7</ele>
        <time>2020-09-08T09:48:20Z</time>
      </trkpt>
      <trkpt lat="44.15624" lon="5.01223">
        <ele>461.9</ele>
        <time>2020-09-08T09:48:21Z</time>
      </trkpt>
      <trkpt lat="44.15623" lon="5.01223">
        <ele>462</ele>
        <time>2020-09-08T09:48:22Z</time>
      </trkpt>
      <trkpt lat="44.15622" lon="5.01224">
        <ele>462.1</ele>
        <time>2020-09-08T09:48:23Z</time>
      </trkpt>
      <trkpt lat="44.15622" lon="5.01225">
        <ele>462.2</ele>
        <time>2020-09-08T09:48:24Z</time>
      </trkpt>
      <trkpt lat="44.15622" lon="5.01226">
        <ele>462.3</ele>
        <time>2020-09-08T09:48:25Z</time>
      </trkpt>
      <trkpt lat="44.15621" lon="5.01226">
        <ele>462.4</ele>
        <time>2020-09-08T09:48:26Z</time>
      </trkpt>
      <trkpt lat="44.1562" lon="5.01227">
        <ele>462.5</ele>
        <time>2020-09-08T09:48:27Z</time>
      </trkpt>
      <trkpt lat="44.1562" lon="5.01227">
        <ele>462.6</ele>
        <time>2020-09-08T09:48:28Z</time>
      </trkpt>
      <trkpt lat="44.15619" lon="5.01227">
        <ele>462.7</ele>
        <time>2020-09-08T09:48:29Z</time>
      </trkpt>
      <trkpt lat="44.15619" lon="5.01227">
        <ele>462.7</ele>
        <time>2020-09-08T09:48:30Z</time>
      </trkpt>
      <trkpt lat="44.15618" lon="5.01228">
        <ele>462.8</ele>
        <time>2020-09-08T09:48:31Z</time>
      </trkpt>
      <trkpt lat="44.15617" lon="5.01228">
        <ele>463</ele>
        <time>2020-09-08T09:48:32Z</time>
      </trkpt>
      <trkpt lat="44.15616" lon="5.01229">
        <ele>463.1</ele>
        <time>2020-09-08T09:48:33Z</time>
      </trkpt>
      <trkpt lat="44.15615" lon="5.01231">
        <ele>463.3</ele>
        <time>2020-09-08T09:48:34Z</time>
      </trkpt>
      <trkpt lat="44.15615" lon="5.01232">
        <ele>463.4</ele>
        <time>2020-09-08T09:48:35Z</time>
      </trkpt>
      <trkpt lat="44.15615" lon="5.01232">
        <ele>463.4</ele>
        <time>2020-09-08T09:48:36Z</time>
      </trkpt>
      <trkpt lat="44.15614" lon="5.01233">
        <ele>463.5</ele>
        <time>2020-09-08T09:48:37Z</time>
      </trkpt>
      <trkpt lat="44.15614" lon="5.01233">
        <ele>463.6</ele>
        <time>2020-09-08T09:48:38Z</time>
      </trkpt>
      <trkpt lat="44.15613" lon="5.01233">
        <ele>463.7</ele>
        <time>2020-09-08T09:48:39Z</time>
      </trkpt>
      <trkpt lat="44.15612" lon="5.01234">
        <ele>463.8</ele>
        <time>2020-09-08T09:48:40Z</time>
      </trkpt>
      <trkpt lat="44.15611" lon="5.01235">
        <ele>463.9</ele>
        <time>2020-09-08T09:48:41Z</time>
      </trkpt>
      <trkpt lat="44.1561" lon="5.01236">
        <ele>464</ele>
        <time>2020-09-08T09:48:42Z</time>
      </trkpt>
      <trkpt lat="44.1561" lon="5.01236">
        <ele>464.1</ele>
        <time>2020-09-08T09:48:43Z</time>
      </trkpt>
      <trkpt lat="44.15609" lon="5.01237">
        <ele>464.2</ele>
        <time>2020-09-08T09:48:44Z</time>
      </trkpt>
      <trkpt lat="44.15609" lon="5.01238">
        <ele>464.3</ele>
        <time>2020-09-08T09:48:45Z</time>
      </trkpt>
      <trkpt lat="44.15608" lon="5.01239">
        <ele>464.4</ele>
        <time>2020-09-08T09:48:46Z</time>
      </trkpt>
      <trkpt lat="44.15607" lon="5.0124">
        <ele>464.5</ele>
        <time>2020-09-08T09:48:47Z</time>
      </trkpt>
      <trkpt lat="44.15607" lon="5.0124">
        <ele>464.5</ele>
        <time>2020-09-08T09:48:48Z</time>
      </trkpt>
      <trkpt lat="44.15606" lon="5.01241">
        <ele>464.7</ele>
        <time>2020-09-08T09:48:49Z</time>
      </trkpt>
      <trkpt lat="44.15606" lon="5.01242">
        <ele>464.8</ele>
        <time>2020-09-08T09:48:50Z</time>
      </trkpt>
      <trkpt lat="44.15605" lon="5.01242">
        <ele>464.9</ele>
        <time>2020-09-08T09:48:51Z</time>
      </trkpt>
      <trkpt lat="44.15604" lon="5.01243">
        <ele>465</ele>
        <time>2020-09-08T09:48:52Z</time>
      </trkpt>
      <trkpt lat="44.15604" lon="5.01244">
        <ele>465.1</ele>
        <time>2020-09-08T09:48:53Z</time>
      </trkpt>
      <trkpt lat="44.15604" lon="5.01245">
        <ele>465.2</ele>
        <time>2020-09-08T09:48:54Z</time>
      </trkpt>
      <trkpt lat="44.15603" lon="5.01246">
        <ele>465.3</ele>
        <time>2020-09-08T09:48:55Z</time>
      </trkpt>
      <trkpt lat="44.15602" lon="5.01247">
        <ele>465.5</ele>
        <time>2020-09-08T09:48:56Z</time>
      </trkpt>
      <trkpt lat="44.156" lon="5.01248">
        <ele>465.7</ele>
        <time>2020-09-08T09:48:57Z</time>
      </trkpt>
      <trkpt lat="44.156" lon="5.01249">
        <ele>465.8</ele>
        <time>2020-09-08T09:48:58Z</time>
      </trkpt>
      <trkpt lat="44.156" lon="5.0125">
        <ele>465.9</ele>
        <time>2020-09-08T09:48:59Z</time>
      </trkpt>
      <trkpt lat="44.15599" lon="5.0125">
        <ele>466</ele>
        <time>2020-09-08T09:49:00Z</time>
      </trkpt>
      <trkpt lat="44.15599" lon="5.01251">
        <ele>466.1</ele>
        <time>2020-09-08T09:49:01Z</time>
      </trkpt>
      <trkpt lat="44.15598" lon="5.01252">
        <ele>466.3</ele>
        <time>2020-09-08T09:49:02Z</time>
      </trkpt>
      <trkpt lat="44.15598" lon="5.01252">
        <ele>466.3</ele>
        <time>2020-09-08T09:49:03Z</time>
      </trkpt>
      <trkpt lat="44.15597" lon="5.01253">
        <ele>466.5</ele>
        <time>2020-09-08T09:49:04Z</time>
      </trkpt>
      <trkpt lat="44.15597" lon="5.01254">
        <ele>466.6</ele>
        <time>2020-09-08T09:49:05Z</time>
      </trkpt>
      <trkpt lat="44.15597" lon="5.01255">
        <ele>466.7</ele>
        <time>2020-09-08T09:49:06Z</time>
      </trkpt>
      <trkpt lat="44.15597" lon="5.01257">
        <ele>466.9</ele>
        <time>2020-09-08T09:49:07Z</time>
      </trkpt>
      <trkpt lat="44.15597" lon="5.01258">
        <ele>467.1</ele>
        <time>2020-09-08T09:49:08Z</time>
      </trkpt>
      <trkpt lat="44.15597" lon="5.01258">
        <ele>467.1</ele>
        <time>2020-09-08T09:49:09Z</time>
      </trkpt>
      <trkpt lat="44.15596" lon="5.01258">
        <ele>467.2</ele>
        <time>2020-09-08T09:49:10Z</time>
      </trkpt>
      <trkpt lat="44.15596" lon="5.0126">
        <ele>467.5</ele>
        <time>2020-09-08T09:49:11Z</time>
      </trkpt>
      <trkpt lat="44.15596" lon="5.01261">
        <ele>467.5</ele>
        <time>2020-09-08T09:49:12Z</time>
      </trkpt>
      <trkpt lat="44.15595" lon="5.01263">
        <ele>467.8</ele>
        <time>2020-09-08T09:49:13Z</time>
      </trkpt>
      <trkpt lat="44.15595" lon="5.01264">
        <ele>467.9</ele>
        <time>2020-09-08T09:49:14Z</time>
      </trkpt>
      <trkpt lat="44.15594" lon="5.01264">
        <ele>468.1</ele>
        <time>2020-09-08T09:49:15Z</time>
      </trkpt>
      <trkpt lat="44.15593" lon="5.01265">
        <ele>468.2</ele>
        <time>2020-09-08T09:49:16Z</time>
      </trkpt>
      <trkpt lat="44.15592" lon="5.01265">
        <ele>468.3</ele>
        <time>2020-09-08T09:49:17Z</time>
      </trkpt>
      <trkpt lat="44.15591" lon="5.01266">
        <ele>468.5</ele>
        <time>2020-09-08T09:49:18Z</time>
      </trkpt>
      <trkpt lat="44.1559" lon="5.01267">
        <ele>468.7</ele>
        <time>2020-09-08T09:49:19Z</time>
      </trkpt>
      <trkpt lat="44.15589" lon="5.01267">
        <ele>468.9</ele>
        <time>2020-09-08T09:49:20Z</time>
      </trkpt>
      <trkpt lat="44.15589" lon="5.01268">
        <ele>469</ele>
        <time>2020-09-08T09:49:21Z</time>
      </trkpt>
      <trkpt lat="44.15588" lon="5.01268">
        <ele>469.1</ele>
        <time>2020-09-08T09:49:22Z</time>
      </trkpt>
      <trkpt lat="44.15588" lon="5.01268">
        <ele>469.2</ele>
        <time>2020-09-08T09:49:23Z</time>
      </trkpt>
      <trkpt lat="44.15588" lon="5.01268">
        <ele>469.3</ele>
        <time>2020-09-08T09:49:24Z</time>
      </trkpt>
      <trkpt lat="44.15586" lon="5.01268">
        <ele>469.5</ele>
        <time>2020-09-08T09:49:25Z</time>
      </trkpt>
      <trkpt lat="44.15586" lon="5.01267">
        <ele>469.6</ele>
        <time>2020-09-08T09:49:26Z</time>
      </trkpt>
      <trkpt lat="44.15586" lon="5.01269">
        <ele>469.8</ele>
        <time>2020-09-08T09:49:27Z</time>
      </trkpt>
      <trkpt lat="44.15584" lon="5.01269">
        <ele>470.1</ele>
        <time>2020-09-08T09:49:28Z</time>
      </trkpt>
      <trkpt lat="44.15584" lon="5.01271">
        <ele>470.3</ele>
        <time>2020-09-08T09:49:29Z</time>
      </trkpt>
      <trkpt lat="44.15582" lon="5.01272">
        <ele>470.7</ele>
        <time>2020-09-08T09:49:30Z</time>
      </trkpt>
      <trkpt lat="44.15582" lon="5.01274">
        <ele>470.8</ele>
        <time>2020-09-08T09:49:31Z</time>
      </trkpt>
      <trkpt lat="44.15582" lon="5.01275">
        <ele>471</ele>
        <time>2020-09-08T09:49:32Z</time>
      </trkpt>
      <trkpt lat="44.15582" lon="5.01275">
        <ele>471</ele>
        <time>2020-09-08T09:49:33Z</time>
      </trkpt>
      <trkpt lat="44.15581" lon="5.01276">
        <ele>471.3</ele>
        <time>2020-09-08T09:49:34Z</time>
      </trkpt>
      <trkpt lat="44.1558" lon="5.01278">
        <ele>471.6</ele>
        <time>2020-09-08T09:49:35Z</time>
      </trkpt>
      <trkpt lat="44.15579" lon="5.01279">
        <ele>472</ele>
        <time>2020-09-08T09:49:36Z</time>
      </trkpt>
      <trkpt lat="44.15578" lon="5.01279">
        <ele>472.1</ele>
        <time>2020-09-08T09:49:37Z</time>
      </trkpt>
      <trkpt lat="44.15578" lon="5.01279">
        <ele>472.2</ele>
        <time>2020-09-08T09:49:38Z</time>
      </trkpt>
      <trkpt lat="44.15577" lon="5.01279">
        <ele>472.3</ele>
        <time>2020-09-08T09:49:39Z</time>
      </trkpt>
      <trkpt lat="44.15577" lon="5.0128">
        <ele>472.5</ele>
        <time>2020-09-08T09:49:40Z</time>
      </trkpt>
      <trkpt lat="44.15575" lon="5.01281">
        <ele>472.7</ele>
        <time>2020-09-08T09:49:41Z</time>
      </trkpt>
      <trkpt lat="44.15574" lon="5.01282">
        <ele>473.1</ele>
        <time>2020-09-08T09:49:42Z</time>
      </trkpt>
      <trkpt lat="44.15574" lon="5.01284">
        <ele>473.4</ele>
        <time>2020-09-08T09:49:43Z</time>
      </trkpt>
      <trkpt lat="44.15575" lon="5.01285">
        <ele>473.6</ele>
        <time>2020-09-08T09:49:44Z</time>
      </trkpt>
      <trkpt lat="44.15575" lon="5.01286">
        <ele>473.7</ele>
        <time>2020-09-08T09:49:45Z</time>
      </trkpt>
      <trkpt lat="44.15576" lon="5.01287">
        <ele>473.9</ele>
        <time>2020-09-08T09:49:46Z</time>
      </trkpt>
      <trkpt lat="44.15576" lon="5.01288">
        <ele>474.1</ele>
        <time>2020-09-08T09:49:47Z</time>
      </trkpt>
      <trkpt lat="44.15574" lon="5.01288">
        <ele>474.5</ele>
        <time>2020-09-08T09:49:48Z</time>
      </trkpt>
      <trkpt lat="44.15573" lon="5.01288">
        <ele>474.7</ele>
        <time>2020-09-08T09:49:49Z</time>
      </trkpt>
      <trkpt lat="44.15573" lon="5.01288">
        <ele>474.7</ele>
        <time>2020-09-08T09:49:50Z</time>
      </trkpt>
      <trkpt lat="44.15572" lon="5.01289">
        <ele>474.9</ele>
        <time>2020-09-08T09:49:51Z</time>
      </trkpt>
      <trkpt lat="44.15572" lon="5.01289">
        <ele>474.9</ele>
        <time>2020-09-08T09:49:52Z</time>
      </trkpt>
      <trkpt lat="44.15572" lon="5.0129">
        <ele>475.1</ele>
        <time>2020-09-08T09:49:53Z</time>
      </trkpt>
      <trkpt lat="44.15572" lon="5.01291">
        <ele>475.2</ele>
        <time>2020-09-08T09:49:54Z</time>
      </trkpt>
      <trkpt lat="44.15572" lon="5.01291">
        <ele>475.3</ele>
        <time>2020-09-08T09:49:55Z</time>
      </trkpt>
      <trkpt lat="44.15571" lon="5.0129">
        <ele>475.4</ele>
        <time>2020-09-08T09:49:56Z</time>
      </trkpt>
      <trkpt lat="44.15571" lon="5.01291">
        <ele>475.5</ele>
        <time>2020-09-08T09:49:57Z</time>
      </trkpt>
      <trkpt lat="44.15571" lon="5.01291">
        <ele>475.6</ele>
        <time>2020-09-08T09:49:58Z</time>
      </trkpt>
      <trkpt lat="44.1557" lon="5.01294">
        <ele>476</ele>
        <time>2020-09-08T09:49:59Z</time>
      </trkpt>
      <trkpt lat="44.1557" lon="5.01294">
        <ele>476.1</ele>
        <time>2020-09-08T09:50:00Z</time>
      </trkpt>
      <trkpt lat="44.1557" lon="5.01295">
        <ele>476.2</ele>
        <time>2020-09-08T09:50:01Z</time>
      </trkpt>
      <trkpt lat="44.15569" lon="5.01296">
        <ele>476.4</ele>
        <time>2020-09-08T09:50:02Z</time>
      </trkpt>
      <trkpt lat="44.15568" lon="5.01297">
        <ele>476.6</ele>
        <time>2020-09-08T09:50:03Z</time>
      </trkpt>
      <trkpt lat="44.15567" lon="5.01297">
        <ele>476.8</ele>
        <time>2020-09-08T09:50:04Z</time>
      </trkpt>
      <trkpt lat="44.15567" lon="5.01296">
        <ele>477.1</ele>
        <time>2020-09-08T09:50:05Z</time>
      </trkpt>
      <trkpt lat="44.15567" lon="5.01295">
        <ele>477.1</ele>
        <time>2020-09-08T09:50:06Z</time>
      </trkpt>
      <trkpt lat="44.15565" lon="5.01295">
        <ele>477.4</ele>
        <time>2020-09-08T09:50:07Z</time>
      </trkpt>
      <trkpt lat="44.15565" lon="5.01295">
        <ele>477.6</ele>
        <time>2020-09-08T09:50:08Z</time>
      </trkpt>
      <trkpt lat="44.15563" lon="5.01295">
        <ele>477.9</ele>
        <time>2020-09-08T09:50:09Z</time>
      </trkpt>
      <trkpt lat="44.15563" lon="5.01295">
        <ele>478.1</ele>
        <time>2020-09-08T09:50:10Z</time>
      </trkpt>
      <trkpt lat="44.15563" lon="5.01295">
        <ele>478.2</ele>
        <time>2020-09-08T09:50:11Z</time>
      </trkpt>
      <trkpt lat="44.15562" lon="5.01296">
        <ele>478.5</ele>
        <time>2020-09-08T09:50:12Z</time>
      </trkpt>
      <trkpt lat="44.1556" lon="5.01297">
        <ele>478.9</ele>
        <time>2020-09-08T09:50:13Z</time>
      </trkpt>
      <trkpt lat="44.15559" lon="5.01297">
        <ele>479.1</ele>
        <time>2020-09-08T09:50:14Z</time>
      </trkpt>
      <trkpt lat="44.15558" lon="5.01298">
        <ele>479.4</ele>
        <time>2020-09-08T09:50:15Z</time>
      </trkpt>
      <trkpt lat="44.15557" lon="5.01299">
        <ele>479.7</ele>
        <time>2020-09-08T09:50:16Z</time>
      </trkpt>
      <trkpt lat="44.15556" lon="5.01301">
        <ele>480.2</ele>
        <time>2020-09-08T09:50:17Z</time>
      </trkpt>
      <trkpt lat="44.15555" lon="5.01302">
        <ele>480.4</ele>
        <time>2020-09-08T09:50:18Z</time>
      </trkpt>
      <trkpt lat="44.15555" lon="5.01302">
        <ele>480.6</ele>
        <time>2020-09-08T09:50:19Z</time>
      </trkpt>
      <trkpt lat="44.15554" lon="5.01303">
        <ele>480.8</ele>
        <time>2020-09-08T09:50:20Z</time>
      </trkpt>
      <trkpt lat="44.15553" lon="5.01304">
        <ele>481.1</ele>
        <time>2020-09-08T09:50:21Z</time>
      </trkpt>
      <trkpt lat="44.15553" lon="5.01305">
        <ele>481.3</ele>
        <time>2020-09-08T09:50:22Z</time>
      </trkpt>
      <trkpt lat="44.15552" lon="5.01305">
        <ele>481.5</ele>
        <time>2020-09-08T09:50:23Z</time>
      </trkpt>
      <trkpt lat="44.15552" lon="5.01306">
        <ele>481.7</ele>
        <time>2020-09-08T09:50:24Z</time>
      </trkpt>
      <trkpt lat="44.15551" lon="5.01308">
        <ele>482</ele>
        <time>2020-09-08T09:50:25Z</time>
      </trkpt>
      <trkpt lat="44.15552" lon="5.01309">
        <ele>482.3</ele>
        <time>2020-09-08T09:50:26Z</time>
      </trkpt>
      <trkpt lat="44.15552" lon="5.0131">
        <ele>482.6</ele>
        <time>2020-09-08T09:50:27Z</time>
      </trkpt>
      <trkpt lat="44.15553" lon="5.01311">
        <ele>482.9</ele>
        <time>2020-09-08T09:50:28Z</time>
      </trkpt>
      <trkpt lat="44.15552" lon="5.01313">
        <ele>483.3</ele>
        <time>2020-09-08T09:50:29Z</time>
      </trkpt>
      <trkpt lat="44.15552" lon="5.01313">
        <ele>483.5</ele>
        <time>2020-09-08T09:50:30Z</time>
      </trkpt>
      <trkpt lat="44.15552" lon="5.01314">
        <ele>483.6</ele>
        <time>2020-09-08T09:50:31Z</time>
      </trkpt>
      <trkpt lat="44.15552" lon="5.01315">
        <ele>483.8</ele>
        <time>2020-09-08T09:50:32Z</time>
      </trkpt>
      <trkpt lat="44.15552" lon="5.01316">
        <ele>484</ele>
        <time>2020-09-08T09:50:33Z</time>
      </trkpt>
      <trkpt lat="44.15552" lon="5.01318">
        <ele>484.4</ele>
        <time>2020-09-08T09:50:34Z</time>
      </trkpt>
      <trkpt lat="44.15552" lon="5.01318">
        <ele>484.5</ele>
        <time>2020-09-08T09:50:35Z</time>
      </trkpt>
      <trkpt lat="44.15552" lon="5.01318">
        <ele>484.6</ele>
        <time>2020-09-08T09:50:36Z</time>
      </trkpt>
      <trkpt lat="44.15552" lon="5.01318">
        <ele>484.7</ele>
        <time>2020-09-08T09:50:37Z</time>
      </trkpt>
      <trkpt lat="44.15551" lon="5.0132">
        <ele>485.1</ele>
        <time>2020-09-08T09:50:38Z</time>
      </trkpt>
      <trkpt lat="44.15551" lon="5.01321">
        <ele>485.3</ele>
        <time>2020-09-08T09:50:39Z</time>
      </trkpt>
      <trkpt lat="44.15552" lon="5.01321">
        <ele>485.4</ele>
        <time>2020-09-08T09:50:40Z</time>
      </trkpt>
      <trkpt lat="44.15552" lon="5.01321">
        <ele>485.5</ele>
        <time>2020-09-08T09:50:41Z</time>
      </trkpt>
      <trkpt lat="44.15551" lon="5.01322">
        <ele>485.7</ele>
        <time>2020-09-08T09:50:42Z</time>
      </trkpt>
      <trkpt lat="44.15551" lon="5.01324">
        <ele>486.1</ele>
        <time>2020-09-08T09:50:43Z</time>
      </trkpt>
      <trkpt lat="44.15551" lon="5.01325">
        <ele>486.3</ele>
        <time>2020-09-08T09:50:44Z</time>
      </trkpt>
      <trkpt lat="44.15549" lon="5.01326">
        <ele>486.6</ele>
        <time>2020-09-08T09:50:45Z</time>
      </trkpt>
      <trkpt lat="44.15548" lon="5.01325">
        <ele>486.9</ele>
        <time>2020-09-08T09:50:46Z</time>
      </trkpt>
      <trkpt lat="44.15548" lon="5.01326">
        <ele>487.1</ele>
        <time>2020-09-08T09:50:47Z</time>
      </trkpt>
      <trkpt lat="44.15548" lon="5.01327">
        <ele>487.2</ele>
        <time>2020-09-08T09:50:48Z</time>
      </trkpt>
      <trkpt lat="44.15547" lon="5.01327">
        <ele>487.4</ele>
        <time>2020-09-08T09:50:49Z</time>
      </trkpt>
      <trkpt lat="44.15546" lon="5.01328">
        <ele>487.6</ele>
        <time>2020-09-08T09:50:50Z</time>
      </trkpt>
      <trkpt lat="44.15547" lon="5.01329">
        <ele>487.8</ele>
        <time>2020-09-08T09:50:51Z</time>
      </trkpt>
      <trkpt lat="44.15546" lon="5.0133">
        <ele>488.1</ele>
        <time>2020-09-08T09:50:52Z</time>
      </trkpt>
      <trkpt lat="44.15545" lon="5.01331">
        <ele>488.3</ele>
        <time>2020-09-08T09:50:53Z</time>
      </trkpt>
      <trkpt lat="44.15545" lon="5.01331">
        <ele>488.4</ele>
        <time>2020-09-08T09:50:54Z</time>
      </trkpt>
      <trkpt lat="44.15544" lon="5.0133">
        <ele>488.6</ele>
        <time>2020-09-08T09:50:55Z</time>
      </trkpt>
      <trkpt lat="44.15544" lon="5.0133">
        <ele>488.7</ele>
        <time>2020-09-08T09:50:56Z</time>
      </trkpt>
      <trkpt lat="44.15544" lon="5.0133">
        <ele>488.7</ele>
        <time>2020-09-08T09:50:57Z</time>
      </trkpt>
      <trkpt lat="44.15544" lon="5.0133">
        <ele>488.8</ele>
        <time>2020-09-08T09:50:58Z</time>
      </trkpt>
      <trkpt lat="44.15544" lon="5.01332">
        <ele>489</ele>
        <time>2020-09-08T09:50:59Z</time>
      </trkpt>
      <trkpt lat="44.15544" lon="5.01333">
        <ele>489.2</ele>
        <time>2020-09-08T09:51:00Z</time>
      </trkpt>
      <trkpt lat="44.15543" lon="5.01335">
        <ele>489.5</ele>
        <time>2020-09-08T09:51:01Z</time>
      </trkpt>
      <trkpt lat="44.15543" lon="5.01337">
        <ele>489.8</ele>
        <time>2020-09-08T09:51:02Z</time>
      </trkpt>
      <trkpt lat="44.15543" lon="5.01338">
        <ele>489.9</ele>
        <time>2020-09-08T09:51:03Z</time>
      </trkpt>
      <trkpt lat="44.15543" lon="5.01339">
        <ele>490.1</ele>
        <time>2020-09-08T09:51:04Z</time>
      </trkpt>
      <trkpt lat="44.15543" lon="5.0134">
        <ele>490.2</ele>
        <time>2020-09-08T09:51:05Z</time>
      </trkpt>
      <trkpt lat="44.15543" lon="5.0134">
        <ele>490.3</ele>
        <time>2020-09-08T09:51:06Z</time>
      </trkpt>
      <trkpt lat="44.15543" lon="5.01342">
        <ele>490.5</ele>
        <time>2020-09-08T09:51:07Z</time>
      </trkpt>
      <trkpt lat="44.15543" lon="5.01344">
        <ele>490.7</ele>
        <time>2020-09-08T09:51:08Z</time>
      </trkpt>
      <trkpt lat="44.15543" lon="5.01344">
        <ele>490.8</ele>
        <time>2020-09-08T09:51:09Z</time>
      </trkpt>
      <trkpt lat="44.15542" lon="5.01345">
        <ele>491</ele>
        <time>2020-09-08T09:51:10Z</time>
      </trkpt>
      <trkpt lat="44.15542" lon="5.01346">
        <ele>491.1</ele>
        <time>2020-09-08T09:51:11Z</time>
      </trkpt>
      <trkpt lat="44.15542" lon="5.01346">
        <ele>491.1</ele>
        <time>2020-09-08T09:51:12Z</time>
      </trkpt>
      <trkpt lat="44.15542" lon="5.01347">
        <ele>491.2</ele>
        <time>2020-09-08T09:51:13Z</time>
      </trkpt>
      <trkpt lat="44.15542" lon="5.01348">
        <ele>491.3</ele>
        <time>2020-09-08T09:51:14Z</time>
      </trkpt>
      <trkpt lat="44.15542" lon="5.01349">
        <ele>491.5</ele>
        <time>2020-09-08T09:51:15Z</time>
      </trkpt>
      <trkpt lat="44.15542" lon="5.0135">
        <ele>491.6</ele>
        <time>2020-09-08T09:51:16Z</time>
      </trkpt>
      <trkpt lat="44.15541" lon="5.01352">
        <ele>491.8</ele>
        <time>2020-09-08T09:51:17Z</time>
      </trkpt>
      <trkpt lat="44.15541" lon="5.01354">
        <ele>492</ele>
        <time>2020-09-08T09:51:18Z</time>
      </trkpt>
      <trkpt lat="44.15541" lon="5.01353">
        <ele>492</ele>
        <time>2020-09-08T09:51:19Z</time>
      </trkpt>
      <trkpt lat="44.15542" lon="5.01355">
        <ele>492.2</ele>
        <time>2020-09-08T09:51:20Z</time>
      </trkpt>
      <trkpt lat="44.15542" lon="5.01355">
        <ele>492.3</ele>
        <time>2020-09-08T09:51:21Z</time>
      </trkpt>
      <trkpt lat="44.15542" lon="5.01355">
        <ele>492.4</ele>
        <time>2020-09-08T09:51:22Z</time>
      </trkpt>
      <trkpt lat="44.15542" lon="5.01355">
        <ele>492.4</ele>
        <time>2020-09-08T09:51:23Z</time>
      </trkpt>
      <trkpt lat="44.15542" lon="5.01357">
        <ele>492.6</ele>
        <time>2020-09-08T09:51:24Z</time>
      </trkpt>
      <trkpt lat="44.15542" lon="5.01357">
        <ele>492.6</ele>
        <time>2020-09-08T09:51:25Z</time>
      </trkpt>
      <trkpt lat="44.15542" lon="5.01357">
        <ele>492.6</ele>
        <time>2020-09-08T09:51:26Z</time>
      </trkpt>
      <trkpt lat="44.15542" lon="5.01357">
        <ele>492.7</ele>
        <time>2020-09-08T09:51:27Z</time>
      </trkpt>
      <trkpt lat="44.15542" lon="5.01358">
        <ele>492.8</ele>
        <time>2020-09-08T09:51:28Z</time>
      </trkpt>
      <trkpt lat="44.15543" lon="5.01358">
        <ele>492.8</ele>
        <time>2020-09-08T09:51:29Z</time>
      </trkpt>
      <trkpt lat="44.15543" lon="5.01358">
        <ele>492.8</ele>
        <time>2020-09-08T09:51:30Z</time>
      </trkpt>
      <trkpt lat="44.15542" lon="5.0136">
        <ele>493</ele>
        <time>2020-09-08T09:51:31Z</time>
      </trkpt>
      <trkpt lat="44.15542" lon="5.01361">
        <ele>493.1</ele>
        <time>2020-09-08T09:51:32Z</time>
      </trkpt>
      <trkpt lat="44.15542" lon="5.01361">
        <ele>493.2</ele>
        <time>2020-09-08T09:51:33Z</time>
      </trkpt>
      <trkpt lat="44.15543" lon="5.01362">
        <ele>493.3</ele>
        <time>2020-09-08T09:51:34Z</time>
      </trkpt>
      <trkpt lat="44.15543" lon="5.01362">
        <ele>493.4</ele>
        <time>2020-09-08T09:51:35Z</time>
      </trkpt>
      <trkpt lat="44.15543" lon="5.01361">
        <ele>493.4</ele>
        <time>2020-09-08T09:51:36Z</time>
      </trkpt>
      <trkpt lat="44.15543" lon="5.01361">
        <ele>493.4</ele>
        <time>2020-09-08T09:51:37Z</time>
      </trkpt>
      <trkpt lat="44.15543" lon="5.01361">
        <ele>493.5</ele>
        <time>2020-09-08T09:51:38Z</time>
      </trkpt>
      <trkpt lat="44.15543" lon="5.01361">
        <ele>493.5</ele>
        <time>2020-09-08T09:51:39Z</time>
      </trkpt>
      <trkpt lat="44.15543" lon="5.01361">
        <ele>493.5</ele>
        <time>2020-09-08T09:51:40Z</time>
      </trkpt>
      <trkpt lat="44.15543" lon="5.01361">
        <ele>493.5</ele>
        <time>2020-09-08T09:51:41Z</time>
      </trkpt>
      <trkpt lat="44.15544" lon="5.01361">
        <ele>493.6</ele>
        <time>2020-09-08T09:51:42Z</time>
      </trkpt>
      <trkpt lat="44.15544" lon="5.01361">
        <ele>493.7</ele>
        <time>2020-09-08T09:51:43Z</time>
      </trkpt>
      <trkpt lat="44.15544" lon="5.0136">
        <ele>493.8</ele>
        <time>2020-09-08T09:51:44Z</time>
      </trkpt>
      <trkpt lat="44.15544" lon="5.0136">
        <ele>493.8</ele>
        <time>2020-09-08T09:51:45Z</time>
      </trkpt>
      <trkpt lat="44.15545" lon="5.0136">
        <ele>493.9</ele>
        <time>2020-09-08T09:51:46Z</time>
      </trkpt>
      <trkpt lat="44.15545" lon="5.01361">
        <ele>493.9</ele>
        <time>2020-09-08T09:51:47Z</time>
      </trkpt>
      <trkpt lat="44.15545" lon="5.0136">
        <ele>493.9</ele>
        <time>2020-09-08T09:51:48Z</time>
      </trkpt>
      <trkpt lat="44.15544" lon="5.0136">
        <ele>494</ele>
        <time>2020-09-08T09:51:49Z</time>
      </trkpt>
      <trkpt lat="44.15544" lon="5.0136">
        <ele>494</ele>
        <time>2020-09-08T09:51:50Z</time>
      </trkpt>
      <trkpt lat="44.15545" lon="5.0136">
        <ele>494.1</ele>
        <time>2020-09-08T09:51:51Z</time>
      </trkpt>
      <trkpt lat="44.15545" lon="5.0136">
        <ele>494.1</ele>
        <time>2020-09-08T09:51:52Z</time>
      </trkpt>
      <trkpt lat="44.15545" lon="5.0136">
        <ele>494.1</ele>
        <time>2020-09-08T09:51:53Z</time>
      </trkpt>
      <trkpt lat="44.15545" lon="5.0136">
        <ele>494.2</ele>
        <time>2020-09-08T09:51:54Z</time>
      </trkpt>
      <trkpt lat="44.15545" lon="5.01359">
        <ele>494.3</ele>
        <time>2020-09-08T09:51:55Z</time>
      </trkpt>
      <trkpt lat="44.15545" lon="5.01359">
        <ele>494.3</ele>
        <time>2020-09-08T09:51:56Z</time>
      </trkpt>
      <trkpt lat="44.15545" lon="5.01359">
        <ele>494.3</ele>
        <time>2020-09-08T09:51:57Z</time>
      </trkpt>
      <trkpt lat="44.15545" lon="5.01359">
        <ele>494.3</ele>
        <time>2020-09-08T09:51:58Z</time>
      </trkpt>
      <trkpt lat="44.15545" lon="5.01359">
        <ele>494.4</ele>
        <time>2020-09-08T09:51:59Z</time>
      </trkpt>
      <trkpt lat="44.15545" lon="5.01359">
        <ele>494.4</ele>
        <time>2020-09-08T09:52:00Z</time>
      </trkpt>
      <trkpt lat="44.15545" lon="5.01359">
        <ele>494.4</ele>
        <time>2020-09-08T09:52:01Z</time>
      </trkpt>
      <trkpt lat="44.15545" lon="5.0136">
        <ele>494.5</ele>
        <time>2020-09-08T09:52:02Z</time>
      </trkpt>
      <trkpt lat="44.15545" lon="5.0136">
        <ele>494.5</ele>
        <time>2020-09-08T09:52:03Z</time>
      </trkpt>
      <trkpt lat="44.15545" lon="5.0136">
        <ele>494.5</ele>
        <time>2020-09-08T09:52:04Z</time>
      </trkpt>
      <trkpt lat="44.15545" lon="5.0136">
        <ele>494.5</ele>
        <time>2020-09-08T09:52:05Z</time>
      </trkpt>
      <trkpt lat="44.15545" lon="5.0136">
        <ele>494.6</ele>
        <time>2020-09-08T09:52:06Z</time>
      </trkpt>
      <trkpt lat="44.15545" lon="5.0136">
        <ele>494.6</ele>
        <time>2020-09-08T09:52:07Z</time>
      </trkpt>
      <trkpt lat="44.15545" lon="5.0136">
        <ele>494.6</ele>
        <time>2020-09-08T09:52:08Z</time>
      </trkpt>
      <trkpt lat="44.15545" lon="5.0136">
        <ele>494.6</ele>
        <time>2020-09-08T09:52:09Z</time>
      </trkpt>
      <trkpt lat="44.15545" lon="5.0136">
        <ele>494.7</ele>
        <time>2020-09-08T09:52:10Z</time>
      </trkpt>
      <trkpt lat="44.15545" lon="5.0136">
        <ele>494.7</ele>
        <time>2020-09-08T09:52:11Z</time>
      </trkpt>
      <trkpt lat="44.15545" lon="5.0136">
        <ele>494.7</ele>
        <time>2020-09-08T09:52:12Z</time>
      </trkpt>
      <trkpt lat="44.15544" lon="5.0136">
        <ele>494.8</ele>
        <time>2020-09-08T09:52:13Z</time>
      </trkpt>
      <trkpt lat="44.15544" lon="5.0136">
        <ele>494.9</ele>
        <time>2020-09-08T09:52:14Z</time>
      </trkpt>
      <trkpt lat="44.15544" lon="5.0136">
        <ele>494.9</ele>
        <time>2020-09-08T09:52:15Z</time>
      </trkpt>
      <trkpt lat="44.15544" lon="5.01359">
        <ele>494.9</ele>
        <time>2020-09-08T09:52:16Z</time>
      </trkpt>
      <trkpt lat="44.15544" lon="5.01359">
        <ele>495</ele>
        <time>2020-09-08T09:52:17Z</time>
      </trkpt>
      <trkpt lat="44.15544" lon="5.01359">
        <ele>495</ele>
        <time>2020-09-08T09:52:18Z</time>
      </trkpt>
      <trkpt lat="44.15544" lon="5.01359">
        <ele>495</ele>
        <time>2020-09-08T09:52:19Z</time>
      </trkpt>
      <trkpt lat="44.15544" lon="5.01358">
        <ele>495.1</ele>
        <time>2020-09-08T09:52:20Z</time>
      </trkpt>
      <trkpt lat="44.15544" lon="5.01359">
        <ele>495.1</ele>
        <time>2020-09-08T09:52:21Z</time>
      </trkpt>
      <trkpt lat="44.15544" lon="5.01359">
        <ele>495.2</ele>
        <time>2020-09-08T09:52:22Z</time>
      </trkpt>
      <trkpt lat="44.15544" lon="5.01361">
        <ele>495.5</ele>
        <time>2020-09-08T09:52:23Z</time>
      </trkpt>
      <trkpt lat="44.15543" lon="5.01362">
        <ele>495.7</ele>
        <time>2020-09-08T09:52:24Z</time>
      </trkpt>
      <trkpt lat="44.15543" lon="5.01363">
        <ele>495.8</ele>
        <time>2020-09-08T09:52:25Z</time>
      </trkpt>
      <trkpt lat="44.15543" lon="5.01364">
        <ele>495.9</ele>
        <time>2020-09-08T09:52:26Z</time>
      </trkpt>
      <trkpt lat="44.15542" lon="5.01365">
        <ele>496.2</ele>
        <time>2020-09-08T09:52:27Z</time>
      </trkpt>
      <trkpt lat="44.15542" lon="5.01366">
        <ele>496.4</ele>
        <time>2020-09-08T09:52:28Z</time>
      </trkpt>
      <trkpt lat="44.15541" lon="5.01367">
        <ele>496.6</ele>
        <time>2020-09-08T09:52:29Z</time>
      </trkpt>
      <trkpt lat="44.15541" lon="5.01369">
        <ele>496.9</ele>
        <time>2020-09-08T09:52:30Z</time>
      </trkpt>
      <trkpt lat="44.15541" lon="5.0137">
        <ele>497.1</ele>
        <time>2020-09-08T09:52:31Z</time>
      </trkpt>
      <trkpt lat="44.15541" lon="5.01371">
        <ele>497.3</ele>
        <time>2020-09-08T09:52:32Z</time>
      </trkpt>
      <trkpt lat="44.1554" lon="5.01373">
        <ele>497.7</ele>
        <time>2020-09-08T09:52:33Z</time>
      </trkpt>
      <trkpt lat="44.15539" lon="5.01374">
        <ele>497.9</ele>
        <time>2020-09-08T09:52:34Z</time>
      </trkpt>
      <trkpt lat="44.15539" lon="5.01374">
        <ele>498.1</ele>
        <time>2020-09-08T09:52:35Z</time>
      </trkpt>
      <trkpt lat="44.15539" lon="5.01375">
        <ele>498.2</ele>
        <time>2020-09-08T09:52:36Z</time>
      </trkpt>
      <trkpt lat="44.15538" lon="5.01376">
        <ele>498.4</ele>
        <time>2020-09-08T09:52:37Z</time>
      </trkpt>
      <trkpt lat="44.15538" lon="5.01377">
        <ele>498.6</ele>
        <time>2020-09-08T09:52:38Z</time>
      </trkpt>
      <trkpt lat="44.15537" lon="5.01378">
        <ele>498.8</ele>
        <time>2020-09-08T09:52:39Z</time>
      </trkpt>
      <trkpt lat="44.15537" lon="5.01379">
        <ele>499</ele>
        <time>2020-09-08T09:52:40Z</time>
      </trkpt>
      <trkpt lat="44.15536" lon="5.0138">
        <ele>499.2</ele>
        <time>2020-09-08T09:52:41Z</time>
      </trkpt>
      <trkpt lat="44.15536" lon="5.01381">
        <ele>499.4</ele>
        <time>2020-09-08T09:52:42Z</time>
      </trkpt>
      <trkpt lat="44.15536" lon="5.01382">
        <ele>499.6</ele>
        <time>2020-09-08T09:52:43Z</time>
      </trkpt>
      <trkpt lat="44.15535" lon="5.01382">
        <ele>499.8</ele>
        <time>2020-09-08T09:52:44Z</time>
      </trkpt>
      <trkpt lat="44.15535" lon="5.01383">
        <ele>499.9</ele>
        <time>2020-09-08T09:52:45Z</time>
      </trkpt>
      <trkpt lat="44.15534" lon="5.01384">
        <ele>500.1</ele>
        <time>2020-09-08T09:52:46Z</time>
      </trkpt>
      <trkpt lat="44.15534" lon="5.01385">
        <ele>500.3</ele>
        <time>2020-09-08T09:52:47Z</time>
      </trkpt>
      <trkpt lat="44.15534" lon="5.01386">
        <ele>500.5</ele>
        <time>2020-09-08T09:52:48Z</time>
      </trkpt>
      <trkpt lat="44.15533" lon="5.01387">
        <ele>500.7</ele>
        <time>2020-09-08T09:52:49Z</time>
      </trkpt>
      <trkpt lat="44.15533" lon="5.01388">
        <ele>500.9</ele>
        <time>2020-09-08T09:52:50Z</time>
      </trkpt>
      <trkpt lat="44.15533" lon="5.01388">
        <ele>501</ele>
        <time>2020-09-08T09:52:51Z</time>
      </trkpt>
      <trkpt lat="44.15533" lon="5.01389">
        <ele>501.1</ele>
        <time>2020-09-08T09:52:52Z</time>
      </trkpt>
      <trkpt lat="44.15532" lon="5.0139">
        <ele>501.4</ele>
        <time>2020-09-08T09:52:53Z</time>
      </trkpt>
      <trkpt lat="44.15532" lon="5.01391">
        <ele>501.5</ele>
        <time>2020-09-08T09:52:54Z</time>
      </trkpt>
      <trkpt lat="44.15532" lon="5.01392">
        <ele>501.7</ele>
        <time>2020-09-08T09:52:55Z</time>
      </trkpt>
      <trkpt lat="44.15532" lon="5.01394">
        <ele>502</ele>
        <time>2020-09-08T09:52:56Z</time>
      </trkpt>
      <trkpt lat="44.15532" lon="5.01395">
        <ele>502.2</ele>
        <time>2020-09-08T09:52:57Z</time>
      </trkpt>
      <trkpt lat="44.15531" lon="5.01395">
        <ele>502.4</ele>
        <time>2020-09-08T09:52:58Z</time>
      </trkpt>
      <trkpt lat="44.15531" lon="5.01397">
        <ele>502.7</ele>
        <time>2020-09-08T09:52:59Z</time>
      </trkpt>
      <trkpt lat="44.1553" lon="5.01397">
        <ele>502.9</ele>
        <time>2020-09-08T09:53:00Z</time>
      </trkpt>
      <trkpt lat="44.15529" lon="5.01398">
        <ele>503.1</ele>
        <time>2020-09-08T09:53:01Z</time>
      </trkpt>
      <trkpt lat="44.15528" lon="5.01399">
        <ele>503.4</ele>
        <time>2020-09-08T09:53:02Z</time>
      </trkpt>
      <trkpt lat="44.15527" lon="5.01399">
        <ele>503.6</ele>
        <time>2020-09-08T09:53:03Z</time>
      </trkpt>
      <trkpt lat="44.15527" lon="5.014">
        <ele>503.9</ele>
        <time>2020-09-08T09:53:04Z</time>
      </trkpt>
      <trkpt lat="44.15526" lon="5.01401">
        <ele>504.1</ele>
        <time>2020-09-08T09:53:05Z</time>
      </trkpt>
      <trkpt lat="44.15526" lon="5.01402">
        <ele>504.4</ele>
        <time>2020-09-08T09:53:06Z</time>
      </trkpt>
      <trkpt lat="44.15525" lon="5.01404">
        <ele>504.6</ele>
        <time>2020-09-08T09:53:07Z</time>
      </trkpt>
      <trkpt lat="44.15525" lon="5.01405">
        <ele>504.9</ele>
        <time>2020-09-08T09:53:08Z</time>
      </trkpt>
      <trkpt lat="44.15525" lon="5.01406">
        <ele>505.1</ele>
        <time>2020-09-08T09:53:09Z</time>
      </trkpt>
      <trkpt lat="44.15524" lon="5.01407">
        <ele>505.3</ele>
        <time>2020-09-08T09:53:10Z</time>
      </trkpt>
      <trkpt lat="44.15524" lon="5.01408">
        <ele>505.4</ele>
        <time>2020-09-08T09:53:11Z</time>
      </trkpt>
      <trkpt lat="44.15524" lon="5.01408">
        <ele>505.6</ele>
        <time>2020-09-08T09:53:12Z</time>
      </trkpt>
      <trkpt lat="44.15523" lon="5.01409">
        <ele>505.8</ele>
        <time>2020-09-08T09:53:13Z</time>
      </trkpt>
      <trkpt lat="44.15523" lon="5.0141">
        <ele>506</ele>
        <time>2020-09-08T09:53:14Z</time>
      </trkpt>
      <trkpt lat="44.15522" lon="5.0141">
        <ele>506.2</ele>
        <time>2020-09-08T09:53:15Z</time>
      </trkpt>
      <trkpt lat="44.15522" lon="5.01411">
        <ele>506.3</ele>
        <time>2020-09-08T09:53:16Z</time>
      </trkpt>
      <trkpt lat="44.15522" lon="5.01411">
        <ele>506.4</ele>
        <time>2020-09-08T09:53:17Z</time>
      </trkpt>
      <trkpt lat="44.15521" lon="5.01412">
        <ele>506.5</ele>
        <time>2020-09-08T09:53:18Z</time>
      </trkpt>
      <trkpt lat="44.15521" lon="5.01412">
        <ele>506.7</ele>
        <time>2020-09-08T09:53:19Z</time>
      </trkpt>
      <trkpt lat="44.1552" lon="5.01413">
        <ele>506.9</ele>
        <time>2020-09-08T09:53:20Z</time>
      </trkpt>
      <trkpt lat="44.1552" lon="5.01413">
        <ele>507.1</ele>
        <time>2020-09-08T09:53:21Z</time>
      </trkpt>
      <trkpt lat="44.15519" lon="5.01413">
        <ele>507.3</ele>
        <time>2020-09-08T09:53:22Z</time>
      </trkpt>
      <trkpt lat="44.15519" lon="5.01414">
        <ele>507.5</ele>
        <time>2020-09-08T09:53:23Z</time>
      </trkpt>
      <trkpt lat="44.15518" lon="5.01414">
        <ele>507.7</ele>
        <time>2020-09-08T09:53:24Z</time>
      </trkpt>
      <trkpt lat="44.15518" lon="5.01415">
        <ele>507.8</ele>
        <time>2020-09-08T09:53:25Z</time>
      </trkpt>
      <trkpt lat="44.15517" lon="5.01416">
        <ele>508</ele>
        <time>2020-09-08T09:53:26Z</time>
      </trkpt>
      <trkpt lat="44.15516" lon="5.01416">
        <ele>508.3</ele>
        <time>2020-09-08T09:53:27Z</time>
      </trkpt>
      <trkpt lat="44.15516" lon="5.01417">
        <ele>508.4</ele>
        <time>2020-09-08T09:53:28Z</time>
      </trkpt>
      <trkpt lat="44.15515" lon="5.01418">
        <ele>508.7</ele>
        <time>2020-09-08T09:53:29Z</time>
      </trkpt>
      <trkpt lat="44.15515" lon="5.01418">
        <ele>508.8</ele>
        <time>2020-09-08T09:53:30Z</time>
      </trkpt>
      <trkpt lat="44.15515" lon="5.01418">
        <ele>508.9</ele>
        <time>2020-09-08T09:53:31Z</time>
      </trkpt>
      <trkpt lat="44.15515" lon="5.01418">
        <ele>508.9</ele>
        <time>2020-09-08T09:53:32Z</time>
      </trkpt>
      <trkpt lat="44.15514" lon="5.01418">
        <ele>509</ele>
        <time>2020-09-08T09:53:33Z</time>
      </trkpt>
      <trkpt lat="44.15514" lon="5.01419">
        <ele>509.2</ele>
        <time>2020-09-08T09:53:34Z</time>
      </trkpt>
      <trkpt lat="44.15514" lon="5.01419">
        <ele>509.3</ele>
        <time>2020-09-08T09:53:35Z</time>
      </trkpt>
      <trkpt lat="44.15513" lon="5.01419">
        <ele>509.5</ele>
        <time>2020-09-08T09:53:36Z</time>
      </trkpt>
      <trkpt lat="44.15513" lon="5.01419">
        <ele>509.7</ele>
        <time>2020-09-08T09:53:37Z</time>
      </trkpt>
      <trkpt lat="44.15512" lon="5.0142">
        <ele>509.8</ele>
        <time>2020-09-08T09:53:38Z</time>
      </trkpt>
      <trkpt lat="44.15512" lon="5.0142">
        <ele>510</ele>
        <time>2020-09-08T09:53:39Z</time>
      </trkpt>
      <trkpt lat="44.15511" lon="5.01421">
        <ele>510.3</ele>
        <time>2020-09-08T09:53:40Z</time>
      </trkpt>
      <trkpt lat="44.1551" lon="5.01422">
        <ele>510.5</ele>
        <time>2020-09-08T09:53:41Z</time>
      </trkpt>
      <trkpt lat="44.15509" lon="5.01422">
        <ele>510.7</ele>
        <time>2020-09-08T09:53:42Z</time>
      </trkpt>
      <trkpt lat="44.15508" lon="5.01423">
        <ele>511</ele>
        <time>2020-09-08T09:53:43Z</time>
      </trkpt>
      <trkpt lat="44.15509" lon="5.01424">
        <ele>511.2</ele>
        <time>2020-09-08T09:53:44Z</time>
      </trkpt>
      <trkpt lat="44.15509" lon="5.01425">
        <ele>511.5</ele>
        <time>2020-09-08T09:53:45Z</time>
      </trkpt>
      <trkpt lat="44.15509" lon="5.01426">
        <ele>511.7</ele>
        <time>2020-09-08T09:53:46Z</time>
      </trkpt>
      <trkpt lat="44.1551" lon="5.01427">
        <ele>511.9</ele>
        <time>2020-09-08T09:53:47Z</time>
      </trkpt>
      <trkpt lat="44.1551" lon="5.01426">
        <ele>512</ele>
        <time>2020-09-08T09:53:48Z</time>
      </trkpt>
      <trkpt lat="44.1551" lon="5.01426">
        <ele>512.1</ele>
        <time>2020-09-08T09:53:49Z</time>
      </trkpt>
      <trkpt lat="44.1551" lon="5.01426">
        <ele>512.1</ele>
        <time>2020-09-08T09:53:50Z</time>
      </trkpt>
      <trkpt lat="44.1551" lon="5.01426">
        <ele>512.2</ele>
        <time>2020-09-08T09:53:51Z</time>
      </trkpt>
      <trkpt lat="44.15511" lon="5.01426">
        <ele>512.3</ele>
        <time>2020-09-08T09:53:52Z</time>
      </trkpt>
      <trkpt lat="44.1551" lon="5.01426">
        <ele>512.5</ele>
        <time>2020-09-08T09:53:53Z</time>
      </trkpt>
      <trkpt lat="44.15509" lon="5.01427">
        <ele>512.8</ele>
        <time>2020-09-08T09:53:54Z</time>
      </trkpt>
      <trkpt lat="44.15509" lon="5.01426">
        <ele>512.9</ele>
        <time>2020-09-08T09:53:55Z</time>
      </trkpt>
      <trkpt lat="44.15508" lon="5.01427">
        <ele>513.1</ele>
        <time>2020-09-08T09:53:56Z</time>
      </trkpt>
      <trkpt lat="44.15508" lon="5.01429">
        <ele>513.5</ele>
        <time>2020-09-08T09:53:57Z</time>
      </trkpt>
      <trkpt lat="44.15507" lon="5.0143">
        <ele>513.6</ele>
        <time>2020-09-08T09:53:58Z</time>
      </trkpt>
      <trkpt lat="44.15506" lon="5.01431">
        <ele>514</ele>
        <time>2020-09-08T09:53:59Z</time>
      </trkpt>
      <trkpt lat="44.15506" lon="5.01432">
        <ele>514.1</ele>
        <time>2020-09-08T09:54:00Z</time>
      </trkpt>
      <trkpt lat="44.15506" lon="5.01433">
        <ele>514.3</ele>
        <time>2020-09-08T09:54:01Z</time>
      </trkpt>
      <trkpt lat="44.15505" lon="5.01434">
        <ele>514.5</ele>
        <time>2020-09-08T09:54:02Z</time>
      </trkpt>
      <trkpt lat="44.15504" lon="5.01435">
        <ele>514.8</ele>
        <time>2020-09-08T09:54:03Z</time>
      </trkpt>
      <trkpt lat="44.15504" lon="5.01436">
        <ele>515</ele>
        <time>2020-09-08T09:54:04Z</time>
      </trkpt>
      <trkpt lat="44.15503" lon="5.01437">
        <ele>515.2</ele>
        <time>2020-09-08T09:54:05Z</time>
      </trkpt>
      <trkpt lat="44.15502" lon="5.01438">
        <ele>515.5</ele>
        <time>2020-09-08T09:54:06Z</time>
      </trkpt>
      <trkpt lat="44.15502" lon="5.01439">
        <ele>515.7</ele>
        <time>2020-09-08T09:54:07Z</time>
      </trkpt>
      <trkpt lat="44.15502" lon="5.01439">
        <ele>515.8</ele>
        <time>2020-09-08T09:54:08Z</time>
      </trkpt>
      <trkpt lat="44.15501" lon="5.0144">
        <ele>516</ele>
        <time>2020-09-08T09:54:09Z</time>
      </trkpt>
      <trkpt lat="44.15501" lon="5.01441">
        <ele>516.1</ele>
        <time>2020-09-08T09:54:10Z</time>
      </trkpt>
      <trkpt lat="44.15501" lon="5.01442">
        <ele>516.3</ele>
        <time>2020-09-08T09:54:11Z</time>
      </trkpt>
      <trkpt lat="44.15501" lon="5.01442">
        <ele>516.4</ele>
        <time>2020-09-08T09:54:12Z</time>
      </trkpt>
      <trkpt lat="44.15502" lon="5.01443">
        <ele>516.6</ele>
        <time>2020-09-08T09:54:13Z</time>
      </trkpt>
      <trkpt lat="44.15501" lon="5.01443">
        <ele>516.7</ele>
        <time>2020-09-08T09:54:14Z</time>
      </trkpt>
      <trkpt lat="44.15501" lon="5.01444">
        <ele>516.7</ele>
        <time>2020-09-08T09:54:15Z</time>
      </trkpt>
      <trkpt lat="44.15501" lon="5.01444">
        <ele>516.9</ele>
        <time>2020-09-08T09:54:16Z</time>
      </trkpt>
      <trkpt lat="44.15501" lon="5.01444">
        <ele>517</ele>
        <time>2020-09-08T09:54:17Z</time>
      </trkpt>
      <trkpt lat="44.155" lon="5.01445">
        <ele>517</ele>
        <time>2020-09-08T09:54:18Z</time>
      </trkpt>
      <trkpt lat="44.155" lon="5.01445">
        <ele>517.1</ele>
        <time>2020-09-08T09:54:19Z</time>
      </trkpt>
      <trkpt lat="44.155" lon="5.01445">
        <ele>517.2</ele>
        <time>2020-09-08T09:54:20Z</time>
      </trkpt>
      <trkpt lat="44.155" lon="5.01446">
        <ele>517.3</ele>
        <time>2020-09-08T09:54:21Z</time>
      </trkpt>
      <trkpt lat="44.15499" lon="5.01446">
        <ele>517.4</ele>
        <time>2020-09-08T09:54:22Z</time>
      </trkpt>
      <trkpt lat="44.15499" lon="5.01446">
        <ele>517.4</ele>
        <time>2020-09-08T09:54:23Z</time>
      </trkpt>
      <trkpt lat="44.15499" lon="5.01446">
        <ele>517.5</ele>
        <time>2020-09-08T09:54:24Z</time>
      </trkpt>
      <trkpt lat="44.15498" lon="5.01447">
        <ele>517.6</ele>
        <time>2020-09-08T09:54:25Z</time>
      </trkpt>
      <trkpt lat="44.15498" lon="5.01447">
        <ele>517.7</ele>
        <time>2020-09-08T09:54:26Z</time>
      </trkpt>
      <trkpt lat="44.15498" lon="5.01447">
        <ele>517.8</ele>
        <time>2020-09-08T09:54:27Z</time>
      </trkpt>
      <trkpt lat="44.15498" lon="5.01448">
        <ele>517.9</ele>
        <time>2020-09-08T09:54:28Z</time>
      </trkpt>
      <trkpt lat="44.15497" lon="5.01448">
        <ele>517.9</ele>
        <time>2020-09-08T09:54:29Z</time>
      </trkpt>
      <trkpt lat="44.15497" lon="5.01448">
        <ele>518</ele>
        <time>2020-09-08T09:54:30Z</time>
      </trkpt>
      <trkpt lat="44.15497" lon="5.01449">
        <ele>518.1</ele>
        <time>2020-09-08T09:54:31Z</time>
      </trkpt>
      <trkpt lat="44.15497" lon="5.01449">
        <ele>518.2</ele>
        <time>2020-09-08T09:54:32Z</time>
      </trkpt>
      <trkpt lat="44.15496" lon="5.01449">
        <ele>518.3</ele>
        <time>2020-09-08T09:54:33Z</time>
      </trkpt>
      <trkpt lat="44.15496" lon="5.01449">
        <ele>518.3</ele>
        <time>2020-09-08T09:54:34Z</time>
      </trkpt>
      <trkpt lat="44.15496" lon="5.0145">
        <ele>518.4</ele>
        <time>2020-09-08T09:54:35Z</time>
      </trkpt>
      <trkpt lat="44.15496" lon="5.0145">
        <ele>518.5</ele>
        <time>2020-09-08T09:54:36Z</time>
      </trkpt>
      <trkpt lat="44.15495" lon="5.0145">
        <ele>518.6</ele>
        <time>2020-09-08T09:54:37Z</time>
      </trkpt>
      <trkpt lat="44.15495" lon="5.01451">
        <ele>518.7</ele>
        <time>2020-09-08T09:54:38Z</time>
      </trkpt>
      <trkpt lat="44.15495" lon="5.01451">
        <ele>518.7</ele>
        <time>2020-09-08T09:54:39Z</time>
      </trkpt>
      <trkpt lat="44.15494" lon="5.01451">
        <ele>518.8</ele>
        <time>2020-09-08T09:54:40Z</time>
      </trkpt>
      <trkpt lat="44.15494" lon="5.01451">
        <ele>518.9</ele>
        <time>2020-09-08T09:54:41Z</time>
      </trkpt>
      <trkpt lat="44.15494" lon="5.01452">
        <ele>519</ele>
        <time>2020-09-08T09:54:42Z</time>
      </trkpt>
      <trkpt lat="44.15494" lon="5.01452">
        <ele>519.1</ele>
        <time>2020-09-08T09:54:43Z</time>
      </trkpt>
      <trkpt lat="44.15493" lon="5.01452">
        <ele>519.1</ele>
        <time>2020-09-08T09:54:44Z</time>
      </trkpt>
      <trkpt lat="44.15493" lon="5.01453">
        <ele>519.2</ele>
        <time>2020-09-08T09:54:45Z</time>
      </trkpt>
      <trkpt lat="44.15493" lon="5.01453">
        <ele>519.3</ele>
        <time>2020-09-08T09:54:46Z</time>
      </trkpt>
      <trkpt lat="44.15493" lon="5.01453">
        <ele>519.4</ele>
        <time>2020-09-08T09:54:47Z</time>
      </trkpt>
      <trkpt lat="44.15492" lon="5.01453">
        <ele>519.5</ele>
        <time>2020-09-08T09:54:48Z</time>
      </trkpt>
      <trkpt lat="44.15492" lon="5.01454">
        <ele>519.6</ele>
        <time>2020-09-08T09:54:49Z</time>
      </trkpt>
      <trkpt lat="44.15492" lon="5.01454">
        <ele>519.6</ele>
        <time>2020-09-08T09:54:50Z</time>
      </trkpt>
      <trkpt lat="44.15492" lon="5.01454">
        <ele>519.7</ele>
        <time>2020-09-08T09:54:51Z</time>
      </trkpt>
      <trkpt lat="44.15491" lon="5.01455">
        <ele>519.8</ele>
        <time>2020-09-08T09:54:52Z</time>
      </trkpt>
      <trkpt lat="44.15491" lon="5.01455">
        <ele>519.9</ele>
        <time>2020-09-08T09:54:53Z</time>
      </trkpt>
      <trkpt lat="44.15491" lon="5.01455">
        <ele>520</ele>
        <time>2020-09-08T09:54:54Z</time>
      </trkpt>
      <trkpt lat="44.1549" lon="5.01455">
        <ele>520.1</ele>
        <time>2020-09-08T09:54:55Z</time>
      </trkpt>
      <trkpt lat="44.1549" lon="5.01456">
        <ele>520.1</ele>
        <time>2020-09-08T09:54:56Z</time>
      </trkpt>
      <trkpt lat="44.1549" lon="5.01456">
        <ele>520.2</ele>
        <time>2020-09-08T09:54:57Z</time>
      </trkpt>
      <trkpt lat="44.1549" lon="5.01456">
        <ele>520.3</ele>
        <time>2020-09-08T09:54:58Z</time>
      </trkpt>
      <trkpt lat="44.15489" lon="5.01457">
        <ele>520.4</ele>
        <time>2020-09-08T09:54:59Z</time>
      </trkpt>
      <trkpt lat="44.15489" lon="5.01457">
        <ele>520.4</ele>
        <time>2020-09-08T09:55:00Z</time>
      </trkpt>
      <trkpt lat="44.15489" lon="5.01457">
        <ele>520.5</ele>
        <time>2020-09-08T09:55:01Z</time>
      </trkpt>
      <trkpt lat="44.15489" lon="5.01457">
        <ele>520.6</ele>
        <time>2020-09-08T09:55:02Z</time>
      </trkpt>
      <trkpt lat="44.15488" lon="5.01458">
        <ele>520.7</ele>
        <time>2020-09-08T09:55:03Z</time>
      </trkpt>
      <trkpt lat="44.15488" lon="5.01458">
        <ele>520.7</ele>
        <time>2020-09-08T09:55:04Z</time>
      </trkpt>
      <trkpt lat="44.15488" lon="5.01458">
        <ele>520.8</ele>
        <time>2020-09-08T09:55:05Z</time>
      </trkpt>
      <trkpt lat="44.15488" lon="5.01459">
        <ele>520.9</ele>
        <time>2020-09-08T09:55:06Z</time>
      </trkpt>
      <trkpt lat="44.15487" lon="5.01459">
        <ele>521</ele>
        <time>2020-09-08T09:55:07Z</time>
      </trkpt>
      <trkpt lat="44.15487" lon="5.01459">
        <ele>521.1</ele>
        <time>2020-09-08T09:55:08Z</time>
      </trkpt>
      <trkpt lat="44.15486" lon="5.0146">
        <ele>521.3</ele>
        <time>2020-09-08T09:55:09Z</time>
      </trkpt>
      <trkpt lat="44.15486" lon="5.01461">
        <ele>521.5</ele>
        <time>2020-09-08T09:55:10Z</time>
      </trkpt>
      <trkpt lat="44.15485" lon="5.01462">
        <ele>521.6</ele>
        <time>2020-09-08T09:55:11Z</time>
      </trkpt>
      <trkpt lat="44.15485" lon="5.01463">
        <ele>521.8</ele>
        <time>2020-09-08T09:55:12Z</time>
      </trkpt>
      <trkpt lat="44.15484" lon="5.01463">
        <ele>522</ele>
        <time>2020-09-08T09:55:13Z</time>
      </trkpt>
      <trkpt lat="44.15484" lon="5.01464">
        <ele>522.1</ele>
        <time>2020-09-08T09:55:14Z</time>
      </trkpt>
      <trkpt lat="44.15483" lon="5.01466">
        <ele>522.4</ele>
        <time>2020-09-08T09:55:15Z</time>
      </trkpt>
      <trkpt lat="44.15483" lon="5.01466">
        <ele>522.5</ele>
        <time>2020-09-08T09:55:16Z</time>
      </trkpt>
      <trkpt lat="44.15483" lon="5.01467">
        <ele>522.6</ele>
        <time>2020-09-08T09:55:17Z</time>
      </trkpt>
      <trkpt lat="44.15482" lon="5.01468">
        <ele>522.9</ele>
        <time>2020-09-08T09:55:18Z</time>
      </trkpt>
      <trkpt lat="44.15482" lon="5.01469">
        <ele>523</ele>
        <time>2020-09-08T09:55:19Z</time>
      </trkpt>
      <trkpt lat="44.15481" lon="5.0147">
        <ele>523.3</ele>
        <time>2020-09-08T09:55:20Z</time>
      </trkpt>
      <trkpt lat="44.15481" lon="5.01471">
        <ele>523.4</ele>
        <time>2020-09-08T09:55:21Z</time>
      </trkpt>
      <trkpt lat="44.15481" lon="5.01472">
        <ele>523.6</ele>
        <time>2020-09-08T09:55:22Z</time>
      </trkpt>
      <trkpt lat="44.1548" lon="5.01473">
        <ele>523.8</ele>
        <time>2020-09-08T09:55:23Z</time>
      </trkpt>
      <trkpt lat="44.1548" lon="5.01474">
        <ele>523.9</ele>
        <time>2020-09-08T09:55:24Z</time>
      </trkpt>
      <trkpt lat="44.1548" lon="5.01475">
        <ele>524</ele>
        <time>2020-09-08T09:55:25Z</time>
      </trkpt>
      <trkpt lat="44.15479" lon="5.01476">
        <ele>524.3</ele>
        <time>2020-09-08T09:55:26Z</time>
      </trkpt>
      <trkpt lat="44.15478" lon="5.01477">
        <ele>524.5</ele>
        <time>2020-09-08T09:55:27Z</time>
      </trkpt>
      <trkpt lat="44.15478" lon="5.01477">
        <ele>524.5</ele>
        <time>2020-09-08T09:55:28Z</time>
      </trkpt>
      <trkpt lat="44.15478" lon="5.01478">
        <ele>524.8</ele>
        <time>2020-09-08T09:55:29Z</time>
      </trkpt>
      <trkpt lat="44.15478" lon="5.01479">
        <ele>524.9</ele>
        <time>2020-09-08T09:55:30Z</time>
      </trkpt>
      <trkpt lat="44.15477" lon="5.01479">
        <ele>525.1</ele>
        <time>2020-09-08T09:55:31Z</time>
      </trkpt>
      <trkpt lat="44.15476" lon="5.01479">
        <ele>525.3</ele>
        <time>2020-09-08T09:55:32Z</time>
      </trkpt>
      <trkpt lat="44.15475" lon="5.0148">
        <ele>525.5</ele>
        <time>2020-09-08T09:55:33Z</time>
      </trkpt>
      <trkpt lat="44.15474" lon="5.01481">
        <ele>525.7</ele>
        <time>2020-09-08T09:55:34Z</time>
      </trkpt>
      <trkpt lat="44.15474" lon="5.01482">
        <ele>525.8</ele>
        <time>2020-09-08T09:55:35Z</time>
      </trkpt>
      <trkpt lat="44.15473" lon="5.01483">
        <ele>526</ele>
        <time>2020-09-08T09:55:36Z</time>
      </trkpt>
      <trkpt lat="44.15473" lon="5.01484">
        <ele>526.2</ele>
        <time>2020-09-08T09:55:37Z</time>
      </trkpt>
      <trkpt lat="44.15473" lon="5.01485">
        <ele>526.3</ele>
        <time>2020-09-08T09:55:38Z</time>
      </trkpt>
      <trkpt lat="44.15473" lon="5.01486">
        <ele>526.5</ele>
        <time>2020-09-08T09:55:39Z</time>
      </trkpt>
      <trkpt lat="44.15474" lon="5.01487">
        <ele>526.6</ele>
        <time>2020-09-08T09:55:40Z</time>
      </trkpt>
      <trkpt lat="44.15474" lon="5.01488">
        <ele>526.9</ele>
        <time>2020-09-08T09:55:41Z</time>
      </trkpt>
      <trkpt lat="44.15474" lon="5.0149">
        <ele>527.1</ele>
        <time>2020-09-08T09:55:42Z</time>
      </trkpt>
      <trkpt lat="44.15474" lon="5.01491">
        <ele>527.3</ele>
        <time>2020-09-08T09:55:43Z</time>
      </trkpt>
      <trkpt lat="44.15474" lon="5.01493">
        <ele>527.5</ele>
        <time>2020-09-08T09:55:44Z</time>
      </trkpt>
      <trkpt lat="44.15474" lon="5.01493">
        <ele>527.6</ele>
        <time>2020-09-08T09:55:45Z</time>
      </trkpt>
      <trkpt lat="44.15473" lon="5.01494">
        <ele>527.8</ele>
        <time>2020-09-08T09:55:46Z</time>
      </trkpt>
      <trkpt lat="44.15473" lon="5.01495">
        <ele>527.9</ele>
        <time>2020-09-08T09:55:47Z</time>
      </trkpt>
      <trkpt lat="44.15472" lon="5.01496">
        <ele>528.1</ele>
        <time>2020-09-08T09:55:48Z</time>
      </trkpt>
      <trkpt lat="44.15472" lon="5.01497">
        <ele>528.2</ele>
        <time>2020-09-08T09:55:49Z</time>
      </trkpt>
      <trkpt lat="44.15471" lon="5.01499">
        <ele>528.5</ele>
        <time>2020-09-08T09:55:50Z</time>
      </trkpt>
      <trkpt lat="44.15471" lon="5.015">
        <ele>528.7</ele>
        <time>2020-09-08T09:55:51Z</time>
      </trkpt>
      <trkpt lat="44.15471" lon="5.01501">
        <ele>528.8</ele>
        <time>2020-09-08T09:55:52Z</time>
      </trkpt>
      <trkpt lat="44.15471" lon="5.01502">
        <ele>529</ele>
        <time>2020-09-08T09:55:53Z</time>
      </trkpt>
      <trkpt lat="44.1547" lon="5.01504">
        <ele>529.2</ele>
        <time>2020-09-08T09:55:54Z</time>
      </trkpt>
      <trkpt lat="44.1547" lon="5.01504">
        <ele>529.4</ele>
        <time>2020-09-08T09:55:55Z</time>
      </trkpt>
      <trkpt lat="44.15469" lon="5.01505">
        <ele>529.5</ele>
        <time>2020-09-08T09:55:56Z</time>
      </trkpt>
      <trkpt lat="44.15468" lon="5.01506">
        <ele>529.7</ele>
        <time>2020-09-08T09:55:57Z</time>
      </trkpt>
      <trkpt lat="44.15468" lon="5.01506">
        <ele>529.7</ele>
        <time>2020-09-08T09:55:58Z</time>
      </trkpt>
      <trkpt lat="44.15467" lon="5.01506">
        <ele>529.9</ele>
        <time>2020-09-08T09:55:59Z</time>
      </trkpt>
      <trkpt lat="44.15467" lon="5.01507">
        <ele>529.9</ele>
        <time>2020-09-08T09:56:00Z</time>
      </trkpt>
      <trkpt lat="44.15467" lon="5.01509">
        <ele>530.1</ele>
        <time>2020-09-08T09:56:01Z</time>
      </trkpt>
      <trkpt lat="44.15466" lon="5.01509">
        <ele>530.3</ele>
        <time>2020-09-08T09:56:02Z</time>
      </trkpt>
      <trkpt lat="44.15466" lon="5.01511">
        <ele>530.5</ele>
        <time>2020-09-08T09:56:03Z</time>
      </trkpt>
      <trkpt lat="44.15466" lon="5.01512">
        <ele>530.7</ele>
        <time>2020-09-08T09:56:04Z</time>
      </trkpt>
      <trkpt lat="44.15466" lon="5.01513">
        <ele>530.8</ele>
        <time>2020-09-08T09:56:05Z</time>
      </trkpt>
      <trkpt lat="44.15465" lon="5.01514">
        <ele>531</ele>
        <time>2020-09-08T09:56:06Z</time>
      </trkpt>
      <trkpt lat="44.15465" lon="5.01516">
        <ele>531.1</ele>
        <time>2020-09-08T09:56:07Z</time>
      </trkpt>
      <trkpt lat="44.15465" lon="5.01517">
        <ele>531.2</ele>
        <time>2020-09-08T09:56:08Z</time>
      </trkpt>
      <trkpt lat="44.15464" lon="5.01516">
        <ele>531.4</ele>
        <time>2020-09-08T09:56:09Z</time>
      </trkpt>
      <trkpt lat="44.15464" lon="5.01517">
        <ele>531.5</ele>
        <time>2020-09-08T09:56:10Z</time>
      </trkpt>
      <trkpt lat="44.15464" lon="5.01519">
        <ele>531.6</ele>
        <time>2020-09-08T09:56:11Z</time>
      </trkpt>
      <trkpt lat="44.15464" lon="5.01521">
        <ele>531.8</ele>
        <time>2020-09-08T09:56:12Z</time>
      </trkpt>
      <trkpt lat="44.15464" lon="5.01522">
        <ele>531.9</ele>
        <time>2020-09-08T09:56:13Z</time>
      </trkpt>
      <trkpt lat="44.15464" lon="5.01523">
        <ele>532</ele>
        <time>2020-09-08T09:56:14Z</time>
      </trkpt>
      <trkpt lat="44.15464" lon="5.01523">
        <ele>532</ele>
        <time>2020-09-08T09:56:15Z</time>
      </trkpt>
      <trkpt lat="44.15464" lon="5.01523">
        <ele>532</ele>
        <time>2020-09-08T09:56:16Z</time>
      </trkpt>
      <trkpt lat="44.15464" lon="5.01523">
        <ele>532</ele>
        <time>2020-09-08T09:56:17Z</time>
      </trkpt>
      <trkpt lat="44.15464" lon="5.01523">
        <ele>532</ele>
        <time>2020-09-08T09:56:18Z</time>
      </trkpt>
      <trkpt lat="44.15464" lon="5.01523">
        <ele>532</ele>
        <time>2020-09-08T09:56:19Z</time>
      </trkpt>
      <trkpt lat="44.15464" lon="5.01523">
        <ele>532</ele>
        <time>2020-09-08T09:56:20Z</time>
      </trkpt>
      <trkpt lat="44.15464" lon="5.01523">
        <ele>532</ele>
        <time>2020-09-08T09:56:21Z</time>
      </trkpt>
      <trkpt lat="44.15464" lon="5.01524">
        <ele>532</ele>
        <time>2020-09-08T09:56:22Z</time>
      </trkpt>
      <trkpt lat="44.15464" lon="5.01524">
        <ele>532</ele>
        <time>2020-09-08T09:56:23Z</time>
      </trkpt>
      <trkpt lat="44.15464" lon="5.01524">
        <ele>532.1</ele>
        <time>2020-09-08T09:56:24Z</time>
      </trkpt>
      <trkpt lat="44.15464" lon="5.01524">
        <ele>532.1</ele>
        <time>2020-09-08T09:56:25Z</time>
      </trkpt>
      <trkpt lat="44.15464" lon="5.01524">
        <ele>532.1</ele>
        <time>2020-09-08T09:56:26Z</time>
      </trkpt>
      <trkpt lat="44.15464" lon="5.01524">
        <ele>532.1</ele>
        <time>2020-09-08T09:56:27Z</time>
      </trkpt>
      <trkpt lat="44.15464" lon="5.01524">
        <ele>532.1</ele>
        <time>2020-09-08T09:56:28Z</time>
      </trkpt>
      <trkpt lat="44.15464" lon="5.01524">
        <ele>532.1</ele>
        <time>2020-09-08T09:56:29Z</time>
      </trkpt>
      <trkpt lat="44.15465" lon="5.01524">
        <ele>532.1</ele>
        <time>2020-09-08T09:56:30Z</time>
      </trkpt>
      <trkpt lat="44.15465" lon="5.01524">
        <ele>532.1</ele>
        <time>2020-09-08T09:56:31Z</time>
      </trkpt>
      <trkpt lat="44.15465" lon="5.01524">
        <ele>532.1</ele>
        <time>2020-09-08T09:56:32Z</time>
      </trkpt>
      <trkpt lat="44.15465" lon="5.01524">
        <ele>532.1</ele>
        <time>2020-09-08T09:56:33Z</time>
      </trkpt>
      <trkpt lat="44.15465" lon="5.01525">
        <ele>532.1</ele>
        <time>2020-09-08T09:56:34Z</time>
      </trkpt>
      <trkpt lat="44.15465" lon="5.01525">
        <ele>532.1</ele>
        <time>2020-09-08T09:56:35Z</time>
      </trkpt>
      <trkpt lat="44.15465" lon="5.01525">
        <ele>532.1</ele>
        <time>2020-09-08T09:56:36Z</time>
      </trkpt>
      <trkpt lat="44.15465" lon="5.01525">
        <ele>532.1</ele>
        <time>2020-09-08T09:56:37Z</time>
      </trkpt>
      <trkpt lat="44.15465" lon="5.01525">
        <ele>532.1</ele>
        <time>2020-09-08T09:56:38Z</time>
      </trkpt>
      <trkpt lat="44.15465" lon="5.01525">
        <ele>532.2</ele>
        <time>2020-09-08T09:56:39Z</time>
      </trkpt>
      <trkpt lat="44.15465" lon="5.01525">
        <ele>532.2</ele>
        <time>2020-09-08T09:56:40Z</time>
      </trkpt>
      <trkpt lat="44.15465" lon="5.01525">
        <ele>532.2</ele>
        <time>2020-09-08T09:56:41Z</time>
      </trkpt>
      <trkpt lat="44.15465" lon="5.01525">
        <ele>532.2</ele>
        <time>2020-09-08T09:56:42Z</time>
      </trkpt>
      <trkpt lat="44.15465" lon="5.01525">
        <ele>532.2</ele>
        <time>2020-09-08T09:56:43Z</time>
      </trkpt>
      <trkpt lat="44.15465" lon="5.01525">
        <ele>532.2</ele>
        <time>2020-09-08T09:56:44Z</time>
      </trkpt>
      <trkpt lat="44.15465" lon="5.01525">
        <ele>532.2</ele>
        <time>2020-09-08T09:56:45Z</time>
      </trkpt>
      <trkpt lat="44.15465" lon="5.01525">
        <ele>532.2</ele>
        <time>2020-09-08T09:56:46Z</time>
      </trkpt>
      <trkpt lat="44.15465" lon="5.01526">
        <ele>532.2</ele>
        <time>2020-09-08T09:56:47Z</time>
      </trkpt>
      <trkpt lat="44.15465" lon="5.01526">
        <ele>532.2</ele>
        <time>2020-09-08T09:56:48Z</time>
      </trkpt>
      <trkpt lat="44.15465" lon="5.01526">
        <ele>532.2</ele>
        <time>2020-09-08T09:56:49Z</time>
      </trkpt>
      <trkpt lat="44.15465" lon="5.01526">
        <ele>532.2</ele>
        <time>2020-09-08T09:56:50Z</time>
      </trkpt>
      <trkpt lat="44.15465" lon="5.01526">
        <ele>532.2</ele>
        <time>2020-09-08T09:56:51Z</time>
      </trkpt>
      <trkpt lat="44.15465" lon="5.01526">
        <ele>532.2</ele>
        <time>2020-09-08T09:56:52Z</time>
      </trkpt>
      <trkpt lat="44.15465" lon="5.01526">
        <ele>532.2</ele>
        <time>2020-09-08T09:56:53Z</time>
      </trkpt>
      <trkpt lat="44.15465" lon="5.01526">
        <ele>532.3</ele>
        <time>2020-09-08T09:56:54Z</time>
      </trkpt>
      <trkpt lat="44.15465" lon="5.01526">
        <ele>532.3</ele>
        <time>2020-09-08T09:56:55Z</time>
      </trkpt>
      <trkpt lat="44.15465" lon="5.01526">
        <ele>532.3</ele>
        <time>2020-09-08T09:56:56Z</time>
      </trkpt>
      <trkpt lat="44.15465" lon="5.01526">
        <ele>532.3</ele>
        <time>2020-09-08T09:56:57Z</time>
      </trkpt>
      <trkpt lat="44.15465" lon="5.01526">
        <ele>532.3</ele>
        <time>2020-09-08T09:56:58Z</time>
      </trkpt>
      <trkpt lat="44.15465" lon="5.01527">
        <ele>532.3</ele>
        <time>2020-09-08T09:56:59Z</time>
      </trkpt>
      <trkpt lat="44.15465" lon="5.01527">
        <ele>532.3</ele>
        <time>2020-09-08T09:57:00Z</time>
      </trkpt>
      <trkpt lat="44.15465" lon="5.01527">
        <ele>532.3</ele>
        <time>2020-09-08T09:57:01Z</time>
      </trkpt>
      <trkpt lat="44.15465" lon="5.01527">
        <ele>532.3</ele>
        <time>2020-09-08T09:57:02Z</time>
      </trkpt>
      <trkpt lat="44.15465" lon="5.01527">
        <ele>532.3</ele>
        <time>2020-09-08T09:57:03Z</time>
      </trkpt>
      <trkpt lat="44.15465" lon="5.01527">
        <ele>532.3</ele>
        <time>2020-09-08T09:57:04Z</time>
      </trkpt>
      <trkpt lat="44.15465" lon="5.01527">
        <ele>532.3</ele>
        <time>2020-09-08T09:57:05Z</time>
      </trkpt>
      <trkpt lat="44.15465" lon="5.01527">
        <ele>532.3</ele>
        <time>2020-09-08T09:57:06Z</time>
      </trkpt>
      <trkpt lat="44.15465" lon="5.01527">
        <ele>532.3</ele>
        <time>2020-09-08T09:57:07Z</time>
      </trkpt>
      <trkpt lat="44.15465" lon="5.01527">
        <ele>532.3</ele>
        <time>2020-09-08T09:57:08Z</time>
      </trkpt>
      <trkpt lat="44.15465" lon="5.01527">
        <ele>532.3</ele>
        <time>2020-09-08T09:57:09Z</time>
      </trkpt>
      <trkpt lat="44.15465" lon="5.01527">
        <ele>532.3</ele>
        <time>2020-09-08T09:57:10Z</time>
      </trkpt>
      <trkpt lat="44.15465" lon="5.01528">
        <ele>532.3</ele>
        <time>2020-09-08T09:57:11Z</time>
      </trkpt>
      <trkpt lat="44.15465" lon="5.01528">
        <ele>532.4</ele>
        <time>2020-09-08T09:57:12Z</time>
      </trkpt>
      <trkpt lat="44.15465" lon="5.01528">
        <ele>532.4</ele>
        <time>2020-09-08T09:57:13Z</time>
      </trkpt>
      <trkpt lat="44.15465" lon="5.01528">
        <ele>532.4</ele>
        <time>2020-09-08T09:57:14Z</time>
      </trkpt>
      <trkpt lat="44.15465" lon="5.01528">
        <ele>532.4</ele>
        <time>2020-09-08T09:57:15Z</time>
      </trkpt>
      <trkpt lat="44.15466" lon="5.01528">
        <ele>532.4</ele>
        <time>2020-09-08T09:57:16Z</time>
      </trkpt>
      <trkpt lat="44.15466" lon="5.01528">
        <ele>532.4</ele>
        <time>2020-09-08T09:57:17Z</time>
      </trkpt>
      <trkpt lat="44.15466" lon="5.01528">
        <ele>532.4</ele>
        <time>2020-09-08T09:57:18Z</time>
      </trkpt>
      <trkpt lat="44.15466" lon="5.01528">
        <ele>532.4</ele>
        <time>2020-09-08T09:57:19Z</time>
      </trkpt>
      <trkpt lat="44.15466" lon="5.01528">
        <ele>532.4</ele>
        <time>2020-09-08T09:57:20Z</time>
      </trkpt>
      <trkpt lat="44.15466" lon="5.01528">
        <ele>532.4</ele>
        <time>2020-09-08T09:57:21Z</time>
      </trkpt>
      <trkpt lat="44.15466" lon="5.01528">
        <ele>532.4</ele>
        <time>2020-09-08T09:57:22Z</time>
      </trkpt>
      <trkpt lat="44.15466" lon="5.01528">
        <ele>532.4</ele>
        <time>2020-09-08T09:57:23Z</time>
      </trkpt>
      <trkpt lat="44.15466" lon="5.01529">
        <ele>532.4</ele>
        <time>2020-09-08T09:57:24Z</time>
      </trkpt>
      <trkpt lat="44.15466" lon="5.01529">
        <ele>532.4</ele>
        <time>2020-09-08T09:57:25Z</time>
      </trkpt>
      <trkpt lat="44.15466" lon="5.01529">
        <ele>532.4</ele>
        <time>2020-09-08T09:57:26Z</time>
      </trkpt>
      <trkpt lat="44.15466" lon="5.01529">
        <ele>532.4</ele>
        <time>2020-09-08T09:57:27Z</time>
      </trkpt>
      <trkpt lat="44.15466" lon="5.01529">
        <ele>532.4</ele>
        <time>2020-09-08T09:57:28Z</time>
      </trkpt>
      <trkpt lat="44.15466" lon="5.01529">
        <ele>532.4</ele>
        <time>2020-09-08T09:57:29Z</time>
      </trkpt>
      <trkpt lat="44.15466" lon="5.01529">
        <ele>532.4</ele>
        <time>2020-09-08T09:57:30Z</time>
      </trkpt>
      <trkpt lat="44.15466" lon="5.01529">
        <ele>532.4</ele>
        <time>2020-09-08T09:57:31Z</time>
      </trkpt>
      <trkpt lat="44.15466" lon="5.01529">
        <ele>532.4</ele>
        <time>2020-09-08T09:57:32Z</time>
      </trkpt>
      <trkpt lat="44.15466" lon="5.01529">
        <ele>532.4</ele>
        <time>2020-09-08T09:57:33Z</time>
      </trkpt>
      <trkpt lat="44.15466" lon="5.01529">
        <ele>532.4</ele>
        <time>2020-09-08T09:57:34Z</time>
      </trkpt>
      <trkpt lat="44.15466" lon="5.01529">
        <ele>532.4</ele>
        <time>2020-09-08T09:57:35Z</time>
      </trkpt>
      <trkpt lat="44.15466" lon="5.0153">
        <ele>532.5</ele>
        <time>2020-09-08T09:57:36Z</time>
      </trkpt>
      <trkpt lat="44.15466" lon="5.0153">
        <ele>532.5</ele>
        <time>2020-09-08T09:57:37Z</time>
      </trkpt>
      <trkpt lat="44.15466" lon="5.0153">
        <ele>532.5</ele>
        <time>2020-09-08T09:57:38Z</time>
      </trkpt>
      <trkpt lat="44.15466" lon="5.0153">
        <ele>532.5</ele>
        <time>2020-09-08T09:57:39Z</time>
      </trkpt>
      <trkpt lat="44.15466" lon="5.0153">
        <ele>532.5</ele>
        <time>2020-09-08T09:57:40Z</time>
      </trkpt>
      <trkpt lat="44.15466" lon="5.0153">
        <ele>532.5</ele>
        <time>2020-09-08T09:57:41Z</time>
      </trkpt>
      <trkpt lat="44.15466" lon="5.0153">
        <ele>532.5</ele>
        <time>2020-09-08T09:57:42Z</time>
      </trkpt>
      <trkpt lat="44.15466" lon="5.0153">
        <ele>532.5</ele>
        <time>2020-09-08T09:57:43Z</time>
      </trkpt>
      <trkpt lat="44.15466" lon="5.0153">
        <ele>532.5</ele>
        <time>2020-09-08T09:57:44Z</time>
      </trkpt>
      <trkpt lat="44.15466" lon="5.0153">
        <ele>532.5</ele>
        <time>2020-09-08T09:57:45Z</time>
      </trkpt>
      <trkpt lat="44.15466" lon="5.0153">
        <ele>532.5</ele>
        <time>2020-09-08T09:57:46Z</time>
      </trkpt>
      <trkpt lat="44.15466" lon="5.0153">
        <ele>532.5</ele>
        <time>2020-09-08T09:57:47Z</time>
      </trkpt>
      <trkpt lat="44.15466" lon="5.0153">
        <ele>532.5</ele>
        <time>2020-09-08T09:57:48Z</time>
      </trkpt>
      <trkpt lat="44.15466" lon="5.01531">
        <ele>532.5</ele>
        <time>2020-09-08T09:57:49Z</time>
      </trkpt>
      <trkpt lat="44.15466" lon="5.01531">
        <ele>532.5</ele>
        <time>2020-09-08T09:57:50Z</time>
      </trkpt>
      <trkpt lat="44.15466" lon="5.01531">
        <ele>532.5</ele>
        <time>2020-09-08T09:57:51Z</time>
      </trkpt>
      <trkpt lat="44.15466" lon="5.01531">
        <ele>532.5</ele>
        <time>2020-09-08T09:57:52Z</time>
      </trkpt>
      <trkpt lat="44.15466" lon="5.01531">
        <ele>532.5</ele>
        <time>2020-09-08T09:57:53Z</time>
      </trkpt>
      <trkpt lat="44.15466" lon="5.01531">
        <ele>532.5</ele>
        <time>2020-09-08T09:57:54Z</time>
      </trkpt>
      <trkpt lat="44.15466" lon="5.01531">
        <ele>532.5</ele>
        <time>2020-09-08T09:57:55Z</time>
      </trkpt>
      <trkpt lat="44.15466" lon="5.01531">
        <ele>532.5</ele>
        <time>2020-09-08T09:57:56Z</time>
      </trkpt>
      <trkpt lat="44.15466" lon="5.01531">
        <ele>532.5</ele>
        <time>2020-09-08T09:57:57Z</time>
      </trkpt>
      <trkpt lat="44.15466" lon="5.01531">
        <ele>532.5</ele>
        <time>2020-09-08T09:57:58Z</time>
      </trkpt>
      <trkpt lat="44.15466" lon="5.01531">
        <ele>532.5</ele>
        <time>2020-09-08T09:57:59Z</time>
      </trkpt>
      <trkpt lat="44.15466" lon="5.01531">
        <ele>532.6</ele>
        <time>2020-09-08T09:58:00Z</time>
      </trkpt>
      <trkpt lat="44.15466" lon="5.01532">
        <ele>532.6</ele>
        <time>2020-09-08T09:58:01Z</time>
      </trkpt>
      <trkpt lat="44.15466" lon="5.01532">
        <ele>532.6</ele>
        <time>2020-09-08T09:58:02Z</time>
      </trkpt>
      <trkpt lat="44.15467" lon="5.01532">
        <ele>532.6</ele>
        <time>2020-09-08T09:58:03Z</time>
      </trkpt>
      <trkpt lat="44.15467" lon="5.01532">
        <ele>532.6</ele>
        <time>2020-09-08T09:58:04Z</time>
      </trkpt>
      <trkpt lat="44.15467" lon="5.01532">
        <ele>532.6</ele>
        <time>2020-09-08T09:58:05Z</time>
      </trkpt>
      <trkpt lat="44.15467" lon="5.01532">
        <ele>532.6</ele>
        <time>2020-09-08T09:58:06Z</time>
      </trkpt>
      <trkpt lat="44.15467" lon="5.01532">
        <ele>532.6</ele>
        <time>2020-09-08T09:58:07Z</time>
      </trkpt>
      <trkpt lat="44.15467" lon="5.01532">
        <ele>532.6</ele>
        <time>2020-09-08T09:58:08Z</time>
      </trkpt>
      <trkpt lat="44.15467" lon="5.01532">
        <ele>532.6</ele>
        <time>2020-09-08T09:58:09Z</time>
      </trkpt>
      <trkpt lat="44.15467" lon="5.01532">
        <ele>532.6</ele>
        <time>2020-09-08T09:58:10Z</time>
      </trkpt>
      <trkpt lat="44.15467" lon="5.01532">
        <ele>532.6</ele>
        <time>2020-09-08T09:58:11Z</time>
      </trkpt>
      <trkpt lat="44.15467" lon="5.01532">
        <ele>532.6</ele>
        <time>2020-09-08T09:58:12Z</time>
      </trkpt>
      <trkpt lat="44.15467" lon="5.01532">
        <ele>532.6</ele>
        <time>2020-09-08T09:58:13Z</time>
      </trkpt>
      <trkpt lat="44.15467" lon="5.01533">
        <ele>532.6</ele>
        <time>2020-09-08T09:58:14Z</time>
      </trkpt>
      <trkpt lat="44.15467" lon="5.01533">
        <ele>532.6</ele>
        <time>2020-09-08T09:58:15Z</time>
      </trkpt>
      <trkpt lat="44.15467" lon="5.01533">
        <ele>532.6</ele>
        <time>2020-09-08T09:58:16Z</time>
      </trkpt>
      <trkpt lat="44.15467" lon="5.01533">
        <ele>532.6</ele>
        <time>2020-09-08T09:58:17Z</time>
      </trkpt>
      <trkpt lat="44.15467" lon="5.01533">
        <ele>532.6</ele>
        <time>2020-09-08T09:58:18Z</time>
      </trkpt>
      <trkpt lat="44.15467" lon="5.01533">
        <ele>532.6</ele>
        <time>2020-09-08T09:58:19Z</time>
      </trkpt>
      <trkpt lat="44.15467" lon="5.01533">
        <ele>532.6</ele>
        <time>2020-09-08T09:58:20Z</time>
      </trkpt>
      <trkpt lat="44.15467" lon="5.01533">
        <ele>532.6</ele>
        <time>2020-09-08T09:58:21Z</time>
      </trkpt>
      <trkpt lat="44.15467" lon="5.01533">
        <ele>532.6</ele>
        <time>2020-09-08T09:58:22Z</time>
      </trkpt>
      <trkpt lat="44.15467" lon="5.01533">
        <ele>532.6</ele>
        <time>2020-09-08T09:58:23Z</time>
      </trkpt>
      <trkpt lat="44.15467" lon="5.01533">
        <ele>532.7</ele>
        <time>2020-09-08T09:58:24Z</time>
      </trkpt>
      <trkpt lat="44.15467" lon="5.01533">
        <ele>532.7</ele>
        <time>2020-09-08T09:58:25Z</time>
      </trkpt>
      <trkpt lat="44.15467" lon="5.01534">
        <ele>532.7</ele>
        <time>2020-09-08T09:58:26Z</time>
      </trkpt>
      <trkpt lat="44.15467" lon="5.01534">
        <ele>532.7</ele>
        <time>2020-09-08T09:58:27Z</time>
      </trkpt>
      <trkpt lat="44.15467" lon="5.01534">
        <ele>532.7</ele>
        <time>2020-09-08T09:58:28Z</time>
      </trkpt>
      <trkpt lat="44.15467" lon="5.01534">
        <ele>532.7</ele>
        <time>2020-09-08T09:58:29Z</time>
      </trkpt>
      <trkpt lat="44.15467" lon="5.01534">
        <ele>532.7</ele>
        <time>2020-09-08T09:58:30Z</time>
      </trkpt>
      <trkpt lat="44.15467" lon="5.01534">
        <ele>532.7</ele>
        <time>2020-09-08T09:58:31Z</time>
      </trkpt>
      <trkpt lat="44.15467" lon="5.01534">
        <ele>532.7</ele>
        <time>2020-09-08T09:58:32Z</time>
      </trkpt>
      <trkpt lat="44.15467" lon="5.01534">
        <ele>532.7</ele>
        <time>2020-09-08T09:58:33Z</time>
      </trkpt>
      <trkpt lat="44.15467" lon="5.01534">
        <ele>532.7</ele>
        <time>2020-09-08T09:58:34Z</time>
      </trkpt>
      <trkpt lat="44.15467" lon="5.01534">
        <ele>532.7</ele>
        <time>2020-09-08T09:58:35Z</time>
      </trkpt>
      <trkpt lat="44.15467" lon="5.01534">
        <ele>532.7</ele>
        <time>2020-09-08T09:58:36Z</time>
      </trkpt>
      <trkpt lat="44.15467" lon="5.01534">
        <ele>532.7</ele>
        <time>2020-09-08T09:58:37Z</time>
      </trkpt>
      <trkpt lat="44.15467" lon="5.01534">
        <ele>532.7</ele>
        <time>2020-09-08T09:58:38Z</time>
      </trkpt>
      <trkpt lat="44.15467" lon="5.01535">
        <ele>532.7</ele>
        <time>2020-09-08T09:58:39Z</time>
      </trkpt>
      <trkpt lat="44.15467" lon="5.01535">
        <ele>532.7</ele>
        <time>2020-09-08T09:58:40Z</time>
      </trkpt>
      <trkpt lat="44.15467" lon="5.01535">
        <ele>532.7</ele>
        <time>2020-09-08T09:58:41Z</time>
      </trkpt>
      <trkpt lat="44.15467" lon="5.01535">
        <ele>532.7</ele>
        <time>2020-09-08T09:58:42Z</time>
      </trkpt>
      <trkpt lat="44.15467" lon="5.01535">
        <ele>532.7</ele>
        <time>2020-09-08T09:58:43Z</time>
      </trkpt>
      <trkpt lat="44.15467" lon="5.01535">
        <ele>532.7</ele>
        <time>2020-09-08T09:58:44Z</time>
      </trkpt>
      <trkpt lat="44.15467" lon="5.01535">
        <ele>532.7</ele>
        <time>2020-09-08T09:58:45Z</time>
      </trkpt>
      <trkpt lat="44.15467" lon="5.01535">
        <ele>532.7</ele>
        <time>2020-09-08T09:58:46Z</time>
      </trkpt>
      <trkpt lat="44.15467" lon="5.01535">
        <ele>532.7</ele>
        <time>2020-09-08T09:58:47Z</time>
      </trkpt>
      <trkpt lat="44.15467" lon="5.01535">
        <ele>532.7</ele>
        <time>2020-09-08T09:58:48Z</time>
      </trkpt>
      <trkpt lat="44.15467" lon="5.01535">
        <ele>532.7</ele>
        <time>2020-09-08T09:58:49Z</time>
      </trkpt>
      <trkpt lat="44.15468" lon="5.01535">
        <ele>532.7</ele>
        <time>2020-09-08T09:58:50Z</time>
      </trkpt>
      <trkpt lat="44.15468" lon="5.01536">
        <ele>532.7</ele>
        <time>2020-09-08T09:58:51Z</time>
      </trkpt>
      <trkpt lat="44.15468" lon="5.01536">
        <ele>532.7</ele>
        <time>2020-09-08T09:58:52Z</time>
      </trkpt>
      <trkpt lat="44.15468" lon="5.01536">
        <ele>532.7</ele>
        <time>2020-09-08T09:58:53Z</time>
      </trkpt>
      <trkpt lat="44.15468" lon="5.01536">
        <ele>532.7</ele>
        <time>2020-09-08T09:58:54Z</time>
      </trkpt>
      <trkpt lat="44.15468" lon="5.01536">
        <ele>532.8</ele>
        <time>2020-09-08T09:58:55Z</time>
      </trkpt>
      <trkpt lat="44.15468" lon="5.01536">
        <ele>532.8</ele>
        <time>2020-09-08T09:58:56Z</time>
      </trkpt>
      <trkpt lat="44.15468" lon="5.01536">
        <ele>532.8</ele>
        <time>2020-09-08T09:58:57Z</time>
      </trkpt>
      <trkpt lat="44.15468" lon="5.01536">
        <ele>532.8</ele>
        <time>2020-09-08T09:58:58Z</time>
      </trkpt>
      <trkpt lat="44.15468" lon="5.01536">
        <ele>532.8</ele>
        <time>2020-09-08T09:58:59Z</time>
      </trkpt>
      <trkpt lat="44.15468" lon="5.01536">
        <ele>532.8</ele>
        <time>2020-09-08T09:59:00Z</time>
      </trkpt>
      <trkpt lat="44.15468" lon="5.01536">
        <ele>532.8</ele>
        <time>2020-09-08T09:59:01Z</time>
      </trkpt>
      <trkpt lat="44.15468" lon="5.01536">
        <ele>532.8</ele>
        <time>2020-09-08T09:59:02Z</time>
      </trkpt>
      <trkpt lat="44.15468" lon="5.01536">
        <ele>532.8</ele>
        <time>2020-09-08T09:59:03Z</time>
      </trkpt>
      <trkpt lat="44.15468" lon="5.01537">
        <ele>532.8</ele>
        <time>2020-09-08T09:59:04Z</time>
      </trkpt>
      <trkpt lat="44.15468" lon="5.01537">
        <ele>532.8</ele>
        <time>2020-09-08T09:59:05Z</time>
      </trkpt>
      <trkpt lat="44.15468" lon="5.01537">
        <ele>532.8</ele>
        <time>2020-09-08T09:59:06Z</time>
      </trkpt>
      <trkpt lat="44.15468" lon="5.01537">
        <ele>532.8</ele>
        <time>2020-09-08T09:59:07Z</time>
      </trkpt>
      <trkpt lat="44.15468" lon="5.01537">
        <ele>532.8</ele>
        <time>2020-09-08T09:59:08Z</time>
      </trkpt>
      <trkpt lat="44.15468" lon="5.01537">
        <ele>532.8</ele>
        <time>2020-09-08T09:59:09Z</time>
      </trkpt>
      <trkpt lat="44.15468" lon="5.01537">
        <ele>532.8</ele>
        <time>2020-09-08T09:59:10Z</time>
      </trkpt>
      <trkpt lat="44.15468" lon="5.01537">
        <ele>532.8</ele>
        <time>2020-09-08T09:59:11Z</time>
      </trkpt>
      <trkpt lat="44.15468" lon="5.01537">
        <ele>532.8</ele>
        <time>2020-09-08T09:59:12Z</time>
      </trkpt>
      <trkpt lat="44.15468" lon="5.01537">
        <ele>532.8</ele>
        <time>2020-09-08T09:59:13Z</time>
      </trkpt>
      <trkpt lat="44.15468" lon="5.01537">
        <ele>532.8</ele>
        <time>2020-09-08T09:59:14Z</time>
      </trkpt>
      <trkpt lat="44.15468" lon="5.01537">
        <ele>532.8</ele>
        <time>2020-09-08T09:59:15Z</time>
      </trkpt>
      <trkpt lat="44.15468" lon="5.01541">
        <ele>532.9</ele>
        <time>2020-09-08T09:59:16Z</time>
      </trkpt>
      <trkpt lat="44.15468" lon="5.01542">
        <ele>533</ele>
        <time>2020-09-08T09:59:17Z</time>
      </trkpt>
      <trkpt lat="44.15469" lon="5.01543">
        <ele>533</ele>
        <time>2020-09-08T09:59:18Z</time>
      </trkpt>
      <trkpt lat="44.15468" lon="5.01546">
        <ele>533.1</ele>
        <time>2020-09-08T09:59:19Z</time>
      </trkpt>
      <trkpt lat="44.15468" lon="5.01547">
        <ele>533.2</ele>
        <time>2020-09-08T09:59:20Z</time>
      </trkpt>
      <trkpt lat="44.15468" lon="5.01548">
        <ele>533.2</ele>
        <time>2020-09-08T09:59:22Z</time>
      </trkpt>
      <trkpt lat="44.15468" lon="5.01549">
        <ele>533.3</ele>
        <time>2020-09-08T09:59:23Z</time>
      </trkpt>
      <trkpt lat="44.15468" lon="5.0155">
        <ele>533.3</ele>
        <time>2020-09-08T09:59:24Z</time>
      </trkpt>
      <trkpt lat="44.15468" lon="5.01551">
        <ele>533.3</ele>
        <time>2020-09-08T09:59:25Z</time>
      </trkpt>
      <trkpt lat="44.15468" lon="5.01552">
        <ele>533.4</ele>
        <time>2020-09-08T09:59:26Z</time>
      </trkpt>
      <trkpt lat="44.15468" lon="5.01553">
        <ele>533.4</ele>
        <time>2020-09-08T09:59:27Z</time>
      </trkpt>
      <trkpt lat="44.15468" lon="5.01554">
        <ele>533.5</ele>
        <time>2020-09-08T09:59:28Z</time>
      </trkpt>
      <trkpt lat="44.15468" lon="5.01556">
        <ele>533.6</ele>
        <time>2020-09-08T09:59:29Z</time>
      </trkpt>
      <trkpt lat="44.15468" lon="5.01557">
        <ele>533.6</ele>
        <time>2020-09-08T09:59:30Z</time>
      </trkpt>
      <trkpt lat="44.15468" lon="5.01558">
        <ele>533.7</ele>
        <time>2020-09-08T09:59:31Z</time>
      </trkpt>
      <trkpt lat="44.15469" lon="5.0156">
        <ele>533.8</ele>
        <time>2020-09-08T09:59:32Z</time>
      </trkpt>
      <trkpt lat="44.1547" lon="5.01561">
        <ele>533.9</ele>
        <time>2020-09-08T09:59:33Z</time>
      </trkpt>
      <trkpt lat="44.15471" lon="5.01564">
        <ele>534.1</ele>
        <time>2020-09-08T09:59:34Z</time>
      </trkpt>
      <trkpt lat="44.15471" lon="5.01565">
        <ele>534.2</ele>
        <time>2020-09-08T09:59:35Z</time>
      </trkpt>
      <trkpt lat="44.15472" lon="5.01568">
        <ele>534.4</ele>
        <time>2020-09-08T09:59:36Z</time>
      </trkpt>
      <trkpt lat="44.15472" lon="5.01569">
        <ele>534.4</ele>
        <time>2020-09-08T09:59:37Z</time>
      </trkpt>
      <trkpt lat="44.15472" lon="5.0157">
        <ele>534.5</ele>
        <time>2020-09-08T09:59:38Z</time>
      </trkpt>
      <trkpt lat="44.15472" lon="5.01572">
        <ele>534.6</ele>
        <time>2020-09-08T09:59:39Z</time>
      </trkpt>
      <trkpt lat="44.15472" lon="5.01572">
        <ele>534.7</ele>
        <time>2020-09-08T09:59:40Z</time>
      </trkpt>
      <trkpt lat="44.15471" lon="5.01573">
        <ele>534.7</ele>
        <time>2020-09-08T09:59:41Z</time>
      </trkpt>
      <trkpt lat="44.15472" lon="5.01575">
        <ele>534.9</ele>
        <time>2020-09-08T09:59:42Z</time>
      </trkpt>
      <trkpt lat="44.15472" lon="5.01576">
        <ele>535</ele>
        <time>2020-09-08T09:59:43Z</time>
      </trkpt>
      <trkpt lat="44.15472" lon="5.01578">
        <ele>535.2</ele>
        <time>2020-09-08T09:59:44Z</time>
      </trkpt>
      <trkpt lat="44.15473" lon="5.01579">
        <ele>535.3</ele>
        <time>2020-09-08T09:59:45Z</time>
      </trkpt>
      <trkpt lat="44.15473" lon="5.01581">
        <ele>535.4</ele>
        <time>2020-09-08T09:59:46Z</time>
      </trkpt>
      <trkpt lat="44.15473" lon="5.01582">
        <ele>535.5</ele>
        <time>2020-09-08T09:59:47Z</time>
      </trkpt>
      <trkpt lat="44.15473" lon="5.01584">
        <ele>535.7</ele>
        <time>2020-09-08T09:59:48Z</time>
      </trkpt>
      <trkpt lat="44.15473" lon="5.01585">
        <ele>535.7</ele>
        <time>2020-09-08T09:59:49Z</time>
      </trkpt>
      <trkpt lat="44.15474" lon="5.01587">
        <ele>535.9</ele>
        <time>2020-09-08T09:59:50Z</time>
      </trkpt>
      <trkpt lat="44.15475" lon="5.01588">
        <ele>536.1</ele>
        <time>2020-09-08T09:59:51Z</time>
      </trkpt>
      <trkpt lat="44.15475" lon="5.01589">
        <ele>536.2</ele>
        <time>2020-09-08T09:59:52Z</time>
      </trkpt>
      <trkpt lat="44.15475" lon="5.0159">
        <ele>536.3</ele>
        <time>2020-09-08T09:59:53Z</time>
      </trkpt>
      <trkpt lat="44.15475" lon="5.01592">
        <ele>536.5</ele>
        <time>2020-09-08T09:59:54Z</time>
      </trkpt>
      <trkpt lat="44.15475" lon="5.01592">
        <ele>536.5</ele>
        <time>2020-09-08T09:59:55Z</time>
      </trkpt>
      <trkpt lat="44.15476" lon="5.01594">
        <ele>536.7</ele>
        <time>2020-09-08T09:59:56Z</time>
      </trkpt>
      <trkpt lat="44.15476" lon="5.01595">
        <ele>536.8</ele>
        <time>2020-09-08T09:59:57Z</time>
      </trkpt>
      <trkpt lat="44.15476" lon="5.01597">
        <ele>536.9</ele>
        <time>2020-09-08T09:59:58Z</time>
      </trkpt>
      <trkpt lat="44.15476" lon="5.01599">
        <ele>537.2</ele>
        <time>2020-09-08T09:59:59Z</time>
      </trkpt>
      <trkpt lat="44.15475" lon="5.01601">
        <ele>537.4</ele>
        <time>2020-09-08T10:00:00Z</time>
      </trkpt>
      <trkpt lat="44.15475" lon="5.01603">
        <ele>537.6</ele>
        <time>2020-09-08T10:00:01Z</time>
      </trkpt>
      <trkpt lat="44.15476" lon="5.01604">
        <ele>537.8</ele>
        <time>2020-09-08T10:00:02Z</time>
      </trkpt>
      <trkpt lat="44.15477" lon="5.01605">
        <ele>537.9</ele>
        <time>2020-09-08T10:00:03Z</time>
      </trkpt>
      <trkpt lat="44.15477" lon="5.01606">
        <ele>538</ele>
        <time>2020-09-08T10:00:04Z</time>
      </trkpt>
      <trkpt lat="44.15476" lon="5.01607">
        <ele>538.2</ele>
        <time>2020-09-08T10:00:05Z</time>
      </trkpt>
      <trkpt lat="44.15477" lon="5.01609">
        <ele>538.3</ele>
        <time>2020-09-08T10:00:06Z</time>
      </trkpt>
      <trkpt lat="44.15477" lon="5.0161">
        <ele>538.5</ele>
        <time>2020-09-08T10:00:07Z</time>
      </trkpt>
      <trkpt lat="44.15477" lon="5.01611">
        <ele>538.6</ele>
        <time>2020-09-08T10:00:08Z</time>
      </trkpt>
      <trkpt lat="44.15476" lon="5.01612">
        <ele>538.7</ele>
        <time>2020-09-08T10:00:09Z</time>
      </trkpt>
      <trkpt lat="44.15476" lon="5.01612">
        <ele>538.8</ele>
        <time>2020-09-08T10:00:10Z</time>
      </trkpt>
      <trkpt lat="44.15476" lon="5.01613">
        <ele>538.9</ele>
        <time>2020-09-08T10:00:11Z</time>
      </trkpt>
      <trkpt lat="44.15476" lon="5.01615">
        <ele>539.1</ele>
        <time>2020-09-08T10:00:12Z</time>
      </trkpt>
      <trkpt lat="44.15476" lon="5.01616">
        <ele>539.2</ele>
        <time>2020-09-08T10:00:13Z</time>
      </trkpt>
      <trkpt lat="44.15476" lon="5.01617">
        <ele>539.4</ele>
        <time>2020-09-08T10:00:14Z</time>
      </trkpt>
      <trkpt lat="44.15476" lon="5.0162">
        <ele>539.7</ele>
        <time>2020-09-08T10:00:15Z</time>
      </trkpt>
      <trkpt lat="44.15476" lon="5.01621">
        <ele>539.8</ele>
        <time>2020-09-08T10:00:16Z</time>
      </trkpt>
      <trkpt lat="44.15476" lon="5.01622">
        <ele>539.9</ele>
        <time>2020-09-08T10:00:17Z</time>
      </trkpt>
      <trkpt lat="44.15475" lon="5.01625">
        <ele>540.3</ele>
        <time>2020-09-08T10:00:18Z</time>
      </trkpt>
      <trkpt lat="44.15475" lon="5.01626">
        <ele>540.4</ele>
        <time>2020-09-08T10:00:19Z</time>
      </trkpt>
      <trkpt lat="44.15475" lon="5.01628">
        <ele>540.6</ele>
        <time>2020-09-08T10:00:20Z</time>
      </trkpt>
      <trkpt lat="44.15475" lon="5.01627">
        <ele>540.6</ele>
        <time>2020-09-08T10:00:21Z</time>
      </trkpt>
      <trkpt lat="44.15475" lon="5.01629">
        <ele>540.8</ele>
        <time>2020-09-08T10:00:22Z</time>
      </trkpt>
      <trkpt lat="44.15475" lon="5.01631">
        <ele>541</ele>
        <time>2020-09-08T10:00:23Z</time>
      </trkpt>
      <trkpt lat="44.15475" lon="5.01632">
        <ele>541.2</ele>
        <time>2020-09-08T10:00:24Z</time>
      </trkpt>
      <trkpt lat="44.15474" lon="5.01632">
        <ele>541.3</ele>
        <time>2020-09-08T10:00:25Z</time>
      </trkpt>
      <trkpt lat="44.15474" lon="5.01634">
        <ele>541.5</ele>
        <time>2020-09-08T10:00:26Z</time>
      </trkpt>
      <trkpt lat="44.15475" lon="5.01636">
        <ele>541.7</ele>
        <time>2020-09-08T10:00:27Z</time>
      </trkpt>
      <trkpt lat="44.15475" lon="5.01636">
        <ele>541.8</ele>
        <time>2020-09-08T10:00:28Z</time>
      </trkpt>
      <trkpt lat="44.15475" lon="5.01637">
        <ele>541.9</ele>
        <time>2020-09-08T10:00:29Z</time>
      </trkpt>
      <trkpt lat="44.15476" lon="5.0164">
        <ele>542.3</ele>
        <time>2020-09-08T10:00:30Z</time>
      </trkpt>
      <trkpt lat="44.15475" lon="5.01643">
        <ele>542.6</ele>
        <time>2020-09-08T10:00:31Z</time>
      </trkpt>
      <trkpt lat="44.15475" lon="5.01644">
        <ele>542.7</ele>
        <time>2020-09-08T10:00:32Z</time>
      </trkpt>
      <trkpt lat="44.15474" lon="5.01645">
        <ele>542.9</ele>
        <time>2020-09-08T10:00:33Z</time>
      </trkpt>
      <trkpt lat="44.15474" lon="5.01646">
        <ele>543.1</ele>
        <time>2020-09-08T10:00:34Z</time>
      </trkpt>
      <trkpt lat="44.15474" lon="5.01648">
        <ele>543.2</ele>
        <time>2020-09-08T10:00:35Z</time>
      </trkpt>
      <trkpt lat="44.15475" lon="5.01649">
        <ele>543.4</ele>
        <time>2020-09-08T10:00:36Z</time>
      </trkpt>
      <trkpt lat="44.15475" lon="5.01651">
        <ele>543.5</ele>
        <time>2020-09-08T10:00:37Z</time>
      </trkpt>
      <trkpt lat="44.15475" lon="5.01652">
        <ele>543.6</ele>
        <time>2020-09-08T10:00:38Z</time>
      </trkpt>
      <trkpt lat="44.15475" lon="5.01653">
        <ele>543.7</ele>
        <time>2020-09-08T10:00:39Z</time>
      </trkpt>
      <trkpt lat="44.15475" lon="5.01654">
        <ele>543.9</ele>
        <time>2020-09-08T10:00:40Z</time>
      </trkpt>
      <trkpt lat="44.15475" lon="5.01655">
        <ele>544</ele>
        <time>2020-09-08T10:00:41Z</time>
      </trkpt>
      <trkpt lat="44.15475" lon="5.01656">
        <ele>544.1</ele>
        <time>2020-09-08T10:00:42Z</time>
      </trkpt>
      <trkpt lat="44.15475" lon="5.01658">
        <ele>544.3</ele>
        <time>2020-09-08T10:00:43Z</time>
      </trkpt>
      <trkpt lat="44.15474" lon="5.01658">
        <ele>544.4</ele>
        <time>2020-09-08T10:00:44Z</time>
      </trkpt>
      <trkpt lat="44.15474" lon="5.01657">
        <ele>544.5</ele>
        <time>2020-09-08T10:00:45Z</time>
      </trkpt>
      <trkpt lat="44.15475" lon="5.01657">
        <ele>544.5</ele>
        <time>2020-09-08T10:00:46Z</time>
      </trkpt>
      <trkpt lat="44.15475" lon="5.01658">
        <ele>544.7</ele>
        <time>2020-09-08T10:00:47Z</time>
      </trkpt>
      <trkpt lat="44.15475" lon="5.01659">
        <ele>544.8</ele>
        <time>2020-09-08T10:00:48Z</time>
      </trkpt>
      <trkpt lat="44.15475" lon="5.0166">
        <ele>544.9</ele>
        <time>2020-09-08T10:00:49Z</time>
      </trkpt>
      <trkpt lat="44.15475" lon="5.01661">
        <ele>545</ele>
        <time>2020-09-08T10:00:50Z</time>
      </trkpt>
      <trkpt lat="44.15475" lon="5.01662">
        <ele>545.1</ele>
        <time>2020-09-08T10:00:51Z</time>
      </trkpt>
      <trkpt lat="44.15474" lon="5.01662">
        <ele>545.2</ele>
        <time>2020-09-08T10:00:52Z</time>
      </trkpt>
      <trkpt lat="44.15474" lon="5.01664">
        <ele>545.4</ele>
        <time>2020-09-08T10:00:53Z</time>
      </trkpt>
      <trkpt lat="44.15475" lon="5.01667">
        <ele>545.6</ele>
        <time>2020-09-08T10:00:54Z</time>
      </trkpt>
      <trkpt lat="44.15476" lon="5.01668">
        <ele>545.7</ele>
        <time>2020-09-08T10:00:55Z</time>
      </trkpt>
      <trkpt lat="44.15477" lon="5.01669">
        <ele>545.8</ele>
        <time>2020-09-08T10:00:56Z</time>
      </trkpt>
      <trkpt lat="44.15477" lon="5.0167">
        <ele>545.9</ele>
        <time>2020-09-08T10:00:57Z</time>
      </trkpt>
      <trkpt lat="44.15477" lon="5.01671">
        <ele>546</ele>
        <time>2020-09-08T10:00:58Z</time>
      </trkpt>
      <trkpt lat="44.15478" lon="5.01673">
        <ele>546.1</ele>
        <time>2020-09-08T10:00:59Z</time>
      </trkpt>
      <trkpt lat="44.15477" lon="5.01675">
        <ele>546.3</ele>
        <time>2020-09-08T10:01:00Z</time>
      </trkpt>
      <trkpt lat="44.15477" lon="5.01675">
        <ele>546.3</ele>
        <time>2020-09-08T10:01:01Z</time>
      </trkpt>
      <trkpt lat="44.15477" lon="5.01677">
        <ele>546.4</ele>
        <time>2020-09-08T10:01:02Z</time>
      </trkpt>
      <trkpt lat="44.15477" lon="5.01678">
        <ele>546.4</ele>
        <time>2020-09-08T10:01:03Z</time>
      </trkpt>
      <trkpt lat="44.15476" lon="5.0168">
        <ele>546.6</ele>
        <time>2020-09-08T10:01:04Z</time>
      </trkpt>
      <trkpt lat="44.15476" lon="5.01682">
        <ele>546.7</ele>
        <time>2020-09-08T10:01:05Z</time>
      </trkpt>
      <trkpt lat="44.15476" lon="5.01683">
        <ele>546.7</ele>
        <time>2020-09-08T10:01:06Z</time>
      </trkpt>
      <trkpt lat="44.15476" lon="5.01683">
        <ele>546.8</ele>
        <time>2020-09-08T10:01:07Z</time>
      </trkpt>
      <trkpt lat="44.15475" lon="5.01685">
        <ele>546.9</ele>
        <time>2020-09-08T10:01:08Z</time>
      </trkpt>
      <trkpt lat="44.15475" lon="5.01686">
        <ele>546.9</ele>
        <time>2020-09-08T10:01:09Z</time>
      </trkpt>
      <trkpt lat="44.15475" lon="5.01689">
        <ele>547.1</ele>
        <time>2020-09-08T10:01:10Z</time>
      </trkpt>
      <trkpt lat="44.15475" lon="5.01691">
        <ele>547.2</ele>
        <time>2020-09-08T10:01:11Z</time>
      </trkpt>
      <trkpt lat="44.15475" lon="5.01692">
        <ele>547.3</ele>
        <time>2020-09-08T10:01:12Z</time>
      </trkpt>
      <trkpt lat="44.15474" lon="5.01693">
        <ele>547.4</ele>
        <time>2020-09-08T10:01:13Z</time>
      </trkpt>
      <trkpt lat="44.15474" lon="5.01694">
        <ele>547.5</ele>
        <time>2020-09-08T10:01:14Z</time>
      </trkpt>
      <trkpt lat="44.15474" lon="5.01695">
        <ele>547.5</ele>
        <time>2020-09-08T10:01:15Z</time>
      </trkpt>
      <trkpt lat="44.15474" lon="5.01698">
        <ele>547.7</ele>
        <time>2020-09-08T10:01:16Z</time>
      </trkpt>
      <trkpt lat="44.15474" lon="5.017">
        <ele>547.8</ele>
        <time>2020-09-08T10:01:17Z</time>
      </trkpt>
      <trkpt lat="44.15473" lon="5.01702">
        <ele>547.9</ele>
        <time>2020-09-08T10:01:18Z</time>
      </trkpt>
      <trkpt lat="44.15473" lon="5.01703">
        <ele>548</ele>
        <time>2020-09-08T10:01:19Z</time>
      </trkpt>
      <trkpt lat="44.15473" lon="5.01703">
        <ele>548.1</ele>
        <time>2020-09-08T10:01:20Z</time>
      </trkpt>
      <trkpt lat="44.15472" lon="5.01703">
        <ele>548.2</ele>
        <time>2020-09-08T10:01:21Z</time>
      </trkpt>
      <trkpt lat="44.15471" lon="5.01704">
        <ele>548.2</ele>
        <time>2020-09-08T10:01:22Z</time>
      </trkpt>
      <trkpt lat="44.1547" lon="5.01706">
        <ele>548.4</ele>
        <time>2020-09-08T10:01:23Z</time>
      </trkpt>
      <trkpt lat="44.1547" lon="5.01707">
        <ele>548.5</ele>
        <time>2020-09-08T10:01:24Z</time>
      </trkpt>
      <trkpt lat="44.1547" lon="5.01708">
        <ele>548.6</ele>
        <time>2020-09-08T10:01:25Z</time>
      </trkpt>
      <trkpt lat="44.1547" lon="5.01708">
        <ele>548.6</ele>
        <time>2020-09-08T10:01:26Z</time>
      </trkpt>
      <trkpt lat="44.1547" lon="5.01709">
        <ele>548.7</ele>
        <time>2020-09-08T10:01:28Z</time>
      </trkpt>
      <trkpt lat="44.1547" lon="5.0171">
        <ele>548.8</ele>
        <time>2020-09-08T10:01:29Z</time>
      </trkpt>
      <trkpt lat="44.1547" lon="5.01712">
        <ele>548.9</ele>
        <time>2020-09-08T10:01:30Z</time>
      </trkpt>
      <trkpt lat="44.1547" lon="5.01712">
        <ele>548.9</ele>
        <time>2020-09-08T10:01:31Z</time>
      </trkpt>
      <trkpt lat="44.15469" lon="5.01714">
        <ele>549.1</ele>
        <time>2020-09-08T10:01:32Z</time>
      </trkpt>
      <trkpt lat="44.15469" lon="5.01716">
        <ele>549.2</ele>
        <time>2020-09-08T10:01:33Z</time>
      </trkpt>
      <trkpt lat="44.15468" lon="5.01717">
        <ele>549.3</ele>
        <time>2020-09-08T10:01:34Z</time>
      </trkpt>
      <trkpt lat="44.15468" lon="5.01718">
        <ele>549.4</ele>
        <time>2020-09-08T10:01:35Z</time>
      </trkpt>
      <trkpt lat="44.15467" lon="5.0172">
        <ele>549.6</ele>
        <time>2020-09-08T10:01:36Z</time>
      </trkpt>
      <trkpt lat="44.15467" lon="5.01721">
        <ele>549.7</ele>
        <time>2020-09-08T10:01:37Z</time>
      </trkpt>
      <trkpt lat="44.15467" lon="5.01722">
        <ele>549.8</ele>
        <time>2020-09-08T10:01:38Z</time>
      </trkpt>
      <trkpt lat="44.15467" lon="5.01724">
        <ele>549.9</ele>
        <time>2020-09-08T10:01:39Z</time>
      </trkpt>
      <trkpt lat="44.15467" lon="5.01725">
        <ele>550</ele>
        <time>2020-09-08T10:01:40Z</time>
      </trkpt>
      <trkpt lat="44.15466" lon="5.01726">
        <ele>550.1</ele>
        <time>2020-09-08T10:01:41Z</time>
      </trkpt>
      <trkpt lat="44.15466" lon="5.01729">
        <ele>550.3</ele>
        <time>2020-09-08T10:01:42Z</time>
      </trkpt>
      <trkpt lat="44.15466" lon="5.01729">
        <ele>550.3</ele>
        <time>2020-09-08T10:01:43Z</time>
      </trkpt>
      <trkpt lat="44.15466" lon="5.0173">
        <ele>550.4</ele>
        <time>2020-09-08T10:01:44Z</time>
      </trkpt>
      <trkpt lat="44.15465" lon="5.01731">
        <ele>550.5</ele>
        <time>2020-09-08T10:01:45Z</time>
      </trkpt>
      <trkpt lat="44.15465" lon="5.01733">
        <ele>550.5</ele>
        <time>2020-09-08T10:01:46Z</time>
      </trkpt>
      <trkpt lat="44.15465" lon="5.01735">
        <ele>550.6</ele>
        <time>2020-09-08T10:01:47Z</time>
      </trkpt>
      <trkpt lat="44.15465" lon="5.01734">
        <ele>550.6</ele>
        <time>2020-09-08T10:01:48Z</time>
      </trkpt>
      <trkpt lat="44.15466" lon="5.01734">
        <ele>550.6</ele>
        <time>2020-09-08T10:01:49Z</time>
      </trkpt>
      <trkpt lat="44.15465" lon="5.01734">
        <ele>550.7</ele>
        <time>2020-09-08T10:01:50Z</time>
      </trkpt>
      <trkpt lat="44.15465" lon="5.01733">
        <ele>550.8</ele>
        <time>2020-09-08T10:01:51Z</time>
      </trkpt>
      <trkpt lat="44.15465" lon="5.01731">
        <ele>550.8</ele>
        <time>2020-09-08T10:01:52Z</time>
      </trkpt>
      <trkpt lat="44.15466" lon="5.01731">
        <ele>550.9</ele>
        <time>2020-09-08T10:01:53Z</time>
      </trkpt>
      <trkpt lat="44.15466" lon="5.01732">
        <ele>550.9</ele>
        <time>2020-09-08T10:01:54Z</time>
      </trkpt>
      <trkpt lat="44.15466" lon="5.01732">
        <ele>550.9</ele>
        <time>2020-09-08T10:01:55Z</time>
      </trkpt>
      <trkpt lat="44.15466" lon="5.01732">
        <ele>550.9</ele>
        <time>2020-09-08T10:01:56Z</time>
      </trkpt>
      <trkpt lat="44.15466" lon="5.01732">
        <ele>550.9</ele>
        <time>2020-09-08T10:01:57Z</time>
      </trkpt>
      <trkpt lat="44.15466" lon="5.01732">
        <ele>550.9</ele>
        <time>2020-09-08T10:01:58Z</time>
      </trkpt>
      <trkpt lat="44.15466" lon="5.01732">
        <ele>550.9</ele>
        <time>2020-09-08T10:01:59Z</time>
      </trkpt>
      <trkpt lat="44.15466" lon="5.01732">
        <ele>550.9</ele>
        <time>2020-09-08T10:02:00Z</time>
      </trkpt>
      <trkpt lat="44.15466" lon="5.01732">
        <ele>550.9</ele>
        <time>2020-09-08T10:02:01Z</time>
      </trkpt>
      <trkpt lat="44.15466" lon="5.01732">
        <ele>550.9</ele>
        <time>2020-09-08T10:02:02Z</time>
      </trkpt>
      <trkpt lat="44.15466" lon="5.01732">
        <ele>550.9</ele>
        <time>2020-09-08T10:02:03Z</time>
      </trkpt>
      <trkpt lat="44.15466" lon="5.01732">
        <ele>550.9</ele>
        <time>2020-09-08T10:02:04Z</time>
      </trkpt>
      <trkpt lat="44.15466" lon="5.01732">
        <ele>551</ele>
        <time>2020-09-08T10:02:05Z</time>
      </trkpt>
      <trkpt lat="44.15466" lon="5.01732">
        <ele>551</ele>
        <time>2020-09-08T10:02:06Z</time>
      </trkpt>
      <trkpt lat="44.15466" lon="5.01732">
        <ele>551</ele>
        <time>2020-09-08T10:02:07Z</time>
      </trkpt>
      <trkpt lat="44.15466" lon="5.01732">
        <ele>551</ele>
        <time>2020-09-08T10:02:08Z</time>
      </trkpt>
      <trkpt lat="44.15466" lon="5.01732">
        <ele>551</ele>
        <time>2020-09-08T10:02:09Z</time>
      </trkpt>
      <trkpt lat="44.15466" lon="5.01732">
        <ele>551</ele>
        <time>2020-09-08T10:02:10Z</time>
      </trkpt>
      <trkpt lat="44.15466" lon="5.01732">
        <ele>551</ele>
        <time>2020-09-08T10:02:11Z</time>
      </trkpt>
      <trkpt lat="44.15466" lon="5.01732">
        <ele>551</ele>
        <time>2020-09-08T10:02:12Z</time>
      </trkpt>
      <trkpt lat="44.15466" lon="5.01732">
        <ele>551</ele>
        <time>2020-09-08T10:02:13Z</time>
      </trkpt>
      <trkpt lat="44.15466" lon="5.01732">
        <ele>551</ele>
        <time>2020-09-08T10:02:14Z</time>
      </trkpt>
      <trkpt lat="44.15466" lon="5.01732">
        <ele>551</ele>
        <time>2020-09-08T10:02:15Z</time>
      </trkpt>
      <trkpt lat="44.15466" lon="5.01732">
        <ele>551</ele>
        <time>2020-09-08T10:02:16Z</time>
      </trkpt>
      <trkpt lat="44.15466" lon="5.01732">
        <ele>551</ele>
        <time>2020-09-08T10:02:17Z</time>
      </trkpt>
      <trkpt lat="44.15466" lon="5.01732">
        <ele>551</ele>
        <time>2020-09-08T10:02:18Z</time>
      </trkpt>
      <trkpt lat="44.15466" lon="5.01732">
        <ele>551</ele>
        <time>2020-09-08T10:02:19Z</time>
      </trkpt>
      <trkpt lat="44.15466" lon="5.01732">
        <ele>551</ele>
        <time>2020-09-08T10:02:20Z</time>
      </trkpt>
      <trkpt lat="44.15465" lon="5.01733">
        <ele>551</ele>
        <time>2020-09-08T10:02:21Z</time>
      </trkpt>
      <trkpt lat="44.15465" lon="5.01733">
        <ele>551</ele>
        <time>2020-09-08T10:02:22Z</time>
      </trkpt>
      <trkpt lat="44.15465" lon="5.01734">
        <ele>551.1</ele>
        <time>2020-09-08T10:02:23Z</time>
      </trkpt>
      <trkpt lat="44.15465" lon="5.01735">
        <ele>551.1</ele>
        <time>2020-09-08T10:02:24Z</time>
      </trkpt>
      <trkpt lat="44.15466" lon="5.01737">
        <ele>551.1</ele>
        <time>2020-09-08T10:02:25Z</time>
      </trkpt>
      <trkpt lat="44.15465" lon="5.01738">
        <ele>551.2</ele>
        <time>2020-09-08T10:02:26Z</time>
      </trkpt>
      <trkpt lat="44.15466" lon="5.01741">
        <ele>551.2</ele>
        <time>2020-09-08T10:02:27Z</time>
      </trkpt>
      <trkpt lat="44.15466" lon="5.01742">
        <ele>551.3</ele>
        <time>2020-09-08T10:02:28Z</time>
      </trkpt>
      <trkpt lat="44.15467" lon="5.01744">
        <ele>551.3</ele>
        <time>2020-09-08T10:02:29Z</time>
      </trkpt>
      <trkpt lat="44.15466" lon="5.01744">
        <ele>551.3</ele>
        <time>2020-09-08T10:02:30Z</time>
      </trkpt>
      <trkpt lat="44.15466" lon="5.01746">
        <ele>551.3</ele>
        <time>2020-09-08T10:02:31Z</time>
      </trkpt>
      <trkpt lat="44.15466" lon="5.01747">
        <ele>551.4</ele>
        <time>2020-09-08T10:02:32Z</time>
      </trkpt>
      <trkpt lat="44.15466" lon="5.01748">
        <ele>551.4</ele>
        <time>2020-09-08T10:02:33Z</time>
      </trkpt>
      <trkpt lat="44.15466" lon="5.01748">
        <ele>551.4</ele>
        <time>2020-09-08T10:02:34Z</time>
      </trkpt>
      <trkpt lat="44.15466" lon="5.0175">
        <ele>551.4</ele>
        <time>2020-09-08T10:02:35Z</time>
      </trkpt>
      <trkpt lat="44.15466" lon="5.01752">
        <ele>551.4</ele>
        <time>2020-09-08T10:02:36Z</time>
      </trkpt>
      <trkpt lat="44.15466" lon="5.01753">
        <ele>551.5</ele>
        <time>2020-09-08T10:02:37Z</time>
      </trkpt>
      <trkpt lat="44.15466" lon="5.01754">
        <ele>551.5</ele>
        <time>2020-09-08T10:02:38Z</time>
      </trkpt>
      <trkpt lat="44.15465" lon="5.01756">
        <ele>551.6</ele>
        <time>2020-09-08T10:02:39Z</time>
      </trkpt>
      <trkpt lat="44.15464" lon="5.01757">
        <ele>551.6</ele>
        <time>2020-09-08T10:02:40Z</time>
      </trkpt>
      <trkpt lat="44.15463" lon="5.01758">
        <ele>551.6</ele>
        <time>2020-09-08T10:02:41Z</time>
      </trkpt>
      <trkpt lat="44.15463" lon="5.01758">
        <ele>551.6</ele>
        <time>2020-09-08T10:02:42Z</time>
      </trkpt>
      <trkpt lat="44.15463" lon="5.01759">
        <ele>551.6</ele>
        <time>2020-09-08T10:02:43Z</time>
      </trkpt>
      <trkpt lat="44.15464" lon="5.0176">
        <ele>551.7</ele>
        <time>2020-09-08T10:02:44Z</time>
      </trkpt>
      <trkpt lat="44.15463" lon="5.01761">
        <ele>551.7</ele>
        <time>2020-09-08T10:02:45Z</time>
      </trkpt>
      <trkpt lat="44.15463" lon="5.01761">
        <ele>551.7</ele>
        <time>2020-09-08T10:02:46Z</time>
      </trkpt>
      <trkpt lat="44.15462" lon="5.01762">
        <ele>551.7</ele>
        <time>2020-09-08T10:02:47Z</time>
      </trkpt>
      <trkpt lat="44.15462" lon="5.01765">
        <ele>551.8</ele>
        <time>2020-09-08T10:02:48Z</time>
      </trkpt>
      <trkpt lat="44.15462" lon="5.01766">
        <ele>551.9</ele>
        <time>2020-09-08T10:02:49Z</time>
      </trkpt>
      <trkpt lat="44.15463" lon="5.01767">
        <ele>551.9</ele>
        <time>2020-09-08T10:02:50Z</time>
      </trkpt>
      <trkpt lat="44.15463" lon="5.01768">
        <ele>551.9</ele>
        <time>2020-09-08T10:02:51Z</time>
      </trkpt>
      <trkpt lat="44.15463" lon="5.01769">
        <ele>552</ele>
        <time>2020-09-08T10:02:52Z</time>
      </trkpt>
      <trkpt lat="44.15463" lon="5.0177">
        <ele>552</ele>
        <time>2020-09-08T10:02:53Z</time>
      </trkpt>
      <trkpt lat="44.15463" lon="5.01772">
        <ele>552.1</ele>
        <time>2020-09-08T10:02:54Z</time>
      </trkpt>
      <trkpt lat="44.15462" lon="5.01773">
        <ele>552.1</ele>
        <time>2020-09-08T10:02:55Z</time>
      </trkpt>
      <trkpt lat="44.15461" lon="5.01774">
        <ele>552.2</ele>
        <time>2020-09-08T10:02:56Z</time>
      </trkpt>
      <trkpt lat="44.15461" lon="5.01774">
        <ele>552.2</ele>
        <time>2020-09-08T10:02:57Z</time>
      </trkpt>
      <trkpt lat="44.1546" lon="5.01775">
        <ele>552.2</ele>
        <time>2020-09-08T10:02:58Z</time>
      </trkpt>
      <trkpt lat="44.1546" lon="5.01776">
        <ele>552.3</ele>
        <time>2020-09-08T10:02:59Z</time>
      </trkpt>
      <trkpt lat="44.1546" lon="5.01777">
        <ele>552.3</ele>
        <time>2020-09-08T10:03:00Z</time>
      </trkpt>
      <trkpt lat="44.1546" lon="5.01778">
        <ele>552.3</ele>
        <time>2020-09-08T10:03:01Z</time>
      </trkpt>
      <trkpt lat="44.1546" lon="5.0178">
        <ele>552.4</ele>
        <time>2020-09-08T10:03:02Z</time>
      </trkpt>
      <trkpt lat="44.15461" lon="5.0178">
        <ele>552.4</ele>
        <time>2020-09-08T10:03:03Z</time>
      </trkpt>
      <trkpt lat="44.15461" lon="5.01781">
        <ele>552.5</ele>
        <time>2020-09-08T10:03:04Z</time>
      </trkpt>
      <trkpt lat="44.15462" lon="5.01781">
        <ele>552.5</ele>
        <time>2020-09-08T10:03:05Z</time>
      </trkpt>
      <trkpt lat="44.15461" lon="5.01781">
        <ele>552.5</ele>
        <time>2020-09-08T10:03:06Z</time>
      </trkpt>
      <trkpt lat="44.15461" lon="5.01783">
        <ele>552.6</ele>
        <time>2020-09-08T10:03:07Z</time>
      </trkpt>
      <trkpt lat="44.15462" lon="5.01783">
        <ele>552.6</ele>
        <time>2020-09-08T10:03:08Z</time>
      </trkpt>
      <trkpt lat="44.15462" lon="5.01783">
        <ele>552.7</ele>
        <time>2020-09-08T10:03:09Z</time>
      </trkpt>
      <trkpt lat="44.15462" lon="5.01784">
        <ele>552.7</ele>
        <time>2020-09-08T10:03:10Z</time>
      </trkpt>
      <trkpt lat="44.15462" lon="5.01785">
        <ele>552.8</ele>
        <time>2020-09-08T10:03:11Z</time>
      </trkpt>
      <trkpt lat="44.15462" lon="5.01786">
        <ele>552.8</ele>
        <time>2020-09-08T10:03:12Z</time>
      </trkpt>
      <trkpt lat="44.15462" lon="5.01788">
        <ele>552.9</ele>
        <time>2020-09-08T10:03:13Z</time>
      </trkpt>
      <trkpt lat="44.15462" lon="5.01789">
        <ele>552.9</ele>
        <time>2020-09-08T10:03:14Z</time>
      </trkpt>
      <trkpt lat="44.15462" lon="5.01789">
        <ele>553</ele>
        <time>2020-09-08T10:03:15Z</time>
      </trkpt>
      <trkpt lat="44.15463" lon="5.0179">
        <ele>553</ele>
        <time>2020-09-08T10:03:16Z</time>
      </trkpt>
      <trkpt lat="44.15463" lon="5.0179">
        <ele>553</ele>
        <time>2020-09-08T10:03:17Z</time>
      </trkpt>
      <trkpt lat="44.15463" lon="5.01791">
        <ele>553.1</ele>
        <time>2020-09-08T10:03:18Z</time>
      </trkpt>
      <trkpt lat="44.15463" lon="5.01792">
        <ele>553.1</ele>
        <time>2020-09-08T10:03:19Z</time>
      </trkpt>
      <trkpt lat="44.15463" lon="5.01793">
        <ele>553.2</ele>
        <time>2020-09-08T10:03:20Z</time>
      </trkpt>
      <trkpt lat="44.15463" lon="5.01794">
        <ele>553.2</ele>
        <time>2020-09-08T10:03:21Z</time>
      </trkpt>
      <trkpt lat="44.15464" lon="5.01795">
        <ele>553.3</ele>
        <time>2020-09-08T10:03:22Z</time>
      </trkpt>
      <trkpt lat="44.15464" lon="5.01796">
        <ele>553.4</ele>
        <time>2020-09-08T10:03:23Z</time>
      </trkpt>
      <trkpt lat="44.15464" lon="5.01797">
        <ele>553.4</ele>
        <time>2020-09-08T10:03:24Z</time>
      </trkpt>
      <trkpt lat="44.15464" lon="5.01799">
        <ele>553.5</ele>
        <time>2020-09-08T10:03:25Z</time>
      </trkpt>
      <trkpt lat="44.15463" lon="5.018">
        <ele>553.5</ele>
        <time>2020-09-08T10:03:26Z</time>
      </trkpt>
      <trkpt lat="44.15464" lon="5.01801">
        <ele>553.6</ele>
        <time>2020-09-08T10:03:27Z</time>
      </trkpt>
      <trkpt lat="44.15464" lon="5.01803">
        <ele>553.7</ele>
        <time>2020-09-08T10:03:28Z</time>
      </trkpt>
      <trkpt lat="44.15464" lon="5.01804">
        <ele>553.7</ele>
        <time>2020-09-08T10:03:29Z</time>
      </trkpt>
      <trkpt lat="44.15464" lon="5.01805">
        <ele>553.8</ele>
        <time>2020-09-08T10:03:30Z</time>
      </trkpt>
      <trkpt lat="44.15464" lon="5.01806">
        <ele>553.9</ele>
        <time>2020-09-08T10:03:31Z</time>
      </trkpt>
      <trkpt lat="44.15464" lon="5.01808">
        <ele>554</ele>
        <time>2020-09-08T10:03:32Z</time>
      </trkpt>
      <trkpt lat="44.15464" lon="5.0181">
        <ele>554</ele>
        <time>2020-09-08T10:03:34Z</time>
      </trkpt>
      <trkpt lat="44.15464" lon="5.01811">
        <ele>554.1</ele>
        <time>2020-09-08T10:03:35Z</time>
      </trkpt>
      <trkpt lat="44.15464" lon="5.01813">
        <ele>554.2</ele>
        <time>2020-09-08T10:03:36Z</time>
      </trkpt>
      <trkpt lat="44.15464" lon="5.01815">
        <ele>554.2</ele>
        <time>2020-09-08T10:03:37Z</time>
      </trkpt>
      <trkpt lat="44.15464" lon="5.01816">
        <ele>554.3</ele>
        <time>2020-09-08T10:03:38Z</time>
      </trkpt>
      <trkpt lat="44.15465" lon="5.01819">
        <ele>554.4</ele>
        <time>2020-09-08T10:03:39Z</time>
      </trkpt>
      <trkpt lat="44.15465" lon="5.0182">
        <ele>554.5</ele>
        <time>2020-09-08T10:03:40Z</time>
      </trkpt>
      <trkpt lat="44.15466" lon="5.01821">
        <ele>554.5</ele>
        <time>2020-09-08T10:03:41Z</time>
      </trkpt>
      <trkpt lat="44.15466" lon="5.01823">
        <ele>554.6</ele>
        <time>2020-09-08T10:03:42Z</time>
      </trkpt>
      <trkpt lat="44.15465" lon="5.01824">
        <ele>554.7</ele>
        <time>2020-09-08T10:03:43Z</time>
      </trkpt>
      <trkpt lat="44.15465" lon="5.01826">
        <ele>554.7</ele>
        <time>2020-09-08T10:03:44Z</time>
      </trkpt>
      <trkpt lat="44.15464" lon="5.01826">
        <ele>554.8</ele>
        <time>2020-09-08T10:03:45Z</time>
      </trkpt>
      <trkpt lat="44.15464" lon="5.01827">
        <ele>554.8</ele>
        <time>2020-09-08T10:03:46Z</time>
      </trkpt>
      <trkpt lat="44.15464" lon="5.01827">
        <ele>554.8</ele>
        <time>2020-09-08T10:03:47Z</time>
      </trkpt>
      <trkpt lat="44.15464" lon="5.01828">
        <ele>554.8</ele>
        <time>2020-09-08T10:03:48Z</time>
      </trkpt>
      <trkpt lat="44.15464" lon="5.01828">
        <ele>554.8</ele>
        <time>2020-09-08T10:03:49Z</time>
      </trkpt>
      <trkpt lat="44.15463" lon="5.0183">
        <ele>554.9</ele>
        <time>2020-09-08T10:03:50Z</time>
      </trkpt>
      <trkpt lat="44.15463" lon="5.01832">
        <ele>555</ele>
        <time>2020-09-08T10:03:51Z</time>
      </trkpt>
      <trkpt lat="44.15463" lon="5.01833">
        <ele>555</ele>
        <time>2020-09-08T10:03:52Z</time>
      </trkpt>
      <trkpt lat="44.15464" lon="5.01834">
        <ele>555.1</ele>
        <time>2020-09-08T10:03:53Z</time>
      </trkpt>
      <trkpt lat="44.15464" lon="5.01835">
        <ele>555.1</ele>
        <time>2020-09-08T10:03:54Z</time>
      </trkpt>
      <trkpt lat="44.15465" lon="5.01835">
        <ele>555.1</ele>
        <time>2020-09-08T10:03:55Z</time>
      </trkpt>
      <trkpt lat="44.15464" lon="5.01836">
        <ele>555.1</ele>
        <time>2020-09-08T10:03:56Z</time>
      </trkpt>
      <trkpt lat="44.15464" lon="5.01836">
        <ele>555.2</ele>
        <time>2020-09-08T10:03:57Z</time>
      </trkpt>
      <trkpt lat="44.15465" lon="5.01836">
        <ele>555.2</ele>
        <time>2020-09-08T10:03:58Z</time>
      </trkpt>
      <trkpt lat="44.15465" lon="5.01836">
        <ele>555.2</ele>
        <time>2020-09-08T10:03:59Z</time>
      </trkpt>
      <trkpt lat="44.15465" lon="5.01835">
        <ele>555.2</ele>
        <time>2020-09-08T10:04:00Z</time>
      </trkpt>
      <trkpt lat="44.15465" lon="5.01835">
        <ele>555.2</ele>
        <time>2020-09-08T10:04:01Z</time>
      </trkpt>
      <trkpt lat="44.15465" lon="5.01836">
        <ele>555.2</ele>
        <time>2020-09-08T10:04:02Z</time>
      </trkpt>
      <trkpt lat="44.15465" lon="5.01837">
        <ele>555.2</ele>
        <time>2020-09-08T10:04:03Z</time>
      </trkpt>
      <trkpt lat="44.15465" lon="5.01836">
        <ele>555.2</ele>
        <time>2020-09-08T10:04:04Z</time>
      </trkpt>
      <trkpt lat="44.15465" lon="5.01836">
        <ele>555.2</ele>
        <time>2020-09-08T10:04:05Z</time>
      </trkpt>
      <trkpt lat="44.15464" lon="5.01836">
        <ele>555.2</ele>
        <time>2020-09-08T10:04:06Z</time>
      </trkpt>
      <trkpt lat="44.15464" lon="5.01835">
        <ele>555.2</ele>
        <time>2020-09-08T10:04:07Z</time>
      </trkpt>
      <trkpt lat="44.15464" lon="5.01836">
        <ele>555.2</ele>
        <time>2020-09-08T10:04:08Z</time>
      </trkpt>
      <trkpt lat="44.15464" lon="5.01836">
        <ele>555.2</ele>
        <time>2020-09-08T10:04:09Z</time>
      </trkpt>
      <trkpt lat="44.15464" lon="5.01836">
        <ele>555.3</ele>
        <time>2020-09-08T10:04:10Z</time>
      </trkpt>
      <trkpt lat="44.15463" lon="5.01836">
        <ele>555.3</ele>
        <time>2020-09-08T10:04:11Z</time>
      </trkpt>
      <trkpt lat="44.15463" lon="5.01836">
        <ele>555.3</ele>
        <time>2020-09-08T10:04:12Z</time>
      </trkpt>
      <trkpt lat="44.15463" lon="5.01837">
        <ele>555.3</ele>
        <time>2020-09-08T10:04:13Z</time>
      </trkpt>
      <trkpt lat="44.15463" lon="5.01839">
        <ele>555.3</ele>
        <time>2020-09-08T10:04:14Z</time>
      </trkpt>
      <trkpt lat="44.15464" lon="5.0184">
        <ele>555.3</ele>
        <time>2020-09-08T10:04:15Z</time>
      </trkpt>
      <trkpt lat="44.15464" lon="5.0184">
        <ele>555.4</ele>
        <time>2020-09-08T10:04:16Z</time>
      </trkpt>
      <trkpt lat="44.15464" lon="5.01841">
        <ele>555.4</ele>
        <time>2020-09-08T10:04:17Z</time>
      </trkpt>
      <trkpt lat="44.15464" lon="5.01842">
        <ele>555.4</ele>
        <time>2020-09-08T10:04:18Z</time>
      </trkpt>
      <trkpt lat="44.15465" lon="5.01841">
        <ele>555.4</ele>
        <time>2020-09-08T10:04:19Z</time>
      </trkpt>
      <trkpt lat="44.15464" lon="5.01842">
        <ele>555.4</ele>
        <time>2020-09-08T10:04:20Z</time>
      </trkpt>
      <trkpt lat="44.15465" lon="5.01843">
        <ele>555.4</ele>
        <time>2020-09-08T10:04:21Z</time>
      </trkpt>
      <trkpt lat="44.15465" lon="5.01843">
        <ele>555.4</ele>
        <time>2020-09-08T10:04:22Z</time>
      </trkpt>
      <trkpt lat="44.15465" lon="5.01843">
        <ele>555.4</ele>
        <time>2020-09-08T10:04:23Z</time>
      </trkpt>
      <trkpt lat="44.15465" lon="5.01843">
        <ele>555.4</ele>
        <time>2020-09-08T10:04:24Z</time>
      </trkpt>
      <trkpt lat="44.15465" lon="5.01844">
        <ele>555.4</ele>
        <time>2020-09-08T10:04:25Z</time>
      </trkpt>
      <trkpt lat="44.15465" lon="5.01844">
        <ele>555.4</ele>
        <time>2020-09-08T10:04:26Z</time>
      </trkpt>
      <trkpt lat="44.15465" lon="5.01845">
        <ele>555.5</ele>
        <time>2020-09-08T10:04:27Z</time>
      </trkpt>
      <trkpt lat="44.15464" lon="5.01844">
        <ele>555.5</ele>
        <time>2020-09-08T10:04:28Z</time>
      </trkpt>
      <trkpt lat="44.15464" lon="5.01844">
        <ele>555.5</ele>
        <time>2020-09-08T10:04:29Z</time>
      </trkpt>
      <trkpt lat="44.15465" lon="5.01843">
        <ele>555.5</ele>
        <time>2020-09-08T10:04:30Z</time>
      </trkpt>
      <trkpt lat="44.15465" lon="5.01844">
        <ele>555.5</ele>
        <time>2020-09-08T10:04:31Z</time>
      </trkpt>
      <trkpt lat="44.15465" lon="5.01843">
        <ele>555.5</ele>
        <time>2020-09-08T10:04:32Z</time>
      </trkpt>
      <trkpt lat="44.15465" lon="5.01844">
        <ele>555.5</ele>
        <time>2020-09-08T10:04:33Z</time>
      </trkpt>
      <trkpt lat="44.15465" lon="5.01844">
        <ele>555.5</ele>
        <time>2020-09-08T10:04:34Z</time>
      </trkpt>
      <trkpt lat="44.15465" lon="5.01845">
        <ele>555.5</ele>
        <time>2020-09-08T10:04:35Z</time>
      </trkpt>
      <trkpt lat="44.15465" lon="5.01845">
        <ele>555.5</ele>
        <time>2020-09-08T10:04:36Z</time>
      </trkpt>
      <trkpt lat="44.15465" lon="5.01845">
        <ele>555.5</ele>
        <time>2020-09-08T10:04:37Z</time>
      </trkpt>
      <trkpt lat="44.15465" lon="5.01845">
        <ele>555.5</ele>
        <time>2020-09-08T10:04:38Z</time>
      </trkpt>
      <trkpt lat="44.15464" lon="5.01845">
        <ele>555.5</ele>
        <time>2020-09-08T10:04:39Z</time>
      </trkpt>
      <trkpt lat="44.15464" lon="5.01844">
        <ele>555.5</ele>
        <time>2020-09-08T10:04:40Z</time>
      </trkpt>
      <trkpt lat="44.15465" lon="5.01844">
        <ele>555.5</ele>
        <time>2020-09-08T10:04:41Z</time>
      </trkpt>
      <trkpt lat="44.15465" lon="5.01844">
        <ele>555.5</ele>
        <time>2020-09-08T10:04:42Z</time>
      </trkpt>
      <trkpt lat="44.15465" lon="5.01844">
        <ele>555.5</ele>
        <time>2020-09-08T10:04:43Z</time>
      </trkpt>
      <trkpt lat="44.15465" lon="5.01843">
        <ele>555.5</ele>
        <time>2020-09-08T10:04:44Z</time>
      </trkpt>
      <trkpt lat="44.15465" lon="5.01843">
        <ele>555.5</ele>
        <time>2020-09-08T10:04:45Z</time>
      </trkpt>
      <trkpt lat="44.15464" lon="5.01843">
        <ele>555.5</ele>
        <time>2020-09-08T10:04:46Z</time>
      </trkpt>
      <trkpt lat="44.15464" lon="5.01843">
        <ele>555.5</ele>
        <time>2020-09-08T10:04:47Z</time>
      </trkpt>
      <trkpt lat="44.15464" lon="5.01843">
        <ele>555.5</ele>
        <time>2020-09-08T10:04:48Z</time>
      </trkpt>
      <trkpt lat="44.15464" lon="5.01842">
        <ele>555.5</ele>
        <time>2020-09-08T10:04:49Z</time>
      </trkpt>
      <trkpt lat="44.15464" lon="5.01843">
        <ele>555.5</ele>
        <time>2020-09-08T10:04:50Z</time>
      </trkpt>
      <trkpt lat="44.15464" lon="5.01843">
        <ele>555.5</ele>
        <time>2020-09-08T10:04:51Z</time>
      </trkpt>
      <trkpt lat="44.15464" lon="5.01843">
        <ele>555.5</ele>
        <time>2020-09-08T10:04:52Z</time>
      </trkpt>
      <trkpt lat="44.15464" lon="5.01843">
        <ele>555.5</ele>
        <time>2020-09-08T10:04:53Z</time>
      </trkpt>
      <trkpt lat="44.15464" lon="5.01843">
        <ele>555.5</ele>
        <time>2020-09-08T10:04:54Z</time>
      </trkpt>
      <trkpt lat="44.15464" lon="5.01843">
        <ele>555.5</ele>
        <time>2020-09-08T10:04:55Z</time>
      </trkpt>
      <trkpt lat="44.15464" lon="5.01843">
        <ele>555.5</ele>
        <time>2020-09-08T10:04:56Z</time>
      </trkpt>
      <trkpt lat="44.15464" lon="5.01843">
        <ele>555.5</ele>
        <time>2020-09-08T10:04:57Z</time>
      </trkpt>
      <trkpt lat="44.15464" lon="5.01843">
        <ele>555.5</ele>
        <time>2020-09-08T10:04:58Z</time>
      </trkpt>
      <trkpt lat="44.15464" lon="5.01843">
        <ele>555.5</ele>
        <time>2020-09-08T10:04:59Z</time>
      </trkpt>
      <trkpt lat="44.15464" lon="5.01843">
        <ele>555.5</ele>
        <time>2020-09-08T10:05:00Z</time>
      </trkpt>
      <trkpt lat="44.15464" lon="5.01843">
        <ele>555.5</ele>
        <time>2020-09-08T10:05:01Z</time>
      </trkpt>
      <trkpt lat="44.15464" lon="5.01843">
        <ele>555.5</ele>
        <time>2020-09-08T10:05:02Z</time>
      </trkpt>
      <trkpt lat="44.15464" lon="5.01843">
        <ele>555.5</ele>
        <time>2020-09-08T10:05:03Z</time>
      </trkpt>
      <trkpt lat="44.15464" lon="5.01843">
        <ele>555.5</ele>
        <time>2020-09-08T10:05:04Z</time>
      </trkpt>
      <trkpt lat="44.15464" lon="5.01843">
        <ele>555.5</ele>
        <time>2020-09-08T10:05:05Z</time>
      </trkpt>
      <trkpt lat="44.15464" lon="5.01843">
        <ele>555.5</ele>
        <time>2020-09-08T10:05:06Z</time>
      </trkpt>
      <trkpt lat="44.15464" lon="5.01843">
        <ele>555.5</ele>
        <time>2020-09-08T10:05:07Z</time>
      </trkpt>
      <trkpt lat="44.15464" lon="5.01843">
        <ele>555.5</ele>
        <time>2020-09-08T10:05:08Z</time>
      </trkpt>
      <trkpt lat="44.15464" lon="5.01843">
        <ele>555.5</ele>
        <time>2020-09-08T10:05:09Z</time>
      </trkpt>
      <trkpt lat="44.15464" lon="5.01843">
        <ele>555.5</ele>
        <time>2020-09-08T10:05:10Z</time>
      </trkpt>
      <trkpt lat="44.15464" lon="5.01843">
        <ele>555.5</ele>
        <time>2020-09-08T10:05:11Z</time>
      </trkpt>
      <trkpt lat="44.15464" lon="5.01843">
        <ele>555.5</ele>
        <time>2020-09-08T10:05:12Z</time>
      </trkpt>
      <trkpt lat="44.15464" lon="5.01843">
        <ele>555.5</ele>
        <time>2020-09-08T10:05:13Z</time>
      </trkpt>
      <trkpt lat="44.15464" lon="5.01843">
        <ele>555.5</ele>
        <time>2020-09-08T10:05:14Z</time>
      </trkpt>
      <trkpt lat="44.15464" lon="5.01843">
        <ele>555.5</ele>
        <time>2020-09-08T10:05:15Z</time>
      </trkpt>
      <trkpt lat="44.15464" lon="5.01843">
        <ele>555.5</ele>
        <time>2020-09-08T10:05:16Z</time>
      </trkpt>
      <trkpt lat="44.15464" lon="5.01843">
        <ele>555.5</ele>
        <time>2020-09-08T10:05:17Z</time>
      </trkpt>
      <trkpt lat="44.15464" lon="5.01843">
        <ele>555.5</ele>
        <time>2020-09-08T10:05:18Z</time>
      </trkpt>
      <trkpt lat="44.15464" lon="5.01843">
        <ele>555.5</ele>
        <time>2020-09-08T10:05:19Z</time>
      </trkpt>
      <trkpt lat="44.15464" lon="5.01843">
        <ele>555.5</ele>
        <time>2020-09-08T10:05:20Z</time>
      </trkpt>
      <trkpt lat="44.15464" lon="5.01843">
        <ele>555.5</ele>
        <time>2020-09-08T10:05:21Z</time>
      </trkpt>
      <trkpt lat="44.15464" lon="5.01843">
        <ele>555.5</ele>
        <time>2020-09-08T10:05:22Z</time>
      </trkpt>
      <trkpt lat="44.15464" lon="5.01843">
        <ele>555.5</ele>
        <time>2020-09-08T10:05:23Z</time>
      </trkpt>
      <trkpt lat="44.15464" lon="5.01843">
        <ele>555.5</ele>
        <time>2020-09-08T10:05:24Z</time>
      </trkpt>
      <trkpt lat="44.15464" lon="5.01843">
        <ele>555.5</ele>
        <time>2020-09-08T10:05:25Z</time>
      </trkpt>
      <trkpt lat="44.15464" lon="5.01843">
        <ele>555.5</ele>
        <time>2020-09-08T10:05:26Z</time>
      </trkpt>
      <trkpt lat="44.15464" lon="5.01843">
        <ele>555.5</ele>
        <time>2020-09-08T10:05:27Z</time>
      </trkpt>
      <trkpt lat="44.15464" lon="5.01843">
        <ele>555.5</ele>
        <time>2020-09-08T10:05:28Z</time>
      </trkpt>
      <trkpt lat="44.15464" lon="5.01843">
        <ele>555.5</ele>
        <time>2020-09-08T10:05:29Z</time>
      </trkpt>
      <trkpt lat="44.15464" lon="5.01843">
        <ele>555.5</ele>
        <time>2020-09-08T10:05:30Z</time>
      </trkpt>
      <trkpt lat="44.15464" lon="5.01843">
        <ele>555.5</ele>
        <time>2020-09-08T10:05:31Z</time>
      </trkpt>
      <trkpt lat="44.15464" lon="5.01843">
        <ele>555.5</ele>
        <time>2020-09-08T10:05:32Z</time>
      </trkpt>
      <trkpt lat="44.15464" lon="5.01843">
        <ele>555.5</ele>
        <time>2020-09-08T10:05:33Z</time>
      </trkpt>
      <trkpt lat="44.15464" lon="5.01843">
        <ele>555.5</ele>
        <time>2020-09-08T10:05:34Z</time>
      </trkpt>
      <trkpt lat="44.15464" lon="5.01843">
        <ele>555.5</ele>
        <time>2020-09-08T10:05:35Z</time>
      </trkpt>
      <trkpt lat="44.15464" lon="5.01843">
        <ele>555.5</ele>
        <time>2020-09-08T10:05:36Z</time>
      </trkpt>
      <trkpt lat="44.15464" lon="5.01843">
        <ele>555.5</ele>
        <time>2020-09-08T10:05:37Z</time>
      </trkpt>
      <trkpt lat="44.15464" lon="5.01843">
        <ele>555.5</ele>
        <time>2020-09-08T10:05:38Z</time>
      </trkpt>
      <trkpt lat="44.15464" lon="5.01843">
        <ele>555.5</ele>
        <time>2020-09-08T10:05:39Z</time>
      </trkpt>
      <trkpt lat="44.15464" lon="5.01843">
        <ele>555.5</ele>
        <time>2020-09-08T10:05:40Z</time>
      </trkpt>
      <trkpt lat="44.15464" lon="5.01843">
        <ele>555.5</ele>
        <time>2020-09-08T10:05:41Z</time>
      </trkpt>
      <trkpt lat="44.15464" lon="5.01843">
        <ele>555.5</ele>
        <time>2020-09-08T10:05:42Z</time>
      </trkpt>
      <trkpt lat="44.15464" lon="5.01843">
        <ele>555.5</ele>
        <time>2020-09-08T10:05:43Z</time>
      </trkpt>
      <trkpt lat="44.15464" lon="5.01843">
        <ele>555.5</ele>
        <time>2020-09-08T10:05:44Z</time>
      </trkpt>
      <trkpt lat="44.15464" lon="5.01843">
        <ele>555.5</ele>
        <time>2020-09-08T10:05:45Z</time>
      </trkpt>
      <trkpt lat="44.15464" lon="5.01843">
        <ele>555.5</ele>
        <time>2020-09-08T10:05:46Z</time>
      </trkpt>
      <trkpt lat="44.15464" lon="5.01843">
        <ele>555.5</ele>
        <time>2020-09-08T10:05:47Z</time>
      </trkpt>
      <trkpt lat="44.15464" lon="5.01843">
        <ele>555.5</ele>
        <time>2020-09-08T10:05:48Z</time>
      </trkpt>
      <trkpt lat="44.15464" lon="5.01843">
        <ele>555.5</ele>
        <time>2020-09-08T10:05:49Z</time>
      </trkpt>
      <trkpt lat="44.15464" lon="5.01843">
        <ele>555.5</ele>
        <time>2020-09-08T10:05:50Z</time>
      </trkpt>
      <trkpt lat="44.15464" lon="5.01843">
        <ele>555.5</ele>
        <time>2020-09-08T10:05:51Z</time>
      </trkpt>
      <trkpt lat="44.15464" lon="5.01843">
        <ele>555.5</ele>
        <time>2020-09-08T10:05:52Z</time>
      </trkpt>
      <trkpt lat="44.15464" lon="5.01843">
        <ele>555.5</ele>
        <time>2020-09-08T10:05:53Z</time>
      </trkpt>
      <trkpt lat="44.15464" lon="5.01843">
        <ele>555.5</ele>
        <time>2020-09-08T10:05:54Z</time>
      </trkpt>
      <trkpt lat="44.15464" lon="5.01843">
        <ele>555.5</ele>
        <time>2020-09-08T10:05:56Z</time>
      </trkpt>
      <trkpt lat="44.15463" lon="5.01838">
        <ele>555.5</ele>
        <time>2020-09-08T10:05:57Z</time>
      </trkpt>
      <trkpt lat="44.15464" lon="5.01838">
        <ele>555.5</ele>
        <time>2020-09-08T10:05:58Z</time>
      </trkpt>
      <trkpt lat="44.15464" lon="5.01839">
        <ele>555.5</ele>
        <time>2020-09-08T10:05:59Z</time>
      </trkpt>
      <trkpt lat="44.15464" lon="5.01839">
        <ele>555.5</ele>
        <time>2020-09-08T10:06:00Z</time>
      </trkpt>
      <trkpt lat="44.15464" lon="5.01839">
        <ele>555.5</ele>
        <time>2020-09-08T10:06:01Z</time>
      </trkpt>
      <trkpt lat="44.15464" lon="5.01839">
        <ele>555.5</ele>
        <time>2020-09-08T10:06:02Z</time>
      </trkpt>
      <trkpt lat="44.15464" lon="5.01839">
        <ele>555.5</ele>
        <time>2020-09-08T10:06:03Z</time>
      </trkpt>
      <trkpt lat="44.15464" lon="5.01839">
        <ele>555.5</ele>
        <time>2020-09-08T10:06:04Z</time>
      </trkpt>
      <trkpt lat="44.15464" lon="5.01839">
        <ele>555.5</ele>
        <time>2020-09-08T10:06:05Z</time>
      </trkpt>
      <trkpt lat="44.15464" lon="5.0184">
        <ele>555.5</ele>
        <time>2020-09-08T10:06:06Z</time>
      </trkpt>
      <trkpt lat="44.15464" lon="5.0184">
        <ele>555.5</ele>
        <time>2020-09-08T10:06:07Z</time>
      </trkpt>
      <trkpt lat="44.15465" lon="5.0184">
        <ele>555.5</ele>
        <time>2020-09-08T10:06:08Z</time>
      </trkpt>
      <trkpt lat="44.15465" lon="5.0184">
        <ele>555.5</ele>
        <time>2020-09-08T10:06:09Z</time>
      </trkpt>
      <trkpt lat="44.15465" lon="5.0184">
        <ele>555.5</ele>
        <time>2020-09-08T10:06:10Z</time>
      </trkpt>
      <trkpt lat="44.15465" lon="5.0184">
        <ele>555.5</ele>
        <time>2020-09-08T10:06:11Z</time>
      </trkpt>
      <trkpt lat="44.15465" lon="5.01841">
        <ele>555.5</ele>
        <time>2020-09-08T10:06:12Z</time>
      </trkpt>
      <trkpt lat="44.15465" lon="5.01841">
        <ele>555.5</ele>
        <time>2020-09-08T10:06:13Z</time>
      </trkpt>
      <trkpt lat="44.15465" lon="5.01841">
        <ele>555.5</ele>
        <time>2020-09-08T10:06:14Z</time>
      </trkpt>
      <trkpt lat="44.15465" lon="5.01841">
        <ele>555.5</ele>
        <time>2020-09-08T10:06:15Z</time>
      </trkpt>
      <trkpt lat="44.15465" lon="5.01841">
        <ele>555.5</ele>
        <time>2020-09-08T10:06:16Z</time>
      </trkpt>
      <trkpt lat="44.15465" lon="5.01841">
        <ele>555.5</ele>
        <time>2020-09-08T10:06:17Z</time>
      </trkpt>
      <trkpt lat="44.15465" lon="5.01842">
        <ele>555.5</ele>
        <time>2020-09-08T10:06:18Z</time>
      </trkpt>
      <trkpt lat="44.15466" lon="5.01842">
        <ele>555.5</ele>
        <time>2020-09-08T10:06:19Z</time>
      </trkpt>
      <trkpt lat="44.15466" lon="5.01842">
        <ele>555.5</ele>
        <time>2020-09-08T10:06:20Z</time>
      </trkpt>
      <trkpt lat="44.15466" lon="5.01842">
        <ele>555.5</ele>
        <time>2020-09-08T10:06:21Z</time>
      </trkpt>
      <trkpt lat="44.15466" lon="5.01842">
        <ele>555.5</ele>
        <time>2020-09-08T10:06:22Z</time>
      </trkpt>
      <trkpt lat="44.15466" lon="5.01842">
        <ele>555.5</ele>
        <time>2020-09-08T10:06:23Z</time>
      </trkpt>
      <trkpt lat="44.15466" lon="5.01842">
        <ele>555.5</ele>
        <time>2020-09-08T10:06:24Z</time>
      </trkpt>
      <trkpt lat="44.15466" lon="5.01842">
        <ele>555.5</ele>
        <time>2020-09-08T10:06:25Z</time>
      </trkpt>
      <trkpt lat="44.15466" lon="5.01842">
        <ele>555.5</ele>
        <time>2020-09-08T10:06:26Z</time>
      </trkpt>
      <trkpt lat="44.15466" lon="5.01842">
        <ele>555.5</ele>
        <time>2020-09-08T10:06:27Z</time>
      </trkpt>
      <trkpt lat="44.15467" lon="5.01842">
        <ele>555.5</ele>
        <time>2020-09-08T10:06:28Z</time>
      </trkpt>
      <trkpt lat="44.15468" lon="5.01842">
        <ele>555.5</ele>
        <time>2020-09-08T10:06:29Z</time>
      </trkpt>
      <trkpt lat="44.15468" lon="5.01842">
        <ele>555.5</ele>
        <time>2020-09-08T10:06:30Z</time>
      </trkpt>
      <trkpt lat="44.15467" lon="5.01844">
        <ele>555.4</ele>
        <time>2020-09-08T10:06:31Z</time>
      </trkpt>
      <trkpt lat="44.15468" lon="5.01845">
        <ele>555.4</ele>
        <time>2020-09-08T10:06:32Z</time>
      </trkpt>
      <trkpt lat="44.15469" lon="5.01845">
        <ele>555.4</ele>
        <time>2020-09-08T10:06:33Z</time>
      </trkpt>
      <trkpt lat="44.1547" lon="5.01846">
        <ele>555.4</ele>
        <time>2020-09-08T10:06:34Z</time>
      </trkpt>
      <trkpt lat="44.15469" lon="5.01846">
        <ele>555.4</ele>
        <time>2020-09-08T10:06:35Z</time>
      </trkpt>
      <trkpt lat="44.1547" lon="5.01846">
        <ele>555.4</ele>
        <time>2020-09-08T10:06:36Z</time>
      </trkpt>
      <trkpt lat="44.1547" lon="5.01846">
        <ele>555.4</ele>
        <time>2020-09-08T10:06:37Z</time>
      </trkpt>
      <trkpt lat="44.1547" lon="5.01846">
        <ele>555.4</ele>
        <time>2020-09-08T10:06:38Z</time>
      </trkpt>
      <trkpt lat="44.15471" lon="5.01845">
        <ele>555.4</ele>
        <time>2020-09-08T10:06:39Z</time>
      </trkpt>
      <trkpt lat="44.15471" lon="5.01846">
        <ele>555.4</ele>
        <time>2020-09-08T10:06:40Z</time>
      </trkpt>
      <trkpt lat="44.15471" lon="5.01846">
        <ele>555.3</ele>
        <time>2020-09-08T10:06:41Z</time>
      </trkpt>
      <trkpt lat="44.15471" lon="5.01847">
        <ele>555.3</ele>
        <time>2020-09-08T10:06:42Z</time>
      </trkpt>
      <trkpt lat="44.15472" lon="5.01847">
        <ele>555.3</ele>
        <time>2020-09-08T10:06:43Z</time>
      </trkpt>
      <trkpt lat="44.15473" lon="5.01847">
        <ele>555.3</ele>
        <time>2020-09-08T10:06:44Z</time>
      </trkpt>
      <trkpt lat="44.15473" lon="5.01848">
        <ele>555.3</ele>
        <time>2020-09-08T10:06:45Z</time>
      </trkpt>
      <trkpt lat="44.15473" lon="5.01848">
        <ele>555.3</ele>
        <time>2020-09-08T10:06:46Z</time>
      </trkpt>
      <trkpt lat="44.15474" lon="5.01849">
        <ele>555.3</ele>
        <time>2020-09-08T10:06:47Z</time>
      </trkpt>
      <trkpt lat="44.15474" lon="5.0185">
        <ele>555.3</ele>
        <time>2020-09-08T10:06:48Z</time>
      </trkpt>
      <trkpt lat="44.15475" lon="5.0185">
        <ele>555.2</ele>
        <time>2020-09-08T10:06:49Z</time>
      </trkpt>
      <trkpt lat="44.15475" lon="5.01851">
        <ele>555.2</ele>
        <time>2020-09-08T10:06:50Z</time>
      </trkpt>
      <trkpt lat="44.15475" lon="5.01851">
        <ele>555.2</ele>
        <time>2020-09-08T10:06:51Z</time>
      </trkpt>
      <trkpt lat="44.15475" lon="5.01852">
        <ele>555.2</ele>
        <time>2020-09-08T10:06:52Z</time>
      </trkpt>
      <trkpt lat="44.15475" lon="5.01852">
        <ele>555.2</ele>
        <time>2020-09-08T10:06:53Z</time>
      </trkpt>
      <trkpt lat="44.15476" lon="5.01853">
        <ele>555.2</ele>
        <time>2020-09-08T10:06:54Z</time>
      </trkpt>
      <trkpt lat="44.15476" lon="5.01853">
        <ele>555.2</ele>
        <time>2020-09-08T10:06:55Z</time>
      </trkpt>
      <trkpt lat="44.15476" lon="5.01854">
        <ele>555.2</ele>
        <time>2020-09-08T10:06:56Z</time>
      </trkpt>
      <trkpt lat="44.15476" lon="5.01854">
        <ele>555.2</ele>
        <time>2020-09-08T10:06:57Z</time>
      </trkpt>
      <trkpt lat="44.15476" lon="5.01855">
        <ele>555.2</ele>
        <time>2020-09-08T10:06:58Z</time>
      </trkpt>
      <trkpt lat="44.15476" lon="5.01855">
        <ele>555.2</ele>
        <time>2020-09-08T10:06:59Z</time>
      </trkpt>
      <trkpt lat="44.15477" lon="5.01856">
        <ele>555.2</ele>
        <time>2020-09-08T10:07:00Z</time>
      </trkpt>
      <trkpt lat="44.15477" lon="5.01856">
        <ele>555.2</ele>
        <time>2020-09-08T10:07:01Z</time>
      </trkpt>
      <trkpt lat="44.15477" lon="5.01857">
        <ele>555.1</ele>
        <time>2020-09-08T10:07:02Z</time>
      </trkpt>
      <trkpt lat="44.15477" lon="5.01857">
        <ele>555.1</ele>
        <time>2020-09-08T10:07:03Z</time>
      </trkpt>
      <trkpt lat="44.15477" lon="5.01858">
        <ele>555.1</ele>
        <time>2020-09-08T10:07:04Z</time>
      </trkpt>
      <trkpt lat="44.15478" lon="5.01858">
        <ele>555.1</ele>
        <time>2020-09-08T10:07:05Z</time>
      </trkpt>
      <trkpt lat="44.15478" lon="5.01859">
        <ele>555.1</ele>
        <time>2020-09-08T10:07:06Z</time>
      </trkpt>
      <trkpt lat="44.15478" lon="5.01859">
        <ele>555.1</ele>
        <time>2020-09-08T10:07:07Z</time>
      </trkpt>
      <trkpt lat="44.15478" lon="5.0186">
        <ele>555.1</ele>
        <time>2020-09-08T10:07:08Z</time>
      </trkpt>
      <trkpt lat="44.15478" lon="5.0186">
        <ele>555.1</ele>
        <time>2020-09-08T10:07:09Z</time>
      </trkpt>
      <trkpt lat="44.15479" lon="5.01862">
        <ele>555.1</ele>
        <time>2020-09-08T10:07:10Z</time>
      </trkpt>
      <trkpt lat="44.1548" lon="5.01863">
        <ele>555.1</ele>
        <time>2020-09-08T10:07:11Z</time>
      </trkpt>
      <trkpt lat="44.1548" lon="5.01863">
        <ele>555</ele>
        <time>2020-09-08T10:07:12Z</time>
      </trkpt>
      <trkpt lat="44.15481" lon="5.01864">
        <ele>555</ele>
        <time>2020-09-08T10:07:13Z</time>
      </trkpt>
      <trkpt lat="44.15481" lon="5.01864">
        <ele>555</ele>
        <time>2020-09-08T10:07:14Z</time>
      </trkpt>
      <trkpt lat="44.15482" lon="5.01865">
        <ele>555</ele>
        <time>2020-09-08T10:07:15Z</time>
      </trkpt>
      <trkpt lat="44.15483" lon="5.01866">
        <ele>555</ele>
        <time>2020-09-08T10:07:16Z</time>
      </trkpt>
      <trkpt lat="44.15483" lon="5.01868">
        <ele>555</ele>
        <time>2020-09-08T10:07:17Z</time>
      </trkpt>
      <trkpt lat="44.15483" lon="5.01869">
        <ele>555</ele>
        <time>2020-09-08T10:07:18Z</time>
      </trkpt>
      <trkpt lat="44.15484" lon="5.01869">
        <ele>554.9</ele>
        <time>2020-09-08T10:07:19Z</time>
      </trkpt>
      <trkpt lat="44.15484" lon="5.0187">
        <ele>554.9</ele>
        <time>2020-09-08T10:07:20Z</time>
      </trkpt>
      <trkpt lat="44.15484" lon="5.0187">
        <ele>554.9</ele>
        <time>2020-09-08T10:07:21Z</time>
      </trkpt>
      <trkpt lat="44.15484" lon="5.01871">
        <ele>554.9</ele>
        <time>2020-09-08T10:07:22Z</time>
      </trkpt>
      <trkpt lat="44.15484" lon="5.01872">
        <ele>554.9</ele>
        <time>2020-09-08T10:07:23Z</time>
      </trkpt>
      <trkpt lat="44.15485" lon="5.01873">
        <ele>554.9</ele>
        <time>2020-09-08T10:07:24Z</time>
      </trkpt>
      <trkpt lat="44.15487" lon="5.01874">
        <ele>554.9</ele>
        <time>2020-09-08T10:07:25Z</time>
      </trkpt>
      <trkpt lat="44.15487" lon="5.01874">
        <ele>554.9</ele>
        <time>2020-09-08T10:07:26Z</time>
      </trkpt>
      <trkpt lat="44.15487" lon="5.01875">
        <ele>554.9</ele>
        <time>2020-09-08T10:07:27Z</time>
      </trkpt>
      <trkpt lat="44.15487" lon="5.01876">
        <ele>554.8</ele>
        <time>2020-09-08T10:07:28Z</time>
      </trkpt>
      <trkpt lat="44.15488" lon="5.01877">
        <ele>554.8</ele>
        <time>2020-09-08T10:07:29Z</time>
      </trkpt>
      <trkpt lat="44.15487" lon="5.01878">
        <ele>554.8</ele>
        <time>2020-09-08T10:07:30Z</time>
      </trkpt>
      <trkpt lat="44.15487" lon="5.01879">
        <ele>554.8</ele>
        <time>2020-09-08T10:07:31Z</time>
      </trkpt>
      <trkpt lat="44.15487" lon="5.0188">
        <ele>554.8</ele>
        <time>2020-09-08T10:07:32Z</time>
      </trkpt>
      <trkpt lat="44.15487" lon="5.01881">
        <ele>554.8</ele>
        <time>2020-09-08T10:07:33Z</time>
      </trkpt>
      <trkpt lat="44.15488" lon="5.01882">
        <ele>554.8</ele>
        <time>2020-09-08T10:07:34Z</time>
      </trkpt>
      <trkpt lat="44.15488" lon="5.01883">
        <ele>554.8</ele>
        <time>2020-09-08T10:07:35Z</time>
      </trkpt>
      <trkpt lat="44.15488" lon="5.01883">
        <ele>554.8</ele>
        <time>2020-09-08T10:07:36Z</time>
      </trkpt>
      <trkpt lat="44.15488" lon="5.01885">
        <ele>554.8</ele>
        <time>2020-09-08T10:07:37Z</time>
      </trkpt>
      <trkpt lat="44.15488" lon="5.01885">
        <ele>554.8</ele>
        <time>2020-09-08T10:07:38Z</time>
      </trkpt>
      <trkpt lat="44.15488" lon="5.01886">
        <ele>554.8</ele>
        <time>2020-09-08T10:07:39Z</time>
      </trkpt>
      <trkpt lat="44.15487" lon="5.01887">
        <ele>554.8</ele>
        <time>2020-09-08T10:07:40Z</time>
      </trkpt>
      <trkpt lat="44.15487" lon="5.01887">
        <ele>554.8</ele>
        <time>2020-09-08T10:07:41Z</time>
      </trkpt>
      <trkpt lat="44.15487" lon="5.01889">
        <ele>554.8</ele>
        <time>2020-09-08T10:07:42Z</time>
      </trkpt>
      <trkpt lat="44.15487" lon="5.01891">
        <ele>554.8</ele>
        <time>2020-09-08T10:07:43Z</time>
      </trkpt>
      <trkpt lat="44.15487" lon="5.01892">
        <ele>554.8</ele>
        <time>2020-09-08T10:07:44Z</time>
      </trkpt>
      <trkpt lat="44.15487" lon="5.01891">
        <ele>554.8</ele>
        <time>2020-09-08T10:07:46Z</time>
      </trkpt>
      <trkpt lat="44.15487" lon="5.01891">
        <ele>554.8</ele>
        <time>2020-09-08T10:07:47Z</time>
      </trkpt>
      <trkpt lat="44.15487" lon="5.01891">
        <ele>554.8</ele>
        <time>2020-09-08T10:07:48Z</time>
      </trkpt>
      <trkpt lat="44.15487" lon="5.01891">
        <ele>554.8</ele>
        <time>2020-09-08T10:07:49Z</time>
      </trkpt>
      <trkpt lat="44.15487" lon="5.01892">
        <ele>554.8</ele>
        <time>2020-09-08T10:07:50Z</time>
      </trkpt>
      <trkpt lat="44.15487" lon="5.01892">
        <ele>554.8</ele>
        <time>2020-09-08T10:07:51Z</time>
      </trkpt>
      <trkpt lat="44.15488" lon="5.01892">
        <ele>554.8</ele>
        <time>2020-09-08T10:07:52Z</time>
      </trkpt>
      <trkpt lat="44.15488" lon="5.01893">
        <ele>554.8</ele>
        <time>2020-09-08T10:07:53Z</time>
      </trkpt>
      <trkpt lat="44.15488" lon="5.01893">
        <ele>554.8</ele>
        <time>2020-09-08T10:07:54Z</time>
      </trkpt>
      <trkpt lat="44.15489" lon="5.01894">
        <ele>554.8</ele>
        <time>2020-09-08T10:07:55Z</time>
      </trkpt>
      <trkpt lat="44.15489" lon="5.01895">
        <ele>554.8</ele>
        <time>2020-09-08T10:07:56Z</time>
      </trkpt>
      <trkpt lat="44.15489" lon="5.01895">
        <ele>554.8</ele>
        <time>2020-09-08T10:07:57Z</time>
      </trkpt>
      <trkpt lat="44.15489" lon="5.01895">
        <ele>554.8</ele>
        <time>2020-09-08T10:07:58Z</time>
      </trkpt>
      <trkpt lat="44.15489" lon="5.01895">
        <ele>554.8</ele>
        <time>2020-09-08T10:07:59Z</time>
      </trkpt>
      <trkpt lat="44.15489" lon="5.01895">
        <ele>554.8</ele>
        <time>2020-09-08T10:08:00Z</time>
      </trkpt>
      <trkpt lat="44.15489" lon="5.01895">
        <ele>554.8</ele>
        <time>2020-09-08T10:08:01Z</time>
      </trkpt>
      <trkpt lat="44.15489" lon="5.01895">
        <ele>554.8</ele>
        <time>2020-09-08T10:08:02Z</time>
      </trkpt>
      <trkpt lat="44.15489" lon="5.01895">
        <ele>554.8</ele>
        <time>2020-09-08T10:08:03Z</time>
      </trkpt>
      <trkpt lat="44.15489" lon="5.01895">
        <ele>554.8</ele>
        <time>2020-09-08T10:08:04Z</time>
      </trkpt>
      <trkpt lat="44.15489" lon="5.01895">
        <ele>554.8</ele>
        <time>2020-09-08T10:08:05Z</time>
      </trkpt>
      <trkpt lat="44.15488" lon="5.01894">
        <ele>554.8</ele>
        <time>2020-09-08T10:08:06Z</time>
      </trkpt>
      <trkpt lat="44.15486" lon="5.01893">
        <ele>554.8</ele>
        <time>2020-09-08T10:08:07Z</time>
      </trkpt>
      <trkpt lat="44.15485" lon="5.0189">
        <ele>554.8</ele>
        <time>2020-09-08T10:08:08Z</time>
      </trkpt>
      <trkpt lat="44.15484" lon="5.01889">
        <ele>554.8</ele>
        <time>2020-09-08T10:08:09Z</time>
      </trkpt>
      <trkpt lat="44.15483" lon="5.01889">
        <ele>554.8</ele>
        <time>2020-09-08T10:08:10Z</time>
      </trkpt>
      <trkpt lat="44.15483" lon="5.01888">
        <ele>554.8</ele>
        <time>2020-09-08T10:08:11Z</time>
      </trkpt>
      <trkpt lat="44.15482" lon="5.01887">
        <ele>554.9</ele>
        <time>2020-09-08T10:08:12Z</time>
      </trkpt>
      <trkpt lat="44.15483" lon="5.01887">
        <ele>554.9</ele>
        <time>2020-09-08T10:08:13Z</time>
      </trkpt>
      <trkpt lat="44.15482" lon="5.01887">
        <ele>554.9</ele>
        <time>2020-09-08T10:08:14Z</time>
      </trkpt>
      <trkpt lat="44.15482" lon="5.01887">
        <ele>554.9</ele>
        <time>2020-09-08T10:08:15Z</time>
      </trkpt>
      <trkpt lat="44.15482" lon="5.01888">
        <ele>554.9</ele>
        <time>2020-09-08T10:08:16Z</time>
      </trkpt>
      <trkpt lat="44.15482" lon="5.01889">
        <ele>554.9</ele>
        <time>2020-09-08T10:08:17Z</time>
      </trkpt>
      <trkpt lat="44.15482" lon="5.01889">
        <ele>554.9</ele>
        <time>2020-09-08T10:08:18Z</time>
      </trkpt>
      <trkpt lat="44.15481" lon="5.0189">
        <ele>554.9</ele>
        <time>2020-09-08T10:08:19Z</time>
      </trkpt>
      <trkpt lat="44.1548" lon="5.01888">
        <ele>554.9</ele>
        <time>2020-09-08T10:08:20Z</time>
      </trkpt>
      <trkpt lat="44.15479" lon="5.01887">
        <ele>554.9</ele>
        <time>2020-09-08T10:08:21Z</time>
      </trkpt>
      <trkpt lat="44.15479" lon="5.01886">
        <ele>554.9</ele>
        <time>2020-09-08T10:08:22Z</time>
      </trkpt>
      <trkpt lat="44.15479" lon="5.01886">
        <ele>554.9</ele>
        <time>2020-09-08T10:08:23Z</time>
      </trkpt>
      <trkpt lat="44.15479" lon="5.01887">
        <ele>554.9</ele>
        <time>2020-09-08T10:08:24Z</time>
      </trkpt>
      <trkpt lat="44.15478" lon="5.01887">
        <ele>554.9</ele>
        <time>2020-09-08T10:08:25Z</time>
      </trkpt>
      <trkpt lat="44.15477" lon="5.01887">
        <ele>554.9</ele>
        <time>2020-09-08T10:08:26Z</time>
      </trkpt>
      <trkpt lat="44.15477" lon="5.01887">
        <ele>554.9</ele>
        <time>2020-09-08T10:08:27Z</time>
      </trkpt>
      <trkpt lat="44.15477" lon="5.01886">
        <ele>554.9</ele>
        <time>2020-09-08T10:08:28Z</time>
      </trkpt>
      <trkpt lat="44.15476" lon="5.01885">
        <ele>554.9</ele>
        <time>2020-09-08T10:08:29Z</time>
      </trkpt>
      <trkpt lat="44.15476" lon="5.01884">
        <ele>554.9</ele>
        <time>2020-09-08T10:08:30Z</time>
      </trkpt>
      <trkpt lat="44.15475" lon="5.01885">
        <ele>554.9</ele>
        <time>2020-09-08T10:08:31Z</time>
      </trkpt>
      <trkpt lat="44.15475" lon="5.01886">
        <ele>554.9</ele>
        <time>2020-09-08T10:08:32Z</time>
      </trkpt>
      <trkpt lat="44.15474" lon="5.01887">
        <ele>554.9</ele>
        <time>2020-09-08T10:08:33Z</time>
      </trkpt>
      <trkpt lat="44.15474" lon="5.01888">
        <ele>554.9</ele>
        <time>2020-09-08T10:08:34Z</time>
      </trkpt>
      <trkpt lat="44.15474" lon="5.01889">
        <ele>554.9</ele>
        <time>2020-09-08T10:08:35Z</time>
      </trkpt>
      <trkpt lat="44.15473" lon="5.01891">
        <ele>554.9</ele>
        <time>2020-09-08T10:08:36Z</time>
      </trkpt>
      <trkpt lat="44.15473" lon="5.01893">
        <ele>554.9</ele>
        <time>2020-09-08T10:08:37Z</time>
      </trkpt>
      <trkpt lat="44.15473" lon="5.01894">
        <ele>554.9</ele>
        <time>2020-09-08T10:08:38Z</time>
      </trkpt>
      <trkpt lat="44.15473" lon="5.01895">
        <ele>554.9</ele>
        <time>2020-09-08T10:08:39Z</time>
      </trkpt>
      <trkpt lat="44.15473" lon="5.01896">
        <ele>554.9</ele>
        <time>2020-09-08T10:08:40Z</time>
      </trkpt>
      <trkpt lat="44.15473" lon="5.01897">
        <ele>554.9</ele>
        <time>2020-09-08T10:08:41Z</time>
      </trkpt>
      <trkpt lat="44.15473" lon="5.019">
        <ele>554.9</ele>
        <time>2020-09-08T10:08:42Z</time>
      </trkpt>
      <trkpt lat="44.15472" lon="5.019">
        <ele>554.8</ele>
        <time>2020-09-08T10:08:43Z</time>
      </trkpt>
      <trkpt lat="44.15472" lon="5.019">
        <ele>554.8</ele>
        <time>2020-09-08T10:08:44Z</time>
      </trkpt>
      <trkpt lat="44.15473" lon="5.01901">
        <ele>554.8</ele>
        <time>2020-09-08T10:08:45Z</time>
      </trkpt>
      <trkpt lat="44.15471" lon="5.01902">
        <ele>554.8</ele>
        <time>2020-09-08T10:08:46Z</time>
      </trkpt>
      <trkpt lat="44.1547" lon="5.01902">
        <ele>554.8</ele>
        <time>2020-09-08T10:08:47Z</time>
      </trkpt>
      <trkpt lat="44.1547" lon="5.01903">
        <ele>554.8</ele>
        <time>2020-09-08T10:08:48Z</time>
      </trkpt>
      <trkpt lat="44.1547" lon="5.01903">
        <ele>554.8</ele>
        <time>2020-09-08T10:08:49Z</time>
      </trkpt>
      <trkpt lat="44.1547" lon="5.01905">
        <ele>554.7</ele>
        <time>2020-09-08T10:08:50Z</time>
      </trkpt>
      <trkpt lat="44.1547" lon="5.01907">
        <ele>554.7</ele>
        <time>2020-09-08T10:08:51Z</time>
      </trkpt>
      <trkpt lat="44.15471" lon="5.01908">
        <ele>554.6</ele>
        <time>2020-09-08T10:08:52Z</time>
      </trkpt>
      <trkpt lat="44.15471" lon="5.0191">
        <ele>554.6</ele>
        <time>2020-09-08T10:08:53Z</time>
      </trkpt>
      <trkpt lat="44.1547" lon="5.01911">
        <ele>554.6</ele>
        <time>2020-09-08T10:08:54Z</time>
      </trkpt>
      <trkpt lat="44.1547" lon="5.01911">
        <ele>554.6</ele>
        <time>2020-09-08T10:08:55Z</time>
      </trkpt>
      <trkpt lat="44.15469" lon="5.01911">
        <ele>554.5</ele>
        <time>2020-09-08T10:08:56Z</time>
      </trkpt>
      <trkpt lat="44.15469" lon="5.01912">
        <ele>554.5</ele>
        <time>2020-09-08T10:08:57Z</time>
      </trkpt>
      <trkpt lat="44.15468" lon="5.01912">
        <ele>554.5</ele>
        <time>2020-09-08T10:08:58Z</time>
      </trkpt>
      <trkpt lat="44.15468" lon="5.01913">
        <ele>554.5</ele>
        <time>2020-09-08T10:08:59Z</time>
      </trkpt>
      <trkpt lat="44.15467" lon="5.01914">
        <ele>554.4</ele>
        <time>2020-09-08T10:09:00Z</time>
      </trkpt>
      <trkpt lat="44.15467" lon="5.01914">
        <ele>554.4</ele>
        <time>2020-09-08T10:09:01Z</time>
      </trkpt>
      <trkpt lat="44.15467" lon="5.01916">
        <ele>554.4</ele>
        <time>2020-09-08T10:09:02Z</time>
      </trkpt>
      <trkpt lat="44.15467" lon="5.01918">
        <ele>554.3</ele>
        <time>2020-09-08T10:09:03Z</time>
      </trkpt>
      <trkpt lat="44.15466" lon="5.0192">
        <ele>554.3</ele>
        <time>2020-09-08T10:09:04Z</time>
      </trkpt>
      <trkpt lat="44.15465" lon="5.01919">
        <ele>554.2</ele>
        <time>2020-09-08T10:09:05Z</time>
      </trkpt>
      <trkpt lat="44.15465" lon="5.01918">
        <ele>554.2</ele>
        <time>2020-09-08T10:09:06Z</time>
      </trkpt>
      <trkpt lat="44.15464" lon="5.01918">
        <ele>554.2</ele>
        <time>2020-09-08T10:09:07Z</time>
      </trkpt>
      <trkpt lat="44.15464" lon="5.01917">
        <ele>554.2</ele>
        <time>2020-09-08T10:09:08Z</time>
      </trkpt>
      <trkpt lat="44.15464" lon="5.01917">
        <ele>554.1</ele>
        <time>2020-09-08T10:09:09Z</time>
      </trkpt>
      <trkpt lat="44.15464" lon="5.01917">
        <ele>554.1</ele>
        <time>2020-09-08T10:09:10Z</time>
      </trkpt>
      <trkpt lat="44.15464" lon="5.01917">
        <ele>554.1</ele>
        <time>2020-09-08T10:09:11Z</time>
      </trkpt>
      <trkpt lat="44.15464" lon="5.01916">
        <ele>554.1</ele>
        <time>2020-09-08T10:09:12Z</time>
      </trkpt>
      <trkpt lat="44.15464" lon="5.01916">
        <ele>554.1</ele>
        <time>2020-09-08T10:09:13Z</time>
      </trkpt>
      <trkpt lat="44.15465" lon="5.01916">
        <ele>554</ele>
        <time>2020-09-08T10:09:14Z</time>
      </trkpt>
      <trkpt lat="44.15465" lon="5.01917">
        <ele>554</ele>
        <time>2020-09-08T10:09:15Z</time>
      </trkpt>
      <trkpt lat="44.15466" lon="5.01918">
        <ele>554</ele>
        <time>2020-09-08T10:09:16Z</time>
      </trkpt>
      <trkpt lat="44.15467" lon="5.01918">
        <ele>553.9</ele>
        <time>2020-09-08T10:09:17Z</time>
      </trkpt>
      <trkpt lat="44.15467" lon="5.01919">
        <ele>553.9</ele>
        <time>2020-09-08T10:09:18Z</time>
      </trkpt>
      <trkpt lat="44.15467" lon="5.01919">
        <ele>553.9</ele>
        <time>2020-09-08T10:09:19Z</time>
      </trkpt>
      <trkpt lat="44.15467" lon="5.01919">
        <ele>553.9</ele>
        <time>2020-09-08T10:09:20Z</time>
      </trkpt>
      <trkpt lat="44.15467" lon="5.0192">
        <ele>553.8</ele>
        <time>2020-09-08T10:09:21Z</time>
      </trkpt>
      <trkpt lat="44.15468" lon="5.0192">
        <ele>553.8</ele>
        <time>2020-09-08T10:09:22Z</time>
      </trkpt>
      <trkpt lat="44.15469" lon="5.01921">
        <ele>553.8</ele>
        <time>2020-09-08T10:09:23Z</time>
      </trkpt>
      <trkpt lat="44.15469" lon="5.01922">
        <ele>553.7</ele>
        <time>2020-09-08T10:09:24Z</time>
      </trkpt>
      <trkpt lat="44.15469" lon="5.01925">
        <ele>553.7</ele>
        <time>2020-09-08T10:09:25Z</time>
      </trkpt>
      <trkpt lat="44.1547" lon="5.01926">
        <ele>553.6</ele>
        <time>2020-09-08T10:09:26Z</time>
      </trkpt>
      <trkpt lat="44.15469" lon="5.01926">
        <ele>553.6</ele>
        <time>2020-09-08T10:09:27Z</time>
      </trkpt>
      <trkpt lat="44.15469" lon="5.01926">
        <ele>553.6</ele>
        <time>2020-09-08T10:09:28Z</time>
      </trkpt>
      <trkpt lat="44.15469" lon="5.01926">
        <ele>553.5</ele>
        <time>2020-09-08T10:09:29Z</time>
      </trkpt>
      <trkpt lat="44.15469" lon="5.01926">
        <ele>553.5</ele>
        <time>2020-09-08T10:09:30Z</time>
      </trkpt>
      <trkpt lat="44.1547" lon="5.01927">
        <ele>553.5</ele>
        <time>2020-09-08T10:09:31Z</time>
      </trkpt>
      <trkpt lat="44.1547" lon="5.01928">
        <ele>553.5</ele>
        <time>2020-09-08T10:09:32Z</time>
      </trkpt>
      <trkpt lat="44.15469" lon="5.01929">
        <ele>553.4</ele>
        <time>2020-09-08T10:09:33Z</time>
      </trkpt>
      <trkpt lat="44.15471" lon="5.01931">
        <ele>553.4</ele>
        <time>2020-09-08T10:09:34Z</time>
      </trkpt>
      <trkpt lat="44.1547" lon="5.01933">
        <ele>553.3</ele>
        <time>2020-09-08T10:09:35Z</time>
      </trkpt>
      <trkpt lat="44.1547" lon="5.01934">
        <ele>553.2</ele>
        <time>2020-09-08T10:09:36Z</time>
      </trkpt>
      <trkpt lat="44.1547" lon="5.01934">
        <ele>553.2</ele>
        <time>2020-09-08T10:09:37Z</time>
      </trkpt>
      <trkpt lat="44.15469" lon="5.01933">
        <ele>553.2</ele>
        <time>2020-09-08T10:09:38Z</time>
      </trkpt>
      <trkpt lat="44.15469" lon="5.01933">
        <ele>553.2</ele>
        <time>2020-09-08T10:09:39Z</time>
      </trkpt>
      <trkpt lat="44.15469" lon="5.01933">
        <ele>553.2</ele>
        <time>2020-09-08T10:09:40Z</time>
      </trkpt>
      <trkpt lat="44.15469" lon="5.01933">
        <ele>553.2</ele>
        <time>2020-09-08T10:09:41Z</time>
      </trkpt>
      <trkpt lat="44.15469" lon="5.01933">
        <ele>553.1</ele>
        <time>2020-09-08T10:09:42Z</time>
      </trkpt>
      <trkpt lat="44.15469" lon="5.01933">
        <ele>553.1</ele>
        <time>2020-09-08T10:09:43Z</time>
      </trkpt>
      <trkpt lat="44.15469" lon="5.01934">
        <ele>553.1</ele>
        <time>2020-09-08T10:09:44Z</time>
      </trkpt>
      <trkpt lat="44.15469" lon="5.01934">
        <ele>553.1</ele>
        <time>2020-09-08T10:09:45Z</time>
      </trkpt>
      <trkpt lat="44.15469" lon="5.01934">
        <ele>553.1</ele>
        <time>2020-09-08T10:09:46Z</time>
      </trkpt>
      <trkpt lat="44.15468" lon="5.01934">
        <ele>553.1</ele>
        <time>2020-09-08T10:09:47Z</time>
      </trkpt>
      <trkpt lat="44.15468" lon="5.01935">
        <ele>553.1</ele>
        <time>2020-09-08T10:09:48Z</time>
      </trkpt>
      <trkpt lat="44.15469" lon="5.01936">
        <ele>553.1</ele>
        <time>2020-09-08T10:09:49Z</time>
      </trkpt>
      <trkpt lat="44.15469" lon="5.01936">
        <ele>553.1</ele>
        <time>2020-09-08T10:09:50Z</time>
      </trkpt>
      <trkpt lat="44.15469" lon="5.01936">
        <ele>553</ele>
        <time>2020-09-08T10:09:51Z</time>
      </trkpt>
      <trkpt lat="44.15469" lon="5.01936">
        <ele>553</ele>
        <time>2020-09-08T10:09:52Z</time>
      </trkpt>
      <trkpt lat="44.15469" lon="5.01936">
        <ele>553</ele>
        <time>2020-09-08T10:09:53Z</time>
      </trkpt>
      <trkpt lat="44.15469" lon="5.01936">
        <ele>553</ele>
        <time>2020-09-08T10:09:54Z</time>
      </trkpt>
      <trkpt lat="44.15469" lon="5.01936">
        <ele>553</ele>
        <time>2020-09-08T10:09:55Z</time>
      </trkpt>
      <trkpt lat="44.15469" lon="5.01936">
        <ele>553</ele>
        <time>2020-09-08T10:09:56Z</time>
      </trkpt>
      <trkpt lat="44.15469" lon="5.01937">
        <ele>553</ele>
        <time>2020-09-08T10:09:57Z</time>
      </trkpt>
      <trkpt lat="44.1547" lon="5.01937">
        <ele>553</ele>
        <time>2020-09-08T10:09:58Z</time>
      </trkpt>
      <trkpt lat="44.15469" lon="5.01937">
        <ele>553</ele>
        <time>2020-09-08T10:09:59Z</time>
      </trkpt>
      <trkpt lat="44.15469" lon="5.01936">
        <ele>553</ele>
        <time>2020-09-08T10:10:00Z</time>
      </trkpt>
      <trkpt lat="44.1547" lon="5.01935">
        <ele>553</ele>
        <time>2020-09-08T10:10:01Z</time>
      </trkpt>
      <trkpt lat="44.15469" lon="5.01934">
        <ele>553</ele>
        <time>2020-09-08T10:10:02Z</time>
      </trkpt>
      <trkpt lat="44.15469" lon="5.01932">
        <ele>552.9</ele>
        <time>2020-09-08T10:10:03Z</time>
      </trkpt>
      <trkpt lat="44.15469" lon="5.01929">
        <ele>552.9</ele>
        <time>2020-09-08T10:10:04Z</time>
      </trkpt>
      <trkpt lat="44.15468" lon="5.01927">
        <ele>552.8</ele>
        <time>2020-09-08T10:10:05Z</time>
      </trkpt>
      <trkpt lat="44.15468" lon="5.01927">
        <ele>552.8</ele>
        <time>2020-09-08T10:10:06Z</time>
      </trkpt>
      <trkpt lat="44.15469" lon="5.01926">
        <ele>552.8</ele>
        <time>2020-09-08T10:10:07Z</time>
      </trkpt>
      <trkpt lat="44.15469" lon="5.01925">
        <ele>552.8</ele>
        <time>2020-09-08T10:10:08Z</time>
      </trkpt>
      <trkpt lat="44.15469" lon="5.01924">
        <ele>552.8</ele>
        <time>2020-09-08T10:10:09Z</time>
      </trkpt>
      <trkpt lat="44.15469" lon="5.01924">
        <ele>552.8</ele>
        <time>2020-09-08T10:10:10Z</time>
      </trkpt>
      <trkpt lat="44.15469" lon="5.01922">
        <ele>552.8</ele>
        <time>2020-09-08T10:10:11Z</time>
      </trkpt>
      <trkpt lat="44.15468" lon="5.01921">
        <ele>552.8</ele>
        <time>2020-09-08T10:10:12Z</time>
      </trkpt>
      <trkpt lat="44.15466" lon="5.0192">
        <ele>552.8</ele>
        <time>2020-09-08T10:10:13Z</time>
      </trkpt>
      <trkpt lat="44.15466" lon="5.0192">
        <ele>552.8</ele>
        <time>2020-09-08T10:10:14Z</time>
      </trkpt>
      <trkpt lat="44.15467" lon="5.01919">
        <ele>552.8</ele>
        <time>2020-09-08T10:10:15Z</time>
      </trkpt>
      <trkpt lat="44.15467" lon="5.01918">
        <ele>552.8</ele>
        <time>2020-09-08T10:10:16Z</time>
      </trkpt>
      <trkpt lat="44.15467" lon="5.01918">
        <ele>552.8</ele>
        <time>2020-09-08T10:10:17Z</time>
      </trkpt>
      <trkpt lat="44.15467" lon="5.01918">
        <ele>552.8</ele>
        <time>2020-09-08T10:10:18Z</time>
      </trkpt>
      <trkpt lat="44.15468" lon="5.01916">
        <ele>552.8</ele>
        <time>2020-09-08T10:10:19Z</time>
      </trkpt>
      <trkpt lat="44.15468" lon="5.01916">
        <ele>552.8</ele>
        <time>2020-09-08T10:10:20Z</time>
      </trkpt>
      <trkpt lat="44.15469" lon="5.01915">
        <ele>552.8</ele>
        <time>2020-09-08T10:10:21Z</time>
      </trkpt>
      <trkpt lat="44.15468" lon="5.01915">
        <ele>552.8</ele>
        <time>2020-09-08T10:10:22Z</time>
      </trkpt>
      <trkpt lat="44.15469" lon="5.01915">
        <ele>552.8</ele>
        <time>2020-09-08T10:10:23Z</time>
      </trkpt>
      <trkpt lat="44.15469" lon="5.01915">
        <ele>552.8</ele>
        <time>2020-09-08T10:10:24Z</time>
      </trkpt>
      <trkpt lat="44.15469" lon="5.01915">
        <ele>552.8</ele>
        <time>2020-09-08T10:10:25Z</time>
      </trkpt>
      <trkpt lat="44.15469" lon="5.01915">
        <ele>552.8</ele>
        <time>2020-09-08T10:10:26Z</time>
      </trkpt>
      <trkpt lat="44.15469" lon="5.01915">
        <ele>552.8</ele>
        <time>2020-09-08T10:10:27Z</time>
      </trkpt>
      <trkpt lat="44.15471" lon="5.01913">
        <ele>552.8</ele>
        <time>2020-09-08T10:10:28Z</time>
      </trkpt>
      <trkpt lat="44.15471" lon="5.01912">
        <ele>552.8</ele>
        <time>2020-09-08T10:10:29Z</time>
      </trkpt>
      <trkpt lat="44.1547" lon="5.01911">
        <ele>552.9</ele>
        <time>2020-09-08T10:10:30Z</time>
      </trkpt>
      <trkpt lat="44.15471" lon="5.0191">
        <ele>552.9</ele>
        <time>2020-09-08T10:10:31Z</time>
      </trkpt>
      <trkpt lat="44.15471" lon="5.01909">
        <ele>552.9</ele>
        <time>2020-09-08T10:10:32Z</time>
      </trkpt>
      <trkpt lat="44.15471" lon="5.0191">
        <ele>552.9</ele>
        <time>2020-09-08T10:10:33Z</time>
      </trkpt>
      <trkpt lat="44.15471" lon="5.0191">
        <ele>552.9</ele>
        <time>2020-09-08T10:10:34Z</time>
      </trkpt>
      <trkpt lat="44.15471" lon="5.0191">
        <ele>552.9</ele>
        <time>2020-09-08T10:10:35Z</time>
      </trkpt>
      <trkpt lat="44.15471" lon="5.0191">
        <ele>552.9</ele>
        <time>2020-09-08T10:10:36Z</time>
      </trkpt>
      <trkpt lat="44.15471" lon="5.0191">
        <ele>552.9</ele>
        <time>2020-09-08T10:10:37Z</time>
      </trkpt>
      <trkpt lat="44.15471" lon="5.0191">
        <ele>552.9</ele>
        <time>2020-09-08T10:10:38Z</time>
      </trkpt>
      <trkpt lat="44.15472" lon="5.0191">
        <ele>552.9</ele>
        <time>2020-09-08T10:10:39Z</time>
      </trkpt>
      <trkpt lat="44.15472" lon="5.0191">
        <ele>553</ele>
        <time>2020-09-08T10:10:40Z</time>
      </trkpt>
      <trkpt lat="44.15472" lon="5.0191">
        <ele>553</ele>
        <time>2020-09-08T10:10:41Z</time>
      </trkpt>
      <trkpt lat="44.15472" lon="5.0191">
        <ele>553</ele>
        <time>2020-09-08T10:10:42Z</time>
      </trkpt>
      <trkpt lat="44.15472" lon="5.0191">
        <ele>553</ele>
        <time>2020-09-08T10:10:43Z</time>
      </trkpt>
      <trkpt lat="44.15472" lon="5.0191">
        <ele>553</ele>
        <time>2020-09-08T10:10:44Z</time>
      </trkpt>
      <trkpt lat="44.15472" lon="5.0191">
        <ele>553</ele>
        <time>2020-09-08T10:10:45Z</time>
      </trkpt>
      <trkpt lat="44.15472" lon="5.0191">
        <ele>553</ele>
        <time>2020-09-08T10:10:46Z</time>
      </trkpt>
      <trkpt lat="44.15472" lon="5.0191">
        <ele>553</ele>
        <time>2020-09-08T10:10:47Z</time>
      </trkpt>
      <trkpt lat="44.15472" lon="5.0191">
        <ele>553</ele>
        <time>2020-09-08T10:10:48Z</time>
      </trkpt>
      <trkpt lat="44.15472" lon="5.0191">
        <ele>553</ele>
        <time>2020-09-08T10:10:49Z</time>
      </trkpt>
      <trkpt lat="44.15472" lon="5.0191">
        <ele>553</ele>
        <time>2020-09-08T10:10:50Z</time>
      </trkpt>
      <trkpt lat="44.15472" lon="5.0191">
        <ele>553</ele>
        <time>2020-09-08T10:10:51Z</time>
      </trkpt>
      <trkpt lat="44.15472" lon="5.0191">
        <ele>553</ele>
        <time>2020-09-08T10:10:52Z</time>
      </trkpt>
      <trkpt lat="44.15472" lon="5.0191">
        <ele>553</ele>
        <time>2020-09-08T10:10:53Z</time>
      </trkpt>
      <trkpt lat="44.15473" lon="5.0191">
        <ele>553</ele>
        <time>2020-09-08T10:10:54Z</time>
      </trkpt>
      <trkpt lat="44.15473" lon="5.0191">
        <ele>553</ele>
        <time>2020-09-08T10:10:55Z</time>
      </trkpt>
      <trkpt lat="44.15473" lon="5.01909">
        <ele>553</ele>
        <time>2020-09-08T10:10:56Z</time>
      </trkpt>
      <trkpt lat="44.15473" lon="5.0191">
        <ele>553</ele>
        <time>2020-09-08T10:10:57Z</time>
      </trkpt>
      <trkpt lat="44.15473" lon="5.0191">
        <ele>553</ele>
        <time>2020-09-08T10:10:58Z</time>
      </trkpt>
      <trkpt lat="44.15473" lon="5.0191">
        <ele>553</ele>
        <time>2020-09-08T10:10:59Z</time>
      </trkpt>
      <trkpt lat="44.15473" lon="5.0191">
        <ele>553</ele>
        <time>2020-09-08T10:11:00Z</time>
      </trkpt>
      <trkpt lat="44.15473" lon="5.0191">
        <ele>553</ele>
        <time>2020-09-08T10:11:01Z</time>
      </trkpt>
      <trkpt lat="44.15473" lon="5.01911">
        <ele>553</ele>
        <time>2020-09-08T10:11:02Z</time>
      </trkpt>
      <trkpt lat="44.15473" lon="5.01911">
        <ele>553</ele>
        <time>2020-09-08T10:11:03Z</time>
      </trkpt>
      <trkpt lat="44.15474" lon="5.01911">
        <ele>553</ele>
        <time>2020-09-08T10:11:04Z</time>
      </trkpt>
      <trkpt lat="44.15474" lon="5.01911">
        <ele>553</ele>
        <time>2020-09-08T10:11:05Z</time>
      </trkpt>
      <trkpt lat="44.15474" lon="5.01911">
        <ele>553</ele>
        <time>2020-09-08T10:11:06Z</time>
      </trkpt>
      <trkpt lat="44.15474" lon="5.01911">
        <ele>553</ele>
        <time>2020-09-08T10:11:07Z</time>
      </trkpt>
      <trkpt lat="44.15474" lon="5.01911">
        <ele>553</ele>
        <time>2020-09-08T10:11:08Z</time>
      </trkpt>
      <trkpt lat="44.15474" lon="5.01912">
        <ele>553.1</ele>
        <time>2020-09-08T10:11:09Z</time>
      </trkpt>
      <trkpt lat="44.15474" lon="5.01911">
        <ele>553.1</ele>
        <time>2020-09-08T10:11:10Z</time>
      </trkpt>
      <trkpt lat="44.15473" lon="5.01911">
        <ele>553.1</ele>
        <time>2020-09-08T10:11:11Z</time>
      </trkpt>
      <trkpt lat="44.15474" lon="5.01911">
        <ele>553.1</ele>
        <time>2020-09-08T10:11:12Z</time>
      </trkpt>
      <trkpt lat="44.15474" lon="5.01911">
        <ele>553.1</ele>
        <time>2020-09-08T10:11:13Z</time>
      </trkpt>
      <trkpt lat="44.15473" lon="5.01911">
        <ele>553.1</ele>
        <time>2020-09-08T10:11:14Z</time>
      </trkpt>
      <trkpt lat="44.15473" lon="5.01912">
        <ele>553.1</ele>
        <time>2020-09-08T10:11:15Z</time>
      </trkpt>
      <trkpt lat="44.15473" lon="5.01912">
        <ele>553.2</ele>
        <time>2020-09-08T10:11:16Z</time>
      </trkpt>
      <trkpt lat="44.15472" lon="5.01913">
        <ele>553.2</ele>
        <time>2020-09-08T10:11:17Z</time>
      </trkpt>
      <trkpt lat="44.15471" lon="5.01914">
        <ele>553.3</ele>
        <time>2020-09-08T10:11:18Z</time>
      </trkpt>
      <trkpt lat="44.1547" lon="5.01915">
        <ele>553.3</ele>
        <time>2020-09-08T10:11:19Z</time>
      </trkpt>
      <trkpt lat="44.1547" lon="5.01915">
        <ele>553.3</ele>
        <time>2020-09-08T10:11:20Z</time>
      </trkpt>
      <trkpt lat="44.15469" lon="5.01916">
        <ele>553.4</ele>
        <time>2020-09-08T10:11:21Z</time>
      </trkpt>
      <trkpt lat="44.15469" lon="5.01916">
        <ele>553.4</ele>
        <time>2020-09-08T10:11:22Z</time>
      </trkpt>
      <trkpt lat="44.15469" lon="5.01917">
        <ele>553.4</ele>
        <time>2020-09-08T10:11:23Z</time>
      </trkpt>
      <trkpt lat="44.15468" lon="5.01918">
        <ele>553.5</ele>
        <time>2020-09-08T10:11:24Z</time>
      </trkpt>
      <trkpt lat="44.15468" lon="5.01919">
        <ele>553.5</ele>
        <time>2020-09-08T10:11:25Z</time>
      </trkpt>
      <trkpt lat="44.15467" lon="5.01919">
        <ele>553.6</ele>
        <time>2020-09-08T10:11:26Z</time>
      </trkpt>
      <trkpt lat="44.15467" lon="5.01919">
        <ele>553.6</ele>
        <time>2020-09-08T10:11:27Z</time>
      </trkpt>
      <trkpt lat="44.15466" lon="5.01919">
        <ele>553.6</ele>
        <time>2020-09-08T10:11:28Z</time>
      </trkpt>
      <trkpt lat="44.15466" lon="5.01918">
        <ele>553.7</ele>
        <time>2020-09-08T10:11:29Z</time>
      </trkpt>
      <trkpt lat="44.15465" lon="5.01918">
        <ele>553.7</ele>
        <time>2020-09-08T10:11:30Z</time>
      </trkpt>
      <trkpt lat="44.15464" lon="5.01918">
        <ele>553.8</ele>
        <time>2020-09-08T10:11:31Z</time>
      </trkpt>
      <trkpt lat="44.15463" lon="5.01918">
        <ele>553.9</ele>
        <time>2020-09-08T10:11:32Z</time>
      </trkpt>
      <trkpt lat="44.15463" lon="5.01917">
        <ele>553.9</ele>
        <time>2020-09-08T10:11:33Z</time>
      </trkpt>
      <trkpt lat="44.15462" lon="5.01916">
        <ele>553.9</ele>
        <time>2020-09-08T10:11:34Z</time>
      </trkpt>
      <trkpt lat="44.15463" lon="5.01914">
        <ele>554.1</ele>
        <time>2020-09-08T10:11:35Z</time>
      </trkpt>
      <trkpt lat="44.15462" lon="5.01913">
        <ele>554.1</ele>
        <time>2020-09-08T10:11:36Z</time>
      </trkpt>
      <trkpt lat="44.15462" lon="5.01913">
        <ele>554.1</ele>
        <time>2020-09-08T10:11:37Z</time>
      </trkpt>
      <trkpt lat="44.15462" lon="5.01913">
        <ele>554.2</ele>
        <time>2020-09-08T10:11:38Z</time>
      </trkpt>
      <trkpt lat="44.15462" lon="5.01912">
        <ele>554.2</ele>
        <time>2020-09-08T10:11:39Z</time>
      </trkpt>
      <trkpt lat="44.15462" lon="5.01911">
        <ele>554.3</ele>
        <time>2020-09-08T10:11:40Z</time>
      </trkpt>
      <trkpt lat="44.15462" lon="5.01911">
        <ele>554.3</ele>
        <time>2020-09-08T10:11:41Z</time>
      </trkpt>
      <trkpt lat="44.15462" lon="5.0191">
        <ele>554.3</ele>
        <time>2020-09-08T10:11:42Z</time>
      </trkpt>
      <trkpt lat="44.15463" lon="5.0191">
        <ele>554.4</ele>
        <time>2020-09-08T10:11:43Z</time>
      </trkpt>
      <trkpt lat="44.15463" lon="5.01909">
        <ele>554.4</ele>
        <time>2020-09-08T10:11:44Z</time>
      </trkpt>
      <trkpt lat="44.15462" lon="5.01909">
        <ele>554.5</ele>
        <time>2020-09-08T10:11:45Z</time>
      </trkpt>
      <trkpt lat="44.15462" lon="5.01909">
        <ele>554.5</ele>
        <time>2020-09-08T10:11:46Z</time>
      </trkpt>
      <trkpt lat="44.15462" lon="5.01909">
        <ele>554.5</ele>
        <time>2020-09-08T10:11:47Z</time>
      </trkpt>
      <trkpt lat="44.15462" lon="5.0191">
        <ele>554.6</ele>
        <time>2020-09-08T10:11:48Z</time>
      </trkpt>
      <trkpt lat="44.15462" lon="5.0191">
        <ele>554.6</ele>
        <time>2020-09-08T10:11:49Z</time>
      </trkpt>
      <trkpt lat="44.15461" lon="5.0191">
        <ele>554.6</ele>
        <time>2020-09-08T10:11:50Z</time>
      </trkpt>
      <trkpt lat="44.15461" lon="5.0191">
        <ele>554.6</ele>
        <time>2020-09-08T10:11:51Z</time>
      </trkpt>
      <trkpt lat="44.15461" lon="5.01909">
        <ele>554.6</ele>
        <time>2020-09-08T10:11:52Z</time>
      </trkpt>
      <trkpt lat="44.15461" lon="5.01909">
        <ele>554.6</ele>
        <time>2020-09-08T10:11:53Z</time>
      </trkpt>
      <trkpt lat="44.15461" lon="5.01909">
        <ele>554.7</ele>
        <time>2020-09-08T10:11:54Z</time>
      </trkpt>
      <trkpt lat="44.15461" lon="5.01909">
        <ele>554.7</ele>
        <time>2020-09-08T10:11:55Z</time>
      </trkpt>
      <trkpt lat="44.1546" lon="5.0191">
        <ele>554.7</ele>
        <time>2020-09-08T10:11:56Z</time>
      </trkpt>
      <trkpt lat="44.1546" lon="5.0191">
        <ele>554.8</ele>
        <time>2020-09-08T10:11:58Z</time>
      </trkpt>
      <trkpt lat="44.1546" lon="5.0191">
        <ele>554.8</ele>
        <time>2020-09-08T10:11:59Z</time>
      </trkpt>
      <trkpt lat="44.1546" lon="5.0191">
        <ele>554.8</ele>
        <time>2020-09-08T10:12:00Z</time>
      </trkpt>
      <trkpt lat="44.15459" lon="5.0191">
        <ele>554.9</ele>
        <time>2020-09-08T10:12:01Z</time>
      </trkpt>
      <trkpt lat="44.15459" lon="5.01911">
        <ele>554.9</ele>
        <time>2020-09-08T10:12:02Z</time>
      </trkpt>
      <trkpt lat="44.15459" lon="5.01911">
        <ele>554.9</ele>
        <time>2020-09-08T10:12:03Z</time>
      </trkpt>
      <trkpt lat="44.1546" lon="5.01911">
        <ele>554.9</ele>
        <time>2020-09-08T10:12:04Z</time>
      </trkpt>
      <trkpt lat="44.1546" lon="5.01911">
        <ele>555</ele>
        <time>2020-09-08T10:12:05Z</time>
      </trkpt>
      <trkpt lat="44.1546" lon="5.01911">
        <ele>555</ele>
        <time>2020-09-08T10:12:06Z</time>
      </trkpt>
      <trkpt lat="44.15461" lon="5.01911">
        <ele>555</ele>
        <time>2020-09-08T10:12:07Z</time>
      </trkpt>
      <trkpt lat="44.15461" lon="5.01911">
        <ele>555.1</ele>
        <time>2020-09-08T10:12:08Z</time>
      </trkpt>
      <trkpt lat="44.15461" lon="5.01911">
        <ele>555.1</ele>
        <time>2020-09-08T10:12:09Z</time>
      </trkpt>
      <trkpt lat="44.15461" lon="5.01912">
        <ele>555.2</ele>
        <time>2020-09-08T10:12:10Z</time>
      </trkpt>
      <trkpt lat="44.15461" lon="5.01912">
        <ele>555.2</ele>
        <time>2020-09-08T10:12:11Z</time>
      </trkpt>
      <trkpt lat="44.15461" lon="5.01912">
        <ele>555.3</ele>
        <time>2020-09-08T10:12:12Z</time>
      </trkpt>
      <trkpt lat="44.15461" lon="5.01911">
        <ele>555.3</ele>
        <time>2020-09-08T10:12:13Z</time>
      </trkpt>
      <trkpt lat="44.15462" lon="5.0191">
        <ele>555.3</ele>
        <time>2020-09-08T10:12:14Z</time>
      </trkpt>
      <trkpt lat="44.15462" lon="5.01911">
        <ele>555.4</ele>
        <time>2020-09-08T10:12:15Z</time>
      </trkpt>
      <trkpt lat="44.15462" lon="5.0191">
        <ele>555.4</ele>
        <time>2020-09-08T10:12:16Z</time>
      </trkpt>
      <trkpt lat="44.15462" lon="5.01911">
        <ele>555.5</ele>
        <time>2020-09-08T10:12:17Z</time>
      </trkpt>
      <trkpt lat="44.15462" lon="5.01912">
        <ele>555.6</ele>
        <time>2020-09-08T10:12:18Z</time>
      </trkpt>
      <trkpt lat="44.15462" lon="5.01914">
        <ele>555.7</ele>
        <time>2020-09-08T10:12:19Z</time>
      </trkpt>
      <trkpt lat="44.15462" lon="5.01914">
        <ele>555.7</ele>
        <time>2020-09-08T10:12:20Z</time>
      </trkpt>
      <trkpt lat="44.15462" lon="5.01914">
        <ele>555.8</ele>
        <time>2020-09-08T10:12:21Z</time>
      </trkpt>
      <trkpt lat="44.15462" lon="5.01914">
        <ele>555.8</ele>
        <time>2020-09-08T10:12:22Z</time>
      </trkpt>
      <trkpt lat="44.15462" lon="5.01915">
        <ele>555.9</ele>
        <time>2020-09-08T10:12:23Z</time>
      </trkpt>
      <trkpt lat="44.15462" lon="5.01915">
        <ele>555.9</ele>
        <time>2020-09-08T10:12:24Z</time>
      </trkpt>
      <trkpt lat="44.15463" lon="5.01914">
        <ele>555.9</ele>
        <time>2020-09-08T10:12:25Z</time>
      </trkpt>
      <trkpt lat="44.15463" lon="5.01915">
        <ele>556</ele>
        <time>2020-09-08T10:12:26Z</time>
      </trkpt>
      <trkpt lat="44.15462" lon="5.01915">
        <ele>556.1</ele>
        <time>2020-09-08T10:12:27Z</time>
      </trkpt>
      <trkpt lat="44.1546" lon="5.01915">
        <ele>556.2</ele>
        <time>2020-09-08T10:12:28Z</time>
      </trkpt>
      <trkpt lat="44.1546" lon="5.01915">
        <ele>556.2</ele>
        <time>2020-09-08T10:12:29Z</time>
      </trkpt>
      <trkpt lat="44.15461" lon="5.01915">
        <ele>556.3</ele>
        <time>2020-09-08T10:12:30Z</time>
      </trkpt>
      <trkpt lat="44.15462" lon="5.01915">
        <ele>556.4</ele>
        <time>2020-09-08T10:12:31Z</time>
      </trkpt>
      <trkpt lat="44.15462" lon="5.01914">
        <ele>556.5</ele>
        <time>2020-09-08T10:12:32Z</time>
      </trkpt>
      <trkpt lat="44.15462" lon="5.01913">
        <ele>556.5</ele>
        <time>2020-09-08T10:12:33Z</time>
      </trkpt>
      <trkpt lat="44.15462" lon="5.01914">
        <ele>556.6</ele>
        <time>2020-09-08T10:12:34Z</time>
      </trkpt>
      <trkpt lat="44.15461" lon="5.01914">
        <ele>556.7</ele>
        <time>2020-09-08T10:12:35Z</time>
      </trkpt>
      <trkpt lat="44.15461" lon="5.01914">
        <ele>556.7</ele>
        <time>2020-09-08T10:12:36Z</time>
      </trkpt>
      <trkpt lat="44.15461" lon="5.01914">
        <ele>556.7</ele>
        <time>2020-09-08T10:12:37Z</time>
      </trkpt>
      <trkpt lat="44.15461" lon="5.01914">
        <ele>556.7</ele>
        <time>2020-09-08T10:12:38Z</time>
      </trkpt>
      <trkpt lat="44.15461" lon="5.01913">
        <ele>556.8</ele>
        <time>2020-09-08T10:12:39Z</time>
      </trkpt>
      <trkpt lat="44.15461" lon="5.01914">
        <ele>556.8</ele>
        <time>2020-09-08T10:12:40Z</time>
      </trkpt>
      <trkpt lat="44.15461" lon="5.01915">
        <ele>556.8</ele>
        <time>2020-09-08T10:12:41Z</time>
      </trkpt>
      <trkpt lat="44.15461" lon="5.01914">
        <ele>556.9</ele>
        <time>2020-09-08T10:12:42Z</time>
      </trkpt>
      <trkpt lat="44.1546" lon="5.01914">
        <ele>556.9</ele>
        <time>2020-09-08T10:12:43Z</time>
      </trkpt>
      <trkpt lat="44.1546" lon="5.01914">
        <ele>556.9</ele>
        <time>2020-09-08T10:12:44Z</time>
      </trkpt>
      <trkpt lat="44.1546" lon="5.01914">
        <ele>556.9</ele>
        <time>2020-09-08T10:12:45Z</time>
      </trkpt>
      <trkpt lat="44.1546" lon="5.01914">
        <ele>557</ele>
        <time>2020-09-08T10:12:46Z</time>
      </trkpt>
      <trkpt lat="44.1546" lon="5.01914">
        <ele>557</ele>
        <time>2020-09-08T10:12:47Z</time>
      </trkpt>
      <trkpt lat="44.1546" lon="5.01914">
        <ele>557</ele>
        <time>2020-09-08T10:12:48Z</time>
      </trkpt>
      <trkpt lat="44.1546" lon="5.01915">
        <ele>557.1</ele>
        <time>2020-09-08T10:12:49Z</time>
      </trkpt>
      <trkpt lat="44.15459" lon="5.01915">
        <ele>557.1</ele>
        <time>2020-09-08T10:12:50Z</time>
      </trkpt>
      <trkpt lat="44.15459" lon="5.01915">
        <ele>557.1</ele>
        <time>2020-09-08T10:12:51Z</time>
      </trkpt>
      <trkpt lat="44.15459" lon="5.01915">
        <ele>557.1</ele>
        <time>2020-09-08T10:12:52Z</time>
      </trkpt>
      <trkpt lat="44.15459" lon="5.01915">
        <ele>557.1</ele>
        <time>2020-09-08T10:12:53Z</time>
      </trkpt>
      <trkpt lat="44.15459" lon="5.01915">
        <ele>557.2</ele>
        <time>2020-09-08T10:12:54Z</time>
      </trkpt>
      <trkpt lat="44.15459" lon="5.01915">
        <ele>557.2</ele>
        <time>2020-09-08T10:12:55Z</time>
      </trkpt>
      <trkpt lat="44.1546" lon="5.01915">
        <ele>557.2</ele>
        <time>2020-09-08T10:12:56Z</time>
      </trkpt>
      <trkpt lat="44.1546" lon="5.01915">
        <ele>557.2</ele>
        <time>2020-09-08T10:12:57Z</time>
      </trkpt>
      <trkpt lat="44.1546" lon="5.01915">
        <ele>557.2</ele>
        <time>2020-09-08T10:12:58Z</time>
      </trkpt>
      <trkpt lat="44.1546" lon="5.01915">
        <ele>557.2</ele>
        <time>2020-09-08T10:12:59Z</time>
      </trkpt>
      <trkpt lat="44.1546" lon="5.01915">
        <ele>557.2</ele>
        <time>2020-09-08T10:13:00Z</time>
      </trkpt>
      <trkpt lat="44.1546" lon="5.01915">
        <ele>557.2</ele>
        <time>2020-09-08T10:13:01Z</time>
      </trkpt>
      <trkpt lat="44.1546" lon="5.01915">
        <ele>557.2</ele>
        <time>2020-09-08T10:13:02Z</time>
      </trkpt>
      <trkpt lat="44.1546" lon="5.01915">
        <ele>557.2</ele>
        <time>2020-09-08T10:13:03Z</time>
      </trkpt>
      <trkpt lat="44.1546" lon="5.01916">
        <ele>557.2</ele>
        <time>2020-09-08T10:13:04Z</time>
      </trkpt>
      <trkpt lat="44.1546" lon="5.01916">
        <ele>557.2</ele>
        <time>2020-09-08T10:13:05Z</time>
      </trkpt>
      <trkpt lat="44.1546" lon="5.01916">
        <ele>557.2</ele>
        <time>2020-09-08T10:13:06Z</time>
      </trkpt>
      <trkpt lat="44.1546" lon="5.01916">
        <ele>557.2</ele>
        <time>2020-09-08T10:13:07Z</time>
      </trkpt>
      <trkpt lat="44.1546" lon="5.01916">
        <ele>557.2</ele>
        <time>2020-09-08T10:13:08Z</time>
      </trkpt>
      <trkpt lat="44.1546" lon="5.01916">
        <ele>557.2</ele>
        <time>2020-09-08T10:13:09Z</time>
      </trkpt>
      <trkpt lat="44.1546" lon="5.01916">
        <ele>557.2</ele>
        <time>2020-09-08T10:13:10Z</time>
      </trkpt>
      <trkpt lat="44.1546" lon="5.01916">
        <ele>557.3</ele>
        <time>2020-09-08T10:13:11Z</time>
      </trkpt>
      <trkpt lat="44.1546" lon="5.01916">
        <ele>557.3</ele>
        <time>2020-09-08T10:13:12Z</time>
      </trkpt>
      <trkpt lat="44.1546" lon="5.01916">
        <ele>557.3</ele>
        <time>2020-09-08T10:13:13Z</time>
      </trkpt>
      <trkpt lat="44.1546" lon="5.01916">
        <ele>557.3</ele>
        <time>2020-09-08T10:13:14Z</time>
      </trkpt>
      <trkpt lat="44.1546" lon="5.01916">
        <ele>557.3</ele>
        <time>2020-09-08T10:13:15Z</time>
      </trkpt>
      <trkpt lat="44.1546" lon="5.01916">
        <ele>557.3</ele>
        <time>2020-09-08T10:13:16Z</time>
      </trkpt>
      <trkpt lat="44.15461" lon="5.01916">
        <ele>557.3</ele>
        <time>2020-09-08T10:13:17Z</time>
      </trkpt>
      <trkpt lat="44.15461" lon="5.01916">
        <ele>557.3</ele>
        <time>2020-09-08T10:13:18Z</time>
      </trkpt>
      <trkpt lat="44.15461" lon="5.01916">
        <ele>557.3</ele>
        <time>2020-09-08T10:13:19Z</time>
      </trkpt>
      <trkpt lat="44.15461" lon="5.01916">
        <ele>557.3</ele>
        <time>2020-09-08T10:13:20Z</time>
      </trkpt>
      <trkpt lat="44.15461" lon="5.01916">
        <ele>557.3</ele>
        <time>2020-09-08T10:13:21Z</time>
      </trkpt>
      <trkpt lat="44.15461" lon="5.01916">
        <ele>557.3</ele>
        <time>2020-09-08T10:13:22Z</time>
      </trkpt>
      <trkpt lat="44.15461" lon="5.01916">
        <ele>557.3</ele>
        <time>2020-09-08T10:13:23Z</time>
      </trkpt>
      <trkpt lat="44.15461" lon="5.01916">
        <ele>557.3</ele>
        <time>2020-09-08T10:13:24Z</time>
      </trkpt>
      <trkpt lat="44.15461" lon="5.01916">
        <ele>557.3</ele>
        <time>2020-09-08T10:13:25Z</time>
      </trkpt>
      <trkpt lat="44.15461" lon="5.01916">
        <ele>557.3</ele>
        <time>2020-09-08T10:13:26Z</time>
      </trkpt>
      <trkpt lat="44.15461" lon="5.01916">
        <ele>557.4</ele>
        <time>2020-09-08T10:13:27Z</time>
      </trkpt>
      <trkpt lat="44.15461" lon="5.01916">
        <ele>557.4</ele>
        <time>2020-09-08T10:13:28Z</time>
      </trkpt>
      <trkpt lat="44.15461" lon="5.01916">
        <ele>557.4</ele>
        <time>2020-09-08T10:13:29Z</time>
      </trkpt>
      <trkpt lat="44.15461" lon="5.01916">
        <ele>557.4</ele>
        <time>2020-09-08T10:13:30Z</time>
      </trkpt>
      <trkpt lat="44.15461" lon="5.01916">
        <ele>557.4</ele>
        <time>2020-09-08T10:13:31Z</time>
      </trkpt>
      <trkpt lat="44.15461" lon="5.01916">
        <ele>557.4</ele>
        <time>2020-09-08T10:13:32Z</time>
      </trkpt>
      <trkpt lat="44.15461" lon="5.01916">
        <ele>557.4</ele>
        <time>2020-09-08T10:13:33Z</time>
      </trkpt>
      <trkpt lat="44.15461" lon="5.01916">
        <ele>557.4</ele>
        <time>2020-09-08T10:13:34Z</time>
      </trkpt>
      <trkpt lat="44.15461" lon="5.01916">
        <ele>557.4</ele>
        <time>2020-09-08T10:13:35Z</time>
      </trkpt>
      <trkpt lat="44.15461" lon="5.01916">
        <ele>557.4</ele>
        <time>2020-09-08T10:13:36Z</time>
      </trkpt>
      <trkpt lat="44.15461" lon="5.01916">
        <ele>557.4</ele>
        <time>2020-09-08T10:13:37Z</time>
      </trkpt>
      <trkpt lat="44.15461" lon="5.01916">
        <ele>557.4</ele>
        <time>2020-09-08T10:13:38Z</time>
      </trkpt>
      <trkpt lat="44.15462" lon="5.01916">
        <ele>557.4</ele>
        <time>2020-09-08T10:13:39Z</time>
      </trkpt>
      <trkpt lat="44.15462" lon="5.01916">
        <ele>557.4</ele>
        <time>2020-09-08T10:13:40Z</time>
      </trkpt>
      <trkpt lat="44.15462" lon="5.01916">
        <ele>557.4</ele>
        <time>2020-09-08T10:13:41Z</time>
      </trkpt>
      <trkpt lat="44.15462" lon="5.01917">
        <ele>557.4</ele>
        <time>2020-09-08T10:13:42Z</time>
      </trkpt>
      <trkpt lat="44.15462" lon="5.01917">
        <ele>557.5</ele>
        <time>2020-09-08T10:13:43Z</time>
      </trkpt>
      <trkpt lat="44.15462" lon="5.01917">
        <ele>557.5</ele>
        <time>2020-09-08T10:13:44Z</time>
      </trkpt>
      <trkpt lat="44.15462" lon="5.01917">
        <ele>557.5</ele>
        <time>2020-09-08T10:13:45Z</time>
      </trkpt>
      <trkpt lat="44.15462" lon="5.01917">
        <ele>557.5</ele>
        <time>2020-09-08T10:13:46Z</time>
      </trkpt>
      <trkpt lat="44.15462" lon="5.01917">
        <ele>557.5</ele>
        <time>2020-09-08T10:13:47Z</time>
      </trkpt>
      <trkpt lat="44.15462" lon="5.01917">
        <ele>557.5</ele>
        <time>2020-09-08T10:13:48Z</time>
      </trkpt>
      <trkpt lat="44.15462" lon="5.01917">
        <ele>557.5</ele>
        <time>2020-09-08T10:13:49Z</time>
      </trkpt>
      <trkpt lat="44.15462" lon="5.01917">
        <ele>557.5</ele>
        <time>2020-09-08T10:13:50Z</time>
      </trkpt>
      <trkpt lat="44.15462" lon="5.01917">
        <ele>557.5</ele>
        <time>2020-09-08T10:13:51Z</time>
      </trkpt>
      <trkpt lat="44.15462" lon="5.01917">
        <ele>557.5</ele>
        <time>2020-09-08T10:13:52Z</time>
      </trkpt>
      <trkpt lat="44.15462" lon="5.01917">
        <ele>557.5</ele>
        <time>2020-09-08T10:13:53Z</time>
      </trkpt>
      <trkpt lat="44.15462" lon="5.01917">
        <ele>557.5</ele>
        <time>2020-09-08T10:13:54Z</time>
      </trkpt>
      <trkpt lat="44.15462" lon="5.01917">
        <ele>557.5</ele>
        <time>2020-09-08T10:13:55Z</time>
      </trkpt>
      <trkpt lat="44.15462" lon="5.01917">
        <ele>557.5</ele>
        <time>2020-09-08T10:13:56Z</time>
      </trkpt>
      <trkpt lat="44.15462" lon="5.01917">
        <ele>557.5</ele>
        <time>2020-09-08T10:13:57Z</time>
      </trkpt>
      <trkpt lat="44.15462" lon="5.01917">
        <ele>557.5</ele>
        <time>2020-09-08T10:13:58Z</time>
      </trkpt>
      <trkpt lat="44.15462" lon="5.01917">
        <ele>557.5</ele>
        <time>2020-09-08T10:13:59Z</time>
      </trkpt>
      <trkpt lat="44.15463" lon="5.01917">
        <ele>557.6</ele>
        <time>2020-09-08T10:14:00Z</time>
      </trkpt>
      <trkpt lat="44.15463" lon="5.01917">
        <ele>557.6</ele>
        <time>2020-09-08T10:14:01Z</time>
      </trkpt>
      <trkpt lat="44.15463" lon="5.01917">
        <ele>557.6</ele>
        <time>2020-09-08T10:14:02Z</time>
      </trkpt>
      <trkpt lat="44.15463" lon="5.01917">
        <ele>557.6</ele>
        <time>2020-09-08T10:14:03Z</time>
      </trkpt>
      <trkpt lat="44.15464" lon="5.01918">
        <ele>557.7</ele>
        <time>2020-09-08T10:14:04Z</time>
      </trkpt>
      <trkpt lat="44.15464" lon="5.01919">
        <ele>557.8</ele>
        <time>2020-09-08T10:14:05Z</time>
      </trkpt>
      <trkpt lat="44.15465" lon="5.01921">
        <ele>558</ele>
        <time>2020-09-08T10:14:06Z</time>
      </trkpt>
      <trkpt lat="44.15464" lon="5.01922">
        <ele>558.1</ele>
        <time>2020-09-08T10:14:07Z</time>
      </trkpt>
      <trkpt lat="44.15464" lon="5.01924">
        <ele>558.2</ele>
        <time>2020-09-08T10:14:08Z</time>
      </trkpt>
      <trkpt lat="44.15464" lon="5.01924">
        <ele>558.2</ele>
        <time>2020-09-08T10:14:09Z</time>
      </trkpt>
      <trkpt lat="44.15465" lon="5.01924">
        <ele>558.3</ele>
        <time>2020-09-08T10:14:10Z</time>
      </trkpt>
      <trkpt lat="44.15465" lon="5.01925">
        <ele>558.4</ele>
        <time>2020-09-08T10:14:11Z</time>
      </trkpt>
      <trkpt lat="44.15465" lon="5.01926">
        <ele>558.4</ele>
        <time>2020-09-08T10:14:12Z</time>
      </trkpt>
      <trkpt lat="44.15465" lon="5.01926">
        <ele>558.4</ele>
        <time>2020-09-08T10:14:13Z</time>
      </trkpt>
      <trkpt lat="44.15465" lon="5.01927">
        <ele>558.5</ele>
        <time>2020-09-08T10:14:14Z</time>
      </trkpt>
      <trkpt lat="44.15466" lon="5.01928">
        <ele>558.6</ele>
        <time>2020-09-08T10:14:15Z</time>
      </trkpt>
      <trkpt lat="44.15466" lon="5.01929">
        <ele>558.7</ele>
        <time>2020-09-08T10:14:16Z</time>
      </trkpt>
      <trkpt lat="44.15466" lon="5.0193">
        <ele>558.8</ele>
        <time>2020-09-08T10:14:17Z</time>
      </trkpt>
      <trkpt lat="44.15466" lon="5.01932">
        <ele>558.9</ele>
        <time>2020-09-08T10:14:18Z</time>
      </trkpt>
      <trkpt lat="44.15466" lon="5.01933">
        <ele>559</ele>
        <time>2020-09-08T10:14:19Z</time>
      </trkpt>
      <trkpt lat="44.15466" lon="5.01934">
        <ele>559.1</ele>
        <time>2020-09-08T10:14:20Z</time>
      </trkpt>
      <trkpt lat="44.15466" lon="5.01934">
        <ele>559.1</ele>
        <time>2020-09-08T10:14:21Z</time>
      </trkpt>
      <trkpt lat="44.15466" lon="5.01933">
        <ele>559.2</ele>
        <time>2020-09-08T10:14:22Z</time>
      </trkpt>
      <trkpt lat="44.15465" lon="5.01933">
        <ele>559.2</ele>
        <time>2020-09-08T10:14:23Z</time>
      </trkpt>
      <trkpt lat="44.15466" lon="5.01933">
        <ele>559.3</ele>
        <time>2020-09-08T10:14:24Z</time>
      </trkpt>
      <trkpt lat="44.15467" lon="5.01934">
        <ele>559.3</ele>
        <time>2020-09-08T10:14:25Z</time>
      </trkpt>
      <trkpt lat="44.15467" lon="5.01934">
        <ele>559.3</ele>
        <time>2020-09-08T10:14:26Z</time>
      </trkpt>
      <trkpt lat="44.15467" lon="5.01934">
        <ele>559.3</ele>
        <time>2020-09-08T10:14:27Z</time>
      </trkpt>
      <trkpt lat="44.15466" lon="5.01933">
        <ele>559.4</ele>
        <time>2020-09-08T10:14:28Z</time>
      </trkpt>
      <trkpt lat="44.15466" lon="5.01933">
        <ele>559.4</ele>
        <time>2020-09-08T10:14:29Z</time>
      </trkpt>
      <trkpt lat="44.15466" lon="5.01934">
        <ele>559.4</ele>
        <time>2020-09-08T10:14:30Z</time>
      </trkpt>
      <trkpt lat="44.15466" lon="5.01934">
        <ele>559.5</ele>
        <time>2020-09-08T10:14:31Z</time>
      </trkpt>
      <trkpt lat="44.15466" lon="5.01934">
        <ele>559.5</ele>
        <time>2020-09-08T10:14:32Z</time>
      </trkpt>
      <trkpt lat="44.15467" lon="5.01935">
        <ele>559.6</ele>
        <time>2020-09-08T10:14:33Z</time>
      </trkpt>
      <trkpt lat="44.15467" lon="5.01937">
        <ele>559.7</ele>
        <time>2020-09-08T10:14:34Z</time>
      </trkpt>
      <trkpt lat="44.15468" lon="5.01937">
        <ele>559.7</ele>
        <time>2020-09-08T10:14:35Z</time>
      </trkpt>
      <trkpt lat="44.15468" lon="5.01937">
        <ele>559.8</ele>
        <time>2020-09-08T10:14:36Z</time>
      </trkpt>
      <trkpt lat="44.15469" lon="5.0194">
        <ele>559.9</ele>
        <time>2020-09-08T10:14:37Z</time>
      </trkpt>
      <trkpt lat="44.15468" lon="5.0194">
        <ele>560</ele>
        <time>2020-09-08T10:14:38Z</time>
      </trkpt>
      <trkpt lat="44.15468" lon="5.01941">
        <ele>560</ele>
        <time>2020-09-08T10:14:39Z</time>
      </trkpt>
      <trkpt lat="44.15469" lon="5.01942">
        <ele>560.1</ele>
        <time>2020-09-08T10:14:40Z</time>
      </trkpt>
      <trkpt lat="44.15469" lon="5.01943">
        <ele>560.1</ele>
        <time>2020-09-08T10:14:41Z</time>
      </trkpt>
      <trkpt lat="44.1547" lon="5.01944">
        <ele>560.2</ele>
        <time>2020-09-08T10:14:42Z</time>
      </trkpt>
      <trkpt lat="44.1547" lon="5.01945">
        <ele>560.2</ele>
        <time>2020-09-08T10:14:43Z</time>
      </trkpt>
      <trkpt lat="44.1547" lon="5.01946">
        <ele>560.3</ele>
        <time>2020-09-08T10:14:44Z</time>
      </trkpt>
      <trkpt lat="44.1547" lon="5.01948">
        <ele>560.4</ele>
        <time>2020-09-08T10:14:45Z</time>
      </trkpt>
      <trkpt lat="44.1547" lon="5.01948">
        <ele>560.4</ele>
        <time>2020-09-08T10:14:46Z</time>
      </trkpt>
      <trkpt lat="44.1547" lon="5.01948">
        <ele>560.4</ele>
        <time>2020-09-08T10:14:47Z</time>
      </trkpt>
      <trkpt lat="44.15471" lon="5.01949">
        <ele>560.4</ele>
        <time>2020-09-08T10:14:48Z</time>
      </trkpt>
      <trkpt lat="44.15471" lon="5.01949">
        <ele>560.4</ele>
        <time>2020-09-08T10:14:49Z</time>
      </trkpt>
      <trkpt lat="44.15472" lon="5.01949">
        <ele>560.5</ele>
        <time>2020-09-08T10:14:50Z</time>
      </trkpt>
      <trkpt lat="44.15472" lon="5.01949">
        <ele>560.5</ele>
        <time>2020-09-08T10:14:52Z</time>
      </trkpt>
      <trkpt lat="44.15473" lon="5.0195">
        <ele>560.6</ele>
        <time>2020-09-08T10:14:53Z</time>
      </trkpt>
      <trkpt lat="44.15473" lon="5.0195">
        <ele>560.6</ele>
        <time>2020-09-08T10:14:55Z</time>
      </trkpt>
      <trkpt lat="44.15473" lon="5.01952">
        <ele>560.6</ele>
        <time>2020-09-08T10:14:56Z</time>
      </trkpt>
      <trkpt lat="44.15473" lon="5.01953">
        <ele>560.7</ele>
        <time>2020-09-08T10:14:57Z</time>
      </trkpt>
      <trkpt lat="44.15472" lon="5.01956">
        <ele>560.8</ele>
        <time>2020-09-08T10:14:58Z</time>
      </trkpt>
      <trkpt lat="44.15472" lon="5.01957">
        <ele>560.8</ele>
        <time>2020-09-08T10:14:59Z</time>
      </trkpt>
      <trkpt lat="44.15472" lon="5.01957">
        <ele>560.8</ele>
        <time>2020-09-08T10:15:00Z</time>
      </trkpt>
      <trkpt lat="44.15471" lon="5.01958">
        <ele>560.8</ele>
        <time>2020-09-08T10:15:01Z</time>
      </trkpt>
      <trkpt lat="44.1547" lon="5.01957">
        <ele>560.9</ele>
        <time>2020-09-08T10:15:02Z</time>
      </trkpt>
      <trkpt lat="44.15469" lon="5.01957">
        <ele>560.9</ele>
        <time>2020-09-08T10:15:03Z</time>
      </trkpt>
      <trkpt lat="44.15469" lon="5.01956">
        <ele>560.9</ele>
        <time>2020-09-08T10:15:04Z</time>
      </trkpt>
      <trkpt lat="44.15469" lon="5.01956">
        <ele>560.9</ele>
        <time>2020-09-08T10:15:05Z</time>
      </trkpt>
      <trkpt lat="44.15469" lon="5.01957">
        <ele>560.9</ele>
        <time>2020-09-08T10:15:06Z</time>
      </trkpt>
      <trkpt lat="44.15469" lon="5.01957">
        <ele>560.9</ele>
        <time>2020-09-08T10:15:07Z</time>
      </trkpt>
      <trkpt lat="44.15469" lon="5.01957">
        <ele>560.9</ele>
        <time>2020-09-08T10:15:08Z</time>
      </trkpt>
      <trkpt lat="44.15469" lon="5.01956">
        <ele>560.9</ele>
        <time>2020-09-08T10:15:09Z</time>
      </trkpt>
      <trkpt lat="44.15469" lon="5.01956">
        <ele>560.9</ele>
        <time>2020-09-08T10:15:10Z</time>
      </trkpt>
      <trkpt lat="44.15469" lon="5.01956">
        <ele>560.9</ele>
        <time>2020-09-08T10:15:11Z</time>
      </trkpt>
      <trkpt lat="44.15469" lon="5.01956">
        <ele>560.9</ele>
        <time>2020-09-08T10:15:12Z</time>
      </trkpt>
      <trkpt lat="44.15469" lon="5.01957">
        <ele>560.9</ele>
        <time>2020-09-08T10:15:13Z</time>
      </trkpt>
      <trkpt lat="44.15469" lon="5.01957">
        <ele>561</ele>
        <time>2020-09-08T10:15:14Z</time>
      </trkpt>
      <trkpt lat="44.15469" lon="5.01957">
        <ele>561</ele>
        <time>2020-09-08T10:15:15Z</time>
      </trkpt>
      <trkpt lat="44.15469" lon="5.01958">
        <ele>561</ele>
        <time>2020-09-08T10:15:16Z</time>
      </trkpt>
      <trkpt lat="44.15469" lon="5.01958">
        <ele>561</ele>
        <time>2020-09-08T10:15:17Z</time>
      </trkpt>
      <trkpt lat="44.15469" lon="5.01958">
        <ele>561</ele>
        <time>2020-09-08T10:15:18Z</time>
      </trkpt>
      <trkpt lat="44.15469" lon="5.01958">
        <ele>561</ele>
        <time>2020-09-08T10:15:19Z</time>
      </trkpt>
      <trkpt lat="44.15468" lon="5.01958">
        <ele>561</ele>
        <time>2020-09-08T10:15:20Z</time>
      </trkpt>
      <trkpt lat="44.15468" lon="5.01958">
        <ele>561</ele>
        <time>2020-09-08T10:15:21Z</time>
      </trkpt>
      <trkpt lat="44.15469" lon="5.01958">
        <ele>561</ele>
        <time>2020-09-08T10:15:22Z</time>
      </trkpt>
      <trkpt lat="44.15469" lon="5.01958">
        <ele>561</ele>
        <time>2020-09-08T10:15:23Z</time>
      </trkpt>
      <trkpt lat="44.15469" lon="5.01958">
        <ele>561</ele>
        <time>2020-09-08T10:15:24Z</time>
      </trkpt>
      <trkpt lat="44.15469" lon="5.01958">
        <ele>561</ele>
        <time>2020-09-08T10:15:25Z</time>
      </trkpt>
      <trkpt lat="44.1547" lon="5.01958">
        <ele>561</ele>
        <time>2020-09-08T10:15:26Z</time>
      </trkpt>
      <trkpt lat="44.1547" lon="5.01958">
        <ele>561</ele>
        <time>2020-09-08T10:15:27Z</time>
      </trkpt>
      <trkpt lat="44.1547" lon="5.01958">
        <ele>561</ele>
        <time>2020-09-08T10:15:28Z</time>
      </trkpt>
      <trkpt lat="44.1547" lon="5.01958">
        <ele>561</ele>
        <time>2020-09-08T10:15:29Z</time>
      </trkpt>
      <trkpt lat="44.15469" lon="5.01958">
        <ele>561</ele>
        <time>2020-09-08T10:15:30Z</time>
      </trkpt>
      <trkpt lat="44.15469" lon="5.01958">
        <ele>561</ele>
        <time>2020-09-08T10:15:31Z</time>
      </trkpt>
      <trkpt lat="44.15469" lon="5.01957">
        <ele>561</ele>
        <time>2020-09-08T10:15:32Z</time>
      </trkpt>
      <trkpt lat="44.15469" lon="5.01957">
        <ele>561</ele>
        <time>2020-09-08T10:15:33Z</time>
      </trkpt>
      <trkpt lat="44.15469" lon="5.01957">
        <ele>561</ele>
        <time>2020-09-08T10:15:34Z</time>
      </trkpt>
      <trkpt lat="44.15469" lon="5.01957">
        <ele>561</ele>
        <time>2020-09-08T10:15:35Z</time>
      </trkpt>
      <trkpt lat="44.15469" lon="5.01956">
        <ele>561</ele>
        <time>2020-09-08T10:15:36Z</time>
      </trkpt>
      <trkpt lat="44.15469" lon="5.01956">
        <ele>561</ele>
        <time>2020-09-08T10:15:37Z</time>
      </trkpt>
      <trkpt lat="44.15469" lon="5.01956">
        <ele>561</ele>
        <time>2020-09-08T10:15:38Z</time>
      </trkpt>
      <trkpt lat="44.1547" lon="5.01956">
        <ele>561</ele>
        <time>2020-09-08T10:15:39Z</time>
      </trkpt>
      <trkpt lat="44.1547" lon="5.01956">
        <ele>561</ele>
        <time>2020-09-08T10:15:40Z</time>
      </trkpt>
      <trkpt lat="44.1547" lon="5.01955">
        <ele>561</ele>
        <time>2020-09-08T10:15:41Z</time>
      </trkpt>
      <trkpt lat="44.1547" lon="5.01955">
        <ele>561</ele>
        <time>2020-09-08T10:15:42Z</time>
      </trkpt>
      <trkpt lat="44.1547" lon="5.01955">
        <ele>561</ele>
        <time>2020-09-08T10:15:43Z</time>
      </trkpt>
      <trkpt lat="44.1547" lon="5.01955">
        <ele>561</ele>
        <time>2020-09-08T10:15:44Z</time>
      </trkpt>
      <trkpt lat="44.1547" lon="5.01956">
        <ele>561</ele>
        <time>2020-09-08T10:15:45Z</time>
      </trkpt>
      <trkpt lat="44.1547" lon="5.01957">
        <ele>561</ele>
        <time>2020-09-08T10:15:46Z</time>
      </trkpt>
      <trkpt lat="44.15471" lon="5.01957">
        <ele>561</ele>
        <time>2020-09-08T10:15:47Z</time>
      </trkpt>
      <trkpt lat="44.15471" lon="5.01958">
        <ele>561</ele>
        <time>2020-09-08T10:15:48Z</time>
      </trkpt>
      <trkpt lat="44.15471" lon="5.01957">
        <ele>561</ele>
        <time>2020-09-08T10:15:49Z</time>
      </trkpt>
      <trkpt lat="44.15471" lon="5.01958">
        <ele>561</ele>
        <time>2020-09-08T10:15:50Z</time>
      </trkpt>
      <trkpt lat="44.15471" lon="5.01958">
        <ele>561</ele>
        <time>2020-09-08T10:15:51Z</time>
      </trkpt>
      <trkpt lat="44.15471" lon="5.01958">
        <ele>561</ele>
        <time>2020-09-08T10:15:52Z</time>
      </trkpt>
      <trkpt lat="44.15471" lon="5.01958">
        <ele>561</ele>
        <time>2020-09-08T10:15:53Z</time>
      </trkpt>
      <trkpt lat="44.15471" lon="5.01959">
        <ele>561</ele>
        <time>2020-09-08T10:15:54Z</time>
      </trkpt>
      <trkpt lat="44.15471" lon="5.01959">
        <ele>561</ele>
        <time>2020-09-08T10:15:55Z</time>
      </trkpt>
      <trkpt lat="44.15471" lon="5.01959">
        <ele>561</ele>
        <time>2020-09-08T10:15:56Z</time>
      </trkpt>
      <trkpt lat="44.15472" lon="5.0196">
        <ele>561</ele>
        <time>2020-09-08T10:15:57Z</time>
      </trkpt>
      <trkpt lat="44.15472" lon="5.0196">
        <ele>561</ele>
        <time>2020-09-08T10:15:58Z</time>
      </trkpt>
      <trkpt lat="44.15472" lon="5.0196">
        <ele>561</ele>
        <time>2020-09-08T10:15:59Z</time>
      </trkpt>
      <trkpt lat="44.15471" lon="5.0196">
        <ele>561</ele>
        <time>2020-09-08T10:16:00Z</time>
      </trkpt>
      <trkpt lat="44.15471" lon="5.0196">
        <ele>561</ele>
        <time>2020-09-08T10:16:01Z</time>
      </trkpt>
      <trkpt lat="44.15471" lon="5.0196">
        <ele>561</ele>
        <time>2020-09-08T10:16:02Z</time>
      </trkpt>
      <trkpt lat="44.15471" lon="5.01959">
        <ele>561</ele>
        <time>2020-09-08T10:16:03Z</time>
      </trkpt>
      <trkpt lat="44.15471" lon="5.0196">
        <ele>561</ele>
        <time>2020-09-08T10:16:04Z</time>
      </trkpt>
      <trkpt lat="44.15471" lon="5.0196">
        <ele>561</ele>
        <time>2020-09-08T10:16:05Z</time>
      </trkpt>
      <trkpt lat="44.15471" lon="5.0196">
        <ele>561</ele>
        <time>2020-09-08T10:16:06Z</time>
      </trkpt>
      <trkpt lat="44.15471" lon="5.01959">
        <ele>561</ele>
        <time>2020-09-08T10:16:07Z</time>
      </trkpt>
      <trkpt lat="44.15471" lon="5.01959">
        <ele>561</ele>
        <time>2020-09-08T10:16:08Z</time>
      </trkpt>
      <trkpt lat="44.15471" lon="5.01959">
        <ele>561</ele>
        <time>2020-09-08T10:16:09Z</time>
      </trkpt>
      <trkpt lat="44.1547" lon="5.01959">
        <ele>561</ele>
        <time>2020-09-08T10:16:10Z</time>
      </trkpt>
      <trkpt lat="44.15471" lon="5.01959">
        <ele>561</ele>
        <time>2020-09-08T10:16:11Z</time>
      </trkpt>
      <trkpt lat="44.15471" lon="5.01959">
        <ele>561</ele>
        <time>2020-09-08T10:16:12Z</time>
      </trkpt>
      <trkpt lat="44.15471" lon="5.01959">
        <ele>561</ele>
        <time>2020-09-08T10:16:13Z</time>
      </trkpt>
      <trkpt lat="44.15471" lon="5.0196">
        <ele>561</ele>
        <time>2020-09-08T10:16:14Z</time>
      </trkpt>
      <trkpt lat="44.15471" lon="5.0196">
        <ele>561</ele>
        <time>2020-09-08T10:16:15Z</time>
      </trkpt>
      <trkpt lat="44.15471" lon="5.01963">
        <ele>561</ele>
        <time>2020-09-08T10:16:16Z</time>
      </trkpt>
      <trkpt lat="44.1547" lon="5.01963">
        <ele>561</ele>
        <time>2020-09-08T10:16:17Z</time>
      </trkpt>
      <trkpt lat="44.1547" lon="5.01965">
        <ele>560.9</ele>
        <time>2020-09-08T10:16:18Z</time>
      </trkpt>
      <trkpt lat="44.1547" lon="5.01966">
        <ele>560.9</ele>
        <time>2020-09-08T10:16:19Z</time>
      </trkpt>
      <trkpt lat="44.15471" lon="5.01968">
        <ele>560.9</ele>
        <time>2020-09-08T10:16:20Z</time>
      </trkpt>
      <trkpt lat="44.15471" lon="5.01969">
        <ele>560.9</ele>
        <time>2020-09-08T10:16:21Z</time>
      </trkpt>
      <trkpt lat="44.15471" lon="5.0197">
        <ele>560.8</ele>
        <time>2020-09-08T10:16:22Z</time>
      </trkpt>
      <trkpt lat="44.15471" lon="5.0197">
        <ele>560.8</ele>
        <time>2020-09-08T10:16:23Z</time>
      </trkpt>
      <trkpt lat="44.15471" lon="5.01971">
        <ele>560.8</ele>
        <time>2020-09-08T10:16:24Z</time>
      </trkpt>
      <trkpt lat="44.15471" lon="5.01972">
        <ele>560.8</ele>
        <time>2020-09-08T10:16:25Z</time>
      </trkpt>
      <trkpt lat="44.15471" lon="5.01972">
        <ele>560.8</ele>
        <time>2020-09-08T10:16:26Z</time>
      </trkpt>
      <trkpt lat="44.15471" lon="5.01972">
        <ele>560.8</ele>
        <time>2020-09-08T10:16:27Z</time>
      </trkpt>
      <trkpt lat="44.15472" lon="5.01971">
        <ele>560.8</ele>
        <time>2020-09-08T10:16:28Z</time>
      </trkpt>
      <trkpt lat="44.1547" lon="5.01971">
        <ele>560.7</ele>
        <time>2020-09-08T10:16:29Z</time>
      </trkpt>
      <trkpt lat="44.1547" lon="5.01971">
        <ele>560.7</ele>
        <time>2020-09-08T10:16:30Z</time>
      </trkpt>
      <trkpt lat="44.15469" lon="5.01972">
        <ele>560.7</ele>
        <time>2020-09-08T10:16:31Z</time>
      </trkpt>
      <trkpt lat="44.15469" lon="5.01971">
        <ele>560.7</ele>
        <time>2020-09-08T10:16:32Z</time>
      </trkpt>
      <trkpt lat="44.1547" lon="5.01971">
        <ele>560.7</ele>
        <time>2020-09-08T10:16:33Z</time>
      </trkpt>
      <trkpt lat="44.1547" lon="5.0197">
        <ele>560.6</ele>
        <time>2020-09-08T10:16:34Z</time>
      </trkpt>
      <trkpt lat="44.1547" lon="5.0197">
        <ele>560.6</ele>
        <time>2020-09-08T10:16:35Z</time>
      </trkpt>
      <trkpt lat="44.1547" lon="5.0197">
        <ele>560.6</ele>
        <time>2020-09-08T10:16:36Z</time>
      </trkpt>
      <trkpt lat="44.15471" lon="5.0197">
        <ele>560.6</ele>
        <time>2020-09-08T10:16:37Z</time>
      </trkpt>
      <trkpt lat="44.15471" lon="5.0197">
        <ele>560.6</ele>
        <time>2020-09-08T10:16:38Z</time>
      </trkpt>
      <trkpt lat="44.1547" lon="5.01969">
        <ele>560.6</ele>
        <time>2020-09-08T10:16:39Z</time>
      </trkpt>
      <trkpt lat="44.1547" lon="5.01969">
        <ele>560.6</ele>
        <time>2020-09-08T10:16:40Z</time>
      </trkpt>
      <trkpt lat="44.15471" lon="5.01968">
        <ele>560.5</ele>
        <time>2020-09-08T10:16:41Z</time>
      </trkpt>
      <trkpt lat="44.15472" lon="5.01968">
        <ele>560.5</ele>
        <time>2020-09-08T10:16:42Z</time>
      </trkpt>
      <trkpt lat="44.15473" lon="5.01968">
        <ele>560.5</ele>
        <time>2020-09-08T10:16:43Z</time>
      </trkpt>
      <trkpt lat="44.15473" lon="5.01969">
        <ele>560.4</ele>
        <time>2020-09-08T10:16:44Z</time>
      </trkpt>
      <trkpt lat="44.15473" lon="5.01969">
        <ele>560.4</ele>
        <time>2020-09-08T10:16:45Z</time>
      </trkpt>
      <trkpt lat="44.15474" lon="5.0197">
        <ele>560.4</ele>
        <time>2020-09-08T10:16:46Z</time>
      </trkpt>
      <trkpt lat="44.15474" lon="5.01972">
        <ele>560.3</ele>
        <time>2020-09-08T10:16:47Z</time>
      </trkpt>
      <trkpt lat="44.15475" lon="5.01973">
        <ele>560.3</ele>
        <time>2020-09-08T10:16:48Z</time>
      </trkpt>
      <trkpt lat="44.15474" lon="5.01973">
        <ele>560.3</ele>
        <time>2020-09-08T10:16:49Z</time>
      </trkpt>
      <trkpt lat="44.15474" lon="5.01973">
        <ele>560.3</ele>
        <time>2020-09-08T10:16:50Z</time>
      </trkpt>
      <trkpt lat="44.15473" lon="5.01973">
        <ele>560.3</ele>
        <time>2020-09-08T10:16:51Z</time>
      </trkpt>
      <trkpt lat="44.15473" lon="5.01975">
        <ele>560.2</ele>
        <time>2020-09-08T10:16:52Z</time>
      </trkpt>
      <trkpt lat="44.15474" lon="5.01974">
        <ele>560.2</ele>
        <time>2020-09-08T10:16:53Z</time>
      </trkpt>
      <trkpt lat="44.15473" lon="5.01975">
        <ele>560.2</ele>
        <time>2020-09-08T10:16:54Z</time>
      </trkpt>
      <trkpt lat="44.15473" lon="5.01976">
        <ele>560.2</ele>
        <time>2020-09-08T10:16:55Z</time>
      </trkpt>
      <trkpt lat="44.15473" lon="5.01975">
        <ele>560.1</ele>
        <time>2020-09-08T10:16:56Z</time>
      </trkpt>
      <trkpt lat="44.15474" lon="5.01976">
        <ele>560.1</ele>
        <time>2020-09-08T10:16:57Z</time>
      </trkpt>
      <trkpt lat="44.15475" lon="5.01976">
        <ele>560.1</ele>
        <time>2020-09-08T10:16:58Z</time>
      </trkpt>
      <trkpt lat="44.15476" lon="5.01976">
        <ele>560</ele>
        <time>2020-09-08T10:16:59Z</time>
      </trkpt>
      <trkpt lat="44.15476" lon="5.01976">
        <ele>560</ele>
        <time>2020-09-08T10:17:00Z</time>
      </trkpt>
      <trkpt lat="44.15476" lon="5.01976">
        <ele>560</ele>
        <time>2020-09-08T10:17:01Z</time>
      </trkpt>
      <trkpt lat="44.15478" lon="5.01976">
        <ele>560</ele>
        <time>2020-09-08T10:17:02Z</time>
      </trkpt>
      <trkpt lat="44.15479" lon="5.01977">
        <ele>559.9</ele>
        <time>2020-09-08T10:17:03Z</time>
      </trkpt>
      <trkpt lat="44.15479" lon="5.01978">
        <ele>559.9</ele>
        <time>2020-09-08T10:17:04Z</time>
      </trkpt>
      <trkpt lat="44.15479" lon="5.01977">
        <ele>559.9</ele>
        <time>2020-09-08T10:17:05Z</time>
      </trkpt>
      <trkpt lat="44.15479" lon="5.01977">
        <ele>559.9</ele>
        <time>2020-09-08T10:17:06Z</time>
      </trkpt>
      <trkpt lat="44.15479" lon="5.01978">
        <ele>559.9</ele>
        <time>2020-09-08T10:17:07Z</time>
      </trkpt>
      <trkpt lat="44.15477" lon="5.01979">
        <ele>559.8</ele>
        <time>2020-09-08T10:17:08Z</time>
      </trkpt>
      <trkpt lat="44.15477" lon="5.01979">
        <ele>559.8</ele>
        <time>2020-09-08T10:17:09Z</time>
      </trkpt>
      <trkpt lat="44.15478" lon="5.01979">
        <ele>559.8</ele>
        <time>2020-09-08T10:17:10Z</time>
      </trkpt>
      <trkpt lat="44.15479" lon="5.01978">
        <ele>559.8</ele>
        <time>2020-09-08T10:17:11Z</time>
      </trkpt>
      <trkpt lat="44.15479" lon="5.01978">
        <ele>559.8</ele>
        <time>2020-09-08T10:17:12Z</time>
      </trkpt>
      <trkpt lat="44.15479" lon="5.01978">
        <ele>559.8</ele>
        <time>2020-09-08T10:17:13Z</time>
      </trkpt>
      <trkpt lat="44.15479" lon="5.01978">
        <ele>559.8</ele>
        <time>2020-09-08T10:17:14Z</time>
      </trkpt>
      <trkpt lat="44.15479" lon="5.01978">
        <ele>559.8</ele>
        <time>2020-09-08T10:17:15Z</time>
      </trkpt>
      <trkpt lat="44.15479" lon="5.01978">
        <ele>559.8</ele>
        <time>2020-09-08T10:17:16Z</time>
      </trkpt>
      <trkpt lat="44.15479" lon="5.01978">
        <ele>559.8</ele>
        <time>2020-09-08T10:17:17Z</time>
      </trkpt>
      <trkpt lat="44.15478" lon="5.01978">
        <ele>559.8</ele>
        <time>2020-09-08T10:17:18Z</time>
      </trkpt>
      <trkpt lat="44.15479" lon="5.01978">
        <ele>559.7</ele>
        <time>2020-09-08T10:17:19Z</time>
      </trkpt>
      <trkpt lat="44.15479" lon="5.01977">
        <ele>559.7</ele>
        <time>2020-09-08T10:17:20Z</time>
      </trkpt>
      <trkpt lat="44.15479" lon="5.01977">
        <ele>559.7</ele>
        <time>2020-09-08T10:17:21Z</time>
      </trkpt>
      <trkpt lat="44.15478" lon="5.01978">
        <ele>559.7</ele>
        <time>2020-09-08T10:17:22Z</time>
      </trkpt>
      <trkpt lat="44.15478" lon="5.01978">
        <ele>559.7</ele>
        <time>2020-09-08T10:17:23Z</time>
      </trkpt>
      <trkpt lat="44.15479" lon="5.01978">
        <ele>559.7</ele>
        <time>2020-09-08T10:17:24Z</time>
      </trkpt>
      <trkpt lat="44.15479" lon="5.01979">
        <ele>559.7</ele>
        <time>2020-09-08T10:17:25Z</time>
      </trkpt>
      <trkpt lat="44.15479" lon="5.01979">
        <ele>559.7</ele>
        <time>2020-09-08T10:17:26Z</time>
      </trkpt>
      <trkpt lat="44.15479" lon="5.01981">
        <ele>559.7</ele>
        <time>2020-09-08T10:17:27Z</time>
      </trkpt>
      <trkpt lat="44.15478" lon="5.01981">
        <ele>559.7</ele>
        <time>2020-09-08T10:17:28Z</time>
      </trkpt>
      <trkpt lat="44.15478" lon="5.01981">
        <ele>559.7</ele>
        <time>2020-09-08T10:17:29Z</time>
      </trkpt>
      <trkpt lat="44.15478" lon="5.01981">
        <ele>559.7</ele>
        <time>2020-09-08T10:17:30Z</time>
      </trkpt>
      <trkpt lat="44.15478" lon="5.01981">
        <ele>559.7</ele>
        <time>2020-09-08T10:17:31Z</time>
      </trkpt>
      <trkpt lat="44.15478" lon="5.01981">
        <ele>559.7</ele>
        <time>2020-09-08T10:17:32Z</time>
      </trkpt>
      <trkpt lat="44.15478" lon="5.0198">
        <ele>559.7</ele>
        <time>2020-09-08T10:17:33Z</time>
      </trkpt>
      <trkpt lat="44.15478" lon="5.01979">
        <ele>559.7</ele>
        <time>2020-09-08T10:17:34Z</time>
      </trkpt>
      <trkpt lat="44.15478" lon="5.0198">
        <ele>559.6</ele>
        <time>2020-09-08T10:17:35Z</time>
      </trkpt>
      <trkpt lat="44.15478" lon="5.0198">
        <ele>559.6</ele>
        <time>2020-09-08T10:17:36Z</time>
      </trkpt>
      <trkpt lat="44.15478" lon="5.01979">
        <ele>559.6</ele>
        <time>2020-09-08T10:17:37Z</time>
      </trkpt>
      <trkpt lat="44.15478" lon="5.01979">
        <ele>559.6</ele>
        <time>2020-09-08T10:17:38Z</time>
      </trkpt>
      <trkpt lat="44.15478" lon="5.01978">
        <ele>559.6</ele>
        <time>2020-09-08T10:17:39Z</time>
      </trkpt>
      <trkpt lat="44.15478" lon="5.01979">
        <ele>559.6</ele>
        <time>2020-09-08T10:17:40Z</time>
      </trkpt>
      <trkpt lat="44.15478" lon="5.01978">
        <ele>559.6</ele>
        <time>2020-09-08T10:17:41Z</time>
      </trkpt>
      <trkpt lat="44.15477" lon="5.01978">
        <ele>559.6</ele>
        <time>2020-09-08T10:17:42Z</time>
      </trkpt>
      <trkpt lat="44.15477" lon="5.01978">
        <ele>559.6</ele>
        <time>2020-09-08T10:17:43Z</time>
      </trkpt>
      <trkpt lat="44.15478" lon="5.01978">
        <ele>559.6</ele>
        <time>2020-09-08T10:17:44Z</time>
      </trkpt>
      <trkpt lat="44.15478" lon="5.01978">
        <ele>559.6</ele>
        <time>2020-09-08T10:17:45Z</time>
      </trkpt>
      <trkpt lat="44.15478" lon="5.01979">
        <ele>559.6</ele>
        <time>2020-09-08T10:17:46Z</time>
      </trkpt>
      <trkpt lat="44.15478" lon="5.01979">
        <ele>559.6</ele>
        <time>2020-09-08T10:17:47Z</time>
      </trkpt>
      <trkpt lat="44.15478" lon="5.01979">
        <ele>559.6</ele>
        <time>2020-09-08T10:17:48Z</time>
      </trkpt>
      <trkpt lat="44.15477" lon="5.01979">
        <ele>559.6</ele>
        <time>2020-09-08T10:17:49Z</time>
      </trkpt>
      <trkpt lat="44.15477" lon="5.0198">
        <ele>559.6</ele>
        <time>2020-09-08T10:17:50Z</time>
      </trkpt>
      <trkpt lat="44.15478" lon="5.0198">
        <ele>559.6</ele>
        <time>2020-09-08T10:17:51Z</time>
      </trkpt>
      <trkpt lat="44.15478" lon="5.01979">
        <ele>559.6</ele>
        <time>2020-09-08T10:17:52Z</time>
      </trkpt>
      <trkpt lat="44.15478" lon="5.0198">
        <ele>559.6</ele>
        <time>2020-09-08T10:17:53Z</time>
      </trkpt>
      <trkpt lat="44.15478" lon="5.01981">
        <ele>559.7</ele>
        <time>2020-09-08T10:17:54Z</time>
      </trkpt>
      <trkpt lat="44.1548" lon="5.01982">
        <ele>559.7</ele>
        <time>2020-09-08T10:17:55Z</time>
      </trkpt>
      <trkpt lat="44.15481" lon="5.01983">
        <ele>559.7</ele>
        <time>2020-09-08T10:17:56Z</time>
      </trkpt>
      <trkpt lat="44.15482" lon="5.01983">
        <ele>559.7</ele>
        <time>2020-09-08T10:17:57Z</time>
      </trkpt>
      <trkpt lat="44.15484" lon="5.01984">
        <ele>559.7</ele>
        <time>2020-09-08T10:17:58Z</time>
      </trkpt>
      <trkpt lat="44.15483" lon="5.01986">
        <ele>559.7</ele>
        <time>2020-09-08T10:17:59Z</time>
      </trkpt>
      <trkpt lat="44.15482" lon="5.01988">
        <ele>559.8</ele>
        <time>2020-09-08T10:18:00Z</time>
      </trkpt>
      <trkpt lat="44.15483" lon="5.01989">
        <ele>559.8</ele>
        <time>2020-09-08T10:18:01Z</time>
      </trkpt>
      <trkpt lat="44.15481" lon="5.01989">
        <ele>559.8</ele>
        <time>2020-09-08T10:18:02Z</time>
      </trkpt>
      <trkpt lat="44.15481" lon="5.01989">
        <ele>559.8</ele>
        <time>2020-09-08T10:18:03Z</time>
      </trkpt>
      <trkpt lat="44.1548" lon="5.0199">
        <ele>559.8</ele>
        <time>2020-09-08T10:18:04Z</time>
      </trkpt>
      <trkpt lat="44.1548" lon="5.01991">
        <ele>559.8</ele>
        <time>2020-09-08T10:18:05Z</time>
      </trkpt>
      <trkpt lat="44.1548" lon="5.01991">
        <ele>559.9</ele>
        <time>2020-09-08T10:18:06Z</time>
      </trkpt>
      <trkpt lat="44.1548" lon="5.01991">
        <ele>559.9</ele>
        <time>2020-09-08T10:18:07Z</time>
      </trkpt>
      <trkpt lat="44.15479" lon="5.01991">
        <ele>559.9</ele>
        <time>2020-09-08T10:18:08Z</time>
      </trkpt>
      <trkpt lat="44.15479" lon="5.0199">
        <ele>559.9</ele>
        <time>2020-09-08T10:18:09Z</time>
      </trkpt>
      <trkpt lat="44.15479" lon="5.0199">
        <ele>559.9</ele>
        <time>2020-09-08T10:18:10Z</time>
      </trkpt>
      <trkpt lat="44.15479" lon="5.0199">
        <ele>559.9</ele>
        <time>2020-09-08T10:18:11Z</time>
      </trkpt>
      <trkpt lat="44.15479" lon="5.0199">
        <ele>559.9</ele>
        <time>2020-09-08T10:18:12Z</time>
      </trkpt>
      <trkpt lat="44.15479" lon="5.01991">
        <ele>559.9</ele>
        <time>2020-09-08T10:18:13Z</time>
      </trkpt>
      <trkpt lat="44.15479" lon="5.01992">
        <ele>559.9</ele>
        <time>2020-09-08T10:18:14Z</time>
      </trkpt>
      <trkpt lat="44.15479" lon="5.01991">
        <ele>559.9</ele>
        <time>2020-09-08T10:18:15Z</time>
      </trkpt>
      <trkpt lat="44.15477" lon="5.01994">
        <ele>560</ele>
        <time>2020-09-08T10:18:16Z</time>
      </trkpt>
      <trkpt lat="44.15477" lon="5.01994">
        <ele>560</ele>
        <time>2020-09-08T10:18:17Z</time>
      </trkpt>
      <trkpt lat="44.15477" lon="5.01995">
        <ele>560</ele>
        <time>2020-09-08T10:18:18Z</time>
      </trkpt>
      <trkpt lat="44.15476" lon="5.01996">
        <ele>560</ele>
        <time>2020-09-08T10:18:19Z</time>
      </trkpt>
      <trkpt lat="44.15476" lon="5.01997">
        <ele>560</ele>
        <time>2020-09-08T10:18:20Z</time>
      </trkpt>
      <trkpt lat="44.15475" lon="5.01998">
        <ele>560.1</ele>
        <time>2020-09-08T10:18:21Z</time>
      </trkpt>
      <trkpt lat="44.15474" lon="5.01998">
        <ele>560.1</ele>
        <time>2020-09-08T10:18:22Z</time>
      </trkpt>
      <trkpt lat="44.15473" lon="5.01998">
        <ele>560.1</ele>
        <time>2020-09-08T10:18:23Z</time>
      </trkpt>
      <trkpt lat="44.15472" lon="5.01998">
        <ele>560.1</ele>
        <time>2020-09-08T10:18:24Z</time>
      </trkpt>
      <trkpt lat="44.15472" lon="5.01996">
        <ele>560.2</ele>
        <time>2020-09-08T10:18:25Z</time>
      </trkpt>
      <trkpt lat="44.1547" lon="5.01997">
        <ele>560.2</ele>
        <time>2020-09-08T10:18:26Z</time>
      </trkpt>
      <trkpt lat="44.1547" lon="5.01995">
        <ele>560.3</ele>
        <time>2020-09-08T10:18:27Z</time>
      </trkpt>
      <trkpt lat="44.15468" lon="5.01995">
        <ele>560.3</ele>
        <time>2020-09-08T10:18:28Z</time>
      </trkpt>
      <trkpt lat="44.15468" lon="5.01995">
        <ele>560.3</ele>
        <time>2020-09-08T10:18:29Z</time>
      </trkpt>
      <trkpt lat="44.15467" lon="5.01995">
        <ele>560.4</ele>
        <time>2020-09-08T10:18:30Z</time>
      </trkpt>
      <trkpt lat="44.15466" lon="5.01995">
        <ele>560.4</ele>
        <time>2020-09-08T10:18:31Z</time>
      </trkpt>
      <trkpt lat="44.15465" lon="5.01995">
        <ele>560.4</ele>
        <time>2020-09-08T10:18:32Z</time>
      </trkpt>
      <trkpt lat="44.15464" lon="5.01995">
        <ele>560.4</ele>
        <time>2020-09-08T10:18:34Z</time>
      </trkpt>
      <trkpt lat="44.15465" lon="5.01996">
        <ele>560.4</ele>
        <time>2020-09-08T10:18:35Z</time>
      </trkpt>
      <trkpt lat="44.15465" lon="5.01997">
        <ele>560.5</ele>
        <time>2020-09-08T10:18:36Z</time>
      </trkpt>
      <trkpt lat="44.15465" lon="5.01998">
        <ele>560.5</ele>
        <time>2020-09-08T10:18:37Z</time>
      </trkpt>
      <trkpt lat="44.15465" lon="5.01998">
        <ele>560.5</ele>
        <time>2020-09-08T10:18:38Z</time>
      </trkpt>
      <trkpt lat="44.15465" lon="5.01999">
        <ele>560.5</ele>
        <time>2020-09-08T10:18:39Z</time>
      </trkpt>
      <trkpt lat="44.15464" lon="5.01999">
        <ele>560.5</ele>
        <time>2020-09-08T10:18:40Z</time>
      </trkpt>
      <trkpt lat="44.15464" lon="5.01999">
        <ele>560.5</ele>
        <time>2020-09-08T10:18:41Z</time>
      </trkpt>
      <trkpt lat="44.15464" lon="5.01998">
        <ele>560.5</ele>
        <time>2020-09-08T10:18:42Z</time>
      </trkpt>
      <trkpt lat="44.15464" lon="5.01997">
        <ele>560.5</ele>
        <time>2020-09-08T10:18:43Z</time>
      </trkpt>
      <trkpt lat="44.15464" lon="5.01997">
        <ele>560.6</ele>
        <time>2020-09-08T10:18:44Z</time>
      </trkpt>
      <trkpt lat="44.15464" lon="5.01997">
        <ele>560.6</ele>
        <time>2020-09-08T10:18:45Z</time>
      </trkpt>
      <trkpt lat="44.15464" lon="5.01996">
        <ele>560.6</ele>
        <time>2020-09-08T10:18:46Z</time>
      </trkpt>
      <trkpt lat="44.15464" lon="5.01996">
        <ele>560.6</ele>
        <time>2020-09-08T10:18:47Z</time>
      </trkpt>
      <trkpt lat="44.15465" lon="5.01996">
        <ele>560.6</ele>
        <time>2020-09-08T10:18:48Z</time>
      </trkpt>
      <trkpt lat="44.15465" lon="5.01996">
        <ele>560.6</ele>
        <time>2020-09-08T10:18:49Z</time>
      </trkpt>
      <trkpt lat="44.15464" lon="5.01996">
        <ele>560.6</ele>
        <time>2020-09-08T10:18:50Z</time>
      </trkpt>
      <trkpt lat="44.15464" lon="5.01997">
        <ele>560.6</ele>
        <time>2020-09-08T10:18:51Z</time>
      </trkpt>
      <trkpt lat="44.15464" lon="5.01997">
        <ele>560.6</ele>
        <time>2020-09-08T10:18:52Z</time>
      </trkpt>
      <trkpt lat="44.15465" lon="5.01997">
        <ele>560.6</ele>
        <time>2020-09-08T10:18:53Z</time>
      </trkpt>
      <trkpt lat="44.15465" lon="5.01998">
        <ele>560.6</ele>
        <time>2020-09-08T10:18:54Z</time>
      </trkpt>
      <trkpt lat="44.15466" lon="5.02">
        <ele>560.7</ele>
        <time>2020-09-08T10:18:55Z</time>
      </trkpt>
      <trkpt lat="44.15466" lon="5.02001">
        <ele>560.7</ele>
        <time>2020-09-08T10:18:56Z</time>
      </trkpt>
      <trkpt lat="44.15467" lon="5.02002">
        <ele>560.7</ele>
        <time>2020-09-08T10:18:57Z</time>
      </trkpt>
      <trkpt lat="44.15468" lon="5.02003">
        <ele>560.7</ele>
        <time>2020-09-08T10:18:58Z</time>
      </trkpt>
      <trkpt lat="44.15467" lon="5.02003">
        <ele>560.7</ele>
        <time>2020-09-08T10:18:59Z</time>
      </trkpt>
      <trkpt lat="44.15468" lon="5.02004">
        <ele>560.7</ele>
        <time>2020-09-08T10:19:00Z</time>
      </trkpt>
      <trkpt lat="44.15469" lon="5.02004">
        <ele>560.7</ele>
        <time>2020-09-08T10:19:01Z</time>
      </trkpt>
      <trkpt lat="44.15469" lon="5.02005">
        <ele>560.8</ele>
        <time>2020-09-08T10:19:02Z</time>
      </trkpt>
      <trkpt lat="44.15469" lon="5.02005">
        <ele>560.8</ele>
        <time>2020-09-08T10:19:03Z</time>
      </trkpt>
      <trkpt lat="44.1547" lon="5.02006">
        <ele>560.8</ele>
        <time>2020-09-08T10:19:04Z</time>
      </trkpt>
      <trkpt lat="44.1547" lon="5.02007">
        <ele>560.8</ele>
        <time>2020-09-08T10:19:05Z</time>
      </trkpt>
      <trkpt lat="44.15471" lon="5.02008">
        <ele>560.8</ele>
        <time>2020-09-08T10:19:06Z</time>
      </trkpt>
      <trkpt lat="44.15471" lon="5.02009">
        <ele>560.8</ele>
        <time>2020-09-08T10:19:07Z</time>
      </trkpt>
      <trkpt lat="44.15471" lon="5.02011">
        <ele>560.8</ele>
        <time>2020-09-08T10:19:08Z</time>
      </trkpt>
      <trkpt lat="44.15471" lon="5.02012">
        <ele>560.8</ele>
        <time>2020-09-08T10:19:09Z</time>
      </trkpt>
      <trkpt lat="44.1547" lon="5.02011">
        <ele>560.8</ele>
        <time>2020-09-08T10:19:10Z</time>
      </trkpt>
      <trkpt lat="44.15469" lon="5.0201">
        <ele>560.8</ele>
        <time>2020-09-08T10:19:11Z</time>
      </trkpt>
      <trkpt lat="44.15469" lon="5.0201">
        <ele>560.8</ele>
        <time>2020-09-08T10:19:12Z</time>
      </trkpt>
      <trkpt lat="44.15469" lon="5.0201">
        <ele>560.8</ele>
        <time>2020-09-08T10:19:13Z</time>
      </trkpt>
      <trkpt lat="44.15469" lon="5.0201">
        <ele>560.8</ele>
        <time>2020-09-08T10:19:14Z</time>
      </trkpt>
      <trkpt lat="44.15469" lon="5.02009">
        <ele>560.8</ele>
        <time>2020-09-08T10:19:15Z</time>
      </trkpt>
      <trkpt lat="44.1547" lon="5.02007">
        <ele>560.8</ele>
        <time>2020-09-08T10:19:16Z</time>
      </trkpt>
      <trkpt lat="44.1547" lon="5.02006">
        <ele>560.8</ele>
        <time>2020-09-08T10:19:17Z</time>
      </trkpt>
      <trkpt lat="44.15469" lon="5.02006">
        <ele>560.8</ele>
        <time>2020-09-08T10:19:18Z</time>
      </trkpt>
      <trkpt lat="44.1547" lon="5.02006">
        <ele>560.8</ele>
        <time>2020-09-08T10:19:19Z</time>
      </trkpt>
      <trkpt lat="44.15469" lon="5.02006">
        <ele>560.8</ele>
        <time>2020-09-08T10:19:20Z</time>
      </trkpt>
      <trkpt lat="44.15468" lon="5.02005">
        <ele>560.8</ele>
        <time>2020-09-08T10:19:21Z</time>
      </trkpt>
      <trkpt lat="44.15466" lon="5.02005">
        <ele>560.8</ele>
        <time>2020-09-08T10:19:22Z</time>
      </trkpt>
      <trkpt lat="44.15465" lon="5.02006">
        <ele>560.8</ele>
        <time>2020-09-08T10:19:23Z</time>
      </trkpt>
      <trkpt lat="44.15465" lon="5.02006">
        <ele>560.8</ele>
        <time>2020-09-08T10:19:24Z</time>
      </trkpt>
      <trkpt lat="44.15465" lon="5.02006">
        <ele>560.8</ele>
        <time>2020-09-08T10:19:25Z</time>
      </trkpt>
      <trkpt lat="44.15464" lon="5.02007">
        <ele>560.8</ele>
        <time>2020-09-08T10:19:26Z</time>
      </trkpt>
      <trkpt lat="44.15464" lon="5.02007">
        <ele>560.8</ele>
        <time>2020-09-08T10:19:27Z</time>
      </trkpt>
      <trkpt lat="44.15463" lon="5.02007">
        <ele>560.8</ele>
        <time>2020-09-08T10:19:28Z</time>
      </trkpt>
      <trkpt lat="44.15463" lon="5.02007">
        <ele>560.8</ele>
        <time>2020-09-08T10:19:29Z</time>
      </trkpt>
      <trkpt lat="44.15462" lon="5.02008">
        <ele>560.8</ele>
        <time>2020-09-08T10:19:30Z</time>
      </trkpt>
      <trkpt lat="44.15462" lon="5.02008">
        <ele>560.8</ele>
        <time>2020-09-08T10:19:31Z</time>
      </trkpt>
      <trkpt lat="44.15461" lon="5.02008">
        <ele>560.8</ele>
        <time>2020-09-08T10:19:32Z</time>
      </trkpt>
      <trkpt lat="44.15461" lon="5.02009">
        <ele>560.8</ele>
        <time>2020-09-08T10:19:33Z</time>
      </trkpt>
      <trkpt lat="44.15462" lon="5.02009">
        <ele>560.8</ele>
        <time>2020-09-08T10:19:34Z</time>
      </trkpt>
      <trkpt lat="44.15462" lon="5.02009">
        <ele>560.8</ele>
        <time>2020-09-08T10:19:35Z</time>
      </trkpt>
      <trkpt lat="44.15462" lon="5.02009">
        <ele>560.8</ele>
        <time>2020-09-08T10:19:36Z</time>
      </trkpt>
      <trkpt lat="44.15461" lon="5.02009">
        <ele>560.8</ele>
        <time>2020-09-08T10:19:37Z</time>
      </trkpt>
      <trkpt lat="44.15461" lon="5.0201">
        <ele>560.8</ele>
        <time>2020-09-08T10:19:38Z</time>
      </trkpt>
      <trkpt lat="44.15461" lon="5.0201">
        <ele>560.8</ele>
        <time>2020-09-08T10:19:39Z</time>
      </trkpt>
      <trkpt lat="44.1546" lon="5.02011">
        <ele>560.8</ele>
        <time>2020-09-08T10:19:40Z</time>
      </trkpt>
      <trkpt lat="44.15461" lon="5.02011">
        <ele>560.8</ele>
        <time>2020-09-08T10:19:41Z</time>
      </trkpt>
      <trkpt lat="44.15461" lon="5.02012">
        <ele>560.8</ele>
        <time>2020-09-08T10:19:42Z</time>
      </trkpt>
      <trkpt lat="44.15461" lon="5.02012">
        <ele>560.8</ele>
        <time>2020-09-08T10:19:43Z</time>
      </trkpt>
      <trkpt lat="44.15461" lon="5.02013">
        <ele>560.8</ele>
        <time>2020-09-08T10:19:44Z</time>
      </trkpt>
      <trkpt lat="44.15461" lon="5.02013">
        <ele>560.8</ele>
        <time>2020-09-08T10:19:45Z</time>
      </trkpt>
      <trkpt lat="44.15461" lon="5.02012">
        <ele>560.8</ele>
        <time>2020-09-08T10:19:46Z</time>
      </trkpt>
      <trkpt lat="44.15462" lon="5.02011">
        <ele>560.8</ele>
        <time>2020-09-08T10:19:47Z</time>
      </trkpt>
      <trkpt lat="44.15462" lon="5.0201">
        <ele>560.8</ele>
        <time>2020-09-08T10:19:48Z</time>
      </trkpt>
      <trkpt lat="44.15462" lon="5.02011">
        <ele>560.8</ele>
        <time>2020-09-08T10:19:49Z</time>
      </trkpt>
      <trkpt lat="44.15462" lon="5.02013">
        <ele>560.8</ele>
        <time>2020-09-08T10:19:50Z</time>
      </trkpt>
      <trkpt lat="44.15461" lon="5.02014">
        <ele>560.8</ele>
        <time>2020-09-08T10:19:51Z</time>
      </trkpt>
      <trkpt lat="44.15461" lon="5.02016">
        <ele>560.8</ele>
        <time>2020-09-08T10:19:52Z</time>
      </trkpt>
      <trkpt lat="44.1546" lon="5.02015">
        <ele>560.8</ele>
        <time>2020-09-08T10:19:53Z</time>
      </trkpt>
      <trkpt lat="44.15461" lon="5.02015">
        <ele>560.8</ele>
        <time>2020-09-08T10:19:54Z</time>
      </trkpt>
      <trkpt lat="44.1546" lon="5.02015">
        <ele>560.9</ele>
        <time>2020-09-08T10:19:55Z</time>
      </trkpt>
      <trkpt lat="44.1546" lon="5.02015">
        <ele>560.9</ele>
        <time>2020-09-08T10:19:56Z</time>
      </trkpt>
      <trkpt lat="44.1546" lon="5.02014">
        <ele>560.9</ele>
        <time>2020-09-08T10:19:57Z</time>
      </trkpt>
      <trkpt lat="44.1546" lon="5.02014">
        <ele>560.9</ele>
        <time>2020-09-08T10:19:58Z</time>
      </trkpt>
      <trkpt lat="44.1546" lon="5.02014">
        <ele>560.9</ele>
        <time>2020-09-08T10:19:59Z</time>
      </trkpt>
      <trkpt lat="44.1546" lon="5.02015">
        <ele>560.9</ele>
        <time>2020-09-08T10:20:00Z</time>
      </trkpt>
      <trkpt lat="44.1546" lon="5.02014">
        <ele>560.9</ele>
        <time>2020-09-08T10:20:01Z</time>
      </trkpt>
      <trkpt lat="44.1546" lon="5.02014">
        <ele>560.9</ele>
        <time>2020-09-08T10:20:02Z</time>
      </trkpt>
      <trkpt lat="44.1546" lon="5.02014">
        <ele>560.9</ele>
        <time>2020-09-08T10:20:03Z</time>
      </trkpt>
      <trkpt lat="44.1546" lon="5.02014">
        <ele>560.9</ele>
        <time>2020-09-08T10:20:04Z</time>
      </trkpt>
      <trkpt lat="44.1546" lon="5.02014">
        <ele>560.9</ele>
        <time>2020-09-08T10:20:05Z</time>
      </trkpt>
      <trkpt lat="44.1546" lon="5.02014">
        <ele>560.9</ele>
        <time>2020-09-08T10:20:06Z</time>
      </trkpt>
      <trkpt lat="44.1546" lon="5.02014">
        <ele>560.9</ele>
        <time>2020-09-08T10:20:07Z</time>
      </trkpt>
      <trkpt lat="44.1546" lon="5.02014">
        <ele>560.9</ele>
        <time>2020-09-08T10:20:08Z</time>
      </trkpt>
      <trkpt lat="44.1546" lon="5.02014">
        <ele>560.9</ele>
        <time>2020-09-08T10:20:09Z</time>
      </trkpt>
      <trkpt lat="44.1546" lon="5.02014">
        <ele>560.9</ele>
        <time>2020-09-08T10:20:10Z</time>
      </trkpt>
      <trkpt lat="44.1546" lon="5.02014">
        <ele>560.9</ele>
        <time>2020-09-08T10:20:11Z</time>
      </trkpt>
      <trkpt lat="44.15459" lon="5.02014">
        <ele>560.9</ele>
        <time>2020-09-08T10:20:12Z</time>
      </trkpt>
      <trkpt lat="44.1546" lon="5.02013">
        <ele>561</ele>
        <time>2020-09-08T10:20:13Z</time>
      </trkpt>
      <trkpt lat="44.1546" lon="5.02013">
        <ele>561</ele>
        <time>2020-09-08T10:20:14Z</time>
      </trkpt>
      <trkpt lat="44.1546" lon="5.02012">
        <ele>561</ele>
        <time>2020-09-08T10:20:15Z</time>
      </trkpt>
      <trkpt lat="44.1546" lon="5.02012">
        <ele>561</ele>
        <time>2020-09-08T10:20:16Z</time>
      </trkpt>
      <trkpt lat="44.1546" lon="5.02012">
        <ele>561.1</ele>
        <time>2020-09-08T10:20:17Z</time>
      </trkpt>
      <trkpt lat="44.1546" lon="5.02012">
        <ele>561.1</ele>
        <time>2020-09-08T10:20:18Z</time>
      </trkpt>
      <trkpt lat="44.1546" lon="5.02012">
        <ele>561.1</ele>
        <time>2020-09-08T10:20:19Z</time>
      </trkpt>
      <trkpt lat="44.1546" lon="5.02012">
        <ele>561.1</ele>
        <time>2020-09-08T10:20:20Z</time>
      </trkpt>
      <trkpt lat="44.15461" lon="5.02011">
        <ele>561.1</ele>
        <time>2020-09-08T10:20:21Z</time>
      </trkpt>
      <trkpt lat="44.15461" lon="5.02011">
        <ele>561.1</ele>
        <time>2020-09-08T10:20:22Z</time>
      </trkpt>
      <trkpt lat="44.15461" lon="5.02011">
        <ele>561.1</ele>
        <time>2020-09-08T10:20:23Z</time>
      </trkpt>
      <trkpt lat="44.15461" lon="5.0201">
        <ele>561.2</ele>
        <time>2020-09-08T10:20:24Z</time>
      </trkpt>
      <trkpt lat="44.15461" lon="5.0201">
        <ele>561.2</ele>
        <time>2020-09-08T10:20:25Z</time>
      </trkpt>
      <trkpt lat="44.15462" lon="5.0201">
        <ele>561.2</ele>
        <time>2020-09-08T10:20:26Z</time>
      </trkpt>
      <trkpt lat="44.15461" lon="5.02011">
        <ele>561.2</ele>
        <time>2020-09-08T10:20:27Z</time>
      </trkpt>
      <trkpt lat="44.15462" lon="5.02011">
        <ele>561.2</ele>
        <time>2020-09-08T10:20:28Z</time>
      </trkpt>
      <trkpt lat="44.15461" lon="5.02012">
        <ele>561.3</ele>
        <time>2020-09-08T10:20:29Z</time>
      </trkpt>
      <trkpt lat="44.15462" lon="5.02011">
        <ele>561.3</ele>
        <time>2020-09-08T10:20:30Z</time>
      </trkpt>
      <trkpt lat="44.15462" lon="5.02011">
        <ele>561.3</ele>
        <time>2020-09-08T10:20:31Z</time>
      </trkpt>
      <trkpt lat="44.15462" lon="5.02012">
        <ele>561.3</ele>
        <time>2020-09-08T10:20:32Z</time>
      </trkpt>
      <trkpt lat="44.15463" lon="5.02011">
        <ele>561.3</ele>
        <time>2020-09-08T10:20:33Z</time>
      </trkpt>
      <trkpt lat="44.15464" lon="5.02009">
        <ele>561.4</ele>
        <time>2020-09-08T10:20:34Z</time>
      </trkpt>
      <trkpt lat="44.15466" lon="5.02009">
        <ele>561.5</ele>
        <time>2020-09-08T10:20:35Z</time>
      </trkpt>
      <trkpt lat="44.15467" lon="5.02008">
        <ele>561.5</ele>
        <time>2020-09-08T10:20:36Z</time>
      </trkpt>
      <trkpt lat="44.15467" lon="5.02008">
        <ele>561.5</ele>
        <time>2020-09-08T10:20:37Z</time>
      </trkpt>
      <trkpt lat="44.15468" lon="5.02008">
        <ele>561.5</ele>
        <time>2020-09-08T10:20:38Z</time>
      </trkpt>
      <trkpt lat="44.15469" lon="5.0201">
        <ele>561.6</ele>
        <time>2020-09-08T10:20:39Z</time>
      </trkpt>
      <trkpt lat="44.15469" lon="5.02011">
        <ele>561.6</ele>
        <time>2020-09-08T10:20:40Z</time>
      </trkpt>
      <trkpt lat="44.15469" lon="5.02012">
        <ele>561.7</ele>
        <time>2020-09-08T10:20:41Z</time>
      </trkpt>
      <trkpt lat="44.1547" lon="5.02012">
        <ele>561.7</ele>
        <time>2020-09-08T10:20:42Z</time>
      </trkpt>
      <trkpt lat="44.15471" lon="5.02012">
        <ele>561.7</ele>
        <time>2020-09-08T10:20:43Z</time>
      </trkpt>
      <trkpt lat="44.15472" lon="5.02013">
        <ele>561.8</ele>
        <time>2020-09-08T10:20:44Z</time>
      </trkpt>
      <trkpt lat="44.15473" lon="5.02014">
        <ele>561.8</ele>
        <time>2020-09-08T10:20:45Z</time>
      </trkpt>
      <trkpt lat="44.15474" lon="5.02015">
        <ele>561.8</ele>
        <time>2020-09-08T10:20:46Z</time>
      </trkpt>
      <trkpt lat="44.15474" lon="5.02016">
        <ele>561.9</ele>
        <time>2020-09-08T10:20:47Z</time>
      </trkpt>
      <trkpt lat="44.15474" lon="5.02017">
        <ele>561.9</ele>
        <time>2020-09-08T10:20:48Z</time>
      </trkpt>
      <trkpt lat="44.15474" lon="5.0202">
        <ele>562</ele>
        <time>2020-09-08T10:20:49Z</time>
      </trkpt>
      <trkpt lat="44.15474" lon="5.02021">
        <ele>562</ele>
        <time>2020-09-08T10:20:50Z</time>
      </trkpt>
      <trkpt lat="44.15474" lon="5.02023">
        <ele>562.1</ele>
        <time>2020-09-08T10:20:51Z</time>
      </trkpt>
      <trkpt lat="44.15474" lon="5.02023">
        <ele>562.1</ele>
        <time>2020-09-08T10:20:52Z</time>
      </trkpt>
      <trkpt lat="44.15474" lon="5.02024">
        <ele>562.1</ele>
        <time>2020-09-08T10:20:53Z</time>
      </trkpt>
      <trkpt lat="44.15474" lon="5.02024">
        <ele>562.1</ele>
        <time>2020-09-08T10:20:54Z</time>
      </trkpt>
      <trkpt lat="44.15473" lon="5.02024">
        <ele>562.1</ele>
        <time>2020-09-08T10:20:55Z</time>
      </trkpt>
      <trkpt lat="44.15474" lon="5.02024">
        <ele>562.1</ele>
        <time>2020-09-08T10:20:56Z</time>
      </trkpt>
      <trkpt lat="44.15473" lon="5.02024">
        <ele>562.1</ele>
        <time>2020-09-08T10:20:57Z</time>
      </trkpt>
      <trkpt lat="44.15473" lon="5.02024">
        <ele>562.1</ele>
        <time>2020-09-08T10:20:58Z</time>
      </trkpt>
      <trkpt lat="44.15473" lon="5.02024">
        <ele>562.2</ele>
        <time>2020-09-08T10:20:59Z</time>
      </trkpt>
      <trkpt lat="44.15473" lon="5.02024">
        <ele>562.2</ele>
        <time>2020-09-08T10:21:00Z</time>
      </trkpt>
      <trkpt lat="44.15473" lon="5.02024">
        <ele>562.2</ele>
        <time>2020-09-08T10:21:01Z</time>
      </trkpt>
      <trkpt lat="44.15472" lon="5.02025">
        <ele>562.2</ele>
        <time>2020-09-08T10:21:02Z</time>
      </trkpt>
      <trkpt lat="44.15472" lon="5.02025">
        <ele>562.2</ele>
        <time>2020-09-08T10:21:03Z</time>
      </trkpt>
      <trkpt lat="44.15472" lon="5.02025">
        <ele>562.2</ele>
        <time>2020-09-08T10:21:04Z</time>
      </trkpt>
      <trkpt lat="44.15473" lon="5.02025">
        <ele>562.2</ele>
        <time>2020-09-08T10:21:05Z</time>
      </trkpt>
      <trkpt lat="44.15473" lon="5.02025">
        <ele>562.2</ele>
        <time>2020-09-08T10:21:06Z</time>
      </trkpt>
      <trkpt lat="44.15473" lon="5.02026">
        <ele>562.3</ele>
        <time>2020-09-08T10:21:07Z</time>
      </trkpt>
      <trkpt lat="44.15472" lon="5.02027">
        <ele>562.3</ele>
        <time>2020-09-08T10:21:08Z</time>
      </trkpt>
      <trkpt lat="44.15474" lon="5.02028">
        <ele>562.3</ele>
        <time>2020-09-08T10:21:09Z</time>
      </trkpt>
      <trkpt lat="44.15475" lon="5.02028">
        <ele>562.4</ele>
        <time>2020-09-08T10:21:10Z</time>
      </trkpt>
      <trkpt lat="44.15476" lon="5.02028">
        <ele>562.4</ele>
        <time>2020-09-08T10:21:11Z</time>
      </trkpt>
      <trkpt lat="44.15477" lon="5.02029">
        <ele>562.5</ele>
        <time>2020-09-08T10:21:12Z</time>
      </trkpt>
      <trkpt lat="44.15477" lon="5.02029">
        <ele>562.5</ele>
        <time>2020-09-08T10:21:13Z</time>
      </trkpt>
      <trkpt lat="44.15476" lon="5.02028">
        <ele>562.5</ele>
        <time>2020-09-08T10:21:14Z</time>
      </trkpt>
      <trkpt lat="44.15477" lon="5.0203">
        <ele>562.5</ele>
        <time>2020-09-08T10:21:15Z</time>
      </trkpt>
      <trkpt lat="44.15478" lon="5.02032">
        <ele>562.6</ele>
        <time>2020-09-08T10:21:16Z</time>
      </trkpt>
      <trkpt lat="44.15477" lon="5.02032">
        <ele>562.6</ele>
        <time>2020-09-08T10:21:17Z</time>
      </trkpt>
      <trkpt lat="44.15478" lon="5.02033">
        <ele>562.7</ele>
        <time>2020-09-08T10:21:18Z</time>
      </trkpt>
      <trkpt lat="44.15478" lon="5.02034">
        <ele>562.7</ele>
        <time>2020-09-08T10:21:19Z</time>
      </trkpt>
      <trkpt lat="44.15477" lon="5.02036">
        <ele>562.8</ele>
        <time>2020-09-08T10:21:20Z</time>
      </trkpt>
      <trkpt lat="44.15477" lon="5.02038">
        <ele>562.8</ele>
        <time>2020-09-08T10:21:21Z</time>
      </trkpt>
      <trkpt lat="44.15477" lon="5.0204">
        <ele>562.8</ele>
        <time>2020-09-08T10:21:22Z</time>
      </trkpt>
      <trkpt lat="44.15477" lon="5.02041">
        <ele>562.9</ele>
        <time>2020-09-08T10:21:23Z</time>
      </trkpt>
      <trkpt lat="44.15477" lon="5.02041">
        <ele>562.9</ele>
        <time>2020-09-08T10:21:24Z</time>
      </trkpt>
      <trkpt lat="44.15477" lon="5.02042">
        <ele>562.9</ele>
        <time>2020-09-08T10:21:25Z</time>
      </trkpt>
      <trkpt lat="44.15476" lon="5.02043">
        <ele>562.9</ele>
        <time>2020-09-08T10:21:26Z</time>
      </trkpt>
      <trkpt lat="44.15475" lon="5.02043">
        <ele>563</ele>
        <time>2020-09-08T10:21:27Z</time>
      </trkpt>
      <trkpt lat="44.15475" lon="5.02045">
        <ele>563</ele>
        <time>2020-09-08T10:21:28Z</time>
      </trkpt>
      <trkpt lat="44.15475" lon="5.02046">
        <ele>563.1</ele>
        <time>2020-09-08T10:21:29Z</time>
      </trkpt>
      <trkpt lat="44.15475" lon="5.02047">
        <ele>563.1</ele>
        <time>2020-09-08T10:21:30Z</time>
      </trkpt>
      <trkpt lat="44.15474" lon="5.02048">
        <ele>563.1</ele>
        <time>2020-09-08T10:21:31Z</time>
      </trkpt>
      <trkpt lat="44.15474" lon="5.02049">
        <ele>563.1</ele>
        <time>2020-09-08T10:21:32Z</time>
      </trkpt>
      <trkpt lat="44.15475" lon="5.02049">
        <ele>563.1</ele>
        <time>2020-09-08T10:21:33Z</time>
      </trkpt>
      <trkpt lat="44.15475" lon="5.02051">
        <ele>563.2</ele>
        <time>2020-09-08T10:21:34Z</time>
      </trkpt>
      <trkpt lat="44.15475" lon="5.02051">
        <ele>563.2</ele>
        <time>2020-09-08T10:21:35Z</time>
      </trkpt>
      <trkpt lat="44.15474" lon="5.02051">
        <ele>563.2</ele>
        <time>2020-09-08T10:21:36Z</time>
      </trkpt>
      <trkpt lat="44.15474" lon="5.02051">
        <ele>563.2</ele>
        <time>2020-09-08T10:21:37Z</time>
      </trkpt>
      <trkpt lat="44.15473" lon="5.02052">
        <ele>563.2</ele>
        <time>2020-09-08T10:21:38Z</time>
      </trkpt>
      <trkpt lat="44.15473" lon="5.02053">
        <ele>563.2</ele>
        <time>2020-09-08T10:21:39Z</time>
      </trkpt>
      <trkpt lat="44.15472" lon="5.02052">
        <ele>563.3</ele>
        <time>2020-09-08T10:21:40Z</time>
      </trkpt>
      <trkpt lat="44.15472" lon="5.02052">
        <ele>563.3</ele>
        <time>2020-09-08T10:21:41Z</time>
      </trkpt>
      <trkpt lat="44.15471" lon="5.02054">
        <ele>563.3</ele>
        <time>2020-09-08T10:21:42Z</time>
      </trkpt>
      <trkpt lat="44.15471" lon="5.02055">
        <ele>563.3</ele>
        <time>2020-09-08T10:21:43Z</time>
      </trkpt>
      <trkpt lat="44.15471" lon="5.02056">
        <ele>563.3</ele>
        <time>2020-09-08T10:21:44Z</time>
      </trkpt>
      <trkpt lat="44.15471" lon="5.02057">
        <ele>563.3</ele>
        <time>2020-09-08T10:21:45Z</time>
      </trkpt>
      <trkpt lat="44.1547" lon="5.02057">
        <ele>563.4</ele>
        <time>2020-09-08T10:21:46Z</time>
      </trkpt>
      <trkpt lat="44.1547" lon="5.02058">
        <ele>563.4</ele>
        <time>2020-09-08T10:21:47Z</time>
      </trkpt>
      <trkpt lat="44.1547" lon="5.02059">
        <ele>563.4</ele>
        <time>2020-09-08T10:21:48Z</time>
      </trkpt>
      <trkpt lat="44.1547" lon="5.02059">
        <ele>563.4</ele>
        <time>2020-09-08T10:21:49Z</time>
      </trkpt>
      <trkpt lat="44.1547" lon="5.0206">
        <ele>563.4</ele>
        <time>2020-09-08T10:21:50Z</time>
      </trkpt>
      <trkpt lat="44.1547" lon="5.02059">
        <ele>563.4</ele>
        <time>2020-09-08T10:21:51Z</time>
      </trkpt>
      <trkpt lat="44.15471" lon="5.0206">
        <ele>563.4</ele>
        <time>2020-09-08T10:21:52Z</time>
      </trkpt>
      <trkpt lat="44.15471" lon="5.0206">
        <ele>563.4</ele>
        <time>2020-09-08T10:21:53Z</time>
      </trkpt>
      <trkpt lat="44.15472" lon="5.0206">
        <ele>563.4</ele>
        <time>2020-09-08T10:21:54Z</time>
      </trkpt>
      <trkpt lat="44.15473" lon="5.0206">
        <ele>563.4</ele>
        <time>2020-09-08T10:21:55Z</time>
      </trkpt>
      <trkpt lat="44.15473" lon="5.02061">
        <ele>563.4</ele>
        <time>2020-09-08T10:21:56Z</time>
      </trkpt>
      <trkpt lat="44.15473" lon="5.02061">
        <ele>563.4</ele>
        <time>2020-09-08T10:21:57Z</time>
      </trkpt>
      <trkpt lat="44.15474" lon="5.02062">
        <ele>563.4</ele>
        <time>2020-09-08T10:21:58Z</time>
      </trkpt>
      <trkpt lat="44.15473" lon="5.02062">
        <ele>563.4</ele>
        <time>2020-09-08T10:21:59Z</time>
      </trkpt>
      <trkpt lat="44.15474" lon="5.02063">
        <ele>563.4</ele>
        <time>2020-09-08T10:22:00Z</time>
      </trkpt>
      <trkpt lat="44.15475" lon="5.02063">
        <ele>563.4</ele>
        <time>2020-09-08T10:22:01Z</time>
      </trkpt>
      <trkpt lat="44.15475" lon="5.02064">
        <ele>563.3</ele>
        <time>2020-09-08T10:22:02Z</time>
      </trkpt>
      <trkpt lat="44.15476" lon="5.02065">
        <ele>563.3</ele>
        <time>2020-09-08T10:22:03Z</time>
      </trkpt>
      <trkpt lat="44.15475" lon="5.02065">
        <ele>563.3</ele>
        <time>2020-09-08T10:22:04Z</time>
      </trkpt>
      <trkpt lat="44.15475" lon="5.02067">
        <ele>563.3</ele>
        <time>2020-09-08T10:22:05Z</time>
      </trkpt>
      <trkpt lat="44.15476" lon="5.02066">
        <ele>563.3</ele>
        <time>2020-09-08T10:22:06Z</time>
      </trkpt>
      <trkpt lat="44.15475" lon="5.02068">
        <ele>563.2</ele>
        <time>2020-09-08T10:22:07Z</time>
      </trkpt>
      <trkpt lat="44.15476" lon="5.02069">
        <ele>563.2</ele>
        <time>2020-09-08T10:22:08Z</time>
      </trkpt>
      <trkpt lat="44.15476" lon="5.02071">
        <ele>563.1</ele>
        <time>2020-09-08T10:22:09Z</time>
      </trkpt>
      <trkpt lat="44.15477" lon="5.02071">
        <ele>563.1</ele>
        <time>2020-09-08T10:22:10Z</time>
      </trkpt>
      <trkpt lat="44.15478" lon="5.02071">
        <ele>563.1</ele>
        <time>2020-09-08T10:22:11Z</time>
      </trkpt>
      <trkpt lat="44.15479" lon="5.02071">
        <ele>563</ele>
        <time>2020-09-08T10:22:12Z</time>
      </trkpt>
      <trkpt lat="44.15481" lon="5.02072">
        <ele>562.9</ele>
        <time>2020-09-08T10:22:13Z</time>
      </trkpt>
      <trkpt lat="44.1548" lon="5.02074">
        <ele>562.8</ele>
        <time>2020-09-08T10:22:14Z</time>
      </trkpt>
      <trkpt lat="44.15479" lon="5.02076">
        <ele>562.7</ele>
        <time>2020-09-08T10:22:15Z</time>
      </trkpt>
      <trkpt lat="44.15479" lon="5.02076">
        <ele>562.7</ele>
        <time>2020-09-08T10:22:16Z</time>
      </trkpt>
      <trkpt lat="44.15478" lon="5.02076">
        <ele>562.6</ele>
        <time>2020-09-08T10:22:18Z</time>
      </trkpt>
      <trkpt lat="44.15479" lon="5.02077">
        <ele>562.5</ele>
        <time>2020-09-08T10:22:19Z</time>
      </trkpt>
      <trkpt lat="44.15479" lon="5.02078">
        <ele>562.5</ele>
        <time>2020-09-08T10:22:20Z</time>
      </trkpt>
      <trkpt lat="44.15479" lon="5.0208">
        <ele>562.3</ele>
        <time>2020-09-08T10:22:21Z</time>
      </trkpt>
      <trkpt lat="44.15478" lon="5.02082">
        <ele>562.2</ele>
        <time>2020-09-08T10:22:22Z</time>
      </trkpt>
      <trkpt lat="44.15478" lon="5.02083">
        <ele>562.1</ele>
        <time>2020-09-08T10:22:23Z</time>
      </trkpt>
      <trkpt lat="44.15478" lon="5.02083">
        <ele>562.1</ele>
        <time>2020-09-08T10:22:24Z</time>
      </trkpt>
      <trkpt lat="44.15478" lon="5.02084">
        <ele>562</ele>
        <time>2020-09-08T10:22:25Z</time>
      </trkpt>
      <trkpt lat="44.15477" lon="5.02085">
        <ele>561.9</ele>
        <time>2020-09-08T10:22:26Z</time>
      </trkpt>
      <trkpt lat="44.15476" lon="5.02086">
        <ele>561.8</ele>
        <time>2020-09-08T10:22:27Z</time>
      </trkpt>
      <trkpt lat="44.15476" lon="5.02087">
        <ele>561.7</ele>
        <time>2020-09-08T10:22:28Z</time>
      </trkpt>
      <trkpt lat="44.15476" lon="5.02087">
        <ele>561.6</ele>
        <time>2020-09-08T10:22:29Z</time>
      </trkpt>
      <trkpt lat="44.15476" lon="5.02088">
        <ele>561.5</ele>
        <time>2020-09-08T10:22:30Z</time>
      </trkpt>
      <trkpt lat="44.15476" lon="5.02089">
        <ele>561.5</ele>
        <time>2020-09-08T10:22:31Z</time>
      </trkpt>
      <trkpt lat="44.15476" lon="5.02089">
        <ele>561.4</ele>
        <time>2020-09-08T10:22:32Z</time>
      </trkpt>
      <trkpt lat="44.15476" lon="5.02089">
        <ele>561.4</ele>
        <time>2020-09-08T10:22:33Z</time>
      </trkpt>
      <trkpt lat="44.15475" lon="5.02091">
        <ele>561.1</ele>
        <time>2020-09-08T10:22:34Z</time>
      </trkpt>
      <trkpt lat="44.15474" lon="5.02091">
        <ele>561</ele>
        <time>2020-09-08T10:22:35Z</time>
      </trkpt>
      <trkpt lat="44.15474" lon="5.02092">
        <ele>561</ele>
        <time>2020-09-08T10:22:36Z</time>
      </trkpt>
      <trkpt lat="44.15473" lon="5.02092">
        <ele>560.9</ele>
        <time>2020-09-08T10:22:37Z</time>
      </trkpt>
      <trkpt lat="44.15473" lon="5.02092">
        <ele>560.8</ele>
        <time>2020-09-08T10:22:38Z</time>
      </trkpt>
      <trkpt lat="44.15472" lon="5.02092">
        <ele>560.6</ele>
        <time>2020-09-08T10:22:39Z</time>
      </trkpt>
      <trkpt lat="44.15473" lon="5.02092">
        <ele>560.6</ele>
        <time>2020-09-08T10:22:40Z</time>
      </trkpt>
      <trkpt lat="44.15473" lon="5.02093">
        <ele>560.5</ele>
        <time>2020-09-08T10:22:41Z</time>
      </trkpt>
      <trkpt lat="44.15473" lon="5.02094">
        <ele>560.4</ele>
        <time>2020-09-08T10:22:42Z</time>
      </trkpt>
      <trkpt lat="44.15473" lon="5.02093">
        <ele>560.4</ele>
        <time>2020-09-08T10:22:43Z</time>
      </trkpt>
      <trkpt lat="44.15473" lon="5.02094">
        <ele>560.3</ele>
        <time>2020-09-08T10:22:44Z</time>
      </trkpt>
      <trkpt lat="44.15473" lon="5.02094">
        <ele>560.2</ele>
        <time>2020-09-08T10:22:45Z</time>
      </trkpt>
      <trkpt lat="44.15473" lon="5.02094">
        <ele>560.2</ele>
        <time>2020-09-08T10:22:46Z</time>
      </trkpt>
      <trkpt lat="44.15472" lon="5.02094">
        <ele>560.1</ele>
        <time>2020-09-08T10:22:47Z</time>
      </trkpt>
      <trkpt lat="44.15473" lon="5.02094">
        <ele>560</ele>
        <time>2020-09-08T10:22:48Z</time>
      </trkpt>
      <trkpt lat="44.15473" lon="5.02094">
        <ele>560</ele>
        <time>2020-09-08T10:22:49Z</time>
      </trkpt>
      <trkpt lat="44.15473" lon="5.02094">
        <ele>559.9</ele>
        <time>2020-09-08T10:22:50Z</time>
      </trkpt>
      <trkpt lat="44.15474" lon="5.02094">
        <ele>559.7</ele>
        <time>2020-09-08T10:22:51Z</time>
      </trkpt>
      <trkpt lat="44.15474" lon="5.02095">
        <ele>559.6</ele>
        <time>2020-09-08T10:22:52Z</time>
      </trkpt>
      <trkpt lat="44.15475" lon="5.02095">
        <ele>559.4</ele>
        <time>2020-09-08T10:22:53Z</time>
      </trkpt>
      <trkpt lat="44.15475" lon="5.02094">
        <ele>559.3</ele>
        <time>2020-09-08T10:22:54Z</time>
      </trkpt>
      <trkpt lat="44.15475" lon="5.02095">
        <ele>559.2</ele>
        <time>2020-09-08T10:22:55Z</time>
      </trkpt>
      <trkpt lat="44.15475" lon="5.02095">
        <ele>559.1</ele>
        <time>2020-09-08T10:22:56Z</time>
      </trkpt>
      <trkpt lat="44.15475" lon="5.02095">
        <ele>559.1</ele>
        <time>2020-09-08T10:22:57Z</time>
      </trkpt>
      <trkpt lat="44.15475" lon="5.02095">
        <ele>559</ele>
        <time>2020-09-08T10:22:58Z</time>
      </trkpt>
      <trkpt lat="44.15475" lon="5.02095">
        <ele>558.9</ele>
        <time>2020-09-08T10:22:59Z</time>
      </trkpt>
      <trkpt lat="44.15475" lon="5.02095">
        <ele>558.9</ele>
        <time>2020-09-08T10:23:00Z</time>
      </trkpt>
      <trkpt lat="44.15476" lon="5.02095">
        <ele>558.8</ele>
        <time>2020-09-08T10:23:01Z</time>
      </trkpt>
      <trkpt lat="44.15476" lon="5.02095">
        <ele>558.7</ele>
        <time>2020-09-08T10:23:02Z</time>
      </trkpt>
      <trkpt lat="44.15476" lon="5.02096">
        <ele>558.6</ele>
        <time>2020-09-08T10:23:03Z</time>
      </trkpt>
      <trkpt lat="44.15476" lon="5.02096">
        <ele>558.5</ele>
        <time>2020-09-08T10:23:04Z</time>
      </trkpt>
      <trkpt lat="44.15476" lon="5.02096">
        <ele>558.4</ele>
        <time>2020-09-08T10:23:05Z</time>
      </trkpt>
      <trkpt lat="44.15476" lon="5.02096">
        <ele>558.4</ele>
        <time>2020-09-08T10:23:06Z</time>
      </trkpt>
      <trkpt lat="44.15476" lon="5.02096">
        <ele>558.3</ele>
        <time>2020-09-08T10:23:07Z</time>
      </trkpt>
      <trkpt lat="44.15477" lon="5.02095">
        <ele>558.2</ele>
        <time>2020-09-08T10:23:08Z</time>
      </trkpt>
      <trkpt lat="44.15477" lon="5.02096">
        <ele>558.1</ele>
        <time>2020-09-08T10:23:09Z</time>
      </trkpt>
      <trkpt lat="44.15476" lon="5.02096">
        <ele>558</ele>
        <time>2020-09-08T10:23:10Z</time>
      </trkpt>
      <trkpt lat="44.15476" lon="5.02096">
        <ele>557.9</ele>
        <time>2020-09-08T10:23:11Z</time>
      </trkpt>
      <trkpt lat="44.15476" lon="5.02096">
        <ele>557.8</ele>
        <time>2020-09-08T10:23:12Z</time>
      </trkpt>
      <trkpt lat="44.15476" lon="5.02097">
        <ele>557.7</ele>
        <time>2020-09-08T10:23:13Z</time>
      </trkpt>
      <trkpt lat="44.15476" lon="5.02097">
        <ele>557.7</ele>
        <time>2020-09-08T10:23:14Z</time>
      </trkpt>
      <trkpt lat="44.15476" lon="5.02097">
        <ele>557.6</ele>
        <time>2020-09-08T10:23:15Z</time>
      </trkpt>
      <trkpt lat="44.15476" lon="5.02097">
        <ele>557.6</ele>
        <time>2020-09-08T10:23:16Z</time>
      </trkpt>
      <trkpt lat="44.15476" lon="5.02097">
        <ele>557.6</ele>
        <time>2020-09-08T10:23:17Z</time>
      </trkpt>
      <trkpt lat="44.15476" lon="5.02097">
        <ele>557.5</ele>
        <time>2020-09-08T10:23:18Z</time>
      </trkpt>
      <trkpt lat="44.15476" lon="5.02098">
        <ele>557.4</ele>
        <time>2020-09-08T10:23:19Z</time>
      </trkpt>
      <trkpt lat="44.15476" lon="5.02098">
        <ele>557.4</ele>
        <time>2020-09-08T10:23:20Z</time>
      </trkpt>
      <trkpt lat="44.15476" lon="5.02098">
        <ele>557.4</ele>
        <time>2020-09-08T10:23:21Z</time>
      </trkpt>
      <trkpt lat="44.15476" lon="5.02098">
        <ele>557.4</ele>
        <time>2020-09-08T10:23:22Z</time>
      </trkpt>
      <trkpt lat="44.15476" lon="5.02099">
        <ele>557.2</ele>
        <time>2020-09-08T10:23:23Z</time>
      </trkpt>
      <trkpt lat="44.15476" lon="5.02099">
        <ele>557.2</ele>
        <time>2020-09-08T10:23:24Z</time>
      </trkpt>
      <trkpt lat="44.15476" lon="5.02099">
        <ele>557.2</ele>
        <time>2020-09-08T10:23:25Z</time>
      </trkpt>
      <trkpt lat="44.15476" lon="5.02099">
        <ele>557.2</ele>
        <time>2020-09-08T10:23:26Z</time>
      </trkpt>
      <trkpt lat="44.15476" lon="5.02099">
        <ele>557.2</ele>
        <time>2020-09-08T10:23:27Z</time>
      </trkpt>
      <trkpt lat="44.15476" lon="5.02099">
        <ele>557.2</ele>
        <time>2020-09-08T10:23:28Z</time>
      </trkpt>
      <trkpt lat="44.15476" lon="5.02099">
        <ele>557.2</ele>
        <time>2020-09-08T10:23:29Z</time>
      </trkpt>
      <trkpt lat="44.15476" lon="5.02099">
        <ele>557.2</ele>
        <time>2020-09-08T10:23:30Z</time>
      </trkpt>
      <trkpt lat="44.15476" lon="5.02099">
        <ele>557.2</ele>
        <time>2020-09-08T10:23:31Z</time>
      </trkpt>
      <trkpt lat="44.15476" lon="5.02098">
        <ele>557.1</ele>
        <time>2020-09-08T10:23:32Z</time>
      </trkpt>
      <trkpt lat="44.15476" lon="5.02098">
        <ele>557.1</ele>
        <time>2020-09-08T10:23:33Z</time>
      </trkpt>
      <trkpt lat="44.15476" lon="5.02098">
        <ele>557.1</ele>
        <time>2020-09-08T10:23:34Z</time>
      </trkpt>
      <trkpt lat="44.15476" lon="5.02098">
        <ele>557.1</ele>
        <time>2020-09-08T10:23:35Z</time>
      </trkpt>
      <trkpt lat="44.15476" lon="5.02098">
        <ele>557.1</ele>
        <time>2020-09-08T10:23:36Z</time>
      </trkpt>
      <trkpt lat="44.15476" lon="5.02098">
        <ele>557.1</ele>
        <time>2020-09-08T10:23:37Z</time>
      </trkpt>
      <trkpt lat="44.15476" lon="5.02098">
        <ele>557.1</ele>
        <time>2020-09-08T10:23:38Z</time>
      </trkpt>
      <trkpt lat="44.15476" lon="5.02098">
        <ele>557.1</ele>
        <time>2020-09-08T10:23:39Z</time>
      </trkpt>
      <trkpt lat="44.15476" lon="5.02098">
        <ele>557.1</ele>
        <time>2020-09-08T10:23:40Z</time>
      </trkpt>
      <trkpt lat="44.15476" lon="5.02098">
        <ele>557.1</ele>
        <time>2020-09-08T10:23:41Z</time>
      </trkpt>
      <trkpt lat="44.15476" lon="5.02098">
        <ele>557.1</ele>
        <time>2020-09-08T10:23:42Z</time>
      </trkpt>
      <trkpt lat="44.15476" lon="5.02098">
        <ele>557.1</ele>
        <time>2020-09-08T10:23:43Z</time>
      </trkpt>
      <trkpt lat="44.15476" lon="5.02098">
        <ele>557</ele>
        <time>2020-09-08T10:23:44Z</time>
      </trkpt>
      <trkpt lat="44.15476" lon="5.02098">
        <ele>557</ele>
        <time>2020-09-08T10:23:45Z</time>
      </trkpt>
      <trkpt lat="44.15476" lon="5.02098">
        <ele>557</ele>
        <time>2020-09-08T10:23:46Z</time>
      </trkpt>
      <trkpt lat="44.15476" lon="5.02098">
        <ele>557</ele>
        <time>2020-09-08T10:23:47Z</time>
      </trkpt>
      <trkpt lat="44.15476" lon="5.02098">
        <ele>557</ele>
        <time>2020-09-08T10:23:48Z</time>
      </trkpt>
      <trkpt lat="44.15476" lon="5.02098">
        <ele>557</ele>
        <time>2020-09-08T10:23:49Z</time>
      </trkpt>
      <trkpt lat="44.15476" lon="5.02098">
        <ele>557</ele>
        <time>2020-09-08T10:23:50Z</time>
      </trkpt>
      <trkpt lat="44.15476" lon="5.02098">
        <ele>557</ele>
        <time>2020-09-08T10:23:51Z</time>
      </trkpt>
      <trkpt lat="44.15476" lon="5.02098">
        <ele>557</ele>
        <time>2020-09-08T10:23:52Z</time>
      </trkpt>
      <trkpt lat="44.15476" lon="5.02098">
        <ele>556.9</ele>
        <time>2020-09-08T10:23:53Z</time>
      </trkpt>
      <trkpt lat="44.15476" lon="5.02098">
        <ele>556.9</ele>
        <time>2020-09-08T10:23:54Z</time>
      </trkpt>
      <trkpt lat="44.15476" lon="5.02098">
        <ele>556.9</ele>
        <time>2020-09-08T10:23:55Z</time>
      </trkpt>
      <trkpt lat="44.15476" lon="5.02098">
        <ele>556.9</ele>
        <time>2020-09-08T10:23:56Z</time>
      </trkpt>
      <trkpt lat="44.15476" lon="5.02097">
        <ele>556.9</ele>
        <time>2020-09-08T10:23:57Z</time>
      </trkpt>
      <trkpt lat="44.15476" lon="5.02097">
        <ele>556.9</ele>
        <time>2020-09-08T10:23:58Z</time>
      </trkpt>
      <trkpt lat="44.15476" lon="5.02097">
        <ele>556.9</ele>
        <time>2020-09-08T10:23:59Z</time>
      </trkpt>
      <trkpt lat="44.15476" lon="5.02097">
        <ele>556.9</ele>
        <time>2020-09-08T10:24:00Z</time>
      </trkpt>
      <trkpt lat="44.15476" lon="5.02097">
        <ele>556.9</ele>
        <time>2020-09-08T10:24:01Z</time>
      </trkpt>
      <trkpt lat="44.15476" lon="5.02097">
        <ele>556.9</ele>
        <time>2020-09-08T10:24:02Z</time>
      </trkpt>
      <trkpt lat="44.15476" lon="5.02097">
        <ele>556.9</ele>
        <time>2020-09-08T10:24:03Z</time>
      </trkpt>
      <trkpt lat="44.15476" lon="5.02097">
        <ele>556.9</ele>
        <time>2020-09-08T10:24:04Z</time>
      </trkpt>
      <trkpt lat="44.15476" lon="5.02097">
        <ele>556.9</ele>
        <time>2020-09-08T10:24:05Z</time>
      </trkpt>
      <trkpt lat="44.15476" lon="5.02097">
        <ele>556.9</ele>
        <time>2020-09-08T10:24:06Z</time>
      </trkpt>
      <trkpt lat="44.15476" lon="5.02097">
        <ele>556.9</ele>
        <time>2020-09-08T10:24:07Z</time>
      </trkpt>
      <trkpt lat="44.15476" lon="5.02097">
        <ele>556.8</ele>
        <time>2020-09-08T10:24:08Z</time>
      </trkpt>
      <trkpt lat="44.15477" lon="5.02097">
        <ele>556.8</ele>
        <time>2020-09-08T10:24:09Z</time>
      </trkpt>
      <trkpt lat="44.15477" lon="5.02097">
        <ele>556.8</ele>
        <time>2020-09-08T10:24:10Z</time>
      </trkpt>
      <trkpt lat="44.15477" lon="5.02097">
        <ele>556.8</ele>
        <time>2020-09-08T10:24:11Z</time>
      </trkpt>
      <trkpt lat="44.15477" lon="5.02097">
        <ele>556.8</ele>
        <time>2020-09-08T10:24:12Z</time>
      </trkpt>
      <trkpt lat="44.15477" lon="5.02097">
        <ele>556.8</ele>
        <time>2020-09-08T10:24:13Z</time>
      </trkpt>
      <trkpt lat="44.15477" lon="5.02097">
        <ele>556.8</ele>
        <time>2020-09-08T10:24:14Z</time>
      </trkpt>
      <trkpt lat="44.15477" lon="5.02097">
        <ele>556.8</ele>
        <time>2020-09-08T10:24:15Z</time>
      </trkpt>
      <trkpt lat="44.15477" lon="5.02097">
        <ele>556.8</ele>
        <time>2020-09-08T10:24:16Z</time>
      </trkpt>
      <trkpt lat="44.15477" lon="5.02097">
        <ele>556.8</ele>
        <time>2020-09-08T10:24:17Z</time>
      </trkpt>
      <trkpt lat="44.15477" lon="5.02097">
        <ele>556.7</ele>
        <time>2020-09-08T10:24:18Z</time>
      </trkpt>
      <trkpt lat="44.15477" lon="5.02097">
        <ele>556.7</ele>
        <time>2020-09-08T10:24:19Z</time>
      </trkpt>
      <trkpt lat="44.15477" lon="5.02097">
        <ele>556.7</ele>
        <time>2020-09-08T10:24:20Z</time>
      </trkpt>
      <trkpt lat="44.15477" lon="5.02097">
        <ele>556.7</ele>
        <time>2020-09-08T10:24:21Z</time>
      </trkpt>
      <trkpt lat="44.15477" lon="5.02097">
        <ele>556.7</ele>
        <time>2020-09-08T10:24:22Z</time>
      </trkpt>
      <trkpt lat="44.15477" lon="5.02096">
        <ele>556.7</ele>
        <time>2020-09-08T10:24:23Z</time>
      </trkpt>
      <trkpt lat="44.15477" lon="5.02096">
        <ele>556.7</ele>
        <time>2020-09-08T10:24:24Z</time>
      </trkpt>
      <trkpt lat="44.15477" lon="5.02096">
        <ele>556.7</ele>
        <time>2020-09-08T10:24:25Z</time>
      </trkpt>
      <trkpt lat="44.15477" lon="5.02096">
        <ele>556.7</ele>
        <time>2020-09-08T10:24:26Z</time>
      </trkpt>
      <trkpt lat="44.15477" lon="5.02096">
        <ele>556.7</ele>
        <time>2020-09-08T10:24:27Z</time>
      </trkpt>
      <trkpt lat="44.15477" lon="5.02096">
        <ele>556.7</ele>
        <time>2020-09-08T10:24:28Z</time>
      </trkpt>
      <trkpt lat="44.15477" lon="5.02096">
        <ele>556.7</ele>
        <time>2020-09-08T10:24:29Z</time>
      </trkpt>
      <trkpt lat="44.15477" lon="5.02096">
        <ele>556.6</ele>
        <time>2020-09-08T10:24:30Z</time>
      </trkpt>
      <trkpt lat="44.15477" lon="5.02096">
        <ele>556.6</ele>
        <time>2020-09-08T10:24:31Z</time>
      </trkpt>
      <trkpt lat="44.15477" lon="5.02096">
        <ele>556.6</ele>
        <time>2020-09-08T10:24:32Z</time>
      </trkpt>
      <trkpt lat="44.15477" lon="5.02096">
        <ele>556.6</ele>
        <time>2020-09-08T10:24:33Z</time>
      </trkpt>
      <trkpt lat="44.15477" lon="5.02096">
        <ele>556.6</ele>
        <time>2020-09-08T10:24:34Z</time>
      </trkpt>
      <trkpt lat="44.15477" lon="5.02096">
        <ele>556.6</ele>
        <time>2020-09-08T10:24:35Z</time>
      </trkpt>
      <trkpt lat="44.15477" lon="5.02096">
        <ele>556.6</ele>
        <time>2020-09-08T10:24:36Z</time>
      </trkpt>
      <trkpt lat="44.15477" lon="5.02096">
        <ele>556.6</ele>
        <time>2020-09-08T10:24:37Z</time>
      </trkpt>
      <trkpt lat="44.15477" lon="5.02096">
        <ele>556.6</ele>
        <time>2020-09-08T10:24:38Z</time>
      </trkpt>
      <trkpt lat="44.15477" lon="5.02096">
        <ele>556.6</ele>
        <time>2020-09-08T10:24:39Z</time>
      </trkpt>
      <trkpt lat="44.15477" lon="5.02096">
        <ele>556.6</ele>
        <time>2020-09-08T10:24:40Z</time>
      </trkpt>
      <trkpt lat="44.15477" lon="5.02096">
        <ele>556.6</ele>
        <time>2020-09-08T10:24:41Z</time>
      </trkpt>
      <trkpt lat="44.15477" lon="5.02096">
        <ele>556.6</ele>
        <time>2020-09-08T10:24:42Z</time>
      </trkpt>
      <trkpt lat="44.15477" lon="5.02096">
        <ele>556.5</ele>
        <time>2020-09-08T10:24:43Z</time>
      </trkpt>
      <trkpt lat="44.15477" lon="5.02096">
        <ele>556.5</ele>
        <time>2020-09-08T10:24:44Z</time>
      </trkpt>
      <trkpt lat="44.15477" lon="5.02096">
        <ele>556.5</ele>
        <time>2020-09-08T10:24:45Z</time>
      </trkpt>
      <trkpt lat="44.15477" lon="5.02096">
        <ele>556.5</ele>
        <time>2020-09-08T10:24:46Z</time>
      </trkpt>
      <trkpt lat="44.15477" lon="5.02096">
        <ele>556.5</ele>
        <time>2020-09-08T10:24:47Z</time>
      </trkpt>
      <trkpt lat="44.15477" lon="5.02095">
        <ele>556.5</ele>
        <time>2020-09-08T10:24:48Z</time>
      </trkpt>
      <trkpt lat="44.15477" lon="5.02095">
        <ele>556.5</ele>
        <time>2020-09-08T10:24:49Z</time>
      </trkpt>
      <trkpt lat="44.15477" lon="5.02095">
        <ele>556.5</ele>
        <time>2020-09-08T10:24:50Z</time>
      </trkpt>
      <trkpt lat="44.15477" lon="5.02095">
        <ele>556.5</ele>
        <time>2020-09-08T10:24:51Z</time>
      </trkpt>
      <trkpt lat="44.15477" lon="5.02095">
        <ele>556.5</ele>
        <time>2020-09-08T10:24:52Z</time>
      </trkpt>
      <trkpt lat="44.15477" lon="5.02095">
        <ele>556.5</ele>
        <time>2020-09-08T10:24:53Z</time>
      </trkpt>
      <trkpt lat="44.15477" lon="5.02095">
        <ele>556.5</ele>
        <time>2020-09-08T10:24:54Z</time>
      </trkpt>
      <trkpt lat="44.15477" lon="5.02095">
        <ele>556.4</ele>
        <time>2020-09-08T10:24:55Z</time>
      </trkpt>
      <trkpt lat="44.15477" lon="5.02095">
        <ele>556.4</ele>
        <time>2020-09-08T10:24:56Z</time>
      </trkpt>
      <trkpt lat="44.15477" lon="5.02095">
        <ele>556.4</ele>
        <time>2020-09-08T10:24:57Z</time>
      </trkpt>
      <trkpt lat="44.15477" lon="5.02095">
        <ele>556.4</ele>
        <time>2020-09-08T10:24:58Z</time>
      </trkpt>
      <trkpt lat="44.15477" lon="5.02095">
        <ele>556.4</ele>
        <time>2020-09-08T10:24:59Z</time>
      </trkpt>
      <trkpt lat="44.15477" lon="5.02095">
        <ele>556.4</ele>
        <time>2020-09-08T10:25:00Z</time>
      </trkpt>
      <trkpt lat="44.15477" lon="5.02095">
        <ele>556.4</ele>
        <time>2020-09-08T10:25:01Z</time>
      </trkpt>
      <trkpt lat="44.15477" lon="5.02095">
        <ele>556.4</ele>
        <time>2020-09-08T10:25:02Z</time>
      </trkpt>
      <trkpt lat="44.15477" lon="5.02095">
        <ele>556.4</ele>
        <time>2020-09-08T10:25:03Z</time>
      </trkpt>
      <trkpt lat="44.15477" lon="5.02095">
        <ele>556.4</ele>
        <time>2020-09-08T10:25:04Z</time>
      </trkpt>
      <trkpt lat="44.15477" lon="5.02095">
        <ele>556.4</ele>
        <time>2020-09-08T10:25:05Z</time>
      </trkpt>
      <trkpt lat="44.15477" lon="5.02095">
        <ele>556.4</ele>
        <time>2020-09-08T10:25:06Z</time>
      </trkpt>
      <trkpt lat="44.15477" lon="5.02095">
        <ele>556.4</ele>
        <time>2020-09-08T10:25:07Z</time>
      </trkpt>
      <trkpt lat="44.15477" lon="5.02095">
        <ele>556.3</ele>
        <time>2020-09-08T10:25:08Z</time>
      </trkpt>
      <trkpt lat="44.15477" lon="5.02095">
        <ele>556.3</ele>
        <time>2020-09-08T10:25:09Z</time>
      </trkpt>
      <trkpt lat="44.15477" lon="5.02095">
        <ele>556.3</ele>
        <time>2020-09-08T10:25:10Z</time>
      </trkpt>
      <trkpt lat="44.15477" lon="5.02095">
        <ele>556.3</ele>
        <time>2020-09-08T10:25:11Z</time>
      </trkpt>
      <trkpt lat="44.15477" lon="5.02095">
        <ele>556.3</ele>
        <time>2020-09-08T10:25:12Z</time>
      </trkpt>
      <trkpt lat="44.15477" lon="5.02094">
        <ele>556.3</ele>
        <time>2020-09-08T10:25:13Z</time>
      </trkpt>
      <trkpt lat="44.15477" lon="5.02094">
        <ele>556.3</ele>
        <time>2020-09-08T10:25:14Z</time>
      </trkpt>
      <trkpt lat="44.15477" lon="5.02094">
        <ele>556.3</ele>
        <time>2020-09-08T10:25:15Z</time>
      </trkpt>
      <trkpt lat="44.15477" lon="5.02094">
        <ele>556.3</ele>
        <time>2020-09-08T10:25:16Z</time>
      </trkpt>
      <trkpt lat="44.15477" lon="5.02094">
        <ele>556.3</ele>
        <time>2020-09-08T10:25:17Z</time>
      </trkpt>
      <trkpt lat="44.15477" lon="5.02094">
        <ele>556.3</ele>
        <time>2020-09-08T10:25:18Z</time>
      </trkpt>
      <trkpt lat="44.15477" lon="5.02094">
        <ele>556.3</ele>
        <time>2020-09-08T10:25:19Z</time>
      </trkpt>
      <trkpt lat="44.15477" lon="5.02094">
        <ele>556.3</ele>
        <time>2020-09-08T10:25:20Z</time>
      </trkpt>
      <trkpt lat="44.15477" lon="5.02094">
        <ele>556.2</ele>
        <time>2020-09-08T10:25:21Z</time>
      </trkpt>
      <trkpt lat="44.15477" lon="5.02094">
        <ele>556.2</ele>
        <time>2020-09-08T10:25:22Z</time>
      </trkpt>
      <trkpt lat="44.15477" lon="5.02094">
        <ele>556.2</ele>
        <time>2020-09-08T10:25:23Z</time>
      </trkpt>
      <trkpt lat="44.15477" lon="5.02094">
        <ele>556.2</ele>
        <time>2020-09-08T10:25:24Z</time>
      </trkpt>
      <trkpt lat="44.15477" lon="5.02094">
        <ele>556.2</ele>
        <time>2020-09-08T10:25:25Z</time>
      </trkpt>
      <trkpt lat="44.15477" lon="5.02094">
        <ele>556.2</ele>
        <time>2020-09-08T10:25:26Z</time>
      </trkpt>
      <trkpt lat="44.15477" lon="5.02094">
        <ele>556.2</ele>
        <time>2020-09-08T10:25:27Z</time>
      </trkpt>
      <trkpt lat="44.15477" lon="5.02094">
        <ele>556.2</ele>
        <time>2020-09-08T10:25:28Z</time>
      </trkpt>
      <trkpt lat="44.15477" lon="5.02094">
        <ele>556.2</ele>
        <time>2020-09-08T10:25:29Z</time>
      </trkpt>
      <trkpt lat="44.15477" lon="5.02094">
        <ele>556.2</ele>
        <time>2020-09-08T10:25:30Z</time>
      </trkpt>
      <trkpt lat="44.15477" lon="5.02094">
        <ele>556.2</ele>
        <time>2020-09-08T10:25:31Z</time>
      </trkpt>
      <trkpt lat="44.15477" lon="5.02094">
        <ele>556.2</ele>
        <time>2020-09-08T10:25:32Z</time>
      </trkpt>
      <trkpt lat="44.15478" lon="5.02094">
        <ele>556.1</ele>
        <time>2020-09-08T10:25:33Z</time>
      </trkpt>
      <trkpt lat="44.15478" lon="5.02094">
        <ele>556.1</ele>
        <time>2020-09-08T10:25:34Z</time>
      </trkpt>
      <trkpt lat="44.15478" lon="5.02094">
        <ele>556.1</ele>
        <time>2020-09-08T10:25:35Z</time>
      </trkpt>
      <trkpt lat="44.15478" lon="5.02094">
        <ele>556.1</ele>
        <time>2020-09-08T10:25:36Z</time>
      </trkpt>
      <trkpt lat="44.15478" lon="5.02094">
        <ele>556.1</ele>
        <time>2020-09-08T10:25:37Z</time>
      </trkpt>
      <trkpt lat="44.15478" lon="5.02093">
        <ele>556.1</ele>
        <time>2020-09-08T10:25:38Z</time>
      </trkpt>
      <trkpt lat="44.15478" lon="5.02093">
        <ele>556.1</ele>
        <time>2020-09-08T10:25:39Z</time>
      </trkpt>
      <trkpt lat="44.15478" lon="5.02093">
        <ele>556.1</ele>
        <time>2020-09-08T10:25:40Z</time>
      </trkpt>
      <trkpt lat="44.15478" lon="5.02093">
        <ele>556.1</ele>
        <time>2020-09-08T10:25:41Z</time>
      </trkpt>
      <trkpt lat="44.15478" lon="5.02093">
        <ele>556.1</ele>
        <time>2020-09-08T10:25:42Z</time>
      </trkpt>
      <trkpt lat="44.15478" lon="5.02093">
        <ele>556.1</ele>
        <time>2020-09-08T10:25:43Z</time>
      </trkpt>
      <trkpt lat="44.15478" lon="5.02093">
        <ele>556.1</ele>
        <time>2020-09-08T10:25:44Z</time>
      </trkpt>
      <trkpt lat="44.15478" lon="5.02093">
        <ele>556.1</ele>
        <time>2020-09-08T10:25:45Z</time>
      </trkpt>
      <trkpt lat="44.15478" lon="5.02093">
        <ele>556</ele>
        <time>2020-09-08T10:25:46Z</time>
      </trkpt>
      <trkpt lat="44.15478" lon="5.02093">
        <ele>556</ele>
        <time>2020-09-08T10:25:47Z</time>
      </trkpt>
      <trkpt lat="44.15478" lon="5.02093">
        <ele>556</ele>
        <time>2020-09-08T10:25:48Z</time>
      </trkpt>
      <trkpt lat="44.15478" lon="5.02093">
        <ele>556</ele>
        <time>2020-09-08T10:25:49Z</time>
      </trkpt>
      <trkpt lat="44.15478" lon="5.02093">
        <ele>556</ele>
        <time>2020-09-08T10:25:50Z</time>
      </trkpt>
      <trkpt lat="44.15478" lon="5.02093">
        <ele>556</ele>
        <time>2020-09-08T10:25:51Z</time>
      </trkpt>
      <trkpt lat="44.15478" lon="5.02093">
        <ele>556</ele>
        <time>2020-09-08T10:25:52Z</time>
      </trkpt>
      <trkpt lat="44.15478" lon="5.02093">
        <ele>556</ele>
        <time>2020-09-08T10:25:53Z</time>
      </trkpt>
      <trkpt lat="44.15478" lon="5.02093">
        <ele>556</ele>
        <time>2020-09-08T10:25:54Z</time>
      </trkpt>
      <trkpt lat="44.15478" lon="5.02093">
        <ele>556</ele>
        <time>2020-09-08T10:25:55Z</time>
      </trkpt>
      <trkpt lat="44.15478" lon="5.02093">
        <ele>556</ele>
        <time>2020-09-08T10:25:56Z</time>
      </trkpt>
      <trkpt lat="44.15478" lon="5.02093">
        <ele>556</ele>
        <time>2020-09-08T10:25:57Z</time>
      </trkpt>
      <trkpt lat="44.15478" lon="5.02093">
        <ele>555.9</ele>
        <time>2020-09-08T10:25:58Z</time>
      </trkpt>
      <trkpt lat="44.15478" lon="5.02093">
        <ele>555.9</ele>
        <time>2020-09-08T10:25:59Z</time>
      </trkpt>
      <trkpt lat="44.15478" lon="5.02093">
        <ele>555.9</ele>
        <time>2020-09-08T10:26:00Z</time>
      </trkpt>
      <trkpt lat="44.15478" lon="5.02093">
        <ele>555.9</ele>
        <time>2020-09-08T10:26:01Z</time>
      </trkpt>
      <trkpt lat="44.15478" lon="5.02093">
        <ele>555.9</ele>
        <time>2020-09-08T10:26:02Z</time>
      </trkpt>
      <trkpt lat="44.15478" lon="5.02092">
        <ele>555.9</ele>
        <time>2020-09-08T10:26:03Z</time>
      </trkpt>
      <trkpt lat="44.15478" lon="5.02092">
        <ele>555.9</ele>
        <time>2020-09-08T10:26:04Z</time>
      </trkpt>
      <trkpt lat="44.15478" lon="5.02092">
        <ele>555.9</ele>
        <time>2020-09-08T10:26:05Z</time>
      </trkpt>
      <trkpt lat="44.15478" lon="5.02092">
        <ele>555.9</ele>
        <time>2020-09-08T10:26:06Z</time>
      </trkpt>
      <trkpt lat="44.15478" lon="5.02092">
        <ele>555.9</ele>
        <time>2020-09-08T10:26:07Z</time>
      </trkpt>
      <trkpt lat="44.15478" lon="5.02092">
        <ele>555.9</ele>
        <time>2020-09-08T10:26:08Z</time>
      </trkpt>
      <trkpt lat="44.15478" lon="5.02092">
        <ele>555.9</ele>
        <time>2020-09-08T10:26:09Z</time>
      </trkpt>
      <trkpt lat="44.15478" lon="5.02092">
        <ele>555.9</ele>
        <time>2020-09-08T10:26:10Z</time>
      </trkpt>
      <trkpt lat="44.15478" lon="5.02092">
        <ele>555.8</ele>
        <time>2020-09-08T10:26:11Z</time>
      </trkpt>
      <trkpt lat="44.15478" lon="5.02092">
        <ele>555.8</ele>
        <time>2020-09-08T10:26:12Z</time>
      </trkpt>
      <trkpt lat="44.15478" lon="5.02092">
        <ele>555.8</ele>
        <time>2020-09-08T10:26:13Z</time>
      </trkpt>
      <trkpt lat="44.15478" lon="5.02092">
        <ele>555.8</ele>
        <time>2020-09-08T10:26:14Z</time>
      </trkpt>
      <trkpt lat="44.15478" lon="5.02092">
        <ele>555.8</ele>
        <time>2020-09-08T10:26:15Z</time>
      </trkpt>
      <trkpt lat="44.15478" lon="5.02092">
        <ele>555.8</ele>
        <time>2020-09-08T10:26:16Z</time>
      </trkpt>
      <trkpt lat="44.15478" lon="5.02092">
        <ele>555.8</ele>
        <time>2020-09-08T10:26:17Z</time>
      </trkpt>
      <trkpt lat="44.15478" lon="5.02092">
        <ele>555.8</ele>
        <time>2020-09-08T10:26:18Z</time>
      </trkpt>
      <trkpt lat="44.15478" lon="5.02092">
        <ele>555.8</ele>
        <time>2020-09-08T10:26:19Z</time>
      </trkpt>
      <trkpt lat="44.15478" lon="5.02092">
        <ele>555.8</ele>
        <time>2020-09-08T10:26:20Z</time>
      </trkpt>
      <trkpt lat="44.15478" lon="5.02092">
        <ele>555.8</ele>
        <time>2020-09-08T10:26:21Z</time>
      </trkpt>
      <trkpt lat="44.15478" lon="5.02092">
        <ele>555.8</ele>
        <time>2020-09-08T10:26:22Z</time>
      </trkpt>
      <trkpt lat="44.15478" lon="5.02092">
        <ele>555.7</ele>
        <time>2020-09-08T10:26:23Z</time>
      </trkpt>
      <trkpt lat="44.15478" lon="5.02092">
        <ele>555.7</ele>
        <time>2020-09-08T10:26:24Z</time>
      </trkpt>
      <trkpt lat="44.15478" lon="5.02092">
        <ele>555.7</ele>
        <time>2020-09-08T10:26:25Z</time>
      </trkpt>
      <trkpt lat="44.15478" lon="5.02092">
        <ele>555.7</ele>
        <time>2020-09-08T10:26:26Z</time>
      </trkpt>
      <trkpt lat="44.15478" lon="5.02092">
        <ele>555.7</ele>
        <time>2020-09-08T10:26:27Z</time>
      </trkpt>
      <trkpt lat="44.15478" lon="5.02091">
        <ele>555.7</ele>
        <time>2020-09-08T10:26:28Z</time>
      </trkpt>
      <trkpt lat="44.15478" lon="5.02091">
        <ele>555.7</ele>
        <time>2020-09-08T10:26:29Z</time>
      </trkpt>
      <trkpt lat="44.15478" lon="5.02091">
        <ele>555.7</ele>
        <time>2020-09-08T10:26:30Z</time>
      </trkpt>
      <trkpt lat="44.15478" lon="5.02091">
        <ele>555.7</ele>
        <time>2020-09-08T10:26:31Z</time>
      </trkpt>
      <trkpt lat="44.15478" lon="5.02091">
        <ele>555.7</ele>
        <time>2020-09-08T10:26:32Z</time>
      </trkpt>
      <trkpt lat="44.15478" lon="5.02091">
        <ele>555.7</ele>
        <time>2020-09-08T10:26:33Z</time>
      </trkpt>
      <trkpt lat="44.15478" lon="5.02091">
        <ele>555.7</ele>
        <time>2020-09-08T10:26:34Z</time>
      </trkpt>
      <trkpt lat="44.15478" lon="5.02091">
        <ele>555.7</ele>
        <time>2020-09-08T10:26:35Z</time>
      </trkpt>
      <trkpt lat="44.15478" lon="5.02091">
        <ele>555.6</ele>
        <time>2020-09-08T10:26:36Z</time>
      </trkpt>
      <trkpt lat="44.15478" lon="5.02091">
        <ele>555.6</ele>
        <time>2020-09-08T10:26:37Z</time>
      </trkpt>
      <trkpt lat="44.15478" lon="5.02091">
        <ele>555.6</ele>
        <time>2020-09-08T10:26:38Z</time>
      </trkpt>
      <trkpt lat="44.15478" lon="5.02091">
        <ele>555.6</ele>
        <time>2020-09-08T10:26:39Z</time>
      </trkpt>
      <trkpt lat="44.15478" lon="5.02091">
        <ele>555.6</ele>
        <time>2020-09-08T10:26:40Z</time>
      </trkpt>
      <trkpt lat="44.15478" lon="5.02091">
        <ele>555.6</ele>
        <time>2020-09-08T10:26:41Z</time>
      </trkpt>
      <trkpt lat="44.15478" lon="5.02091">
        <ele>555.6</ele>
        <time>2020-09-08T10:26:42Z</time>
      </trkpt>
      <trkpt lat="44.15478" lon="5.02091">
        <ele>555.6</ele>
        <time>2020-09-08T10:26:43Z</time>
      </trkpt>
      <trkpt lat="44.15478" lon="5.02091">
        <ele>555.6</ele>
        <time>2020-09-08T10:26:44Z</time>
      </trkpt>
      <trkpt lat="44.15478" lon="5.02091">
        <ele>555.6</ele>
        <time>2020-09-08T10:26:45Z</time>
      </trkpt>
      <trkpt lat="44.15478" lon="5.02091">
        <ele>555.6</ele>
        <time>2020-09-08T10:26:46Z</time>
      </trkpt>
      <trkpt lat="44.15478" lon="5.02091">
        <ele>555.6</ele>
        <time>2020-09-08T10:26:47Z</time>
      </trkpt>
      <trkpt lat="44.15478" lon="5.02091">
        <ele>555.5</ele>
        <time>2020-09-08T10:26:48Z</time>
      </trkpt>
      <trkpt lat="44.15478" lon="5.02091">
        <ele>555.5</ele>
        <time>2020-09-08T10:26:49Z</time>
      </trkpt>
      <trkpt lat="44.15478" lon="5.02091">
        <ele>555.5</ele>
        <time>2020-09-08T10:26:50Z</time>
      </trkpt>
      <trkpt lat="44.15478" lon="5.02091">
        <ele>555.5</ele>
        <time>2020-09-08T10:26:51Z</time>
      </trkpt>
      <trkpt lat="44.15478" lon="5.02091">
        <ele>555.5</ele>
        <time>2020-09-08T10:26:52Z</time>
      </trkpt>
      <trkpt lat="44.15478" lon="5.02091">
        <ele>555.5</ele>
        <time>2020-09-08T10:26:53Z</time>
      </trkpt>
      <trkpt lat="44.15478" lon="5.0209">
        <ele>555.5</ele>
        <time>2020-09-08T10:26:54Z</time>
      </trkpt>
      <trkpt lat="44.15478" lon="5.0209">
        <ele>555.5</ele>
        <time>2020-09-08T10:26:55Z</time>
      </trkpt>
      <trkpt lat="44.15478" lon="5.0209">
        <ele>555.5</ele>
        <time>2020-09-08T10:26:56Z</time>
      </trkpt>
      <trkpt lat="44.15479" lon="5.0209">
        <ele>555.5</ele>
        <time>2020-09-08T10:26:57Z</time>
      </trkpt>
      <trkpt lat="44.15479" lon="5.0209">
        <ele>555.5</ele>
        <time>2020-09-08T10:26:58Z</time>
      </trkpt>
      <trkpt lat="44.15479" lon="5.0209">
        <ele>555.4</ele>
        <time>2020-09-08T10:26:59Z</time>
      </trkpt>
      <trkpt lat="44.15479" lon="5.0209">
        <ele>555.4</ele>
        <time>2020-09-08T10:27:00Z</time>
      </trkpt>
      <trkpt lat="44.15479" lon="5.0209">
        <ele>555.4</ele>
        <time>2020-09-08T10:27:01Z</time>
      </trkpt>
      <trkpt lat="44.15479" lon="5.0209">
        <ele>555.4</ele>
        <time>2020-09-08T10:27:02Z</time>
      </trkpt>
      <trkpt lat="44.15479" lon="5.0209">
        <ele>555.4</ele>
        <time>2020-09-08T10:27:03Z</time>
      </trkpt>
      <trkpt lat="44.15479" lon="5.0209">
        <ele>555.4</ele>
        <time>2020-09-08T10:27:04Z</time>
      </trkpt>
      <trkpt lat="44.15479" lon="5.0209">
        <ele>555.4</ele>
        <time>2020-09-08T10:27:05Z</time>
      </trkpt>
      <trkpt lat="44.15479" lon="5.0209">
        <ele>555.4</ele>
        <time>2020-09-08T10:27:06Z</time>
      </trkpt>
      <trkpt lat="44.15479" lon="5.0209">
        <ele>555.4</ele>
        <time>2020-09-08T10:27:07Z</time>
      </trkpt>
      <trkpt lat="44.15479" lon="5.0209">
        <ele>555.4</ele>
        <time>2020-09-08T10:27:08Z</time>
      </trkpt>
      <trkpt lat="44.15479" lon="5.0209">
        <ele>555.4</ele>
        <time>2020-09-08T10:27:09Z</time>
      </trkpt>
      <trkpt lat="44.15479" lon="5.0209">
        <ele>555.4</ele>
        <time>2020-09-08T10:27:10Z</time>
      </trkpt>
      <trkpt lat="44.15479" lon="5.0209">
        <ele>555.3</ele>
        <time>2020-09-08T10:27:11Z</time>
      </trkpt>
      <trkpt lat="44.15479" lon="5.0209">
        <ele>555.3</ele>
        <time>2020-09-08T10:27:12Z</time>
      </trkpt>
      <trkpt lat="44.15479" lon="5.0209">
        <ele>555.3</ele>
        <time>2020-09-08T10:27:13Z</time>
      </trkpt>
      <trkpt lat="44.15479" lon="5.0209">
        <ele>555.3</ele>
        <time>2020-09-08T10:27:14Z</time>
      </trkpt>
      <trkpt lat="44.15479" lon="5.0209">
        <ele>555.3</ele>
        <time>2020-09-08T10:27:15Z</time>
      </trkpt>
      <trkpt lat="44.15479" lon="5.0209">
        <ele>555.3</ele>
        <time>2020-09-08T10:27:16Z</time>
      </trkpt>
      <trkpt lat="44.15479" lon="5.0209">
        <ele>555.3</ele>
        <time>2020-09-08T10:27:17Z</time>
      </trkpt>
      <trkpt lat="44.15479" lon="5.0209">
        <ele>555.2</ele>
        <time>2020-09-08T10:27:18Z</time>
      </trkpt>
      <trkpt lat="44.15479" lon="5.02089">
        <ele>555.1</ele>
        <time>2020-09-08T10:27:19Z</time>
      </trkpt>
      <trkpt lat="44.15479" lon="5.02089">
        <ele>555</ele>
        <time>2020-09-08T10:27:20Z</time>
      </trkpt>
      <trkpt lat="44.1548" lon="5.02089">
        <ele>555</ele>
        <time>2020-09-08T10:27:21Z</time>
      </trkpt>
      <trkpt lat="44.1548" lon="5.02089">
        <ele>554.8</ele>
        <time>2020-09-08T10:27:22Z</time>
      </trkpt>
      <trkpt lat="44.15481" lon="5.0209">
        <ele>554.7</ele>
        <time>2020-09-08T10:27:23Z</time>
      </trkpt>
      <trkpt lat="44.15482" lon="5.02091">
        <ele>554.3</ele>
        <time>2020-09-08T10:27:24Z</time>
      </trkpt>
      <trkpt lat="44.15482" lon="5.02092">
        <ele>554.3</ele>
        <time>2020-09-08T10:27:25Z</time>
      </trkpt>
      <trkpt lat="44.15482" lon="5.02091">
        <ele>554.2</ele>
        <time>2020-09-08T10:27:26Z</time>
      </trkpt>
      <trkpt lat="44.15482" lon="5.02091">
        <ele>554.2</ele>
        <time>2020-09-08T10:27:27Z</time>
      </trkpt>
      <trkpt lat="44.15482" lon="5.02093">
        <ele>554</ele>
        <time>2020-09-08T10:27:28Z</time>
      </trkpt>
      <trkpt lat="44.15482" lon="5.02091">
        <ele>553.7</ele>
        <time>2020-09-08T10:27:29Z</time>
      </trkpt>
      <trkpt lat="44.15482" lon="5.02092">
        <ele>553.5</ele>
        <time>2020-09-08T10:27:30Z</time>
      </trkpt>
      <trkpt lat="44.15483" lon="5.02092">
        <ele>553.3</ele>
        <time>2020-09-08T10:27:31Z</time>
      </trkpt>
      <trkpt lat="44.15483" lon="5.02092">
        <ele>553.3</ele>
        <time>2020-09-08T10:27:32Z</time>
      </trkpt>
      <trkpt lat="44.15483" lon="5.02092">
        <ele>553.3</ele>
        <time>2020-09-08T10:27:33Z</time>
      </trkpt>
      <trkpt lat="44.15483" lon="5.02093">
        <ele>553.1</ele>
        <time>2020-09-08T10:27:34Z</time>
      </trkpt>
      <trkpt lat="44.15484" lon="5.02091">
        <ele>552.8</ele>
        <time>2020-09-08T10:27:35Z</time>
      </trkpt>
      <trkpt lat="44.15485" lon="5.02093">
        <ele>552.6</ele>
        <time>2020-09-08T10:27:36Z</time>
      </trkpt>
      <trkpt lat="44.15485" lon="5.02093">
        <ele>552.6</ele>
        <time>2020-09-08T10:27:37Z</time>
      </trkpt>
      <trkpt lat="44.15486" lon="5.02092">
        <ele>552.3</ele>
        <time>2020-09-08T10:27:38Z</time>
      </trkpt>
      <trkpt lat="44.15486" lon="5.02091">
        <ele>552.2</ele>
        <time>2020-09-08T10:27:39Z</time>
      </trkpt>
      <trkpt lat="44.15486" lon="5.0209">
        <ele>552</ele>
        <time>2020-09-08T10:27:40Z</time>
      </trkpt>
      <trkpt lat="44.15485" lon="5.02091">
        <ele>551.8</ele>
        <time>2020-09-08T10:27:41Z</time>
      </trkpt>
      <trkpt lat="44.15486" lon="5.02092">
        <ele>551.7</ele>
        <time>2020-09-08T10:27:42Z</time>
      </trkpt>
      <trkpt lat="44.15486" lon="5.02091">
        <ele>551.6</ele>
        <time>2020-09-08T10:27:43Z</time>
      </trkpt>
      <trkpt lat="44.15487" lon="5.0209">
        <ele>551.5</ele>
        <time>2020-09-08T10:27:44Z</time>
      </trkpt>
      <trkpt lat="44.15487" lon="5.0209">
        <ele>551.4</ele>
        <time>2020-09-08T10:27:45Z</time>
      </trkpt>
      <trkpt lat="44.15487" lon="5.02091">
        <ele>551.3</ele>
        <time>2020-09-08T10:27:46Z</time>
      </trkpt>
      <trkpt lat="44.15487" lon="5.02091">
        <ele>551.2</ele>
        <time>2020-09-08T10:27:47Z</time>
      </trkpt>
      <trkpt lat="44.1549" lon="5.02092">
        <ele>550.7</ele>
        <time>2020-09-08T10:27:48Z</time>
      </trkpt>
      <trkpt lat="44.1549" lon="5.02092">
        <ele>550.7</ele>
        <time>2020-09-08T10:27:49Z</time>
      </trkpt>
      <trkpt lat="44.15489" lon="5.02093">
        <ele>550.6</ele>
        <time>2020-09-08T10:27:50Z</time>
      </trkpt>
      <trkpt lat="44.15491" lon="5.02093">
        <ele>550.4</ele>
        <time>2020-09-08T10:27:51Z</time>
      </trkpt>
      <trkpt lat="44.15492" lon="5.02093">
        <ele>550.2</ele>
        <time>2020-09-08T10:27:52Z</time>
      </trkpt>
      <trkpt lat="44.15493" lon="5.02093">
        <ele>550.1</ele>
        <time>2020-09-08T10:27:53Z</time>
      </trkpt>
      <trkpt lat="44.15493" lon="5.02093">
        <ele>550</ele>
        <time>2020-09-08T10:27:54Z</time>
      </trkpt>
      <trkpt lat="44.15494" lon="5.02093">
        <ele>550</ele>
        <time>2020-09-08T10:27:55Z</time>
      </trkpt>
      <trkpt lat="44.15493" lon="5.02094">
        <ele>549.9</ele>
        <time>2020-09-08T10:27:56Z</time>
      </trkpt>
      <trkpt lat="44.15495" lon="5.02095">
        <ele>549.6</ele>
        <time>2020-09-08T10:27:57Z</time>
      </trkpt>
      <trkpt lat="44.15494" lon="5.02096">
        <ele>549.6</ele>
        <time>2020-09-08T10:27:58Z</time>
      </trkpt>
      <trkpt lat="44.15494" lon="5.02097">
        <ele>549.5</ele>
        <time>2020-09-08T10:27:59Z</time>
      </trkpt>
      <trkpt lat="44.15494" lon="5.02098">
        <ele>549.4</ele>
        <time>2020-09-08T10:28:00Z</time>
      </trkpt>
      <trkpt lat="44.15495" lon="5.02099">
        <ele>549.3</ele>
        <time>2020-09-08T10:28:01Z</time>
      </trkpt>
      <trkpt lat="44.15495" lon="5.021">
        <ele>549.2</ele>
        <time>2020-09-08T10:28:02Z</time>
      </trkpt>
      <trkpt lat="44.15496" lon="5.02101">
        <ele>549.1</ele>
        <time>2020-09-08T10:28:03Z</time>
      </trkpt>
      <trkpt lat="44.15496" lon="5.02102">
        <ele>549</ele>
        <time>2020-09-08T10:28:04Z</time>
      </trkpt>
      <trkpt lat="44.15497" lon="5.02102">
        <ele>548.9</ele>
        <time>2020-09-08T10:28:05Z</time>
      </trkpt>
      <trkpt lat="44.15496" lon="5.02102">
        <ele>548.8</ele>
        <time>2020-09-08T10:28:06Z</time>
      </trkpt>
      <trkpt lat="44.15497" lon="5.02101">
        <ele>548.8</ele>
        <time>2020-09-08T10:28:07Z</time>
      </trkpt>
      <trkpt lat="44.15497" lon="5.02101">
        <ele>548.7</ele>
        <time>2020-09-08T10:28:08Z</time>
      </trkpt>
      <trkpt lat="44.15498" lon="5.02101">
        <ele>548.7</ele>
        <time>2020-09-08T10:28:09Z</time>
      </trkpt>
      <trkpt lat="44.15498" lon="5.02102">
        <ele>548.7</ele>
        <time>2020-09-08T10:28:10Z</time>
      </trkpt>
      <trkpt lat="44.15498" lon="5.02102">
        <ele>548.7</ele>
        <time>2020-09-08T10:28:11Z</time>
      </trkpt>
      <trkpt lat="44.15498" lon="5.02103">
        <ele>548.6</ele>
        <time>2020-09-08T10:28:12Z</time>
      </trkpt>
      <trkpt lat="44.15498" lon="5.02102">
        <ele>548.6</ele>
        <time>2020-09-08T10:28:13Z</time>
      </trkpt>
      <trkpt lat="44.15499" lon="5.02102">
        <ele>548.5</ele>
        <time>2020-09-08T10:28:14Z</time>
      </trkpt>
      <trkpt lat="44.155" lon="5.02103">
        <ele>548.4</ele>
        <time>2020-09-08T10:28:15Z</time>
      </trkpt>
      <trkpt lat="44.15499" lon="5.02105">
        <ele>548.4</ele>
        <time>2020-09-08T10:28:16Z</time>
      </trkpt>
      <trkpt lat="44.155" lon="5.02105">
        <ele>548.3</ele>
        <time>2020-09-08T10:28:17Z</time>
      </trkpt>
      <trkpt lat="44.15501" lon="5.02105">
        <ele>548.3</ele>
        <time>2020-09-08T10:28:18Z</time>
      </trkpt>
      <trkpt lat="44.15501" lon="5.02106">
        <ele>548.3</ele>
        <time>2020-09-08T10:28:19Z</time>
      </trkpt>
      <trkpt lat="44.15502" lon="5.02105">
        <ele>548.3</ele>
        <time>2020-09-08T10:28:20Z</time>
      </trkpt>
      <trkpt lat="44.15503" lon="5.02106">
        <ele>548.3</ele>
        <time>2020-09-08T10:28:21Z</time>
      </trkpt>
      <trkpt lat="44.15503" lon="5.02107">
        <ele>548.2</ele>
        <time>2020-09-08T10:28:22Z</time>
      </trkpt>
      <trkpt lat="44.15503" lon="5.02107">
        <ele>548.2</ele>
        <time>2020-09-08T10:28:23Z</time>
      </trkpt>
      <trkpt lat="44.15503" lon="5.02107">
        <ele>548.2</ele>
        <time>2020-09-08T10:28:24Z</time>
      </trkpt>
      <trkpt lat="44.15504" lon="5.02107">
        <ele>548.2</ele>
        <time>2020-09-08T10:28:25Z</time>
      </trkpt>
      <trkpt lat="44.15504" lon="5.02108">
        <ele>548.2</ele>
        <time>2020-09-08T10:28:26Z</time>
      </trkpt>
      <trkpt lat="44.15504" lon="5.0211">
        <ele>548.2</ele>
        <time>2020-09-08T10:28:27Z</time>
      </trkpt>
      <trkpt lat="44.15505" lon="5.0211">
        <ele>548.2</ele>
        <time>2020-09-08T10:28:28Z</time>
      </trkpt>
      <trkpt lat="44.15507" lon="5.0211">
        <ele>548.2</ele>
        <time>2020-09-08T10:28:29Z</time>
      </trkpt>
      <trkpt lat="44.15507" lon="5.0211">
        <ele>548.2</ele>
        <time>2020-09-08T10:28:30Z</time>
      </trkpt>
      <trkpt lat="44.15508" lon="5.02111">
        <ele>548.2</ele>
        <time>2020-09-08T10:28:31Z</time>
      </trkpt>
      <trkpt lat="44.15508" lon="5.02113">
        <ele>548.2</ele>
        <time>2020-09-08T10:28:32Z</time>
      </trkpt>
      <trkpt lat="44.15507" lon="5.02115">
        <ele>548.2</ele>
        <time>2020-09-08T10:28:33Z</time>
      </trkpt>
      <trkpt lat="44.15508" lon="5.02116">
        <ele>548.3</ele>
        <time>2020-09-08T10:28:34Z</time>
      </trkpt>
      <trkpt lat="44.15508" lon="5.02116">
        <ele>548.3</ele>
        <time>2020-09-08T10:28:35Z</time>
      </trkpt>
      <trkpt lat="44.15508" lon="5.02116">
        <ele>548.3</ele>
        <time>2020-09-08T10:28:36Z</time>
      </trkpt>
      <trkpt lat="44.15508" lon="5.02116">
        <ele>548.3</ele>
        <time>2020-09-08T10:28:37Z</time>
      </trkpt>
      <trkpt lat="44.15508" lon="5.02117">
        <ele>548.3</ele>
        <time>2020-09-08T10:28:38Z</time>
      </trkpt>
      <trkpt lat="44.15509" lon="5.02117">
        <ele>548.3</ele>
        <time>2020-09-08T10:28:39Z</time>
      </trkpt>
      <trkpt lat="44.15508" lon="5.02117">
        <ele>548.3</ele>
        <time>2020-09-08T10:28:40Z</time>
      </trkpt>
      <trkpt lat="44.15509" lon="5.02117">
        <ele>548.4</ele>
        <time>2020-09-08T10:28:41Z</time>
      </trkpt>
      <trkpt lat="44.15509" lon="5.02117">
        <ele>548.4</ele>
        <time>2020-09-08T10:28:42Z</time>
      </trkpt>
      <trkpt lat="44.15509" lon="5.02118">
        <ele>548.4</ele>
        <time>2020-09-08T10:28:43Z</time>
      </trkpt>
      <trkpt lat="44.15511" lon="5.02117">
        <ele>548.4</ele>
        <time>2020-09-08T10:28:44Z</time>
      </trkpt>
      <trkpt lat="44.15512" lon="5.02117">
        <ele>548.5</ele>
        <time>2020-09-08T10:28:45Z</time>
      </trkpt>
      <trkpt lat="44.15513" lon="5.02118">
        <ele>548.6</ele>
        <time>2020-09-08T10:28:46Z</time>
      </trkpt>
      <trkpt lat="44.15513" lon="5.02119">
        <ele>548.6</ele>
        <time>2020-09-08T10:28:47Z</time>
      </trkpt>
      <trkpt lat="44.15512" lon="5.0212">
        <ele>548.6</ele>
        <time>2020-09-08T10:28:48Z</time>
      </trkpt>
      <trkpt lat="44.15513" lon="5.02122">
        <ele>548.7</ele>
        <time>2020-09-08T10:28:49Z</time>
      </trkpt>
      <trkpt lat="44.15514" lon="5.02123">
        <ele>548.8</ele>
        <time>2020-09-08T10:28:50Z</time>
      </trkpt>
      <trkpt lat="44.15514" lon="5.02125">
        <ele>548.9</ele>
        <time>2020-09-08T10:28:51Z</time>
      </trkpt>
      <trkpt lat="44.15513" lon="5.02126">
        <ele>549</ele>
        <time>2020-09-08T10:28:52Z</time>
      </trkpt>
      <trkpt lat="44.15513" lon="5.02126">
        <ele>549</ele>
        <time>2020-09-08T10:28:53Z</time>
      </trkpt>
      <trkpt lat="44.15514" lon="5.02125">
        <ele>549</ele>
        <time>2020-09-08T10:28:54Z</time>
      </trkpt>
      <trkpt lat="44.15514" lon="5.02126">
        <ele>549</ele>
        <time>2020-09-08T10:28:55Z</time>
      </trkpt>
      <trkpt lat="44.15515" lon="5.02128">
        <ele>549.2</ele>
        <time>2020-09-08T10:28:56Z</time>
      </trkpt>
      <trkpt lat="44.15516" lon="5.02129">
        <ele>549.3</ele>
        <time>2020-09-08T10:28:57Z</time>
      </trkpt>
      <trkpt lat="44.15517" lon="5.0213">
        <ele>549.3</ele>
        <time>2020-09-08T10:28:58Z</time>
      </trkpt>
      <trkpt lat="44.15517" lon="5.02131">
        <ele>549.4</ele>
        <time>2020-09-08T10:28:59Z</time>
      </trkpt>
      <trkpt lat="44.15516" lon="5.02131">
        <ele>549.4</ele>
        <time>2020-09-08T10:29:00Z</time>
      </trkpt>
      <trkpt lat="44.15516" lon="5.02134">
        <ele>549.6</ele>
        <time>2020-09-08T10:29:01Z</time>
      </trkpt>
      <trkpt lat="44.15516" lon="5.02134">
        <ele>549.6</ele>
        <time>2020-09-08T10:29:02Z</time>
      </trkpt>
      <trkpt lat="44.15517" lon="5.02134">
        <ele>549.7</ele>
        <time>2020-09-08T10:29:03Z</time>
      </trkpt>
      <trkpt lat="44.15517" lon="5.02136">
        <ele>549.9</ele>
        <time>2020-09-08T10:29:04Z</time>
      </trkpt>
      <trkpt lat="44.15517" lon="5.02136">
        <ele>549.9</ele>
        <time>2020-09-08T10:29:05Z</time>
      </trkpt>
      <trkpt lat="44.15517" lon="5.02138">
        <ele>549.9</ele>
        <time>2020-09-08T10:29:06Z</time>
      </trkpt>
      <trkpt lat="44.15518" lon="5.02139">
        <ele>550</ele>
        <time>2020-09-08T10:29:07Z</time>
      </trkpt>
      <trkpt lat="44.15519" lon="5.0214">
        <ele>550.1</ele>
        <time>2020-09-08T10:29:08Z</time>
      </trkpt>
      <trkpt lat="44.15519" lon="5.02141">
        <ele>550.2</ele>
        <time>2020-09-08T10:29:09Z</time>
      </trkpt>
      <trkpt lat="44.15519" lon="5.02142">
        <ele>550.3</ele>
        <time>2020-09-08T10:29:10Z</time>
      </trkpt>
      <trkpt lat="44.15519" lon="5.02142">
        <ele>550.3</ele>
        <time>2020-09-08T10:29:11Z</time>
      </trkpt>
      <trkpt lat="44.1552" lon="5.02143">
        <ele>550.4</ele>
        <time>2020-09-08T10:29:12Z</time>
      </trkpt>
      <trkpt lat="44.1552" lon="5.02144">
        <ele>550.4</ele>
        <time>2020-09-08T10:29:13Z</time>
      </trkpt>
      <trkpt lat="44.1552" lon="5.02146">
        <ele>550.5</ele>
        <time>2020-09-08T10:29:14Z</time>
      </trkpt>
      <trkpt lat="44.1552" lon="5.02147">
        <ele>550.6</ele>
        <time>2020-09-08T10:29:15Z</time>
      </trkpt>
      <trkpt lat="44.1552" lon="5.02147">
        <ele>550.6</ele>
        <time>2020-09-08T10:29:16Z</time>
      </trkpt>
      <trkpt lat="44.1552" lon="5.02148">
        <ele>550.6</ele>
        <time>2020-09-08T10:29:17Z</time>
      </trkpt>
      <trkpt lat="44.1552" lon="5.02149">
        <ele>550.7</ele>
        <time>2020-09-08T10:29:18Z</time>
      </trkpt>
      <trkpt lat="44.1552" lon="5.02149">
        <ele>550.7</ele>
        <time>2020-09-08T10:29:19Z</time>
      </trkpt>
      <trkpt lat="44.1552" lon="5.02151">
        <ele>550.8</ele>
        <time>2020-09-08T10:29:20Z</time>
      </trkpt>
      <trkpt lat="44.1552" lon="5.02151">
        <ele>550.8</ele>
        <time>2020-09-08T10:29:21Z</time>
      </trkpt>
      <trkpt lat="44.1552" lon="5.02152">
        <ele>550.8</ele>
        <time>2020-09-08T10:29:22Z</time>
      </trkpt>
      <trkpt lat="44.15521" lon="5.02153">
        <ele>550.9</ele>
        <time>2020-09-08T10:29:23Z</time>
      </trkpt>
      <trkpt lat="44.1552" lon="5.02154">
        <ele>551</ele>
        <time>2020-09-08T10:29:24Z</time>
      </trkpt>
      <trkpt lat="44.15521" lon="5.02155">
        <ele>551.1</ele>
        <time>2020-09-08T10:29:25Z</time>
      </trkpt>
      <trkpt lat="44.15521" lon="5.02158">
        <ele>551.2</ele>
        <time>2020-09-08T10:29:26Z</time>
      </trkpt>
      <trkpt lat="44.1552" lon="5.02159">
        <ele>551.2</ele>
        <time>2020-09-08T10:29:27Z</time>
      </trkpt>
      <trkpt lat="44.15521" lon="5.02159">
        <ele>551.2</ele>
        <time>2020-09-08T10:29:28Z</time>
      </trkpt>
      <trkpt lat="44.15521" lon="5.02159">
        <ele>551.3</ele>
        <time>2020-09-08T10:29:29Z</time>
      </trkpt>
      <trkpt lat="44.15522" lon="5.02159">
        <ele>551.3</ele>
        <time>2020-09-08T10:29:30Z</time>
      </trkpt>
      <trkpt lat="44.15522" lon="5.02159">
        <ele>551.3</ele>
        <time>2020-09-08T10:29:31Z</time>
      </trkpt>
      <trkpt lat="44.15523" lon="5.02161">
        <ele>551.4</ele>
        <time>2020-09-08T10:29:32Z</time>
      </trkpt>
      <trkpt lat="44.15523" lon="5.02162">
        <ele>551.4</ele>
        <time>2020-09-08T10:29:33Z</time>
      </trkpt>
      <trkpt lat="44.15523" lon="5.02163">
        <ele>551.4</ele>
        <time>2020-09-08T10:29:34Z</time>
      </trkpt>
      <trkpt lat="44.15523" lon="5.02163">
        <ele>551.4</ele>
        <time>2020-09-08T10:29:35Z</time>
      </trkpt>
      <trkpt lat="44.15523" lon="5.02163">
        <ele>551.4</ele>
        <time>2020-09-08T10:29:36Z</time>
      </trkpt>
      <trkpt lat="44.15523" lon="5.02164">
        <ele>551.4</ele>
        <time>2020-09-08T10:29:37Z</time>
      </trkpt>
      <trkpt lat="44.15522" lon="5.02165">
        <ele>551.5</ele>
        <time>2020-09-08T10:29:38Z</time>
      </trkpt>
      <trkpt lat="44.15522" lon="5.02166">
        <ele>551.5</ele>
        <time>2020-09-08T10:29:39Z</time>
      </trkpt>
      <trkpt lat="44.15522" lon="5.02166">
        <ele>551.5</ele>
        <time>2020-09-08T10:29:40Z</time>
      </trkpt>
      <trkpt lat="44.15521" lon="5.02166">
        <ele>551.5</ele>
        <time>2020-09-08T10:29:41Z</time>
      </trkpt>
      <trkpt lat="44.15522" lon="5.02167">
        <ele>551.5</ele>
        <time>2020-09-08T10:29:42Z</time>
      </trkpt>
      <trkpt lat="44.15522" lon="5.02167">
        <ele>551.5</ele>
        <time>2020-09-08T10:29:43Z</time>
      </trkpt>
      <trkpt lat="44.15521" lon="5.02167">
        <ele>551.5</ele>
        <time>2020-09-08T10:29:44Z</time>
      </trkpt>
      <trkpt lat="44.15521" lon="5.02167">
        <ele>551.5</ele>
        <time>2020-09-08T10:29:45Z</time>
      </trkpt>
      <trkpt lat="44.15521" lon="5.02167">
        <ele>551.5</ele>
        <time>2020-09-08T10:29:46Z</time>
      </trkpt>
      <trkpt lat="44.1552" lon="5.02169">
        <ele>551.5</ele>
        <time>2020-09-08T10:29:47Z</time>
      </trkpt>
      <trkpt lat="44.15522" lon="5.0217">
        <ele>551.5</ele>
        <time>2020-09-08T10:29:48Z</time>
      </trkpt>
      <trkpt lat="44.15522" lon="5.0217">
        <ele>551.5</ele>
        <time>2020-09-08T10:29:49Z</time>
      </trkpt>
      <trkpt lat="44.15523" lon="5.02171">
        <ele>551.5</ele>
        <time>2020-09-08T10:29:50Z</time>
      </trkpt>
      <trkpt lat="44.15523" lon="5.02171">
        <ele>551.5</ele>
        <time>2020-09-08T10:29:51Z</time>
      </trkpt>
      <trkpt lat="44.15524" lon="5.02173">
        <ele>551.4</ele>
        <time>2020-09-08T10:29:52Z</time>
      </trkpt>
      <trkpt lat="44.15524" lon="5.02174">
        <ele>551.4</ele>
        <time>2020-09-08T10:29:53Z</time>
      </trkpt>
      <trkpt lat="44.15524" lon="5.02175">
        <ele>551.4</ele>
        <time>2020-09-08T10:29:54Z</time>
      </trkpt>
      <trkpt lat="44.15524" lon="5.02176">
        <ele>551.4</ele>
        <time>2020-09-08T10:29:55Z</time>
      </trkpt>
      <trkpt lat="44.15523" lon="5.02178">
        <ele>551.3</ele>
        <time>2020-09-08T10:29:56Z</time>
      </trkpt>
      <trkpt lat="44.15523" lon="5.0218">
        <ele>551.3</ele>
        <time>2020-09-08T10:29:57Z</time>
      </trkpt>
      <trkpt lat="44.15522" lon="5.02181">
        <ele>551.3</ele>
        <time>2020-09-08T10:29:58Z</time>
      </trkpt>
      <trkpt lat="44.15523" lon="5.02181">
        <ele>551.2</ele>
        <time>2020-09-08T10:29:59Z</time>
      </trkpt>
      <trkpt lat="44.15523" lon="5.02181">
        <ele>551.2</ele>
        <time>2020-09-08T10:30:00Z</time>
      </trkpt>
      <trkpt lat="44.15524" lon="5.02182">
        <ele>551.2</ele>
        <time>2020-09-08T10:30:01Z</time>
      </trkpt>
      <trkpt lat="44.15525" lon="5.02182">
        <ele>551.2</ele>
        <time>2020-09-08T10:30:02Z</time>
      </trkpt>
      <trkpt lat="44.15525" lon="5.02183">
        <ele>551.2</ele>
        <time>2020-09-08T10:30:03Z</time>
      </trkpt>
      <trkpt lat="44.15526" lon="5.02184">
        <ele>551.1</ele>
        <time>2020-09-08T10:30:04Z</time>
      </trkpt>
      <trkpt lat="44.15525" lon="5.02184">
        <ele>551.1</ele>
        <time>2020-09-08T10:30:05Z</time>
      </trkpt>
      <trkpt lat="44.15525" lon="5.02184">
        <ele>551.1</ele>
        <time>2020-09-08T10:30:06Z</time>
      </trkpt>
      <trkpt lat="44.15526" lon="5.02185">
        <ele>551.1</ele>
        <time>2020-09-08T10:30:07Z</time>
      </trkpt>
      <trkpt lat="44.15526" lon="5.02185">
        <ele>551.1</ele>
        <time>2020-09-08T10:30:08Z</time>
      </trkpt>
      <trkpt lat="44.15526" lon="5.02188">
        <ele>551</ele>
        <time>2020-09-08T10:30:09Z</time>
      </trkpt>
      <trkpt lat="44.15526" lon="5.02189">
        <ele>551</ele>
        <time>2020-09-08T10:30:10Z</time>
      </trkpt>
      <trkpt lat="44.15525" lon="5.02189">
        <ele>551</ele>
        <time>2020-09-08T10:30:11Z</time>
      </trkpt>
      <trkpt lat="44.15526" lon="5.02189">
        <ele>551</ele>
        <time>2020-09-08T10:30:12Z</time>
      </trkpt>
      <trkpt lat="44.15526" lon="5.0219">
        <ele>551</ele>
        <time>2020-09-08T10:30:13Z</time>
      </trkpt>
      <trkpt lat="44.15526" lon="5.0219">
        <ele>551</ele>
        <time>2020-09-08T10:30:14Z</time>
      </trkpt>
      <trkpt lat="44.15526" lon="5.0219">
        <ele>551</ele>
        <time>2020-09-08T10:30:15Z</time>
      </trkpt>
      <trkpt lat="44.15526" lon="5.0219">
        <ele>551</ele>
        <time>2020-09-08T10:30:16Z</time>
      </trkpt>
      <trkpt lat="44.15526" lon="5.0219">
        <ele>551</ele>
        <time>2020-09-08T10:30:17Z</time>
      </trkpt>
      <trkpt lat="44.15526" lon="5.0219">
        <ele>551</ele>
        <time>2020-09-08T10:30:18Z</time>
      </trkpt>
      <trkpt lat="44.15527" lon="5.0219">
        <ele>551</ele>
        <time>2020-09-08T10:30:19Z</time>
      </trkpt>
      <trkpt lat="44.15527" lon="5.02191">
        <ele>551</ele>
        <time>2020-09-08T10:30:20Z</time>
      </trkpt>
      <trkpt lat="44.15527" lon="5.02192">
        <ele>551</ele>
        <time>2020-09-08T10:30:21Z</time>
      </trkpt>
      <trkpt lat="44.15528" lon="5.02192">
        <ele>551</ele>
        <time>2020-09-08T10:30:22Z</time>
      </trkpt>
      <trkpt lat="44.15527" lon="5.02192">
        <ele>551</ele>
        <time>2020-09-08T10:30:23Z</time>
      </trkpt>
      <trkpt lat="44.15527" lon="5.02192">
        <ele>550.9</ele>
        <time>2020-09-08T10:30:24Z</time>
      </trkpt>
      <trkpt lat="44.15528" lon="5.02192">
        <ele>550.9</ele>
        <time>2020-09-08T10:30:25Z</time>
      </trkpt>
      <trkpt lat="44.15528" lon="5.02192">
        <ele>550.9</ele>
        <time>2020-09-08T10:30:26Z</time>
      </trkpt>
      <trkpt lat="44.15529" lon="5.02194">
        <ele>550.9</ele>
        <time>2020-09-08T10:30:27Z</time>
      </trkpt>
      <trkpt lat="44.1553" lon="5.02195">
        <ele>550.9</ele>
        <time>2020-09-08T10:30:28Z</time>
      </trkpt>
      <trkpt lat="44.15531" lon="5.02196">
        <ele>550.9</ele>
        <time>2020-09-08T10:30:29Z</time>
      </trkpt>
      <trkpt lat="44.15532" lon="5.02196">
        <ele>550.9</ele>
        <time>2020-09-08T10:30:30Z</time>
      </trkpt>
      <trkpt lat="44.15532" lon="5.02197">
        <ele>550.9</ele>
        <time>2020-09-08T10:30:31Z</time>
      </trkpt>
      <trkpt lat="44.15532" lon="5.02197">
        <ele>550.9</ele>
        <time>2020-09-08T10:30:32Z</time>
      </trkpt>
      <trkpt lat="44.15533" lon="5.02198">
        <ele>550.9</ele>
        <time>2020-09-08T10:30:33Z</time>
      </trkpt>
      <trkpt lat="44.15533" lon="5.02198">
        <ele>551</ele>
        <time>2020-09-08T10:30:34Z</time>
      </trkpt>
      <trkpt lat="44.15534" lon="5.02201">
        <ele>551</ele>
        <time>2020-09-08T10:30:35Z</time>
      </trkpt>
      <trkpt lat="44.15535" lon="5.02202">
        <ele>551</ele>
        <time>2020-09-08T10:30:36Z</time>
      </trkpt>
      <trkpt lat="44.15535" lon="5.02203">
        <ele>551</ele>
        <time>2020-09-08T10:30:37Z</time>
      </trkpt>
      <trkpt lat="44.15536" lon="5.02204">
        <ele>551</ele>
        <time>2020-09-08T10:30:38Z</time>
      </trkpt>
      <trkpt lat="44.15536" lon="5.02206">
        <ele>551.1</ele>
        <time>2020-09-08T10:30:39Z</time>
      </trkpt>
      <trkpt lat="44.15538" lon="5.02207">
        <ele>551.1</ele>
        <time>2020-09-08T10:30:40Z</time>
      </trkpt>
      <trkpt lat="44.15538" lon="5.02207">
        <ele>551.1</ele>
        <time>2020-09-08T10:30:41Z</time>
      </trkpt>
      <trkpt lat="44.15538" lon="5.02207">
        <ele>551.1</ele>
        <time>2020-09-08T10:30:42Z</time>
      </trkpt>
      <trkpt lat="44.15538" lon="5.02207">
        <ele>551.2</ele>
        <time>2020-09-08T10:30:43Z</time>
      </trkpt>
      <trkpt lat="44.15538" lon="5.02207">
        <ele>551.2</ele>
        <time>2020-09-08T10:30:44Z</time>
      </trkpt>
      <trkpt lat="44.15538" lon="5.02208">
        <ele>551.2</ele>
        <time>2020-09-08T10:30:45Z</time>
      </trkpt>
      <trkpt lat="44.15539" lon="5.0221">
        <ele>551.2</ele>
        <time>2020-09-08T10:30:46Z</time>
      </trkpt>
      <trkpt lat="44.1554" lon="5.02212">
        <ele>551.3</ele>
        <time>2020-09-08T10:30:47Z</time>
      </trkpt>
      <trkpt lat="44.1554" lon="5.02213">
        <ele>551.3</ele>
        <time>2020-09-08T10:30:48Z</time>
      </trkpt>
      <trkpt lat="44.1554" lon="5.02214">
        <ele>551.4</ele>
        <time>2020-09-08T10:30:49Z</time>
      </trkpt>
      <trkpt lat="44.1554" lon="5.02215">
        <ele>551.4</ele>
        <time>2020-09-08T10:30:50Z</time>
      </trkpt>
      <trkpt lat="44.1554" lon="5.02217">
        <ele>551.4</ele>
        <time>2020-09-08T10:30:51Z</time>
      </trkpt>
      <trkpt lat="44.1554" lon="5.02217">
        <ele>551.5</ele>
        <time>2020-09-08T10:30:52Z</time>
      </trkpt>
      <trkpt lat="44.15542" lon="5.02218">
        <ele>551.5</ele>
        <time>2020-09-08T10:30:53Z</time>
      </trkpt>
      <trkpt lat="44.15542" lon="5.02218">
        <ele>551.5</ele>
        <time>2020-09-08T10:30:54Z</time>
      </trkpt>
      <trkpt lat="44.15543" lon="5.02219">
        <ele>551.6</ele>
        <time>2020-09-08T10:30:55Z</time>
      </trkpt>
      <trkpt lat="44.15542" lon="5.02221">
        <ele>551.6</ele>
        <time>2020-09-08T10:30:56Z</time>
      </trkpt>
      <trkpt lat="44.15542" lon="5.02221">
        <ele>551.6</ele>
        <time>2020-09-08T10:30:57Z</time>
      </trkpt>
      <trkpt lat="44.15542" lon="5.02221">
        <ele>551.6</ele>
        <time>2020-09-08T10:30:58Z</time>
      </trkpt>
      <trkpt lat="44.15542" lon="5.02221">
        <ele>551.6</ele>
        <time>2020-09-08T10:30:59Z</time>
      </trkpt>
      <trkpt lat="44.15543" lon="5.02221">
        <ele>551.6</ele>
        <time>2020-09-08T10:31:00Z</time>
      </trkpt>
      <trkpt lat="44.15542" lon="5.02222">
        <ele>551.6</ele>
        <time>2020-09-08T10:31:01Z</time>
      </trkpt>
      <trkpt lat="44.15542" lon="5.02223">
        <ele>551.7</ele>
        <time>2020-09-08T10:31:02Z</time>
      </trkpt>
      <trkpt lat="44.15542" lon="5.02225">
        <ele>551.7</ele>
        <time>2020-09-08T10:31:03Z</time>
      </trkpt>
      <trkpt lat="44.15543" lon="5.02226">
        <ele>551.7</ele>
        <time>2020-09-08T10:31:04Z</time>
      </trkpt>
      <trkpt lat="44.15543" lon="5.02228">
        <ele>551.7</ele>
        <time>2020-09-08T10:31:05Z</time>
      </trkpt>
      <trkpt lat="44.15544" lon="5.02231">
        <ele>551.8</ele>
        <time>2020-09-08T10:31:06Z</time>
      </trkpt>
      <trkpt lat="44.15545" lon="5.02232">
        <ele>551.8</ele>
        <time>2020-09-08T10:31:07Z</time>
      </trkpt>
      <trkpt lat="44.15546" lon="5.02233">
        <ele>551.8</ele>
        <time>2020-09-08T10:31:08Z</time>
      </trkpt>
      <trkpt lat="44.15546" lon="5.02234">
        <ele>551.8</ele>
        <time>2020-09-08T10:31:09Z</time>
      </trkpt>
      <trkpt lat="44.15546" lon="5.02236">
        <ele>551.8</ele>
        <time>2020-09-08T10:31:10Z</time>
      </trkpt>
      <trkpt lat="44.15546" lon="5.02237">
        <ele>551.8</ele>
        <time>2020-09-08T10:31:11Z</time>
      </trkpt>
      <trkpt lat="44.15546" lon="5.02238">
        <ele>551.7</ele>
        <time>2020-09-08T10:31:12Z</time>
      </trkpt>
      <trkpt lat="44.15546" lon="5.02239">
        <ele>551.7</ele>
        <time>2020-09-08T10:31:13Z</time>
      </trkpt>
      <trkpt lat="44.15546" lon="5.02241">
        <ele>551.7</ele>
        <time>2020-09-08T10:31:14Z</time>
      </trkpt>
      <trkpt lat="44.15547" lon="5.02243">
        <ele>551.7</ele>
        <time>2020-09-08T10:31:15Z</time>
      </trkpt>
      <trkpt lat="44.15547" lon="5.02244">
        <ele>551.7</ele>
        <time>2020-09-08T10:31:16Z</time>
      </trkpt>
      <trkpt lat="44.15547" lon="5.02244">
        <ele>551.6</ele>
        <time>2020-09-08T10:31:17Z</time>
      </trkpt>
      <trkpt lat="44.15546" lon="5.02245">
        <ele>551.6</ele>
        <time>2020-09-08T10:31:18Z</time>
      </trkpt>
      <trkpt lat="44.15547" lon="5.02246">
        <ele>551.6</ele>
        <time>2020-09-08T10:31:19Z</time>
      </trkpt>
      <trkpt lat="44.15547" lon="5.02246">
        <ele>551.6</ele>
        <time>2020-09-08T10:31:20Z</time>
      </trkpt>
      <trkpt lat="44.15545" lon="5.02246">
        <ele>551.5</ele>
        <time>2020-09-08T10:31:21Z</time>
      </trkpt>
      <trkpt lat="44.15545" lon="5.02247">
        <ele>551.5</ele>
        <time>2020-09-08T10:31:22Z</time>
      </trkpt>
      <trkpt lat="44.15546" lon="5.02248">
        <ele>551.5</ele>
        <time>2020-09-08T10:31:23Z</time>
      </trkpt>
      <trkpt lat="44.15546" lon="5.02248">
        <ele>551.4</ele>
        <time>2020-09-08T10:31:24Z</time>
      </trkpt>
      <trkpt lat="44.15546" lon="5.02249">
        <ele>551.4</ele>
        <time>2020-09-08T10:31:25Z</time>
      </trkpt>
      <trkpt lat="44.15547" lon="5.0225">
        <ele>551.4</ele>
        <time>2020-09-08T10:31:26Z</time>
      </trkpt>
      <trkpt lat="44.15547" lon="5.02251">
        <ele>551.4</ele>
        <time>2020-09-08T10:31:27Z</time>
      </trkpt>
      <trkpt lat="44.15548" lon="5.02251">
        <ele>551.3</ele>
        <time>2020-09-08T10:31:28Z</time>
      </trkpt>
      <trkpt lat="44.15549" lon="5.02252">
        <ele>551.2</ele>
        <time>2020-09-08T10:31:29Z</time>
      </trkpt>
      <trkpt lat="44.15551" lon="5.02252">
        <ele>551.2</ele>
        <time>2020-09-08T10:31:30Z</time>
      </trkpt>
      <trkpt lat="44.1555" lon="5.02253">
        <ele>551.1</ele>
        <time>2020-09-08T10:31:31Z</time>
      </trkpt>
      <trkpt lat="44.15551" lon="5.02254">
        <ele>551.1</ele>
        <time>2020-09-08T10:31:32Z</time>
      </trkpt>
      <trkpt lat="44.15552" lon="5.02256">
        <ele>551</ele>
        <time>2020-09-08T10:31:33Z</time>
      </trkpt>
      <trkpt lat="44.1555" lon="5.02257">
        <ele>550.9</ele>
        <time>2020-09-08T10:31:34Z</time>
      </trkpt>
      <trkpt lat="44.15551" lon="5.02257">
        <ele>550.9</ele>
        <time>2020-09-08T10:31:35Z</time>
      </trkpt>
      <trkpt lat="44.1555" lon="5.02258">
        <ele>550.9</ele>
        <time>2020-09-08T10:31:36Z</time>
      </trkpt>
      <trkpt lat="44.1555" lon="5.02259">
        <ele>550.9</ele>
        <time>2020-09-08T10:31:37Z</time>
      </trkpt>
      <trkpt lat="44.1555" lon="5.02259">
        <ele>550.8</ele>
        <time>2020-09-08T10:31:38Z</time>
      </trkpt>
      <trkpt lat="44.15551" lon="5.02261">
        <ele>550.8</ele>
        <time>2020-09-08T10:31:39Z</time>
      </trkpt>
      <trkpt lat="44.15551" lon="5.02262">
        <ele>550.7</ele>
        <time>2020-09-08T10:31:40Z</time>
      </trkpt>
      <trkpt lat="44.15552" lon="5.02263">
        <ele>550.7</ele>
        <time>2020-09-08T10:31:41Z</time>
      </trkpt>
      <trkpt lat="44.15552" lon="5.02264">
        <ele>550.7</ele>
        <time>2020-09-08T10:31:42Z</time>
      </trkpt>
      <trkpt lat="44.15552" lon="5.02265">
        <ele>550.7</ele>
        <time>2020-09-08T10:31:43Z</time>
      </trkpt>
      <trkpt lat="44.15552" lon="5.02266">
        <ele>550.6</ele>
        <time>2020-09-08T10:31:44Z</time>
      </trkpt>
      <trkpt lat="44.15551" lon="5.02267">
        <ele>550.6</ele>
        <time>2020-09-08T10:31:45Z</time>
      </trkpt>
      <trkpt lat="44.15551" lon="5.02268">
        <ele>550.5</ele>
        <time>2020-09-08T10:31:46Z</time>
      </trkpt>
      <trkpt lat="44.15551" lon="5.0227">
        <ele>550.5</ele>
        <time>2020-09-08T10:31:47Z</time>
      </trkpt>
      <trkpt lat="44.15551" lon="5.02271">
        <ele>550.5</ele>
        <time>2020-09-08T10:31:48Z</time>
      </trkpt>
      <trkpt lat="44.15551" lon="5.02272">
        <ele>550.5</ele>
        <time>2020-09-08T10:31:49Z</time>
      </trkpt>
      <trkpt lat="44.15552" lon="5.02275">
        <ele>550.4</ele>
        <time>2020-09-08T10:31:50Z</time>
      </trkpt>
      <trkpt lat="44.15552" lon="5.02276">
        <ele>550.4</ele>
        <time>2020-09-08T10:31:51Z</time>
      </trkpt>
      <trkpt lat="44.15553" lon="5.02277">
        <ele>550.3</ele>
        <time>2020-09-08T10:31:52Z</time>
      </trkpt>
      <trkpt lat="44.15554" lon="5.0228">
        <ele>550.3</ele>
        <time>2020-09-08T10:31:53Z</time>
      </trkpt>
      <trkpt lat="44.15554" lon="5.02282">
        <ele>550.4</ele>
        <time>2020-09-08T10:31:54Z</time>
      </trkpt>
      <trkpt lat="44.15554" lon="5.02282">
        <ele>550.4</ele>
        <time>2020-09-08T10:31:55Z</time>
      </trkpt>
      <trkpt lat="44.15554" lon="5.02284">
        <ele>550.4</ele>
        <time>2020-09-08T10:31:56Z</time>
      </trkpt>
      <trkpt lat="44.15554" lon="5.02284">
        <ele>550.4</ele>
        <time>2020-09-08T10:31:57Z</time>
      </trkpt>
      <trkpt lat="44.15553" lon="5.02284">
        <ele>550.4</ele>
        <time>2020-09-08T10:31:58Z</time>
      </trkpt>
      <trkpt lat="44.15553" lon="5.02283">
        <ele>550.4</ele>
        <time>2020-09-08T10:31:59Z</time>
      </trkpt>
      <trkpt lat="44.15554" lon="5.02283">
        <ele>550.5</ele>
        <time>2020-09-08T10:32:00Z</time>
      </trkpt>
      <trkpt lat="44.15554" lon="5.02285">
        <ele>550.5</ele>
        <time>2020-09-08T10:32:01Z</time>
      </trkpt>
      <trkpt lat="44.15555" lon="5.02286">
        <ele>550.5</ele>
        <time>2020-09-08T10:32:02Z</time>
      </trkpt>
      <trkpt lat="44.15555" lon="5.02287">
        <ele>550.6</ele>
        <time>2020-09-08T10:32:03Z</time>
      </trkpt>
      <trkpt lat="44.15554" lon="5.02289">
        <ele>550.6</ele>
        <time>2020-09-08T10:32:04Z</time>
      </trkpt>
      <trkpt lat="44.15554" lon="5.02289">
        <ele>550.7</ele>
        <time>2020-09-08T10:32:05Z</time>
      </trkpt>
      <trkpt lat="44.15553" lon="5.02291">
        <ele>550.7</ele>
        <time>2020-09-08T10:32:06Z</time>
      </trkpt>
      <trkpt lat="44.15554" lon="5.02292">
        <ele>550.8</ele>
        <time>2020-09-08T10:32:07Z</time>
      </trkpt>
      <trkpt lat="44.15555" lon="5.02292">
        <ele>550.8</ele>
        <time>2020-09-08T10:32:08Z</time>
      </trkpt>
      <trkpt lat="44.15554" lon="5.02294">
        <ele>550.9</ele>
        <time>2020-09-08T10:32:09Z</time>
      </trkpt>
      <trkpt lat="44.15554" lon="5.02296">
        <ele>551</ele>
        <time>2020-09-08T10:32:10Z</time>
      </trkpt>
      <trkpt lat="44.15554" lon="5.02297">
        <ele>551.1</ele>
        <time>2020-09-08T10:32:11Z</time>
      </trkpt>
      <trkpt lat="44.15555" lon="5.02298">
        <ele>551.1</ele>
        <time>2020-09-08T10:32:12Z</time>
      </trkpt>
      <trkpt lat="44.15556" lon="5.02298">
        <ele>551.2</ele>
        <time>2020-09-08T10:32:13Z</time>
      </trkpt>
      <trkpt lat="44.15556" lon="5.023">
        <ele>551.3</ele>
        <time>2020-09-08T10:32:14Z</time>
      </trkpt>
      <trkpt lat="44.15555" lon="5.02302">
        <ele>551.4</ele>
        <time>2020-09-08T10:32:15Z</time>
      </trkpt>
      <trkpt lat="44.15555" lon="5.02303">
        <ele>551.5</ele>
        <time>2020-09-08T10:32:16Z</time>
      </trkpt>
      <trkpt lat="44.15555" lon="5.02305">
        <ele>551.6</ele>
        <time>2020-09-08T10:32:17Z</time>
      </trkpt>
      <trkpt lat="44.15555" lon="5.02306">
        <ele>551.7</ele>
        <time>2020-09-08T10:32:18Z</time>
      </trkpt>
      <trkpt lat="44.15556" lon="5.02307">
        <ele>551.8</ele>
        <time>2020-09-08T10:32:19Z</time>
      </trkpt>
      <trkpt lat="44.15555" lon="5.0231">
        <ele>552</ele>
        <time>2020-09-08T10:32:20Z</time>
      </trkpt>
      <trkpt lat="44.15556" lon="5.02311">
        <ele>552.1</ele>
        <time>2020-09-08T10:32:21Z</time>
      </trkpt>
      <trkpt lat="44.15556" lon="5.02312">
        <ele>552.2</ele>
        <time>2020-09-08T10:32:22Z</time>
      </trkpt>
      <trkpt lat="44.15556" lon="5.02314">
        <ele>552.3</ele>
        <time>2020-09-08T10:32:23Z</time>
      </trkpt>
      <trkpt lat="44.15556" lon="5.02315">
        <ele>552.4</ele>
        <time>2020-09-08T10:32:24Z</time>
      </trkpt>
      <trkpt lat="44.15556" lon="5.02316">
        <ele>552.5</ele>
        <time>2020-09-08T10:32:25Z</time>
      </trkpt>
      <trkpt lat="44.15555" lon="5.02316">
        <ele>552.5</ele>
        <time>2020-09-08T10:32:26Z</time>
      </trkpt>
      <trkpt lat="44.15556" lon="5.02316">
        <ele>552.7</ele>
        <time>2020-09-08T10:32:27Z</time>
      </trkpt>
      <trkpt lat="44.15556" lon="5.02316">
        <ele>552.7</ele>
        <time>2020-09-08T10:32:28Z</time>
      </trkpt>
      <trkpt lat="44.15555" lon="5.02317">
        <ele>552.8</ele>
        <time>2020-09-08T10:32:29Z</time>
      </trkpt>
      <trkpt lat="44.15555" lon="5.02317">
        <ele>552.8</ele>
        <time>2020-09-08T10:32:30Z</time>
      </trkpt>
      <trkpt lat="44.15555" lon="5.02317">
        <ele>552.8</ele>
        <time>2020-09-08T10:32:31Z</time>
      </trkpt>
      <trkpt lat="44.15554" lon="5.02317">
        <ele>552.9</ele>
        <time>2020-09-08T10:32:32Z</time>
      </trkpt>
      <trkpt lat="44.15554" lon="5.02319">
        <ele>553</ele>
        <time>2020-09-08T10:32:33Z</time>
      </trkpt>
      <trkpt lat="44.15554" lon="5.0232">
        <ele>553.1</ele>
        <time>2020-09-08T10:32:34Z</time>
      </trkpt>
      <trkpt lat="44.15554" lon="5.02321">
        <ele>553.2</ele>
        <time>2020-09-08T10:32:35Z</time>
      </trkpt>
      <trkpt lat="44.15555" lon="5.02322">
        <ele>553.3</ele>
        <time>2020-09-08T10:32:36Z</time>
      </trkpt>
      <trkpt lat="44.15556" lon="5.02323">
        <ele>553.4</ele>
        <time>2020-09-08T10:32:37Z</time>
      </trkpt>
      <trkpt lat="44.15557" lon="5.02325">
        <ele>553.6</ele>
        <time>2020-09-08T10:32:38Z</time>
      </trkpt>
      <trkpt lat="44.15556" lon="5.02325">
        <ele>553.6</ele>
        <time>2020-09-08T10:32:39Z</time>
      </trkpt>
      <trkpt lat="44.15556" lon="5.02326">
        <ele>553.6</ele>
        <time>2020-09-08T10:32:40Z</time>
      </trkpt>
      <trkpt lat="44.15557" lon="5.02327">
        <ele>553.7</ele>
        <time>2020-09-08T10:32:41Z</time>
      </trkpt>
      <trkpt lat="44.15556" lon="5.02328">
        <ele>553.8</ele>
        <time>2020-09-08T10:32:42Z</time>
      </trkpt>
      <trkpt lat="44.15557" lon="5.0233">
        <ele>553.9</ele>
        <time>2020-09-08T10:32:43Z</time>
      </trkpt>
      <trkpt lat="44.15556" lon="5.02331">
        <ele>554</ele>
        <time>2020-09-08T10:32:44Z</time>
      </trkpt>
      <trkpt lat="44.15556" lon="5.02332">
        <ele>554</ele>
        <time>2020-09-08T10:32:45Z</time>
      </trkpt>
      <trkpt lat="44.15557" lon="5.02333">
        <ele>554.1</ele>
        <time>2020-09-08T10:32:46Z</time>
      </trkpt>
      <trkpt lat="44.15556" lon="5.02335">
        <ele>554.2</ele>
        <time>2020-09-08T10:32:47Z</time>
      </trkpt>
      <trkpt lat="44.15555" lon="5.02335">
        <ele>554.3</ele>
        <time>2020-09-08T10:32:48Z</time>
      </trkpt>
      <trkpt lat="44.15555" lon="5.02337">
        <ele>554.3</ele>
        <time>2020-09-08T10:32:49Z</time>
      </trkpt>
      <trkpt lat="44.15555" lon="5.02337">
        <ele>554.3</ele>
        <time>2020-09-08T10:32:50Z</time>
      </trkpt>
      <trkpt lat="44.15556" lon="5.02339">
        <ele>554.4</ele>
        <time>2020-09-08T10:32:51Z</time>
      </trkpt>
      <trkpt lat="44.15556" lon="5.02341">
        <ele>554.5</ele>
        <time>2020-09-08T10:32:52Z</time>
      </trkpt>
      <trkpt lat="44.15556" lon="5.02342">
        <ele>554.6</ele>
        <time>2020-09-08T10:32:53Z</time>
      </trkpt>
      <trkpt lat="44.15557" lon="5.02343">
        <ele>554.6</ele>
        <time>2020-09-08T10:32:54Z</time>
      </trkpt>
      <trkpt lat="44.15557" lon="5.02344">
        <ele>554.6</ele>
        <time>2020-09-08T10:32:55Z</time>
      </trkpt>
      <trkpt lat="44.15557" lon="5.02346">
        <ele>554.7</ele>
        <time>2020-09-08T10:32:56Z</time>
      </trkpt>
      <trkpt lat="44.15558" lon="5.02348">
        <ele>554.8</ele>
        <time>2020-09-08T10:32:57Z</time>
      </trkpt>
      <trkpt lat="44.15558" lon="5.02349">
        <ele>554.8</ele>
        <time>2020-09-08T10:32:58Z</time>
      </trkpt>
      <trkpt lat="44.15558" lon="5.02348">
        <ele>554.8</ele>
        <time>2020-09-08T10:32:59Z</time>
      </trkpt>
      <trkpt lat="44.15558" lon="5.02349">
        <ele>554.8</ele>
        <time>2020-09-08T10:33:00Z</time>
      </trkpt>
      <trkpt lat="44.15559" lon="5.0235">
        <ele>554.8</ele>
        <time>2020-09-08T10:33:01Z</time>
      </trkpt>
      <trkpt lat="44.15559" lon="5.0235">
        <ele>554.8</ele>
        <time>2020-09-08T10:33:02Z</time>
      </trkpt>
      <trkpt lat="44.1556" lon="5.02352">
        <ele>554.9</ele>
        <time>2020-09-08T10:33:03Z</time>
      </trkpt>
      <trkpt lat="44.1556" lon="5.02354">
        <ele>554.9</ele>
        <time>2020-09-08T10:33:04Z</time>
      </trkpt>
      <trkpt lat="44.15561" lon="5.02355">
        <ele>554.9</ele>
        <time>2020-09-08T10:33:05Z</time>
      </trkpt>
      <trkpt lat="44.15561" lon="5.02356">
        <ele>554.9</ele>
        <time>2020-09-08T10:33:06Z</time>
      </trkpt>
      <trkpt lat="44.15561" lon="5.02356">
        <ele>554.9</ele>
        <time>2020-09-08T10:33:07Z</time>
      </trkpt>
      <trkpt lat="44.15561" lon="5.02358">
        <ele>554.9</ele>
        <time>2020-09-08T10:33:08Z</time>
      </trkpt>
      <trkpt lat="44.15561" lon="5.0236">
        <ele>554.9</ele>
        <time>2020-09-08T10:33:09Z</time>
      </trkpt>
      <trkpt lat="44.15561" lon="5.0236">
        <ele>554.9</ele>
        <time>2020-09-08T10:33:10Z</time>
      </trkpt>
      <trkpt lat="44.15561" lon="5.02362">
        <ele>554.9</ele>
        <time>2020-09-08T10:33:11Z</time>
      </trkpt>
      <trkpt lat="44.15561" lon="5.02363">
        <ele>554.9</ele>
        <time>2020-09-08T10:33:12Z</time>
      </trkpt>
      <trkpt lat="44.15561" lon="5.02364">
        <ele>554.9</ele>
        <time>2020-09-08T10:33:13Z</time>
      </trkpt>
      <trkpt lat="44.15561" lon="5.02364">
        <ele>554.9</ele>
        <time>2020-09-08T10:33:14Z</time>
      </trkpt>
      <trkpt lat="44.15561" lon="5.02365">
        <ele>554.9</ele>
        <time>2020-09-08T10:33:15Z</time>
      </trkpt>
      <trkpt lat="44.15561" lon="5.02366">
        <ele>554.8</ele>
        <time>2020-09-08T10:33:16Z</time>
      </trkpt>
      <trkpt lat="44.15561" lon="5.02367">
        <ele>554.8</ele>
        <time>2020-09-08T10:33:17Z</time>
      </trkpt>
      <trkpt lat="44.15562" lon="5.02369">
        <ele>554.8</ele>
        <time>2020-09-08T10:33:18Z</time>
      </trkpt>
      <trkpt lat="44.15562" lon="5.0237">
        <ele>554.8</ele>
        <time>2020-09-08T10:33:19Z</time>
      </trkpt>
      <trkpt lat="44.15562" lon="5.02371">
        <ele>554.7</ele>
        <time>2020-09-08T10:33:20Z</time>
      </trkpt>
      <trkpt lat="44.15563" lon="5.02372">
        <ele>554.7</ele>
        <time>2020-09-08T10:33:21Z</time>
      </trkpt>
      <trkpt lat="44.15564" lon="5.02374">
        <ele>554.6</ele>
        <time>2020-09-08T10:33:22Z</time>
      </trkpt>
      <trkpt lat="44.15564" lon="5.02375">
        <ele>554.6</ele>
        <time>2020-09-08T10:33:23Z</time>
      </trkpt>
      <trkpt lat="44.15564" lon="5.02376">
        <ele>554.5</ele>
        <time>2020-09-08T10:33:24Z</time>
      </trkpt>
      <trkpt lat="44.15564" lon="5.02379">
        <ele>554.4</ele>
        <time>2020-09-08T10:33:25Z</time>
      </trkpt>
      <trkpt lat="44.15565" lon="5.0238">
        <ele>554.4</ele>
        <time>2020-09-08T10:33:26Z</time>
      </trkpt>
      <trkpt lat="44.15565" lon="5.02381">
        <ele>554.3</ele>
        <time>2020-09-08T10:33:27Z</time>
      </trkpt>
      <trkpt lat="44.15565" lon="5.02383">
        <ele>554.2</ele>
        <time>2020-09-08T10:33:28Z</time>
      </trkpt>
      <trkpt lat="44.15565" lon="5.02383">
        <ele>554.2</ele>
        <time>2020-09-08T10:33:29Z</time>
      </trkpt>
      <trkpt lat="44.15566" lon="5.02384">
        <ele>554.2</ele>
        <time>2020-09-08T10:33:30Z</time>
      </trkpt>
      <trkpt lat="44.15565" lon="5.02386">
        <ele>554.1</ele>
        <time>2020-09-08T10:33:31Z</time>
      </trkpt>
      <trkpt lat="44.15566" lon="5.02388">
        <ele>554</ele>
        <time>2020-09-08T10:33:32Z</time>
      </trkpt>
      <trkpt lat="44.15566" lon="5.02389">
        <ele>553.9</ele>
        <time>2020-09-08T10:33:33Z</time>
      </trkpt>
      <trkpt lat="44.15566" lon="5.0239">
        <ele>553.9</ele>
        <time>2020-09-08T10:33:34Z</time>
      </trkpt>
      <trkpt lat="44.15567" lon="5.02391">
        <ele>553.8</ele>
        <time>2020-09-08T10:33:35Z</time>
      </trkpt>
      <trkpt lat="44.15567" lon="5.02392">
        <ele>553.7</ele>
        <time>2020-09-08T10:33:36Z</time>
      </trkpt>
      <trkpt lat="44.15569" lon="5.02393">
        <ele>553.6</ele>
        <time>2020-09-08T10:33:37Z</time>
      </trkpt>
      <trkpt lat="44.15568" lon="5.02394">
        <ele>553.6</ele>
        <time>2020-09-08T10:33:38Z</time>
      </trkpt>
      <trkpt lat="44.15568" lon="5.02394">
        <ele>553.5</ele>
        <time>2020-09-08T10:33:39Z</time>
      </trkpt>
      <trkpt lat="44.15567" lon="5.02395">
        <ele>553.5</ele>
        <time>2020-09-08T10:33:40Z</time>
      </trkpt>
      <trkpt lat="44.15567" lon="5.02395">
        <ele>553.5</ele>
        <time>2020-09-08T10:33:41Z</time>
      </trkpt>
      <trkpt lat="44.15568" lon="5.02396">
        <ele>553.4</ele>
        <time>2020-09-08T10:33:42Z</time>
      </trkpt>
      <trkpt lat="44.15568" lon="5.02399">
        <ele>553.2</ele>
        <time>2020-09-08T10:33:43Z</time>
      </trkpt>
      <trkpt lat="44.15568" lon="5.024">
        <ele>553.1</ele>
        <time>2020-09-08T10:33:44Z</time>
      </trkpt>
      <trkpt lat="44.15568" lon="5.02401">
        <ele>553.1</ele>
        <time>2020-09-08T10:33:45Z</time>
      </trkpt>
      <trkpt lat="44.15568" lon="5.02402">
        <ele>553</ele>
        <time>2020-09-08T10:33:46Z</time>
      </trkpt>
      <trkpt lat="44.15568" lon="5.02403">
        <ele>552.9</ele>
        <time>2020-09-08T10:33:47Z</time>
      </trkpt>
      <trkpt lat="44.15568" lon="5.02404">
        <ele>552.8</ele>
        <time>2020-09-08T10:33:48Z</time>
      </trkpt>
      <trkpt lat="44.15569" lon="5.02405">
        <ele>552.7</ele>
        <time>2020-09-08T10:33:49Z</time>
      </trkpt>
      <trkpt lat="44.1557" lon="5.02408">
        <ele>552.5</ele>
        <time>2020-09-08T10:33:50Z</time>
      </trkpt>
      <trkpt lat="44.15571" lon="5.02409">
        <ele>552.4</ele>
        <time>2020-09-08T10:33:51Z</time>
      </trkpt>
      <trkpt lat="44.15572" lon="5.02411">
        <ele>552.2</ele>
        <time>2020-09-08T10:33:52Z</time>
      </trkpt>
      <trkpt lat="44.15572" lon="5.02412">
        <ele>552.1</ele>
        <time>2020-09-08T10:33:53Z</time>
      </trkpt>
      <trkpt lat="44.15572" lon="5.02413">
        <ele>552</ele>
        <time>2020-09-08T10:33:54Z</time>
      </trkpt>
      <trkpt lat="44.15573" lon="5.02414">
        <ele>551.9</ele>
        <time>2020-09-08T10:33:55Z</time>
      </trkpt>
      <trkpt lat="44.15573" lon="5.02416">
        <ele>551.7</ele>
        <time>2020-09-08T10:33:56Z</time>
      </trkpt>
      <trkpt lat="44.15574" lon="5.02418">
        <ele>551.5</ele>
        <time>2020-09-08T10:33:57Z</time>
      </trkpt>
      <trkpt lat="44.15574" lon="5.02418">
        <ele>551.5</ele>
        <time>2020-09-08T10:33:58Z</time>
      </trkpt>
      <trkpt lat="44.15574" lon="5.0242">
        <ele>551.3</ele>
        <time>2020-09-08T10:33:59Z</time>
      </trkpt>
      <trkpt lat="44.15575" lon="5.02421">
        <ele>551.2</ele>
        <time>2020-09-08T10:34:00Z</time>
      </trkpt>
      <trkpt lat="44.15576" lon="5.02423">
        <ele>550.9</ele>
        <time>2020-09-08T10:34:01Z</time>
      </trkpt>
      <trkpt lat="44.15577" lon="5.02424">
        <ele>550.7</ele>
        <time>2020-09-08T10:34:02Z</time>
      </trkpt>
      <trkpt lat="44.15577" lon="5.02426">
        <ele>550.6</ele>
        <time>2020-09-08T10:34:03Z</time>
      </trkpt>
      <trkpt lat="44.15577" lon="5.02426">
        <ele>550.5</ele>
        <time>2020-09-08T10:34:04Z</time>
      </trkpt>
      <trkpt lat="44.15578" lon="5.02428">
        <ele>550.3</ele>
        <time>2020-09-08T10:34:05Z</time>
      </trkpt>
      <trkpt lat="44.15579" lon="5.0243">
        <ele>550.1</ele>
        <time>2020-09-08T10:34:06Z</time>
      </trkpt>
      <trkpt lat="44.15579" lon="5.02431">
        <ele>549.9</ele>
        <time>2020-09-08T10:34:07Z</time>
      </trkpt>
      <trkpt lat="44.15579" lon="5.02432">
        <ele>549.8</ele>
        <time>2020-09-08T10:34:08Z</time>
      </trkpt>
      <trkpt lat="44.15579" lon="5.02433">
        <ele>549.7</ele>
        <time>2020-09-08T10:34:09Z</time>
      </trkpt>
      <trkpt lat="44.15579" lon="5.02434">
        <ele>549.6</ele>
        <time>2020-09-08T10:34:10Z</time>
      </trkpt>
      <trkpt lat="44.1558" lon="5.02435">
        <ele>549.4</ele>
        <time>2020-09-08T10:34:11Z</time>
      </trkpt>
      <trkpt lat="44.15581" lon="5.02437">
        <ele>549.2</ele>
        <time>2020-09-08T10:34:12Z</time>
      </trkpt>
      <trkpt lat="44.1558" lon="5.02438">
        <ele>549.1</ele>
        <time>2020-09-08T10:34:13Z</time>
      </trkpt>
      <trkpt lat="44.15581" lon="5.02439">
        <ele>548.9</ele>
        <time>2020-09-08T10:34:14Z</time>
      </trkpt>
      <trkpt lat="44.15581" lon="5.0244">
        <ele>548.8</ele>
        <time>2020-09-08T10:34:15Z</time>
      </trkpt>
      <trkpt lat="44.15581" lon="5.02441">
        <ele>548.7</ele>
        <time>2020-09-08T10:34:16Z</time>
      </trkpt>
      <trkpt lat="44.15582" lon="5.02442">
        <ele>548.5</ele>
        <time>2020-09-08T10:34:17Z</time>
      </trkpt>
      <trkpt lat="44.15582" lon="5.02443">
        <ele>548.4</ele>
        <time>2020-09-08T10:34:18Z</time>
      </trkpt>
      <trkpt lat="44.15583" lon="5.02444">
        <ele>548.2</ele>
        <time>2020-09-08T10:34:19Z</time>
      </trkpt>
      <trkpt lat="44.15583" lon="5.02445">
        <ele>548.1</ele>
        <time>2020-09-08T10:34:20Z</time>
      </trkpt>
      <trkpt lat="44.15582" lon="5.02445">
        <ele>547.9</ele>
        <time>2020-09-08T10:34:21Z</time>
      </trkpt>
      <trkpt lat="44.15583" lon="5.02445">
        <ele>547.7</ele>
        <time>2020-09-08T10:34:22Z</time>
      </trkpt>
      <trkpt lat="44.15585" lon="5.02447">
        <ele>547.4</ele>
        <time>2020-09-08T10:34:23Z</time>
      </trkpt>
      <trkpt lat="44.15585" lon="5.02449">
        <ele>547.2</ele>
        <time>2020-09-08T10:34:24Z</time>
      </trkpt>
      <trkpt lat="44.15585" lon="5.02449">
        <ele>547.1</ele>
        <time>2020-09-08T10:34:25Z</time>
      </trkpt>
      <trkpt lat="44.15585" lon="5.0245">
        <ele>547</ele>
        <time>2020-09-08T10:34:26Z</time>
      </trkpt>
      <trkpt lat="44.15586" lon="5.02451">
        <ele>546.9</ele>
        <time>2020-09-08T10:34:27Z</time>
      </trkpt>
      <trkpt lat="44.15586" lon="5.02451">
        <ele>546.8</ele>
        <time>2020-09-08T10:34:28Z</time>
      </trkpt>
      <trkpt lat="44.15585" lon="5.02452">
        <ele>546.6</ele>
        <time>2020-09-08T10:34:29Z</time>
      </trkpt>
      <trkpt lat="44.15584" lon="5.02452">
        <ele>546.3</ele>
        <time>2020-09-08T10:34:30Z</time>
      </trkpt>
      <trkpt lat="44.15584" lon="5.02452">
        <ele>546.3</ele>
        <time>2020-09-08T10:34:31Z</time>
      </trkpt>
      <trkpt lat="44.15585" lon="5.02454">
        <ele>546.1</ele>
        <time>2020-09-08T10:34:32Z</time>
      </trkpt>
      <trkpt lat="44.15585" lon="5.02454">
        <ele>546</ele>
        <time>2020-09-08T10:34:33Z</time>
      </trkpt>
      <trkpt lat="44.15584" lon="5.02455">
        <ele>545.9</ele>
        <time>2020-09-08T10:34:34Z</time>
      </trkpt>
      <trkpt lat="44.15585" lon="5.02456">
        <ele>545.7</ele>
        <time>2020-09-08T10:34:35Z</time>
      </trkpt>
      <trkpt lat="44.15586" lon="5.02457">
        <ele>545.5</ele>
        <time>2020-09-08T10:34:36Z</time>
      </trkpt>
      <trkpt lat="44.15585" lon="5.02457">
        <ele>545.4</ele>
        <time>2020-09-08T10:34:37Z</time>
      </trkpt>
      <trkpt lat="44.15585" lon="5.02457">
        <ele>545.3</ele>
        <time>2020-09-08T10:34:38Z</time>
      </trkpt>
      <trkpt lat="44.15586" lon="5.02457">
        <ele>545.3</ele>
        <time>2020-09-08T10:34:39Z</time>
      </trkpt>
      <trkpt lat="44.15585" lon="5.02457">
        <ele>545.3</ele>
        <time>2020-09-08T10:34:40Z</time>
      </trkpt>
      <trkpt lat="44.15585" lon="5.02458">
        <ele>545.2</ele>
        <time>2020-09-08T10:34:41Z</time>
      </trkpt>
      <trkpt lat="44.15585" lon="5.02459">
        <ele>545.1</ele>
        <time>2020-09-08T10:34:42Z</time>
      </trkpt>
      <trkpt lat="44.15586" lon="5.0246">
        <ele>544.9</ele>
        <time>2020-09-08T10:34:43Z</time>
      </trkpt>
      <trkpt lat="44.15587" lon="5.02462">
        <ele>544.7</ele>
        <time>2020-09-08T10:34:44Z</time>
      </trkpt>
      <trkpt lat="44.15587" lon="5.02462">
        <ele>544.6</ele>
        <time>2020-09-08T10:34:45Z</time>
      </trkpt>
      <trkpt lat="44.15587" lon="5.02463">
        <ele>544.5</ele>
        <time>2020-09-08T10:34:46Z</time>
      </trkpt>
      <trkpt lat="44.15588" lon="5.02464">
        <ele>544.3</ele>
        <time>2020-09-08T10:34:47Z</time>
      </trkpt>
      <trkpt lat="44.15587" lon="5.02465">
        <ele>544.2</ele>
        <time>2020-09-08T10:34:48Z</time>
      </trkpt>
      <trkpt lat="44.15587" lon="5.02466">
        <ele>544</ele>
        <time>2020-09-08T10:34:49Z</time>
      </trkpt>
      <trkpt lat="44.15587" lon="5.02467">
        <ele>543.9</ele>
        <time>2020-09-08T10:34:50Z</time>
      </trkpt>
      <trkpt lat="44.15587" lon="5.02467">
        <ele>543.9</ele>
        <time>2020-09-08T10:34:51Z</time>
      </trkpt>
      <trkpt lat="44.15588" lon="5.02468">
        <ele>543.8</ele>
        <time>2020-09-08T10:34:52Z</time>
      </trkpt>
      <trkpt lat="44.15589" lon="5.0247">
        <ele>543.5</ele>
        <time>2020-09-08T10:34:53Z</time>
      </trkpt>
      <trkpt lat="44.15589" lon="5.02471">
        <ele>543.3</ele>
        <time>2020-09-08T10:34:54Z</time>
      </trkpt>
      <trkpt lat="44.15589" lon="5.02473">
        <ele>543.1</ele>
        <time>2020-09-08T10:34:55Z</time>
      </trkpt>
      <trkpt lat="44.15591" lon="5.02475">
        <ele>542.8</ele>
        <time>2020-09-08T10:34:56Z</time>
      </trkpt>
      <trkpt lat="44.1559" lon="5.02477">
        <ele>542.6</ele>
        <time>2020-09-08T10:34:57Z</time>
      </trkpt>
      <trkpt lat="44.1559" lon="5.02478">
        <ele>542.4</ele>
        <time>2020-09-08T10:34:58Z</time>
      </trkpt>
      <trkpt lat="44.15592" lon="5.0248">
        <ele>542</ele>
        <time>2020-09-08T10:34:59Z</time>
      </trkpt>
      <trkpt lat="44.15592" lon="5.02481">
        <ele>541.9</ele>
        <time>2020-09-08T10:35:00Z</time>
      </trkpt>
      <trkpt lat="44.15592" lon="5.02482">
        <ele>541.7</ele>
        <time>2020-09-08T10:35:01Z</time>
      </trkpt>
      <trkpt lat="44.15592" lon="5.02483">
        <ele>541.6</ele>
        <time>2020-09-08T10:35:02Z</time>
      </trkpt>
      <trkpt lat="44.15594" lon="5.02485">
        <ele>541.3</ele>
        <time>2020-09-08T10:35:04Z</time>
      </trkpt>
      <trkpt lat="44.15594" lon="5.02486">
        <ele>541.1</ele>
        <time>2020-09-08T10:35:05Z</time>
      </trkpt>
      <trkpt lat="44.15595" lon="5.02487">
        <ele>541</ele>
        <time>2020-09-08T10:35:06Z</time>
      </trkpt>
      <trkpt lat="44.15597" lon="5.02488">
        <ele>540.7</ele>
        <time>2020-09-08T10:35:07Z</time>
      </trkpt>
      <trkpt lat="44.15598" lon="5.02489">
        <ele>540.5</ele>
        <time>2020-09-08T10:35:08Z</time>
      </trkpt>
      <trkpt lat="44.15599" lon="5.0249">
        <ele>540.3</ele>
        <time>2020-09-08T10:35:09Z</time>
      </trkpt>
      <trkpt lat="44.15599" lon="5.02492">
        <ele>540.1</ele>
        <time>2020-09-08T10:35:10Z</time>
      </trkpt>
      <trkpt lat="44.15599" lon="5.02494">
        <ele>539.8</ele>
        <time>2020-09-08T10:35:11Z</time>
      </trkpt>
      <trkpt lat="44.156" lon="5.02496">
        <ele>539.6</ele>
        <time>2020-09-08T10:35:12Z</time>
      </trkpt>
      <trkpt lat="44.15601" lon="5.02497">
        <ele>539.5</ele>
        <time>2020-09-08T10:35:13Z</time>
      </trkpt>
      <trkpt lat="44.15601" lon="5.02499">
        <ele>539.3</ele>
        <time>2020-09-08T10:35:14Z</time>
      </trkpt>
      <trkpt lat="44.15601" lon="5.025">
        <ele>539.2</ele>
        <time>2020-09-08T10:35:15Z</time>
      </trkpt>
      <trkpt lat="44.156" lon="5.025">
        <ele>539.2</ele>
        <time>2020-09-08T10:35:16Z</time>
      </trkpt>
      <trkpt lat="44.15601" lon="5.02502">
        <ele>539</ele>
        <time>2020-09-08T10:35:17Z</time>
      </trkpt>
      <trkpt lat="44.156" lon="5.02502">
        <ele>538.9</ele>
        <time>2020-09-08T10:35:18Z</time>
      </trkpt>
      <trkpt lat="44.156" lon="5.02503">
        <ele>538.8</ele>
        <time>2020-09-08T10:35:19Z</time>
      </trkpt>
      <trkpt lat="44.15599" lon="5.02505">
        <ele>538.7</ele>
        <time>2020-09-08T10:35:20Z</time>
      </trkpt>
      <trkpt lat="44.15598" lon="5.02505">
        <ele>538.6</ele>
        <time>2020-09-08T10:35:21Z</time>
      </trkpt>
      <trkpt lat="44.15598" lon="5.02507">
        <ele>538.4</ele>
        <time>2020-09-08T10:35:22Z</time>
      </trkpt>
      <trkpt lat="44.15597" lon="5.02507">
        <ele>538.3</ele>
        <time>2020-09-08T10:35:23Z</time>
      </trkpt>
      <trkpt lat="44.15597" lon="5.02509">
        <ele>538.2</ele>
        <time>2020-09-08T10:35:24Z</time>
      </trkpt>
      <trkpt lat="44.15597" lon="5.02511">
        <ele>538.1</ele>
        <time>2020-09-08T10:35:25Z</time>
      </trkpt>
      <trkpt lat="44.15598" lon="5.02512">
        <ele>538</ele>
        <time>2020-09-08T10:35:26Z</time>
      </trkpt>
      <trkpt lat="44.15599" lon="5.02513">
        <ele>537.9</ele>
        <time>2020-09-08T10:35:27Z</time>
      </trkpt>
      <trkpt lat="44.15599" lon="5.02514">
        <ele>537.8</ele>
        <time>2020-09-08T10:35:28Z</time>
      </trkpt>
      <trkpt lat="44.156" lon="5.02515">
        <ele>537.7</ele>
        <time>2020-09-08T10:35:29Z</time>
      </trkpt>
      <trkpt lat="44.15598" lon="5.02517">
        <ele>537.5</ele>
        <time>2020-09-08T10:35:30Z</time>
      </trkpt>
      <trkpt lat="44.15598" lon="5.02517">
        <ele>537.5</ele>
        <time>2020-09-08T10:35:31Z</time>
      </trkpt>
      <trkpt lat="44.15598" lon="5.02516">
        <ele>537.4</ele>
        <time>2020-09-08T10:35:32Z</time>
      </trkpt>
      <trkpt lat="44.15598" lon="5.02516">
        <ele>537.4</ele>
        <time>2020-09-08T10:35:33Z</time>
      </trkpt>
      <trkpt lat="44.15598" lon="5.02517">
        <ele>537.3</ele>
        <time>2020-09-08T10:35:34Z</time>
      </trkpt>
      <trkpt lat="44.15598" lon="5.02519">
        <ele>537.2</ele>
        <time>2020-09-08T10:35:35Z</time>
      </trkpt>
      <trkpt lat="44.15598" lon="5.0252">
        <ele>537.2</ele>
        <time>2020-09-08T10:35:36Z</time>
      </trkpt>
      <trkpt lat="44.15597" lon="5.0252">
        <ele>537.2</ele>
        <time>2020-09-08T10:35:37Z</time>
      </trkpt>
      <trkpt lat="44.15597" lon="5.02521">
        <ele>537.1</ele>
        <time>2020-09-08T10:35:38Z</time>
      </trkpt>
      <trkpt lat="44.15598" lon="5.02523">
        <ele>537</ele>
        <time>2020-09-08T10:35:39Z</time>
      </trkpt>
      <trkpt lat="44.15598" lon="5.02525">
        <ele>536.9</ele>
        <time>2020-09-08T10:35:40Z</time>
      </trkpt>
      <trkpt lat="44.15598" lon="5.02527">
        <ele>536.9</ele>
        <time>2020-09-08T10:35:41Z</time>
      </trkpt>
      <trkpt lat="44.15598" lon="5.02528">
        <ele>536.8</ele>
        <time>2020-09-08T10:35:42Z</time>
      </trkpt>
      <trkpt lat="44.15597" lon="5.0253">
        <ele>536.7</ele>
        <time>2020-09-08T10:35:43Z</time>
      </trkpt>
      <trkpt lat="44.15597" lon="5.02531">
        <ele>536.6</ele>
        <time>2020-09-08T10:35:44Z</time>
      </trkpt>
      <trkpt lat="44.15596" lon="5.02532">
        <ele>536.6</ele>
        <time>2020-09-08T10:35:45Z</time>
      </trkpt>
      <trkpt lat="44.15597" lon="5.02533">
        <ele>536.5</ele>
        <time>2020-09-08T10:35:46Z</time>
      </trkpt>
      <trkpt lat="44.15597" lon="5.02534">
        <ele>536.5</ele>
        <time>2020-09-08T10:35:47Z</time>
      </trkpt>
      <trkpt lat="44.15598" lon="5.02536">
        <ele>536.4</ele>
        <time>2020-09-08T10:35:48Z</time>
      </trkpt>
      <trkpt lat="44.15598" lon="5.02537">
        <ele>536.3</ele>
        <time>2020-09-08T10:35:49Z</time>
      </trkpt>
      <trkpt lat="44.15598" lon="5.02539">
        <ele>536.2</ele>
        <time>2020-09-08T10:35:50Z</time>
      </trkpt>
      <trkpt lat="44.15599" lon="5.02541">
        <ele>536.2</ele>
        <time>2020-09-08T10:35:51Z</time>
      </trkpt>
      <trkpt lat="44.15599" lon="5.02542">
        <ele>536.1</ele>
        <time>2020-09-08T10:35:52Z</time>
      </trkpt>
      <trkpt lat="44.15598" lon="5.02543">
        <ele>536</ele>
        <time>2020-09-08T10:35:53Z</time>
      </trkpt>
      <trkpt lat="44.15599" lon="5.02544">
        <ele>536</ele>
        <time>2020-09-08T10:35:54Z</time>
      </trkpt>
      <trkpt lat="44.15599" lon="5.02546">
        <ele>535.9</ele>
        <time>2020-09-08T10:35:55Z</time>
      </trkpt>
      <trkpt lat="44.15599" lon="5.02546">
        <ele>535.9</ele>
        <time>2020-09-08T10:35:56Z</time>
      </trkpt>
      <trkpt lat="44.15599" lon="5.02547">
        <ele>535.8</ele>
        <time>2020-09-08T10:35:57Z</time>
      </trkpt>
      <trkpt lat="44.15599" lon="5.02549">
        <ele>535.8</ele>
        <time>2020-09-08T10:35:58Z</time>
      </trkpt>
      <trkpt lat="44.15599" lon="5.0255">
        <ele>535.7</ele>
        <time>2020-09-08T10:35:59Z</time>
      </trkpt>
      <trkpt lat="44.15599" lon="5.02553">
        <ele>535.6</ele>
        <time>2020-09-08T10:36:00Z</time>
      </trkpt>
      <trkpt lat="44.15599" lon="5.02554">
        <ele>535.5</ele>
        <time>2020-09-08T10:36:01Z</time>
      </trkpt>
      <trkpt lat="44.156" lon="5.02555">
        <ele>535.5</ele>
        <time>2020-09-08T10:36:02Z</time>
      </trkpt>
      <trkpt lat="44.156" lon="5.02555">
        <ele>535.4</ele>
        <time>2020-09-08T10:36:03Z</time>
      </trkpt>
      <trkpt lat="44.156" lon="5.02557">
        <ele>535.4</ele>
        <time>2020-09-08T10:36:04Z</time>
      </trkpt>
      <trkpt lat="44.156" lon="5.02559">
        <ele>535.3</ele>
        <time>2020-09-08T10:36:05Z</time>
      </trkpt>
      <trkpt lat="44.15599" lon="5.0256">
        <ele>535.2</ele>
        <time>2020-09-08T10:36:06Z</time>
      </trkpt>
      <trkpt lat="44.156" lon="5.02559">
        <ele>535.2</ele>
        <time>2020-09-08T10:36:07Z</time>
      </trkpt>
      <trkpt lat="44.15601" lon="5.02561">
        <ele>535.1</ele>
        <time>2020-09-08T10:36:08Z</time>
      </trkpt>
      <trkpt lat="44.15601" lon="5.02564">
        <ele>535</ele>
        <time>2020-09-08T10:36:09Z</time>
      </trkpt>
      <trkpt lat="44.15602" lon="5.02565">
        <ele>534.9</ele>
        <time>2020-09-08T10:36:10Z</time>
      </trkpt>
      <trkpt lat="44.15602" lon="5.02566">
        <ele>534.9</ele>
        <time>2020-09-08T10:36:11Z</time>
      </trkpt>
      <trkpt lat="44.15602" lon="5.02567">
        <ele>534.8</ele>
        <time>2020-09-08T10:36:12Z</time>
      </trkpt>
      <trkpt lat="44.15602" lon="5.02567">
        <ele>534.8</ele>
        <time>2020-09-08T10:36:13Z</time>
      </trkpt>
      <trkpt lat="44.15603" lon="5.02568">
        <ele>534.8</ele>
        <time>2020-09-08T10:36:14Z</time>
      </trkpt>
      <trkpt lat="44.15603" lon="5.02571">
        <ele>534.7</ele>
        <time>2020-09-08T10:36:15Z</time>
      </trkpt>
      <trkpt lat="44.15605" lon="5.02572">
        <ele>534.6</ele>
        <time>2020-09-08T10:36:16Z</time>
      </trkpt>
      <trkpt lat="44.15604" lon="5.02573">
        <ele>534.5</ele>
        <time>2020-09-08T10:36:17Z</time>
      </trkpt>
      <trkpt lat="44.15604" lon="5.02574">
        <ele>534.5</ele>
        <time>2020-09-08T10:36:18Z</time>
      </trkpt>
      <trkpt lat="44.15604" lon="5.02574">
        <ele>534.5</ele>
        <time>2020-09-08T10:36:19Z</time>
      </trkpt>
      <trkpt lat="44.15604" lon="5.02575">
        <ele>534.4</ele>
        <time>2020-09-08T10:36:20Z</time>
      </trkpt>
      <trkpt lat="44.15603" lon="5.02575">
        <ele>534.4</ele>
        <time>2020-09-08T10:36:21Z</time>
      </trkpt>
      <trkpt lat="44.15604" lon="5.02578">
        <ele>534.3</ele>
        <time>2020-09-08T10:36:22Z</time>
      </trkpt>
      <trkpt lat="44.15605" lon="5.02579">
        <ele>534.2</ele>
        <time>2020-09-08T10:36:23Z</time>
      </trkpt>
      <trkpt lat="44.15603" lon="5.0258">
        <ele>534.1</ele>
        <time>2020-09-08T10:36:24Z</time>
      </trkpt>
      <trkpt lat="44.15604" lon="5.02581">
        <ele>534</ele>
        <time>2020-09-08T10:36:25Z</time>
      </trkpt>
      <trkpt lat="44.15605" lon="5.02582">
        <ele>534</ele>
        <time>2020-09-08T10:36:26Z</time>
      </trkpt>
      <trkpt lat="44.15605" lon="5.02582">
        <ele>533.9</ele>
        <time>2020-09-08T10:36:27Z</time>
      </trkpt>
      <trkpt lat="44.15606" lon="5.02583">
        <ele>533.8</ele>
        <time>2020-09-08T10:36:28Z</time>
      </trkpt>
      <trkpt lat="44.15607" lon="5.02585">
        <ele>533.7</ele>
        <time>2020-09-08T10:36:29Z</time>
      </trkpt>
      <trkpt lat="44.15608" lon="5.02586">
        <ele>533.7</ele>
        <time>2020-09-08T10:36:30Z</time>
      </trkpt>
      <trkpt lat="44.15609" lon="5.02587">
        <ele>533.6</ele>
        <time>2020-09-08T10:36:31Z</time>
      </trkpt>
      <trkpt lat="44.15608" lon="5.02587">
        <ele>533.5</ele>
        <time>2020-09-08T10:36:32Z</time>
      </trkpt>
      <trkpt lat="44.15608" lon="5.02587">
        <ele>533.5</ele>
        <time>2020-09-08T10:36:33Z</time>
      </trkpt>
      <trkpt lat="44.15608" lon="5.02587">
        <ele>533.5</ele>
        <time>2020-09-08T10:36:34Z</time>
      </trkpt>
      <trkpt lat="44.15608" lon="5.02589">
        <ele>533.4</ele>
        <time>2020-09-08T10:36:35Z</time>
      </trkpt>
      <trkpt lat="44.15607" lon="5.02591">
        <ele>533.3</ele>
        <time>2020-09-08T10:36:36Z</time>
      </trkpt>
      <trkpt lat="44.15607" lon="5.02592">
        <ele>533.2</ele>
        <time>2020-09-08T10:36:37Z</time>
      </trkpt>
      <trkpt lat="44.15607" lon="5.02592">
        <ele>533.2</ele>
        <time>2020-09-08T10:36:38Z</time>
      </trkpt>
      <trkpt lat="44.15607" lon="5.02593">
        <ele>533.2</ele>
        <time>2020-09-08T10:36:39Z</time>
      </trkpt>
      <trkpt lat="44.15607" lon="5.02593">
        <ele>533.2</ele>
        <time>2020-09-08T10:36:40Z</time>
      </trkpt>
      <trkpt lat="44.15606" lon="5.02595">
        <ele>533.1</ele>
        <time>2020-09-08T10:36:41Z</time>
      </trkpt>
      <trkpt lat="44.15606" lon="5.02597">
        <ele>533</ele>
        <time>2020-09-08T10:36:42Z</time>
      </trkpt>
      <trkpt lat="44.15606" lon="5.02598">
        <ele>532.9</ele>
        <time>2020-09-08T10:36:43Z</time>
      </trkpt>
      <trkpt lat="44.15606" lon="5.02599">
        <ele>532.9</ele>
        <time>2020-09-08T10:36:44Z</time>
      </trkpt>
      <trkpt lat="44.15606" lon="5.02599">
        <ele>532.8</ele>
        <time>2020-09-08T10:36:45Z</time>
      </trkpt>
      <trkpt lat="44.15606" lon="5.026">
        <ele>532.8</ele>
        <time>2020-09-08T10:36:46Z</time>
      </trkpt>
      <trkpt lat="44.15606" lon="5.02602">
        <ele>532.7</ele>
        <time>2020-09-08T10:36:47Z</time>
      </trkpt>
      <trkpt lat="44.15606" lon="5.02603">
        <ele>532.7</ele>
        <time>2020-09-08T10:36:48Z</time>
      </trkpt>
      <trkpt lat="44.15606" lon="5.02604">
        <ele>532.6</ele>
        <time>2020-09-08T10:36:49Z</time>
      </trkpt>
      <trkpt lat="44.15606" lon="5.02605">
        <ele>532.6</ele>
        <time>2020-09-08T10:36:50Z</time>
      </trkpt>
      <trkpt lat="44.15606" lon="5.02606">
        <ele>532.5</ele>
        <time>2020-09-08T10:36:51Z</time>
      </trkpt>
      <trkpt lat="44.15606" lon="5.02607">
        <ele>532.5</ele>
        <time>2020-09-08T10:36:52Z</time>
      </trkpt>
      <trkpt lat="44.15606" lon="5.02607">
        <ele>532.4</ele>
        <time>2020-09-08T10:36:53Z</time>
      </trkpt>
      <trkpt lat="44.15606" lon="5.02607">
        <ele>532.4</ele>
        <time>2020-09-08T10:36:54Z</time>
      </trkpt>
      <trkpt lat="44.15607" lon="5.02608">
        <ele>532.3</ele>
        <time>2020-09-08T10:36:55Z</time>
      </trkpt>
      <trkpt lat="44.15607" lon="5.02609">
        <ele>532.3</ele>
        <time>2020-09-08T10:36:56Z</time>
      </trkpt>
      <trkpt lat="44.15607" lon="5.0261">
        <ele>532.2</ele>
        <time>2020-09-08T10:36:57Z</time>
      </trkpt>
      <trkpt lat="44.15606" lon="5.0261">
        <ele>532.2</ele>
        <time>2020-09-08T10:36:58Z</time>
      </trkpt>
      <trkpt lat="44.15608" lon="5.0261">
        <ele>532.1</ele>
        <time>2020-09-08T10:36:59Z</time>
      </trkpt>
      <trkpt lat="44.15609" lon="5.02611">
        <ele>532</ele>
        <time>2020-09-08T10:37:00Z</time>
      </trkpt>
      <trkpt lat="44.15609" lon="5.02612">
        <ele>531.9</ele>
        <time>2020-09-08T10:37:01Z</time>
      </trkpt>
      <trkpt lat="44.15609" lon="5.02614">
        <ele>531.8</ele>
        <time>2020-09-08T10:37:02Z</time>
      </trkpt>
      <trkpt lat="44.15609" lon="5.02615">
        <ele>531.7</ele>
        <time>2020-09-08T10:37:03Z</time>
      </trkpt>
      <trkpt lat="44.15608" lon="5.02615">
        <ele>531.6</ele>
        <time>2020-09-08T10:37:04Z</time>
      </trkpt>
      <trkpt lat="44.15608" lon="5.02614">
        <ele>531.5</ele>
        <time>2020-09-08T10:37:05Z</time>
      </trkpt>
      <trkpt lat="44.15607" lon="5.02615">
        <ele>531.4</ele>
        <time>2020-09-08T10:37:06Z</time>
      </trkpt>
      <trkpt lat="44.15608" lon="5.02616">
        <ele>531.4</ele>
        <time>2020-09-08T10:37:07Z</time>
      </trkpt>
      <trkpt lat="44.15607" lon="5.02617">
        <ele>531.3</ele>
        <time>2020-09-08T10:37:08Z</time>
      </trkpt>
      <trkpt lat="44.15608" lon="5.02617">
        <ele>531.2</ele>
        <time>2020-09-08T10:37:10Z</time>
      </trkpt>
      <trkpt lat="44.15609" lon="5.02619">
        <ele>531.1</ele>
        <time>2020-09-08T10:37:11Z</time>
      </trkpt>
      <trkpt lat="44.15609" lon="5.02619">
        <ele>531.1</ele>
        <time>2020-09-08T10:37:12Z</time>
      </trkpt>
      <trkpt lat="44.15609" lon="5.02619">
        <ele>531</ele>
        <time>2020-09-08T10:37:13Z</time>
      </trkpt>
      <trkpt lat="44.15609" lon="5.02619">
        <ele>531</ele>
        <time>2020-09-08T10:37:14Z</time>
      </trkpt>
      <trkpt lat="44.15609" lon="5.02619">
        <ele>530.9</ele>
        <time>2020-09-08T10:37:15Z</time>
      </trkpt>
      <trkpt lat="44.15609" lon="5.0262">
        <ele>530.8</ele>
        <time>2020-09-08T10:37:16Z</time>
      </trkpt>
      <trkpt lat="44.15609" lon="5.02621">
        <ele>530.8</ele>
        <time>2020-09-08T10:37:17Z</time>
      </trkpt>
      <trkpt lat="44.15609" lon="5.0262">
        <ele>530.7</ele>
        <time>2020-09-08T10:37:18Z</time>
      </trkpt>
      <trkpt lat="44.15609" lon="5.02621">
        <ele>530.6</ele>
        <time>2020-09-08T10:37:19Z</time>
      </trkpt>
      <trkpt lat="44.15608" lon="5.02621">
        <ele>530.6</ele>
        <time>2020-09-08T10:37:20Z</time>
      </trkpt>
      <trkpt lat="44.15611" lon="5.02621">
        <ele>530.2</ele>
        <time>2020-09-08T10:37:21Z</time>
      </trkpt>
      <trkpt lat="44.15612" lon="5.02622">
        <ele>530.1</ele>
        <time>2020-09-08T10:37:22Z</time>
      </trkpt>
      <trkpt lat="44.15612" lon="5.02622">
        <ele>530</ele>
        <time>2020-09-08T10:37:23Z</time>
      </trkpt>
      <trkpt lat="44.15612" lon="5.02623">
        <ele>529.9</ele>
        <time>2020-09-08T10:37:24Z</time>
      </trkpt>
      <trkpt lat="44.15612" lon="5.02625">
        <ele>529.6</ele>
        <time>2020-09-08T10:37:25Z</time>
      </trkpt>
      <trkpt lat="44.15612" lon="5.02624">
        <ele>529.5</ele>
        <time>2020-09-08T10:37:26Z</time>
      </trkpt>
      <trkpt lat="44.15612" lon="5.02625">
        <ele>529.4</ele>
        <time>2020-09-08T10:37:27Z</time>
      </trkpt>
      <trkpt lat="44.15612" lon="5.02625">
        <ele>529.4</ele>
        <time>2020-09-08T10:37:28Z</time>
      </trkpt>
      <trkpt lat="44.15612" lon="5.02626">
        <ele>529.3</ele>
        <time>2020-09-08T10:37:29Z</time>
      </trkpt>
      <trkpt lat="44.15611" lon="5.02627">
        <ele>529.2</ele>
        <time>2020-09-08T10:37:30Z</time>
      </trkpt>
      <trkpt lat="44.15612" lon="5.02628">
        <ele>529</ele>
        <time>2020-09-08T10:37:31Z</time>
      </trkpt>
      <trkpt lat="44.15613" lon="5.02629">
        <ele>528.8</ele>
        <time>2020-09-08T10:37:32Z</time>
      </trkpt>
      <trkpt lat="44.15613" lon="5.0263">
        <ele>528.7</ele>
        <time>2020-09-08T10:37:33Z</time>
      </trkpt>
      <trkpt lat="44.15614" lon="5.0263">
        <ele>528.6</ele>
        <time>2020-09-08T10:37:34Z</time>
      </trkpt>
      <trkpt lat="44.15614" lon="5.02631">
        <ele>528.5</ele>
        <time>2020-09-08T10:37:35Z</time>
      </trkpt>
      <trkpt lat="44.15614" lon="5.02631">
        <ele>528.4</ele>
        <time>2020-09-08T10:37:36Z</time>
      </trkpt>
      <trkpt lat="44.15614" lon="5.02632">
        <ele>528.3</ele>
        <time>2020-09-08T10:37:37Z</time>
      </trkpt>
      <trkpt lat="44.15614" lon="5.02632">
        <ele>528.2</ele>
        <time>2020-09-08T10:37:38Z</time>
      </trkpt>
      <trkpt lat="44.15615" lon="5.02633">
        <ele>528.2</ele>
        <time>2020-09-08T10:37:39Z</time>
      </trkpt>
      <trkpt lat="44.15615" lon="5.02633">
        <ele>528.1</ele>
        <time>2020-09-08T10:37:40Z</time>
      </trkpt>
      <trkpt lat="44.15615" lon="5.02634">
        <ele>528</ele>
        <time>2020-09-08T10:37:41Z</time>
      </trkpt>
      <trkpt lat="44.15615" lon="5.02634">
        <ele>527.9</ele>
        <time>2020-09-08T10:37:42Z</time>
      </trkpt>
      <trkpt lat="44.15616" lon="5.02633">
        <ele>527.8</ele>
        <time>2020-09-08T10:37:43Z</time>
      </trkpt>
      <trkpt lat="44.15615" lon="5.02633">
        <ele>527.7</ele>
        <time>2020-09-08T10:37:44Z</time>
      </trkpt>
      <trkpt lat="44.15615" lon="5.02634">
        <ele>527.6</ele>
        <time>2020-09-08T10:37:45Z</time>
      </trkpt>
      <trkpt lat="44.15614" lon="5.02633">
        <ele>527.3</ele>
        <time>2020-09-08T10:37:46Z</time>
      </trkpt>
      <trkpt lat="44.15614" lon="5.02633">
        <ele>527.3</ele>
        <time>2020-09-08T10:37:47Z</time>
      </trkpt>
      <trkpt lat="44.15614" lon="5.02633">
        <ele>527.3</ele>
        <time>2020-09-08T10:37:48Z</time>
      </trkpt>
      <trkpt lat="44.15614" lon="5.02634">
        <ele>527.1</ele>
        <time>2020-09-08T10:37:49Z</time>
      </trkpt>
      <trkpt lat="44.15614" lon="5.02634">
        <ele>527</ele>
        <time>2020-09-08T10:37:50Z</time>
      </trkpt>
      <trkpt lat="44.15614" lon="5.02634">
        <ele>526.9</ele>
        <time>2020-09-08T10:37:51Z</time>
      </trkpt>
      <trkpt lat="44.15614" lon="5.02634">
        <ele>526.9</ele>
        <time>2020-09-08T10:37:52Z</time>
      </trkpt>
      <trkpt lat="44.15614" lon="5.02634">
        <ele>526.8</ele>
        <time>2020-09-08T10:37:53Z</time>
      </trkpt>
      <trkpt lat="44.15614" lon="5.02634">
        <ele>526.8</ele>
        <time>2020-09-08T10:37:54Z</time>
      </trkpt>
      <trkpt lat="44.15614" lon="5.02635">
        <ele>526.7</ele>
        <time>2020-09-08T10:37:55Z</time>
      </trkpt>
      <trkpt lat="44.15614" lon="5.02634">
        <ele>526.6</ele>
        <time>2020-09-08T10:37:56Z</time>
      </trkpt>
      <trkpt lat="44.15614" lon="5.02634">
        <ele>526.5</ele>
        <time>2020-09-08T10:37:57Z</time>
      </trkpt>
      <trkpt lat="44.15613" lon="5.02635">
        <ele>526.4</ele>
        <time>2020-09-08T10:37:58Z</time>
      </trkpt>
      <trkpt lat="44.15614" lon="5.02636">
        <ele>526.2</ele>
        <time>2020-09-08T10:37:59Z</time>
      </trkpt>
      <trkpt lat="44.15614" lon="5.02637">
        <ele>526</ele>
        <time>2020-09-08T10:38:00Z</time>
      </trkpt>
      <trkpt lat="44.15615" lon="5.02638">
        <ele>525.6</ele>
        <time>2020-09-08T10:38:01Z</time>
      </trkpt>
      <trkpt lat="44.15616" lon="5.02639">
        <ele>525.4</ele>
        <time>2020-09-08T10:38:02Z</time>
      </trkpt>
      <trkpt lat="44.15615" lon="5.0264">
        <ele>525.1</ele>
        <time>2020-09-08T10:38:03Z</time>
      </trkpt>
      <trkpt lat="44.15615" lon="5.0264">
        <ele>524.9</ele>
        <time>2020-09-08T10:38:04Z</time>
      </trkpt>
      <trkpt lat="44.15615" lon="5.0264">
        <ele>524.8</ele>
        <time>2020-09-08T10:38:05Z</time>
      </trkpt>
      <trkpt lat="44.15614" lon="5.02641">
        <ele>524.5</ele>
        <time>2020-09-08T10:38:06Z</time>
      </trkpt>
      <trkpt lat="44.15614" lon="5.02642">
        <ele>524.3</ele>
        <time>2020-09-08T10:38:07Z</time>
      </trkpt>
      <trkpt lat="44.15615" lon="5.02641">
        <ele>524.1</ele>
        <time>2020-09-08T10:38:08Z</time>
      </trkpt>
      <trkpt lat="44.15616" lon="5.02643">
        <ele>523.6</ele>
        <time>2020-09-08T10:38:09Z</time>
      </trkpt>
      <trkpt lat="44.15616" lon="5.02645">
        <ele>523.3</ele>
        <time>2020-09-08T10:38:10Z</time>
      </trkpt>
      <trkpt lat="44.15617" lon="5.02645">
        <ele>523.1</ele>
        <time>2020-09-08T10:38:11Z</time>
      </trkpt>
      <trkpt lat="44.15617" lon="5.02646">
        <ele>522.9</ele>
        <time>2020-09-08T10:38:12Z</time>
      </trkpt>
      <trkpt lat="44.15616" lon="5.02647">
        <ele>522.8</ele>
        <time>2020-09-08T10:38:13Z</time>
      </trkpt>
      <trkpt lat="44.15617" lon="5.02647">
        <ele>522.8</ele>
        <time>2020-09-08T10:38:14Z</time>
      </trkpt>
      <trkpt lat="44.15617" lon="5.02646">
        <ele>522.7</ele>
        <time>2020-09-08T10:38:15Z</time>
      </trkpt>
      <trkpt lat="44.15617" lon="5.02647">
        <ele>522.6</ele>
        <time>2020-09-08T10:38:16Z</time>
      </trkpt>
      <trkpt lat="44.15617" lon="5.02648">
        <ele>522.4</ele>
        <time>2020-09-08T10:38:17Z</time>
      </trkpt>
      <trkpt lat="44.15617" lon="5.02648">
        <ele>522.3</ele>
        <time>2020-09-08T10:38:18Z</time>
      </trkpt>
      <trkpt lat="44.15618" lon="5.02648">
        <ele>522.1</ele>
        <time>2020-09-08T10:38:19Z</time>
      </trkpt>
      <trkpt lat="44.15619" lon="5.02648">
        <ele>521.9</ele>
        <time>2020-09-08T10:38:20Z</time>
      </trkpt>
      <trkpt lat="44.1562" lon="5.02649">
        <ele>521.5</ele>
        <time>2020-09-08T10:38:21Z</time>
      </trkpt>
      <trkpt lat="44.1562" lon="5.02649">
        <ele>521.3</ele>
        <time>2020-09-08T10:38:22Z</time>
      </trkpt>
      <trkpt lat="44.15621" lon="5.02649">
        <ele>521.3</ele>
        <time>2020-09-08T10:38:24Z</time>
      </trkpt>
      <trkpt lat="44.1562" lon="5.02649">
        <ele>521.2</ele>
        <time>2020-09-08T10:38:25Z</time>
      </trkpt>
      <trkpt lat="44.15619" lon="5.02649">
        <ele>520.9</ele>
        <time>2020-09-08T10:38:26Z</time>
      </trkpt>
      <trkpt lat="44.15619" lon="5.02651">
        <ele>520.5</ele>
        <time>2020-09-08T10:38:27Z</time>
      </trkpt>
      <trkpt lat="44.15619" lon="5.02651">
        <ele>520.4</ele>
        <time>2020-09-08T10:38:28Z</time>
      </trkpt>
      <trkpt lat="44.15619" lon="5.02651">
        <ele>520.4</ele>
        <time>2020-09-08T10:38:29Z</time>
      </trkpt>
      <trkpt lat="44.15619" lon="5.02652">
        <ele>520.3</ele>
        <time>2020-09-08T10:38:30Z</time>
      </trkpt>
      <trkpt lat="44.15619" lon="5.02652">
        <ele>520.2</ele>
        <time>2020-09-08T10:38:31Z</time>
      </trkpt>
      <trkpt lat="44.15619" lon="5.02651">
        <ele>520.1</ele>
        <time>2020-09-08T10:38:32Z</time>
      </trkpt>
      <trkpt lat="44.15619" lon="5.02652">
        <ele>520</ele>
        <time>2020-09-08T10:38:33Z</time>
      </trkpt>
      <trkpt lat="44.15618" lon="5.02652">
        <ele>519.8</ele>
        <time>2020-09-08T10:38:34Z</time>
      </trkpt>
      <trkpt lat="44.15618" lon="5.02653">
        <ele>519.6</ele>
        <time>2020-09-08T10:38:35Z</time>
      </trkpt>
      <trkpt lat="44.15619" lon="5.02653">
        <ele>519.4</ele>
        <time>2020-09-08T10:38:36Z</time>
      </trkpt>
      <trkpt lat="44.15618" lon="5.02652">
        <ele>519.1</ele>
        <time>2020-09-08T10:38:37Z</time>
      </trkpt>
      <trkpt lat="44.15618" lon="5.02655">
        <ele>518.6</ele>
        <time>2020-09-08T10:38:38Z</time>
      </trkpt>
      <trkpt lat="44.15617" lon="5.02656">
        <ele>518.2</ele>
        <time>2020-09-08T10:38:39Z</time>
      </trkpt>
      <trkpt lat="44.15617" lon="5.02657">
        <ele>518</ele>
        <time>2020-09-08T10:38:40Z</time>
      </trkpt>
      <trkpt lat="44.15618" lon="5.02658">
        <ele>517.7</ele>
        <time>2020-09-08T10:38:41Z</time>
      </trkpt>
      <trkpt lat="44.15619" lon="5.02659">
        <ele>517.1</ele>
        <time>2020-09-08T10:38:42Z</time>
      </trkpt>
      <trkpt lat="44.15619" lon="5.0266">
        <ele>517</ele>
        <time>2020-09-08T10:38:43Z</time>
      </trkpt>
      <trkpt lat="44.15619" lon="5.02661">
        <ele>516.7</ele>
        <time>2020-09-08T10:38:44Z</time>
      </trkpt>
      <trkpt lat="44.15618" lon="5.02662">
        <ele>516.4</ele>
        <time>2020-09-08T10:38:45Z</time>
      </trkpt>
      <trkpt lat="44.15618" lon="5.02663">
        <ele>516.2</ele>
        <time>2020-09-08T10:38:46Z</time>
      </trkpt>
      <trkpt lat="44.15618" lon="5.02664">
        <ele>516</ele>
        <time>2020-09-08T10:38:47Z</time>
      </trkpt>
      <trkpt lat="44.15618" lon="5.02666">
        <ele>515.5</ele>
        <time>2020-09-08T10:38:48Z</time>
      </trkpt>
      <trkpt lat="44.15618" lon="5.02667">
        <ele>515.4</ele>
        <time>2020-09-08T10:38:49Z</time>
      </trkpt>
      <trkpt lat="44.15618" lon="5.02667">
        <ele>515.2</ele>
        <time>2020-09-08T10:38:50Z</time>
      </trkpt>
      <trkpt lat="44.15619" lon="5.02669">
        <ele>514.8</ele>
        <time>2020-09-08T10:38:51Z</time>
      </trkpt>
      <trkpt lat="44.15619" lon="5.0267">
        <ele>514.7</ele>
        <time>2020-09-08T10:38:52Z</time>
      </trkpt>
      <trkpt lat="44.15619" lon="5.02671">
        <ele>514.4</ele>
        <time>2020-09-08T10:38:53Z</time>
      </trkpt>
      <trkpt lat="44.1562" lon="5.02673">
        <ele>513.8</ele>
        <time>2020-09-08T10:38:54Z</time>
      </trkpt>
      <trkpt lat="44.15621" lon="5.02674">
        <ele>513.6</ele>
        <time>2020-09-08T10:38:55Z</time>
      </trkpt>
      <trkpt lat="44.15622" lon="5.02675">
        <ele>513.4</ele>
        <time>2020-09-08T10:38:56Z</time>
      </trkpt>
      <trkpt lat="44.15622" lon="5.02676">
        <ele>513.2</ele>
        <time>2020-09-08T10:38:57Z</time>
      </trkpt>
      <trkpt lat="44.15621" lon="5.02675">
        <ele>512.9</ele>
        <time>2020-09-08T10:38:58Z</time>
      </trkpt>
      <trkpt lat="44.15621" lon="5.02675">
        <ele>512.8</ele>
        <time>2020-09-08T10:38:59Z</time>
      </trkpt>
      <trkpt lat="44.1562" lon="5.02677">
        <ele>512.4</ele>
        <time>2020-09-08T10:39:00Z</time>
      </trkpt>
      <trkpt lat="44.15621" lon="5.02678">
        <ele>510.4</ele>
        <time>2020-09-08T10:39:01Z</time>
      </trkpt>
      <trkpt lat="44.15622" lon="5.02679">
        <ele>510.6</ele>
        <time>2020-09-08T10:39:02Z</time>
      </trkpt>
      <trkpt lat="44.15622" lon="5.0268">
        <ele>510.8</ele>
        <time>2020-09-08T10:39:03Z</time>
      </trkpt>
      <trkpt lat="44.15622" lon="5.02681">
        <ele>510.9</ele>
        <time>2020-09-08T10:39:04Z</time>
      </trkpt>
      <trkpt lat="44.15623" lon="5.02681">
        <ele>511</ele>
        <time>2020-09-08T10:39:05Z</time>
      </trkpt>
      <trkpt lat="44.15623" lon="5.02681">
        <ele>511</ele>
        <time>2020-09-08T10:39:06Z</time>
      </trkpt>
      <trkpt lat="44.15623" lon="5.02682">
        <ele>511.2</ele>
        <time>2020-09-08T10:39:07Z</time>
      </trkpt>
      <trkpt lat="44.15619" lon="5.02681">
        <ele>511.7</ele>
        <time>2020-09-08T10:39:08Z</time>
      </trkpt>
      <trkpt lat="44.15619" lon="5.02681">
        <ele>511.7</ele>
        <time>2020-09-08T10:39:09Z</time>
      </trkpt>
      <trkpt lat="44.1562" lon="5.02681">
        <ele>511.8</ele>
        <time>2020-09-08T10:39:10Z</time>
      </trkpt>
      <trkpt lat="44.1562" lon="5.0268">
        <ele>511.9</ele>
        <time>2020-09-08T10:39:11Z</time>
      </trkpt>
      <trkpt lat="44.15621" lon="5.02681">
        <ele>512.1</ele>
        <time>2020-09-08T10:39:12Z</time>
      </trkpt>
      <trkpt lat="44.1562" lon="5.02682">
        <ele>512.3</ele>
        <time>2020-09-08T10:39:13Z</time>
      </trkpt>
      <trkpt lat="44.15621" lon="5.02683">
        <ele>512.5</ele>
        <time>2020-09-08T10:39:14Z</time>
      </trkpt>
      <trkpt lat="44.1562" lon="5.02685">
        <ele>512.7</ele>
        <time>2020-09-08T10:39:16Z</time>
      </trkpt>
      <trkpt lat="44.1562" lon="5.02686">
        <ele>512.9</ele>
        <time>2020-09-08T10:39:17Z</time>
      </trkpt>
      <trkpt lat="44.1562" lon="5.02687">
        <ele>513</ele>
        <time>2020-09-08T10:39:18Z</time>
      </trkpt>
      <trkpt lat="44.15619" lon="5.02687">
        <ele>513.2</ele>
        <time>2020-09-08T10:39:19Z</time>
      </trkpt>
      <trkpt lat="44.15619" lon="5.02688">
        <ele>513.4</ele>
        <time>2020-09-08T10:39:20Z</time>
      </trkpt>
      <trkpt lat="44.15619" lon="5.02689">
        <ele>513.6</ele>
        <time>2020-09-08T10:39:21Z</time>
      </trkpt>
      <trkpt lat="44.15619" lon="5.02691">
        <ele>513.9</ele>
        <time>2020-09-08T10:39:22Z</time>
      </trkpt>
      <trkpt lat="44.15618" lon="5.02692">
        <ele>514.1</ele>
        <time>2020-09-08T10:39:23Z</time>
      </trkpt>
      <trkpt lat="44.15617" lon="5.02694">
        <ele>514.3</ele>
        <time>2020-09-08T10:39:24Z</time>
      </trkpt>
      <trkpt lat="44.15617" lon="5.02694">
        <ele>514.4</ele>
        <time>2020-09-08T10:39:25Z</time>
      </trkpt>
      <trkpt lat="44.15617" lon="5.02695">
        <ele>514.5</ele>
        <time>2020-09-08T10:39:26Z</time>
      </trkpt>
      <trkpt lat="44.15617" lon="5.02695">
        <ele>514.7</ele>
        <time>2020-09-08T10:39:27Z</time>
      </trkpt>
      <trkpt lat="44.15617" lon="5.02696">
        <ele>514.8</ele>
        <time>2020-09-08T10:39:28Z</time>
      </trkpt>
      <trkpt lat="44.15616" lon="5.02697">
        <ele>514.9</ele>
        <time>2020-09-08T10:39:29Z</time>
      </trkpt>
      <trkpt lat="44.15616" lon="5.02698">
        <ele>515</ele>
        <time>2020-09-08T10:39:30Z</time>
      </trkpt>
      <trkpt lat="44.15616" lon="5.02699">
        <ele>515.1</ele>
        <time>2020-09-08T10:39:31Z</time>
      </trkpt>
      <trkpt lat="44.15617" lon="5.02701">
        <ele>515.5</ele>
        <time>2020-09-08T10:39:32Z</time>
      </trkpt>
      <trkpt lat="44.15617" lon="5.02702">
        <ele>515.7</ele>
        <time>2020-09-08T10:39:33Z</time>
      </trkpt>
      <trkpt lat="44.15618" lon="5.02703">
        <ele>515.9</ele>
        <time>2020-09-08T10:39:34Z</time>
      </trkpt>
      <trkpt lat="44.15619" lon="5.02706">
        <ele>516.4</ele>
        <time>2020-09-08T10:39:35Z</time>
      </trkpt>
      <trkpt lat="44.1562" lon="5.02707">
        <ele>516.6</ele>
        <time>2020-09-08T10:39:36Z</time>
      </trkpt>
      <trkpt lat="44.15619" lon="5.02708">
        <ele>516.8</ele>
        <time>2020-09-08T10:39:37Z</time>
      </trkpt>
      <trkpt lat="44.15618" lon="5.02709">
        <ele>517</ele>
        <time>2020-09-08T10:39:38Z</time>
      </trkpt>
      <trkpt lat="44.15617" lon="5.02709">
        <ele>517.2</ele>
        <time>2020-09-08T10:39:39Z</time>
      </trkpt>
      <trkpt lat="44.15617" lon="5.02712">
        <ele>517.6</ele>
        <time>2020-09-08T10:39:40Z</time>
      </trkpt>
      <trkpt lat="44.15617" lon="5.02713">
        <ele>517.7</ele>
        <time>2020-09-08T10:39:41Z</time>
      </trkpt>
      <trkpt lat="44.15617" lon="5.02714">
        <ele>517.9</ele>
        <time>2020-09-08T10:39:42Z</time>
      </trkpt>
      <trkpt lat="44.15617" lon="5.02715">
        <ele>518</ele>
        <time>2020-09-08T10:39:43Z</time>
      </trkpt>
      <trkpt lat="44.15617" lon="5.02716">
        <ele>518.3</ele>
        <time>2020-09-08T10:39:44Z</time>
      </trkpt>
      <trkpt lat="44.15616" lon="5.02717">
        <ele>518.6</ele>
        <time>2020-09-08T10:39:45Z</time>
      </trkpt>
      <trkpt lat="44.15617" lon="5.02718">
        <ele>518.8</ele>
        <time>2020-09-08T10:39:46Z</time>
      </trkpt>
      <trkpt lat="44.15616" lon="5.02719">
        <ele>518.9</ele>
        <time>2020-09-08T10:39:47Z</time>
      </trkpt>
      <trkpt lat="44.15615" lon="5.02719">
        <ele>519.3</ele>
        <time>2020-09-08T10:39:48Z</time>
      </trkpt>
      <trkpt lat="44.15614" lon="5.02719">
        <ele>519.4</ele>
        <time>2020-09-08T10:39:49Z</time>
      </trkpt>
      <trkpt lat="44.15614" lon="5.02721">
        <ele>519.6</ele>
        <time>2020-09-08T10:39:50Z</time>
      </trkpt>
      <trkpt lat="44.15615" lon="5.02723">
        <ele>519.9</ele>
        <time>2020-09-08T10:39:51Z</time>
      </trkpt>
      <trkpt lat="44.15614" lon="5.02723">
        <ele>520.2</ele>
        <time>2020-09-08T10:39:52Z</time>
      </trkpt>
      <trkpt lat="44.15613" lon="5.02724">
        <ele>520.3</ele>
        <time>2020-09-08T10:39:53Z</time>
      </trkpt>
      <trkpt lat="44.15613" lon="5.02724">
        <ele>520.3</ele>
        <time>2020-09-08T10:39:54Z</time>
      </trkpt>
      <trkpt lat="44.15613" lon="5.02724">
        <ele>520.4</ele>
        <time>2020-09-08T10:39:55Z</time>
      </trkpt>
      <trkpt lat="44.15612" lon="5.02725">
        <ele>520.8</ele>
        <time>2020-09-08T10:39:56Z</time>
      </trkpt>
      <trkpt lat="44.15612" lon="5.02727">
        <ele>521.1</ele>
        <time>2020-09-08T10:39:57Z</time>
      </trkpt>
      <trkpt lat="44.15611" lon="5.02728">
        <ele>521.3</ele>
        <time>2020-09-08T10:39:58Z</time>
      </trkpt>
      <trkpt lat="44.15611" lon="5.02729">
        <ele>521.5</ele>
        <time>2020-09-08T10:39:59Z</time>
      </trkpt>
      <trkpt lat="44.15612" lon="5.02731">
        <ele>521.7</ele>
        <time>2020-09-08T10:40:00Z</time>
      </trkpt>
      <trkpt lat="44.15612" lon="5.02732">
        <ele>521.9</ele>
        <time>2020-09-08T10:40:01Z</time>
      </trkpt>
      <trkpt lat="44.15612" lon="5.02732">
        <ele>522</ele>
        <time>2020-09-08T10:40:02Z</time>
      </trkpt>
      <trkpt lat="44.15612" lon="5.02733">
        <ele>522.1</ele>
        <time>2020-09-08T10:40:03Z</time>
      </trkpt>
      <trkpt lat="44.15613" lon="5.02734">
        <ele>522.3</ele>
        <time>2020-09-08T10:40:04Z</time>
      </trkpt>
      <trkpt lat="44.15613" lon="5.02735">
        <ele>522.4</ele>
        <time>2020-09-08T10:40:05Z</time>
      </trkpt>
      <trkpt lat="44.15613" lon="5.02738">
        <ele>522.9</ele>
        <time>2020-09-08T10:40:06Z</time>
      </trkpt>
      <trkpt lat="44.15613" lon="5.02739">
        <ele>523</ele>
        <time>2020-09-08T10:40:07Z</time>
      </trkpt>
      <trkpt lat="44.15613" lon="5.02739">
        <ele>523.1</ele>
        <time>2020-09-08T10:40:08Z</time>
      </trkpt>
      <trkpt lat="44.15614" lon="5.02741">
        <ele>523.6</ele>
        <time>2020-09-08T10:40:09Z</time>
      </trkpt>
      <trkpt lat="44.15614" lon="5.02742">
        <ele>523.9</ele>
        <time>2020-09-08T10:40:10Z</time>
      </trkpt>
      <trkpt lat="44.15614" lon="5.02744">
        <ele>524.2</ele>
        <time>2020-09-08T10:40:11Z</time>
      </trkpt>
      <trkpt lat="44.15613" lon="5.02745">
        <ele>524.4</ele>
        <time>2020-09-08T10:40:12Z</time>
      </trkpt>
      <trkpt lat="44.15613" lon="5.02747">
        <ele>524.7</ele>
        <time>2020-09-08T10:40:13Z</time>
      </trkpt>
      <trkpt lat="44.15613" lon="5.02748">
        <ele>525</ele>
        <time>2020-09-08T10:40:14Z</time>
      </trkpt>
      <trkpt lat="44.15612" lon="5.02749">
        <ele>525.2</ele>
        <time>2020-09-08T10:40:15Z</time>
      </trkpt>
      <trkpt lat="44.15612" lon="5.0275">
        <ele>525.4</ele>
        <time>2020-09-08T10:40:16Z</time>
      </trkpt>
      <trkpt lat="44.15611" lon="5.0275">
        <ele>525.4</ele>
        <time>2020-09-08T10:40:17Z</time>
      </trkpt>
      <trkpt lat="44.15611" lon="5.0275">
        <ele>525.5</ele>
        <time>2020-09-08T10:40:18Z</time>
      </trkpt>
      <trkpt lat="44.15611" lon="5.02753">
        <ele>525.9</ele>
        <time>2020-09-08T10:40:19Z</time>
      </trkpt>
      <trkpt lat="44.15611" lon="5.02754">
        <ele>526.2</ele>
        <time>2020-09-08T10:40:20Z</time>
      </trkpt>
      <trkpt lat="44.15612" lon="5.02756">
        <ele>526.5</ele>
        <time>2020-09-08T10:40:21Z</time>
      </trkpt>
      <trkpt lat="44.15611" lon="5.02757">
        <ele>526.7</ele>
        <time>2020-09-08T10:40:22Z</time>
      </trkpt>
      <trkpt lat="44.15611" lon="5.02758">
        <ele>526.9</ele>
        <time>2020-09-08T10:40:23Z</time>
      </trkpt>
      <trkpt lat="44.15611" lon="5.0276">
        <ele>527.1</ele>
        <time>2020-09-08T10:40:24Z</time>
      </trkpt>
      <trkpt lat="44.15611" lon="5.02762">
        <ele>527.5</ele>
        <time>2020-09-08T10:40:25Z</time>
      </trkpt>
      <trkpt lat="44.15611" lon="5.02763">
        <ele>527.7</ele>
        <time>2020-09-08T10:40:26Z</time>
      </trkpt>
      <trkpt lat="44.1561" lon="5.02764">
        <ele>528</ele>
        <time>2020-09-08T10:40:27Z</time>
      </trkpt>
      <trkpt lat="44.15608" lon="5.02765">
        <ele>528.4</ele>
        <time>2020-09-08T10:40:28Z</time>
      </trkpt>
      <trkpt lat="44.15607" lon="5.02765">
        <ele>528.6</ele>
        <time>2020-09-08T10:40:29Z</time>
      </trkpt>
      <trkpt lat="44.15608" lon="5.02766">
        <ele>534.8</ele>
        <time>2020-09-08T10:40:30Z</time>
      </trkpt>
      <trkpt lat="44.15608" lon="5.02766">
        <ele>534.9</ele>
        <time>2020-09-08T10:40:31Z</time>
      </trkpt>
      <trkpt lat="44.15607" lon="5.02767">
        <ele>535.1</ele>
        <time>2020-09-08T10:40:32Z</time>
      </trkpt>
      <trkpt lat="44.15606" lon="5.02768">
        <ele>535.3</ele>
        <time>2020-09-08T10:40:33Z</time>
      </trkpt>
      <trkpt lat="44.15606" lon="5.02769">
        <ele>535.4</ele>
        <time>2020-09-08T10:40:34Z</time>
      </trkpt>
      <trkpt lat="44.15606" lon="5.0277">
        <ele>535.5</ele>
        <time>2020-09-08T10:40:35Z</time>
      </trkpt>
      <trkpt lat="44.15605" lon="5.02772">
        <ele>535.8</ele>
        <time>2020-09-08T10:40:36Z</time>
      </trkpt>
      <trkpt lat="44.15605" lon="5.02772">
        <ele>535.9</ele>
        <time>2020-09-08T10:40:37Z</time>
      </trkpt>
      <trkpt lat="44.15604" lon="5.02774">
        <ele>536.1</ele>
        <time>2020-09-08T10:40:38Z</time>
      </trkpt>
      <trkpt lat="44.15603" lon="5.02774">
        <ele>536.1</ele>
        <time>2020-09-08T10:40:39Z</time>
      </trkpt>
      <trkpt lat="44.15603" lon="5.02773">
        <ele>536.2</ele>
        <time>2020-09-08T10:40:40Z</time>
      </trkpt>
      <trkpt lat="44.15603" lon="5.02773">
        <ele>536.3</ele>
        <time>2020-09-08T10:40:41Z</time>
      </trkpt>
      <trkpt lat="44.15602" lon="5.02773">
        <ele>536.3</ele>
        <time>2020-09-08T10:40:42Z</time>
      </trkpt>
      <trkpt lat="44.15602" lon="5.02773">
        <ele>536.4</ele>
        <time>2020-09-08T10:40:43Z</time>
      </trkpt>
      <trkpt lat="44.15602" lon="5.02773">
        <ele>536.4</ele>
        <time>2020-09-08T10:40:44Z</time>
      </trkpt>
      <trkpt lat="44.15602" lon="5.02772">
        <ele>536.5</ele>
        <time>2020-09-08T10:40:45Z</time>
      </trkpt>
      <trkpt lat="44.15602" lon="5.02772">
        <ele>536.6</ele>
        <time>2020-09-08T10:40:46Z</time>
      </trkpt>
      <trkpt lat="44.15602" lon="5.02771">
        <ele>536.7</ele>
        <time>2020-09-08T10:40:47Z</time>
      </trkpt>
      <trkpt lat="44.15603" lon="5.02769">
        <ele>536.9</ele>
        <time>2020-09-08T10:40:48Z</time>
      </trkpt>
      <trkpt lat="44.15602" lon="5.02768">
        <ele>537.1</ele>
        <time>2020-09-08T10:40:49Z</time>
      </trkpt>
      <trkpt lat="44.15602" lon="5.02767">
        <ele>537.2</ele>
        <time>2020-09-08T10:40:50Z</time>
      </trkpt>
      <trkpt lat="44.15602" lon="5.02767">
        <ele>537.2</ele>
        <time>2020-09-08T10:40:51Z</time>
      </trkpt>
      <trkpt lat="44.15601" lon="5.02766">
        <ele>537.3</ele>
        <time>2020-09-08T10:40:52Z</time>
      </trkpt>
      <trkpt lat="44.15601" lon="5.02765">
        <ele>537.4</ele>
        <time>2020-09-08T10:40:53Z</time>
      </trkpt>
      <trkpt lat="44.15601" lon="5.02765">
        <ele>537.5</ele>
        <time>2020-09-08T10:40:54Z</time>
      </trkpt>
      <trkpt lat="44.15601" lon="5.02764">
        <ele>537.5</ele>
        <time>2020-09-08T10:40:55Z</time>
      </trkpt>
      <trkpt lat="44.156" lon="5.02763">
        <ele>537.6</ele>
        <time>2020-09-08T10:40:56Z</time>
      </trkpt>
      <trkpt lat="44.156" lon="5.02763">
        <ele>537.7</ele>
        <time>2020-09-08T10:40:57Z</time>
      </trkpt>
      <trkpt lat="44.15599" lon="5.02763">
        <ele>537.9</ele>
        <time>2020-09-08T10:40:58Z</time>
      </trkpt>
      <trkpt lat="44.15601" lon="5.02762">
        <ele>538.1</ele>
        <time>2020-09-08T10:40:59Z</time>
      </trkpt>
      <trkpt lat="44.15602" lon="5.02761">
        <ele>538.4</ele>
        <time>2020-09-08T10:41:00Z</time>
      </trkpt>
      <trkpt lat="44.15602" lon="5.0276">
        <ele>538.5</ele>
        <time>2020-09-08T10:41:01Z</time>
      </trkpt>
      <trkpt lat="44.15602" lon="5.0276">
        <ele>538.6</ele>
        <time>2020-09-08T10:41:02Z</time>
      </trkpt>
      <trkpt lat="44.15601" lon="5.02757">
        <ele>538.9</ele>
        <time>2020-09-08T10:41:03Z</time>
      </trkpt>
      <trkpt lat="44.15602" lon="5.02756">
        <ele>539</ele>
        <time>2020-09-08T10:41:04Z</time>
      </trkpt>
      <trkpt lat="44.15602" lon="5.02755">
        <ele>539.2</ele>
        <time>2020-09-08T10:41:05Z</time>
      </trkpt>
      <trkpt lat="44.15604" lon="5.02752">
        <ele>539.6</ele>
        <time>2020-09-08T10:41:06Z</time>
      </trkpt>
      <trkpt lat="44.15604" lon="5.02751">
        <ele>539.7</ele>
        <time>2020-09-08T10:41:07Z</time>
      </trkpt>
      <trkpt lat="44.15605" lon="5.0275">
        <ele>539.9</ele>
        <time>2020-09-08T10:41:08Z</time>
      </trkpt>
      <trkpt lat="44.15604" lon="5.02748">
        <ele>540.1</ele>
        <time>2020-09-08T10:41:09Z</time>
      </trkpt>
      <trkpt lat="44.15604" lon="5.02746">
        <ele>540.3</ele>
        <time>2020-09-08T10:41:10Z</time>
      </trkpt>
      <trkpt lat="44.15604" lon="5.02747">
        <ele>540.4</ele>
        <time>2020-09-08T10:41:11Z</time>
      </trkpt>
      <trkpt lat="44.15603" lon="5.02746">
        <ele>540.5</ele>
        <time>2020-09-08T10:41:12Z</time>
      </trkpt>
      <trkpt lat="44.15603" lon="5.02746">
        <ele>540.6</ele>
        <time>2020-09-08T10:41:13Z</time>
      </trkpt>
      <trkpt lat="44.15601" lon="5.02746">
        <ele>540.8</ele>
        <time>2020-09-08T10:41:14Z</time>
      </trkpt>
      <trkpt lat="44.15601" lon="5.02747">
        <ele>540.8</ele>
        <time>2020-09-08T10:41:15Z</time>
      </trkpt>
      <trkpt lat="44.156" lon="5.02748">
        <ele>541</ele>
        <time>2020-09-08T10:41:16Z</time>
      </trkpt>
      <trkpt lat="44.156" lon="5.02747">
        <ele>541.1</ele>
        <time>2020-09-08T10:41:17Z</time>
      </trkpt>
      <trkpt lat="44.15599" lon="5.02747">
        <ele>541.1</ele>
        <time>2020-09-08T10:41:18Z</time>
      </trkpt>
      <trkpt lat="44.15599" lon="5.02746">
        <ele>541.3</ele>
        <time>2020-09-08T10:41:19Z</time>
      </trkpt>
      <trkpt lat="44.15598" lon="5.02746">
        <ele>541.4</ele>
        <time>2020-09-08T10:41:20Z</time>
      </trkpt>
      <trkpt lat="44.15598" lon="5.02745">
        <ele>541.5</ele>
        <time>2020-09-08T10:41:22Z</time>
      </trkpt>
      <trkpt lat="44.15597" lon="5.02744">
        <ele>541.6</ele>
        <time>2020-09-08T10:41:23Z</time>
      </trkpt>
      <trkpt lat="44.15597" lon="5.02743">
        <ele>541.7</ele>
        <time>2020-09-08T10:41:24Z</time>
      </trkpt>
      <trkpt lat="44.15597" lon="5.02744">
        <ele>541.7</ele>
        <time>2020-09-08T10:41:25Z</time>
      </trkpt>
      <trkpt lat="44.15596" lon="5.02743">
        <ele>541.9</ele>
        <time>2020-09-08T10:41:26Z</time>
      </trkpt>
      <trkpt lat="44.15596" lon="5.02744">
        <ele>541.9</ele>
        <time>2020-09-08T10:41:27Z</time>
      </trkpt>
      <trkpt lat="44.15596" lon="5.02744">
        <ele>541.9</ele>
        <time>2020-09-08T10:41:28Z</time>
      </trkpt>
      <trkpt lat="44.15595" lon="5.02743">
        <ele>542</ele>
        <time>2020-09-08T10:41:29Z</time>
      </trkpt>
      <trkpt lat="44.15594" lon="5.02745">
        <ele>542.3</ele>
        <time>2020-09-08T10:41:30Z</time>
      </trkpt>
      <trkpt lat="44.15593" lon="5.02746">
        <ele>542.4</ele>
        <time>2020-09-08T10:41:31Z</time>
      </trkpt>
      <trkpt lat="44.15592" lon="5.02747">
        <ele>542.6</ele>
        <time>2020-09-08T10:41:32Z</time>
      </trkpt>
      <trkpt lat="44.15592" lon="5.02749">
        <ele>542.8</ele>
        <time>2020-09-08T10:41:33Z</time>
      </trkpt>
      <trkpt lat="44.15592" lon="5.02749">
        <ele>542.9</ele>
        <time>2020-09-08T10:41:34Z</time>
      </trkpt>
      <trkpt lat="44.1559" lon="5.02748">
        <ele>543.1</ele>
        <time>2020-09-08T10:41:35Z</time>
      </trkpt>
      <trkpt lat="44.1559" lon="5.02747">
        <ele>543.3</ele>
        <time>2020-09-08T10:41:36Z</time>
      </trkpt>
      <trkpt lat="44.15589" lon="5.02746">
        <ele>543.4</ele>
        <time>2020-09-08T10:41:37Z</time>
      </trkpt>
      <trkpt lat="44.15589" lon="5.02746">
        <ele>543.5</ele>
        <time>2020-09-08T10:41:38Z</time>
      </trkpt>
      <trkpt lat="44.15588" lon="5.02747">
        <ele>543.6</ele>
        <time>2020-09-08T10:41:39Z</time>
      </trkpt>
      <trkpt lat="44.15587" lon="5.02747">
        <ele>543.7</ele>
        <time>2020-09-08T10:41:40Z</time>
      </trkpt>
      <trkpt lat="44.15587" lon="5.02747">
        <ele>543.8</ele>
        <time>2020-09-08T10:41:41Z</time>
      </trkpt>
      <trkpt lat="44.15587" lon="5.02747">
        <ele>543.8</ele>
        <time>2020-09-08T10:41:42Z</time>
      </trkpt>
      <trkpt lat="44.15586" lon="5.02747">
        <ele>544</ele>
        <time>2020-09-08T10:41:43Z</time>
      </trkpt>
      <trkpt lat="44.15586" lon="5.02747">
        <ele>544.1</ele>
        <time>2020-09-08T10:41:44Z</time>
      </trkpt>
      <trkpt lat="44.15586" lon="5.02746">
        <ele>544.1</ele>
        <time>2020-09-08T10:41:45Z</time>
      </trkpt>
      <trkpt lat="44.15586" lon="5.02748">
        <ele>544.3</ele>
        <time>2020-09-08T10:41:46Z</time>
      </trkpt>
      <trkpt lat="44.15584" lon="5.02749">
        <ele>544.6</ele>
        <time>2020-09-08T10:41:47Z</time>
      </trkpt>
      <trkpt lat="44.15584" lon="5.02751">
        <ele>544.7</ele>
        <time>2020-09-08T10:41:48Z</time>
      </trkpt>
      <trkpt lat="44.15582" lon="5.0275">
        <ele>544.9</ele>
        <time>2020-09-08T10:41:49Z</time>
      </trkpt>
      <trkpt lat="44.15581" lon="5.0275">
        <ele>545.1</ele>
        <time>2020-09-08T10:41:50Z</time>
      </trkpt>
      <trkpt lat="44.15581" lon="5.0275">
        <ele>545.2</ele>
        <time>2020-09-08T10:41:51Z</time>
      </trkpt>
      <trkpt lat="44.1558" lon="5.02751">
        <ele>545.3</ele>
        <time>2020-09-08T10:41:52Z</time>
      </trkpt>
      <trkpt lat="44.1558" lon="5.02751">
        <ele>545.4</ele>
        <time>2020-09-08T10:41:53Z</time>
      </trkpt>
      <trkpt lat="44.1558" lon="5.02751">
        <ele>545.4</ele>
        <time>2020-09-08T10:41:54Z</time>
      </trkpt>
      <trkpt lat="44.1558" lon="5.02753">
        <ele>548.5</ele>
        <time>2020-09-08T10:41:55Z</time>
      </trkpt>
      <trkpt lat="44.1558" lon="5.02753">
        <ele>548.6</ele>
        <time>2020-09-08T10:41:56Z</time>
      </trkpt>
      <trkpt lat="44.15579" lon="5.02753">
        <ele>548.7</ele>
        <time>2020-09-08T10:41:57Z</time>
      </trkpt>
      <trkpt lat="44.15578" lon="5.02752">
        <ele>548.8</ele>
        <time>2020-09-08T10:41:58Z</time>
      </trkpt>
      <trkpt lat="44.15579" lon="5.0275">
        <ele>548.9</ele>
        <time>2020-09-08T10:41:59Z</time>
      </trkpt>
      <trkpt lat="44.15579" lon="5.0275">
        <ele>549</ele>
        <time>2020-09-08T10:42:00Z</time>
      </trkpt>
      <trkpt lat="44.15579" lon="5.0275">
        <ele>549</ele>
        <time>2020-09-08T10:42:01Z</time>
      </trkpt>
      <trkpt lat="44.15579" lon="5.02749">
        <ele>549</ele>
        <time>2020-09-08T10:42:02Z</time>
      </trkpt>
      <trkpt lat="44.15579" lon="5.02749">
        <ele>549</ele>
        <time>2020-09-08T10:42:03Z</time>
      </trkpt>
      <trkpt lat="44.15579" lon="5.02749">
        <ele>549</ele>
        <time>2020-09-08T10:42:04Z</time>
      </trkpt>
      <trkpt lat="44.15579" lon="5.02749">
        <ele>549</ele>
        <time>2020-09-08T10:42:05Z</time>
      </trkpt>
      <trkpt lat="44.15579" lon="5.02749">
        <ele>549.1</ele>
        <time>2020-09-08T10:42:06Z</time>
      </trkpt>
      <trkpt lat="44.15579" lon="5.02749">
        <ele>549.1</ele>
        <time>2020-09-08T10:42:07Z</time>
      </trkpt>
      <trkpt lat="44.15579" lon="5.02749">
        <ele>549.1</ele>
        <time>2020-09-08T10:42:08Z</time>
      </trkpt>
      <trkpt lat="44.15578" lon="5.02748">
        <ele>549.1</ele>
        <time>2020-09-08T10:42:09Z</time>
      </trkpt>
      <trkpt lat="44.15578" lon="5.02748">
        <ele>549.1</ele>
        <time>2020-09-08T10:42:10Z</time>
      </trkpt>
      <trkpt lat="44.15578" lon="5.02748">
        <ele>549.1</ele>
        <time>2020-09-08T10:42:11Z</time>
      </trkpt>
      <trkpt lat="44.15578" lon="5.02748">
        <ele>549.1</ele>
        <time>2020-09-08T10:42:12Z</time>
      </trkpt>
      <trkpt lat="44.15578" lon="5.02748">
        <ele>549.2</ele>
        <time>2020-09-08T10:42:13Z</time>
      </trkpt>
      <trkpt lat="44.15578" lon="5.02748">
        <ele>549.2</ele>
        <time>2020-09-08T10:42:14Z</time>
      </trkpt>
      <trkpt lat="44.15578" lon="5.02747">
        <ele>549.2</ele>
        <time>2020-09-08T10:42:15Z</time>
      </trkpt>
      <trkpt lat="44.15578" lon="5.02747">
        <ele>549.2</ele>
        <time>2020-09-08T10:42:16Z</time>
      </trkpt>
      <trkpt lat="44.15578" lon="5.02747">
        <ele>549.2</ele>
        <time>2020-09-08T10:42:17Z</time>
      </trkpt>
      <trkpt lat="44.15578" lon="5.02747">
        <ele>549.2</ele>
        <time>2020-09-08T10:42:18Z</time>
      </trkpt>
      <trkpt lat="44.15578" lon="5.02747">
        <ele>549.2</ele>
        <time>2020-09-08T10:42:19Z</time>
      </trkpt>
      <trkpt lat="44.15578" lon="5.02747">
        <ele>549.2</ele>
        <time>2020-09-08T10:42:20Z</time>
      </trkpt>
      <trkpt lat="44.15578" lon="5.02747">
        <ele>549.2</ele>
        <time>2020-09-08T10:42:21Z</time>
      </trkpt>
      <trkpt lat="44.15578" lon="5.02746">
        <ele>549.2</ele>
        <time>2020-09-08T10:42:22Z</time>
      </trkpt>
      <trkpt lat="44.15578" lon="5.02746">
        <ele>549.2</ele>
        <time>2020-09-08T10:42:23Z</time>
      </trkpt>
      <trkpt lat="44.15578" lon="5.02746">
        <ele>549.2</ele>
        <time>2020-09-08T10:42:24Z</time>
      </trkpt>
      <trkpt lat="44.15578" lon="5.02746">
        <ele>549.2</ele>
        <time>2020-09-08T10:42:25Z</time>
      </trkpt>
      <trkpt lat="44.15577" lon="5.02746">
        <ele>549.2</ele>
        <time>2020-09-08T10:42:26Z</time>
      </trkpt>
      <trkpt lat="44.15577" lon="5.02746">
        <ele>549.3</ele>
        <time>2020-09-08T10:42:27Z</time>
      </trkpt>
      <trkpt lat="44.15577" lon="5.02745">
        <ele>549.3</ele>
        <time>2020-09-08T10:42:28Z</time>
      </trkpt>
      <trkpt lat="44.15577" lon="5.02745">
        <ele>549.3</ele>
        <time>2020-09-08T10:42:29Z</time>
      </trkpt>
      <trkpt lat="44.15577" lon="5.02745">
        <ele>549.3</ele>
        <time>2020-09-08T10:42:30Z</time>
      </trkpt>
      <trkpt lat="44.15577" lon="5.02745">
        <ele>549.3</ele>
        <time>2020-09-08T10:42:31Z</time>
      </trkpt>
      <trkpt lat="44.15577" lon="5.02745">
        <ele>549.3</ele>
        <time>2020-09-08T10:42:32Z</time>
      </trkpt>
      <trkpt lat="44.15577" lon="5.02745">
        <ele>549.3</ele>
        <time>2020-09-08T10:42:33Z</time>
      </trkpt>
      <trkpt lat="44.15577" lon="5.02744">
        <ele>549.4</ele>
        <time>2020-09-08T10:42:34Z</time>
      </trkpt>
      <trkpt lat="44.15577" lon="5.02744">
        <ele>549.4</ele>
        <time>2020-09-08T10:42:35Z</time>
      </trkpt>
      <trkpt lat="44.15577" lon="5.02744">
        <ele>549.4</ele>
        <time>2020-09-08T10:42:36Z</time>
      </trkpt>
      <trkpt lat="44.15577" lon="5.02744">
        <ele>549.3</ele>
        <time>2020-09-08T10:42:37Z</time>
      </trkpt>
      <trkpt lat="44.15577" lon="5.02744">
        <ele>549.3</ele>
        <time>2020-09-08T10:42:38Z</time>
      </trkpt>
      <trkpt lat="44.15577" lon="5.02744">
        <ele>549.3</ele>
        <time>2020-09-08T10:42:39Z</time>
      </trkpt>
      <trkpt lat="44.15577" lon="5.02744">
        <ele>549.4</ele>
        <time>2020-09-08T10:42:40Z</time>
      </trkpt>
      <trkpt lat="44.15577" lon="5.02743">
        <ele>549.4</ele>
        <time>2020-09-08T10:42:41Z</time>
      </trkpt>
      <trkpt lat="44.15576" lon="5.02743">
        <ele>549.4</ele>
        <time>2020-09-08T10:42:42Z</time>
      </trkpt>
      <trkpt lat="44.15576" lon="5.02743">
        <ele>549.4</ele>
        <time>2020-09-08T10:42:43Z</time>
      </trkpt>
      <trkpt lat="44.15576" lon="5.02743">
        <ele>549.4</ele>
        <time>2020-09-08T10:42:44Z</time>
      </trkpt>
      <trkpt lat="44.15576" lon="5.02743">
        <ele>549.4</ele>
        <time>2020-09-08T10:42:45Z</time>
      </trkpt>
      <trkpt lat="44.15576" lon="5.02743">
        <ele>549.4</ele>
        <time>2020-09-08T10:42:46Z</time>
      </trkpt>
      <trkpt lat="44.15576" lon="5.02742">
        <ele>549.5</ele>
        <time>2020-09-08T10:42:47Z</time>
      </trkpt>
      <trkpt lat="44.15576" lon="5.02742">
        <ele>549.5</ele>
        <time>2020-09-08T10:42:48Z</time>
      </trkpt>
      <trkpt lat="44.15576" lon="5.02742">
        <ele>549.4</ele>
        <time>2020-09-08T10:42:49Z</time>
      </trkpt>
      <trkpt lat="44.15576" lon="5.02742">
        <ele>549.4</ele>
        <time>2020-09-08T10:42:50Z</time>
      </trkpt>
      <trkpt lat="44.15576" lon="5.02742">
        <ele>549.4</ele>
        <time>2020-09-08T10:42:51Z</time>
      </trkpt>
      <trkpt lat="44.15576" lon="5.02742">
        <ele>549.4</ele>
        <time>2020-09-08T10:42:52Z</time>
      </trkpt>
      <trkpt lat="44.15576" lon="5.02742">
        <ele>549.5</ele>
        <time>2020-09-08T10:42:53Z</time>
      </trkpt>
      <trkpt lat="44.15576" lon="5.02741">
        <ele>549.5</ele>
        <time>2020-09-08T10:42:54Z</time>
      </trkpt>
      <trkpt lat="44.15576" lon="5.02741">
        <ele>549.5</ele>
        <time>2020-09-08T10:42:55Z</time>
      </trkpt>
      <trkpt lat="44.15576" lon="5.02741">
        <ele>549.5</ele>
        <time>2020-09-08T10:42:56Z</time>
      </trkpt>
      <trkpt lat="44.15576" lon="5.02741">
        <ele>549.5</ele>
        <time>2020-09-08T10:42:57Z</time>
      </trkpt>
      <trkpt lat="44.15576" lon="5.02741">
        <ele>549.4</ele>
        <time>2020-09-08T10:42:58Z</time>
      </trkpt>
      <trkpt lat="44.15575" lon="5.0274">
        <ele>549.5</ele>
        <time>2020-09-08T10:42:59Z</time>
      </trkpt>
      <trkpt lat="44.15575" lon="5.02738">
        <ele>549.7</ele>
        <time>2020-09-08T10:43:00Z</time>
      </trkpt>
      <trkpt lat="44.15575" lon="5.02737">
        <ele>549.7</ele>
        <time>2020-09-08T10:43:01Z</time>
      </trkpt>
      <trkpt lat="44.15575" lon="5.02737">
        <ele>549.7</ele>
        <time>2020-09-08T10:43:02Z</time>
      </trkpt>
      <trkpt lat="44.15574" lon="5.02737">
        <ele>549.7</ele>
        <time>2020-09-08T10:43:03Z</time>
      </trkpt>
      <trkpt lat="44.15574" lon="5.02736">
        <ele>549.8</ele>
        <time>2020-09-08T10:43:04Z</time>
      </trkpt>
      <trkpt lat="44.15574" lon="5.02735">
        <ele>549.8</ele>
        <time>2020-09-08T10:43:05Z</time>
      </trkpt>
      <trkpt lat="44.15574" lon="5.02734">
        <ele>549.9</ele>
        <time>2020-09-08T10:43:06Z</time>
      </trkpt>
      <trkpt lat="44.15574" lon="5.02733">
        <ele>549.9</ele>
        <time>2020-09-08T10:43:07Z</time>
      </trkpt>
      <trkpt lat="44.15575" lon="5.02732">
        <ele>549.9</ele>
        <time>2020-09-08T10:43:08Z</time>
      </trkpt>
      <trkpt lat="44.15575" lon="5.02731">
        <ele>550</ele>
        <time>2020-09-08T10:43:09Z</time>
      </trkpt>
      <trkpt lat="44.15575" lon="5.02731">
        <ele>550</ele>
        <time>2020-09-08T10:43:10Z</time>
      </trkpt>
      <trkpt lat="44.15575" lon="5.0273">
        <ele>550</ele>
        <time>2020-09-08T10:43:11Z</time>
      </trkpt>
      <trkpt lat="44.15575" lon="5.0273">
        <ele>550.1</ele>
        <time>2020-09-08T10:43:12Z</time>
      </trkpt>
      <trkpt lat="44.15575" lon="5.02729">
        <ele>550</ele>
        <time>2020-09-08T10:43:13Z</time>
      </trkpt>
      <trkpt lat="44.15575" lon="5.02729">
        <ele>550.1</ele>
        <time>2020-09-08T10:43:14Z</time>
      </trkpt>
      <trkpt lat="44.15574" lon="5.02728">
        <ele>550.1</ele>
        <time>2020-09-08T10:43:15Z</time>
      </trkpt>
      <trkpt lat="44.15574" lon="5.02728">
        <ele>550.1</ele>
        <time>2020-09-08T10:43:16Z</time>
      </trkpt>
      <trkpt lat="44.15574" lon="5.02727">
        <ele>550.1</ele>
        <time>2020-09-08T10:43:17Z</time>
      </trkpt>
      <trkpt lat="44.15574" lon="5.02727">
        <ele>550.1</ele>
        <time>2020-09-08T10:43:18Z</time>
      </trkpt>
      <trkpt lat="44.15574" lon="5.02726">
        <ele>550.2</ele>
        <time>2020-09-08T10:43:19Z</time>
      </trkpt>
      <trkpt lat="44.15574" lon="5.02726">
        <ele>550.2</ele>
        <time>2020-09-08T10:43:20Z</time>
      </trkpt>
      <trkpt lat="44.15574" lon="5.02725">
        <ele>550.2</ele>
        <time>2020-09-08T10:43:21Z</time>
      </trkpt>
      <trkpt lat="44.15574" lon="5.02725">
        <ele>550.2</ele>
        <time>2020-09-08T10:43:22Z</time>
      </trkpt>
      <trkpt lat="44.15575" lon="5.02724">
        <ele>550.3</ele>
        <time>2020-09-08T10:43:23Z</time>
      </trkpt>
      <trkpt lat="44.15575" lon="5.02724">
        <ele>550.3</ele>
        <time>2020-09-08T10:43:24Z</time>
      </trkpt>
      <trkpt lat="44.15576" lon="5.02723">
        <ele>550.4</ele>
        <time>2020-09-08T10:43:25Z</time>
      </trkpt>
      <trkpt lat="44.15576" lon="5.02723">
        <ele>550.4</ele>
        <time>2020-09-08T10:43:26Z</time>
      </trkpt>
      <trkpt lat="44.15576" lon="5.02723">
        <ele>550.4</ele>
        <time>2020-09-08T10:43:28Z</time>
      </trkpt>
      <trkpt lat="44.15575" lon="5.02724">
        <ele>550.5</ele>
        <time>2020-09-08T10:43:29Z</time>
      </trkpt>
      <trkpt lat="44.15575" lon="5.02723">
        <ele>550.6</ele>
        <time>2020-09-08T10:43:30Z</time>
      </trkpt>
      <trkpt lat="44.15575" lon="5.02723">
        <ele>550.6</ele>
        <time>2020-09-08T10:43:31Z</time>
      </trkpt>
      <trkpt lat="44.15575" lon="5.02723">
        <ele>550.5</ele>
        <time>2020-09-08T10:43:32Z</time>
      </trkpt>
      <trkpt lat="44.15576" lon="5.02722">
        <ele>550.6</ele>
        <time>2020-09-08T10:43:33Z</time>
      </trkpt>
      <trkpt lat="44.15575" lon="5.02722">
        <ele>550.6</ele>
        <time>2020-09-08T10:43:34Z</time>
      </trkpt>
      <trkpt lat="44.15574" lon="5.02721">
        <ele>550.7</ele>
        <time>2020-09-08T10:43:35Z</time>
      </trkpt>
      <trkpt lat="44.15575" lon="5.0272">
        <ele>550.7</ele>
        <time>2020-09-08T10:43:36Z</time>
      </trkpt>
      <trkpt lat="44.15574" lon="5.0272">
        <ele>550.8</ele>
        <time>2020-09-08T10:43:37Z</time>
      </trkpt>
      <trkpt lat="44.15574" lon="5.0272">
        <ele>550.7</ele>
        <time>2020-09-08T10:43:38Z</time>
      </trkpt>
      <trkpt lat="44.15574" lon="5.0272">
        <ele>550.7</ele>
        <time>2020-09-08T10:43:39Z</time>
      </trkpt>
      <trkpt lat="44.15574" lon="5.02719">
        <ele>550.7</ele>
        <time>2020-09-08T10:43:40Z</time>
      </trkpt>
      <trkpt lat="44.15574" lon="5.02718">
        <ele>550.8</ele>
        <time>2020-09-08T10:43:41Z</time>
      </trkpt>
      <trkpt lat="44.15574" lon="5.02718">
        <ele>550.8</ele>
        <time>2020-09-08T10:43:42Z</time>
      </trkpt>
      <trkpt lat="44.15575" lon="5.02717">
        <ele>550.7</ele>
        <time>2020-09-08T10:43:43Z</time>
      </trkpt>
      <trkpt lat="44.15575" lon="5.02717">
        <ele>550.8</ele>
        <time>2020-09-08T10:43:44Z</time>
      </trkpt>
      <trkpt lat="44.15575" lon="5.02717">
        <ele>550.8</ele>
        <time>2020-09-08T10:43:45Z</time>
      </trkpt>
      <trkpt lat="44.15576" lon="5.02715">
        <ele>550.8</ele>
        <time>2020-09-08T10:43:46Z</time>
      </trkpt>
      <trkpt lat="44.15576" lon="5.02713">
        <ele>550.8</ele>
        <time>2020-09-08T10:43:47Z</time>
      </trkpt>
      <trkpt lat="44.15577" lon="5.02713">
        <ele>550.9</ele>
        <time>2020-09-08T10:43:48Z</time>
      </trkpt>
      <trkpt lat="44.15578" lon="5.02712">
        <ele>551</ele>
        <time>2020-09-08T10:43:49Z</time>
      </trkpt>
      <trkpt lat="44.15579" lon="5.02712">
        <ele>551</ele>
        <time>2020-09-08T10:43:50Z</time>
      </trkpt>
      <trkpt lat="44.15578" lon="5.02711">
        <ele>551.1</ele>
        <time>2020-09-08T10:43:51Z</time>
      </trkpt>
      <trkpt lat="44.15578" lon="5.02711">
        <ele>551.1</ele>
        <time>2020-09-08T10:43:52Z</time>
      </trkpt>
      <trkpt lat="44.1558" lon="5.02712">
        <ele>551.2</ele>
        <time>2020-09-08T10:43:53Z</time>
      </trkpt>
      <trkpt lat="44.1558" lon="5.02712">
        <ele>551.2</ele>
        <time>2020-09-08T10:43:54Z</time>
      </trkpt>
      <trkpt lat="44.1558" lon="5.02712">
        <ele>551.2</ele>
        <time>2020-09-08T10:43:55Z</time>
      </trkpt>
      <trkpt lat="44.1558" lon="5.02712">
        <ele>551.2</ele>
        <time>2020-09-08T10:43:56Z</time>
      </trkpt>
      <trkpt lat="44.15581" lon="5.02711">
        <ele>551.3</ele>
        <time>2020-09-08T10:43:57Z</time>
      </trkpt>
      <trkpt lat="44.15581" lon="5.02711">
        <ele>551.3</ele>
        <time>2020-09-08T10:43:58Z</time>
      </trkpt>
      <trkpt lat="44.15581" lon="5.02711">
        <ele>551.3</ele>
        <time>2020-09-08T10:43:59Z</time>
      </trkpt>
      <trkpt lat="44.15581" lon="5.02711">
        <ele>551.3</ele>
        <time>2020-09-08T10:44:00Z</time>
      </trkpt>
      <trkpt lat="44.15581" lon="5.0271">
        <ele>551.4</ele>
        <time>2020-09-08T10:44:01Z</time>
      </trkpt>
      <trkpt lat="44.15581" lon="5.0271">
        <ele>551.4</ele>
        <time>2020-09-08T10:44:02Z</time>
      </trkpt>
      <trkpt lat="44.1558" lon="5.02709">
        <ele>551.4</ele>
        <time>2020-09-08T10:44:03Z</time>
      </trkpt>
      <trkpt lat="44.1558" lon="5.02709">
        <ele>551.4</ele>
        <time>2020-09-08T10:44:04Z</time>
      </trkpt>
      <trkpt lat="44.1558" lon="5.02709">
        <ele>551.4</ele>
        <time>2020-09-08T10:44:05Z</time>
      </trkpt>
      <trkpt lat="44.1558" lon="5.02709">
        <ele>551.5</ele>
        <time>2020-09-08T10:44:06Z</time>
      </trkpt>
      <trkpt lat="44.1558" lon="5.02709">
        <ele>551.5</ele>
        <time>2020-09-08T10:44:07Z</time>
      </trkpt>
      <trkpt lat="44.1558" lon="5.02708">
        <ele>551.5</ele>
        <time>2020-09-08T10:44:08Z</time>
      </trkpt>
      <trkpt lat="44.1558" lon="5.02709">
        <ele>551.5</ele>
        <time>2020-09-08T10:44:09Z</time>
      </trkpt>
      <trkpt lat="44.1558" lon="5.02709">
        <ele>551.6</ele>
        <time>2020-09-08T10:44:10Z</time>
      </trkpt>
      <trkpt lat="44.15579" lon="5.02709">
        <ele>551.6</ele>
        <time>2020-09-08T10:44:11Z</time>
      </trkpt>
      <trkpt lat="44.15579" lon="5.02709">
        <ele>551.6</ele>
        <time>2020-09-08T10:44:12Z</time>
      </trkpt>
      <trkpt lat="44.15579" lon="5.02709">
        <ele>551.6</ele>
        <time>2020-09-08T10:44:13Z</time>
      </trkpt>
      <trkpt lat="44.1558" lon="5.02709">
        <ele>551.6</ele>
        <time>2020-09-08T10:44:14Z</time>
      </trkpt>
      <trkpt lat="44.1558" lon="5.02709">
        <ele>551.6</ele>
        <time>2020-09-08T10:44:15Z</time>
      </trkpt>
      <trkpt lat="44.15581" lon="5.02709">
        <ele>551.7</ele>
        <time>2020-09-08T10:44:16Z</time>
      </trkpt>
      <trkpt lat="44.15581" lon="5.0271">
        <ele>551.7</ele>
        <time>2020-09-08T10:44:17Z</time>
      </trkpt>
      <trkpt lat="44.15582" lon="5.02709">
        <ele>551.8</ele>
        <time>2020-09-08T10:44:18Z</time>
      </trkpt>
      <trkpt lat="44.15582" lon="5.02709">
        <ele>551.8</ele>
        <time>2020-09-08T10:44:19Z</time>
      </trkpt>
      <trkpt lat="44.15582" lon="5.02708">
        <ele>551.8</ele>
        <time>2020-09-08T10:44:20Z</time>
      </trkpt>
      <trkpt lat="44.15583" lon="5.02708">
        <ele>551.9</ele>
        <time>2020-09-08T10:44:21Z</time>
      </trkpt>
      <trkpt lat="44.15583" lon="5.02708">
        <ele>551.9</ele>
        <time>2020-09-08T10:44:22Z</time>
      </trkpt>
      <trkpt lat="44.15583" lon="5.02708">
        <ele>551.9</ele>
        <time>2020-09-08T10:44:23Z</time>
      </trkpt>
      <trkpt lat="44.15583" lon="5.02708">
        <ele>551.9</ele>
        <time>2020-09-08T10:44:24Z</time>
      </trkpt>
      <trkpt lat="44.15583" lon="5.02708">
        <ele>551.9</ele>
        <time>2020-09-08T10:44:25Z</time>
      </trkpt>
      <trkpt lat="44.15583" lon="5.02705">
        <ele>552.1</ele>
        <time>2020-09-08T10:44:26Z</time>
      </trkpt>
      <trkpt lat="44.15583" lon="5.02705">
        <ele>552.1</ele>
        <time>2020-09-08T10:44:27Z</time>
      </trkpt>
      <trkpt lat="44.15583" lon="5.02705">
        <ele>552.1</ele>
        <time>2020-09-08T10:44:28Z</time>
      </trkpt>
      <trkpt lat="44.15584" lon="5.02704">
        <ele>552.1</ele>
        <time>2020-09-08T10:44:29Z</time>
      </trkpt>
      <trkpt lat="44.15584" lon="5.02704">
        <ele>552.1</ele>
        <time>2020-09-08T10:44:30Z</time>
      </trkpt>
      <trkpt lat="44.15583" lon="5.02704">
        <ele>552.2</ele>
        <time>2020-09-08T10:44:31Z</time>
      </trkpt>
      <trkpt lat="44.15583" lon="5.02705">
        <ele>552.2</ele>
        <time>2020-09-08T10:44:32Z</time>
      </trkpt>
      <trkpt lat="44.15583" lon="5.02705">
        <ele>552.2</ele>
        <time>2020-09-08T10:44:33Z</time>
      </trkpt>
      <trkpt lat="44.15583" lon="5.02705">
        <ele>552.2</ele>
        <time>2020-09-08T10:44:34Z</time>
      </trkpt>
      <trkpt lat="44.15583" lon="5.02705">
        <ele>552.3</ele>
        <time>2020-09-08T10:44:35Z</time>
      </trkpt>
      <trkpt lat="44.15583" lon="5.02705">
        <ele>552.3</ele>
        <time>2020-09-08T10:44:36Z</time>
      </trkpt>
      <trkpt lat="44.15583" lon="5.02705">
        <ele>552.3</ele>
        <time>2020-09-08T10:44:37Z</time>
      </trkpt>
      <trkpt lat="44.15583" lon="5.02705">
        <ele>552.3</ele>
        <time>2020-09-08T10:44:38Z</time>
      </trkpt>
      <trkpt lat="44.15583" lon="5.02705">
        <ele>552.3</ele>
        <time>2020-09-08T10:44:39Z</time>
      </trkpt>
      <trkpt lat="44.15582" lon="5.02706">
        <ele>552.4</ele>
        <time>2020-09-08T10:44:40Z</time>
      </trkpt>
      <trkpt lat="44.15582" lon="5.02706">
        <ele>552.4</ele>
        <time>2020-09-08T10:44:41Z</time>
      </trkpt>
      <trkpt lat="44.15582" lon="5.02706">
        <ele>552.4</ele>
        <time>2020-09-08T10:44:42Z</time>
      </trkpt>
      <trkpt lat="44.15581" lon="5.02706">
        <ele>552.5</ele>
        <time>2020-09-08T10:44:43Z</time>
      </trkpt>
      <trkpt lat="44.15581" lon="5.02707">
        <ele>552.5</ele>
        <time>2020-09-08T10:44:44Z</time>
      </trkpt>
      <trkpt lat="44.15581" lon="5.02707">
        <ele>552.5</ele>
        <time>2020-09-08T10:44:45Z</time>
      </trkpt>
      <trkpt lat="44.15581" lon="5.02707">
        <ele>552.5</ele>
        <time>2020-09-08T10:44:46Z</time>
      </trkpt>
      <trkpt lat="44.15581" lon="5.02707">
        <ele>552.5</ele>
        <time>2020-09-08T10:44:47Z</time>
      </trkpt>
      <trkpt lat="44.15581" lon="5.02707">
        <ele>552.5</ele>
        <time>2020-09-08T10:44:48Z</time>
      </trkpt>
      <trkpt lat="44.15581" lon="5.02707">
        <ele>552.5</ele>
        <time>2020-09-08T10:44:49Z</time>
      </trkpt>
      <trkpt lat="44.15581" lon="5.02707">
        <ele>552.5</ele>
        <time>2020-09-08T10:44:50Z</time>
      </trkpt>
      <trkpt lat="44.15581" lon="5.02707">
        <ele>552.5</ele>
        <time>2020-09-08T10:44:51Z</time>
      </trkpt>
      <trkpt lat="44.15581" lon="5.02707">
        <ele>552.5</ele>
        <time>2020-09-08T10:44:52Z</time>
      </trkpt>
      <trkpt lat="44.15581" lon="5.02707">
        <ele>552.5</ele>
        <time>2020-09-08T10:44:53Z</time>
      </trkpt>
      <trkpt lat="44.15581" lon="5.02707">
        <ele>552.5</ele>
        <time>2020-09-08T10:44:54Z</time>
      </trkpt>
      <trkpt lat="44.15581" lon="5.02707">
        <ele>552.5</ele>
        <time>2020-09-08T10:44:55Z</time>
      </trkpt>
      <trkpt lat="44.15581" lon="5.02707">
        <ele>552.5</ele>
        <time>2020-09-08T10:44:56Z</time>
      </trkpt>
      <trkpt lat="44.15581" lon="5.02707">
        <ele>552.5</ele>
        <time>2020-09-08T10:44:57Z</time>
      </trkpt>
      <trkpt lat="44.15581" lon="5.02707">
        <ele>552.6</ele>
        <time>2020-09-08T10:44:58Z</time>
      </trkpt>
      <trkpt lat="44.15581" lon="5.02707">
        <ele>552.6</ele>
        <time>2020-09-08T10:44:59Z</time>
      </trkpt>
      <trkpt lat="44.15581" lon="5.02707">
        <ele>552.6</ele>
        <time>2020-09-08T10:45:00Z</time>
      </trkpt>
      <trkpt lat="44.15581" lon="5.02707">
        <ele>552.6</ele>
        <time>2020-09-08T10:45:01Z</time>
      </trkpt>
      <trkpt lat="44.15581" lon="5.02707">
        <ele>552.6</ele>
        <time>2020-09-08T10:45:02Z</time>
      </trkpt>
      <trkpt lat="44.15581" lon="5.02707">
        <ele>552.6</ele>
        <time>2020-09-08T10:45:03Z</time>
      </trkpt>
      <trkpt lat="44.15582" lon="5.02707">
        <ele>552.6</ele>
        <time>2020-09-08T10:45:04Z</time>
      </trkpt>
      <trkpt lat="44.15582" lon="5.02707">
        <ele>552.6</ele>
        <time>2020-09-08T10:45:05Z</time>
      </trkpt>
      <trkpt lat="44.15582" lon="5.02707">
        <ele>552.6</ele>
        <time>2020-09-08T10:45:06Z</time>
      </trkpt>
      <trkpt lat="44.15582" lon="5.02707">
        <ele>552.6</ele>
        <time>2020-09-08T10:45:07Z</time>
      </trkpt>
      <trkpt lat="44.15582" lon="5.02707">
        <ele>552.6</ele>
        <time>2020-09-08T10:45:08Z</time>
      </trkpt>
      <trkpt lat="44.15582" lon="5.02707">
        <ele>552.6</ele>
        <time>2020-09-08T10:45:09Z</time>
      </trkpt>
      <trkpt lat="44.15582" lon="5.02707">
        <ele>552.6</ele>
        <time>2020-09-08T10:45:10Z</time>
      </trkpt>
      <trkpt lat="44.15582" lon="5.02707">
        <ele>552.6</ele>
        <time>2020-09-08T10:45:11Z</time>
      </trkpt>
      <trkpt lat="44.15582" lon="5.02707">
        <ele>552.6</ele>
        <time>2020-09-08T10:45:12Z</time>
      </trkpt>
      <trkpt lat="44.15582" lon="5.02707">
        <ele>552.6</ele>
        <time>2020-09-08T10:45:13Z</time>
      </trkpt>
      <trkpt lat="44.15582" lon="5.02707">
        <ele>552.6</ele>
        <time>2020-09-08T10:45:14Z</time>
      </trkpt>
      <trkpt lat="44.15582" lon="5.02707">
        <ele>552.6</ele>
        <time>2020-09-08T10:45:15Z</time>
      </trkpt>
      <trkpt lat="44.15582" lon="5.02707">
        <ele>552.6</ele>
        <time>2020-09-08T10:45:16Z</time>
      </trkpt>
      <trkpt lat="44.15582" lon="5.02707">
        <ele>552.6</ele>
        <time>2020-09-08T10:45:17Z</time>
      </trkpt>
      <trkpt lat="44.15582" lon="5.02707">
        <ele>552.6</ele>
        <time>2020-09-08T10:45:18Z</time>
      </trkpt>
      <trkpt lat="44.15582" lon="5.02707">
        <ele>552.6</ele>
        <time>2020-09-08T10:45:19Z</time>
      </trkpt>
      <trkpt lat="44.15582" lon="5.02707">
        <ele>552.6</ele>
        <time>2020-09-08T10:45:20Z</time>
      </trkpt>
      <trkpt lat="44.15582" lon="5.02707">
        <ele>552.6</ele>
        <time>2020-09-08T10:45:21Z</time>
      </trkpt>
      <trkpt lat="44.15582" lon="5.02707">
        <ele>552.6</ele>
        <time>2020-09-08T10:45:22Z</time>
      </trkpt>
      <trkpt lat="44.15582" lon="5.02707">
        <ele>552.6</ele>
        <time>2020-09-08T10:45:23Z</time>
      </trkpt>
      <trkpt lat="44.15582" lon="5.02707">
        <ele>552.6</ele>
        <time>2020-09-08T10:45:24Z</time>
      </trkpt>
      <trkpt lat="44.15582" lon="5.02707">
        <ele>552.6</ele>
        <time>2020-09-08T10:45:25Z</time>
      </trkpt>
      <trkpt lat="44.15583" lon="5.02707">
        <ele>552.7</ele>
        <time>2020-09-08T10:45:26Z</time>
      </trkpt>
      <trkpt lat="44.15583" lon="5.02707">
        <ele>552.7</ele>
        <time>2020-09-08T10:45:27Z</time>
      </trkpt>
      <trkpt lat="44.15583" lon="5.02707">
        <ele>552.7</ele>
        <time>2020-09-08T10:45:28Z</time>
      </trkpt>
      <trkpt lat="44.15583" lon="5.02707">
        <ele>552.7</ele>
        <time>2020-09-08T10:45:29Z</time>
      </trkpt>
      <trkpt lat="44.15583" lon="5.02707">
        <ele>552.7</ele>
        <time>2020-09-08T10:45:30Z</time>
      </trkpt>
      <trkpt lat="44.15583" lon="5.02707">
        <ele>552.7</ele>
        <time>2020-09-08T10:45:31Z</time>
      </trkpt>
      <trkpt lat="44.15583" lon="5.02707">
        <ele>552.7</ele>
        <time>2020-09-08T10:45:32Z</time>
      </trkpt>
      <trkpt lat="44.15583" lon="5.02707">
        <ele>552.7</ele>
        <time>2020-09-08T10:45:34Z</time>
      </trkpt>
      <trkpt lat="44.15583" lon="5.02707">
        <ele>552.7</ele>
        <time>2020-09-08T10:45:35Z</time>
      </trkpt>
      <trkpt lat="44.15583" lon="5.02707">
        <ele>552.7</ele>
        <time>2020-09-08T10:45:36Z</time>
      </trkpt>
      <trkpt lat="44.15583" lon="5.02707">
        <ele>552.7</ele>
        <time>2020-09-08T10:45:37Z</time>
      </trkpt>
      <trkpt lat="44.15583" lon="5.02707">
        <ele>552.7</ele>
        <time>2020-09-08T10:45:38Z</time>
      </trkpt>
      <trkpt lat="44.15583" lon="5.02707">
        <ele>552.7</ele>
        <time>2020-09-08T10:45:39Z</time>
      </trkpt>
      <trkpt lat="44.15583" lon="5.02707">
        <ele>552.7</ele>
        <time>2020-09-08T10:45:40Z</time>
      </trkpt>
      <trkpt lat="44.15583" lon="5.02707">
        <ele>552.7</ele>
        <time>2020-09-08T10:45:41Z</time>
      </trkpt>
      <trkpt lat="44.15583" lon="5.02707">
        <ele>552.7</ele>
        <time>2020-09-08T10:45:42Z</time>
      </trkpt>
      <trkpt lat="44.15583" lon="5.02707">
        <ele>552.7</ele>
        <time>2020-09-08T10:45:43Z</time>
      </trkpt>
      <trkpt lat="44.15583" lon="5.02707">
        <ele>552.7</ele>
        <time>2020-09-08T10:45:44Z</time>
      </trkpt>
      <trkpt lat="44.15583" lon="5.02707">
        <ele>552.7</ele>
        <time>2020-09-08T10:45:45Z</time>
      </trkpt>
      <trkpt lat="44.15583" lon="5.02707">
        <ele>552.7</ele>
        <time>2020-09-08T10:45:46Z</time>
      </trkpt>
      <trkpt lat="44.15583" lon="5.02707">
        <ele>552.7</ele>
        <time>2020-09-08T10:45:47Z</time>
      </trkpt>
      <trkpt lat="44.15583" lon="5.02707">
        <ele>552.7</ele>
        <time>2020-09-08T10:45:48Z</time>
      </trkpt>
      <trkpt lat="44.15584" lon="5.02707">
        <ele>552.7</ele>
        <time>2020-09-08T10:45:49Z</time>
      </trkpt>
      <trkpt lat="44.15584" lon="5.02707">
        <ele>552.7</ele>
        <time>2020-09-08T10:45:50Z</time>
      </trkpt>
      <trkpt lat="44.15584" lon="5.02707">
        <ele>552.7</ele>
        <time>2020-09-08T10:45:51Z</time>
      </trkpt>
      <trkpt lat="44.15584" lon="5.02707">
        <ele>552.7</ele>
        <time>2020-09-08T10:45:52Z</time>
      </trkpt>
      <trkpt lat="44.15584" lon="5.02707">
        <ele>552.7</ele>
        <time>2020-09-08T10:45:53Z</time>
      </trkpt>
      <trkpt lat="44.15584" lon="5.02707">
        <ele>552.7</ele>
        <time>2020-09-08T10:45:54Z</time>
      </trkpt>
      <trkpt lat="44.15584" lon="5.02707">
        <ele>552.7</ele>
        <time>2020-09-08T10:45:55Z</time>
      </trkpt>
      <trkpt lat="44.15584" lon="5.02707">
        <ele>552.7</ele>
        <time>2020-09-08T10:45:56Z</time>
      </trkpt>
      <trkpt lat="44.15584" lon="5.02707">
        <ele>552.7</ele>
        <time>2020-09-08T10:45:57Z</time>
      </trkpt>
      <trkpt lat="44.15584" lon="5.02707">
        <ele>552.8</ele>
        <time>2020-09-08T10:45:58Z</time>
      </trkpt>
      <trkpt lat="44.15584" lon="5.02707">
        <ele>552.8</ele>
        <time>2020-09-08T10:45:59Z</time>
      </trkpt>
      <trkpt lat="44.15584" lon="5.02707">
        <ele>552.8</ele>
        <time>2020-09-08T10:46:00Z</time>
      </trkpt>
      <trkpt lat="44.15584" lon="5.02707">
        <ele>552.8</ele>
        <time>2020-09-08T10:46:01Z</time>
      </trkpt>
      <trkpt lat="44.15584" lon="5.02707">
        <ele>552.8</ele>
        <time>2020-09-08T10:46:02Z</time>
      </trkpt>
      <trkpt lat="44.15584" lon="5.02707">
        <ele>552.8</ele>
        <time>2020-09-08T10:46:03Z</time>
      </trkpt>
      <trkpt lat="44.15584" lon="5.02707">
        <ele>552.8</ele>
        <time>2020-09-08T10:46:04Z</time>
      </trkpt>
      <trkpt lat="44.15584" lon="5.02707">
        <ele>552.8</ele>
        <time>2020-09-08T10:46:05Z</time>
      </trkpt>
      <trkpt lat="44.15584" lon="5.02707">
        <ele>552.8</ele>
        <time>2020-09-08T10:46:06Z</time>
      </trkpt>
      <trkpt lat="44.15584" lon="5.02707">
        <ele>552.8</ele>
        <time>2020-09-08T10:46:07Z</time>
      </trkpt>
      <trkpt lat="44.15584" lon="5.02707">
        <ele>552.8</ele>
        <time>2020-09-08T10:46:08Z</time>
      </trkpt>
      <trkpt lat="44.15584" lon="5.02707">
        <ele>552.8</ele>
        <time>2020-09-08T10:46:09Z</time>
      </trkpt>
      <trkpt lat="44.15584" lon="5.02707">
        <ele>552.8</ele>
        <time>2020-09-08T10:46:10Z</time>
      </trkpt>
      <trkpt lat="44.15585" lon="5.02707">
        <ele>552.8</ele>
        <time>2020-09-08T10:46:11Z</time>
      </trkpt>
      <trkpt lat="44.15585" lon="5.02707">
        <ele>552.8</ele>
        <time>2020-09-08T10:46:12Z</time>
      </trkpt>
      <trkpt lat="44.15585" lon="5.02707">
        <ele>552.8</ele>
        <time>2020-09-08T10:46:13Z</time>
      </trkpt>
      <trkpt lat="44.15585" lon="5.02707">
        <ele>552.8</ele>
        <time>2020-09-08T10:46:14Z</time>
      </trkpt>
      <trkpt lat="44.15585" lon="5.02707">
        <ele>552.8</ele>
        <time>2020-09-08T10:46:15Z</time>
      </trkpt>
      <trkpt lat="44.15585" lon="5.02707">
        <ele>552.8</ele>
        <time>2020-09-08T10:46:16Z</time>
      </trkpt>
      <trkpt lat="44.15585" lon="5.02707">
        <ele>552.8</ele>
        <time>2020-09-08T10:46:17Z</time>
      </trkpt>
      <trkpt lat="44.15585" lon="5.02707">
        <ele>552.8</ele>
        <time>2020-09-08T10:46:18Z</time>
      </trkpt>
      <trkpt lat="44.15585" lon="5.02707">
        <ele>552.8</ele>
        <time>2020-09-08T10:46:19Z</time>
      </trkpt>
      <trkpt lat="44.15585" lon="5.02707">
        <ele>552.8</ele>
        <time>2020-09-08T10:46:20Z</time>
      </trkpt>
      <trkpt lat="44.15585" lon="5.02707">
        <ele>552.8</ele>
        <time>2020-09-08T10:46:21Z</time>
      </trkpt>
      <trkpt lat="44.15585" lon="5.02707">
        <ele>552.8</ele>
        <time>2020-09-08T10:46:22Z</time>
      </trkpt>
      <trkpt lat="44.15585" lon="5.02707">
        <ele>552.8</ele>
        <time>2020-09-08T10:46:23Z</time>
      </trkpt>
      <trkpt lat="44.15585" lon="5.02707">
        <ele>552.8</ele>
        <time>2020-09-08T10:46:24Z</time>
      </trkpt>
      <trkpt lat="44.15585" lon="5.02707">
        <ele>552.8</ele>
        <time>2020-09-08T10:46:26Z</time>
      </trkpt>
      <trkpt lat="44.15585" lon="5.02707">
        <ele>552.8</ele>
        <time>2020-09-08T10:46:27Z</time>
      </trkpt>
      <trkpt lat="44.15585" lon="5.02707">
        <ele>552.8</ele>
        <time>2020-09-08T10:46:28Z</time>
      </trkpt>
      <trkpt lat="44.15585" lon="5.02707">
        <ele>552.8</ele>
        <time>2020-09-08T10:46:29Z</time>
      </trkpt>
      <trkpt lat="44.15585" lon="5.02707">
        <ele>552.9</ele>
        <time>2020-09-08T10:46:30Z</time>
      </trkpt>
      <trkpt lat="44.15585" lon="5.02708">
        <ele>552.9</ele>
        <time>2020-09-08T10:46:31Z</time>
      </trkpt>
      <trkpt lat="44.15585" lon="5.02708">
        <ele>552.9</ele>
        <time>2020-09-08T10:46:32Z</time>
      </trkpt>
      <trkpt lat="44.15585" lon="5.02708">
        <ele>552.9</ele>
        <time>2020-09-08T10:46:33Z</time>
      </trkpt>
      <trkpt lat="44.15586" lon="5.02708">
        <ele>552.9</ele>
        <time>2020-09-08T10:46:34Z</time>
      </trkpt>
      <trkpt lat="44.15586" lon="5.02708">
        <ele>552.9</ele>
        <time>2020-09-08T10:46:35Z</time>
      </trkpt>
      <trkpt lat="44.15586" lon="5.02708">
        <ele>552.9</ele>
        <time>2020-09-08T10:46:36Z</time>
      </trkpt>
      <trkpt lat="44.15586" lon="5.02708">
        <ele>552.9</ele>
        <time>2020-09-08T10:46:37Z</time>
      </trkpt>
      <trkpt lat="44.15585" lon="5.02709">
        <ele>553</ele>
        <time>2020-09-08T10:46:38Z</time>
      </trkpt>
      <trkpt lat="44.15586" lon="5.02708">
        <ele>553</ele>
        <time>2020-09-08T10:46:39Z</time>
      </trkpt>
      <trkpt lat="44.15585" lon="5.02708">
        <ele>553.1</ele>
        <time>2020-09-08T10:46:40Z</time>
      </trkpt>
      <trkpt lat="44.15585" lon="5.02708">
        <ele>553.1</ele>
        <time>2020-09-08T10:46:41Z</time>
      </trkpt>
      <trkpt lat="44.15585" lon="5.02708">
        <ele>553.1</ele>
        <time>2020-09-08T10:46:42Z</time>
      </trkpt>
      <trkpt lat="44.15586" lon="5.02708">
        <ele>553.1</ele>
        <time>2020-09-08T10:46:43Z</time>
      </trkpt>
      <trkpt lat="44.15585" lon="5.02709">
        <ele>553.2</ele>
        <time>2020-09-08T10:46:44Z</time>
      </trkpt>
      <trkpt lat="44.15584" lon="5.0271">
        <ele>553.2</ele>
        <time>2020-09-08T10:46:45Z</time>
      </trkpt>
      <trkpt lat="44.15584" lon="5.0271">
        <ele>553.2</ele>
        <time>2020-09-08T10:46:46Z</time>
      </trkpt>
      <trkpt lat="44.15584" lon="5.0271">
        <ele>553.2</ele>
        <time>2020-09-08T10:46:47Z</time>
      </trkpt>
      <trkpt lat="44.15583" lon="5.02711">
        <ele>553.3</ele>
        <time>2020-09-08T10:46:48Z</time>
      </trkpt>
      <trkpt lat="44.15583" lon="5.02711">
        <ele>553.3</ele>
        <time>2020-09-08T10:46:49Z</time>
      </trkpt>
      <trkpt lat="44.15583" lon="5.02711">
        <ele>553.3</ele>
        <time>2020-09-08T10:46:50Z</time>
      </trkpt>
      <trkpt lat="44.15583" lon="5.02711">
        <ele>553.3</ele>
        <time>2020-09-08T10:46:51Z</time>
      </trkpt>
      <trkpt lat="44.15583" lon="5.02711">
        <ele>553.3</ele>
        <time>2020-09-08T10:46:52Z</time>
      </trkpt>
      <trkpt lat="44.15583" lon="5.02711">
        <ele>553.3</ele>
        <time>2020-09-08T10:46:53Z</time>
      </trkpt>
      <trkpt lat="44.15583" lon="5.02711">
        <ele>553.3</ele>
        <time>2020-09-08T10:46:54Z</time>
      </trkpt>
      <trkpt lat="44.15583" lon="5.02711">
        <ele>553.4</ele>
        <time>2020-09-08T10:46:55Z</time>
      </trkpt>
      <trkpt lat="44.15583" lon="5.0271">
        <ele>553.4</ele>
        <time>2020-09-08T10:46:56Z</time>
      </trkpt>
      <trkpt lat="44.15583" lon="5.0271">
        <ele>553.4</ele>
        <time>2020-09-08T10:46:57Z</time>
      </trkpt>
      <trkpt lat="44.15583" lon="5.0271">
        <ele>553.4</ele>
        <time>2020-09-08T10:46:58Z</time>
      </trkpt>
      <trkpt lat="44.15582" lon="5.0271">
        <ele>553.4</ele>
        <time>2020-09-08T10:46:59Z</time>
      </trkpt>
      <trkpt lat="44.15582" lon="5.0271">
        <ele>553.4</ele>
        <time>2020-09-08T10:47:00Z</time>
      </trkpt>
      <trkpt lat="44.15582" lon="5.0271">
        <ele>553.4</ele>
        <time>2020-09-08T10:47:01Z</time>
      </trkpt>
      <trkpt lat="44.15582" lon="5.0271">
        <ele>553.4</ele>
        <time>2020-09-08T10:47:02Z</time>
      </trkpt>
      <trkpt lat="44.15582" lon="5.0271">
        <ele>553.4</ele>
        <time>2020-09-08T10:47:03Z</time>
      </trkpt>
      <trkpt lat="44.15582" lon="5.0271">
        <ele>553.4</ele>
        <time>2020-09-08T10:47:04Z</time>
      </trkpt>
      <trkpt lat="44.15582" lon="5.0271">
        <ele>553.4</ele>
        <time>2020-09-08T10:47:05Z</time>
      </trkpt>
      <trkpt lat="44.15582" lon="5.0271">
        <ele>553.4</ele>
        <time>2020-09-08T10:47:06Z</time>
      </trkpt>
      <trkpt lat="44.15582" lon="5.0271">
        <ele>553.4</ele>
        <time>2020-09-08T10:47:07Z</time>
      </trkpt>
      <trkpt lat="44.15582" lon="5.0271">
        <ele>553.5</ele>
        <time>2020-09-08T10:47:08Z</time>
      </trkpt>
      <trkpt lat="44.15582" lon="5.02709">
        <ele>553.5</ele>
        <time>2020-09-08T10:47:09Z</time>
      </trkpt>
      <trkpt lat="44.15581" lon="5.02709">
        <ele>553.5</ele>
        <time>2020-09-08T10:47:10Z</time>
      </trkpt>
      <trkpt lat="44.15581" lon="5.02709">
        <ele>553.5</ele>
        <time>2020-09-08T10:47:11Z</time>
      </trkpt>
      <trkpt lat="44.15581" lon="5.02709">
        <ele>553.5</ele>
        <time>2020-09-08T10:47:12Z</time>
      </trkpt>
      <trkpt lat="44.15581" lon="5.02709">
        <ele>553.5</ele>
        <time>2020-09-08T10:47:13Z</time>
      </trkpt>
      <trkpt lat="44.15581" lon="5.02709">
        <ele>553.5</ele>
        <time>2020-09-08T10:47:14Z</time>
      </trkpt>
      <trkpt lat="44.15581" lon="5.02709">
        <ele>553.5</ele>
        <time>2020-09-08T10:47:15Z</time>
      </trkpt>
      <trkpt lat="44.15581" lon="5.02709">
        <ele>553.5</ele>
        <time>2020-09-08T10:47:16Z</time>
      </trkpt>
      <trkpt lat="44.15581" lon="5.02709">
        <ele>553.5</ele>
        <time>2020-09-08T10:47:17Z</time>
      </trkpt>
      <trkpt lat="44.15581" lon="5.02709">
        <ele>553.5</ele>
        <time>2020-09-08T10:47:18Z</time>
      </trkpt>
      <trkpt lat="44.15581" lon="5.02709">
        <ele>553.5</ele>
        <time>2020-09-08T10:47:19Z</time>
      </trkpt>
      <trkpt lat="44.15581" lon="5.02709">
        <ele>553.6</ele>
        <time>2020-09-08T10:47:20Z</time>
      </trkpt>
      <trkpt lat="44.15581" lon="5.02708">
        <ele>553.6</ele>
        <time>2020-09-08T10:47:21Z</time>
      </trkpt>
      <trkpt lat="44.1558" lon="5.02708">
        <ele>553.6</ele>
        <time>2020-09-08T10:47:22Z</time>
      </trkpt>
      <trkpt lat="44.1558" lon="5.02708">
        <ele>553.6</ele>
        <time>2020-09-08T10:47:23Z</time>
      </trkpt>
      <trkpt lat="44.1558" lon="5.02708">
        <ele>553.6</ele>
        <time>2020-09-08T10:47:24Z</time>
      </trkpt>
      <trkpt lat="44.1558" lon="5.02708">
        <ele>553.6</ele>
        <time>2020-09-08T10:47:25Z</time>
      </trkpt>
      <trkpt lat="44.1558" lon="5.02708">
        <ele>553.6</ele>
        <time>2020-09-08T10:47:26Z</time>
      </trkpt>
      <trkpt lat="44.1558" lon="5.02708">
        <ele>553.6</ele>
        <time>2020-09-08T10:47:27Z</time>
      </trkpt>
      <trkpt lat="44.1558" lon="5.02708">
        <ele>553.6</ele>
        <time>2020-09-08T10:47:28Z</time>
      </trkpt>
      <trkpt lat="44.1558" lon="5.02708">
        <ele>553.6</ele>
        <time>2020-09-08T10:47:29Z</time>
      </trkpt>
      <trkpt lat="44.1558" lon="5.02708">
        <ele>553.6</ele>
        <time>2020-09-08T10:47:30Z</time>
      </trkpt>
      <trkpt lat="44.1558" lon="5.02708">
        <ele>553.6</ele>
        <time>2020-09-08T10:47:31Z</time>
      </trkpt>
      <trkpt lat="44.1558" lon="5.02708">
        <ele>553.6</ele>
        <time>2020-09-08T10:47:32Z</time>
      </trkpt>
      <trkpt lat="44.1558" lon="5.02707">
        <ele>553.7</ele>
        <time>2020-09-08T10:47:33Z</time>
      </trkpt>
      <trkpt lat="44.15579" lon="5.02707">
        <ele>553.7</ele>
        <time>2020-09-08T10:47:34Z</time>
      </trkpt>
      <trkpt lat="44.15579" lon="5.02707">
        <ele>553.7</ele>
        <time>2020-09-08T10:47:35Z</time>
      </trkpt>
      <trkpt lat="44.15579" lon="5.02707">
        <ele>553.7</ele>
        <time>2020-09-08T10:47:36Z</time>
      </trkpt>
      <trkpt lat="44.15579" lon="5.02707">
        <ele>553.7</ele>
        <time>2020-09-08T10:47:37Z</time>
      </trkpt>
      <trkpt lat="44.15579" lon="5.02707">
        <ele>553.7</ele>
        <time>2020-09-08T10:47:38Z</time>
      </trkpt>
      <trkpt lat="44.15579" lon="5.02707">
        <ele>553.7</ele>
        <time>2020-09-08T10:47:40Z</time>
      </trkpt>
      <trkpt lat="44.15579" lon="5.02707">
        <ele>553.7</ele>
        <time>2020-09-08T10:47:41Z</time>
      </trkpt>
      <trkpt lat="44.15579" lon="5.02707">
        <ele>553.7</ele>
        <time>2020-09-08T10:47:42Z</time>
      </trkpt>
      <trkpt lat="44.15579" lon="5.02707">
        <ele>553.7</ele>
        <time>2020-09-08T10:47:43Z</time>
      </trkpt>
      <trkpt lat="44.15579" lon="5.02707">
        <ele>553.7</ele>
        <time>2020-09-08T10:47:44Z</time>
      </trkpt>
      <trkpt lat="44.15579" lon="5.02707">
        <ele>553.7</ele>
        <time>2020-09-08T10:47:45Z</time>
      </trkpt>
      <trkpt lat="44.15579" lon="5.02707">
        <ele>553.8</ele>
        <time>2020-09-08T10:47:46Z</time>
      </trkpt>
      <trkpt lat="44.15578" lon="5.02706">
        <ele>553.8</ele>
        <time>2020-09-08T10:47:47Z</time>
      </trkpt>
      <trkpt lat="44.15578" lon="5.02706">
        <ele>553.8</ele>
        <time>2020-09-08T10:47:48Z</time>
      </trkpt>
      <trkpt lat="44.15578" lon="5.02706">
        <ele>553.8</ele>
        <time>2020-09-08T10:47:49Z</time>
      </trkpt>
      <trkpt lat="44.15578" lon="5.02706">
        <ele>553.8</ele>
        <time>2020-09-08T10:47:50Z</time>
      </trkpt>
      <trkpt lat="44.15578" lon="5.02706">
        <ele>553.8</ele>
        <time>2020-09-08T10:47:51Z</time>
      </trkpt>
      <trkpt lat="44.15578" lon="5.02706">
        <ele>553.8</ele>
        <time>2020-09-08T10:47:52Z</time>
      </trkpt>
      <trkpt lat="44.15578" lon="5.02706">
        <ele>553.8</ele>
        <time>2020-09-08T10:47:54Z</time>
      </trkpt>
      <trkpt lat="44.15578" lon="5.02706">
        <ele>553.8</ele>
        <time>2020-09-08T10:47:55Z</time>
      </trkpt>
      <trkpt lat="44.15579" lon="5.02705">
        <ele>553.9</ele>
        <time>2020-09-08T10:47:56Z</time>
      </trkpt>
      <trkpt lat="44.15579" lon="5.02705">
        <ele>553.9</ele>
        <time>2020-09-08T10:47:58Z</time>
      </trkpt>
      <trkpt lat="44.15579" lon="5.02704">
        <ele>553.9</ele>
        <time>2020-09-08T10:47:59Z</time>
      </trkpt>
      <trkpt lat="44.15578" lon="5.02704">
        <ele>554</ele>
        <time>2020-09-08T10:48:00Z</time>
      </trkpt>
      <trkpt lat="44.15578" lon="5.02704">
        <ele>554</ele>
        <time>2020-09-08T10:48:01Z</time>
      </trkpt>
      <trkpt lat="44.15578" lon="5.02704">
        <ele>554</ele>
        <time>2020-09-08T10:48:02Z</time>
      </trkpt>
      <trkpt lat="44.15578" lon="5.02704">
        <ele>554</ele>
        <time>2020-09-08T10:48:03Z</time>
      </trkpt>
      <trkpt lat="44.15578" lon="5.02703">
        <ele>554</ele>
        <time>2020-09-08T10:48:04Z</time>
      </trkpt>
      <trkpt lat="44.15578" lon="5.02703">
        <ele>554</ele>
        <time>2020-09-08T10:48:05Z</time>
      </trkpt>
      <trkpt lat="44.15578" lon="5.02703">
        <ele>554</ele>
        <time>2020-09-08T10:48:06Z</time>
      </trkpt>
      <trkpt lat="44.15578" lon="5.02703">
        <ele>554.1</ele>
        <time>2020-09-08T10:48:07Z</time>
      </trkpt>
      <trkpt lat="44.15577" lon="5.02702">
        <ele>554.1</ele>
        <time>2020-09-08T10:48:08Z</time>
      </trkpt>
      <trkpt lat="44.15577" lon="5.02702">
        <ele>554.1</ele>
        <time>2020-09-08T10:48:09Z</time>
      </trkpt>
      <trkpt lat="44.15577" lon="5.02702">
        <ele>554.1</ele>
        <time>2020-09-08T10:48:10Z</time>
      </trkpt>
      <trkpt lat="44.15577" lon="5.02702">
        <ele>554.1</ele>
        <time>2020-09-08T10:48:11Z</time>
      </trkpt>
      <trkpt lat="44.15577" lon="5.02701">
        <ele>554.1</ele>
        <time>2020-09-08T10:48:12Z</time>
      </trkpt>
      <trkpt lat="44.15577" lon="5.02701">
        <ele>554.1</ele>
        <time>2020-09-08T10:48:13Z</time>
      </trkpt>
      <trkpt lat="44.15577" lon="5.02701">
        <ele>554.2</ele>
        <time>2020-09-08T10:48:14Z</time>
      </trkpt>
      <trkpt lat="44.15577" lon="5.02701">
        <ele>554.2</ele>
        <time>2020-09-08T10:48:15Z</time>
      </trkpt>
      <trkpt lat="44.15577" lon="5.02701">
        <ele>554.2</ele>
        <time>2020-09-08T10:48:16Z</time>
      </trkpt>
      <trkpt lat="44.15576" lon="5.027">
        <ele>554.2</ele>
        <time>2020-09-08T10:48:17Z</time>
      </trkpt>
      <trkpt lat="44.15576" lon="5.027">
        <ele>554.2</ele>
        <time>2020-09-08T10:48:18Z</time>
      </trkpt>
      <trkpt lat="44.15576" lon="5.027">
        <ele>554.2</ele>
        <time>2020-09-08T10:48:19Z</time>
      </trkpt>
      <trkpt lat="44.15576" lon="5.027">
        <ele>554.3</ele>
        <time>2020-09-08T10:48:20Z</time>
      </trkpt>
      <trkpt lat="44.15576" lon="5.02699">
        <ele>554.3</ele>
        <time>2020-09-08T10:48:21Z</time>
      </trkpt>
      <trkpt lat="44.15576" lon="5.02699">
        <ele>554.3</ele>
        <time>2020-09-08T10:48:22Z</time>
      </trkpt>
      <trkpt lat="44.15576" lon="5.02699">
        <ele>554.3</ele>
        <time>2020-09-08T10:48:23Z</time>
      </trkpt>
      <trkpt lat="44.15576" lon="5.02699">
        <ele>554.3</ele>
        <time>2020-09-08T10:48:24Z</time>
      </trkpt>
      <trkpt lat="44.15575" lon="5.02698">
        <ele>554.3</ele>
        <time>2020-09-08T10:48:25Z</time>
      </trkpt>
      <trkpt lat="44.15575" lon="5.02698">
        <ele>554.3</ele>
        <time>2020-09-08T10:48:26Z</time>
      </trkpt>
      <trkpt lat="44.15575" lon="5.02698">
        <ele>554.4</ele>
        <time>2020-09-08T10:48:27Z</time>
      </trkpt>
      <trkpt lat="44.15575" lon="5.02698">
        <ele>554.4</ele>
        <time>2020-09-08T10:48:28Z</time>
      </trkpt>
      <trkpt lat="44.15575" lon="5.02697">
        <ele>554.4</ele>
        <time>2020-09-08T10:48:29Z</time>
      </trkpt>
      <trkpt lat="44.15574" lon="5.02696">
        <ele>554.5</ele>
        <time>2020-09-08T10:48:30Z</time>
      </trkpt>
      <trkpt lat="44.15575" lon="5.02696">
        <ele>554.5</ele>
        <time>2020-09-08T10:48:31Z</time>
      </trkpt>
      <trkpt lat="44.15575" lon="5.02694">
        <ele>554.6</ele>
        <time>2020-09-08T10:48:32Z</time>
      </trkpt>
      <trkpt lat="44.15575" lon="5.02693">
        <ele>554.6</ele>
        <time>2020-09-08T10:48:33Z</time>
      </trkpt>
      <trkpt lat="44.15575" lon="5.02693">
        <ele>554.7</ele>
        <time>2020-09-08T10:48:34Z</time>
      </trkpt>
      <trkpt lat="44.15574" lon="5.02692">
        <ele>554.7</ele>
        <time>2020-09-08T10:48:35Z</time>
      </trkpt>
      <trkpt lat="44.15574" lon="5.02692">
        <ele>554.7</ele>
        <time>2020-09-08T10:48:36Z</time>
      </trkpt>
      <trkpt lat="44.15575" lon="5.02692">
        <ele>554.8</ele>
        <time>2020-09-08T10:48:37Z</time>
      </trkpt>
      <trkpt lat="44.15574" lon="5.02692">
        <ele>554.8</ele>
        <time>2020-09-08T10:48:38Z</time>
      </trkpt>
      <trkpt lat="44.15574" lon="5.02691">
        <ele>554.9</ele>
        <time>2020-09-08T10:48:39Z</time>
      </trkpt>
      <trkpt lat="44.15574" lon="5.02691">
        <ele>554.9</ele>
        <time>2020-09-08T10:48:40Z</time>
      </trkpt>
      <trkpt lat="44.15575" lon="5.02691">
        <ele>554.9</ele>
        <time>2020-09-08T10:48:41Z</time>
      </trkpt>
      <trkpt lat="44.15575" lon="5.0269">
        <ele>555</ele>
        <time>2020-09-08T10:48:42Z</time>
      </trkpt>
      <trkpt lat="44.15575" lon="5.02689">
        <ele>555</ele>
        <time>2020-09-08T10:48:43Z</time>
      </trkpt>
      <trkpt lat="44.15576" lon="5.0269">
        <ele>555.2</ele>
        <time>2020-09-08T10:48:44Z</time>
      </trkpt>
      <trkpt lat="44.15578" lon="5.02689">
        <ele>555.4</ele>
        <time>2020-09-08T10:48:45Z</time>
      </trkpt>
      <trkpt lat="44.15579" lon="5.02689">
        <ele>555.4</ele>
        <time>2020-09-08T10:48:46Z</time>
      </trkpt>
      <trkpt lat="44.15581" lon="5.02689">
        <ele>555.6</ele>
        <time>2020-09-08T10:48:47Z</time>
      </trkpt>
      <trkpt lat="44.15581" lon="5.02689">
        <ele>555.7</ele>
        <time>2020-09-08T10:48:48Z</time>
      </trkpt>
      <trkpt lat="44.15583" lon="5.02688">
        <ele>555.8</ele>
        <time>2020-09-08T10:48:49Z</time>
      </trkpt>
      <trkpt lat="44.15584" lon="5.02689">
        <ele>555.9</ele>
        <time>2020-09-08T10:48:50Z</time>
      </trkpt>
      <trkpt lat="44.15585" lon="5.02689">
        <ele>555.9</ele>
        <time>2020-09-08T10:48:51Z</time>
      </trkpt>
      <trkpt lat="44.15586" lon="5.02689">
        <ele>556.1</ele>
        <time>2020-09-08T10:48:52Z</time>
      </trkpt>
      <trkpt lat="44.15587" lon="5.02689">
        <ele>556.1</ele>
        <time>2020-09-08T10:48:53Z</time>
      </trkpt>
      <trkpt lat="44.15587" lon="5.02688">
        <ele>556.2</ele>
        <time>2020-09-08T10:48:54Z</time>
      </trkpt>
      <trkpt lat="44.15588" lon="5.02688">
        <ele>556.2</ele>
        <time>2020-09-08T10:48:55Z</time>
      </trkpt>
      <trkpt lat="44.15588" lon="5.02687">
        <ele>556.2</ele>
        <time>2020-09-08T10:48:56Z</time>
      </trkpt>
      <trkpt lat="44.15589" lon="5.02686">
        <ele>556.3</ele>
        <time>2020-09-08T10:48:57Z</time>
      </trkpt>
      <trkpt lat="44.15588" lon="5.02686">
        <ele>556.4</ele>
        <time>2020-09-08T10:48:58Z</time>
      </trkpt>
      <trkpt lat="44.15589" lon="5.02686">
        <ele>556.5</ele>
        <time>2020-09-08T10:48:59Z</time>
      </trkpt>
      <trkpt lat="44.1559" lon="5.02686">
        <ele>556.5</ele>
        <time>2020-09-08T10:49:00Z</time>
      </trkpt>
      <trkpt lat="44.15591" lon="5.02686">
        <ele>556.7</ele>
        <time>2020-09-08T10:49:01Z</time>
      </trkpt>
      <trkpt lat="44.15592" lon="5.02684">
        <ele>556.8</ele>
        <time>2020-09-08T10:49:02Z</time>
      </trkpt>
      <trkpt lat="44.15592" lon="5.02683">
        <ele>556.8</ele>
        <time>2020-09-08T10:49:03Z</time>
      </trkpt>
      <trkpt lat="44.15593" lon="5.02682">
        <ele>556.9</ele>
        <time>2020-09-08T10:49:04Z</time>
      </trkpt>
      <trkpt lat="44.15593" lon="5.02681">
        <ele>557</ele>
        <time>2020-09-08T10:49:05Z</time>
      </trkpt>
      <trkpt lat="44.15594" lon="5.0268">
        <ele>557</ele>
        <time>2020-09-08T10:49:06Z</time>
      </trkpt>
      <trkpt lat="44.15594" lon="5.0268">
        <ele>557</ele>
        <time>2020-09-08T10:49:07Z</time>
      </trkpt>
      <trkpt lat="44.15593" lon="5.02681">
        <ele>557.1</ele>
        <time>2020-09-08T10:49:08Z</time>
      </trkpt>
      <trkpt lat="44.15593" lon="5.0268">
        <ele>557.1</ele>
        <time>2020-09-08T10:49:09Z</time>
      </trkpt>
      <trkpt lat="44.15593" lon="5.02679">
        <ele>557.2</ele>
        <time>2020-09-08T10:49:10Z</time>
      </trkpt>
      <trkpt lat="44.15591" lon="5.02679">
        <ele>557.3</ele>
        <time>2020-09-08T10:49:11Z</time>
      </trkpt>
      <trkpt lat="44.15591" lon="5.02679">
        <ele>557.3</ele>
        <time>2020-09-08T10:49:12Z</time>
      </trkpt>
      <trkpt lat="44.15591" lon="5.02678">
        <ele>557.4</ele>
        <time>2020-09-08T10:49:13Z</time>
      </trkpt>
      <trkpt lat="44.15589" lon="5.02678">
        <ele>557.5</ele>
        <time>2020-09-08T10:49:14Z</time>
      </trkpt>
      <trkpt lat="44.15588" lon="5.02678">
        <ele>557.6</ele>
        <time>2020-09-08T10:49:15Z</time>
      </trkpt>
      <trkpt lat="44.15587" lon="5.02678">
        <ele>557.7</ele>
        <time>2020-09-08T10:49:16Z</time>
      </trkpt>
      <trkpt lat="44.15586" lon="5.02678">
        <ele>557.8</ele>
        <time>2020-09-08T10:49:17Z</time>
      </trkpt>
      <trkpt lat="44.15586" lon="5.02676">
        <ele>557.9</ele>
        <time>2020-09-08T10:49:18Z</time>
      </trkpt>
      <trkpt lat="44.15586" lon="5.02675">
        <ele>557.9</ele>
        <time>2020-09-08T10:49:19Z</time>
      </trkpt>
      <trkpt lat="44.15586" lon="5.02675">
        <ele>558</ele>
        <time>2020-09-08T10:49:20Z</time>
      </trkpt>
      <trkpt lat="44.15586" lon="5.02674">
        <ele>558</ele>
        <time>2020-09-08T10:49:21Z</time>
      </trkpt>
      <trkpt lat="44.15586" lon="5.02674">
        <ele>558</ele>
        <time>2020-09-08T10:49:22Z</time>
      </trkpt>
      <trkpt lat="44.15586" lon="5.02674">
        <ele>558.1</ele>
        <time>2020-09-08T10:49:23Z</time>
      </trkpt>
      <trkpt lat="44.15586" lon="5.02673">
        <ele>558.1</ele>
        <time>2020-09-08T10:49:24Z</time>
      </trkpt>
      <trkpt lat="44.15587" lon="5.02673">
        <ele>558.1</ele>
        <time>2020-09-08T10:49:25Z</time>
      </trkpt>
      <trkpt lat="44.15587" lon="5.02673">
        <ele>558.2</ele>
        <time>2020-09-08T10:49:26Z</time>
      </trkpt>
      <trkpt lat="44.15587" lon="5.02672">
        <ele>558.2</ele>
        <time>2020-09-08T10:49:27Z</time>
      </trkpt>
      <trkpt lat="44.15588" lon="5.02672">
        <ele>558.2</ele>
        <time>2020-09-08T10:49:28Z</time>
      </trkpt>
      <trkpt lat="44.15588" lon="5.02671">
        <ele>558.3</ele>
        <time>2020-09-08T10:49:29Z</time>
      </trkpt>
      <trkpt lat="44.15588" lon="5.02671">
        <ele>558.3</ele>
        <time>2020-09-08T10:49:30Z</time>
      </trkpt>
      <trkpt lat="44.15588" lon="5.02671">
        <ele>558.3</ele>
        <time>2020-09-08T10:49:31Z</time>
      </trkpt>
      <trkpt lat="44.15589" lon="5.0267">
        <ele>558.4</ele>
        <time>2020-09-08T10:49:32Z</time>
      </trkpt>
      <trkpt lat="44.1559" lon="5.02668">
        <ele>558.5</ele>
        <time>2020-09-08T10:49:33Z</time>
      </trkpt>
      <trkpt lat="44.15591" lon="5.02668">
        <ele>558.6</ele>
        <time>2020-09-08T10:49:34Z</time>
      </trkpt>
      <trkpt lat="44.15591" lon="5.02668">
        <ele>558.6</ele>
        <time>2020-09-08T10:49:35Z</time>
      </trkpt>
      <trkpt lat="44.15591" lon="5.02667">
        <ele>558.7</ele>
        <time>2020-09-08T10:49:36Z</time>
      </trkpt>
      <trkpt lat="44.15591" lon="5.02667">
        <ele>558.7</ele>
        <time>2020-09-08T10:49:37Z</time>
      </trkpt>
      <trkpt lat="44.15592" lon="5.02668">
        <ele>558.8</ele>
        <time>2020-09-08T10:49:38Z</time>
      </trkpt>
      <trkpt lat="44.15592" lon="5.02669">
        <ele>558.8</ele>
        <time>2020-09-08T10:49:39Z</time>
      </trkpt>
      <trkpt lat="44.15593" lon="5.02669">
        <ele>558.8</ele>
        <time>2020-09-08T10:49:40Z</time>
      </trkpt>
      <trkpt lat="44.15593" lon="5.02671">
        <ele>559</ele>
        <time>2020-09-08T10:49:41Z</time>
      </trkpt>
      <trkpt lat="44.15594" lon="5.02671">
        <ele>559</ele>
        <time>2020-09-08T10:49:42Z</time>
      </trkpt>
      <trkpt lat="44.15594" lon="5.02671">
        <ele>559</ele>
        <time>2020-09-08T10:49:43Z</time>
      </trkpt>
      <trkpt lat="44.15596" lon="5.02669">
        <ele>559.2</ele>
        <time>2020-09-08T10:49:44Z</time>
      </trkpt>
      <trkpt lat="44.15597" lon="5.02668">
        <ele>559.3</ele>
        <time>2020-09-08T10:49:45Z</time>
      </trkpt>
      <trkpt lat="44.15599" lon="5.02669">
        <ele>559.5</ele>
        <time>2020-09-08T10:49:46Z</time>
      </trkpt>
      <trkpt lat="44.15599" lon="5.02669">
        <ele>559.5</ele>
        <time>2020-09-08T10:49:47Z</time>
      </trkpt>
      <trkpt lat="44.15599" lon="5.02669">
        <ele>559.6</ele>
        <time>2020-09-08T10:49:48Z</time>
      </trkpt>
      <trkpt lat="44.15599" lon="5.02669">
        <ele>559.6</ele>
        <time>2020-09-08T10:49:49Z</time>
      </trkpt>
      <trkpt lat="44.15599" lon="5.02668">
        <ele>559.6</ele>
        <time>2020-09-08T10:49:50Z</time>
      </trkpt>
      <trkpt lat="44.15599" lon="5.02668">
        <ele>559.6</ele>
        <time>2020-09-08T10:49:51Z</time>
      </trkpt>
      <trkpt lat="44.15599" lon="5.02668">
        <ele>559.6</ele>
        <time>2020-09-08T10:49:52Z</time>
      </trkpt>
      <trkpt lat="44.15599" lon="5.02668">
        <ele>559.6</ele>
        <time>2020-09-08T10:49:53Z</time>
      </trkpt>
      <trkpt lat="44.15599" lon="5.02668">
        <ele>559.6</ele>
        <time>2020-09-08T10:49:54Z</time>
      </trkpt>
      <trkpt lat="44.15599" lon="5.02668">
        <ele>559.6</ele>
        <time>2020-09-08T10:49:55Z</time>
      </trkpt>
      <trkpt lat="44.15599" lon="5.02668">
        <ele>559.6</ele>
        <time>2020-09-08T10:49:56Z</time>
      </trkpt>
      <trkpt lat="44.15599" lon="5.02668">
        <ele>559.6</ele>
        <time>2020-09-08T10:49:57Z</time>
      </trkpt>
      <trkpt lat="44.15599" lon="5.02668">
        <ele>559.6</ele>
        <time>2020-09-08T10:49:58Z</time>
      </trkpt>
      <trkpt lat="44.15598" lon="5.02667">
        <ele>559.7</ele>
        <time>2020-09-08T10:49:59Z</time>
      </trkpt>
      <trkpt lat="44.15598" lon="5.02667">
        <ele>559.7</ele>
        <time>2020-09-08T10:50:00Z</time>
      </trkpt>
      <trkpt lat="44.15598" lon="5.02667">
        <ele>559.7</ele>
        <time>2020-09-08T10:50:01Z</time>
      </trkpt>
      <trkpt lat="44.15598" lon="5.02667">
        <ele>559.7</ele>
        <time>2020-09-08T10:50:02Z</time>
      </trkpt>
      <trkpt lat="44.15598" lon="5.02667">
        <ele>559.7</ele>
        <time>2020-09-08T10:50:03Z</time>
      </trkpt>
      <trkpt lat="44.15598" lon="5.02667">
        <ele>559.7</ele>
        <time>2020-09-08T10:50:04Z</time>
      </trkpt>
      <trkpt lat="44.15598" lon="5.02667">
        <ele>559.7</ele>
        <time>2020-09-08T10:50:05Z</time>
      </trkpt>
      <trkpt lat="44.15598" lon="5.02667">
        <ele>559.7</ele>
        <time>2020-09-08T10:50:06Z</time>
      </trkpt>
      <trkpt lat="44.15598" lon="5.02667">
        <ele>559.7</ele>
        <time>2020-09-08T10:50:07Z</time>
      </trkpt>
      <trkpt lat="44.15598" lon="5.02666">
        <ele>559.7</ele>
        <time>2020-09-08T10:50:08Z</time>
      </trkpt>
      <trkpt lat="44.15598" lon="5.02666">
        <ele>559.7</ele>
        <time>2020-09-08T10:50:09Z</time>
      </trkpt>
      <trkpt lat="44.15598" lon="5.02666">
        <ele>559.7</ele>
        <time>2020-09-08T10:50:10Z</time>
      </trkpt>
      <trkpt lat="44.15598" lon="5.02666">
        <ele>559.8</ele>
        <time>2020-09-08T10:50:11Z</time>
      </trkpt>
      <trkpt lat="44.15598" lon="5.02666">
        <ele>559.8</ele>
        <time>2020-09-08T10:50:12Z</time>
      </trkpt>
      <trkpt lat="44.15598" lon="5.02666">
        <ele>559.8</ele>
        <time>2020-09-08T10:50:13Z</time>
      </trkpt>
      <trkpt lat="44.15598" lon="5.02666">
        <ele>559.8</ele>
        <time>2020-09-08T10:50:14Z</time>
      </trkpt>
      <trkpt lat="44.15598" lon="5.02666">
        <ele>559.8</ele>
        <time>2020-09-08T10:50:15Z</time>
      </trkpt>
      <trkpt lat="44.15598" lon="5.02666">
        <ele>559.8</ele>
        <time>2020-09-08T10:50:16Z</time>
      </trkpt>
      <trkpt lat="44.15598" lon="5.02665">
        <ele>559.8</ele>
        <time>2020-09-08T10:50:17Z</time>
      </trkpt>
      <trkpt lat="44.15598" lon="5.02665">
        <ele>559.8</ele>
        <time>2020-09-08T10:50:18Z</time>
      </trkpt>
      <trkpt lat="44.15598" lon="5.02665">
        <ele>559.8</ele>
        <time>2020-09-08T10:50:19Z</time>
      </trkpt>
      <trkpt lat="44.15598" lon="5.02665">
        <ele>559.8</ele>
        <time>2020-09-08T10:50:20Z</time>
      </trkpt>
      <trkpt lat="44.15597" lon="5.02665">
        <ele>559.8</ele>
        <time>2020-09-08T10:50:21Z</time>
      </trkpt>
      <trkpt lat="44.15597" lon="5.02665">
        <ele>559.8</ele>
        <time>2020-09-08T10:50:22Z</time>
      </trkpt>
      <trkpt lat="44.15597" lon="5.02665">
        <ele>559.9</ele>
        <time>2020-09-08T10:50:23Z</time>
      </trkpt>
      <trkpt lat="44.15597" lon="5.02665">
        <ele>559.9</ele>
        <time>2020-09-08T10:50:24Z</time>
      </trkpt>
      <trkpt lat="44.15597" lon="5.02665">
        <ele>559.9</ele>
        <time>2020-09-08T10:50:25Z</time>
      </trkpt>
      <trkpt lat="44.15597" lon="5.02664">
        <ele>559.9</ele>
        <time>2020-09-08T10:50:26Z</time>
      </trkpt>
      <trkpt lat="44.15597" lon="5.02664">
        <ele>559.9</ele>
        <time>2020-09-08T10:50:27Z</time>
      </trkpt>
      <trkpt lat="44.15597" lon="5.02664">
        <ele>559.9</ele>
        <time>2020-09-08T10:50:28Z</time>
      </trkpt>
      <trkpt lat="44.15597" lon="5.02664">
        <ele>559.9</ele>
        <time>2020-09-08T10:50:29Z</time>
      </trkpt>
      <trkpt lat="44.15597" lon="5.02664">
        <ele>559.9</ele>
        <time>2020-09-08T10:50:30Z</time>
      </trkpt>
      <trkpt lat="44.15597" lon="5.02664">
        <ele>559.9</ele>
        <time>2020-09-08T10:50:31Z</time>
      </trkpt>
      <trkpt lat="44.15597" lon="5.02664">
        <ele>559.9</ele>
        <time>2020-09-08T10:50:32Z</time>
      </trkpt>
      <trkpt lat="44.15597" lon="5.02664">
        <ele>559.9</ele>
        <time>2020-09-08T10:50:33Z</time>
      </trkpt>
      <trkpt lat="44.15597" lon="5.02664">
        <ele>559.9</ele>
        <time>2020-09-08T10:50:34Z</time>
      </trkpt>
      <trkpt lat="44.15597" lon="5.02664">
        <ele>559.9</ele>
        <time>2020-09-08T10:50:35Z</time>
      </trkpt>
      <trkpt lat="44.15597" lon="5.02664">
        <ele>559.9</ele>
        <time>2020-09-08T10:50:36Z</time>
      </trkpt>
      <trkpt lat="44.15597" lon="5.02664">
        <ele>559.9</ele>
        <time>2020-09-08T10:50:37Z</time>
      </trkpt>
      <trkpt lat="44.15597" lon="5.02664">
        <ele>560</ele>
        <time>2020-09-08T10:50:38Z</time>
      </trkpt>
      <trkpt lat="44.15597" lon="5.02664">
        <ele>560</ele>
        <time>2020-09-08T10:50:39Z</time>
      </trkpt>
      <trkpt lat="44.15597" lon="5.02664">
        <ele>560</ele>
        <time>2020-09-08T10:50:40Z</time>
      </trkpt>
      <trkpt lat="44.15597" lon="5.02664">
        <ele>560</ele>
        <time>2020-09-08T10:50:41Z</time>
      </trkpt>
      <trkpt lat="44.15597" lon="5.02664">
        <ele>560</ele>
        <time>2020-09-08T10:50:42Z</time>
      </trkpt>
      <trkpt lat="44.15597" lon="5.02664">
        <ele>560</ele>
        <time>2020-09-08T10:50:43Z</time>
      </trkpt>
      <trkpt lat="44.15597" lon="5.02664">
        <ele>560</ele>
        <time>2020-09-08T10:50:44Z</time>
      </trkpt>
      <trkpt lat="44.15597" lon="5.02664">
        <ele>560</ele>
        <time>2020-09-08T10:50:45Z</time>
      </trkpt>
      <trkpt lat="44.15597" lon="5.02664">
        <ele>560</ele>
        <time>2020-09-08T10:50:46Z</time>
      </trkpt>
      <trkpt lat="44.15597" lon="5.02664">
        <ele>560</ele>
        <time>2020-09-08T10:50:47Z</time>
      </trkpt>
      <trkpt lat="44.15597" lon="5.02664">
        <ele>560</ele>
        <time>2020-09-08T10:50:48Z</time>
      </trkpt>
      <trkpt lat="44.15597" lon="5.02664">
        <ele>560</ele>
        <time>2020-09-08T10:50:49Z</time>
      </trkpt>
      <trkpt lat="44.15597" lon="5.02664">
        <ele>560</ele>
        <time>2020-09-08T10:50:50Z</time>
      </trkpt>
      <trkpt lat="44.15596" lon="5.02664">
        <ele>560</ele>
        <time>2020-09-08T10:50:51Z</time>
      </trkpt>
      <trkpt lat="44.15596" lon="5.02664">
        <ele>560</ele>
        <time>2020-09-08T10:50:52Z</time>
      </trkpt>
      <trkpt lat="44.15596" lon="5.02664">
        <ele>560</ele>
        <time>2020-09-08T10:50:53Z</time>
      </trkpt>
      <trkpt lat="44.15596" lon="5.02664">
        <ele>560</ele>
        <time>2020-09-08T10:50:54Z</time>
      </trkpt>
      <trkpt lat="44.15596" lon="5.02664">
        <ele>560</ele>
        <time>2020-09-08T10:50:55Z</time>
      </trkpt>
      <trkpt lat="44.15596" lon="5.02664">
        <ele>560</ele>
        <time>2020-09-08T10:50:56Z</time>
      </trkpt>
      <trkpt lat="44.15596" lon="5.02664">
        <ele>560</ele>
        <time>2020-09-08T10:50:57Z</time>
      </trkpt>
      <trkpt lat="44.15596" lon="5.02664">
        <ele>560</ele>
        <time>2020-09-08T10:50:58Z</time>
      </trkpt>
      <trkpt lat="44.15596" lon="5.02664">
        <ele>560</ele>
        <time>2020-09-08T10:50:59Z</time>
      </trkpt>
      <trkpt lat="44.15596" lon="5.02664">
        <ele>560</ele>
        <time>2020-09-08T10:51:00Z</time>
      </trkpt>
      <trkpt lat="44.15596" lon="5.02664">
        <ele>560</ele>
        <time>2020-09-08T10:51:01Z</time>
      </trkpt>
      <trkpt lat="44.15596" lon="5.02664">
        <ele>560</ele>
        <time>2020-09-08T10:51:02Z</time>
      </trkpt>
      <trkpt lat="44.15596" lon="5.02664">
        <ele>560</ele>
        <time>2020-09-08T10:51:03Z</time>
      </trkpt>
      <trkpt lat="44.15596" lon="5.02664">
        <ele>560</ele>
        <time>2020-09-08T10:51:04Z</time>
      </trkpt>
      <trkpt lat="44.15596" lon="5.02664">
        <ele>560</ele>
        <time>2020-09-08T10:51:05Z</time>
      </trkpt>
      <trkpt lat="44.15596" lon="5.02664">
        <ele>560</ele>
        <time>2020-09-08T10:51:06Z</time>
      </trkpt>
      <trkpt lat="44.15596" lon="5.02664">
        <ele>560</ele>
        <time>2020-09-08T10:51:07Z</time>
      </trkpt>
      <trkpt lat="44.15596" lon="5.02664">
        <ele>560</ele>
        <time>2020-09-08T10:51:08Z</time>
      </trkpt>
      <trkpt lat="44.15596" lon="5.02664">
        <ele>560</ele>
        <time>2020-09-08T10:51:09Z</time>
      </trkpt>
      <trkpt lat="44.15596" lon="5.02664">
        <ele>560</ele>
        <time>2020-09-08T10:51:10Z</time>
      </trkpt>
      <trkpt lat="44.15596" lon="5.02664">
        <ele>560</ele>
        <time>2020-09-08T10:51:11Z</time>
      </trkpt>
      <trkpt lat="44.15596" lon="5.02664">
        <ele>560</ele>
        <time>2020-09-08T10:51:12Z</time>
      </trkpt>
      <trkpt lat="44.15596" lon="5.02664">
        <ele>560</ele>
        <time>2020-09-08T10:51:13Z</time>
      </trkpt>
      <trkpt lat="44.15596" lon="5.02664">
        <ele>560</ele>
        <time>2020-09-08T10:51:14Z</time>
      </trkpt>
      <trkpt lat="44.15596" lon="5.02664">
        <ele>560</ele>
        <time>2020-09-08T10:51:15Z</time>
      </trkpt>
      <trkpt lat="44.15596" lon="5.02664">
        <ele>560</ele>
        <time>2020-09-08T10:51:16Z</time>
      </trkpt>
      <trkpt lat="44.15596" lon="5.02664">
        <ele>560</ele>
        <time>2020-09-08T10:51:17Z</time>
      </trkpt>
      <trkpt lat="44.15596" lon="5.02664">
        <ele>560</ele>
        <time>2020-09-08T10:51:18Z</time>
      </trkpt>
      <trkpt lat="44.15596" lon="5.02664">
        <ele>560</ele>
        <time>2020-09-08T10:51:19Z</time>
      </trkpt>
      <trkpt lat="44.15596" lon="5.02664">
        <ele>560</ele>
        <time>2020-09-08T10:51:20Z</time>
      </trkpt>
      <trkpt lat="44.15596" lon="5.02664">
        <ele>560</ele>
        <time>2020-09-08T10:51:21Z</time>
      </trkpt>
      <trkpt lat="44.15596" lon="5.02664">
        <ele>560.1</ele>
        <time>2020-09-08T10:51:22Z</time>
      </trkpt>
      <trkpt lat="44.15596" lon="5.02664">
        <ele>560.1</ele>
        <time>2020-09-08T10:51:23Z</time>
      </trkpt>
      <trkpt lat="44.15596" lon="5.02664">
        <ele>560.1</ele>
        <time>2020-09-08T10:51:24Z</time>
      </trkpt>
      <trkpt lat="44.15596" lon="5.02664">
        <ele>560.1</ele>
        <time>2020-09-08T10:51:25Z</time>
      </trkpt>
      <trkpt lat="44.15596" lon="5.02664">
        <ele>560.1</ele>
        <time>2020-09-08T10:51:26Z</time>
      </trkpt>
      <trkpt lat="44.15596" lon="5.02664">
        <ele>560.1</ele>
        <time>2020-09-08T10:51:27Z</time>
      </trkpt>
      <trkpt lat="44.15596" lon="5.02664">
        <ele>560.1</ele>
        <time>2020-09-08T10:51:28Z</time>
      </trkpt>
      <trkpt lat="44.15596" lon="5.02664">
        <ele>560.1</ele>
        <time>2020-09-08T10:51:29Z</time>
      </trkpt>
      <trkpt lat="44.15596" lon="5.02665">
        <ele>560.1</ele>
        <time>2020-09-08T10:51:30Z</time>
      </trkpt>
      <trkpt lat="44.15596" lon="5.02665">
        <ele>560.1</ele>
        <time>2020-09-08T10:51:31Z</time>
      </trkpt>
      <trkpt lat="44.15596" lon="5.02665">
        <ele>560.1</ele>
        <time>2020-09-08T10:51:32Z</time>
      </trkpt>
      <trkpt lat="44.15596" lon="5.02665">
        <ele>560.1</ele>
        <time>2020-09-08T10:51:33Z</time>
      </trkpt>
      <trkpt lat="44.15596" lon="5.02665">
        <ele>560.1</ele>
        <time>2020-09-08T10:51:34Z</time>
      </trkpt>
      <trkpt lat="44.15596" lon="5.02665">
        <ele>560.1</ele>
        <time>2020-09-08T10:51:35Z</time>
      </trkpt>
      <trkpt lat="44.15595" lon="5.02665">
        <ele>560.1</ele>
        <time>2020-09-08T10:51:36Z</time>
      </trkpt>
      <trkpt lat="44.15595" lon="5.02665">
        <ele>560.1</ele>
        <time>2020-09-08T10:51:37Z</time>
      </trkpt>
      <trkpt lat="44.15595" lon="5.02665">
        <ele>560.1</ele>
        <time>2020-09-08T10:51:38Z</time>
      </trkpt>
      <trkpt lat="44.15595" lon="5.02665">
        <ele>560.1</ele>
        <time>2020-09-08T10:51:39Z</time>
      </trkpt>
      <trkpt lat="44.15595" lon="5.02665">
        <ele>560.1</ele>
        <time>2020-09-08T10:51:40Z</time>
      </trkpt>
      <trkpt lat="44.15595" lon="5.02665">
        <ele>560.1</ele>
        <time>2020-09-08T10:51:41Z</time>
      </trkpt>
      <trkpt lat="44.15595" lon="5.02665">
        <ele>560.1</ele>
        <time>2020-09-08T10:51:42Z</time>
      </trkpt>
      <trkpt lat="44.15595" lon="5.02665">
        <ele>560.1</ele>
        <time>2020-09-08T10:51:43Z</time>
      </trkpt>
      <trkpt lat="44.15595" lon="5.02665">
        <ele>560.1</ele>
        <time>2020-09-08T10:51:44Z</time>
      </trkpt>
      <trkpt lat="44.15595" lon="5.02665">
        <ele>560.1</ele>
        <time>2020-09-08T10:51:45Z</time>
      </trkpt>
      <trkpt lat="44.15595" lon="5.02665">
        <ele>560.1</ele>
        <time>2020-09-08T10:51:46Z</time>
      </trkpt>
      <trkpt lat="44.15595" lon="5.02665">
        <ele>560.1</ele>
        <time>2020-09-08T10:51:47Z</time>
      </trkpt>
      <trkpt lat="44.15595" lon="5.02665">
        <ele>560.1</ele>
        <time>2020-09-08T10:51:48Z</time>
      </trkpt>
      <trkpt lat="44.15595" lon="5.02665">
        <ele>560.1</ele>
        <time>2020-09-08T10:51:49Z</time>
      </trkpt>
      <trkpt lat="44.15595" lon="5.02665">
        <ele>560.1</ele>
        <time>2020-09-08T10:51:50Z</time>
      </trkpt>
      <trkpt lat="44.15595" lon="5.02665">
        <ele>560.1</ele>
        <time>2020-09-08T10:51:52Z</time>
      </trkpt>
      <trkpt lat="44.15595" lon="5.02665">
        <ele>560.1</ele>
        <time>2020-09-08T10:51:53Z</time>
      </trkpt>
      <trkpt lat="44.15595" lon="5.02665">
        <ele>560.1</ele>
        <time>2020-09-08T10:51:54Z</time>
      </trkpt>
      <trkpt lat="44.15595" lon="5.02665">
        <ele>560.1</ele>
        <time>2020-09-08T10:51:55Z</time>
      </trkpt>
      <trkpt lat="44.15595" lon="5.02665">
        <ele>560.1</ele>
        <time>2020-09-08T10:51:56Z</time>
      </trkpt>
      <trkpt lat="44.15595" lon="5.02665">
        <ele>560.1</ele>
        <time>2020-09-08T10:51:57Z</time>
      </trkpt>
      <trkpt lat="44.15595" lon="5.02665">
        <ele>560.1</ele>
        <time>2020-09-08T10:51:58Z</time>
      </trkpt>
      <trkpt lat="44.15595" lon="5.02665">
        <ele>560.1</ele>
        <time>2020-09-08T10:51:59Z</time>
      </trkpt>
      <trkpt lat="44.15595" lon="5.02665">
        <ele>560.1</ele>
        <time>2020-09-08T10:52:00Z</time>
      </trkpt>
      <trkpt lat="44.15595" lon="5.02665">
        <ele>560.1</ele>
        <time>2020-09-08T10:52:01Z</time>
      </trkpt>
      <trkpt lat="44.15595" lon="5.02665">
        <ele>560.1</ele>
        <time>2020-09-08T10:52:02Z</time>
      </trkpt>
      <trkpt lat="44.15595" lon="5.02665">
        <ele>560.1</ele>
        <time>2020-09-08T10:52:03Z</time>
      </trkpt>
      <trkpt lat="44.15595" lon="5.02665">
        <ele>560.1</ele>
        <time>2020-09-08T10:52:04Z</time>
      </trkpt>
      <trkpt lat="44.15595" lon="5.02665">
        <ele>560.1</ele>
        <time>2020-09-08T10:52:06Z</time>
      </trkpt>
      <trkpt lat="44.15595" lon="5.02665">
        <ele>560.1</ele>
        <time>2020-09-08T10:52:07Z</time>
      </trkpt>
      <trkpt lat="44.15595" lon="5.02665">
        <ele>560.1</ele>
        <time>2020-09-08T10:52:08Z</time>
      </trkpt>
      <trkpt lat="44.15595" lon="5.02665">
        <ele>560.2</ele>
        <time>2020-09-08T10:52:09Z</time>
      </trkpt>
      <trkpt lat="44.15595" lon="5.02665">
        <ele>560.2</ele>
        <time>2020-09-08T10:52:10Z</time>
      </trkpt>
      <trkpt lat="44.15595" lon="5.02665">
        <ele>560.2</ele>
        <time>2020-09-08T10:52:11Z</time>
      </trkpt>
      <trkpt lat="44.15595" lon="5.02665">
        <ele>560.2</ele>
        <time>2020-09-08T10:52:12Z</time>
      </trkpt>
      <trkpt lat="44.15595" lon="5.02665">
        <ele>560.2</ele>
        <time>2020-09-08T10:52:13Z</time>
      </trkpt>
      <trkpt lat="44.15595" lon="5.02665">
        <ele>560.2</ele>
        <time>2020-09-08T10:52:14Z</time>
      </trkpt>
      <trkpt lat="44.15595" lon="5.02665">
        <ele>560.2</ele>
        <time>2020-09-08T10:52:15Z</time>
      </trkpt>
      <trkpt lat="44.15595" lon="5.02665">
        <ele>560.2</ele>
        <time>2020-09-08T10:52:16Z</time>
      </trkpt>
      <trkpt lat="44.15595" lon="5.02665">
        <ele>560.2</ele>
        <time>2020-09-08T10:52:17Z</time>
      </trkpt>
      <trkpt lat="44.15595" lon="5.02665">
        <ele>560.2</ele>
        <time>2020-09-08T10:52:18Z</time>
      </trkpt>
      <trkpt lat="44.15595" lon="5.02665">
        <ele>560.2</ele>
        <time>2020-09-08T10:52:19Z</time>
      </trkpt>
      <trkpt lat="44.15595" lon="5.02665">
        <ele>560.2</ele>
        <time>2020-09-08T10:52:20Z</time>
      </trkpt>
      <trkpt lat="44.15595" lon="5.02665">
        <ele>560.2</ele>
        <time>2020-09-08T10:52:21Z</time>
      </trkpt>
      <trkpt lat="44.15594" lon="5.02665">
        <ele>560.2</ele>
        <time>2020-09-08T10:52:22Z</time>
      </trkpt>
      <trkpt lat="44.15594" lon="5.02665">
        <ele>560.2</ele>
        <time>2020-09-08T10:52:23Z</time>
      </trkpt>
      <trkpt lat="44.15594" lon="5.02665">
        <ele>560.2</ele>
        <time>2020-09-08T10:52:24Z</time>
      </trkpt>
      <trkpt lat="44.15594" lon="5.02665">
        <ele>560.2</ele>
        <time>2020-09-08T10:52:25Z</time>
      </trkpt>
      <trkpt lat="44.15594" lon="5.02665">
        <ele>560.2</ele>
        <time>2020-09-08T10:52:26Z</time>
      </trkpt>
      <trkpt lat="44.15594" lon="5.02665">
        <ele>560.2</ele>
        <time>2020-09-08T10:52:27Z</time>
      </trkpt>
      <trkpt lat="44.15594" lon="5.02665">
        <ele>560.2</ele>
        <time>2020-09-08T10:52:28Z</time>
      </trkpt>
      <trkpt lat="44.15594" lon="5.02665">
        <ele>560.2</ele>
        <time>2020-09-08T10:52:29Z</time>
      </trkpt>
      <trkpt lat="44.15594" lon="5.02665">
        <ele>560.2</ele>
        <time>2020-09-08T10:52:30Z</time>
      </trkpt>
      <trkpt lat="44.15594" lon="5.02665">
        <ele>560.2</ele>
        <time>2020-09-08T10:52:31Z</time>
      </trkpt>
      <trkpt lat="44.15594" lon="5.02665">
        <ele>560.2</ele>
        <time>2020-09-08T10:52:32Z</time>
      </trkpt>
      <trkpt lat="44.15594" lon="5.02665">
        <ele>560.2</ele>
        <time>2020-09-08T10:52:33Z</time>
      </trkpt>
      <trkpt lat="44.15594" lon="5.02665">
        <ele>560.2</ele>
        <time>2020-09-08T10:52:34Z</time>
      </trkpt>
      <trkpt lat="44.15594" lon="5.02665">
        <ele>560.2</ele>
        <time>2020-09-08T10:52:35Z</time>
      </trkpt>
      <trkpt lat="44.15594" lon="5.02665">
        <ele>560.2</ele>
        <time>2020-09-08T10:52:36Z</time>
      </trkpt>
      <trkpt lat="44.15594" lon="5.02665">
        <ele>560.2</ele>
        <time>2020-09-08T10:52:37Z</time>
      </trkpt>
      <trkpt lat="44.15594" lon="5.02665">
        <ele>560.2</ele>
        <time>2020-09-08T10:52:38Z</time>
      </trkpt>
      <trkpt lat="44.15594" lon="5.02665">
        <ele>560.2</ele>
        <time>2020-09-08T10:52:39Z</time>
      </trkpt>
      <trkpt lat="44.15594" lon="5.02665">
        <ele>560.2</ele>
        <time>2020-09-08T10:52:40Z</time>
      </trkpt>
      <trkpt lat="44.15594" lon="5.02665">
        <ele>560.2</ele>
        <time>2020-09-08T10:52:41Z</time>
      </trkpt>
      <trkpt lat="44.15594" lon="5.02665">
        <ele>560.2</ele>
        <time>2020-09-08T10:52:42Z</time>
      </trkpt>
      <trkpt lat="44.15594" lon="5.02665">
        <ele>560.2</ele>
        <time>2020-09-08T10:52:43Z</time>
      </trkpt>
      <trkpt lat="44.15594" lon="5.02665">
        <ele>560.2</ele>
        <time>2020-09-08T10:52:44Z</time>
      </trkpt>
      <trkpt lat="44.15594" lon="5.02665">
        <ele>560.2</ele>
        <time>2020-09-08T10:52:45Z</time>
      </trkpt>
      <trkpt lat="44.15594" lon="5.02665">
        <ele>560.2</ele>
        <time>2020-09-08T10:52:46Z</time>
      </trkpt>
      <trkpt lat="44.15594" lon="5.02665">
        <ele>560.2</ele>
        <time>2020-09-08T10:52:47Z</time>
      </trkpt>
      <trkpt lat="44.15594" lon="5.02665">
        <ele>560.2</ele>
        <time>2020-09-08T10:52:48Z</time>
      </trkpt>
      <trkpt lat="44.15594" lon="5.02665">
        <ele>560.2</ele>
        <time>2020-09-08T10:52:49Z</time>
      </trkpt>
      <trkpt lat="44.15594" lon="5.02665">
        <ele>560.3</ele>
        <time>2020-09-08T10:52:50Z</time>
      </trkpt>
      <trkpt lat="44.15594" lon="5.02665">
        <ele>560.3</ele>
        <time>2020-09-08T10:52:51Z</time>
      </trkpt>
      <trkpt lat="44.15594" lon="5.02665">
        <ele>560.3</ele>
        <time>2020-09-08T10:52:52Z</time>
      </trkpt>
      <trkpt lat="44.15594" lon="5.02665">
        <ele>560.3</ele>
        <time>2020-09-08T10:52:53Z</time>
      </trkpt>
      <trkpt lat="44.15594" lon="5.02665">
        <ele>560.3</ele>
        <time>2020-09-08T10:52:54Z</time>
      </trkpt>
      <trkpt lat="44.15594" lon="5.02665">
        <ele>560.3</ele>
        <time>2020-09-08T10:52:55Z</time>
      </trkpt>
      <trkpt lat="44.15594" lon="5.02665">
        <ele>560.3</ele>
        <time>2020-09-08T10:52:56Z</time>
      </trkpt>
      <trkpt lat="44.15594" lon="5.02665">
        <ele>560.3</ele>
        <time>2020-09-08T10:52:57Z</time>
      </trkpt>
      <trkpt lat="44.15594" lon="5.02665">
        <ele>560.3</ele>
        <time>2020-09-08T10:52:58Z</time>
      </trkpt>
      <trkpt lat="44.15594" lon="5.02665">
        <ele>560.3</ele>
        <time>2020-09-08T10:52:59Z</time>
      </trkpt>
      <trkpt lat="44.15594" lon="5.02665">
        <ele>560.3</ele>
        <time>2020-09-08T10:53:00Z</time>
      </trkpt>
      <trkpt lat="44.15594" lon="5.02665">
        <ele>560.3</ele>
        <time>2020-09-08T10:53:01Z</time>
      </trkpt>
      <trkpt lat="44.15594" lon="5.02665">
        <ele>560.3</ele>
        <time>2020-09-08T10:53:02Z</time>
      </trkpt>
      <trkpt lat="44.15594" lon="5.02665">
        <ele>560.3</ele>
        <time>2020-09-08T10:53:03Z</time>
      </trkpt>
      <trkpt lat="44.15594" lon="5.02665">
        <ele>560.3</ele>
        <time>2020-09-08T10:53:04Z</time>
      </trkpt>
      <trkpt lat="44.15594" lon="5.02665">
        <ele>560.3</ele>
        <time>2020-09-08T10:53:05Z</time>
      </trkpt>
      <trkpt lat="44.15593" lon="5.02665">
        <ele>560.3</ele>
        <time>2020-09-08T10:53:06Z</time>
      </trkpt>
      <trkpt lat="44.15593" lon="5.02665">
        <ele>560.3</ele>
        <time>2020-09-08T10:53:07Z</time>
      </trkpt>
      <trkpt lat="44.15593" lon="5.02665">
        <ele>560.3</ele>
        <time>2020-09-08T10:53:08Z</time>
      </trkpt>
      <trkpt lat="44.15593" lon="5.02665">
        <ele>560.3</ele>
        <time>2020-09-08T10:53:09Z</time>
      </trkpt>
      <trkpt lat="44.15593" lon="5.02665">
        <ele>560.3</ele>
        <time>2020-09-08T10:53:10Z</time>
      </trkpt>
      <trkpt lat="44.15593" lon="5.02665">
        <ele>560.3</ele>
        <time>2020-09-08T10:53:11Z</time>
      </trkpt>
      <trkpt lat="44.15593" lon="5.02665">
        <ele>560.3</ele>
        <time>2020-09-08T10:53:12Z</time>
      </trkpt>
      <trkpt lat="44.15593" lon="5.02665">
        <ele>560.3</ele>
        <time>2020-09-08T10:53:13Z</time>
      </trkpt>
      <trkpt lat="44.15593" lon="5.02665">
        <ele>560.3</ele>
        <time>2020-09-08T10:53:14Z</time>
      </trkpt>
      <trkpt lat="44.15593" lon="5.02665">
        <ele>560.3</ele>
        <time>2020-09-08T10:53:15Z</time>
      </trkpt>
      <trkpt lat="44.15593" lon="5.02665">
        <ele>560.3</ele>
        <time>2020-09-08T10:53:16Z</time>
      </trkpt>
      <trkpt lat="44.15593" lon="5.02665">
        <ele>560.3</ele>
        <time>2020-09-08T10:53:17Z</time>
      </trkpt>
      <trkpt lat="44.15593" lon="5.02665">
        <ele>560.3</ele>
        <time>2020-09-08T10:53:18Z</time>
      </trkpt>
      <trkpt lat="44.15593" lon="5.02665">
        <ele>560.3</ele>
        <time>2020-09-08T10:53:19Z</time>
      </trkpt>
      <trkpt lat="44.15593" lon="5.02665">
        <ele>560.3</ele>
        <time>2020-09-08T10:53:20Z</time>
      </trkpt>
      <trkpt lat="44.15593" lon="5.02665">
        <ele>560.3</ele>
        <time>2020-09-08T10:53:21Z</time>
      </trkpt>
      <trkpt lat="44.15593" lon="5.02665">
        <ele>560.3</ele>
        <time>2020-09-08T10:53:22Z</time>
      </trkpt>
      <trkpt lat="44.15593" lon="5.02665">
        <ele>560.3</ele>
        <time>2020-09-08T10:53:23Z</time>
      </trkpt>
      <trkpt lat="44.15593" lon="5.02665">
        <ele>560.3</ele>
        <time>2020-09-08T10:53:24Z</time>
      </trkpt>
      <trkpt lat="44.15593" lon="5.02665">
        <ele>560.3</ele>
        <time>2020-09-08T10:53:25Z</time>
      </trkpt>
      <trkpt lat="44.15593" lon="5.02665">
        <ele>560.3</ele>
        <time>2020-09-08T10:53:26Z</time>
      </trkpt>
      <trkpt lat="44.15593" lon="5.02665">
        <ele>560.3</ele>
        <time>2020-09-08T10:53:27Z</time>
      </trkpt>
      <trkpt lat="44.15593" lon="5.02665">
        <ele>560.3</ele>
        <time>2020-09-08T10:53:28Z</time>
      </trkpt>
      <trkpt lat="44.15593" lon="5.02665">
        <ele>560.3</ele>
        <time>2020-09-08T10:53:29Z</time>
      </trkpt>
      <trkpt lat="44.15593" lon="5.02665">
        <ele>560.3</ele>
        <time>2020-09-08T10:53:30Z</time>
      </trkpt>
      <trkpt lat="44.15593" lon="5.02665">
        <ele>560.3</ele>
        <time>2020-09-08T10:53:31Z</time>
      </trkpt>
      <trkpt lat="44.15593" lon="5.02665">
        <ele>560.3</ele>
        <time>2020-09-08T10:53:32Z</time>
      </trkpt>
      <trkpt lat="44.15593" lon="5.02665">
        <ele>560.3</ele>
        <time>2020-09-08T10:53:33Z</time>
      </trkpt>
      <trkpt lat="44.15593" lon="5.02665">
        <ele>560.3</ele>
        <time>2020-09-08T10:53:34Z</time>
      </trkpt>
      <trkpt lat="44.15593" lon="5.02665">
        <ele>560.3</ele>
        <time>2020-09-08T10:53:35Z</time>
      </trkpt>
      <trkpt lat="44.15593" lon="5.02665">
        <ele>560.3</ele>
        <time>2020-09-08T10:53:36Z</time>
      </trkpt>
      <trkpt lat="44.15593" lon="5.02665">
        <ele>560.4</ele>
        <time>2020-09-08T10:53:37Z</time>
      </trkpt>
      <trkpt lat="44.15593" lon="5.02665">
        <ele>560.4</ele>
        <time>2020-09-08T10:53:38Z</time>
      </trkpt>
      <trkpt lat="44.15593" lon="5.02665">
        <ele>560.4</ele>
        <time>2020-09-08T10:53:39Z</time>
      </trkpt>
      <trkpt lat="44.15593" lon="5.02665">
        <ele>560.4</ele>
        <time>2020-09-08T10:53:40Z</time>
      </trkpt>
      <trkpt lat="44.15593" lon="5.02665">
        <ele>560.4</ele>
        <time>2020-09-08T10:53:41Z</time>
      </trkpt>
      <trkpt lat="44.15593" lon="5.02666">
        <ele>560.4</ele>
        <time>2020-09-08T10:53:42Z</time>
      </trkpt>
      <trkpt lat="44.15593" lon="5.02666">
        <ele>560.4</ele>
        <time>2020-09-08T10:53:43Z</time>
      </trkpt>
      <trkpt lat="44.15593" lon="5.02666">
        <ele>560.4</ele>
        <time>2020-09-08T10:53:44Z</time>
      </trkpt>
      <trkpt lat="44.15593" lon="5.02666">
        <ele>560.4</ele>
        <time>2020-09-08T10:53:45Z</time>
      </trkpt>
      <trkpt lat="44.15593" lon="5.02666">
        <ele>560.4</ele>
        <time>2020-09-08T10:53:46Z</time>
      </trkpt>
      <trkpt lat="44.15593" lon="5.02666">
        <ele>560.4</ele>
        <time>2020-09-08T10:53:47Z</time>
      </trkpt>
      <trkpt lat="44.15593" lon="5.02666">
        <ele>560.4</ele>
        <time>2020-09-08T10:53:48Z</time>
      </trkpt>
      <trkpt lat="44.15591" lon="5.02665">
        <ele>560.5</ele>
        <time>2020-09-08T10:53:49Z</time>
      </trkpt>
      <trkpt lat="44.15593" lon="5.02665">
        <ele>560.6</ele>
        <time>2020-09-08T10:53:50Z</time>
      </trkpt>
      <trkpt lat="44.15593" lon="5.02665">
        <ele>560.6</ele>
        <time>2020-09-08T10:53:51Z</time>
      </trkpt>
      <trkpt lat="44.15592" lon="5.02666">
        <ele>560.6</ele>
        <time>2020-09-08T10:53:52Z</time>
      </trkpt>
      <trkpt lat="44.15592" lon="5.02666">
        <ele>560.7</ele>
        <time>2020-09-08T10:53:53Z</time>
      </trkpt>
      <trkpt lat="44.15592" lon="5.02666">
        <ele>560.7</ele>
        <time>2020-09-08T10:53:54Z</time>
      </trkpt>
      <trkpt lat="44.15591" lon="5.02667">
        <ele>560.8</ele>
        <time>2020-09-08T10:53:55Z</time>
      </trkpt>
      <trkpt lat="44.15591" lon="5.02667">
        <ele>560.8</ele>
        <time>2020-09-08T10:53:56Z</time>
      </trkpt>
      <trkpt lat="44.1559" lon="5.02667">
        <ele>560.8</ele>
        <time>2020-09-08T10:53:57Z</time>
      </trkpt>
      <trkpt lat="44.1559" lon="5.02667">
        <ele>560.9</ele>
        <time>2020-09-08T10:53:58Z</time>
      </trkpt>
      <trkpt lat="44.1559" lon="5.02667">
        <ele>560.9</ele>
        <time>2020-09-08T10:53:59Z</time>
      </trkpt>
      <trkpt lat="44.1559" lon="5.02667">
        <ele>560.9</ele>
        <time>2020-09-08T10:54:00Z</time>
      </trkpt>
      <trkpt lat="44.15589" lon="5.02667">
        <ele>561</ele>
        <time>2020-09-08T10:54:01Z</time>
      </trkpt>
      <trkpt lat="44.1559" lon="5.02668">
        <ele>561</ele>
        <time>2020-09-08T10:54:02Z</time>
      </trkpt>
      <trkpt lat="44.15589" lon="5.02668">
        <ele>561</ele>
        <time>2020-09-08T10:54:03Z</time>
      </trkpt>
      <trkpt lat="44.15588" lon="5.02669">
        <ele>561.1</ele>
        <time>2020-09-08T10:54:04Z</time>
      </trkpt>
      <trkpt lat="44.1559" lon="5.02666">
        <ele>561.3</ele>
        <time>2020-09-08T10:54:05Z</time>
      </trkpt>
      <trkpt lat="44.15592" lon="5.02665">
        <ele>561.5</ele>
        <time>2020-09-08T10:54:06Z</time>
      </trkpt>
      <trkpt lat="44.1559" lon="5.02667">
        <ele>561.7</ele>
        <time>2020-09-08T10:54:07Z</time>
      </trkpt>
      <trkpt lat="44.1559" lon="5.02666">
        <ele>561.7</ele>
        <time>2020-09-08T10:54:08Z</time>
      </trkpt>
      <trkpt lat="44.1559" lon="5.02665">
        <ele>561.8</ele>
        <time>2020-09-08T10:54:09Z</time>
      </trkpt>
      <trkpt lat="44.1559" lon="5.02665">
        <ele>561.8</ele>
        <time>2020-09-08T10:54:10Z</time>
      </trkpt>
      <trkpt lat="44.1559" lon="5.02664">
        <ele>561.8</ele>
        <time>2020-09-08T10:54:11Z</time>
      </trkpt>
      <trkpt lat="44.15589" lon="5.02665">
        <ele>561.9</ele>
        <time>2020-09-08T10:54:12Z</time>
      </trkpt>
      <trkpt lat="44.15589" lon="5.02664">
        <ele>561.9</ele>
        <time>2020-09-08T10:54:13Z</time>
      </trkpt>
      <trkpt lat="44.15589" lon="5.02664">
        <ele>561.9</ele>
        <time>2020-09-08T10:54:14Z</time>
      </trkpt>
      <trkpt lat="44.15589" lon="5.02664">
        <ele>561.9</ele>
        <time>2020-09-08T10:54:15Z</time>
      </trkpt>
      <trkpt lat="44.15589" lon="5.02662">
        <ele>562</ele>
        <time>2020-09-08T10:54:16Z</time>
      </trkpt>
      <trkpt lat="44.15589" lon="5.02662">
        <ele>562</ele>
        <time>2020-09-08T10:54:17Z</time>
      </trkpt>
      <trkpt lat="44.1559" lon="5.02661">
        <ele>562.1</ele>
        <time>2020-09-08T10:54:18Z</time>
      </trkpt>
      <trkpt lat="44.15591" lon="5.0266">
        <ele>562.2</ele>
        <time>2020-09-08T10:54:19Z</time>
      </trkpt>
      <trkpt lat="44.15591" lon="5.02658">
        <ele>562.3</ele>
        <time>2020-09-08T10:54:20Z</time>
      </trkpt>
      <trkpt lat="44.15592" lon="5.02658">
        <ele>562.4</ele>
        <time>2020-09-08T10:54:21Z</time>
      </trkpt>
      <trkpt lat="44.15592" lon="5.02656">
        <ele>562.5</ele>
        <time>2020-09-08T10:54:22Z</time>
      </trkpt>
      <trkpt lat="44.15593" lon="5.02655">
        <ele>562.5</ele>
        <time>2020-09-08T10:54:23Z</time>
      </trkpt>
      <trkpt lat="44.15593" lon="5.02654">
        <ele>562.6</ele>
        <time>2020-09-08T10:54:24Z</time>
      </trkpt>
      <trkpt lat="44.15593" lon="5.02653">
        <ele>562.7</ele>
        <time>2020-09-08T10:54:25Z</time>
      </trkpt>
      <trkpt lat="44.15594" lon="5.02652">
        <ele>562.8</ele>
        <time>2020-09-08T10:54:26Z</time>
      </trkpt>
      <trkpt lat="44.15595" lon="5.02651">
        <ele>562.9</ele>
        <time>2020-09-08T10:54:27Z</time>
      </trkpt>
      <trkpt lat="44.15595" lon="5.0265">
        <ele>562.9</ele>
        <time>2020-09-08T10:54:28Z</time>
      </trkpt>
      <trkpt lat="44.15596" lon="5.02649">
        <ele>563</ele>
        <time>2020-09-08T10:54:29Z</time>
      </trkpt>
      <trkpt lat="44.15596" lon="5.02649">
        <ele>563.1</ele>
        <time>2020-09-08T10:54:30Z</time>
      </trkpt>
      <trkpt lat="44.15596" lon="5.02648">
        <ele>563.1</ele>
        <time>2020-09-08T10:54:31Z</time>
      </trkpt>
      <trkpt lat="44.15597" lon="5.02648">
        <ele>563.2</ele>
        <time>2020-09-08T10:54:32Z</time>
      </trkpt>
      <trkpt lat="44.15598" lon="5.02647">
        <ele>563.2</ele>
        <time>2020-09-08T10:54:33Z</time>
      </trkpt>
      <trkpt lat="44.15598" lon="5.02646">
        <ele>563.3</ele>
        <time>2020-09-08T10:54:35Z</time>
      </trkpt>
      <trkpt lat="44.15598" lon="5.02647">
        <ele>563.3</ele>
        <time>2020-09-08T10:54:36Z</time>
      </trkpt>
      <trkpt lat="44.15598" lon="5.02648">
        <ele>563.4</ele>
        <time>2020-09-08T10:54:37Z</time>
      </trkpt>
      <trkpt lat="44.15598" lon="5.02649">
        <ele>563.4</ele>
        <time>2020-09-08T10:54:38Z</time>
      </trkpt>
      <trkpt lat="44.15597" lon="5.0265">
        <ele>563.5</ele>
        <time>2020-09-08T10:54:39Z</time>
      </trkpt>
      <trkpt lat="44.15597" lon="5.02651">
        <ele>563.6</ele>
        <time>2020-09-08T10:54:40Z</time>
      </trkpt>
      <trkpt lat="44.15596" lon="5.02651">
        <ele>563.7</ele>
        <time>2020-09-08T10:54:41Z</time>
      </trkpt>
      <trkpt lat="44.15595" lon="5.02653">
        <ele>563.8</ele>
        <time>2020-09-08T10:54:42Z</time>
      </trkpt>
      <trkpt lat="44.15594" lon="5.02654">
        <ele>563.9</ele>
        <time>2020-09-08T10:54:43Z</time>
      </trkpt>
      <trkpt lat="44.15594" lon="5.02654">
        <ele>564</ele>
        <time>2020-09-08T10:54:44Z</time>
      </trkpt>
      <trkpt lat="44.15594" lon="5.02657">
        <ele>564.1</ele>
        <time>2020-09-08T10:54:45Z</time>
      </trkpt>
      <trkpt lat="44.15594" lon="5.02656">
        <ele>564.2</ele>
        <time>2020-09-08T10:54:46Z</time>
      </trkpt>
      <trkpt lat="44.15595" lon="5.02656">
        <ele>564.3</ele>
        <time>2020-09-08T10:54:47Z</time>
      </trkpt>
      <trkpt lat="44.15594" lon="5.02656">
        <ele>564.3</ele>
        <time>2020-09-08T10:54:48Z</time>
      </trkpt>
      <trkpt lat="44.15594" lon="5.02656">
        <ele>564.4</ele>
        <time>2020-09-08T10:54:49Z</time>
      </trkpt>
      <trkpt lat="44.15594" lon="5.02655">
        <ele>564.4</ele>
        <time>2020-09-08T10:54:50Z</time>
      </trkpt>
      <trkpt lat="44.15593" lon="5.02656">
        <ele>564.5</ele>
        <time>2020-09-08T10:54:51Z</time>
      </trkpt>
      <trkpt lat="44.15592" lon="5.02656">
        <ele>564.6</ele>
        <time>2020-09-08T10:54:52Z</time>
      </trkpt>
      <trkpt lat="44.15591" lon="5.02657">
        <ele>564.6</ele>
        <time>2020-09-08T10:54:53Z</time>
      </trkpt>
      <trkpt lat="44.15591" lon="5.02658">
        <ele>564.7</ele>
        <time>2020-09-08T10:54:54Z</time>
      </trkpt>
      <trkpt lat="44.15591" lon="5.02658">
        <ele>564.7</ele>
        <time>2020-09-08T10:54:55Z</time>
      </trkpt>
      <trkpt lat="44.1559" lon="5.02659">
        <ele>564.8</ele>
        <time>2020-09-08T10:54:56Z</time>
      </trkpt>
      <trkpt lat="44.15589" lon="5.02659">
        <ele>564.9</ele>
        <time>2020-09-08T10:54:57Z</time>
      </trkpt>
      <trkpt lat="44.15589" lon="5.0266">
        <ele>564.9</ele>
        <time>2020-09-08T10:54:58Z</time>
      </trkpt>
      <trkpt lat="44.15588" lon="5.02661">
        <ele>565</ele>
        <time>2020-09-08T10:54:59Z</time>
      </trkpt>
      <trkpt lat="44.15587" lon="5.02662">
        <ele>565.1</ele>
        <time>2020-09-08T10:55:00Z</time>
      </trkpt>
      <trkpt lat="44.15587" lon="5.02663">
        <ele>565.2</ele>
        <time>2020-09-08T10:55:01Z</time>
      </trkpt>
      <trkpt lat="44.15588" lon="5.02664">
        <ele>565.3</ele>
        <time>2020-09-08T10:55:02Z</time>
      </trkpt>
      <trkpt lat="44.15587" lon="5.02665">
        <ele>565.3</ele>
        <time>2020-09-08T10:55:03Z</time>
      </trkpt>
      <trkpt lat="44.15588" lon="5.02666">
        <ele>565.4</ele>
        <time>2020-09-08T10:55:04Z</time>
      </trkpt>
      <trkpt lat="44.15588" lon="5.02666">
        <ele>565.4</ele>
        <time>2020-09-08T10:55:05Z</time>
      </trkpt>
      <trkpt lat="44.15588" lon="5.02666">
        <ele>565.5</ele>
        <time>2020-09-08T10:55:06Z</time>
      </trkpt>
      <trkpt lat="44.15589" lon="5.02666">
        <ele>565.5</ele>
        <time>2020-09-08T10:55:07Z</time>
      </trkpt>
      <trkpt lat="44.15589" lon="5.02665">
        <ele>565.6</ele>
        <time>2020-09-08T10:55:08Z</time>
      </trkpt>
      <trkpt lat="44.15589" lon="5.02665">
        <ele>565.6</ele>
        <time>2020-09-08T10:55:09Z</time>
      </trkpt>
      <trkpt lat="44.1559" lon="5.02664">
        <ele>565.6</ele>
        <time>2020-09-08T10:55:10Z</time>
      </trkpt>
      <trkpt lat="44.1559" lon="5.02665">
        <ele>565.7</ele>
        <time>2020-09-08T10:55:11Z</time>
      </trkpt>
      <trkpt lat="44.1559" lon="5.02665">
        <ele>565.7</ele>
        <time>2020-09-08T10:55:12Z</time>
      </trkpt>
      <trkpt lat="44.1559" lon="5.02665">
        <ele>565.7</ele>
        <time>2020-09-08T10:55:13Z</time>
      </trkpt>
      <trkpt lat="44.15591" lon="5.02664">
        <ele>565.7</ele>
        <time>2020-09-08T10:55:14Z</time>
      </trkpt>
      <trkpt lat="44.15591" lon="5.02664">
        <ele>565.8</ele>
        <time>2020-09-08T10:55:15Z</time>
      </trkpt>
      <trkpt lat="44.15592" lon="5.02663">
        <ele>565.9</ele>
        <time>2020-09-08T10:55:16Z</time>
      </trkpt>
      <trkpt lat="44.15592" lon="5.02662">
        <ele>565.9</ele>
        <time>2020-09-08T10:55:17Z</time>
      </trkpt>
      <trkpt lat="44.15592" lon="5.02662">
        <ele>565.9</ele>
        <time>2020-09-08T10:55:18Z</time>
      </trkpt>
      <trkpt lat="44.15592" lon="5.02662">
        <ele>565.9</ele>
        <time>2020-09-08T10:55:19Z</time>
      </trkpt>
      <trkpt lat="44.15592" lon="5.02662">
        <ele>566</ele>
        <time>2020-09-08T10:55:20Z</time>
      </trkpt>
      <trkpt lat="44.15592" lon="5.02662">
        <ele>566</ele>
        <time>2020-09-08T10:55:21Z</time>
      </trkpt>
      <trkpt lat="44.15592" lon="5.02662">
        <ele>566</ele>
        <time>2020-09-08T10:55:22Z</time>
      </trkpt>
      <trkpt lat="44.15592" lon="5.02662">
        <ele>566</ele>
        <time>2020-09-08T10:55:23Z</time>
      </trkpt>
      <trkpt lat="44.15592" lon="5.02662">
        <ele>566</ele>
        <time>2020-09-08T10:55:24Z</time>
      </trkpt>
      <trkpt lat="44.15592" lon="5.02662">
        <ele>566</ele>
        <time>2020-09-08T10:55:25Z</time>
      </trkpt>
      <trkpt lat="44.15592" lon="5.02662">
        <ele>566</ele>
        <time>2020-09-08T10:55:26Z</time>
      </trkpt>
      <trkpt lat="44.15592" lon="5.02662">
        <ele>566</ele>
        <time>2020-09-08T10:55:27Z</time>
      </trkpt>
      <trkpt lat="44.15592" lon="5.02662">
        <ele>566</ele>
        <time>2020-09-08T10:55:28Z</time>
      </trkpt>
      <trkpt lat="44.15592" lon="5.02662">
        <ele>566</ele>
        <time>2020-09-08T10:55:29Z</time>
      </trkpt>
      <trkpt lat="44.15592" lon="5.02662">
        <ele>566</ele>
        <time>2020-09-08T10:55:30Z</time>
      </trkpt>
      <trkpt lat="44.15592" lon="5.02662">
        <ele>566</ele>
        <time>2020-09-08T10:55:31Z</time>
      </trkpt>
      <trkpt lat="44.15592" lon="5.02662">
        <ele>566</ele>
        <time>2020-09-08T10:55:32Z</time>
      </trkpt>
      <trkpt lat="44.15592" lon="5.02662">
        <ele>566</ele>
        <time>2020-09-08T10:55:33Z</time>
      </trkpt>
      <trkpt lat="44.15592" lon="5.02662">
        <ele>566</ele>
        <time>2020-09-08T10:55:34Z</time>
      </trkpt>
      <trkpt lat="44.15592" lon="5.02662">
        <ele>566</ele>
        <time>2020-09-08T10:55:35Z</time>
      </trkpt>
      <trkpt lat="44.15592" lon="5.02662">
        <ele>566</ele>
        <time>2020-09-08T10:55:36Z</time>
      </trkpt>
      <trkpt lat="44.15592" lon="5.02662">
        <ele>566</ele>
        <time>2020-09-08T10:55:37Z</time>
      </trkpt>
      <trkpt lat="44.15592" lon="5.02662">
        <ele>566</ele>
        <time>2020-09-08T10:55:38Z</time>
      </trkpt>
      <trkpt lat="44.15591" lon="5.02663">
        <ele>566</ele>
        <time>2020-09-08T10:55:39Z</time>
      </trkpt>
      <trkpt lat="44.15591" lon="5.02663">
        <ele>566.1</ele>
        <time>2020-09-08T10:55:40Z</time>
      </trkpt>
      <trkpt lat="44.15591" lon="5.02662">
        <ele>566.2</ele>
        <time>2020-09-08T10:55:41Z</time>
      </trkpt>
      <trkpt lat="44.15591" lon="5.02662">
        <ele>566.2</ele>
        <time>2020-09-08T10:55:42Z</time>
      </trkpt>
      <trkpt lat="44.15591" lon="5.02662">
        <ele>566.2</ele>
        <time>2020-09-08T10:55:43Z</time>
      </trkpt>
      <trkpt lat="44.15591" lon="5.02662">
        <ele>566.2</ele>
        <time>2020-09-08T10:55:44Z</time>
      </trkpt>
      <trkpt lat="44.15591" lon="5.02662">
        <ele>566.2</ele>
        <time>2020-09-08T10:55:45Z</time>
      </trkpt>
      <trkpt lat="44.15591" lon="5.02663">
        <ele>566.3</ele>
        <time>2020-09-08T10:55:46Z</time>
      </trkpt>
      <trkpt lat="44.15591" lon="5.02662">
        <ele>566.3</ele>
        <time>2020-09-08T10:55:47Z</time>
      </trkpt>
      <trkpt lat="44.15591" lon="5.02662">
        <ele>566.3</ele>
        <time>2020-09-08T10:55:48Z</time>
      </trkpt>
      <trkpt lat="44.15591" lon="5.02662">
        <ele>566.4</ele>
        <time>2020-09-08T10:55:49Z</time>
      </trkpt>
      <trkpt lat="44.15591" lon="5.02661">
        <ele>566.4</ele>
        <time>2020-09-08T10:55:50Z</time>
      </trkpt>
      <trkpt lat="44.15591" lon="5.02661">
        <ele>566.4</ele>
        <time>2020-09-08T10:55:51Z</time>
      </trkpt>
      <trkpt lat="44.1559" lon="5.02661">
        <ele>566.5</ele>
        <time>2020-09-08T10:55:52Z</time>
      </trkpt>
      <trkpt lat="44.15591" lon="5.02661">
        <ele>566.5</ele>
        <time>2020-09-08T10:55:53Z</time>
      </trkpt>
      <trkpt lat="44.15591" lon="5.02661">
        <ele>566.6</ele>
        <time>2020-09-08T10:55:54Z</time>
      </trkpt>
      <trkpt lat="44.1559" lon="5.02662">
        <ele>566.6</ele>
        <time>2020-09-08T10:55:55Z</time>
      </trkpt>
      <trkpt lat="44.1559" lon="5.02662">
        <ele>566.7</ele>
        <time>2020-09-08T10:55:56Z</time>
      </trkpt>
      <trkpt lat="44.15589" lon="5.02662">
        <ele>566.7</ele>
        <time>2020-09-08T10:55:57Z</time>
      </trkpt>
      <trkpt lat="44.15589" lon="5.02663">
        <ele>566.8</ele>
        <time>2020-09-08T10:55:58Z</time>
      </trkpt>
      <trkpt lat="44.1559" lon="5.02663">
        <ele>566.8</ele>
        <time>2020-09-08T10:55:59Z</time>
      </trkpt>
      <trkpt lat="44.15589" lon="5.02663">
        <ele>566.9</ele>
        <time>2020-09-08T10:56:00Z</time>
      </trkpt>
      <trkpt lat="44.15589" lon="5.02663">
        <ele>566.9</ele>
        <time>2020-09-08T10:56:01Z</time>
      </trkpt>
      <trkpt lat="44.15589" lon="5.02663">
        <ele>566.9</ele>
        <time>2020-09-08T10:56:02Z</time>
      </trkpt>
      <trkpt lat="44.15592" lon="5.02662">
        <ele>567.2</ele>
        <time>2020-09-08T10:56:03Z</time>
      </trkpt>
      <trkpt lat="44.15592" lon="5.0266">
        <ele>567.4</ele>
        <time>2020-09-08T10:56:04Z</time>
      </trkpt>
      <trkpt lat="44.15592" lon="5.02659">
        <ele>567.4</ele>
        <time>2020-09-08T10:56:05Z</time>
      </trkpt>
      <trkpt lat="44.15591" lon="5.02659">
        <ele>567.4</ele>
        <time>2020-09-08T10:56:06Z</time>
      </trkpt>
      <trkpt lat="44.15591" lon="5.02659">
        <ele>567.5</ele>
        <time>2020-09-08T10:56:07Z</time>
      </trkpt>
      <trkpt lat="44.15591" lon="5.02659">
        <ele>567.5</ele>
        <time>2020-09-08T10:56:08Z</time>
      </trkpt>
      <trkpt lat="44.15591" lon="5.02659">
        <ele>567.6</ele>
        <time>2020-09-08T10:56:09Z</time>
      </trkpt>
      <trkpt lat="44.15591" lon="5.02658">
        <ele>567.6</ele>
        <time>2020-09-08T10:56:10Z</time>
      </trkpt>
      <trkpt lat="44.15591" lon="5.02657">
        <ele>567.7</ele>
        <time>2020-09-08T10:56:11Z</time>
      </trkpt>
      <trkpt lat="44.15591" lon="5.02657">
        <ele>567.7</ele>
        <time>2020-09-08T10:56:12Z</time>
      </trkpt>
      <trkpt lat="44.15592" lon="5.02657">
        <ele>567.8</ele>
        <time>2020-09-08T10:56:13Z</time>
      </trkpt>
      <trkpt lat="44.15593" lon="5.02657">
        <ele>567.9</ele>
        <time>2020-09-08T10:56:14Z</time>
      </trkpt>
      <trkpt lat="44.15592" lon="5.02656">
        <ele>567.9</ele>
        <time>2020-09-08T10:56:15Z</time>
      </trkpt>
      <trkpt lat="44.1559" lon="5.02655">
        <ele>568.1</ele>
        <time>2020-09-08T10:56:16Z</time>
      </trkpt>
      <trkpt lat="44.1559" lon="5.02656">
        <ele>568.1</ele>
        <time>2020-09-08T10:56:17Z</time>
      </trkpt>
      <trkpt lat="44.1559" lon="5.02656">
        <ele>568.1</ele>
        <time>2020-09-08T10:56:18Z</time>
      </trkpt>
      <trkpt lat="44.1559" lon="5.02656">
        <ele>568.1</ele>
        <time>2020-09-08T11:09:59Z</time>
      </trkpt>
      <trkpt lat="44.1559" lon="5.02656">
        <ele>568.2</ele>
        <time>2020-09-08T11:10:00Z</time>
      </trkpt>
      <trkpt lat="44.1559" lon="5.02656">
        <ele>568.2</ele>
        <time>2020-09-08T11:10:01Z</time>
      </trkpt>
      <trkpt lat="44.1559" lon="5.02657">
        <ele>568.2</ele>
        <time>2020-09-08T11:10:02Z</time>
      </trkpt>
      <trkpt lat="44.1559" lon="5.02657">
        <ele>568.2</ele>
        <time>2020-09-08T11:10:03Z</time>
      </trkpt>
      <trkpt lat="44.1559" lon="5.02657">
        <ele>568.2</ele>
        <time>2020-09-08T11:10:04Z</time>
      </trkpt>
      <trkpt lat="44.1559" lon="5.02657">
        <ele>568.2</ele>
        <time>2020-09-08T11:10:05Z</time>
      </trkpt>
      <trkpt lat="44.15589" lon="5.02657">
        <ele>568.3</ele>
        <time>2020-09-08T11:10:06Z</time>
      </trkpt>
      <trkpt lat="44.15589" lon="5.02658">
        <ele>568.3</ele>
        <time>2020-09-08T11:10:07Z</time>
      </trkpt>
      <trkpt lat="44.15589" lon="5.02658">
        <ele>568.3</ele>
        <time>2020-09-08T11:10:08Z</time>
      </trkpt>
      <trkpt lat="44.15589" lon="5.02658">
        <ele>568.3</ele>
        <time>2020-09-08T11:10:09Z</time>
      </trkpt>
      <trkpt lat="44.15589" lon="5.02658">
        <ele>568.3</ele>
        <time>2020-09-08T11:10:10Z</time>
      </trkpt>
      <trkpt lat="44.15589" lon="5.02658">
        <ele>568.3</ele>
        <time>2020-09-08T11:10:11Z</time>
      </trkpt>
      <trkpt lat="44.15589" lon="5.02659">
        <ele>568.4</ele>
        <time>2020-09-08T11:10:12Z</time>
      </trkpt>
      <trkpt lat="44.15589" lon="5.02659">
        <ele>568.4</ele>
        <time>2020-09-08T11:10:13Z</time>
      </trkpt>
      <trkpt lat="44.15589" lon="5.02659">
        <ele>568.4</ele>
        <time>2020-09-08T11:10:14Z</time>
      </trkpt>
      <trkpt lat="44.15589" lon="5.02659">
        <ele>568.4</ele>
        <time>2020-09-08T11:10:15Z</time>
      </trkpt>
      <trkpt lat="44.15589" lon="5.0266">
        <ele>568.4</ele>
        <time>2020-09-08T11:10:16Z</time>
      </trkpt>
      <trkpt lat="44.15588" lon="5.0266">
        <ele>568.4</ele>
        <time>2020-09-08T11:10:17Z</time>
      </trkpt>
      <trkpt lat="44.15588" lon="5.0266">
        <ele>568.5</ele>
        <time>2020-09-08T11:10:18Z</time>
      </trkpt>
      <trkpt lat="44.15588" lon="5.0266">
        <ele>568.5</ele>
        <time>2020-09-08T11:10:19Z</time>
      </trkpt>
      <trkpt lat="44.15588" lon="5.0266">
        <ele>568.5</ele>
        <time>2020-09-08T11:10:20Z</time>
      </trkpt>
      <trkpt lat="44.15588" lon="5.02661">
        <ele>568.5</ele>
        <time>2020-09-08T11:10:21Z</time>
      </trkpt>
      <trkpt lat="44.15588" lon="5.02661">
        <ele>568.5</ele>
        <time>2020-09-08T11:10:22Z</time>
      </trkpt>
      <trkpt lat="44.15588" lon="5.02661">
        <ele>568.5</ele>
        <time>2020-09-08T11:10:23Z</time>
      </trkpt>
      <trkpt lat="44.15588" lon="5.02661">
        <ele>568.5</ele>
        <time>2020-09-08T11:10:24Z</time>
      </trkpt>
      <trkpt lat="44.15588" lon="5.02661">
        <ele>568.6</ele>
        <time>2020-09-08T11:10:25Z</time>
      </trkpt>
      <trkpt lat="44.15588" lon="5.02662">
        <ele>568.6</ele>
        <time>2020-09-08T11:10:26Z</time>
      </trkpt>
      <trkpt lat="44.15588" lon="5.02662">
        <ele>568.6</ele>
        <time>2020-09-08T11:10:27Z</time>
      </trkpt>
      <trkpt lat="44.15588" lon="5.02662">
        <ele>568.6</ele>
        <time>2020-09-08T11:10:28Z</time>
      </trkpt>
      <trkpt lat="44.15588" lon="5.02662">
        <ele>568.7</ele>
        <time>2020-09-08T11:10:29Z</time>
      </trkpt>
      <trkpt lat="44.15588" lon="5.02663">
        <ele>568.7</ele>
        <time>2020-09-08T11:10:30Z</time>
      </trkpt>
      <trkpt lat="44.15588" lon="5.02662">
        <ele>568.8</ele>
        <time>2020-09-08T11:10:31Z</time>
      </trkpt>
      <trkpt lat="44.15588" lon="5.02662">
        <ele>568.8</ele>
        <time>2020-09-08T11:10:32Z</time>
      </trkpt>
      <trkpt lat="44.15588" lon="5.02662">
        <ele>568.9</ele>
        <time>2020-09-08T11:10:33Z</time>
      </trkpt>
      <trkpt lat="44.15588" lon="5.02663">
        <ele>568.9</ele>
        <time>2020-09-08T11:10:34Z</time>
      </trkpt>
      <trkpt lat="44.15588" lon="5.02664">
        <ele>569</ele>
        <time>2020-09-08T11:10:35Z</time>
      </trkpt>
      <trkpt lat="44.15588" lon="5.02665">
        <ele>569.1</ele>
        <time>2020-09-08T11:10:36Z</time>
      </trkpt>
      <trkpt lat="44.15587" lon="5.02665">
        <ele>569.2</ele>
        <time>2020-09-08T11:10:37Z</time>
      </trkpt>
      <trkpt lat="44.15587" lon="5.02665">
        <ele>569.2</ele>
        <time>2020-09-08T11:10:38Z</time>
      </trkpt>
      <trkpt lat="44.15586" lon="5.02665">
        <ele>569.3</ele>
        <time>2020-09-08T11:10:39Z</time>
      </trkpt>
      <trkpt lat="44.15586" lon="5.02666">
        <ele>569.3</ele>
        <time>2020-09-08T11:10:40Z</time>
      </trkpt>
      <trkpt lat="44.15585" lon="5.0267">
        <ele>569.6</ele>
        <time>2020-09-08T11:10:41Z</time>
      </trkpt>
      <trkpt lat="44.15584" lon="5.02671">
        <ele>569.8</ele>
        <time>2020-09-08T11:10:42Z</time>
      </trkpt>
      <trkpt lat="44.15584" lon="5.02671">
        <ele>569.6</ele>
        <time>2020-09-08T11:10:43Z</time>
      </trkpt>
      <trkpt lat="44.15585" lon="5.02672">
        <ele>569.4</ele>
        <time>2020-09-08T11:10:44Z</time>
      </trkpt>
      <trkpt lat="44.15585" lon="5.02673">
        <ele>569.2</ele>
        <time>2020-09-08T11:10:45Z</time>
      </trkpt>
      <trkpt lat="44.15585" lon="5.02674">
        <ele>569</ele>
        <time>2020-09-08T11:10:46Z</time>
      </trkpt>
      <trkpt lat="44.15586" lon="5.02674">
        <ele>568.7</ele>
        <time>2020-09-08T11:10:47Z</time>
      </trkpt>
      <trkpt lat="44.15587" lon="5.02674">
        <ele>568.5</ele>
        <time>2020-09-08T11:10:48Z</time>
      </trkpt>
      <trkpt lat="44.15587" lon="5.02675">
        <ele>568.4</ele>
        <time>2020-09-08T11:10:49Z</time>
      </trkpt>
      <trkpt lat="44.15588" lon="5.02675">
        <ele>568.2</ele>
        <time>2020-09-08T11:10:50Z</time>
      </trkpt>
      <trkpt lat="44.15589" lon="5.02674">
        <ele>568</ele>
        <time>2020-09-08T11:10:51Z</time>
      </trkpt>
      <trkpt lat="44.15589" lon="5.02674">
        <ele>567.9</ele>
        <time>2020-09-08T11:10:52Z</time>
      </trkpt>
      <trkpt lat="44.1559" lon="5.02675">
        <ele>567.7</ele>
        <time>2020-09-08T11:10:53Z</time>
      </trkpt>
      <trkpt lat="44.1559" lon="5.02676">
        <ele>567.5</ele>
        <time>2020-09-08T11:10:54Z</time>
      </trkpt>
      <trkpt lat="44.15592" lon="5.02676">
        <ele>567.1</ele>
        <time>2020-09-08T11:10:55Z</time>
      </trkpt>
      <trkpt lat="44.15592" lon="5.02677">
        <ele>567</ele>
        <time>2020-09-08T11:10:56Z</time>
      </trkpt>
      <trkpt lat="44.1559" lon="5.02678">
        <ele>566.6</ele>
        <time>2020-09-08T11:10:57Z</time>
      </trkpt>
      <trkpt lat="44.1559" lon="5.02677">
        <ele>566.6</ele>
        <time>2020-09-08T11:10:58Z</time>
      </trkpt>
      <trkpt lat="44.15591" lon="5.02678">
        <ele>566.4</ele>
        <time>2020-09-08T11:10:59Z</time>
      </trkpt>
      <trkpt lat="44.15591" lon="5.02678">
        <ele>566.4</ele>
        <time>2020-09-08T11:11:00Z</time>
      </trkpt>
      <trkpt lat="44.15591" lon="5.0268">
        <ele>565.9</ele>
        <time>2020-09-08T11:11:01Z</time>
      </trkpt>
      <trkpt lat="44.15592" lon="5.0268">
        <ele>565.8</ele>
        <time>2020-09-08T11:11:02Z</time>
      </trkpt>
      <trkpt lat="44.15593" lon="5.02681">
        <ele>565.5</ele>
        <time>2020-09-08T11:11:03Z</time>
      </trkpt>
      <trkpt lat="44.15593" lon="5.02682">
        <ele>565.3</ele>
        <time>2020-09-08T11:11:04Z</time>
      </trkpt>
      <trkpt lat="44.15593" lon="5.02684">
        <ele>565</ele>
        <time>2020-09-08T11:11:05Z</time>
      </trkpt>
      <trkpt lat="44.15593" lon="5.02684">
        <ele>564.9</ele>
        <time>2020-09-08T11:11:06Z</time>
      </trkpt>
      <trkpt lat="44.15592" lon="5.02684">
        <ele>564.8</ele>
        <time>2020-09-08T11:11:07Z</time>
      </trkpt>
      <trkpt lat="44.15591" lon="5.02684">
        <ele>564.5</ele>
        <time>2020-09-08T11:11:08Z</time>
      </trkpt>
      <trkpt lat="44.1559" lon="5.02685">
        <ele>564.2</ele>
        <time>2020-09-08T11:11:09Z</time>
      </trkpt>
      <trkpt lat="44.15589" lon="5.02686">
        <ele>563.9</ele>
        <time>2020-09-08T11:11:10Z</time>
      </trkpt>
      <trkpt lat="44.15589" lon="5.02686">
        <ele>563.8</ele>
        <time>2020-09-08T11:11:11Z</time>
      </trkpt>
      <trkpt lat="44.15588" lon="5.02687">
        <ele>563.5</ele>
        <time>2020-09-08T11:11:12Z</time>
      </trkpt>
      <trkpt lat="44.15587" lon="5.02688">
        <ele>563.3</ele>
        <time>2020-09-08T11:11:13Z</time>
      </trkpt>
      <trkpt lat="44.15585" lon="5.0269">
        <ele>562.8</ele>
        <time>2020-09-08T11:11:14Z</time>
      </trkpt>
      <trkpt lat="44.15584" lon="5.02692">
        <ele>562.4</ele>
        <time>2020-09-08T11:11:15Z</time>
      </trkpt>
      <trkpt lat="44.15584" lon="5.02692">
        <ele>562.3</ele>
        <time>2020-09-08T11:11:16Z</time>
      </trkpt>
      <trkpt lat="44.15583" lon="5.02693">
        <ele>562.1</ele>
        <time>2020-09-08T11:11:17Z</time>
      </trkpt>
      <trkpt lat="44.15582" lon="5.02692">
        <ele>562</ele>
        <time>2020-09-08T11:11:18Z</time>
      </trkpt>
      <trkpt lat="44.15582" lon="5.02693">
        <ele>561.9</ele>
        <time>2020-09-08T11:11:19Z</time>
      </trkpt>
      <trkpt lat="44.15582" lon="5.02693">
        <ele>561.9</ele>
        <time>2020-09-08T11:11:20Z</time>
      </trkpt>
      <trkpt lat="44.15582" lon="5.02694">
        <ele>561.6</ele>
        <time>2020-09-08T11:11:21Z</time>
      </trkpt>
      <trkpt lat="44.15581" lon="5.02695">
        <ele>561.5</ele>
        <time>2020-09-08T11:11:22Z</time>
      </trkpt>
      <trkpt lat="44.15583" lon="5.02695">
        <ele>561.1</ele>
        <time>2020-09-08T11:11:23Z</time>
      </trkpt>
      <trkpt lat="44.15583" lon="5.02696">
        <ele>561</ele>
        <time>2020-09-08T11:11:24Z</time>
      </trkpt>
      <trkpt lat="44.15583" lon="5.02697">
        <ele>560.8</ele>
        <time>2020-09-08T11:11:25Z</time>
      </trkpt>
      <trkpt lat="44.15581" lon="5.02698">
        <ele>560.3</ele>
        <time>2020-09-08T11:11:26Z</time>
      </trkpt>
      <trkpt lat="44.1558" lon="5.02699">
        <ele>560</ele>
        <time>2020-09-08T11:11:27Z</time>
      </trkpt>
      <trkpt lat="44.15579" lon="5.027">
        <ele>559.7</ele>
        <time>2020-09-08T11:11:28Z</time>
      </trkpt>
      <trkpt lat="44.15579" lon="5.02701">
        <ele>559.5</ele>
        <time>2020-09-08T11:11:29Z</time>
      </trkpt>
      <trkpt lat="44.1558" lon="5.02702">
        <ele>559.5</ele>
        <time>2020-09-08T11:11:30Z</time>
      </trkpt>
      <trkpt lat="44.1558" lon="5.02702">
        <ele>559.4</ele>
        <time>2020-09-08T11:11:31Z</time>
      </trkpt>
      <trkpt lat="44.1558" lon="5.02701">
        <ele>559.2</ele>
        <time>2020-09-08T11:11:32Z</time>
      </trkpt>
      <trkpt lat="44.15581" lon="5.02701">
        <ele>559</ele>
        <time>2020-09-08T11:11:33Z</time>
      </trkpt>
      <trkpt lat="44.15581" lon="5.02702">
        <ele>558.8</ele>
        <time>2020-09-08T11:11:34Z</time>
      </trkpt>
      <trkpt lat="44.15582" lon="5.02702">
        <ele>558.7</ele>
        <time>2020-09-08T11:11:35Z</time>
      </trkpt>
      <trkpt lat="44.15582" lon="5.02702">
        <ele>558.6</ele>
        <time>2020-09-08T11:11:36Z</time>
      </trkpt>
      <trkpt lat="44.15582" lon="5.02704">
        <ele>558.3</ele>
        <time>2020-09-08T11:11:37Z</time>
      </trkpt>
      <trkpt lat="44.15581" lon="5.02705">
        <ele>558.2</ele>
        <time>2020-09-08T11:11:38Z</time>
      </trkpt>
      <trkpt lat="44.15581" lon="5.02706">
        <ele>558</ele>
        <time>2020-09-08T11:11:39Z</time>
      </trkpt>
      <trkpt lat="44.15581" lon="5.02706">
        <ele>557.9</ele>
        <time>2020-09-08T11:11:40Z</time>
      </trkpt>
      <trkpt lat="44.15581" lon="5.02707">
        <ele>557.7</ele>
        <time>2020-09-08T11:11:41Z</time>
      </trkpt>
      <trkpt lat="44.15581" lon="5.02708">
        <ele>557.6</ele>
        <time>2020-09-08T11:11:42Z</time>
      </trkpt>
      <trkpt lat="44.15581" lon="5.02709">
        <ele>557.5</ele>
        <time>2020-09-08T11:11:43Z</time>
      </trkpt>
      <trkpt lat="44.1558" lon="5.02708">
        <ele>557.3</ele>
        <time>2020-09-08T11:11:44Z</time>
      </trkpt>
      <trkpt lat="44.1558" lon="5.02709">
        <ele>557.2</ele>
        <time>2020-09-08T11:11:45Z</time>
      </trkpt>
      <trkpt lat="44.1558" lon="5.0271">
        <ele>557.1</ele>
        <time>2020-09-08T11:11:46Z</time>
      </trkpt>
      <trkpt lat="44.15581" lon="5.0271">
        <ele>557</ele>
        <time>2020-09-08T11:11:47Z</time>
      </trkpt>
      <trkpt lat="44.15581" lon="5.02711">
        <ele>556.9</ele>
        <time>2020-09-08T11:11:48Z</time>
      </trkpt>
      <trkpt lat="44.15581" lon="5.02712">
        <ele>556.7</ele>
        <time>2020-09-08T11:11:49Z</time>
      </trkpt>
      <trkpt lat="44.15581" lon="5.02713">
        <ele>556.6</ele>
        <time>2020-09-08T11:11:50Z</time>
      </trkpt>
      <trkpt lat="44.15582" lon="5.02713">
        <ele>556.5</ele>
        <time>2020-09-08T11:11:51Z</time>
      </trkpt>
      <trkpt lat="44.15582" lon="5.02714">
        <ele>556.4</ele>
        <time>2020-09-08T11:11:52Z</time>
      </trkpt>
      <trkpt lat="44.15582" lon="5.02715">
        <ele>556.3</ele>
        <time>2020-09-08T11:11:53Z</time>
      </trkpt>
      <trkpt lat="44.15582" lon="5.02715">
        <ele>556.2</ele>
        <time>2020-09-08T11:11:54Z</time>
      </trkpt>
      <trkpt lat="44.15582" lon="5.02716">
        <ele>556.1</ele>
        <time>2020-09-08T11:11:55Z</time>
      </trkpt>
      <trkpt lat="44.15582" lon="5.02716">
        <ele>555.9</ele>
        <time>2020-09-08T11:11:56Z</time>
      </trkpt>
      <trkpt lat="44.15581" lon="5.02719">
        <ele>555.5</ele>
        <time>2020-09-08T11:11:57Z</time>
      </trkpt>
      <trkpt lat="44.1558" lon="5.0272">
        <ele>555.3</ele>
        <time>2020-09-08T11:11:58Z</time>
      </trkpt>
      <trkpt lat="44.15581" lon="5.0272">
        <ele>555.1</ele>
        <time>2020-09-08T11:11:59Z</time>
      </trkpt>
      <trkpt lat="44.15581" lon="5.02718">
        <ele>554.9</ele>
        <time>2020-09-08T11:12:00Z</time>
      </trkpt>
      <trkpt lat="44.15581" lon="5.02718">
        <ele>554.9</ele>
        <time>2020-09-08T11:12:01Z</time>
      </trkpt>
      <trkpt lat="44.15581" lon="5.02718">
        <ele>554.8</ele>
        <time>2020-09-08T11:12:02Z</time>
      </trkpt>
      <trkpt lat="44.15581" lon="5.02718">
        <ele>554.7</ele>
        <time>2020-09-08T11:12:03Z</time>
      </trkpt>
      <trkpt lat="44.15582" lon="5.02718">
        <ele>554.5</ele>
        <time>2020-09-08T11:12:04Z</time>
      </trkpt>
      <trkpt lat="44.15581" lon="5.02719">
        <ele>554.4</ele>
        <time>2020-09-08T11:12:05Z</time>
      </trkpt>
      <trkpt lat="44.15581" lon="5.02718">
        <ele>554.3</ele>
        <time>2020-09-08T11:12:06Z</time>
      </trkpt>
      <trkpt lat="44.15582" lon="5.02719">
        <ele>554.2</ele>
        <time>2020-09-08T11:12:07Z</time>
      </trkpt>
      <trkpt lat="44.15581" lon="5.0272">
        <ele>554</ele>
        <time>2020-09-08T11:12:08Z</time>
      </trkpt>
      <trkpt lat="44.15582" lon="5.0272">
        <ele>553.9</ele>
        <time>2020-09-08T11:12:09Z</time>
      </trkpt>
      <trkpt lat="44.15582" lon="5.02721">
        <ele>553.7</ele>
        <time>2020-09-08T11:12:10Z</time>
      </trkpt>
      <trkpt lat="44.15583" lon="5.02722">
        <ele>553.5</ele>
        <time>2020-09-08T11:12:11Z</time>
      </trkpt>
      <trkpt lat="44.15582" lon="5.02724">
        <ele>553.2</ele>
        <time>2020-09-08T11:12:12Z</time>
      </trkpt>
      <trkpt lat="44.15581" lon="5.02725">
        <ele>553</ele>
        <time>2020-09-08T11:12:13Z</time>
      </trkpt>
      <trkpt lat="44.15581" lon="5.02726">
        <ele>552.9</ele>
        <time>2020-09-08T11:12:14Z</time>
      </trkpt>
      <trkpt lat="44.1558" lon="5.02727">
        <ele>552.7</ele>
        <time>2020-09-08T11:12:15Z</time>
      </trkpt>
      <trkpt lat="44.1558" lon="5.02728">
        <ele>552.6</ele>
        <time>2020-09-08T11:12:16Z</time>
      </trkpt>
      <trkpt lat="44.1558" lon="5.02729">
        <ele>552.5</ele>
        <time>2020-09-08T11:12:17Z</time>
      </trkpt>
      <trkpt lat="44.1558" lon="5.02729">
        <ele>552.4</ele>
        <time>2020-09-08T11:12:18Z</time>
      </trkpt>
      <trkpt lat="44.1558" lon="5.0273">
        <ele>552.3</ele>
        <time>2020-09-08T11:12:19Z</time>
      </trkpt>
      <trkpt lat="44.15581" lon="5.0273">
        <ele>552.1</ele>
        <time>2020-09-08T11:12:20Z</time>
      </trkpt>
      <trkpt lat="44.15581" lon="5.02731">
        <ele>552</ele>
        <time>2020-09-08T11:12:21Z</time>
      </trkpt>
      <trkpt lat="44.15582" lon="5.02731">
        <ele>551.9</ele>
        <time>2020-09-08T11:12:22Z</time>
      </trkpt>
      <trkpt lat="44.15582" lon="5.02732">
        <ele>551.8</ele>
        <time>2020-09-08T11:12:23Z</time>
      </trkpt>
      <trkpt lat="44.15582" lon="5.02732">
        <ele>551.7</ele>
        <time>2020-09-08T11:12:24Z</time>
      </trkpt>
      <trkpt lat="44.15583" lon="5.02732">
        <ele>551.6</ele>
        <time>2020-09-08T11:12:25Z</time>
      </trkpt>
      <trkpt lat="44.15583" lon="5.02733">
        <ele>551.5</ele>
        <time>2020-09-08T11:12:26Z</time>
      </trkpt>
      <trkpt lat="44.15583" lon="5.02734">
        <ele>551.3</ele>
        <time>2020-09-08T11:12:27Z</time>
      </trkpt>
      <trkpt lat="44.15582" lon="5.02735">
        <ele>551.2</ele>
        <time>2020-09-08T11:12:28Z</time>
      </trkpt>
      <trkpt lat="44.15582" lon="5.02734">
        <ele>551.1</ele>
        <time>2020-09-08T11:12:29Z</time>
      </trkpt>
      <trkpt lat="44.15582" lon="5.02734">
        <ele>551</ele>
        <time>2020-09-08T11:12:30Z</time>
      </trkpt>
      <trkpt lat="44.15582" lon="5.02734">
        <ele>550.9</ele>
        <time>2020-09-08T11:12:31Z</time>
      </trkpt>
      <trkpt lat="44.15582" lon="5.02734">
        <ele>550.9</ele>
        <time>2020-09-08T11:12:32Z</time>
      </trkpt>
      <trkpt lat="44.15583" lon="5.02734">
        <ele>550.8</ele>
        <time>2020-09-08T11:12:33Z</time>
      </trkpt>
      <trkpt lat="44.15583" lon="5.02734">
        <ele>550.7</ele>
        <time>2020-09-08T11:12:34Z</time>
      </trkpt>
      <trkpt lat="44.15583" lon="5.02735">
        <ele>550.7</ele>
        <time>2020-09-08T11:12:35Z</time>
      </trkpt>
      <trkpt lat="44.15583" lon="5.02735">
        <ele>550.6</ele>
        <time>2020-09-08T11:12:36Z</time>
      </trkpt>
      <trkpt lat="44.15583" lon="5.02736">
        <ele>550.5</ele>
        <time>2020-09-08T11:12:37Z</time>
      </trkpt>
      <trkpt lat="44.15584" lon="5.02736">
        <ele>550.4</ele>
        <time>2020-09-08T11:12:38Z</time>
      </trkpt>
      <trkpt lat="44.15585" lon="5.02736">
        <ele>550.3</ele>
        <time>2020-09-08T11:12:39Z</time>
      </trkpt>
      <trkpt lat="44.15585" lon="5.02736">
        <ele>550.2</ele>
        <time>2020-09-08T11:12:40Z</time>
      </trkpt>
      <trkpt lat="44.15585" lon="5.02737">
        <ele>550.1</ele>
        <time>2020-09-08T11:12:41Z</time>
      </trkpt>
      <trkpt lat="44.15585" lon="5.02738">
        <ele>550</ele>
        <time>2020-09-08T11:12:42Z</time>
      </trkpt>
      <trkpt lat="44.15585" lon="5.02739">
        <ele>544.3</ele>
        <time>2020-09-08T11:12:43Z</time>
      </trkpt>
      <trkpt lat="44.15585" lon="5.02742">
        <ele>544</ele>
        <time>2020-09-08T11:12:44Z</time>
      </trkpt>
      <trkpt lat="44.15585" lon="5.02743">
        <ele>543.9</ele>
        <time>2020-09-08T11:12:45Z</time>
      </trkpt>
      <trkpt lat="44.15585" lon="5.02744">
        <ele>543.8</ele>
        <time>2020-09-08T11:12:46Z</time>
      </trkpt>
      <trkpt lat="44.15586" lon="5.02746">
        <ele>543.5</ele>
        <time>2020-09-08T11:12:47Z</time>
      </trkpt>
      <trkpt lat="44.15586" lon="5.02746">
        <ele>543.5</ele>
        <time>2020-09-08T11:12:48Z</time>
      </trkpt>
      <trkpt lat="44.15586" lon="5.02746">
        <ele>543.5</ele>
        <time>2020-09-08T11:12:49Z</time>
      </trkpt>
      <trkpt lat="44.15586" lon="5.02745">
        <ele>543.4</ele>
        <time>2020-09-08T11:12:50Z</time>
      </trkpt>
      <trkpt lat="44.15587" lon="5.02746">
        <ele>543.2</ele>
        <time>2020-09-08T11:12:51Z</time>
      </trkpt>
      <trkpt lat="44.15587" lon="5.02745">
        <ele>543.2</ele>
        <time>2020-09-08T11:12:52Z</time>
      </trkpt>
      <trkpt lat="44.15588" lon="5.02746">
        <ele>543.1</ele>
        <time>2020-09-08T11:12:53Z</time>
      </trkpt>
      <trkpt lat="44.15588" lon="5.02747">
        <ele>543</ele>
        <time>2020-09-08T11:12:54Z</time>
      </trkpt>
      <trkpt lat="44.15589" lon="5.02748">
        <ele>542.9</ele>
        <time>2020-09-08T11:12:55Z</time>
      </trkpt>
      <trkpt lat="44.15589" lon="5.02748">
        <ele>542.8</ele>
        <time>2020-09-08T11:12:56Z</time>
      </trkpt>
      <trkpt lat="44.15589" lon="5.02748">
        <ele>542.8</ele>
        <time>2020-09-08T11:12:57Z</time>
      </trkpt>
      <trkpt lat="44.1559" lon="5.02748">
        <ele>542.7</ele>
        <time>2020-09-08T11:12:58Z</time>
      </trkpt>
      <trkpt lat="44.1559" lon="5.02748">
        <ele>542.7</ele>
        <time>2020-09-08T11:12:59Z</time>
      </trkpt>
      <trkpt lat="44.1559" lon="5.02748">
        <ele>542.6</ele>
        <time>2020-09-08T11:13:00Z</time>
      </trkpt>
      <trkpt lat="44.15591" lon="5.02749">
        <ele>542.6</ele>
        <time>2020-09-08T11:13:01Z</time>
      </trkpt>
      <trkpt lat="44.15591" lon="5.02749">
        <ele>542.5</ele>
        <time>2020-09-08T11:13:02Z</time>
      </trkpt>
      <trkpt lat="44.15591" lon="5.02749">
        <ele>542.5</ele>
        <time>2020-09-08T11:13:03Z</time>
      </trkpt>
      <trkpt lat="44.15591" lon="5.0275">
        <ele>542.4</ele>
        <time>2020-09-08T11:13:04Z</time>
      </trkpt>
      <trkpt lat="44.15591" lon="5.0275">
        <ele>542.3</ele>
        <time>2020-09-08T11:13:05Z</time>
      </trkpt>
      <trkpt lat="44.15592" lon="5.02751">
        <ele>542.2</ele>
        <time>2020-09-08T11:13:06Z</time>
      </trkpt>
      <trkpt lat="44.15594" lon="5.02751">
        <ele>541.9</ele>
        <time>2020-09-08T11:13:07Z</time>
      </trkpt>
      <trkpt lat="44.15594" lon="5.02751">
        <ele>541.8</ele>
        <time>2020-09-08T11:13:08Z</time>
      </trkpt>
      <trkpt lat="44.15594" lon="5.02752">
        <ele>541.7</ele>
        <time>2020-09-08T11:13:09Z</time>
      </trkpt>
      <trkpt lat="44.15594" lon="5.02752">
        <ele>541.7</ele>
        <time>2020-09-08T11:13:10Z</time>
      </trkpt>
      <trkpt lat="44.15594" lon="5.02752">
        <ele>541.5</ele>
        <time>2020-09-08T11:13:11Z</time>
      </trkpt>
      <trkpt lat="44.15595" lon="5.02755">
        <ele>541.3</ele>
        <time>2020-09-08T11:13:12Z</time>
      </trkpt>
      <trkpt lat="44.15596" lon="5.02756">
        <ele>541.1</ele>
        <time>2020-09-08T11:13:13Z</time>
      </trkpt>
      <trkpt lat="44.15596" lon="5.02756">
        <ele>541</ele>
        <time>2020-09-08T11:13:14Z</time>
      </trkpt>
      <trkpt lat="44.15593" lon="5.02754">
        <ele>540.6</ele>
        <time>2020-09-08T11:13:15Z</time>
      </trkpt>
      <trkpt lat="44.15593" lon="5.02754">
        <ele>540.5</ele>
        <time>2020-09-08T11:13:16Z</time>
      </trkpt>
      <trkpt lat="44.15592" lon="5.02753">
        <ele>540.3</ele>
        <time>2020-09-08T11:13:17Z</time>
      </trkpt>
      <trkpt lat="44.15595" lon="5.0275">
        <ele>539.8</ele>
        <time>2020-09-08T11:13:18Z</time>
      </trkpt>
      <trkpt lat="44.15596" lon="5.0275">
        <ele>539.6</ele>
        <time>2020-09-08T11:13:19Z</time>
      </trkpt>
      <trkpt lat="44.15596" lon="5.0275">
        <ele>539.6</ele>
        <time>2020-09-08T11:13:20Z</time>
      </trkpt>
      <trkpt lat="44.15595" lon="5.0275">
        <ele>539.4</ele>
        <time>2020-09-08T11:13:21Z</time>
      </trkpt>
      <trkpt lat="44.15595" lon="5.0275">
        <ele>539.3</ele>
        <time>2020-09-08T11:13:22Z</time>
      </trkpt>
      <trkpt lat="44.15595" lon="5.0275">
        <ele>539.3</ele>
        <time>2020-09-08T11:13:23Z</time>
      </trkpt>
      <trkpt lat="44.15595" lon="5.0275">
        <ele>539.2</ele>
        <time>2020-09-08T11:13:24Z</time>
      </trkpt>
      <trkpt lat="44.15595" lon="5.02749">
        <ele>539.1</ele>
        <time>2020-09-08T11:13:25Z</time>
      </trkpt>
      <trkpt lat="44.15596" lon="5.02748">
        <ele>539</ele>
        <time>2020-09-08T11:13:26Z</time>
      </trkpt>
      <trkpt lat="44.15596" lon="5.02747">
        <ele>538.9</ele>
        <time>2020-09-08T11:13:27Z</time>
      </trkpt>
      <trkpt lat="44.15597" lon="5.0275">
        <ele>538.6</ele>
        <time>2020-09-08T11:13:28Z</time>
      </trkpt>
      <trkpt lat="44.15597" lon="5.02752">
        <ele>538.4</ele>
        <time>2020-09-08T11:13:29Z</time>
      </trkpt>
      <trkpt lat="44.15597" lon="5.02753">
        <ele>538.2</ele>
        <time>2020-09-08T11:13:30Z</time>
      </trkpt>
      <trkpt lat="44.15597" lon="5.02754">
        <ele>538.1</ele>
        <time>2020-09-08T11:13:31Z</time>
      </trkpt>
      <trkpt lat="44.15597" lon="5.02755">
        <ele>538</ele>
        <time>2020-09-08T11:13:32Z</time>
      </trkpt>
      <trkpt lat="44.15597" lon="5.02755">
        <ele>537.9</ele>
        <time>2020-09-08T11:13:33Z</time>
      </trkpt>
      <trkpt lat="44.15597" lon="5.02756">
        <ele>537.9</ele>
        <time>2020-09-08T11:13:34Z</time>
      </trkpt>
      <trkpt lat="44.15597" lon="5.02755">
        <ele>537.9</ele>
        <time>2020-09-08T11:13:35Z</time>
      </trkpt>
      <trkpt lat="44.15598" lon="5.02756">
        <ele>537.7</ele>
        <time>2020-09-08T11:13:36Z</time>
      </trkpt>
      <trkpt lat="44.15598" lon="5.02757">
        <ele>537.6</ele>
        <time>2020-09-08T11:13:37Z</time>
      </trkpt>
      <trkpt lat="44.15598" lon="5.02758">
        <ele>537.4</ele>
        <time>2020-09-08T11:13:38Z</time>
      </trkpt>
      <trkpt lat="44.15598" lon="5.02759">
        <ele>537.3</ele>
        <time>2020-09-08T11:13:39Z</time>
      </trkpt>
      <trkpt lat="44.15598" lon="5.0276">
        <ele>537.2</ele>
        <time>2020-09-08T11:13:40Z</time>
      </trkpt>
      <trkpt lat="44.15598" lon="5.0276">
        <ele>537.2</ele>
        <time>2020-09-08T11:13:41Z</time>
      </trkpt>
      <trkpt lat="44.15598" lon="5.02761">
        <ele>537.1</ele>
        <time>2020-09-08T11:13:42Z</time>
      </trkpt>
      <trkpt lat="44.15598" lon="5.02762">
        <ele>537</ele>
        <time>2020-09-08T11:13:43Z</time>
      </trkpt>
      <trkpt lat="44.15598" lon="5.02762">
        <ele>536.9</ele>
        <time>2020-09-08T11:13:44Z</time>
      </trkpt>
      <trkpt lat="44.15597" lon="5.02763">
        <ele>536.8</ele>
        <time>2020-09-08T11:13:45Z</time>
      </trkpt>
      <trkpt lat="44.15597" lon="5.02763">
        <ele>536.8</ele>
        <time>2020-09-08T11:13:46Z</time>
      </trkpt>
      <trkpt lat="44.15598" lon="5.02764">
        <ele>536.6</ele>
        <time>2020-09-08T11:13:47Z</time>
      </trkpt>
      <trkpt lat="44.15599" lon="5.02764">
        <ele>536.5</ele>
        <time>2020-09-08T11:13:48Z</time>
      </trkpt>
      <trkpt lat="44.15598" lon="5.02764">
        <ele>536.4</ele>
        <time>2020-09-08T11:13:49Z</time>
      </trkpt>
      <trkpt lat="44.15598" lon="5.02766">
        <ele>536.2</ele>
        <time>2020-09-08T11:13:50Z</time>
      </trkpt>
      <trkpt lat="44.15598" lon="5.02766">
        <ele>536.2</ele>
        <time>2020-09-08T11:13:51Z</time>
      </trkpt>
      <trkpt lat="44.15598" lon="5.02768">
        <ele>535.9</ele>
        <time>2020-09-08T11:13:52Z</time>
      </trkpt>
      <trkpt lat="44.15598" lon="5.02771">
        <ele>535.7</ele>
        <time>2020-09-08T11:13:53Z</time>
      </trkpt>
      <trkpt lat="44.15597" lon="5.02772">
        <ele>535.5</ele>
        <time>2020-09-08T11:13:54Z</time>
      </trkpt>
      <trkpt lat="44.15597" lon="5.02772">
        <ele>535.4</ele>
        <time>2020-09-08T11:13:55Z</time>
      </trkpt>
      <trkpt lat="44.15597" lon="5.02772">
        <ele>535.3</ele>
        <time>2020-09-08T11:13:56Z</time>
      </trkpt>
      <trkpt lat="44.15597" lon="5.02774">
        <ele>535.2</ele>
        <time>2020-09-08T11:13:57Z</time>
      </trkpt>
      <trkpt lat="44.15597" lon="5.02775">
        <ele>535</ele>
        <time>2020-09-08T11:13:58Z</time>
      </trkpt>
      <trkpt lat="44.15597" lon="5.02776">
        <ele>534.9</ele>
        <time>2020-09-08T11:13:59Z</time>
      </trkpt>
      <trkpt lat="44.15597" lon="5.02776">
        <ele>534.8</ele>
        <time>2020-09-08T11:14:00Z</time>
      </trkpt>
      <trkpt lat="44.15598" lon="5.02775">
        <ele>534.7</ele>
        <time>2020-09-08T11:14:01Z</time>
      </trkpt>
      <trkpt lat="44.15598" lon="5.02775">
        <ele>534.7</ele>
        <time>2020-09-08T11:14:02Z</time>
      </trkpt>
      <trkpt lat="44.15599" lon="5.02775">
        <ele>534.6</ele>
        <time>2020-09-08T11:14:03Z</time>
      </trkpt>
      <trkpt lat="44.15599" lon="5.02775">
        <ele>534.5</ele>
        <time>2020-09-08T11:14:04Z</time>
      </trkpt>
      <trkpt lat="44.156" lon="5.02775">
        <ele>534.5</ele>
        <time>2020-09-08T11:14:05Z</time>
      </trkpt>
      <trkpt lat="44.156" lon="5.02774">
        <ele>534.4</ele>
        <time>2020-09-08T11:14:06Z</time>
      </trkpt>
      <trkpt lat="44.15601" lon="5.02774">
        <ele>534.3</ele>
        <time>2020-09-08T11:14:07Z</time>
      </trkpt>
      <trkpt lat="44.15601" lon="5.02774">
        <ele>534.2</ele>
        <time>2020-09-08T11:14:08Z</time>
      </trkpt>
      <trkpt lat="44.15601" lon="5.02774">
        <ele>531.4</ele>
        <time>2020-09-08T11:14:09Z</time>
      </trkpt>
      <trkpt lat="44.15601" lon="5.02773">
        <ele>531.3</ele>
        <time>2020-09-08T11:14:10Z</time>
      </trkpt>
      <trkpt lat="44.15601" lon="5.02773">
        <ele>531.2</ele>
        <time>2020-09-08T11:14:11Z</time>
      </trkpt>
      <trkpt lat="44.15602" lon="5.02773">
        <ele>530.9</ele>
        <time>2020-09-08T11:14:12Z</time>
      </trkpt>
      <trkpt lat="44.15602" lon="5.02774">
        <ele>530.7</ele>
        <time>2020-09-08T11:14:13Z</time>
      </trkpt>
      <trkpt lat="44.15602" lon="5.02773">
        <ele>530.5</ele>
        <time>2020-09-08T11:14:14Z</time>
      </trkpt>
      <trkpt lat="44.15602" lon="5.02773">
        <ele>530.4</ele>
        <time>2020-09-08T11:14:15Z</time>
      </trkpt>
      <trkpt lat="44.15601" lon="5.02772">
        <ele>530.2</ele>
        <time>2020-09-08T11:14:16Z</time>
      </trkpt>
      <trkpt lat="44.15601" lon="5.02771">
        <ele>530</ele>
        <time>2020-09-08T11:14:17Z</time>
      </trkpt>
      <trkpt lat="44.15602" lon="5.0277">
        <ele>529.7</ele>
        <time>2020-09-08T11:14:18Z</time>
      </trkpt>
      <trkpt lat="44.15603" lon="5.02769">
        <ele>529.4</ele>
        <time>2020-09-08T11:14:19Z</time>
      </trkpt>
      <trkpt lat="44.15604" lon="5.02769">
        <ele>529.2</ele>
        <time>2020-09-08T11:14:20Z</time>
      </trkpt>
      <trkpt lat="44.15605" lon="5.02768">
        <ele>528.9</ele>
        <time>2020-09-08T11:14:21Z</time>
      </trkpt>
      <trkpt lat="44.15606" lon="5.02767">
        <ele>528.7</ele>
        <time>2020-09-08T11:14:22Z</time>
      </trkpt>
      <trkpt lat="44.15606" lon="5.02766">
        <ele>528.5</ele>
        <time>2020-09-08T11:14:23Z</time>
      </trkpt>
      <trkpt lat="44.15607" lon="5.02764">
        <ele>528.1</ele>
        <time>2020-09-08T11:14:24Z</time>
      </trkpt>
      <trkpt lat="44.15607" lon="5.02763">
        <ele>527.9</ele>
        <time>2020-09-08T11:14:25Z</time>
      </trkpt>
      <trkpt lat="44.15607" lon="5.02761">
        <ele>527.6</ele>
        <time>2020-09-08T11:14:26Z</time>
      </trkpt>
      <trkpt lat="44.15607" lon="5.0276">
        <ele>527.5</ele>
        <time>2020-09-08T11:14:27Z</time>
      </trkpt>
      <trkpt lat="44.15607" lon="5.0276">
        <ele>527.4</ele>
        <time>2020-09-08T11:14:28Z</time>
      </trkpt>
      <trkpt lat="44.15607" lon="5.02759">
        <ele>527.3</ele>
        <time>2020-09-08T11:14:29Z</time>
      </trkpt>
      <trkpt lat="44.15607" lon="5.02759">
        <ele>527.1</ele>
        <time>2020-09-08T11:14:30Z</time>
      </trkpt>
      <trkpt lat="44.15607" lon="5.02758">
        <ele>527</ele>
        <time>2020-09-08T11:14:31Z</time>
      </trkpt>
      <trkpt lat="44.15607" lon="5.02757">
        <ele>526.7</ele>
        <time>2020-09-08T11:14:32Z</time>
      </trkpt>
      <trkpt lat="44.15607" lon="5.02756">
        <ele>526.6</ele>
        <time>2020-09-08T11:14:33Z</time>
      </trkpt>
      <trkpt lat="44.15608" lon="5.02754">
        <ele>526.3</ele>
        <time>2020-09-08T11:14:34Z</time>
      </trkpt>
      <trkpt lat="44.15608" lon="5.02753">
        <ele>526</ele>
        <time>2020-09-08T11:14:35Z</time>
      </trkpt>
      <trkpt lat="44.15609" lon="5.02751">
        <ele>525.8</ele>
        <time>2020-09-08T11:14:36Z</time>
      </trkpt>
      <trkpt lat="44.15609" lon="5.0275">
        <ele>525.6</ele>
        <time>2020-09-08T11:14:37Z</time>
      </trkpt>
      <trkpt lat="44.15609" lon="5.02749">
        <ele>525.3</ele>
        <time>2020-09-08T11:14:38Z</time>
      </trkpt>
      <trkpt lat="44.15609" lon="5.02747">
        <ele>525.1</ele>
        <time>2020-09-08T11:14:39Z</time>
      </trkpt>
      <trkpt lat="44.15609" lon="5.02747">
        <ele>524.9</ele>
        <time>2020-09-08T11:14:40Z</time>
      </trkpt>
      <trkpt lat="44.15608" lon="5.02746">
        <ele>524.7</ele>
        <time>2020-09-08T11:14:41Z</time>
      </trkpt>
      <trkpt lat="44.15609" lon="5.02744">
        <ele>524.4</ele>
        <time>2020-09-08T11:14:42Z</time>
      </trkpt>
      <trkpt lat="44.15609" lon="5.02743">
        <ele>524.1</ele>
        <time>2020-09-08T11:14:43Z</time>
      </trkpt>
      <trkpt lat="44.1561" lon="5.02742">
        <ele>523.8</ele>
        <time>2020-09-08T11:14:44Z</time>
      </trkpt>
      <trkpt lat="44.1561" lon="5.02741">
        <ele>523.7</ele>
        <time>2020-09-08T11:14:45Z</time>
      </trkpt>
      <trkpt lat="44.15611" lon="5.02741">
        <ele>523.5</ele>
        <time>2020-09-08T11:14:46Z</time>
      </trkpt>
      <trkpt lat="44.15611" lon="5.0274">
        <ele>523.3</ele>
        <time>2020-09-08T11:14:47Z</time>
      </trkpt>
      <trkpt lat="44.15611" lon="5.02739">
        <ele>523.2</ele>
        <time>2020-09-08T11:14:48Z</time>
      </trkpt>
      <trkpt lat="44.15611" lon="5.02739">
        <ele>523.1</ele>
        <time>2020-09-08T11:14:49Z</time>
      </trkpt>
      <trkpt lat="44.15611" lon="5.02738">
        <ele>523</ele>
        <time>2020-09-08T11:14:50Z</time>
      </trkpt>
      <trkpt lat="44.15611" lon="5.02737">
        <ele>522.9</ele>
        <time>2020-09-08T11:14:51Z</time>
      </trkpt>
      <trkpt lat="44.15612" lon="5.02737">
        <ele>522.6</ele>
        <time>2020-09-08T11:14:53Z</time>
      </trkpt>
      <trkpt lat="44.15612" lon="5.02738">
        <ele>522.5</ele>
        <time>2020-09-08T11:14:54Z</time>
      </trkpt>
      <trkpt lat="44.15614" lon="5.02737">
        <ele>522.1</ele>
        <time>2020-09-08T11:14:55Z</time>
      </trkpt>
      <trkpt lat="44.15614" lon="5.02737">
        <ele>522</ele>
        <time>2020-09-08T11:14:56Z</time>
      </trkpt>
      <trkpt lat="44.15614" lon="5.02736">
        <ele>521.9</ele>
        <time>2020-09-08T11:14:58Z</time>
      </trkpt>
      <trkpt lat="44.15614" lon="5.02736">
        <ele>521.8</ele>
        <time>2020-09-08T11:14:59Z</time>
      </trkpt>
      <trkpt lat="44.15615" lon="5.02734">
        <ele>521.5</ele>
        <time>2020-09-08T11:15:00Z</time>
      </trkpt>
      <trkpt lat="44.15615" lon="5.02734">
        <ele>521.4</ele>
        <time>2020-09-08T11:15:01Z</time>
      </trkpt>
      <trkpt lat="44.15615" lon="5.02733">
        <ele>521.3</ele>
        <time>2020-09-08T11:15:02Z</time>
      </trkpt>
      <trkpt lat="44.15616" lon="5.02732">
        <ele>521.1</ele>
        <time>2020-09-08T11:15:03Z</time>
      </trkpt>
      <trkpt lat="44.15616" lon="5.02732">
        <ele>520.9</ele>
        <time>2020-09-08T11:15:04Z</time>
      </trkpt>
      <trkpt lat="44.15617" lon="5.02731">
        <ele>520.7</ele>
        <time>2020-09-08T11:15:05Z</time>
      </trkpt>
      <trkpt lat="44.15619" lon="5.02729">
        <ele>520.3</ele>
        <time>2020-09-08T11:15:06Z</time>
      </trkpt>
      <trkpt lat="44.15619" lon="5.02728">
        <ele>520.1</ele>
        <time>2020-09-08T11:15:07Z</time>
      </trkpt>
      <trkpt lat="44.1562" lon="5.02727">
        <ele>519.9</ele>
        <time>2020-09-08T11:15:08Z</time>
      </trkpt>
      <trkpt lat="44.15621" lon="5.02727">
        <ele>519.7</ele>
        <time>2020-09-08T11:15:09Z</time>
      </trkpt>
      <trkpt lat="44.15621" lon="5.02726">
        <ele>519.4</ele>
        <time>2020-09-08T11:15:10Z</time>
      </trkpt>
      <trkpt lat="44.15622" lon="5.02724">
        <ele>519.2</ele>
        <time>2020-09-08T11:15:11Z</time>
      </trkpt>
      <trkpt lat="44.15621" lon="5.02724">
        <ele>519</ele>
        <time>2020-09-08T11:15:12Z</time>
      </trkpt>
      <trkpt lat="44.1562" lon="5.02724">
        <ele>518.8</ele>
        <time>2020-09-08T11:15:13Z</time>
      </trkpt>
      <trkpt lat="44.15619" lon="5.02724">
        <ele>518.6</ele>
        <time>2020-09-08T11:15:14Z</time>
      </trkpt>
      <trkpt lat="44.15619" lon="5.02724">
        <ele>518.5</ele>
        <time>2020-09-08T11:15:15Z</time>
      </trkpt>
      <trkpt lat="44.15619" lon="5.02722">
        <ele>518.2</ele>
        <time>2020-09-08T11:15:16Z</time>
      </trkpt>
      <trkpt lat="44.1562" lon="5.02722">
        <ele>517.9</ele>
        <time>2020-09-08T11:15:17Z</time>
      </trkpt>
      <trkpt lat="44.15621" lon="5.02721">
        <ele>517.7</ele>
        <time>2020-09-08T11:15:18Z</time>
      </trkpt>
      <trkpt lat="44.1562" lon="5.0272">
        <ele>517.4</ele>
        <time>2020-09-08T11:15:19Z</time>
      </trkpt>
      <trkpt lat="44.1562" lon="5.02721">
        <ele>517.3</ele>
        <time>2020-09-08T11:15:20Z</time>
      </trkpt>
      <trkpt lat="44.15621" lon="5.0272">
        <ele>517.1</ele>
        <time>2020-09-08T11:15:21Z</time>
      </trkpt>
      <trkpt lat="44.15622" lon="5.0272">
        <ele>516.9</ele>
        <time>2020-09-08T11:15:22Z</time>
      </trkpt>
      <trkpt lat="44.15622" lon="5.0272">
        <ele>516.8</ele>
        <time>2020-09-08T11:15:23Z</time>
      </trkpt>
      <trkpt lat="44.15622" lon="5.02719">
        <ele>516.8</ele>
        <time>2020-09-08T11:15:24Z</time>
      </trkpt>
      <trkpt lat="44.15622" lon="5.0272">
        <ele>516.7</ele>
        <time>2020-09-08T11:15:25Z</time>
      </trkpt>
      <trkpt lat="44.15622" lon="5.02719">
        <ele>516.6</ele>
        <time>2020-09-08T11:15:26Z</time>
      </trkpt>
      <trkpt lat="44.15622" lon="5.02718">
        <ele>516.4</ele>
        <time>2020-09-08T11:15:27Z</time>
      </trkpt>
      <trkpt lat="44.15622" lon="5.02717">
        <ele>516.3</ele>
        <time>2020-09-08T11:15:28Z</time>
      </trkpt>
      <trkpt lat="44.1562" lon="5.02717">
        <ele>516</ele>
        <time>2020-09-08T11:15:29Z</time>
      </trkpt>
      <trkpt lat="44.15621" lon="5.02716">
        <ele>515.8</ele>
        <time>2020-09-08T11:15:30Z</time>
      </trkpt>
      <trkpt lat="44.1562" lon="5.02716">
        <ele>515.7</ele>
        <time>2020-09-08T11:15:31Z</time>
      </trkpt>
      <trkpt lat="44.15622" lon="5.02715">
        <ele>515.5</ele>
        <time>2020-09-08T11:15:32Z</time>
      </trkpt>
      <trkpt lat="44.15623" lon="5.02714">
        <ele>515.2</ele>
        <time>2020-09-08T11:15:33Z</time>
      </trkpt>
      <trkpt lat="44.15624" lon="5.02712">
        <ele>514.8</ele>
        <time>2020-09-08T11:15:34Z</time>
      </trkpt>
      <trkpt lat="44.15624" lon="5.02711">
        <ele>514.6</ele>
        <time>2020-09-08T11:15:35Z</time>
      </trkpt>
      <trkpt lat="44.15623" lon="5.0271">
        <ele>514.4</ele>
        <time>2020-09-08T11:15:36Z</time>
      </trkpt>
      <trkpt lat="44.15622" lon="5.02709">
        <ele>514.2</ele>
        <time>2020-09-08T11:15:37Z</time>
      </trkpt>
      <trkpt lat="44.15623" lon="5.02708">
        <ele>514</ele>
        <time>2020-09-08T11:15:38Z</time>
      </trkpt>
      <trkpt lat="44.15625" lon="5.02708">
        <ele>513.7</ele>
        <time>2020-09-08T11:15:39Z</time>
      </trkpt>
      <trkpt lat="44.15625" lon="5.02708">
        <ele>513.7</ele>
        <time>2020-09-08T11:15:40Z</time>
      </trkpt>
      <trkpt lat="44.15625" lon="5.02707">
        <ele>513.5</ele>
        <time>2020-09-08T11:15:41Z</time>
      </trkpt>
      <trkpt lat="44.15625" lon="5.02706">
        <ele>513.3</ele>
        <time>2020-09-08T11:15:42Z</time>
      </trkpt>
      <trkpt lat="44.15626" lon="5.02705">
        <ele>513.2</ele>
        <time>2020-09-08T11:15:43Z</time>
      </trkpt>
      <trkpt lat="44.15626" lon="5.02704">
        <ele>513</ele>
        <time>2020-09-08T11:15:44Z</time>
      </trkpt>
      <trkpt lat="44.15625" lon="5.02703">
        <ele>512.8</ele>
        <time>2020-09-08T11:15:45Z</time>
      </trkpt>
      <trkpt lat="44.15626" lon="5.027">
        <ele>512.4</ele>
        <time>2020-09-08T11:15:46Z</time>
      </trkpt>
      <trkpt lat="44.15626" lon="5.02698">
        <ele>512.2</ele>
        <time>2020-09-08T11:15:47Z</time>
      </trkpt>
      <trkpt lat="44.15627" lon="5.02697">
        <ele>512</ele>
        <time>2020-09-08T11:15:48Z</time>
      </trkpt>
      <trkpt lat="44.15628" lon="5.02695">
        <ele>511.7</ele>
        <time>2020-09-08T11:15:49Z</time>
      </trkpt>
      <trkpt lat="44.15627" lon="5.02694">
        <ele>511.6</ele>
        <time>2020-09-08T11:15:50Z</time>
      </trkpt>
      <trkpt lat="44.15628" lon="5.02693">
        <ele>511.5</ele>
        <time>2020-09-08T11:15:51Z</time>
      </trkpt>
      <trkpt lat="44.15628" lon="5.02691">
        <ele>511.2</ele>
        <time>2020-09-08T11:15:52Z</time>
      </trkpt>
      <trkpt lat="44.15628" lon="5.0269">
        <ele>510.9</ele>
        <time>2020-09-08T11:15:53Z</time>
      </trkpt>
      <trkpt lat="44.15629" lon="5.02689">
        <ele>510.8</ele>
        <time>2020-09-08T11:15:54Z</time>
      </trkpt>
      <trkpt lat="44.15629" lon="5.02686">
        <ele>510.5</ele>
        <time>2020-09-08T11:15:55Z</time>
      </trkpt>
      <trkpt lat="44.15632" lon="5.02684">
        <ele>510</ele>
        <time>2020-09-08T11:15:56Z</time>
      </trkpt>
      <trkpt lat="44.15633" lon="5.02683">
        <ele>509.8</ele>
        <time>2020-09-08T11:15:57Z</time>
      </trkpt>
      <trkpt lat="44.15633" lon="5.02681">
        <ele>509.5</ele>
        <time>2020-09-08T11:15:58Z</time>
      </trkpt>
      <trkpt lat="44.15633" lon="5.02679">
        <ele>509.3</ele>
        <time>2020-09-08T11:15:59Z</time>
      </trkpt>
      <trkpt lat="44.15633" lon="5.02678">
        <ele>509.2</ele>
        <time>2020-09-08T11:16:00Z</time>
      </trkpt>
      <trkpt lat="44.15633" lon="5.02677">
        <ele>509.1</ele>
        <time>2020-09-08T11:16:01Z</time>
      </trkpt>
      <trkpt lat="44.15634" lon="5.02676">
        <ele>509</ele>
        <time>2020-09-08T11:16:02Z</time>
      </trkpt>
      <trkpt lat="44.15633" lon="5.02675">
        <ele>508.8</ele>
        <time>2020-09-08T11:16:03Z</time>
      </trkpt>
      <trkpt lat="44.15634" lon="5.02674">
        <ele>508.4</ele>
        <time>2020-09-08T11:16:04Z</time>
      </trkpt>
      <trkpt lat="44.15635" lon="5.02674">
        <ele>508.3</ele>
        <time>2020-09-08T11:16:05Z</time>
      </trkpt>
      <trkpt lat="44.15635" lon="5.02675">
        <ele>508.1</ele>
        <time>2020-09-08T11:16:06Z</time>
      </trkpt>
      <trkpt lat="44.15636" lon="5.02675">
        <ele>507.8</ele>
        <time>2020-09-08T11:16:07Z</time>
      </trkpt>
      <trkpt lat="44.15636" lon="5.02675">
        <ele>507.8</ele>
        <time>2020-09-08T11:16:08Z</time>
      </trkpt>
      <trkpt lat="44.15636" lon="5.02674">
        <ele>507.5</ele>
        <time>2020-09-08T11:16:09Z</time>
      </trkpt>
      <trkpt lat="44.15636" lon="5.02673">
        <ele>507.4</ele>
        <time>2020-09-08T11:16:10Z</time>
      </trkpt>
      <trkpt lat="44.15637" lon="5.02672">
        <ele>507</ele>
        <time>2020-09-08T11:16:11Z</time>
      </trkpt>
      <trkpt lat="44.15636" lon="5.02671">
        <ele>506.7</ele>
        <time>2020-09-08T11:16:12Z</time>
      </trkpt>
      <trkpt lat="44.15636" lon="5.02671">
        <ele>506.7</ele>
        <time>2020-09-08T11:16:13Z</time>
      </trkpt>
      <trkpt lat="44.15636" lon="5.0267">
        <ele>506.3</ele>
        <time>2020-09-08T11:16:14Z</time>
      </trkpt>
      <trkpt lat="44.15636" lon="5.02669">
        <ele>506.2</ele>
        <time>2020-09-08T11:16:15Z</time>
      </trkpt>
      <trkpt lat="44.15636" lon="5.02669">
        <ele>506</ele>
        <time>2020-09-08T11:16:16Z</time>
      </trkpt>
      <trkpt lat="44.15636" lon="5.02669">
        <ele>506</ele>
        <time>2020-09-08T11:16:17Z</time>
      </trkpt>
      <trkpt lat="44.15637" lon="5.02669">
        <ele>505.9</ele>
        <time>2020-09-08T11:16:18Z</time>
      </trkpt>
      <trkpt lat="44.15637" lon="5.02669">
        <ele>505.6</ele>
        <time>2020-09-08T11:16:19Z</time>
      </trkpt>
      <trkpt lat="44.15638" lon="5.02668">
        <ele>505.4</ele>
        <time>2020-09-08T11:16:20Z</time>
      </trkpt>
      <trkpt lat="44.15638" lon="5.02668">
        <ele>505.4</ele>
        <time>2020-09-08T11:16:21Z</time>
      </trkpt>
      <trkpt lat="44.15638" lon="5.02669">
        <ele>505.1</ele>
        <time>2020-09-08T11:16:22Z</time>
      </trkpt>
      <trkpt lat="44.15638" lon="5.02669">
        <ele>505</ele>
        <time>2020-09-08T11:16:23Z</time>
      </trkpt>
      <trkpt lat="44.15639" lon="5.02669">
        <ele>504.9</ele>
        <time>2020-09-08T11:16:24Z</time>
      </trkpt>
      <trkpt lat="44.15639" lon="5.02669">
        <ele>504.8</ele>
        <time>2020-09-08T11:16:25Z</time>
      </trkpt>
      <trkpt lat="44.15639" lon="5.0267">
        <ele>504.6</ele>
        <time>2020-09-08T11:16:26Z</time>
      </trkpt>
      <trkpt lat="44.1564" lon="5.0267">
        <ele>504.4</ele>
        <time>2020-09-08T11:16:27Z</time>
      </trkpt>
      <trkpt lat="44.1564" lon="5.0267">
        <ele>504.3</ele>
        <time>2020-09-08T11:16:28Z</time>
      </trkpt>
      <trkpt lat="44.1564" lon="5.0267">
        <ele>504.2</ele>
        <time>2020-09-08T11:16:29Z</time>
      </trkpt>
      <trkpt lat="44.1564" lon="5.02671">
        <ele>504.1</ele>
        <time>2020-09-08T11:16:30Z</time>
      </trkpt>
      <trkpt lat="44.15641" lon="5.0267">
        <ele>503.8</ele>
        <time>2020-09-08T11:16:31Z</time>
      </trkpt>
      <trkpt lat="44.1564" lon="5.0267">
        <ele>503.7</ele>
        <time>2020-09-08T11:16:32Z</time>
      </trkpt>
      <trkpt lat="44.1564" lon="5.02669">
        <ele>503.6</ele>
        <time>2020-09-08T11:16:33Z</time>
      </trkpt>
      <trkpt lat="44.1564" lon="5.02669">
        <ele>503.4</ele>
        <time>2020-09-08T11:16:34Z</time>
      </trkpt>
      <trkpt lat="44.1564" lon="5.02668">
        <ele>503.3</ele>
        <time>2020-09-08T11:16:35Z</time>
      </trkpt>
      <trkpt lat="44.1564" lon="5.02667">
        <ele>503.2</ele>
        <time>2020-09-08T11:16:36Z</time>
      </trkpt>
      <trkpt lat="44.1564" lon="5.02667">
        <ele>503</ele>
        <time>2020-09-08T11:16:37Z</time>
      </trkpt>
      <trkpt lat="44.1564" lon="5.02666">
        <ele>502.8</ele>
        <time>2020-09-08T11:16:38Z</time>
      </trkpt>
      <trkpt lat="44.1564" lon="5.02666">
        <ele>502.7</ele>
        <time>2020-09-08T11:16:39Z</time>
      </trkpt>
      <trkpt lat="44.1564" lon="5.02665">
        <ele>502.6</ele>
        <time>2020-09-08T11:16:40Z</time>
      </trkpt>
      <trkpt lat="44.1564" lon="5.02665">
        <ele>502.4</ele>
        <time>2020-09-08T11:16:41Z</time>
      </trkpt>
      <trkpt lat="44.15641" lon="5.02664">
        <ele>502.1</ele>
        <time>2020-09-08T11:16:42Z</time>
      </trkpt>
      <trkpt lat="44.15641" lon="5.02664">
        <ele>502</ele>
        <time>2020-09-08T11:16:43Z</time>
      </trkpt>
      <trkpt lat="44.15642" lon="5.02663">
        <ele>501.8</ele>
        <time>2020-09-08T11:16:44Z</time>
      </trkpt>
      <trkpt lat="44.15642" lon="5.02663">
        <ele>501.7</ele>
        <time>2020-09-08T11:16:45Z</time>
      </trkpt>
      <trkpt lat="44.15642" lon="5.02663">
        <ele>501.6</ele>
        <time>2020-09-08T11:16:46Z</time>
      </trkpt>
      <trkpt lat="44.15642" lon="5.02662">
        <ele>501.5</ele>
        <time>2020-09-08T11:16:47Z</time>
      </trkpt>
      <trkpt lat="44.15643" lon="5.02662">
        <ele>501.3</ele>
        <time>2020-09-08T11:16:48Z</time>
      </trkpt>
      <trkpt lat="44.15643" lon="5.02662">
        <ele>501.2</ele>
        <time>2020-09-08T11:16:49Z</time>
      </trkpt>
      <trkpt lat="44.15643" lon="5.02661">
        <ele>501</ele>
        <time>2020-09-08T11:16:50Z</time>
      </trkpt>
      <trkpt lat="44.15644" lon="5.0266">
        <ele>500.7</ele>
        <time>2020-09-08T11:16:51Z</time>
      </trkpt>
      <trkpt lat="44.15646" lon="5.02659">
        <ele>500.1</ele>
        <time>2020-09-08T11:16:52Z</time>
      </trkpt>
      <trkpt lat="44.15647" lon="5.02658">
        <ele>499.9</ele>
        <time>2020-09-08T11:16:53Z</time>
      </trkpt>
      <trkpt lat="44.15647" lon="5.02658">
        <ele>499.7</ele>
        <time>2020-09-08T11:16:54Z</time>
      </trkpt>
      <trkpt lat="44.15647" lon="5.02657">
        <ele>499.6</ele>
        <time>2020-09-08T11:16:55Z</time>
      </trkpt>
      <trkpt lat="44.15646" lon="5.02656">
        <ele>499.3</ele>
        <time>2020-09-08T11:16:56Z</time>
      </trkpt>
      <trkpt lat="44.15647" lon="5.02655">
        <ele>499.1</ele>
        <time>2020-09-08T11:16:57Z</time>
      </trkpt>
      <trkpt lat="44.15647" lon="5.02655">
        <ele>498.9</ele>
        <time>2020-09-08T11:16:58Z</time>
      </trkpt>
      <trkpt lat="44.15647" lon="5.02653">
        <ele>498.5</ele>
        <time>2020-09-08T11:16:59Z</time>
      </trkpt>
      <trkpt lat="44.15647" lon="5.02654">
        <ele>498.4</ele>
        <time>2020-09-08T11:17:00Z</time>
      </trkpt>
      <trkpt lat="44.15647" lon="5.02654">
        <ele>498.3</ele>
        <time>2020-09-08T11:17:01Z</time>
      </trkpt>
      <trkpt lat="44.15648" lon="5.02654">
        <ele>498.1</ele>
        <time>2020-09-08T11:17:02Z</time>
      </trkpt>
      <trkpt lat="44.15649" lon="5.02653">
        <ele>497.7</ele>
        <time>2020-09-08T11:17:03Z</time>
      </trkpt>
      <trkpt lat="44.15649" lon="5.02652">
        <ele>497.6</ele>
        <time>2020-09-08T11:17:04Z</time>
      </trkpt>
      <trkpt lat="44.15649" lon="5.02651">
        <ele>497.3</ele>
        <time>2020-09-08T11:17:05Z</time>
      </trkpt>
      <trkpt lat="44.1565" lon="5.0265">
        <ele>497</ele>
        <time>2020-09-08T11:17:06Z</time>
      </trkpt>
      <trkpt lat="44.15651" lon="5.02649">
        <ele>496.8</ele>
        <time>2020-09-08T11:17:07Z</time>
      </trkpt>
      <trkpt lat="44.1565" lon="5.02649">
        <ele>496.7</ele>
        <time>2020-09-08T11:17:08Z</time>
      </trkpt>
      <trkpt lat="44.15652" lon="5.02648">
        <ele>496.3</ele>
        <time>2020-09-08T11:17:09Z</time>
      </trkpt>
      <trkpt lat="44.15652" lon="5.02649">
        <ele>496.2</ele>
        <time>2020-09-08T11:17:10Z</time>
      </trkpt>
      <trkpt lat="44.15652" lon="5.02649">
        <ele>496.1</ele>
        <time>2020-09-08T11:17:11Z</time>
      </trkpt>
      <trkpt lat="44.15652" lon="5.02649">
        <ele>495.9</ele>
        <time>2020-09-08T11:17:12Z</time>
      </trkpt>
      <trkpt lat="44.15653" lon="5.0265">
        <ele>495.7</ele>
        <time>2020-09-08T11:17:13Z</time>
      </trkpt>
      <trkpt lat="44.15653" lon="5.0265">
        <ele>495.7</ele>
        <time>2020-09-08T11:17:14Z</time>
      </trkpt>
      <trkpt lat="44.15653" lon="5.02648">
        <ele>495.4</ele>
        <time>2020-09-08T11:17:15Z</time>
      </trkpt>
      <trkpt lat="44.15653" lon="5.02648">
        <ele>495.4</ele>
        <time>2020-09-08T11:17:16Z</time>
      </trkpt>
      <trkpt lat="44.15654" lon="5.02648">
        <ele>495.2</ele>
        <time>2020-09-08T11:17:17Z</time>
      </trkpt>
      <trkpt lat="44.15653" lon="5.02647">
        <ele>495</ele>
        <time>2020-09-08T11:17:18Z</time>
      </trkpt>
      <trkpt lat="44.15653" lon="5.02646">
        <ele>494.9</ele>
        <time>2020-09-08T11:17:19Z</time>
      </trkpt>
      <trkpt lat="44.15653" lon="5.02645">
        <ele>494.7</ele>
        <time>2020-09-08T11:17:20Z</time>
      </trkpt>
      <trkpt lat="44.15652" lon="5.02644">
        <ele>494.4</ele>
        <time>2020-09-08T11:17:21Z</time>
      </trkpt>
      <trkpt lat="44.15653" lon="5.02643">
        <ele>494.3</ele>
        <time>2020-09-08T11:17:22Z</time>
      </trkpt>
      <trkpt lat="44.15653" lon="5.02643">
        <ele>494.2</ele>
        <time>2020-09-08T11:17:23Z</time>
      </trkpt>
      <trkpt lat="44.15653" lon="5.02642">
        <ele>494.1</ele>
        <time>2020-09-08T11:17:24Z</time>
      </trkpt>
      <trkpt lat="44.15653" lon="5.02642">
        <ele>494</ele>
        <time>2020-09-08T11:17:25Z</time>
      </trkpt>
      <trkpt lat="44.15653" lon="5.02641">
        <ele>493.9</ele>
        <time>2020-09-08T11:17:26Z</time>
      </trkpt>
      <trkpt lat="44.15654" lon="5.02641">
        <ele>493.8</ele>
        <time>2020-09-08T11:17:27Z</time>
      </trkpt>
      <trkpt lat="44.15654" lon="5.0264">
        <ele>493.7</ele>
        <time>2020-09-08T11:17:28Z</time>
      </trkpt>
      <trkpt lat="44.15654" lon="5.0264">
        <ele>493.7</ele>
        <time>2020-09-08T11:17:29Z</time>
      </trkpt>
      <trkpt lat="44.15653" lon="5.0264">
        <ele>493.6</ele>
        <time>2020-09-08T11:17:30Z</time>
      </trkpt>
      <trkpt lat="44.15653" lon="5.0264">
        <ele>493.5</ele>
        <time>2020-09-08T11:17:31Z</time>
      </trkpt>
      <trkpt lat="44.15653" lon="5.02639">
        <ele>493.3</ele>
        <time>2020-09-08T11:17:32Z</time>
      </trkpt>
      <trkpt lat="44.15654" lon="5.02639">
        <ele>493.1</ele>
        <time>2020-09-08T11:17:33Z</time>
      </trkpt>
      <trkpt lat="44.15655" lon="5.02638">
        <ele>492.9</ele>
        <time>2020-09-08T11:17:34Z</time>
      </trkpt>
      <trkpt lat="44.15657" lon="5.02638">
        <ele>492.4</ele>
        <time>2020-09-08T11:17:35Z</time>
      </trkpt>
      <trkpt lat="44.15658" lon="5.02638">
        <ele>492</ele>
        <time>2020-09-08T11:17:36Z</time>
      </trkpt>
      <trkpt lat="44.15658" lon="5.02637">
        <ele>491.8</ele>
        <time>2020-09-08T11:17:37Z</time>
      </trkpt>
      <trkpt lat="44.15658" lon="5.02638">
        <ele>491.7</ele>
        <time>2020-09-08T11:17:38Z</time>
      </trkpt>
      <trkpt lat="44.15659" lon="5.02637">
        <ele>491.5</ele>
        <time>2020-09-08T11:17:39Z</time>
      </trkpt>
      <trkpt lat="44.1566" lon="5.02637">
        <ele>491.3</ele>
        <time>2020-09-08T11:17:40Z</time>
      </trkpt>
      <trkpt lat="44.15661" lon="5.02637">
        <ele>491.2</ele>
        <time>2020-09-08T11:17:41Z</time>
      </trkpt>
      <trkpt lat="44.15661" lon="5.02636">
        <ele>491</ele>
        <time>2020-09-08T11:17:42Z</time>
      </trkpt>
      <trkpt lat="44.15662" lon="5.02635">
        <ele>490.8</ele>
        <time>2020-09-08T11:17:43Z</time>
      </trkpt>
      <trkpt lat="44.15662" lon="5.02634">
        <ele>490.5</ele>
        <time>2020-09-08T11:17:44Z</time>
      </trkpt>
      <trkpt lat="44.15663" lon="5.02632">
        <ele>490.2</ele>
        <time>2020-09-08T11:17:45Z</time>
      </trkpt>
      <trkpt lat="44.15663" lon="5.02632">
        <ele>490</ele>
        <time>2020-09-08T11:17:46Z</time>
      </trkpt>
      <trkpt lat="44.15664" lon="5.02631">
        <ele>489.8</ele>
        <time>2020-09-08T11:17:47Z</time>
      </trkpt>
      <trkpt lat="44.15664" lon="5.0263">
        <ele>489.7</ele>
        <time>2020-09-08T11:17:48Z</time>
      </trkpt>
      <trkpt lat="44.15664" lon="5.02629">
        <ele>489.5</ele>
        <time>2020-09-08T11:17:49Z</time>
      </trkpt>
      <trkpt lat="44.15665" lon="5.02628">
        <ele>489.3</ele>
        <time>2020-09-08T11:17:50Z</time>
      </trkpt>
      <trkpt lat="44.15666" lon="5.02627">
        <ele>488.8</ele>
        <time>2020-09-08T11:17:51Z</time>
      </trkpt>
      <trkpt lat="44.15666" lon="5.02627">
        <ele>488.8</ele>
        <time>2020-09-08T11:17:52Z</time>
      </trkpt>
      <trkpt lat="44.15667" lon="5.02626">
        <ele>488.4</ele>
        <time>2020-09-08T11:17:53Z</time>
      </trkpt>
      <trkpt lat="44.15668" lon="5.02624">
        <ele>488.2</ele>
        <time>2020-09-08T11:17:54Z</time>
      </trkpt>
      <trkpt lat="44.15668" lon="5.02623">
        <ele>487.8</ele>
        <time>2020-09-08T11:17:55Z</time>
      </trkpt>
      <trkpt lat="44.15668" lon="5.02621">
        <ele>487.4</ele>
        <time>2020-09-08T11:17:56Z</time>
      </trkpt>
      <trkpt lat="44.15668" lon="5.02618">
        <ele>486.9</ele>
        <time>2020-09-08T11:17:57Z</time>
      </trkpt>
      <trkpt lat="44.15668" lon="5.02617">
        <ele>486.7</ele>
        <time>2020-09-08T11:17:58Z</time>
      </trkpt>
      <trkpt lat="44.15667" lon="5.02616">
        <ele>486.4</ele>
        <time>2020-09-08T11:17:59Z</time>
      </trkpt>
      <trkpt lat="44.15669" lon="5.02615">
        <ele>486.1</ele>
        <time>2020-09-08T11:18:00Z</time>
      </trkpt>
      <trkpt lat="44.15669" lon="5.02613">
        <ele>485.8</ele>
        <time>2020-09-08T11:18:01Z</time>
      </trkpt>
      <trkpt lat="44.15669" lon="5.02612">
        <ele>485.5</ele>
        <time>2020-09-08T11:18:02Z</time>
      </trkpt>
      <trkpt lat="44.1567" lon="5.02611">
        <ele>485.2</ele>
        <time>2020-09-08T11:18:03Z</time>
      </trkpt>
      <trkpt lat="44.1567" lon="5.02611">
        <ele>485.1</ele>
        <time>2020-09-08T11:18:04Z</time>
      </trkpt>
      <trkpt lat="44.1567" lon="5.0261">
        <ele>485</ele>
        <time>2020-09-08T11:18:05Z</time>
      </trkpt>
      <trkpt lat="44.1567" lon="5.0261">
        <ele>484.9</ele>
        <time>2020-09-08T11:18:06Z</time>
      </trkpt>
      <trkpt lat="44.15671" lon="5.0261">
        <ele>484.6</ele>
        <time>2020-09-08T11:18:07Z</time>
      </trkpt>
      <trkpt lat="44.15672" lon="5.0261">
        <ele>484.4</ele>
        <time>2020-09-08T11:18:08Z</time>
      </trkpt>
      <trkpt lat="44.15672" lon="5.0261">
        <ele>484.3</ele>
        <time>2020-09-08T11:18:09Z</time>
      </trkpt>
      <trkpt lat="44.15672" lon="5.02608">
        <ele>484</ele>
        <time>2020-09-08T11:18:10Z</time>
      </trkpt>
      <trkpt lat="44.15673" lon="5.02608">
        <ele>483.8</ele>
        <time>2020-09-08T11:18:11Z</time>
      </trkpt>
      <trkpt lat="44.15675" lon="5.02608">
        <ele>483.5</ele>
        <time>2020-09-08T11:18:12Z</time>
      </trkpt>
      <trkpt lat="44.15675" lon="5.02605">
        <ele>483</ele>
        <time>2020-09-08T11:18:13Z</time>
      </trkpt>
      <trkpt lat="44.15675" lon="5.02604">
        <ele>482.7</ele>
        <time>2020-09-08T11:18:14Z</time>
      </trkpt>
      <trkpt lat="44.15674" lon="5.02603">
        <ele>482.5</ele>
        <time>2020-09-08T11:18:15Z</time>
      </trkpt>
      <trkpt lat="44.15674" lon="5.02603">
        <ele>482.5</ele>
        <time>2020-09-08T11:18:16Z</time>
      </trkpt>
      <trkpt lat="44.15675" lon="5.02603">
        <ele>482.4</ele>
        <time>2020-09-08T11:18:17Z</time>
      </trkpt>
      <trkpt lat="44.15675" lon="5.02602">
        <ele>482.1</ele>
        <time>2020-09-08T11:18:18Z</time>
      </trkpt>
      <trkpt lat="44.15676" lon="5.02601">
        <ele>481.9</ele>
        <time>2020-09-08T11:18:19Z</time>
      </trkpt>
      <trkpt lat="44.15677" lon="5.02601">
        <ele>481.7</ele>
        <time>2020-09-08T11:18:20Z</time>
      </trkpt>
      <trkpt lat="44.15678" lon="5.02601">
        <ele>481.6</ele>
        <time>2020-09-08T11:18:21Z</time>
      </trkpt>
      <trkpt lat="44.15679" lon="5.026">
        <ele>481.2</ele>
        <time>2020-09-08T11:18:22Z</time>
      </trkpt>
      <trkpt lat="44.1568" lon="5.02599">
        <ele>481</ele>
        <time>2020-09-08T11:18:23Z</time>
      </trkpt>
      <trkpt lat="44.15681" lon="5.02596">
        <ele>480.4</ele>
        <time>2020-09-08T11:18:24Z</time>
      </trkpt>
      <trkpt lat="44.15681" lon="5.02595">
        <ele>480.3</ele>
        <time>2020-09-08T11:18:25Z</time>
      </trkpt>
      <trkpt lat="44.15681" lon="5.02594">
        <ele>480.1</ele>
        <time>2020-09-08T11:18:26Z</time>
      </trkpt>
      <trkpt lat="44.1568" lon="5.02593">
        <ele>480</ele>
        <time>2020-09-08T11:18:27Z</time>
      </trkpt>
      <trkpt lat="44.1568" lon="5.02592">
        <ele>479.9</ele>
        <time>2020-09-08T11:18:28Z</time>
      </trkpt>
      <trkpt lat="44.15681" lon="5.02589">
        <ele>479.4</ele>
        <time>2020-09-08T11:18:29Z</time>
      </trkpt>
      <trkpt lat="44.15682" lon="5.0259">
        <ele>479.3</ele>
        <time>2020-09-08T11:18:30Z</time>
      </trkpt>
      <trkpt lat="44.15681" lon="5.02588">
        <ele>479.1</ele>
        <time>2020-09-08T11:18:31Z</time>
      </trkpt>
      <trkpt lat="44.15681" lon="5.02587">
        <ele>479</ele>
        <time>2020-09-08T11:18:32Z</time>
      </trkpt>
      <trkpt lat="44.15682" lon="5.02586">
        <ele>478.7</ele>
        <time>2020-09-08T11:18:33Z</time>
      </trkpt>
      <trkpt lat="44.15682" lon="5.02586">
        <ele>478.7</ele>
        <time>2020-09-08T11:18:34Z</time>
      </trkpt>
      <trkpt lat="44.15683" lon="5.02586">
        <ele>478.5</ele>
        <time>2020-09-08T11:18:35Z</time>
      </trkpt>
      <trkpt lat="44.15684" lon="5.02586">
        <ele>478.3</ele>
        <time>2020-09-08T11:18:36Z</time>
      </trkpt>
      <trkpt lat="44.15685" lon="5.02586">
        <ele>478.2</ele>
        <time>2020-09-08T11:18:37Z</time>
      </trkpt>
      <trkpt lat="44.15685" lon="5.02586">
        <ele>478.1</ele>
        <time>2020-09-08T11:18:38Z</time>
      </trkpt>
      <trkpt lat="44.15685" lon="5.02586">
        <ele>478.1</ele>
        <time>2020-09-08T11:18:39Z</time>
      </trkpt>
      <trkpt lat="44.15685" lon="5.02586">
        <ele>478</ele>
        <time>2020-09-08T11:18:40Z</time>
      </trkpt>
      <trkpt lat="44.15686" lon="5.02585">
        <ele>477.7</ele>
        <time>2020-09-08T11:18:41Z</time>
      </trkpt>
      <trkpt lat="44.15686" lon="5.02585">
        <ele>477.7</ele>
        <time>2020-09-08T11:18:42Z</time>
      </trkpt>
      <trkpt lat="44.15684" lon="5.02583">
        <ele>477.4</ele>
        <time>2020-09-08T11:18:43Z</time>
      </trkpt>
      <trkpt lat="44.15685" lon="5.02582">
        <ele>477.2</ele>
        <time>2020-09-08T11:18:44Z</time>
      </trkpt>
      <trkpt lat="44.15687" lon="5.0258">
        <ele>476.7</ele>
        <time>2020-09-08T11:18:45Z</time>
      </trkpt>
      <trkpt lat="44.15687" lon="5.02579">
        <ele>476.6</ele>
        <time>2020-09-08T11:18:46Z</time>
      </trkpt>
      <trkpt lat="44.15687" lon="5.02578">
        <ele>476.5</ele>
        <time>2020-09-08T11:18:47Z</time>
      </trkpt>
      <trkpt lat="44.15687" lon="5.02577">
        <ele>476.4</ele>
        <time>2020-09-08T11:18:48Z</time>
      </trkpt>
      <trkpt lat="44.15688" lon="5.02575">
        <ele>476.1</ele>
        <time>2020-09-08T11:18:49Z</time>
      </trkpt>
      <trkpt lat="44.1569" lon="5.02574">
        <ele>475.7</ele>
        <time>2020-09-08T11:18:50Z</time>
      </trkpt>
      <trkpt lat="44.1569" lon="5.02574">
        <ele>475.6</ele>
        <time>2020-09-08T11:18:51Z</time>
      </trkpt>
      <trkpt lat="44.15691" lon="5.02572">
        <ele>475.2</ele>
        <time>2020-09-08T11:18:52Z</time>
      </trkpt>
      <trkpt lat="44.15692" lon="5.02571">
        <ele>474.9</ele>
        <time>2020-09-08T11:18:53Z</time>
      </trkpt>
      <trkpt lat="44.15692" lon="5.0257">
        <ele>474.8</ele>
        <time>2020-09-08T11:18:54Z</time>
      </trkpt>
      <trkpt lat="44.15692" lon="5.02569">
        <ele>474.6</ele>
        <time>2020-09-08T11:18:55Z</time>
      </trkpt>
      <trkpt lat="44.15693" lon="5.02568">
        <ele>474.4</ele>
        <time>2020-09-08T11:18:56Z</time>
      </trkpt>
      <trkpt lat="44.15693" lon="5.02567">
        <ele>474.2</ele>
        <time>2020-09-08T11:18:57Z</time>
      </trkpt>
      <trkpt lat="44.15695" lon="5.02565">
        <ele>473.8</ele>
        <time>2020-09-08T11:18:58Z</time>
      </trkpt>
      <trkpt lat="44.15695" lon="5.02564">
        <ele>473.6</ele>
        <time>2020-09-08T11:18:59Z</time>
      </trkpt>
      <trkpt lat="44.15696" lon="5.02563">
        <ele>473.4</ele>
        <time>2020-09-08T11:19:00Z</time>
      </trkpt>
      <trkpt lat="44.15696" lon="5.02562">
        <ele>473.2</ele>
        <time>2020-09-08T11:19:01Z</time>
      </trkpt>
      <trkpt lat="44.15696" lon="5.0256">
        <ele>473</ele>
        <time>2020-09-08T11:19:02Z</time>
      </trkpt>
      <trkpt lat="44.15696" lon="5.02559">
        <ele>472.7</ele>
        <time>2020-09-08T11:19:03Z</time>
      </trkpt>
      <trkpt lat="44.15697" lon="5.02556">
        <ele>472.3</ele>
        <time>2020-09-08T11:19:04Z</time>
      </trkpt>
      <trkpt lat="44.15697" lon="5.02556">
        <ele>472.1</ele>
        <time>2020-09-08T11:19:05Z</time>
      </trkpt>
      <trkpt lat="44.15698" lon="5.02555">
        <ele>472</ele>
        <time>2020-09-08T11:19:06Z</time>
      </trkpt>
      <trkpt lat="44.15699" lon="5.02555">
        <ele>471.8</ele>
        <time>2020-09-08T11:19:07Z</time>
      </trkpt>
      <trkpt lat="44.15699" lon="5.02554">
        <ele>471.6</ele>
        <time>2020-09-08T11:19:08Z</time>
      </trkpt>
      <trkpt lat="44.157" lon="5.02554">
        <ele>471.5</ele>
        <time>2020-09-08T11:19:09Z</time>
      </trkpt>
      <trkpt lat="44.157" lon="5.02553">
        <ele>471.3</ele>
        <time>2020-09-08T11:19:10Z</time>
      </trkpt>
      <trkpt lat="44.157" lon="5.02552">
        <ele>471.1</ele>
        <time>2020-09-08T11:19:11Z</time>
      </trkpt>
      <trkpt lat="44.15701" lon="5.02552">
        <ele>471</ele>
        <time>2020-09-08T11:19:12Z</time>
      </trkpt>
      <trkpt lat="44.157" lon="5.02552">
        <ele>470.8</ele>
        <time>2020-09-08T11:19:13Z</time>
      </trkpt>
      <trkpt lat="44.157" lon="5.02551">
        <ele>470.7</ele>
        <time>2020-09-08T11:19:14Z</time>
      </trkpt>
      <trkpt lat="44.157" lon="5.02551">
        <ele>470.6</ele>
        <time>2020-09-08T11:19:15Z</time>
      </trkpt>
      <trkpt lat="44.15701" lon="5.0255">
        <ele>470.4</ele>
        <time>2020-09-08T11:19:16Z</time>
      </trkpt>
      <trkpt lat="44.15701" lon="5.0255">
        <ele>470.2</ele>
        <time>2020-09-08T11:19:17Z</time>
      </trkpt>
      <trkpt lat="44.15702" lon="5.02548">
        <ele>469.8</ele>
        <time>2020-09-08T11:19:18Z</time>
      </trkpt>
      <trkpt lat="44.15702" lon="5.02547">
        <ele>469.5</ele>
        <time>2020-09-08T11:19:19Z</time>
      </trkpt>
      <trkpt lat="44.15702" lon="5.02546">
        <ele>469.4</ele>
        <time>2020-09-08T11:19:20Z</time>
      </trkpt>
      <trkpt lat="44.15702" lon="5.02545">
        <ele>469.2</ele>
        <time>2020-09-08T11:19:21Z</time>
      </trkpt>
      <trkpt lat="44.15701" lon="5.02544">
        <ele>469.1</ele>
        <time>2020-09-08T11:19:22Z</time>
      </trkpt>
      <trkpt lat="44.15701" lon="5.02543">
        <ele>468.9</ele>
        <time>2020-09-08T11:19:23Z</time>
      </trkpt>
      <trkpt lat="44.15702" lon="5.02543">
        <ele>468.7</ele>
        <time>2020-09-08T11:19:24Z</time>
      </trkpt>
      <trkpt lat="44.15701" lon="5.02542">
        <ele>468.4</ele>
        <time>2020-09-08T11:19:25Z</time>
      </trkpt>
      <trkpt lat="44.15701" lon="5.0254">
        <ele>468.2</ele>
        <time>2020-09-08T11:19:26Z</time>
      </trkpt>
      <trkpt lat="44.15701" lon="5.0254">
        <ele>468.1</ele>
        <time>2020-09-08T11:19:27Z</time>
      </trkpt>
      <trkpt lat="44.15701" lon="5.02539">
        <ele>467.9</ele>
        <time>2020-09-08T11:19:28Z</time>
      </trkpt>
      <trkpt lat="44.15701" lon="5.02539">
        <ele>467.9</ele>
        <time>2020-09-08T11:19:29Z</time>
      </trkpt>
      <trkpt lat="44.15702" lon="5.02539">
        <ele>467.6</ele>
        <time>2020-09-08T11:19:30Z</time>
      </trkpt>
      <trkpt lat="44.15702" lon="5.02539">
        <ele>467.6</ele>
        <time>2020-09-08T11:19:31Z</time>
      </trkpt>
      <trkpt lat="44.15702" lon="5.02539">
        <ele>467.6</ele>
        <time>2020-09-08T11:19:32Z</time>
      </trkpt>
      <trkpt lat="44.15703" lon="5.02539">
        <ele>467.4</ele>
        <time>2020-09-08T11:19:33Z</time>
      </trkpt>
      <trkpt lat="44.15702" lon="5.02539">
        <ele>467.3</ele>
        <time>2020-09-08T11:19:34Z</time>
      </trkpt>
      <trkpt lat="44.15702" lon="5.02539">
        <ele>467.3</ele>
        <time>2020-09-08T11:19:35Z</time>
      </trkpt>
      <trkpt lat="44.15703" lon="5.02539">
        <ele>467.3</ele>
        <time>2020-09-08T11:19:36Z</time>
      </trkpt>
      <trkpt lat="44.15702" lon="5.02539">
        <ele>467.2</ele>
        <time>2020-09-08T11:19:37Z</time>
      </trkpt>
      <trkpt lat="44.15702" lon="5.02539">
        <ele>467.2</ele>
        <time>2020-09-08T11:19:38Z</time>
      </trkpt>
      <trkpt lat="44.15703" lon="5.02539">
        <ele>466.9</ele>
        <time>2020-09-08T11:19:39Z</time>
      </trkpt>
      <trkpt lat="44.15704" lon="5.02538">
        <ele>466.7</ele>
        <time>2020-09-08T11:19:40Z</time>
      </trkpt>
      <trkpt lat="44.15704" lon="5.02537">
        <ele>466.6</ele>
        <time>2020-09-08T11:19:41Z</time>
      </trkpt>
      <trkpt lat="44.15705" lon="5.02537">
        <ele>466.3</ele>
        <time>2020-09-08T11:19:42Z</time>
      </trkpt>
      <trkpt lat="44.15705" lon="5.02536">
        <ele>466.2</ele>
        <time>2020-09-08T11:19:43Z</time>
      </trkpt>
      <trkpt lat="44.15705" lon="5.02534">
        <ele>465.9</ele>
        <time>2020-09-08T11:19:44Z</time>
      </trkpt>
      <trkpt lat="44.15707" lon="5.02532">
        <ele>465.4</ele>
        <time>2020-09-08T11:19:45Z</time>
      </trkpt>
      <trkpt lat="44.15707" lon="5.02532">
        <ele>465.2</ele>
        <time>2020-09-08T11:19:46Z</time>
      </trkpt>
      <trkpt lat="44.15707" lon="5.0253">
        <ele>464.9</ele>
        <time>2020-09-08T11:19:47Z</time>
      </trkpt>
      <trkpt lat="44.15707" lon="5.02529">
        <ele>464.7</ele>
        <time>2020-09-08T11:19:48Z</time>
      </trkpt>
      <trkpt lat="44.15707" lon="5.02528">
        <ele>464.5</ele>
        <time>2020-09-08T11:19:49Z</time>
      </trkpt>
      <trkpt lat="44.15707" lon="5.02527">
        <ele>464.3</ele>
        <time>2020-09-08T11:19:50Z</time>
      </trkpt>
      <trkpt lat="44.15708" lon="5.02526">
        <ele>464.1</ele>
        <time>2020-09-08T11:19:51Z</time>
      </trkpt>
      <trkpt lat="44.15708" lon="5.02526">
        <ele>463.9</ele>
        <time>2020-09-08T11:19:52Z</time>
      </trkpt>
      <trkpt lat="44.15709" lon="5.02524">
        <ele>463.6</ele>
        <time>2020-09-08T11:19:53Z</time>
      </trkpt>
      <trkpt lat="44.15709" lon="5.02525">
        <ele>463.5</ele>
        <time>2020-09-08T11:19:54Z</time>
      </trkpt>
      <trkpt lat="44.1571" lon="5.02524">
        <ele>463.3</ele>
        <time>2020-09-08T11:19:55Z</time>
      </trkpt>
      <trkpt lat="44.1571" lon="5.02524">
        <ele>463.2</ele>
        <time>2020-09-08T11:19:56Z</time>
      </trkpt>
      <trkpt lat="44.1571" lon="5.02524">
        <ele>463.1</ele>
        <time>2020-09-08T11:19:57Z</time>
      </trkpt>
      <trkpt lat="44.1571" lon="5.02522">
        <ele>462.8</ele>
        <time>2020-09-08T11:19:58Z</time>
      </trkpt>
      <trkpt lat="44.15711" lon="5.02521">
        <ele>462.6</ele>
        <time>2020-09-08T11:19:59Z</time>
      </trkpt>
      <trkpt lat="44.15711" lon="5.0252">
        <ele>462.4</ele>
        <time>2020-09-08T11:20:00Z</time>
      </trkpt>
      <trkpt lat="44.15711" lon="5.0252">
        <ele>462.3</ele>
        <time>2020-09-08T11:20:01Z</time>
      </trkpt>
      <trkpt lat="44.15712" lon="5.02519">
        <ele>462.2</ele>
        <time>2020-09-08T11:20:02Z</time>
      </trkpt>
      <trkpt lat="44.15712" lon="5.02518">
        <ele>462</ele>
        <time>2020-09-08T11:20:03Z</time>
      </trkpt>
      <trkpt lat="44.15712" lon="5.02518">
        <ele>461.9</ele>
        <time>2020-09-08T11:20:04Z</time>
      </trkpt>
      <trkpt lat="44.15712" lon="5.02517">
        <ele>461.8</ele>
        <time>2020-09-08T11:20:05Z</time>
      </trkpt>
      <trkpt lat="44.15713" lon="5.02517">
        <ele>461.6</ele>
        <time>2020-09-08T11:20:06Z</time>
      </trkpt>
      <trkpt lat="44.15713" lon="5.02516">
        <ele>461.5</ele>
        <time>2020-09-08T11:20:07Z</time>
      </trkpt>
      <trkpt lat="44.15713" lon="5.02515">
        <ele>461.2</ele>
        <time>2020-09-08T11:20:08Z</time>
      </trkpt>
      <trkpt lat="44.15712" lon="5.02514">
        <ele>461.1</ele>
        <time>2020-09-08T11:20:09Z</time>
      </trkpt>
      <trkpt lat="44.15713" lon="5.02513">
        <ele>461</ele>
        <time>2020-09-08T11:20:10Z</time>
      </trkpt>
      <trkpt lat="44.15713" lon="5.02513">
        <ele>460.9</ele>
        <time>2020-09-08T11:20:11Z</time>
      </trkpt>
      <trkpt lat="44.15714" lon="5.02513">
        <ele>460.7</ele>
        <time>2020-09-08T11:20:12Z</time>
      </trkpt>
      <trkpt lat="44.15714" lon="5.02512">
        <ele>460.5</ele>
        <time>2020-09-08T11:20:13Z</time>
      </trkpt>
      <trkpt lat="44.15715" lon="5.02511">
        <ele>460.2</ele>
        <time>2020-09-08T11:20:14Z</time>
      </trkpt>
      <trkpt lat="44.15715" lon="5.0251">
        <ele>460</ele>
        <time>2020-09-08T11:20:15Z</time>
      </trkpt>
      <trkpt lat="44.15715" lon="5.02509">
        <ele>459.8</ele>
        <time>2020-09-08T11:20:16Z</time>
      </trkpt>
      <trkpt lat="44.15716" lon="5.02507">
        <ele>459.6</ele>
        <time>2020-09-08T11:20:17Z</time>
      </trkpt>
      <trkpt lat="44.15716" lon="5.02507">
        <ele>459.4</ele>
        <time>2020-09-08T11:20:18Z</time>
      </trkpt>
      <trkpt lat="44.15717" lon="5.02506">
        <ele>459.3</ele>
        <time>2020-09-08T11:20:19Z</time>
      </trkpt>
      <trkpt lat="44.15717" lon="5.02506">
        <ele>459.2</ele>
        <time>2020-09-08T11:20:20Z</time>
      </trkpt>
      <trkpt lat="44.15718" lon="5.02505">
        <ele>459.1</ele>
        <time>2020-09-08T11:20:21Z</time>
      </trkpt>
      <trkpt lat="44.15718" lon="5.02505">
        <ele>459</ele>
        <time>2020-09-08T11:20:22Z</time>
      </trkpt>
      <trkpt lat="44.15719" lon="5.02504">
        <ele>458.7</ele>
        <time>2020-09-08T11:20:23Z</time>
      </trkpt>
      <trkpt lat="44.15718" lon="5.02504">
        <ele>458.6</ele>
        <time>2020-09-08T11:20:24Z</time>
      </trkpt>
      <trkpt lat="44.15719" lon="5.02503">
        <ele>458.4</ele>
        <time>2020-09-08T11:20:25Z</time>
      </trkpt>
      <trkpt lat="44.15719" lon="5.02502">
        <ele>458.2</ele>
        <time>2020-09-08T11:20:26Z</time>
      </trkpt>
      <trkpt lat="44.1572" lon="5.02501">
        <ele>458</ele>
        <time>2020-09-08T11:20:27Z</time>
      </trkpt>
      <trkpt lat="44.1572" lon="5.02499">
        <ele>457.8</ele>
        <time>2020-09-08T11:20:28Z</time>
      </trkpt>
      <trkpt lat="44.15721" lon="5.02499">
        <ele>457.7</ele>
        <time>2020-09-08T11:20:29Z</time>
      </trkpt>
      <trkpt lat="44.15721" lon="5.02497">
        <ele>457.5</ele>
        <time>2020-09-08T11:20:30Z</time>
      </trkpt>
      <trkpt lat="44.15722" lon="5.02495">
        <ele>457.2</ele>
        <time>2020-09-08T11:20:31Z</time>
      </trkpt>
      <trkpt lat="44.15722" lon="5.02493">
        <ele>457</ele>
        <time>2020-09-08T11:20:32Z</time>
      </trkpt>
      <trkpt lat="44.15722" lon="5.02493">
        <ele>457</ele>
        <time>2020-09-08T11:20:33Z</time>
      </trkpt>
      <trkpt lat="44.15722" lon="5.02493">
        <ele>456.9</ele>
        <time>2020-09-08T11:20:34Z</time>
      </trkpt>
      <trkpt lat="44.15723" lon="5.02492">
        <ele>456.8</ele>
        <time>2020-09-08T11:20:35Z</time>
      </trkpt>
      <trkpt lat="44.15723" lon="5.02489">
        <ele>456.5</ele>
        <time>2020-09-08T11:20:36Z</time>
      </trkpt>
      <trkpt lat="44.15723" lon="5.02487">
        <ele>456.3</ele>
        <time>2020-09-08T11:20:37Z</time>
      </trkpt>
      <trkpt lat="44.15723" lon="5.02486">
        <ele>456.1</ele>
        <time>2020-09-08T11:20:38Z</time>
      </trkpt>
      <trkpt lat="44.15723" lon="5.02485">
        <ele>456</ele>
        <time>2020-09-08T11:20:39Z</time>
      </trkpt>
      <trkpt lat="44.15724" lon="5.02484">
        <ele>455.8</ele>
        <time>2020-09-08T11:20:40Z</time>
      </trkpt>
      <trkpt lat="44.15724" lon="5.02483">
        <ele>455.6</ele>
        <time>2020-09-08T11:20:41Z</time>
      </trkpt>
      <trkpt lat="44.15725" lon="5.02483">
        <ele>455.6</ele>
        <time>2020-09-08T11:20:42Z</time>
      </trkpt>
      <trkpt lat="44.15725" lon="5.02482">
        <ele>455.4</ele>
        <time>2020-09-08T11:20:43Z</time>
      </trkpt>
      <trkpt lat="44.15725" lon="5.02481">
        <ele>455.3</ele>
        <time>2020-09-08T11:20:44Z</time>
      </trkpt>
      <trkpt lat="44.15725" lon="5.02479">
        <ele>455.1</ele>
        <time>2020-09-08T11:20:45Z</time>
      </trkpt>
      <trkpt lat="44.15726" lon="5.02479">
        <ele>454.9</ele>
        <time>2020-09-08T11:20:46Z</time>
      </trkpt>
      <trkpt lat="44.15726" lon="5.02478">
        <ele>454.8</ele>
        <time>2020-09-08T11:20:47Z</time>
      </trkpt>
      <trkpt lat="44.15727" lon="5.02477">
        <ele>454.7</ele>
        <time>2020-09-08T11:20:48Z</time>
      </trkpt>
      <trkpt lat="44.15727" lon="5.02476">
        <ele>454.5</ele>
        <time>2020-09-08T11:20:49Z</time>
      </trkpt>
      <trkpt lat="44.15728" lon="5.02475">
        <ele>454.4</ele>
        <time>2020-09-08T11:20:50Z</time>
      </trkpt>
      <trkpt lat="44.15729" lon="5.02472">
        <ele>454</ele>
        <time>2020-09-08T11:20:51Z</time>
      </trkpt>
      <trkpt lat="44.1573" lon="5.02472">
        <ele>453.9</ele>
        <time>2020-09-08T11:20:52Z</time>
      </trkpt>
      <trkpt lat="44.1573" lon="5.02471">
        <ele>453.8</ele>
        <time>2020-09-08T11:20:53Z</time>
      </trkpt>
      <trkpt lat="44.15731" lon="5.02471">
        <ele>453.6</ele>
        <time>2020-09-08T11:20:54Z</time>
      </trkpt>
      <trkpt lat="44.15732" lon="5.02471">
        <ele>453.5</ele>
        <time>2020-09-08T11:20:55Z</time>
      </trkpt>
      <trkpt lat="44.15732" lon="5.02471">
        <ele>453.4</ele>
        <time>2020-09-08T11:20:56Z</time>
      </trkpt>
      <trkpt lat="44.15733" lon="5.02469">
        <ele>453.1</ele>
        <time>2020-09-08T11:20:57Z</time>
      </trkpt>
      <trkpt lat="44.15736" lon="5.02469">
        <ele>452.4</ele>
        <time>2020-09-08T11:20:58Z</time>
      </trkpt>
      <trkpt lat="44.15736" lon="5.02469">
        <ele>451.7</ele>
        <time>2020-09-08T11:20:59Z</time>
      </trkpt>
      <trkpt lat="44.15737" lon="5.02468">
        <ele>451.4</ele>
        <time>2020-09-08T11:21:00Z</time>
      </trkpt>
      <trkpt lat="44.15738" lon="5.02468">
        <ele>450.7</ele>
        <time>2020-09-08T11:21:01Z</time>
      </trkpt>
      <trkpt lat="44.1574" lon="5.02468">
        <ele>450.2</ele>
        <time>2020-09-08T11:21:02Z</time>
      </trkpt>
      <trkpt lat="44.15741" lon="5.02467">
        <ele>449.7</ele>
        <time>2020-09-08T11:21:03Z</time>
      </trkpt>
      <trkpt lat="44.15742" lon="5.02466">
        <ele>449</ele>
        <time>2020-09-08T11:21:04Z</time>
      </trkpt>
      <trkpt lat="44.15743" lon="5.02465">
        <ele>448.5</ele>
        <time>2020-09-08T11:21:05Z</time>
      </trkpt>
      <trkpt lat="44.15743" lon="5.02465">
        <ele>448.2</ele>
        <time>2020-09-08T11:21:06Z</time>
      </trkpt>
      <trkpt lat="44.15743" lon="5.02465">
        <ele>447.1</ele>
        <time>2020-09-08T11:21:07Z</time>
      </trkpt>
      <trkpt lat="44.15744" lon="5.02464">
        <ele>445.8</ele>
        <time>2020-09-08T11:21:08Z</time>
      </trkpt>
      <trkpt lat="44.15745" lon="5.02462">
        <ele>446.1</ele>
        <time>2020-09-08T11:21:09Z</time>
      </trkpt>
      <trkpt lat="44.15747" lon="5.0246">
        <ele>445.2</ele>
        <time>2020-09-08T11:21:10Z</time>
      </trkpt>
      <trkpt lat="44.15747" lon="5.02459">
        <ele>445.9</ele>
        <time>2020-09-08T11:21:11Z</time>
      </trkpt>
      <trkpt lat="44.15748" lon="5.0246">
        <ele>445.6</ele>
        <time>2020-09-08T11:21:12Z</time>
      </trkpt>
      <trkpt lat="44.15749" lon="5.02459">
        <ele>444.5</ele>
        <time>2020-09-08T11:21:13Z</time>
      </trkpt>
      <trkpt lat="44.15749" lon="5.02458">
        <ele>443.8</ele>
        <time>2020-09-08T11:21:14Z</time>
      </trkpt>
      <trkpt lat="44.1575" lon="5.02458">
        <ele>443.7</ele>
        <time>2020-09-08T11:21:15Z</time>
      </trkpt>
      <trkpt lat="44.15751" lon="5.02458">
        <ele>442.8</ele>
        <time>2020-09-08T11:21:16Z</time>
      </trkpt>
      <trkpt lat="44.15751" lon="5.02457">
        <ele>442.7</ele>
        <time>2020-09-08T11:21:17Z</time>
      </trkpt>
      <trkpt lat="44.15752" lon="5.02456">
        <ele>442.4</ele>
        <time>2020-09-08T11:21:18Z</time>
      </trkpt>
      <trkpt lat="44.15752" lon="5.02456">
        <ele>441.9</ele>
        <time>2020-09-08T11:21:19Z</time>
      </trkpt>
      <trkpt lat="44.15753" lon="5.02455">
        <ele>441.4</ele>
        <time>2020-09-08T11:21:20Z</time>
      </trkpt>
      <trkpt lat="44.15754" lon="5.02455">
        <ele>440.3</ele>
        <time>2020-09-08T11:21:21Z</time>
      </trkpt>
      <trkpt lat="44.15755" lon="5.02455">
        <ele>440.2</ele>
        <time>2020-09-08T11:21:22Z</time>
      </trkpt>
      <trkpt lat="44.15756" lon="5.02455">
        <ele>439.9</ele>
        <time>2020-09-08T11:21:23Z</time>
      </trkpt>
      <trkpt lat="44.15756" lon="5.02455">
        <ele>439.4</ele>
        <time>2020-09-08T11:21:24Z</time>
      </trkpt>
      <trkpt lat="44.15757" lon="5.02456">
        <ele>439.5</ele>
        <time>2020-09-08T11:21:25Z</time>
      </trkpt>
      <trkpt lat="44.15757" lon="5.02456">
        <ele>439.6</ele>
        <time>2020-09-08T11:21:26Z</time>
      </trkpt>
      <trkpt lat="44.15757" lon="5.02456">
        <ele>439.1</ele>
        <time>2020-09-08T11:21:27Z</time>
      </trkpt>
      <trkpt lat="44.15758" lon="5.02455">
        <ele>439</ele>
        <time>2020-09-08T11:21:28Z</time>
      </trkpt>
      <trkpt lat="44.15759" lon="5.02455">
        <ele>438.7</ele>
        <time>2020-09-08T11:21:29Z</time>
      </trkpt>
      <trkpt lat="44.15761" lon="5.02454">
        <ele>438</ele>
        <time>2020-09-08T11:21:30Z</time>
      </trkpt>
      <trkpt lat="44.15762" lon="5.02453">
        <ele>437.1</ele>
        <time>2020-09-08T11:21:31Z</time>
      </trkpt>
      <trkpt lat="44.15763" lon="5.02452">
        <ele>437.4</ele>
        <time>2020-09-08T11:21:32Z</time>
      </trkpt>
      <trkpt lat="44.15764" lon="5.02452">
        <ele>437.1</ele>
        <time>2020-09-08T11:21:33Z</time>
      </trkpt>
      <trkpt lat="44.15764" lon="5.02452">
        <ele>436.8</ele>
        <time>2020-09-08T11:21:34Z</time>
      </trkpt>
      <trkpt lat="44.15765" lon="5.02452">
        <ele>436.7</ele>
        <time>2020-09-08T11:21:35Z</time>
      </trkpt>
      <trkpt lat="44.15765" lon="5.02452">
        <ele>435.6</ele>
        <time>2020-09-08T11:21:36Z</time>
      </trkpt>
      <trkpt lat="44.15766" lon="5.02452">
        <ele>435.3</ele>
        <time>2020-09-08T11:21:37Z</time>
      </trkpt>
      <trkpt lat="44.15766" lon="5.02453">
        <ele>435.4</ele>
        <time>2020-09-08T11:21:38Z</time>
      </trkpt>
      <trkpt lat="44.15767" lon="5.02452">
        <ele>434.9</ele>
        <time>2020-09-08T11:21:39Z</time>
      </trkpt>
      <trkpt lat="44.15767" lon="5.02453">
        <ele>434.6</ele>
        <time>2020-09-08T11:21:40Z</time>
      </trkpt>
      <trkpt lat="44.15768" lon="5.02453">
        <ele>434.7</ele>
        <time>2020-09-08T11:21:41Z</time>
      </trkpt>
      <trkpt lat="44.15769" lon="5.02452">
        <ele>434.2</ele>
        <time>2020-09-08T11:21:42Z</time>
      </trkpt>
      <trkpt lat="44.1577" lon="5.02452">
        <ele>433.7</ele>
        <time>2020-09-08T11:21:43Z</time>
      </trkpt>
      <trkpt lat="44.15771" lon="5.02453">
        <ele>432.4</ele>
        <time>2020-09-08T11:21:44Z</time>
      </trkpt>
      <trkpt lat="44.15772" lon="5.02453">
        <ele>432.9</ele>
        <time>2020-09-08T11:21:45Z</time>
      </trkpt>
      <trkpt lat="44.15773" lon="5.02454">
        <ele>431.6</ele>
        <time>2020-09-08T11:21:46Z</time>
      </trkpt>
      <trkpt lat="44.15774" lon="5.02453">
        <ele>432.5</ele>
        <time>2020-09-08T11:21:47Z</time>
      </trkpt>
      <trkpt lat="44.15774" lon="5.02454">
        <ele>432.4</ele>
        <time>2020-09-08T11:21:48Z</time>
      </trkpt>
      <trkpt lat="44.15775" lon="5.02455">
        <ele>431.7</ele>
        <time>2020-09-08T11:21:49Z</time>
      </trkpt>
      <trkpt lat="44.15776" lon="5.02454">
        <ele>432</ele>
        <time>2020-09-08T11:21:50Z</time>
      </trkpt>
      <trkpt lat="44.15777" lon="5.02453">
        <ele>431.5</ele>
        <time>2020-09-08T11:21:51Z</time>
      </trkpt>
      <trkpt lat="44.15778" lon="5.02452">
        <ele>430.8</ele>
        <time>2020-09-08T11:21:52Z</time>
      </trkpt>
      <trkpt lat="44.1578" lon="5.02453">
        <ele>429.9</ele>
        <time>2020-09-08T11:21:53Z</time>
      </trkpt>
      <trkpt lat="44.15781" lon="5.02452">
        <ele>429.2</ele>
        <time>2020-09-08T11:21:54Z</time>
      </trkpt>
      <trkpt lat="44.15782" lon="5.02452">
        <ele>428.7</ele>
        <time>2020-09-08T11:21:55Z</time>
      </trkpt>
      <trkpt lat="44.15782" lon="5.02452">
        <ele>428.4</ele>
        <time>2020-09-08T11:21:56Z</time>
      </trkpt>
      <trkpt lat="44.15783" lon="5.02452">
        <ele>428.7</ele>
        <time>2020-09-08T11:21:57Z</time>
      </trkpt>
      <trkpt lat="44.15784" lon="5.02452">
        <ele>428.2</ele>
        <time>2020-09-08T11:21:58Z</time>
      </trkpt>
      <trkpt lat="44.15784" lon="5.02452">
        <ele>428.5</ele>
        <time>2020-09-08T11:21:59Z</time>
      </trkpt>
      <trkpt lat="44.15785" lon="5.02452">
        <ele>426.4</ele>
        <time>2020-09-08T11:22:00Z</time>
      </trkpt>
      <trkpt lat="44.15786" lon="5.02452">
        <ele>426.9</ele>
        <time>2020-09-08T11:22:01Z</time>
      </trkpt>
      <trkpt lat="44.15787" lon="5.02452">
        <ele>425.8</ele>
        <time>2020-09-08T11:22:02Z</time>
      </trkpt>
      <trkpt lat="44.15787" lon="5.02451">
        <ele>426.3</ele>
        <time>2020-09-08T11:22:03Z</time>
      </trkpt>
      <trkpt lat="44.15787" lon="5.0245">
        <ele>425.8</ele>
        <time>2020-09-08T11:22:04Z</time>
      </trkpt>
      <trkpt lat="44.15789" lon="5.0245">
        <ele>426.1</ele>
        <time>2020-09-08T11:22:05Z</time>
      </trkpt>
      <trkpt lat="44.1579" lon="5.0245">
        <ele>425.6</ele>
        <time>2020-09-08T11:22:06Z</time>
      </trkpt>
      <trkpt lat="44.1579" lon="5.0245">
        <ele>425.3</ele>
        <time>2020-09-08T11:22:07Z</time>
      </trkpt>
      <trkpt lat="44.15791" lon="5.02449">
        <ele>425.2</ele>
        <time>2020-09-08T11:22:08Z</time>
      </trkpt>
      <trkpt lat="44.15791" lon="5.02448">
        <ele>424.9</ele>
        <time>2020-09-08T11:22:09Z</time>
      </trkpt>
      <trkpt lat="44.15792" lon="5.02448">
        <ele>424.6</ele>
        <time>2020-09-08T11:22:10Z</time>
      </trkpt>
      <trkpt lat="44.15792" lon="5.02447">
        <ele>424.5</ele>
        <time>2020-09-08T11:22:11Z</time>
      </trkpt>
      <trkpt lat="44.15792" lon="5.02447">
        <ele>424.2</ele>
        <time>2020-09-08T11:22:12Z</time>
      </trkpt>
      <trkpt lat="44.15793" lon="5.02447">
        <ele>424.3</ele>
        <time>2020-09-08T11:22:13Z</time>
      </trkpt>
      <trkpt lat="44.15794" lon="5.02447">
        <ele>423.6</ele>
        <time>2020-09-08T11:22:14Z</time>
      </trkpt>
      <trkpt lat="44.15794" lon="5.02447">
        <ele>423.5</ele>
        <time>2020-09-08T11:22:15Z</time>
      </trkpt>
      <trkpt lat="44.15796" lon="5.02446">
        <ele>423.8</ele>
        <time>2020-09-08T11:22:16Z</time>
      </trkpt>
      <trkpt lat="44.15797" lon="5.02447">
        <ele>423.1</ele>
        <time>2020-09-08T11:22:17Z</time>
      </trkpt>
      <trkpt lat="44.15798" lon="5.02446">
        <ele>422.9</ele>
        <time>2020-09-08T11:22:18Z</time>
      </trkpt>
      <trkpt lat="44.15798" lon="5.02446">
        <ele>422.9</ele>
        <time>2020-09-08T11:22:19Z</time>
      </trkpt>
      <trkpt lat="44.15798" lon="5.02446">
        <ele>422.8</ele>
        <time>2020-09-08T11:22:20Z</time>
      </trkpt>
      <trkpt lat="44.15798" lon="5.02445">
        <ele>422.8</ele>
        <time>2020-09-08T11:22:21Z</time>
      </trkpt>
      <trkpt lat="44.15798" lon="5.02445">
        <ele>422.7</ele>
        <time>2020-09-08T11:22:22Z</time>
      </trkpt>
      <trkpt lat="44.15798" lon="5.02445">
        <ele>422.7</ele>
        <time>2020-09-08T11:22:23Z</time>
      </trkpt>
      <trkpt lat="44.15798" lon="5.02444">
        <ele>422.6</ele>
        <time>2020-09-08T11:22:24Z</time>
      </trkpt>
      <trkpt lat="44.15798" lon="5.02444">
        <ele>422.6</ele>
        <time>2020-09-08T11:22:25Z</time>
      </trkpt>
      <trkpt lat="44.15798" lon="5.02444">
        <ele>422.5</ele>
        <time>2020-09-08T11:22:26Z</time>
      </trkpt>
      <trkpt lat="44.15798" lon="5.02443">
        <ele>422.5</ele>
        <time>2020-09-08T11:22:27Z</time>
      </trkpt>
      <trkpt lat="44.15798" lon="5.02443">
        <ele>422.4</ele>
        <time>2020-09-08T11:22:28Z</time>
      </trkpt>
      <trkpt lat="44.15798" lon="5.02443">
        <ele>422.4</ele>
        <time>2020-09-08T11:22:29Z</time>
      </trkpt>
      <trkpt lat="44.15798" lon="5.02442">
        <ele>422.3</ele>
        <time>2020-09-08T11:22:30Z</time>
      </trkpt>
      <trkpt lat="44.15798" lon="5.02442">
        <ele>422.3</ele>
        <time>2020-09-08T11:22:31Z</time>
      </trkpt>
      <trkpt lat="44.15798" lon="5.02442">
        <ele>422.2</ele>
        <time>2020-09-08T11:22:32Z</time>
      </trkpt>
      <trkpt lat="44.15798" lon="5.02441">
        <ele>422.1</ele>
        <time>2020-09-08T11:22:33Z</time>
      </trkpt>
      <trkpt lat="44.15798" lon="5.02441">
        <ele>422.1</ele>
        <time>2020-09-08T11:22:34Z</time>
      </trkpt>
      <trkpt lat="44.15799" lon="5.02441">
        <ele>422</ele>
        <time>2020-09-08T11:22:35Z</time>
      </trkpt>
      <trkpt lat="44.15799" lon="5.02442">
        <ele>421.9</ele>
        <time>2020-09-08T11:22:36Z</time>
      </trkpt>
      <trkpt lat="44.15799" lon="5.02442">
        <ele>421.8</ele>
        <time>2020-09-08T11:22:37Z</time>
      </trkpt>
      <trkpt lat="44.158" lon="5.02442">
        <ele>421.7</ele>
        <time>2020-09-08T11:22:38Z</time>
      </trkpt>
      <trkpt lat="44.158" lon="5.02443">
        <ele>421.6</ele>
        <time>2020-09-08T11:22:39Z</time>
      </trkpt>
      <trkpt lat="44.158" lon="5.02443">
        <ele>421.6</ele>
        <time>2020-09-08T11:22:40Z</time>
      </trkpt>
      <trkpt lat="44.15801" lon="5.02443">
        <ele>421.5</ele>
        <time>2020-09-08T11:22:41Z</time>
      </trkpt>
      <trkpt lat="44.15801" lon="5.02444">
        <ele>421.4</ele>
        <time>2020-09-08T11:22:42Z</time>
      </trkpt>
      <trkpt lat="44.15801" lon="5.02444">
        <ele>421.3</ele>
        <time>2020-09-08T11:22:43Z</time>
      </trkpt>
      <trkpt lat="44.15801" lon="5.02442">
        <ele>421</ele>
        <time>2020-09-08T11:22:44Z</time>
      </trkpt>
      <trkpt lat="44.15802" lon="5.02441">
        <ele>420.7</ele>
        <time>2020-09-08T11:22:45Z</time>
      </trkpt>
      <trkpt lat="44.15802" lon="5.0244">
        <ele>420.6</ele>
        <time>2020-09-08T11:22:46Z</time>
      </trkpt>
      <trkpt lat="44.15803" lon="5.02441">
        <ele>420.3</ele>
        <time>2020-09-08T11:22:47Z</time>
      </trkpt>
      <trkpt lat="44.15804" lon="5.02442">
        <ele>420</ele>
        <time>2020-09-08T11:22:48Z</time>
      </trkpt>
      <trkpt lat="44.15805" lon="5.02441">
        <ele>419.8</ele>
        <time>2020-09-08T11:22:49Z</time>
      </trkpt>
      <trkpt lat="44.15806" lon="5.0244">
        <ele>419.5</ele>
        <time>2020-09-08T11:22:50Z</time>
      </trkpt>
      <trkpt lat="44.15807" lon="5.02441">
        <ele>419.4</ele>
        <time>2020-09-08T11:22:51Z</time>
      </trkpt>
      <trkpt lat="44.15807" lon="5.02441">
        <ele>419.2</ele>
        <time>2020-09-08T11:22:52Z</time>
      </trkpt>
      <trkpt lat="44.15808" lon="5.02441">
        <ele>419.1</ele>
        <time>2020-09-08T11:22:53Z</time>
      </trkpt>
      <trkpt lat="44.15807" lon="5.02441">
        <ele>419.1</ele>
        <time>2020-09-08T11:22:54Z</time>
      </trkpt>
      <trkpt lat="44.15808" lon="5.02442">
        <ele>418.9</ele>
        <time>2020-09-08T11:22:55Z</time>
      </trkpt>
      <trkpt lat="44.15809" lon="5.02442">
        <ele>418.6</ele>
        <time>2020-09-08T11:22:56Z</time>
      </trkpt>
      <trkpt lat="44.1581" lon="5.02442">
        <ele>418.4</ele>
        <time>2020-09-08T11:22:57Z</time>
      </trkpt>
      <trkpt lat="44.15811" lon="5.02442">
        <ele>418.2</ele>
        <time>2020-09-08T11:22:58Z</time>
      </trkpt>
      <trkpt lat="44.15812" lon="5.02442">
        <ele>417.9</ele>
        <time>2020-09-08T11:22:59Z</time>
      </trkpt>
      <trkpt lat="44.15813" lon="5.02442">
        <ele>417.7</ele>
        <time>2020-09-08T11:23:00Z</time>
      </trkpt>
      <trkpt lat="44.15814" lon="5.0244">
        <ele>417.3</ele>
        <time>2020-09-08T11:23:01Z</time>
      </trkpt>
      <trkpt lat="44.15814" lon="5.02439">
        <ele>417.1</ele>
        <time>2020-09-08T11:23:02Z</time>
      </trkpt>
      <trkpt lat="44.15814" lon="5.02438">
        <ele>416.9</ele>
        <time>2020-09-08T11:23:03Z</time>
      </trkpt>
      <trkpt lat="44.15814" lon="5.02436">
        <ele>416.5</ele>
        <time>2020-09-08T11:23:04Z</time>
      </trkpt>
      <trkpt lat="44.15815" lon="5.02436">
        <ele>416.4</ele>
        <time>2020-09-08T11:23:05Z</time>
      </trkpt>
      <trkpt lat="44.15815" lon="5.02435">
        <ele>416.2</ele>
        <time>2020-09-08T11:23:06Z</time>
      </trkpt>
      <trkpt lat="44.15816" lon="5.02434">
        <ele>415.9</ele>
        <time>2020-09-08T11:23:07Z</time>
      </trkpt>
      <trkpt lat="44.15816" lon="5.02433">
        <ele>415.7</ele>
        <time>2020-09-08T11:23:08Z</time>
      </trkpt>
      <trkpt lat="44.15816" lon="5.02433">
        <ele>415.7</ele>
        <time>2020-09-08T11:23:09Z</time>
      </trkpt>
      <trkpt lat="44.15817" lon="5.02432">
        <ele>415.6</ele>
        <time>2020-09-08T11:23:10Z</time>
      </trkpt>
      <trkpt lat="44.15817" lon="5.02431">
        <ele>415.4</ele>
        <time>2020-09-08T11:23:11Z</time>
      </trkpt>
      <trkpt lat="44.15817" lon="5.02431">
        <ele>415.2</ele>
        <time>2020-09-08T11:23:12Z</time>
      </trkpt>
      <trkpt lat="44.15818" lon="5.02431">
        <ele>415</ele>
        <time>2020-09-08T11:23:13Z</time>
      </trkpt>
      <trkpt lat="44.15819" lon="5.02429">
        <ele>414.6</ele>
        <time>2020-09-08T11:23:14Z</time>
      </trkpt>
      <trkpt lat="44.1582" lon="5.02429">
        <ele>414.5</ele>
        <time>2020-09-08T11:23:15Z</time>
      </trkpt>
      <trkpt lat="44.1582" lon="5.02428">
        <ele>414.3</ele>
        <time>2020-09-08T11:23:16Z</time>
      </trkpt>
      <trkpt lat="44.15821" lon="5.02428">
        <ele>414.1</ele>
        <time>2020-09-08T11:23:17Z</time>
      </trkpt>
      <trkpt lat="44.15822" lon="5.02428">
        <ele>413.9</ele>
        <time>2020-09-08T11:23:18Z</time>
      </trkpt>
      <trkpt lat="44.15822" lon="5.02427">
        <ele>413.7</ele>
        <time>2020-09-08T11:23:19Z</time>
      </trkpt>
      <trkpt lat="44.15822" lon="5.02427">
        <ele>413.6</ele>
        <time>2020-09-08T11:23:20Z</time>
      </trkpt>
      <trkpt lat="44.15822" lon="5.02427">
        <ele>413.4</ele>
        <time>2020-09-08T11:23:21Z</time>
      </trkpt>
      <trkpt lat="44.15822" lon="5.02426">
        <ele>413.3</ele>
        <time>2020-09-08T11:23:22Z</time>
      </trkpt>
      <trkpt lat="44.15824" lon="5.02425">
        <ele>412.8</ele>
        <time>2020-09-08T11:23:23Z</time>
      </trkpt>
      <trkpt lat="44.15824" lon="5.02427">
        <ele>412.5</ele>
        <time>2020-09-08T11:23:24Z</time>
      </trkpt>
      <trkpt lat="44.15826" lon="5.02427">
        <ele>412.1</ele>
        <time>2020-09-08T11:23:25Z</time>
      </trkpt>
      <trkpt lat="44.15827" lon="5.02426">
        <ele>411.7</ele>
        <time>2020-09-08T11:23:26Z</time>
      </trkpt>
      <trkpt lat="44.15828" lon="5.02426">
        <ele>411.4</ele>
        <time>2020-09-08T11:23:27Z</time>
      </trkpt>
      <trkpt lat="44.15829" lon="5.02426">
        <ele>411.2</ele>
        <time>2020-09-08T11:23:28Z</time>
      </trkpt>
      <trkpt lat="44.15829" lon="5.02424">
        <ele>411</ele>
        <time>2020-09-08T11:23:29Z</time>
      </trkpt>
      <trkpt lat="44.1583" lon="5.02425">
        <ele>410.8</ele>
        <time>2020-09-08T11:23:30Z</time>
      </trkpt>
      <trkpt lat="44.1583" lon="5.02425">
        <ele>410.7</ele>
        <time>2020-09-08T11:23:31Z</time>
      </trkpt>
      <trkpt lat="44.1583" lon="5.02424">
        <ele>410.5</ele>
        <time>2020-09-08T11:23:32Z</time>
      </trkpt>
      <trkpt lat="44.15832" lon="5.02424">
        <ele>410.1</ele>
        <time>2020-09-08T11:23:33Z</time>
      </trkpt>
      <trkpt lat="44.15832" lon="5.02424">
        <ele>409.9</ele>
        <time>2020-09-08T11:23:34Z</time>
      </trkpt>
      <trkpt lat="44.15832" lon="5.02425">
        <ele>409.7</ele>
        <time>2020-09-08T11:23:35Z</time>
      </trkpt>
      <trkpt lat="44.15834" lon="5.02425">
        <ele>409.4</ele>
        <time>2020-09-08T11:23:36Z</time>
      </trkpt>
      <trkpt lat="44.15836" lon="5.02425">
        <ele>408.9</ele>
        <time>2020-09-08T11:23:37Z</time>
      </trkpt>
      <trkpt lat="44.15836" lon="5.02426">
        <ele>408.7</ele>
        <time>2020-09-08T11:23:38Z</time>
      </trkpt>
      <trkpt lat="44.15837" lon="5.02426">
        <ele>408.5</ele>
        <time>2020-09-08T11:23:39Z</time>
      </trkpt>
      <trkpt lat="44.15839" lon="5.02426">
        <ele>408</ele>
        <time>2020-09-08T11:23:40Z</time>
      </trkpt>
      <trkpt lat="44.1584" lon="5.02428">
        <ele>407.6</ele>
        <time>2020-09-08T11:23:41Z</time>
      </trkpt>
      <trkpt lat="44.1584" lon="5.02427">
        <ele>407.6</ele>
        <time>2020-09-08T11:23:42Z</time>
      </trkpt>
      <trkpt lat="44.15841" lon="5.02428">
        <ele>407.4</ele>
        <time>2020-09-08T11:23:43Z</time>
      </trkpt>
      <trkpt lat="44.15842" lon="5.02429">
        <ele>407.3</ele>
        <time>2020-09-08T11:23:44Z</time>
      </trkpt>
      <trkpt lat="44.15843" lon="5.02429">
        <ele>407</ele>
        <time>2020-09-08T11:23:45Z</time>
      </trkpt>
      <trkpt lat="44.15844" lon="5.0243">
        <ele>406.7</ele>
        <time>2020-09-08T11:23:46Z</time>
      </trkpt>
      <trkpt lat="44.15845" lon="5.0243">
        <ele>406.5</ele>
        <time>2020-09-08T11:23:47Z</time>
      </trkpt>
      <trkpt lat="44.15846" lon="5.02431">
        <ele>406.3</ele>
        <time>2020-09-08T11:23:48Z</time>
      </trkpt>
      <trkpt lat="44.15848" lon="5.02432">
        <ele>406</ele>
        <time>2020-09-08T11:23:49Z</time>
      </trkpt>
      <trkpt lat="44.15849" lon="5.02432">
        <ele>405.7</ele>
        <time>2020-09-08T11:23:50Z</time>
      </trkpt>
      <trkpt lat="44.15849" lon="5.02433">
        <ele>405.6</ele>
        <time>2020-09-08T11:23:51Z</time>
      </trkpt>
      <trkpt lat="44.1585" lon="5.02435">
        <ele>405.3</ele>
        <time>2020-09-08T11:23:52Z</time>
      </trkpt>
      <trkpt lat="44.15851" lon="5.02435">
        <ele>405.2</ele>
        <time>2020-09-08T11:23:53Z</time>
      </trkpt>
      <trkpt lat="44.15851" lon="5.02436">
        <ele>405</ele>
        <time>2020-09-08T11:23:54Z</time>
      </trkpt>
      <trkpt lat="44.15853" lon="5.02436">
        <ele>404.7</ele>
        <time>2020-09-08T11:23:55Z</time>
      </trkpt>
      <trkpt lat="44.15854" lon="5.02438">
        <ele>404.4</ele>
        <time>2020-09-08T11:23:56Z</time>
      </trkpt>
      <trkpt lat="44.15854" lon="5.02438">
        <ele>404.3</ele>
        <time>2020-09-08T11:23:57Z</time>
      </trkpt>
      <trkpt lat="44.15856" lon="5.02439">
        <ele>404</ele>
        <time>2020-09-08T11:23:58Z</time>
      </trkpt>
      <trkpt lat="44.15858" lon="5.02438">
        <ele>403.6</ele>
        <time>2020-09-08T11:23:59Z</time>
      </trkpt>
      <trkpt lat="44.15858" lon="5.02438">
        <ele>403.5</ele>
        <time>2020-09-08T11:24:00Z</time>
      </trkpt>
      <trkpt lat="44.15859" lon="5.02438">
        <ele>403.3</ele>
        <time>2020-09-08T11:24:01Z</time>
      </trkpt>
      <trkpt lat="44.15862" lon="5.02439">
        <ele>402.8</ele>
        <time>2020-09-08T11:24:02Z</time>
      </trkpt>
      <trkpt lat="44.15863" lon="5.0244">
        <ele>402.6</ele>
        <time>2020-09-08T11:24:03Z</time>
      </trkpt>
      <trkpt lat="44.15863" lon="5.02441">
        <ele>402.4</ele>
        <time>2020-09-08T11:24:04Z</time>
      </trkpt>
      <trkpt lat="44.15864" lon="5.02442">
        <ele>402.3</ele>
        <time>2020-09-08T11:24:05Z</time>
      </trkpt>
      <trkpt lat="44.15864" lon="5.02442">
        <ele>402.2</ele>
        <time>2020-09-08T11:24:06Z</time>
      </trkpt>
      <trkpt lat="44.15865" lon="5.02442">
        <ele>402.1</ele>
        <time>2020-09-08T11:24:07Z</time>
      </trkpt>
      <trkpt lat="44.15866" lon="5.02443">
        <ele>401.9</ele>
        <time>2020-09-08T11:24:08Z</time>
      </trkpt>
      <trkpt lat="44.15866" lon="5.02443">
        <ele>401.9</ele>
        <time>2020-09-08T11:24:09Z</time>
      </trkpt>
      <trkpt lat="44.15866" lon="5.02444">
        <ele>401.8</ele>
        <time>2020-09-08T11:24:10Z</time>
      </trkpt>
      <trkpt lat="44.15866" lon="5.02445">
        <ele>401.6</ele>
        <time>2020-09-08T11:24:11Z</time>
      </trkpt>
      <trkpt lat="44.15867" lon="5.02446">
        <ele>401.4</ele>
        <time>2020-09-08T11:24:12Z</time>
      </trkpt>
      <trkpt lat="44.15868" lon="5.02448">
        <ele>401.1</ele>
        <time>2020-09-08T11:24:13Z</time>
      </trkpt>
      <trkpt lat="44.1587" lon="5.02448">
        <ele>400.8</ele>
        <time>2020-09-08T11:24:14Z</time>
      </trkpt>
      <trkpt lat="44.15871" lon="5.02448">
        <ele>400.7</ele>
        <time>2020-09-08T11:24:15Z</time>
      </trkpt>
      <trkpt lat="44.15872" lon="5.02449">
        <ele>400.5</ele>
        <time>2020-09-08T11:24:16Z</time>
      </trkpt>
      <trkpt lat="44.15873" lon="5.0245">
        <ele>400.3</ele>
        <time>2020-09-08T11:24:17Z</time>
      </trkpt>
      <trkpt lat="44.15873" lon="5.0245">
        <ele>400.3</ele>
        <time>2020-09-08T11:24:18Z</time>
      </trkpt>
      <trkpt lat="44.15873" lon="5.0245">
        <ele>400.3</ele>
        <time>2020-09-08T11:24:19Z</time>
      </trkpt>
      <trkpt lat="44.15873" lon="5.0245">
        <ele>400.3</ele>
        <time>2020-09-08T11:24:20Z</time>
      </trkpt>
      <trkpt lat="44.15873" lon="5.0245">
        <ele>400.2</ele>
        <time>2020-09-08T11:24:21Z</time>
      </trkpt>
      <trkpt lat="44.15873" lon="5.0245">
        <ele>400.2</ele>
        <time>2020-09-08T11:24:22Z</time>
      </trkpt>
      <trkpt lat="44.15873" lon="5.0245">
        <ele>400.2</ele>
        <time>2020-09-08T11:24:23Z</time>
      </trkpt>
      <trkpt lat="44.15873" lon="5.0245">
        <ele>400.2</ele>
        <time>2020-09-08T11:24:24Z</time>
      </trkpt>
      <trkpt lat="44.15873" lon="5.0245">
        <ele>400.2</ele>
        <time>2020-09-08T11:24:25Z</time>
      </trkpt>
      <trkpt lat="44.15873" lon="5.0245">
        <ele>400.2</ele>
        <time>2020-09-08T11:24:26Z</time>
      </trkpt>
      <trkpt lat="44.15873" lon="5.0245">
        <ele>400.2</ele>
        <time>2020-09-08T11:24:27Z</time>
      </trkpt>
      <trkpt lat="44.15873" lon="5.0245">
        <ele>400.2</ele>
        <time>2020-09-08T11:24:28Z</time>
      </trkpt>
      <trkpt lat="44.15874" lon="5.0245">
        <ele>400.1</ele>
        <time>2020-09-08T11:24:29Z</time>
      </trkpt>
      <trkpt lat="44.15874" lon="5.0245">
        <ele>400.1</ele>
        <time>2020-09-08T11:24:30Z</time>
      </trkpt>
      <trkpt lat="44.15874" lon="5.0245">
        <ele>400.1</ele>
        <time>2020-09-08T11:24:31Z</time>
      </trkpt>
      <trkpt lat="44.15874" lon="5.0245">
        <ele>400.1</ele>
        <time>2020-09-08T11:24:32Z</time>
      </trkpt>
      <trkpt lat="44.15874" lon="5.0245">
        <ele>400.1</ele>
        <time>2020-09-08T11:24:33Z</time>
      </trkpt>
      <trkpt lat="44.15874" lon="5.0245">
        <ele>400.1</ele>
        <time>2020-09-08T11:24:34Z</time>
      </trkpt>
      <trkpt lat="44.15874" lon="5.0245">
        <ele>400.1</ele>
        <time>2020-09-08T11:24:35Z</time>
      </trkpt>
      <trkpt lat="44.15874" lon="5.0245">
        <ele>400.1</ele>
        <time>2020-09-08T11:24:36Z</time>
      </trkpt>
      <trkpt lat="44.15874" lon="5.0245">
        <ele>400.1</ele>
        <time>2020-09-08T11:24:37Z</time>
      </trkpt>
      <trkpt lat="44.15874" lon="5.0245">
        <ele>400.1</ele>
        <time>2020-09-08T11:24:38Z</time>
      </trkpt>
      <trkpt lat="44.15874" lon="5.0245">
        <ele>400</ele>
        <time>2020-09-08T11:24:39Z</time>
      </trkpt>
      <trkpt lat="44.15874" lon="5.0245">
        <ele>400</ele>
        <time>2020-09-08T11:24:40Z</time>
      </trkpt>
      <trkpt lat="44.15874" lon="5.0245">
        <ele>400</ele>
        <time>2020-09-08T11:24:41Z</time>
      </trkpt>
      <trkpt lat="44.15874" lon="5.0245">
        <ele>400</ele>
        <time>2020-09-08T11:24:42Z</time>
      </trkpt>
      <trkpt lat="44.15874" lon="5.0245">
        <ele>400</ele>
        <time>2020-09-08T11:24:43Z</time>
      </trkpt>
      <trkpt lat="44.15874" lon="5.0245">
        <ele>400</ele>
        <time>2020-09-08T11:24:44Z</time>
      </trkpt>
      <trkpt lat="44.15875" lon="5.0245">
        <ele>400</ele>
        <time>2020-09-08T11:24:45Z</time>
      </trkpt>
      <trkpt lat="44.15875" lon="5.0245">
        <ele>400</ele>
        <time>2020-09-08T11:24:46Z</time>
      </trkpt>
      <trkpt lat="44.15875" lon="5.0245">
        <ele>400</ele>
        <time>2020-09-08T11:24:47Z</time>
      </trkpt>
      <trkpt lat="44.15875" lon="5.0245">
        <ele>399.9</ele>
        <time>2020-09-08T11:24:48Z</time>
      </trkpt>
      <trkpt lat="44.15875" lon="5.0245">
        <ele>399.9</ele>
        <time>2020-09-08T11:24:49Z</time>
      </trkpt>
      <trkpt lat="44.15875" lon="5.02449">
        <ele>399.9</ele>
        <time>2020-09-08T11:24:50Z</time>
      </trkpt>
      <trkpt lat="44.15875" lon="5.02449">
        <ele>399.9</ele>
        <time>2020-09-08T11:24:51Z</time>
      </trkpt>
      <trkpt lat="44.15875" lon="5.02449">
        <ele>399.9</ele>
        <time>2020-09-08T11:24:52Z</time>
      </trkpt>
      <trkpt lat="44.15875" lon="5.02449">
        <ele>399.9</ele>
        <time>2020-09-08T11:24:53Z</time>
      </trkpt>
      <trkpt lat="44.15875" lon="5.02449">
        <ele>398.9</ele>
        <time>2020-09-08T11:24:54Z</time>
      </trkpt>
      <trkpt lat="44.15875" lon="5.02449">
        <ele>398.9</ele>
        <time>2020-09-08T11:24:55Z</time>
      </trkpt>
      <trkpt lat="44.15875" lon="5.02449">
        <ele>398.9</ele>
        <time>2020-09-08T11:24:56Z</time>
      </trkpt>
      <trkpt lat="44.15875" lon="5.02449">
        <ele>398.8</ele>
        <time>2020-09-08T11:24:57Z</time>
      </trkpt>
      <trkpt lat="44.15875" lon="5.02449">
        <ele>398.8</ele>
        <time>2020-09-08T11:24:58Z</time>
      </trkpt>
      <trkpt lat="44.15875" lon="5.02449">
        <ele>398.8</ele>
        <time>2020-09-08T11:24:59Z</time>
      </trkpt>
      <trkpt lat="44.15875" lon="5.02449">
        <ele>398.8</ele>
        <time>2020-09-08T11:25:00Z</time>
      </trkpt>
      <trkpt lat="44.15876" lon="5.02449">
        <ele>398.8</ele>
        <time>2020-09-08T11:25:01Z</time>
      </trkpt>
      <trkpt lat="44.15876" lon="5.02449">
        <ele>398.8</ele>
        <time>2020-09-08T11:25:02Z</time>
      </trkpt>
      <trkpt lat="44.15876" lon="5.02449">
        <ele>398.8</ele>
        <time>2020-09-08T11:25:03Z</time>
      </trkpt>
      <trkpt lat="44.15876" lon="5.02449">
        <ele>398.8</ele>
        <time>2020-09-08T11:25:04Z</time>
      </trkpt>
      <trkpt lat="44.15876" lon="5.02449">
        <ele>398.8</ele>
        <time>2020-09-08T11:25:05Z</time>
      </trkpt>
      <trkpt lat="44.15876" lon="5.02449">
        <ele>398.8</ele>
        <time>2020-09-08T11:25:06Z</time>
      </trkpt>
      <trkpt lat="44.15876" lon="5.02449">
        <ele>398.8</ele>
        <time>2020-09-08T11:25:07Z</time>
      </trkpt>
      <trkpt lat="44.15876" lon="5.02449">
        <ele>398.8</ele>
        <time>2020-09-08T11:25:08Z</time>
      </trkpt>
      <trkpt lat="44.15876" lon="5.02449">
        <ele>398.8</ele>
        <time>2020-09-08T11:25:09Z</time>
      </trkpt>
      <trkpt lat="44.15876" lon="5.02449">
        <ele>398.8</ele>
        <time>2020-09-08T11:25:10Z</time>
      </trkpt>
      <trkpt lat="44.15876" lon="5.02449">
        <ele>398.8</ele>
        <time>2020-09-08T11:25:11Z</time>
      </trkpt>
      <trkpt lat="44.15876" lon="5.02449">
        <ele>398.8</ele>
        <time>2020-09-08T11:25:12Z</time>
      </trkpt>
      <trkpt lat="44.15876" lon="5.02449">
        <ele>398.8</ele>
        <time>2020-09-08T11:25:13Z</time>
      </trkpt>
      <trkpt lat="44.15876" lon="5.02449">
        <ele>398.8</ele>
        <time>2020-09-08T11:25:14Z</time>
      </trkpt>
      <trkpt lat="44.15876" lon="5.02449">
        <ele>398.8</ele>
        <time>2020-09-08T11:25:15Z</time>
      </trkpt>
      <trkpt lat="44.15877" lon="5.02449">
        <ele>398.8</ele>
        <time>2020-09-08T11:25:16Z</time>
      </trkpt>
      <trkpt lat="44.15877" lon="5.02449">
        <ele>398.8</ele>
        <time>2020-09-08T11:25:17Z</time>
      </trkpt>
      <trkpt lat="44.15877" lon="5.02449">
        <ele>398.8</ele>
        <time>2020-09-08T11:25:18Z</time>
      </trkpt>
      <trkpt lat="44.15877" lon="5.02449">
        <ele>398.8</ele>
        <time>2020-09-08T11:25:19Z</time>
      </trkpt>
      <trkpt lat="44.15877" lon="5.02449">
        <ele>398.8</ele>
        <time>2020-09-08T11:25:20Z</time>
      </trkpt>
      <trkpt lat="44.15877" lon="5.02449">
        <ele>398.8</ele>
        <time>2020-09-08T11:25:21Z</time>
      </trkpt>
      <trkpt lat="44.15877" lon="5.02449">
        <ele>398.8</ele>
        <time>2020-09-08T11:25:22Z</time>
      </trkpt>
      <trkpt lat="44.15877" lon="5.02449">
        <ele>398.8</ele>
        <time>2020-09-08T11:25:23Z</time>
      </trkpt>
      <trkpt lat="44.15877" lon="5.02449">
        <ele>398.8</ele>
        <time>2020-09-08T11:25:24Z</time>
      </trkpt>
      <trkpt lat="44.15877" lon="5.02449">
        <ele>398.8</ele>
        <time>2020-09-08T11:25:25Z</time>
      </trkpt>
      <trkpt lat="44.15877" lon="5.02449">
        <ele>398.8</ele>
        <time>2020-09-08T11:25:26Z</time>
      </trkpt>
      <trkpt lat="44.15877" lon="5.02448">
        <ele>398.8</ele>
        <time>2020-09-08T11:25:28Z</time>
      </trkpt>
      <trkpt lat="44.15877" lon="5.02448">
        <ele>398.8</ele>
        <time>2020-09-08T11:25:29Z</time>
      </trkpt>
      <trkpt lat="44.15877" lon="5.02448">
        <ele>398.8</ele>
        <time>2020-09-08T11:25:30Z</time>
      </trkpt>
      <trkpt lat="44.15877" lon="5.02448">
        <ele>398.7</ele>
        <time>2020-09-08T11:25:31Z</time>
      </trkpt>
      <trkpt lat="44.15877" lon="5.02448">
        <ele>398.7</ele>
        <time>2020-09-08T11:25:32Z</time>
      </trkpt>
      <trkpt lat="44.15878" lon="5.02448">
        <ele>398.7</ele>
        <time>2020-09-08T11:25:33Z</time>
      </trkpt>
      <trkpt lat="44.15878" lon="5.02448">
        <ele>398.7</ele>
        <time>2020-09-08T11:25:34Z</time>
      </trkpt>
      <trkpt lat="44.15878" lon="5.02448">
        <ele>398.7</ele>
        <time>2020-09-08T11:25:35Z</time>
      </trkpt>
      <trkpt lat="44.15878" lon="5.02448">
        <ele>398.7</ele>
        <time>2020-09-08T11:25:36Z</time>
      </trkpt>
      <trkpt lat="44.15878" lon="5.02448">
        <ele>398.7</ele>
        <time>2020-09-08T11:25:37Z</time>
      </trkpt>
      <trkpt lat="44.15878" lon="5.02448">
        <ele>398.7</ele>
        <time>2020-09-08T11:25:38Z</time>
      </trkpt>
      <trkpt lat="44.15878" lon="5.02448">
        <ele>398.7</ele>
        <time>2020-09-08T11:25:39Z</time>
      </trkpt>
      <trkpt lat="44.15878" lon="5.02448">
        <ele>398.7</ele>
        <time>2020-09-08T11:25:40Z</time>
      </trkpt>
      <trkpt lat="44.15878" lon="5.02448">
        <ele>398.7</ele>
        <time>2020-09-08T11:25:41Z</time>
      </trkpt>
      <trkpt lat="44.15878" lon="5.02448">
        <ele>398.7</ele>
        <time>2020-09-08T11:25:42Z</time>
      </trkpt>
      <trkpt lat="44.15878" lon="5.02448">
        <ele>398.7</ele>
        <time>2020-09-08T11:25:43Z</time>
      </trkpt>
      <trkpt lat="44.15878" lon="5.02448">
        <ele>398.7</ele>
        <time>2020-09-08T11:25:44Z</time>
      </trkpt>
      <trkpt lat="44.15878" lon="5.02448">
        <ele>398.7</ele>
        <time>2020-09-08T11:25:45Z</time>
      </trkpt>
      <trkpt lat="44.15878" lon="5.02448">
        <ele>398.7</ele>
        <time>2020-09-08T11:25:46Z</time>
      </trkpt>
      <trkpt lat="44.15878" lon="5.02448">
        <ele>398.7</ele>
        <time>2020-09-08T11:25:47Z</time>
      </trkpt>
      <trkpt lat="44.15879" lon="5.02448">
        <ele>398.7</ele>
        <time>2020-09-08T11:25:48Z</time>
      </trkpt>
      <trkpt lat="44.15879" lon="5.02448">
        <ele>398.7</ele>
        <time>2020-09-08T11:25:49Z</time>
      </trkpt>
      <trkpt lat="44.15879" lon="5.02448">
        <ele>398.7</ele>
        <time>2020-09-08T11:25:50Z</time>
      </trkpt>
      <trkpt lat="44.15879" lon="5.02448">
        <ele>398.7</ele>
        <time>2020-09-08T11:25:51Z</time>
      </trkpt>
      <trkpt lat="44.15879" lon="5.02448">
        <ele>398.7</ele>
        <time>2020-09-08T11:25:52Z</time>
      </trkpt>
      <trkpt lat="44.15879" lon="5.02448">
        <ele>398.7</ele>
        <time>2020-09-08T11:25:53Z</time>
      </trkpt>
      <trkpt lat="44.15879" lon="5.02448">
        <ele>398.7</ele>
        <time>2020-09-08T11:25:54Z</time>
      </trkpt>
      <trkpt lat="44.15879" lon="5.02448">
        <ele>398.7</ele>
        <time>2020-09-08T11:25:55Z</time>
      </trkpt>
      <trkpt lat="44.15879" lon="5.02448">
        <ele>398.7</ele>
        <time>2020-09-08T11:25:56Z</time>
      </trkpt>
      <trkpt lat="44.15879" lon="5.02448">
        <ele>398.7</ele>
        <time>2020-09-08T11:25:57Z</time>
      </trkpt>
      <trkpt lat="44.15879" lon="5.02448">
        <ele>398.7</ele>
        <time>2020-09-08T11:25:58Z</time>
      </trkpt>
      <trkpt lat="44.15879" lon="5.02448">
        <ele>398.7</ele>
        <time>2020-09-08T11:25:59Z</time>
      </trkpt>
      <trkpt lat="44.15879" lon="5.02448">
        <ele>398.7</ele>
        <time>2020-09-08T11:26:00Z</time>
      </trkpt>
      <trkpt lat="44.15879" lon="5.02448">
        <ele>398.7</ele>
        <time>2020-09-08T11:26:01Z</time>
      </trkpt>
      <trkpt lat="44.15879" lon="5.02448">
        <ele>398.7</ele>
        <time>2020-09-08T11:26:02Z</time>
      </trkpt>
      <trkpt lat="44.15879" lon="5.02448">
        <ele>398.7</ele>
        <time>2020-09-08T11:26:03Z</time>
      </trkpt>
      <trkpt lat="44.1588" lon="5.02448">
        <ele>398.6</ele>
        <time>2020-09-08T11:26:04Z</time>
      </trkpt>
      <trkpt lat="44.1588" lon="5.02448">
        <ele>398.6</ele>
        <time>2020-09-08T11:26:05Z</time>
      </trkpt>
      <trkpt lat="44.1588" lon="5.02447">
        <ele>398.6</ele>
        <time>2020-09-08T11:26:06Z</time>
      </trkpt>
      <trkpt lat="44.1588" lon="5.02447">
        <ele>398.6</ele>
        <time>2020-09-08T11:26:07Z</time>
      </trkpt>
      <trkpt lat="44.1588" lon="5.02447">
        <ele>398.6</ele>
        <time>2020-09-08T11:26:08Z</time>
      </trkpt>
      <trkpt lat="44.1588" lon="5.02447">
        <ele>398.6</ele>
        <time>2020-09-08T11:26:09Z</time>
      </trkpt>
      <trkpt lat="44.1588" lon="5.02447">
        <ele>398.6</ele>
        <time>2020-09-08T11:26:10Z</time>
      </trkpt>
      <trkpt lat="44.1588" lon="5.02447">
        <ele>398.6</ele>
        <time>2020-09-08T11:26:11Z</time>
      </trkpt>
      <trkpt lat="44.1588" lon="5.02447">
        <ele>398.6</ele>
        <time>2020-09-08T11:26:12Z</time>
      </trkpt>
      <trkpt lat="44.1588" lon="5.02447">
        <ele>398.6</ele>
        <time>2020-09-08T11:26:13Z</time>
      </trkpt>
      <trkpt lat="44.1588" lon="5.02447">
        <ele>398.6</ele>
        <time>2020-09-08T11:26:14Z</time>
      </trkpt>
      <trkpt lat="44.1588" lon="5.02447">
        <ele>398.6</ele>
        <time>2020-09-08T11:26:15Z</time>
      </trkpt>
      <trkpt lat="44.1588" lon="5.02447">
        <ele>398.6</ele>
        <time>2020-09-08T11:26:16Z</time>
      </trkpt>
      <trkpt lat="44.1588" lon="5.02447">
        <ele>398.6</ele>
        <time>2020-09-08T11:26:17Z</time>
      </trkpt>
      <trkpt lat="44.1588" lon="5.02447">
        <ele>398.6</ele>
        <time>2020-09-08T11:26:18Z</time>
      </trkpt>
      <trkpt lat="44.1588" lon="5.02447">
        <ele>398.6</ele>
        <time>2020-09-08T11:26:19Z</time>
      </trkpt>
      <trkpt lat="44.15881" lon="5.02447">
        <ele>398.6</ele>
        <time>2020-09-08T11:26:20Z</time>
      </trkpt>
      <trkpt lat="44.15881" lon="5.02447">
        <ele>398.6</ele>
        <time>2020-09-08T11:26:21Z</time>
      </trkpt>
      <trkpt lat="44.15881" lon="5.02447">
        <ele>398.6</ele>
        <time>2020-09-08T11:26:22Z</time>
      </trkpt>
      <trkpt lat="44.15881" lon="5.02447">
        <ele>398.6</ele>
        <time>2020-09-08T11:26:23Z</time>
      </trkpt>
      <trkpt lat="44.15881" lon="5.02447">
        <ele>398.6</ele>
        <time>2020-09-08T11:26:24Z</time>
      </trkpt>
      <trkpt lat="44.15881" lon="5.02447">
        <ele>398.6</ele>
        <time>2020-09-08T11:26:25Z</time>
      </trkpt>
      <trkpt lat="44.15881" lon="5.02447">
        <ele>398.6</ele>
        <time>2020-09-08T11:26:26Z</time>
      </trkpt>
      <trkpt lat="44.15881" lon="5.02447">
        <ele>398.6</ele>
        <time>2020-09-08T11:26:27Z</time>
      </trkpt>
      <trkpt lat="44.15881" lon="5.02447">
        <ele>398.6</ele>
        <time>2020-09-08T11:26:28Z</time>
      </trkpt>
      <trkpt lat="44.15881" lon="5.02447">
        <ele>398.6</ele>
        <time>2020-09-08T11:26:29Z</time>
      </trkpt>
      <trkpt lat="44.15881" lon="5.02447">
        <ele>398.6</ele>
        <time>2020-09-08T11:26:30Z</time>
      </trkpt>
      <trkpt lat="44.15881" lon="5.02447">
        <ele>398.6</ele>
        <time>2020-09-08T11:26:31Z</time>
      </trkpt>
      <trkpt lat="44.15881" lon="5.02447">
        <ele>398.6</ele>
        <time>2020-09-08T11:26:32Z</time>
      </trkpt>
      <trkpt lat="44.15881" lon="5.02447">
        <ele>398.6</ele>
        <time>2020-09-08T11:26:33Z</time>
      </trkpt>
      <trkpt lat="44.15881" lon="5.02447">
        <ele>398.6</ele>
        <time>2020-09-08T11:26:34Z</time>
      </trkpt>
      <trkpt lat="44.15882" lon="5.02447">
        <ele>398.6</ele>
        <time>2020-09-08T11:26:35Z</time>
      </trkpt>
      <trkpt lat="44.15882" lon="5.02447">
        <ele>398.6</ele>
        <time>2020-09-08T11:26:36Z</time>
      </trkpt>
      <trkpt lat="44.15882" lon="5.02447">
        <ele>398.6</ele>
        <time>2020-09-08T11:26:37Z</time>
      </trkpt>
      <trkpt lat="44.15882" lon="5.02447">
        <ele>398.5</ele>
        <time>2020-09-08T11:26:38Z</time>
      </trkpt>
      <trkpt lat="44.15882" lon="5.02447">
        <ele>398.5</ele>
        <time>2020-09-08T11:26:39Z</time>
      </trkpt>
      <trkpt lat="44.15882" lon="5.02447">
        <ele>398.5</ele>
        <time>2020-09-08T11:26:40Z</time>
      </trkpt>
      <trkpt lat="44.15882" lon="5.02447">
        <ele>398.5</ele>
        <time>2020-09-08T11:26:41Z</time>
      </trkpt>
      <trkpt lat="44.15882" lon="5.02447">
        <ele>398.5</ele>
        <time>2020-09-08T11:26:42Z</time>
      </trkpt>
      <trkpt lat="44.15882" lon="5.02447">
        <ele>398.5</ele>
        <time>2020-09-08T11:26:43Z</time>
      </trkpt>
      <trkpt lat="44.15882" lon="5.02446">
        <ele>398.5</ele>
        <time>2020-09-08T11:26:44Z</time>
      </trkpt>
      <trkpt lat="44.15882" lon="5.02446">
        <ele>398.5</ele>
        <time>2020-09-08T11:26:45Z</time>
      </trkpt>
      <trkpt lat="44.15882" lon="5.02446">
        <ele>398.5</ele>
        <time>2020-09-08T11:26:46Z</time>
      </trkpt>
      <trkpt lat="44.15882" lon="5.02446">
        <ele>398.5</ele>
        <time>2020-09-08T11:26:47Z</time>
      </trkpt>
      <trkpt lat="44.15882" lon="5.02446">
        <ele>398.5</ele>
        <time>2020-09-08T11:26:48Z</time>
      </trkpt>
      <trkpt lat="44.15882" lon="5.02446">
        <ele>398.5</ele>
        <time>2020-09-08T11:26:49Z</time>
      </trkpt>
      <trkpt lat="44.15882" lon="5.02446">
        <ele>398.5</ele>
        <time>2020-09-08T11:26:50Z</time>
      </trkpt>
      <trkpt lat="44.15883" lon="5.02446">
        <ele>398.5</ele>
        <time>2020-09-08T11:26:51Z</time>
      </trkpt>
      <trkpt lat="44.15883" lon="5.02446">
        <ele>398.5</ele>
        <time>2020-09-08T11:26:52Z</time>
      </trkpt>
      <trkpt lat="44.15883" lon="5.02446">
        <ele>398.5</ele>
        <time>2020-09-08T11:26:53Z</time>
      </trkpt>
      <trkpt lat="44.15883" lon="5.02446">
        <ele>398.5</ele>
        <time>2020-09-08T11:26:54Z</time>
      </trkpt>
      <trkpt lat="44.15883" lon="5.02446">
        <ele>398.5</ele>
        <time>2020-09-08T11:26:55Z</time>
      </trkpt>
      <trkpt lat="44.15883" lon="5.02446">
        <ele>398.5</ele>
        <time>2020-09-08T11:26:56Z</time>
      </trkpt>
      <trkpt lat="44.15883" lon="5.02446">
        <ele>398.5</ele>
        <time>2020-09-08T11:26:57Z</time>
      </trkpt>
      <trkpt lat="44.15883" lon="5.02446">
        <ele>398.5</ele>
        <time>2020-09-08T11:26:58Z</time>
      </trkpt>
      <trkpt lat="44.15883" lon="5.02446">
        <ele>398.5</ele>
        <time>2020-09-08T11:26:59Z</time>
      </trkpt>
      <trkpt lat="44.15883" lon="5.02446">
        <ele>398.5</ele>
        <time>2020-09-08T11:27:00Z</time>
      </trkpt>
      <trkpt lat="44.15883" lon="5.02446">
        <ele>398.5</ele>
        <time>2020-09-08T11:27:01Z</time>
      </trkpt>
      <trkpt lat="44.15883" lon="5.02446">
        <ele>398.5</ele>
        <time>2020-09-08T11:27:02Z</time>
      </trkpt>
      <trkpt lat="44.15883" lon="5.02446">
        <ele>398.5</ele>
        <time>2020-09-08T11:27:03Z</time>
      </trkpt>
      <trkpt lat="44.15883" lon="5.02446">
        <ele>398.5</ele>
        <time>2020-09-08T11:27:04Z</time>
      </trkpt>
      <trkpt lat="44.15883" lon="5.02446">
        <ele>398.5</ele>
        <time>2020-09-08T11:27:05Z</time>
      </trkpt>
      <trkpt lat="44.15883" lon="5.02446">
        <ele>398.5</ele>
        <time>2020-09-08T11:27:06Z</time>
      </trkpt>
      <trkpt lat="44.15884" lon="5.02446">
        <ele>398.5</ele>
        <time>2020-09-08T11:27:07Z</time>
      </trkpt>
      <trkpt lat="44.15884" lon="5.02446">
        <ele>398.5</ele>
        <time>2020-09-08T11:27:08Z</time>
      </trkpt>
      <trkpt lat="44.15884" lon="5.02446">
        <ele>398.5</ele>
        <time>2020-09-08T11:27:09Z</time>
      </trkpt>
      <trkpt lat="44.15884" lon="5.02446">
        <ele>398.5</ele>
        <time>2020-09-08T11:27:10Z</time>
      </trkpt>
      <trkpt lat="44.15884" lon="5.02446">
        <ele>398.4</ele>
        <time>2020-09-08T11:27:11Z</time>
      </trkpt>
      <trkpt lat="44.15884" lon="5.02446">
        <ele>398.4</ele>
        <time>2020-09-08T11:27:12Z</time>
      </trkpt>
      <trkpt lat="44.15884" lon="5.02446">
        <ele>398.4</ele>
        <time>2020-09-08T11:27:13Z</time>
      </trkpt>
      <trkpt lat="44.15884" lon="5.02446">
        <ele>398.4</ele>
        <time>2020-09-08T11:27:14Z</time>
      </trkpt>
      <trkpt lat="44.15884" lon="5.02446">
        <ele>398.4</ele>
        <time>2020-09-08T11:27:15Z</time>
      </trkpt>
      <trkpt lat="44.15884" lon="5.02446">
        <ele>398.4</ele>
        <time>2020-09-08T11:27:16Z</time>
      </trkpt>
      <trkpt lat="44.15884" lon="5.02446">
        <ele>398.4</ele>
        <time>2020-09-08T11:27:17Z</time>
      </trkpt>
      <trkpt lat="44.15884" lon="5.02446">
        <ele>398.4</ele>
        <time>2020-09-08T11:27:18Z</time>
      </trkpt>
      <trkpt lat="44.15884" lon="5.02446">
        <ele>398.4</ele>
        <time>2020-09-08T11:27:19Z</time>
      </trkpt>
      <trkpt lat="44.15884" lon="5.02446">
        <ele>398.4</ele>
        <time>2020-09-08T11:27:20Z</time>
      </trkpt>
      <trkpt lat="44.15884" lon="5.02446">
        <ele>398.4</ele>
        <time>2020-09-08T11:27:21Z</time>
      </trkpt>
      <trkpt lat="44.15885" lon="5.02445">
        <ele>398.4</ele>
        <time>2020-09-08T11:27:22Z</time>
      </trkpt>
      <trkpt lat="44.15885" lon="5.02445">
        <ele>398.4</ele>
        <time>2020-09-08T11:27:23Z</time>
      </trkpt>
      <trkpt lat="44.15885" lon="5.02445">
        <ele>398.4</ele>
        <time>2020-09-08T11:27:24Z</time>
      </trkpt>
      <trkpt lat="44.15885" lon="5.02445">
        <ele>398.4</ele>
        <time>2020-09-08T11:27:25Z</time>
      </trkpt>
      <trkpt lat="44.15885" lon="5.02445">
        <ele>398.4</ele>
        <time>2020-09-08T11:27:26Z</time>
      </trkpt>
      <trkpt lat="44.15885" lon="5.02445">
        <ele>398.4</ele>
        <time>2020-09-08T11:27:27Z</time>
      </trkpt>
      <trkpt lat="44.15885" lon="5.02445">
        <ele>398.4</ele>
        <time>2020-09-08T11:27:28Z</time>
      </trkpt>
      <trkpt lat="44.15885" lon="5.02445">
        <ele>398.4</ele>
        <time>2020-09-08T11:27:29Z</time>
      </trkpt>
      <trkpt lat="44.15885" lon="5.02445">
        <ele>398.4</ele>
        <time>2020-09-08T11:27:30Z</time>
      </trkpt>
      <trkpt lat="44.15885" lon="5.02445">
        <ele>398.4</ele>
        <time>2020-09-08T11:27:31Z</time>
      </trkpt>
      <trkpt lat="44.15885" lon="5.02445">
        <ele>398.4</ele>
        <time>2020-09-08T11:27:32Z</time>
      </trkpt>
      <trkpt lat="44.15885" lon="5.02445">
        <ele>398.4</ele>
        <time>2020-09-08T11:27:34Z</time>
      </trkpt>
      <trkpt lat="44.15885" lon="5.02445">
        <ele>398.4</ele>
        <time>2020-09-08T11:27:35Z</time>
      </trkpt>
      <trkpt lat="44.15885" lon="5.02445">
        <ele>398.4</ele>
        <time>2020-09-08T11:27:36Z</time>
      </trkpt>
      <trkpt lat="44.15885" lon="5.02445">
        <ele>398.4</ele>
        <time>2020-09-08T11:27:37Z</time>
      </trkpt>
      <trkpt lat="44.15885" lon="5.02445">
        <ele>398.4</ele>
        <time>2020-09-08T11:27:38Z</time>
      </trkpt>
      <trkpt lat="44.15886" lon="5.02445">
        <ele>398.4</ele>
        <time>2020-09-08T11:27:39Z</time>
      </trkpt>
      <trkpt lat="44.15886" lon="5.02445">
        <ele>398.4</ele>
        <time>2020-09-08T11:27:40Z</time>
      </trkpt>
      <trkpt lat="44.15886" lon="5.02445">
        <ele>398.4</ele>
        <time>2020-09-08T11:27:41Z</time>
      </trkpt>
      <trkpt lat="44.15886" lon="5.02445">
        <ele>398.4</ele>
        <time>2020-09-08T11:27:42Z</time>
      </trkpt>
      <trkpt lat="44.15886" lon="5.02445">
        <ele>398.4</ele>
        <time>2020-09-08T11:27:43Z</time>
      </trkpt>
      <trkpt lat="44.15886" lon="5.02445">
        <ele>398.4</ele>
        <time>2020-09-08T11:27:44Z</time>
      </trkpt>
      <trkpt lat="44.15886" lon="5.02445">
        <ele>398.4</ele>
        <time>2020-09-08T11:27:45Z</time>
      </trkpt>
      <trkpt lat="44.15886" lon="5.02445">
        <ele>398.4</ele>
        <time>2020-09-08T11:27:46Z</time>
      </trkpt>
      <trkpt lat="44.15886" lon="5.02445">
        <ele>398.3</ele>
        <time>2020-09-08T11:27:47Z</time>
      </trkpt>
      <trkpt lat="44.15887" lon="5.02443">
        <ele>398.3</ele>
        <time>2020-09-08T11:27:48Z</time>
      </trkpt>
      <trkpt lat="44.15889" lon="5.02442">
        <ele>398.2</ele>
        <time>2020-09-08T11:27:49Z</time>
      </trkpt>
      <trkpt lat="44.15889" lon="5.02441">
        <ele>398.2</ele>
        <time>2020-09-08T11:27:50Z</time>
      </trkpt>
      <trkpt lat="44.15891" lon="5.02441">
        <ele>398.1</ele>
        <time>2020-09-08T11:27:51Z</time>
      </trkpt>
      <trkpt lat="44.15891" lon="5.0244">
        <ele>398</ele>
        <time>2020-09-08T11:27:52Z</time>
      </trkpt>
      <trkpt lat="44.15892" lon="5.0244">
        <ele>398</ele>
        <time>2020-09-08T11:27:53Z</time>
      </trkpt>
      <trkpt lat="44.15893" lon="5.02438">
        <ele>397.9</ele>
        <time>2020-09-08T11:27:54Z</time>
      </trkpt>
      <trkpt lat="44.15893" lon="5.02437">
        <ele>397.8</ele>
        <time>2020-09-08T11:27:55Z</time>
      </trkpt>
      <trkpt lat="44.15894" lon="5.02436">
        <ele>397.8</ele>
        <time>2020-09-08T11:27:56Z</time>
      </trkpt>
      <trkpt lat="44.15894" lon="5.02435">
        <ele>397.7</ele>
        <time>2020-09-08T11:27:57Z</time>
      </trkpt>
      <trkpt lat="44.15894" lon="5.02433">
        <ele>397.6</ele>
        <time>2020-09-08T11:27:58Z</time>
      </trkpt>
      <trkpt lat="44.15894" lon="5.02431">
        <ele>397.5</ele>
        <time>2020-09-08T11:27:59Z</time>
      </trkpt>
      <trkpt lat="44.15894" lon="5.02428">
        <ele>397.3</ele>
        <time>2020-09-08T11:28:00Z</time>
      </trkpt>
      <trkpt lat="44.15896" lon="5.02425">
        <ele>397.1</ele>
        <time>2020-09-08T11:28:01Z</time>
      </trkpt>
      <trkpt lat="44.15896" lon="5.02424">
        <ele>397</ele>
        <time>2020-09-08T11:28:02Z</time>
      </trkpt>
      <trkpt lat="44.15896" lon="5.02422">
        <ele>396.9</ele>
        <time>2020-09-08T11:28:03Z</time>
      </trkpt>
      <trkpt lat="44.15897" lon="5.0242">
        <ele>396.8</ele>
        <time>2020-09-08T11:28:04Z</time>
      </trkpt>
      <trkpt lat="44.15897" lon="5.02419">
        <ele>396.7</ele>
        <time>2020-09-08T11:28:05Z</time>
      </trkpt>
      <trkpt lat="44.15898" lon="5.02416">
        <ele>396.6</ele>
        <time>2020-09-08T11:28:06Z</time>
      </trkpt>
      <trkpt lat="44.15898" lon="5.02415">
        <ele>396.5</ele>
        <time>2020-09-08T11:28:07Z</time>
      </trkpt>
      <trkpt lat="44.15899" lon="5.02414">
        <ele>396.4</ele>
        <time>2020-09-08T11:28:08Z</time>
      </trkpt>
      <trkpt lat="44.15899" lon="5.02414">
        <ele>396.4</ele>
        <time>2020-09-08T11:28:09Z</time>
      </trkpt>
      <trkpt lat="44.15898" lon="5.02413">
        <ele>396.3</ele>
        <time>2020-09-08T11:28:10Z</time>
      </trkpt>
      <trkpt lat="44.15898" lon="5.02413">
        <ele>396.3</ele>
        <time>2020-09-08T11:28:11Z</time>
      </trkpt>
      <trkpt lat="44.15898" lon="5.02412">
        <ele>396.2</ele>
        <time>2020-09-08T11:28:12Z</time>
      </trkpt>
      <trkpt lat="44.15899" lon="5.02413">
        <ele>396.2</ele>
        <time>2020-09-08T11:28:13Z</time>
      </trkpt>
      <trkpt lat="44.15899" lon="5.02411">
        <ele>396.1</ele>
        <time>2020-09-08T11:28:14Z</time>
      </trkpt>
      <trkpt lat="44.15899" lon="5.02409">
        <ele>395.9</ele>
        <time>2020-09-08T11:28:15Z</time>
      </trkpt>
      <trkpt lat="44.15899" lon="5.02407">
        <ele>395.7</ele>
        <time>2020-09-08T11:28:16Z</time>
      </trkpt>
      <trkpt lat="44.15899" lon="5.02405">
        <ele>395.7</ele>
        <time>2020-09-08T11:28:17Z</time>
      </trkpt>
      <trkpt lat="44.15899" lon="5.02404">
        <ele>395.6</ele>
        <time>2020-09-08T11:28:18Z</time>
      </trkpt>
      <trkpt lat="44.15899" lon="5.02401">
        <ele>395.4</ele>
        <time>2020-09-08T11:28:19Z</time>
      </trkpt>
      <trkpt lat="44.15898" lon="5.024">
        <ele>395.3</ele>
        <time>2020-09-08T11:28:20Z</time>
      </trkpt>
      <trkpt lat="44.15898" lon="5.02399">
        <ele>395.2</ele>
        <time>2020-09-08T11:28:21Z</time>
      </trkpt>
      <trkpt lat="44.15898" lon="5.02396">
        <ele>395</ele>
        <time>2020-09-08T11:28:22Z</time>
      </trkpt>
      <trkpt lat="44.15898" lon="5.02395">
        <ele>394.9</ele>
        <time>2020-09-08T11:28:23Z</time>
      </trkpt>
      <trkpt lat="44.15897" lon="5.02394">
        <ele>394.8</ele>
        <time>2020-09-08T11:28:24Z</time>
      </trkpt>
      <trkpt lat="44.15897" lon="5.02392">
        <ele>394.6</ele>
        <time>2020-09-08T11:28:25Z</time>
      </trkpt>
      <trkpt lat="44.15897" lon="5.02391">
        <ele>394.5</ele>
        <time>2020-09-08T11:28:26Z</time>
      </trkpt>
      <trkpt lat="44.15897" lon="5.0239">
        <ele>394.5</ele>
        <time>2020-09-08T11:28:27Z</time>
      </trkpt>
      <trkpt lat="44.15897" lon="5.02389">
        <ele>394.4</ele>
        <time>2020-09-08T11:28:28Z</time>
      </trkpt>
      <trkpt lat="44.15897" lon="5.02388">
        <ele>394.3</ele>
        <time>2020-09-08T11:28:29Z</time>
      </trkpt>
      <trkpt lat="44.15897" lon="5.02387">
        <ele>394.2</ele>
        <time>2020-09-08T11:28:30Z</time>
      </trkpt>
      <trkpt lat="44.15897" lon="5.02385">
        <ele>394.1</ele>
        <time>2020-09-08T11:28:31Z</time>
      </trkpt>
      <trkpt lat="44.15898" lon="5.02381">
        <ele>393.7</ele>
        <time>2020-09-08T11:28:32Z</time>
      </trkpt>
      <trkpt lat="44.15897" lon="5.0238">
        <ele>393.6</ele>
        <time>2020-09-08T11:28:33Z</time>
      </trkpt>
      <trkpt lat="44.15897" lon="5.02378">
        <ele>393.4</ele>
        <time>2020-09-08T11:28:34Z</time>
      </trkpt>
      <trkpt lat="44.15897" lon="5.02376">
        <ele>393.2</ele>
        <time>2020-09-08T11:28:35Z</time>
      </trkpt>
      <trkpt lat="44.15896" lon="5.02374">
        <ele>393.1</ele>
        <time>2020-09-08T11:28:36Z</time>
      </trkpt>
      <trkpt lat="44.15896" lon="5.02373">
        <ele>393</ele>
        <time>2020-09-08T11:28:37Z</time>
      </trkpt>
      <trkpt lat="44.15895" lon="5.02372">
        <ele>392.8</ele>
        <time>2020-09-08T11:28:38Z</time>
      </trkpt>
      <trkpt lat="44.15896" lon="5.02369">
        <ele>392.6</ele>
        <time>2020-09-08T11:28:39Z</time>
      </trkpt>
      <trkpt lat="44.15896" lon="5.02368">
        <ele>392.4</ele>
        <time>2020-09-08T11:28:40Z</time>
      </trkpt>
      <trkpt lat="44.15897" lon="5.02367">
        <ele>392.3</ele>
        <time>2020-09-08T11:28:41Z</time>
      </trkpt>
      <trkpt lat="44.15897" lon="5.02365">
        <ele>392.1</ele>
        <time>2020-09-08T11:28:42Z</time>
      </trkpt>
      <trkpt lat="44.15897" lon="5.02363">
        <ele>391.9</ele>
        <time>2020-09-08T11:28:43Z</time>
      </trkpt>
      <trkpt lat="44.15897" lon="5.02361">
        <ele>391.7</ele>
        <time>2020-09-08T11:28:44Z</time>
      </trkpt>
      <trkpt lat="44.15897" lon="5.02359">
        <ele>391.5</ele>
        <time>2020-09-08T11:28:45Z</time>
      </trkpt>
      <trkpt lat="44.15897" lon="5.02357">
        <ele>391.3</ele>
        <time>2020-09-08T11:28:46Z</time>
      </trkpt>
      <trkpt lat="44.15898" lon="5.02355">
        <ele>391.1</ele>
        <time>2020-09-08T11:28:47Z</time>
      </trkpt>
      <trkpt lat="44.15897" lon="5.02353">
        <ele>391</ele>
        <time>2020-09-08T11:28:48Z</time>
      </trkpt>
      <trkpt lat="44.15897" lon="5.02352">
        <ele>390.8</ele>
        <time>2020-09-08T11:28:49Z</time>
      </trkpt>
      <trkpt lat="44.15897" lon="5.02351">
        <ele>390.7</ele>
        <time>2020-09-08T11:28:50Z</time>
      </trkpt>
      <trkpt lat="44.15897" lon="5.0235">
        <ele>390.6</ele>
        <time>2020-09-08T11:28:51Z</time>
      </trkpt>
      <trkpt lat="44.15897" lon="5.02349">
        <ele>390.5</ele>
        <time>2020-09-08T11:28:52Z</time>
      </trkpt>
      <trkpt lat="44.15897" lon="5.02348">
        <ele>390.3</ele>
        <time>2020-09-08T11:28:53Z</time>
      </trkpt>
      <trkpt lat="44.15896" lon="5.02346">
        <ele>390.2</ele>
        <time>2020-09-08T11:28:54Z</time>
      </trkpt>
      <trkpt lat="44.15896" lon="5.02344">
        <ele>390</ele>
        <time>2020-09-08T11:28:55Z</time>
      </trkpt>
      <trkpt lat="44.15896" lon="5.02343">
        <ele>389.9</ele>
        <time>2020-09-08T11:28:56Z</time>
      </trkpt>
      <trkpt lat="44.15896" lon="5.02342">
        <ele>389.7</ele>
        <time>2020-09-08T11:28:57Z</time>
      </trkpt>
      <trkpt lat="44.15896" lon="5.02341">
        <ele>389.6</ele>
        <time>2020-09-08T11:28:58Z</time>
      </trkpt>
      <trkpt lat="44.15897" lon="5.02338">
        <ele>389.3</ele>
        <time>2020-09-08T11:28:59Z</time>
      </trkpt>
      <trkpt lat="44.15897" lon="5.02337">
        <ele>389.2</ele>
        <time>2020-09-08T11:29:00Z</time>
      </trkpt>
      <trkpt lat="44.15897" lon="5.02336">
        <ele>389</ele>
        <time>2020-09-08T11:29:01Z</time>
      </trkpt>
      <trkpt lat="44.15897" lon="5.02333">
        <ele>388.8</ele>
        <time>2020-09-08T11:29:02Z</time>
      </trkpt>
      <trkpt lat="44.15898" lon="5.02332">
        <ele>388.5</ele>
        <time>2020-09-08T11:29:03Z</time>
      </trkpt>
      <trkpt lat="44.15899" lon="5.02329">
        <ele>388.2</ele>
        <time>2020-09-08T11:29:04Z</time>
      </trkpt>
      <trkpt lat="44.15899" lon="5.02327">
        <ele>388</ele>
        <time>2020-09-08T11:29:05Z</time>
      </trkpt>
      <trkpt lat="44.15899" lon="5.02326">
        <ele>387.9</ele>
        <time>2020-09-08T11:29:06Z</time>
      </trkpt>
      <trkpt lat="44.15899" lon="5.02324">
        <ele>387.7</ele>
        <time>2020-09-08T11:29:07Z</time>
      </trkpt>
      <trkpt lat="44.15899" lon="5.02322">
        <ele>387.5</ele>
        <time>2020-09-08T11:29:08Z</time>
      </trkpt>
      <trkpt lat="44.15899" lon="5.02322">
        <ele>387.4</ele>
        <time>2020-09-08T11:29:09Z</time>
      </trkpt>
      <trkpt lat="44.15899" lon="5.0232">
        <ele>387.2</ele>
        <time>2020-09-08T11:29:10Z</time>
      </trkpt>
      <trkpt lat="44.15898" lon="5.02318">
        <ele>387.1</ele>
        <time>2020-09-08T11:29:11Z</time>
      </trkpt>
      <trkpt lat="44.15899" lon="5.02317">
        <ele>386.9</ele>
        <time>2020-09-08T11:29:12Z</time>
      </trkpt>
      <trkpt lat="44.15899" lon="5.02315">
        <ele>386.7</ele>
        <time>2020-09-08T11:29:13Z</time>
      </trkpt>
      <trkpt lat="44.15899" lon="5.02314">
        <ele>386.6</ele>
        <time>2020-09-08T11:29:14Z</time>
      </trkpt>
      <trkpt lat="44.15899" lon="5.02311">
        <ele>386.3</ele>
        <time>2020-09-08T11:29:15Z</time>
      </trkpt>
      <trkpt lat="44.159" lon="5.0231">
        <ele>386.1</ele>
        <time>2020-09-08T11:29:16Z</time>
      </trkpt>
      <trkpt lat="44.159" lon="5.02309">
        <ele>386</ele>
        <time>2020-09-08T11:29:17Z</time>
      </trkpt>
      <trkpt lat="44.159" lon="5.02308">
        <ele>385.9</ele>
        <time>2020-09-08T11:29:18Z</time>
      </trkpt>
      <trkpt lat="44.159" lon="5.02307">
        <ele>385.7</ele>
        <time>2020-09-08T11:29:19Z</time>
      </trkpt>
      <trkpt lat="44.15901" lon="5.02305">
        <ele>385.5</ele>
        <time>2020-09-08T11:29:20Z</time>
      </trkpt>
      <trkpt lat="44.15901" lon="5.02304">
        <ele>385.4</ele>
        <time>2020-09-08T11:29:21Z</time>
      </trkpt>
      <trkpt lat="44.15901" lon="5.02303">
        <ele>385.2</ele>
        <time>2020-09-08T11:29:22Z</time>
      </trkpt>
      <trkpt lat="44.15902" lon="5.02302">
        <ele>385</ele>
        <time>2020-09-08T11:29:23Z</time>
      </trkpt>
      <trkpt lat="44.15903" lon="5.023">
        <ele>384.9</ele>
        <time>2020-09-08T11:29:24Z</time>
      </trkpt>
      <trkpt lat="44.15902" lon="5.023">
        <ele>384.8</ele>
        <time>2020-09-08T11:29:25Z</time>
      </trkpt>
      <trkpt lat="44.15903" lon="5.02298">
        <ele>384.6</ele>
        <time>2020-09-08T11:29:26Z</time>
      </trkpt>
      <trkpt lat="44.15903" lon="5.02298">
        <ele>384.5</ele>
        <time>2020-09-08T11:29:27Z</time>
      </trkpt>
      <trkpt lat="44.15903" lon="5.02296">
        <ele>384.3</ele>
        <time>2020-09-08T11:29:28Z</time>
      </trkpt>
      <trkpt lat="44.15904" lon="5.02295">
        <ele>384.2</ele>
        <time>2020-09-08T11:29:29Z</time>
      </trkpt>
      <trkpt lat="44.15904" lon="5.02294">
        <ele>384.1</ele>
        <time>2020-09-08T11:29:30Z</time>
      </trkpt>
      <trkpt lat="44.15905" lon="5.02294">
        <ele>384</ele>
        <time>2020-09-08T11:29:31Z</time>
      </trkpt>
      <trkpt lat="44.15906" lon="5.02292">
        <ele>383.7</ele>
        <time>2020-09-08T11:29:32Z</time>
      </trkpt>
      <trkpt lat="44.15906" lon="5.02292">
        <ele>383.6</ele>
        <time>2020-09-08T11:29:33Z</time>
      </trkpt>
      <trkpt lat="44.15907" lon="5.02291">
        <ele>383.5</ele>
        <time>2020-09-08T11:29:34Z</time>
      </trkpt>
      <trkpt lat="44.15907" lon="5.0229">
        <ele>383.4</ele>
        <time>2020-09-08T11:29:35Z</time>
      </trkpt>
      <trkpt lat="44.15908" lon="5.02288">
        <ele>383.2</ele>
        <time>2020-09-08T11:29:36Z</time>
      </trkpt>
      <trkpt lat="44.15908" lon="5.02287">
        <ele>383.1</ele>
        <time>2020-09-08T11:29:37Z</time>
      </trkpt>
      <trkpt lat="44.15909" lon="5.02287">
        <ele>382.9</ele>
        <time>2020-09-08T11:29:38Z</time>
      </trkpt>
      <trkpt lat="44.15909" lon="5.02286">
        <ele>382.8</ele>
        <time>2020-09-08T11:29:40Z</time>
      </trkpt>
      <trkpt lat="44.15909" lon="5.02285">
        <ele>382.7</ele>
        <time>2020-09-08T11:29:41Z</time>
      </trkpt>
      <trkpt lat="44.1591" lon="5.02284">
        <ele>382.5</ele>
        <time>2020-09-08T11:29:42Z</time>
      </trkpt>
      <trkpt lat="44.15911" lon="5.02283">
        <ele>382.4</ele>
        <time>2020-09-08T11:29:43Z</time>
      </trkpt>
      <trkpt lat="44.15911" lon="5.02282">
        <ele>382.3</ele>
        <time>2020-09-08T11:29:44Z</time>
      </trkpt>
      <trkpt lat="44.15911" lon="5.0228">
        <ele>382</ele>
        <time>2020-09-08T11:29:45Z</time>
      </trkpt>
      <trkpt lat="44.15911" lon="5.02279">
        <ele>382</ele>
        <time>2020-09-08T11:29:46Z</time>
      </trkpt>
      <trkpt lat="44.15911" lon="5.02278">
        <ele>381.8</ele>
        <time>2020-09-08T11:29:47Z</time>
      </trkpt>
      <trkpt lat="44.15912" lon="5.02276">
        <ele>381.6</ele>
        <time>2020-09-08T11:29:48Z</time>
      </trkpt>
      <trkpt lat="44.15912" lon="5.02276">
        <ele>381.5</ele>
        <time>2020-09-08T11:29:49Z</time>
      </trkpt>
      <trkpt lat="44.15913" lon="5.02275">
        <ele>381.4</ele>
        <time>2020-09-08T11:29:50Z</time>
      </trkpt>
      <trkpt lat="44.15912" lon="5.02274">
        <ele>381.2</ele>
        <time>2020-09-08T11:29:51Z</time>
      </trkpt>
      <trkpt lat="44.15912" lon="5.02273">
        <ele>381.1</ele>
        <time>2020-09-08T11:29:52Z</time>
      </trkpt>
      <trkpt lat="44.15913" lon="5.0227">
        <ele>380.8</ele>
        <time>2020-09-08T11:29:53Z</time>
      </trkpt>
      <trkpt lat="44.15913" lon="5.0227">
        <ele>380.7</ele>
        <time>2020-09-08T11:29:54Z</time>
      </trkpt>
      <trkpt lat="44.15913" lon="5.02269">
        <ele>380.6</ele>
        <time>2020-09-08T11:29:55Z</time>
      </trkpt>
      <trkpt lat="44.15914" lon="5.02269">
        <ele>380.5</ele>
        <time>2020-09-08T11:29:56Z</time>
      </trkpt>
      <trkpt lat="44.15914" lon="5.02267">
        <ele>380.3</ele>
        <time>2020-09-08T11:29:57Z</time>
      </trkpt>
      <trkpt lat="44.15915" lon="5.02265">
        <ele>380.1</ele>
        <time>2020-09-08T11:29:58Z</time>
      </trkpt>
      <trkpt lat="44.15915" lon="5.02264">
        <ele>380</ele>
        <time>2020-09-08T11:29:59Z</time>
      </trkpt>
      <trkpt lat="44.15915" lon="5.02262">
        <ele>379.8</ele>
        <time>2020-09-08T11:30:00Z</time>
      </trkpt>
      <trkpt lat="44.15915" lon="5.02261">
        <ele>379.7</ele>
        <time>2020-09-08T11:30:01Z</time>
      </trkpt>
      <trkpt lat="44.15916" lon="5.02259">
        <ele>379.5</ele>
        <time>2020-09-08T11:30:02Z</time>
      </trkpt>
      <trkpt lat="44.15915" lon="5.02258">
        <ele>379.3</ele>
        <time>2020-09-08T11:30:03Z</time>
      </trkpt>
      <trkpt lat="44.15916" lon="5.02255">
        <ele>379.1</ele>
        <time>2020-09-08T11:30:04Z</time>
      </trkpt>
      <trkpt lat="44.15917" lon="5.02254">
        <ele>379</ele>
        <time>2020-09-08T11:30:05Z</time>
      </trkpt>
      <trkpt lat="44.15917" lon="5.02253">
        <ele>378.9</ele>
        <time>2020-09-08T11:30:06Z</time>
      </trkpt>
      <trkpt lat="44.15917" lon="5.02252">
        <ele>378.8</ele>
        <time>2020-09-08T11:30:07Z</time>
      </trkpt>
      <trkpt lat="44.15918" lon="5.0225">
        <ele>378.5</ele>
        <time>2020-09-08T11:30:08Z</time>
      </trkpt>
      <trkpt lat="44.15919" lon="5.02249">
        <ele>378.4</ele>
        <time>2020-09-08T11:30:09Z</time>
      </trkpt>
      <trkpt lat="44.15918" lon="5.02247">
        <ele>378.1</ele>
        <time>2020-09-08T11:30:10Z</time>
      </trkpt>
      <trkpt lat="44.15919" lon="5.02246">
        <ele>378.1</ele>
        <time>2020-09-08T11:30:11Z</time>
      </trkpt>
      <trkpt lat="44.15919" lon="5.02244">
        <ele>377.9</ele>
        <time>2020-09-08T11:30:12Z</time>
      </trkpt>
      <trkpt lat="44.15919" lon="5.02243">
        <ele>377.7</ele>
        <time>2020-09-08T11:30:13Z</time>
      </trkpt>
      <trkpt lat="44.15919" lon="5.02241">
        <ele>377.5</ele>
        <time>2020-09-08T11:30:14Z</time>
      </trkpt>
      <trkpt lat="44.15919" lon="5.02241">
        <ele>377.5</ele>
        <time>2020-09-08T11:30:15Z</time>
      </trkpt>
      <trkpt lat="44.1592" lon="5.0224">
        <ele>377.4</ele>
        <time>2020-09-08T11:30:16Z</time>
      </trkpt>
      <trkpt lat="44.15919" lon="5.02238">
        <ele>377.2</ele>
        <time>2020-09-08T11:30:17Z</time>
      </trkpt>
      <trkpt lat="44.15918" lon="5.02237">
        <ele>376.9</ele>
        <time>2020-09-08T11:30:18Z</time>
      </trkpt>
      <trkpt lat="44.15919" lon="5.02236">
        <ele>376.8</ele>
        <time>2020-09-08T11:30:19Z</time>
      </trkpt>
      <trkpt lat="44.1592" lon="5.02235">
        <ele>376.6</ele>
        <time>2020-09-08T11:30:20Z</time>
      </trkpt>
      <trkpt lat="44.1592" lon="5.02236">
        <ele>376.5</ele>
        <time>2020-09-08T11:30:21Z</time>
      </trkpt>
      <trkpt lat="44.1592" lon="5.02235">
        <ele>376.5</ele>
        <time>2020-09-08T11:30:22Z</time>
      </trkpt>
      <trkpt lat="44.1592" lon="5.02235">
        <ele>376.4</ele>
        <time>2020-09-08T11:30:23Z</time>
      </trkpt>
      <trkpt lat="44.15922" lon="5.02235">
        <ele>376.2</ele>
        <time>2020-09-08T11:30:24Z</time>
      </trkpt>
      <trkpt lat="44.15922" lon="5.02233">
        <ele>375.9</ele>
        <time>2020-09-08T11:30:25Z</time>
      </trkpt>
      <trkpt lat="44.15922" lon="5.02232">
        <ele>375.8</ele>
        <time>2020-09-08T11:30:26Z</time>
      </trkpt>
      <trkpt lat="44.15922" lon="5.0223">
        <ele>375.6</ele>
        <time>2020-09-08T11:30:27Z</time>
      </trkpt>
      <trkpt lat="44.15922" lon="5.02228">
        <ele>375.4</ele>
        <time>2020-09-08T11:30:28Z</time>
      </trkpt>
      <trkpt lat="44.15922" lon="5.02226">
        <ele>375.2</ele>
        <time>2020-09-08T11:30:29Z</time>
      </trkpt>
      <trkpt lat="44.15923" lon="5.02225">
        <ele>375</ele>
        <time>2020-09-08T11:30:30Z</time>
      </trkpt>
      <trkpt lat="44.15924" lon="5.02226">
        <ele>374.8</ele>
        <time>2020-09-08T11:30:31Z</time>
      </trkpt>
      <trkpt lat="44.15925" lon="5.02223">
        <ele>374.6</ele>
        <time>2020-09-08T11:30:32Z</time>
      </trkpt>
      <trkpt lat="44.15925" lon="5.02222">
        <ele>374.4</ele>
        <time>2020-09-08T11:30:33Z</time>
      </trkpt>
      <trkpt lat="44.15925" lon="5.02221">
        <ele>374.4</ele>
        <time>2020-09-08T11:30:34Z</time>
      </trkpt>
      <trkpt lat="44.15925" lon="5.0222">
        <ele>374.2</ele>
        <time>2020-09-08T11:30:35Z</time>
      </trkpt>
      <trkpt lat="44.15925" lon="5.02219">
        <ele>374.1</ele>
        <time>2020-09-08T11:30:36Z</time>
      </trkpt>
      <trkpt lat="44.15926" lon="5.02218">
        <ele>373.9</ele>
        <time>2020-09-08T11:30:37Z</time>
      </trkpt>
      <trkpt lat="44.15927" lon="5.02215">
        <ele>373.6</ele>
        <time>2020-09-08T11:30:38Z</time>
      </trkpt>
      <trkpt lat="44.15927" lon="5.02213">
        <ele>373.4</ele>
        <time>2020-09-08T11:30:39Z</time>
      </trkpt>
      <trkpt lat="44.15928" lon="5.02211">
        <ele>373.2</ele>
        <time>2020-09-08T11:30:40Z</time>
      </trkpt>
      <trkpt lat="44.15929" lon="5.02211">
        <ele>373</ele>
        <time>2020-09-08T11:30:41Z</time>
      </trkpt>
      <trkpt lat="44.1593" lon="5.02208">
        <ele>372.7</ele>
        <time>2020-09-08T11:30:42Z</time>
      </trkpt>
      <trkpt lat="44.15931" lon="5.02207">
        <ele>372.5</ele>
        <time>2020-09-08T11:30:43Z</time>
      </trkpt>
      <trkpt lat="44.15931" lon="5.02206">
        <ele>372.4</ele>
        <time>2020-09-08T11:30:44Z</time>
      </trkpt>
      <trkpt lat="44.15932" lon="5.02204">
        <ele>372.2</ele>
        <time>2020-09-08T11:30:45Z</time>
      </trkpt>
      <trkpt lat="44.15932" lon="5.02203">
        <ele>372.1</ele>
        <time>2020-09-08T11:30:46Z</time>
      </trkpt>
      <trkpt lat="44.15932" lon="5.02203">
        <ele>372.1</ele>
        <time>2020-09-08T11:30:47Z</time>
      </trkpt>
      <trkpt lat="44.15932" lon="5.02202">
        <ele>372</ele>
        <time>2020-09-08T11:30:48Z</time>
      </trkpt>
      <trkpt lat="44.15932" lon="5.02199">
        <ele>371.7</ele>
        <time>2020-09-08T11:30:49Z</time>
      </trkpt>
      <trkpt lat="44.15932" lon="5.02198">
        <ele>371.6</ele>
        <time>2020-09-08T11:30:50Z</time>
      </trkpt>
      <trkpt lat="44.15932" lon="5.02197">
        <ele>371.5</ele>
        <time>2020-09-08T11:30:51Z</time>
      </trkpt>
      <trkpt lat="44.15932" lon="5.02196">
        <ele>371.4</ele>
        <time>2020-09-08T11:30:52Z</time>
      </trkpt>
      <trkpt lat="44.15932" lon="5.02195">
        <ele>371.3</ele>
        <time>2020-09-08T11:30:53Z</time>
      </trkpt>
      <trkpt lat="44.15933" lon="5.02195">
        <ele>371.3</ele>
        <time>2020-09-08T11:30:54Z</time>
      </trkpt>
      <trkpt lat="44.15932" lon="5.02195">
        <ele>371.2</ele>
        <time>2020-09-08T11:30:55Z</time>
      </trkpt>
      <trkpt lat="44.15932" lon="5.02194">
        <ele>371.1</ele>
        <time>2020-09-08T11:30:56Z</time>
      </trkpt>
      <trkpt lat="44.15932" lon="5.02193">
        <ele>371</ele>
        <time>2020-09-08T11:30:57Z</time>
      </trkpt>
      <trkpt lat="44.1593" lon="5.02191">
        <ele>370.7</ele>
        <time>2020-09-08T11:30:58Z</time>
      </trkpt>
      <trkpt lat="44.15931" lon="5.02189">
        <ele>370.5</ele>
        <time>2020-09-08T11:30:59Z</time>
      </trkpt>
      <trkpt lat="44.15933" lon="5.02188">
        <ele>370.3</ele>
        <time>2020-09-08T11:31:00Z</time>
      </trkpt>
      <trkpt lat="44.15933" lon="5.02187">
        <ele>370.1</ele>
        <time>2020-09-08T11:31:01Z</time>
      </trkpt>
      <trkpt lat="44.15934" lon="5.02187">
        <ele>370</ele>
        <time>2020-09-08T11:31:02Z</time>
      </trkpt>
      <trkpt lat="44.15935" lon="5.02184">
        <ele>369.7</ele>
        <time>2020-09-08T11:31:03Z</time>
      </trkpt>
      <trkpt lat="44.15935" lon="5.02183">
        <ele>369.6</ele>
        <time>2020-09-08T11:31:04Z</time>
      </trkpt>
      <trkpt lat="44.15935" lon="5.02182">
        <ele>369.5</ele>
        <time>2020-09-08T11:31:05Z</time>
      </trkpt>
      <trkpt lat="44.15935" lon="5.02181">
        <ele>369.3</ele>
        <time>2020-09-08T11:31:06Z</time>
      </trkpt>
      <trkpt lat="44.15935" lon="5.02179">
        <ele>369.1</ele>
        <time>2020-09-08T11:31:07Z</time>
      </trkpt>
      <trkpt lat="44.15936" lon="5.02178">
        <ele>369</ele>
        <time>2020-09-08T11:31:08Z</time>
      </trkpt>
      <trkpt lat="44.15936" lon="5.02176">
        <ele>368.9</ele>
        <time>2020-09-08T11:31:09Z</time>
      </trkpt>
      <trkpt lat="44.15936" lon="5.02176">
        <ele>368.8</ele>
        <time>2020-09-08T11:31:10Z</time>
      </trkpt>
      <trkpt lat="44.15936" lon="5.02174">
        <ele>368.6</ele>
        <time>2020-09-08T11:31:11Z</time>
      </trkpt>
      <trkpt lat="44.15937" lon="5.02172">
        <ele>368.4</ele>
        <time>2020-09-08T11:31:12Z</time>
      </trkpt>
      <trkpt lat="44.15937" lon="5.02171">
        <ele>368.2</ele>
        <time>2020-09-08T11:31:13Z</time>
      </trkpt>
      <trkpt lat="44.15937" lon="5.02169">
        <ele>368.1</ele>
        <time>2020-09-08T11:31:14Z</time>
      </trkpt>
      <trkpt lat="44.15937" lon="5.02167">
        <ele>367.8</ele>
        <time>2020-09-08T11:31:15Z</time>
      </trkpt>
      <trkpt lat="44.15937" lon="5.02166">
        <ele>367.7</ele>
        <time>2020-09-08T11:31:16Z</time>
      </trkpt>
      <trkpt lat="44.15937" lon="5.02165">
        <ele>367.6</ele>
        <time>2020-09-08T11:31:17Z</time>
      </trkpt>
      <trkpt lat="44.15937" lon="5.02164">
        <ele>367.5</ele>
        <time>2020-09-08T11:31:18Z</time>
      </trkpt>
      <trkpt lat="44.15938" lon="5.02162">
        <ele>367.2</ele>
        <time>2020-09-08T11:31:19Z</time>
      </trkpt>
      <trkpt lat="44.15938" lon="5.02162">
        <ele>367.1</ele>
        <time>2020-09-08T11:31:20Z</time>
      </trkpt>
      <trkpt lat="44.15939" lon="5.0216">
        <ele>366.9</ele>
        <time>2020-09-08T11:31:21Z</time>
      </trkpt>
      <trkpt lat="44.15939" lon="5.02159">
        <ele>366.7</ele>
        <time>2020-09-08T11:31:22Z</time>
      </trkpt>
      <trkpt lat="44.15939" lon="5.02158">
        <ele>366.7</ele>
        <time>2020-09-08T11:31:23Z</time>
      </trkpt>
      <trkpt lat="44.15939" lon="5.02156">
        <ele>366.5</ele>
        <time>2020-09-08T11:31:24Z</time>
      </trkpt>
      <trkpt lat="44.15939" lon="5.02155">
        <ele>366.3</ele>
        <time>2020-09-08T11:31:25Z</time>
      </trkpt>
      <trkpt lat="44.15939" lon="5.02154">
        <ele>366.2</ele>
        <time>2020-09-08T11:31:26Z</time>
      </trkpt>
      <trkpt lat="44.15939" lon="5.02153">
        <ele>366.1</ele>
        <time>2020-09-08T11:31:27Z</time>
      </trkpt>
      <trkpt lat="44.1594" lon="5.02153">
        <ele>365.9</ele>
        <time>2020-09-08T11:31:28Z</time>
      </trkpt>
      <trkpt lat="44.1594" lon="5.02151">
        <ele>365.7</ele>
        <time>2020-09-08T11:31:29Z</time>
      </trkpt>
      <trkpt lat="44.1594" lon="5.0215">
        <ele>365.6</ele>
        <time>2020-09-08T11:31:30Z</time>
      </trkpt>
      <trkpt lat="44.1594" lon="5.0215">
        <ele>365.6</ele>
        <time>2020-09-08T11:31:31Z</time>
      </trkpt>
      <trkpt lat="44.15941" lon="5.02149">
        <ele>365.4</ele>
        <time>2020-09-08T11:31:32Z</time>
      </trkpt>
      <trkpt lat="44.15941" lon="5.02147">
        <ele>365.2</ele>
        <time>2020-09-08T11:31:33Z</time>
      </trkpt>
      <trkpt lat="44.15942" lon="5.02143">
        <ele>364.8</ele>
        <time>2020-09-08T11:31:34Z</time>
      </trkpt>
      <trkpt lat="44.15943" lon="5.02143">
        <ele>364.7</ele>
        <time>2020-09-08T11:31:35Z</time>
      </trkpt>
      <trkpt lat="44.15942" lon="5.02139">
        <ele>364.4</ele>
        <time>2020-09-08T11:31:36Z</time>
      </trkpt>
      <trkpt lat="44.15943" lon="5.02138">
        <ele>364.2</ele>
        <time>2020-09-08T11:31:37Z</time>
      </trkpt>
      <trkpt lat="44.15943" lon="5.02136">
        <ele>364</ele>
        <time>2020-09-08T11:31:38Z</time>
      </trkpt>
      <trkpt lat="44.15944" lon="5.02135">
        <ele>363.9</ele>
        <time>2020-09-08T11:31:39Z</time>
      </trkpt>
      <trkpt lat="44.15945" lon="5.02134">
        <ele>363.8</ele>
        <time>2020-09-08T11:31:40Z</time>
      </trkpt>
      <trkpt lat="44.15945" lon="5.02133">
        <ele>363.7</ele>
        <time>2020-09-08T11:31:41Z</time>
      </trkpt>
      <trkpt lat="44.15944" lon="5.02132">
        <ele>363.5</ele>
        <time>2020-09-08T11:31:42Z</time>
      </trkpt>
      <trkpt lat="44.15945" lon="5.02129">
        <ele>363.3</ele>
        <time>2020-09-08T11:31:43Z</time>
      </trkpt>
      <trkpt lat="44.15946" lon="5.02129">
        <ele>363.2</ele>
        <time>2020-09-08T11:31:44Z</time>
      </trkpt>
      <trkpt lat="44.15946" lon="5.02127">
        <ele>363</ele>
        <time>2020-09-08T11:31:46Z</time>
      </trkpt>
      <trkpt lat="44.15947" lon="5.02127">
        <ele>363</ele>
        <time>2020-09-08T11:31:47Z</time>
      </trkpt>
      <trkpt lat="44.15947" lon="5.02126">
        <ele>362.9</ele>
        <time>2020-09-08T11:31:48Z</time>
      </trkpt>
      <trkpt lat="44.15948" lon="5.02125">
        <ele>362.8</ele>
        <time>2020-09-08T11:31:49Z</time>
      </trkpt>
      <trkpt lat="44.15948" lon="5.02125">
        <ele>362.7</ele>
        <time>2020-09-08T11:31:50Z</time>
      </trkpt>
      <trkpt lat="44.15948" lon="5.02124">
        <ele>362.6</ele>
        <time>2020-09-08T11:31:51Z</time>
      </trkpt>
      <trkpt lat="44.15949" lon="5.02123">
        <ele>362.5</ele>
        <time>2020-09-08T11:31:52Z</time>
      </trkpt>
      <trkpt lat="44.15949" lon="5.02122">
        <ele>362.4</ele>
        <time>2020-09-08T11:31:53Z</time>
      </trkpt>
      <trkpt lat="44.1595" lon="5.0212">
        <ele>362.1</ele>
        <time>2020-09-08T11:31:54Z</time>
      </trkpt>
      <trkpt lat="44.1595" lon="5.02116">
        <ele>361.9</ele>
        <time>2020-09-08T11:31:55Z</time>
      </trkpt>
      <trkpt lat="44.15951" lon="5.02114">
        <ele>361.7</ele>
        <time>2020-09-08T11:31:56Z</time>
      </trkpt>
      <trkpt lat="44.15951" lon="5.02112">
        <ele>361.6</ele>
        <time>2020-09-08T11:31:57Z</time>
      </trkpt>
      <trkpt lat="44.15952" lon="5.0211">
        <ele>361.5</ele>
        <time>2020-09-08T11:31:58Z</time>
      </trkpt>
      <trkpt lat="44.15952" lon="5.02108">
        <ele>361.4</ele>
        <time>2020-09-08T11:31:59Z</time>
      </trkpt>
      <trkpt lat="44.15952" lon="5.02106">
        <ele>361.2</ele>
        <time>2020-09-08T11:32:00Z</time>
      </trkpt>
      <trkpt lat="44.15953" lon="5.02106">
        <ele>361.2</ele>
        <time>2020-09-08T11:32:01Z</time>
      </trkpt>
      <trkpt lat="44.15955" lon="5.02106">
        <ele>361</ele>
        <time>2020-09-08T11:32:02Z</time>
      </trkpt>
      <trkpt lat="44.15955" lon="5.02105">
        <ele>361</ele>
        <time>2020-09-08T11:32:03Z</time>
      </trkpt>
      <trkpt lat="44.15956" lon="5.02105">
        <ele>360.9</ele>
        <time>2020-09-08T11:32:04Z</time>
      </trkpt>
      <trkpt lat="44.15957" lon="5.02103">
        <ele>360.8</ele>
        <time>2020-09-08T11:32:05Z</time>
      </trkpt>
      <trkpt lat="44.15958" lon="5.02101">
        <ele>360.7</ele>
        <time>2020-09-08T11:32:06Z</time>
      </trkpt>
      <trkpt lat="44.15957" lon="5.02099">
        <ele>360.5</ele>
        <time>2020-09-08T11:32:07Z</time>
      </trkpt>
      <trkpt lat="44.15958" lon="5.02097">
        <ele>360.4</ele>
        <time>2020-09-08T11:32:08Z</time>
      </trkpt>
      <trkpt lat="44.15959" lon="5.02095">
        <ele>360.3</ele>
        <time>2020-09-08T11:32:09Z</time>
      </trkpt>
      <trkpt lat="44.15959" lon="5.02094">
        <ele>360.2</ele>
        <time>2020-09-08T11:32:10Z</time>
      </trkpt>
      <trkpt lat="44.1596" lon="5.02093">
        <ele>360.1</ele>
        <time>2020-09-08T11:32:11Z</time>
      </trkpt>
      <trkpt lat="44.1596" lon="5.02091">
        <ele>360</ele>
        <time>2020-09-08T11:32:12Z</time>
      </trkpt>
      <trkpt lat="44.1596" lon="5.02089">
        <ele>359.9</ele>
        <time>2020-09-08T11:32:13Z</time>
      </trkpt>
      <trkpt lat="44.15961" lon="5.02088">
        <ele>359.8</ele>
        <time>2020-09-08T11:32:14Z</time>
      </trkpt>
      <trkpt lat="44.15962" lon="5.02087">
        <ele>359.7</ele>
        <time>2020-09-08T11:32:15Z</time>
      </trkpt>
      <trkpt lat="44.15962" lon="5.02086">
        <ele>359.6</ele>
        <time>2020-09-08T11:32:16Z</time>
      </trkpt>
      <trkpt lat="44.15963" lon="5.02085">
        <ele>359.5</ele>
        <time>2020-09-08T11:32:17Z</time>
      </trkpt>
      <trkpt lat="44.15963" lon="5.02083">
        <ele>359.4</ele>
        <time>2020-09-08T11:32:18Z</time>
      </trkpt>
      <trkpt lat="44.15965" lon="5.02079">
        <ele>359.2</ele>
        <time>2020-09-08T11:32:19Z</time>
      </trkpt>
      <trkpt lat="44.15965" lon="5.02078">
        <ele>359.1</ele>
        <time>2020-09-08T11:32:20Z</time>
      </trkpt>
      <trkpt lat="44.15965" lon="5.02077">
        <ele>359.1</ele>
        <time>2020-09-08T11:32:21Z</time>
      </trkpt>
      <trkpt lat="44.15965" lon="5.02076">
        <ele>359</ele>
        <time>2020-09-08T11:32:22Z</time>
      </trkpt>
      <trkpt lat="44.15965" lon="5.02074">
        <ele>358.9</ele>
        <time>2020-09-08T11:32:23Z</time>
      </trkpt>
      <trkpt lat="44.15966" lon="5.02074">
        <ele>358.8</ele>
        <time>2020-09-08T11:32:24Z</time>
      </trkpt>
      <trkpt lat="44.15967" lon="5.02072">
        <ele>358.7</ele>
        <time>2020-09-08T11:32:25Z</time>
      </trkpt>
      <trkpt lat="44.15967" lon="5.0207">
        <ele>358.6</ele>
        <time>2020-09-08T11:32:26Z</time>
      </trkpt>
      <trkpt lat="44.15967" lon="5.02069">
        <ele>358.5</ele>
        <time>2020-09-08T11:32:27Z</time>
      </trkpt>
      <trkpt lat="44.15968" lon="5.02067">
        <ele>358.5</ele>
        <time>2020-09-08T11:32:28Z</time>
      </trkpt>
      <trkpt lat="44.15968" lon="5.02065">
        <ele>358.3</ele>
        <time>2020-09-08T11:32:29Z</time>
      </trkpt>
      <trkpt lat="44.1597" lon="5.02063">
        <ele>358.2</ele>
        <time>2020-09-08T11:32:30Z</time>
      </trkpt>
      <trkpt lat="44.15971" lon="5.02062">
        <ele>358.1</ele>
        <time>2020-09-08T11:32:31Z</time>
      </trkpt>
      <trkpt lat="44.15972" lon="5.02061">
        <ele>358</ele>
        <time>2020-09-08T11:32:32Z</time>
      </trkpt>
      <trkpt lat="44.15973" lon="5.02058">
        <ele>357.8</ele>
        <time>2020-09-08T11:32:33Z</time>
      </trkpt>
      <trkpt lat="44.15974" lon="5.02057">
        <ele>357.8</ele>
        <time>2020-09-08T11:32:34Z</time>
      </trkpt>
      <trkpt lat="44.15974" lon="5.02055">
        <ele>357.7</ele>
        <time>2020-09-08T11:32:35Z</time>
      </trkpt>
      <trkpt lat="44.15975" lon="5.02053">
        <ele>357.6</ele>
        <time>2020-09-08T11:32:36Z</time>
      </trkpt>
      <trkpt lat="44.15975" lon="5.02051">
        <ele>357.5</ele>
        <time>2020-09-08T11:32:37Z</time>
      </trkpt>
      <trkpt lat="44.15975" lon="5.02049">
        <ele>357.4</ele>
        <time>2020-09-08T11:32:38Z</time>
      </trkpt>
      <trkpt lat="44.15975" lon="5.02047">
        <ele>357.3</ele>
        <time>2020-09-08T11:32:39Z</time>
      </trkpt>
      <trkpt lat="44.15975" lon="5.02046">
        <ele>357.3</ele>
        <time>2020-09-08T11:32:40Z</time>
      </trkpt>
      <trkpt lat="44.15975" lon="5.02045">
        <ele>357.2</ele>
        <time>2020-09-08T11:32:41Z</time>
      </trkpt>
      <trkpt lat="44.15976" lon="5.02044">
        <ele>357.2</ele>
        <time>2020-09-08T11:32:42Z</time>
      </trkpt>
      <trkpt lat="44.15976" lon="5.02042">
        <ele>357.1</ele>
        <time>2020-09-08T11:32:43Z</time>
      </trkpt>
      <trkpt lat="44.15976" lon="5.02042">
        <ele>357.1</ele>
        <time>2020-09-08T11:32:44Z</time>
      </trkpt>
      <trkpt lat="44.15976" lon="5.02041">
        <ele>357</ele>
        <time>2020-09-08T11:32:45Z</time>
      </trkpt>
      <trkpt lat="44.15977" lon="5.02038">
        <ele>356.9</ele>
        <time>2020-09-08T11:32:46Z</time>
      </trkpt>
      <trkpt lat="44.15978" lon="5.02038">
        <ele>356.9</ele>
        <time>2020-09-08T11:32:47Z</time>
      </trkpt>
      <trkpt lat="44.15978" lon="5.02036">
        <ele>356.8</ele>
        <time>2020-09-08T11:32:48Z</time>
      </trkpt>
      <trkpt lat="44.15979" lon="5.02035">
        <ele>356.8</ele>
        <time>2020-09-08T11:32:49Z</time>
      </trkpt>
      <trkpt lat="44.1598" lon="5.02034">
        <ele>356.7</ele>
        <time>2020-09-08T11:32:50Z</time>
      </trkpt>
      <trkpt lat="44.1598" lon="5.02032">
        <ele>356.6</ele>
        <time>2020-09-08T11:32:51Z</time>
      </trkpt>
      <trkpt lat="44.15979" lon="5.02031">
        <ele>356.5</ele>
        <time>2020-09-08T11:32:52Z</time>
      </trkpt>
      <trkpt lat="44.15979" lon="5.0203">
        <ele>356.5</ele>
        <time>2020-09-08T11:32:53Z</time>
      </trkpt>
      <trkpt lat="44.15978" lon="5.02029">
        <ele>356.4</ele>
        <time>2020-09-08T11:32:54Z</time>
      </trkpt>
      <trkpt lat="44.15978" lon="5.02028">
        <ele>356.4</ele>
        <time>2020-09-08T11:32:55Z</time>
      </trkpt>
      <trkpt lat="44.15978" lon="5.02028">
        <ele>356.4</ele>
        <time>2020-09-08T11:32:56Z</time>
      </trkpt>
      <trkpt lat="44.15978" lon="5.02029">
        <ele>356.3</ele>
        <time>2020-09-08T11:32:57Z</time>
      </trkpt>
      <trkpt lat="44.15979" lon="5.0203">
        <ele>356.3</ele>
        <time>2020-09-08T11:32:58Z</time>
      </trkpt>
      <trkpt lat="44.15979" lon="5.02031">
        <ele>356.2</ele>
        <time>2020-09-08T11:32:59Z</time>
      </trkpt>
      <trkpt lat="44.15978" lon="5.02031">
        <ele>356.2</ele>
        <time>2020-09-08T11:33:00Z</time>
      </trkpt>
      <trkpt lat="44.15978" lon="5.02031">
        <ele>356.2</ele>
        <time>2020-09-08T11:33:01Z</time>
      </trkpt>
      <trkpt lat="44.15977" lon="5.02033">
        <ele>356.1</ele>
        <time>2020-09-08T11:33:02Z</time>
      </trkpt>
      <trkpt lat="44.15975" lon="5.02033">
        <ele>356</ele>
        <time>2020-09-08T11:33:03Z</time>
      </trkpt>
      <trkpt lat="44.15975" lon="5.02034">
        <ele>355.9</ele>
        <time>2020-09-08T11:33:04Z</time>
      </trkpt>
      <trkpt lat="44.15974" lon="5.02034">
        <ele>355.9</ele>
        <time>2020-09-08T11:33:05Z</time>
      </trkpt>
      <trkpt lat="44.15972" lon="5.02035">
        <ele>355.8</ele>
        <time>2020-09-08T11:33:06Z</time>
      </trkpt>
      <trkpt lat="44.15971" lon="5.02035">
        <ele>355.7</ele>
        <time>2020-09-08T11:33:07Z</time>
      </trkpt>
      <trkpt lat="44.15971" lon="5.02035">
        <ele>355.7</ele>
        <time>2020-09-08T11:33:08Z</time>
      </trkpt>
      <trkpt lat="44.15971" lon="5.02033">
        <ele>355.6</ele>
        <time>2020-09-08T11:33:09Z</time>
      </trkpt>
      <trkpt lat="44.15969" lon="5.02033">
        <ele>355.5</ele>
        <time>2020-09-08T11:33:10Z</time>
      </trkpt>
      <trkpt lat="44.1597" lon="5.02032">
        <ele>355.5</ele>
        <time>2020-09-08T11:33:11Z</time>
      </trkpt>
      <trkpt lat="44.1597" lon="5.02031">
        <ele>355.5</ele>
        <time>2020-09-08T11:33:12Z</time>
      </trkpt>
      <trkpt lat="44.15969" lon="5.0203">
        <ele>355.4</ele>
        <time>2020-09-08T11:33:13Z</time>
      </trkpt>
      <trkpt lat="44.15969" lon="5.02029">
        <ele>355.4</ele>
        <time>2020-09-08T11:33:14Z</time>
      </trkpt>
      <trkpt lat="44.15969" lon="5.02028">
        <ele>355.3</ele>
        <time>2020-09-08T11:33:15Z</time>
      </trkpt>
      <trkpt lat="44.15969" lon="5.02027">
        <ele>355.3</ele>
        <time>2020-09-08T11:33:16Z</time>
      </trkpt>
      <trkpt lat="44.15969" lon="5.02026">
        <ele>355.2</ele>
        <time>2020-09-08T11:33:17Z</time>
      </trkpt>
      <trkpt lat="44.15969" lon="5.02026">
        <ele>355.2</ele>
        <time>2020-09-08T11:33:18Z</time>
      </trkpt>
      <trkpt lat="44.15969" lon="5.02024">
        <ele>355.1</ele>
        <time>2020-09-08T11:33:19Z</time>
      </trkpt>
      <trkpt lat="44.1597" lon="5.02023">
        <ele>355.1</ele>
        <time>2020-09-08T11:33:20Z</time>
      </trkpt>
      <trkpt lat="44.15971" lon="5.02022">
        <ele>355</ele>
        <time>2020-09-08T11:33:21Z</time>
      </trkpt>
      <trkpt lat="44.15971" lon="5.02021">
        <ele>354.9</ele>
        <time>2020-09-08T11:33:22Z</time>
      </trkpt>
      <trkpt lat="44.15972" lon="5.02019">
        <ele>354.9</ele>
        <time>2020-09-08T11:33:23Z</time>
      </trkpt>
      <trkpt lat="44.15972" lon="5.02019">
        <ele>354.9</ele>
        <time>2020-09-08T11:33:24Z</time>
      </trkpt>
      <trkpt lat="44.15973" lon="5.02019">
        <ele>354.8</ele>
        <time>2020-09-08T11:33:25Z</time>
      </trkpt>
      <trkpt lat="44.15972" lon="5.02015">
        <ele>354.7</ele>
        <time>2020-09-08T11:33:26Z</time>
      </trkpt>
      <trkpt lat="44.15971" lon="5.02012">
        <ele>354.5</ele>
        <time>2020-09-08T11:33:27Z</time>
      </trkpt>
      <trkpt lat="44.15971" lon="5.0201">
        <ele>354.4</ele>
        <time>2020-09-08T11:33:28Z</time>
      </trkpt>
      <trkpt lat="44.15972" lon="5.02008">
        <ele>354.3</ele>
        <time>2020-09-08T11:33:29Z</time>
      </trkpt>
      <trkpt lat="44.15972" lon="5.02005">
        <ele>354.2</ele>
        <time>2020-09-08T11:33:30Z</time>
      </trkpt>
      <trkpt lat="44.15971" lon="5.02004">
        <ele>354.1</ele>
        <time>2020-09-08T11:33:31Z</time>
      </trkpt>
      <trkpt lat="44.15971" lon="5.02002">
        <ele>354</ele>
        <time>2020-09-08T11:33:32Z</time>
      </trkpt>
      <trkpt lat="44.15971" lon="5.02001">
        <ele>354</ele>
        <time>2020-09-08T11:33:33Z</time>
      </trkpt>
      <trkpt lat="44.1597" lon="5.02">
        <ele>353.9</ele>
        <time>2020-09-08T11:33:34Z</time>
      </trkpt>
      <trkpt lat="44.1597" lon="5.01997">
        <ele>353.7</ele>
        <time>2020-09-08T11:33:35Z</time>
      </trkpt>
      <trkpt lat="44.1597" lon="5.01996">
        <ele>353.7</ele>
        <time>2020-09-08T11:33:36Z</time>
      </trkpt>
      <trkpt lat="44.15972" lon="5.01994">
        <ele>353.5</ele>
        <time>2020-09-08T11:33:37Z</time>
      </trkpt>
      <trkpt lat="44.15972" lon="5.01993">
        <ele>353.5</ele>
        <time>2020-09-08T11:33:38Z</time>
      </trkpt>
      <trkpt lat="44.15972" lon="5.01992">
        <ele>353.4</ele>
        <time>2020-09-08T11:33:39Z</time>
      </trkpt>
      <trkpt lat="44.15973" lon="5.01989">
        <ele>353.2</ele>
        <time>2020-09-08T11:33:40Z</time>
      </trkpt>
      <trkpt lat="44.15972" lon="5.01986">
        <ele>353</ele>
        <time>2020-09-08T11:33:41Z</time>
      </trkpt>
      <trkpt lat="44.15972" lon="5.01983">
        <ele>352.8</ele>
        <time>2020-09-08T11:33:42Z</time>
      </trkpt>
      <trkpt lat="44.15972" lon="5.01982">
        <ele>352.7</ele>
        <time>2020-09-08T11:33:43Z</time>
      </trkpt>
      <trkpt lat="44.15972" lon="5.0198">
        <ele>352.6</ele>
        <time>2020-09-08T11:33:44Z</time>
      </trkpt>
      <trkpt lat="44.15972" lon="5.01977">
        <ele>352.4</ele>
        <time>2020-09-08T11:33:45Z</time>
      </trkpt>
      <trkpt lat="44.15972" lon="5.01976">
        <ele>352.3</ele>
        <time>2020-09-08T11:33:46Z</time>
      </trkpt>
      <trkpt lat="44.15972" lon="5.01976">
        <ele>352.3</ele>
        <time>2020-09-08T11:33:47Z</time>
      </trkpt>
      <trkpt lat="44.15972" lon="5.01973">
        <ele>352.1</ele>
        <time>2020-09-08T11:33:48Z</time>
      </trkpt>
      <trkpt lat="44.15971" lon="5.01973">
        <ele>352</ele>
        <time>2020-09-08T11:33:49Z</time>
      </trkpt>
      <trkpt lat="44.15971" lon="5.0197">
        <ele>351.8</ele>
        <time>2020-09-08T11:33:50Z</time>
      </trkpt>
      <trkpt lat="44.1597" lon="5.01967">
        <ele>351.6</ele>
        <time>2020-09-08T11:33:52Z</time>
      </trkpt>
      <trkpt lat="44.1597" lon="5.01965">
        <ele>351.4</ele>
        <time>2020-09-08T11:33:53Z</time>
      </trkpt>
      <trkpt lat="44.1597" lon="5.01964">
        <ele>351.3</ele>
        <time>2020-09-08T11:33:54Z</time>
      </trkpt>
      <trkpt lat="44.1597" lon="5.01961">
        <ele>351.1</ele>
        <time>2020-09-08T11:33:55Z</time>
      </trkpt>
      <trkpt lat="44.1597" lon="5.0196">
        <ele>351</ele>
        <time>2020-09-08T11:33:56Z</time>
      </trkpt>
      <trkpt lat="44.1597" lon="5.01958">
        <ele>350.8</ele>
        <time>2020-09-08T11:33:57Z</time>
      </trkpt>
      <trkpt lat="44.1597" lon="5.01955">
        <ele>350.6</ele>
        <time>2020-09-08T11:33:58Z</time>
      </trkpt>
      <trkpt lat="44.1597" lon="5.01954">
        <ele>350.4</ele>
        <time>2020-09-08T11:33:59Z</time>
      </trkpt>
      <trkpt lat="44.1597" lon="5.01953">
        <ele>350.3</ele>
        <time>2020-09-08T11:34:00Z</time>
      </trkpt>
      <trkpt lat="44.1597" lon="5.01952">
        <ele>350.3</ele>
        <time>2020-09-08T11:34:01Z</time>
      </trkpt>
      <trkpt lat="44.1597" lon="5.01951">
        <ele>350.1</ele>
        <time>2020-09-08T11:34:02Z</time>
      </trkpt>
      <trkpt lat="44.1597" lon="5.0195">
        <ele>350</ele>
        <time>2020-09-08T11:34:03Z</time>
      </trkpt>
      <trkpt lat="44.1597" lon="5.01948">
        <ele>349.9</ele>
        <time>2020-09-08T11:34:04Z</time>
      </trkpt>
      <trkpt lat="44.15971" lon="5.01946">
        <ele>349.7</ele>
        <time>2020-09-08T11:34:05Z</time>
      </trkpt>
      <trkpt lat="44.1597" lon="5.01945">
        <ele>349.5</ele>
        <time>2020-09-08T11:34:06Z</time>
      </trkpt>
      <trkpt lat="44.15971" lon="5.01944">
        <ele>349.4</ele>
        <time>2020-09-08T11:34:07Z</time>
      </trkpt>
      <trkpt lat="44.15971" lon="5.01944">
        <ele>349.4</ele>
        <time>2020-09-08T11:34:08Z</time>
      </trkpt>
      <trkpt lat="44.15971" lon="5.01943">
        <ele>349.3</ele>
        <time>2020-09-08T11:34:09Z</time>
      </trkpt>
      <trkpt lat="44.15972" lon="5.01942">
        <ele>349.1</ele>
        <time>2020-09-08T11:34:10Z</time>
      </trkpt>
      <trkpt lat="44.15974" lon="5.01941">
        <ele>348.9</ele>
        <time>2020-09-08T11:34:11Z</time>
      </trkpt>
      <trkpt lat="44.15975" lon="5.01939">
        <ele>348.7</ele>
        <time>2020-09-08T11:34:12Z</time>
      </trkpt>
      <trkpt lat="44.15975" lon="5.01937">
        <ele>348.5</ele>
        <time>2020-09-08T11:34:13Z</time>
      </trkpt>
      <trkpt lat="44.15975" lon="5.01936">
        <ele>348.4</ele>
        <time>2020-09-08T11:34:14Z</time>
      </trkpt>
      <trkpt lat="44.15975" lon="5.01935">
        <ele>348.3</ele>
        <time>2020-09-08T11:34:15Z</time>
      </trkpt>
      <trkpt lat="44.15975" lon="5.01933">
        <ele>348.1</ele>
        <time>2020-09-08T11:34:16Z</time>
      </trkpt>
      <trkpt lat="44.15976" lon="5.01932">
        <ele>348</ele>
        <time>2020-09-08T11:34:17Z</time>
      </trkpt>
      <trkpt lat="44.15976" lon="5.0193">
        <ele>347.8</ele>
        <time>2020-09-08T11:34:18Z</time>
      </trkpt>
      <trkpt lat="44.15978" lon="5.0193">
        <ele>347.6</ele>
        <time>2020-09-08T11:34:19Z</time>
      </trkpt>
      <trkpt lat="44.15979" lon="5.01929">
        <ele>347.4</ele>
        <time>2020-09-08T11:34:20Z</time>
      </trkpt>
      <trkpt lat="44.15979" lon="5.01928">
        <ele>347.2</ele>
        <time>2020-09-08T11:34:21Z</time>
      </trkpt>
      <trkpt lat="44.15979" lon="5.01926">
        <ele>347.1</ele>
        <time>2020-09-08T11:34:22Z</time>
      </trkpt>
      <trkpt lat="44.1598" lon="5.01924">
        <ele>346.8</ele>
        <time>2020-09-08T11:34:23Z</time>
      </trkpt>
      <trkpt lat="44.15981" lon="5.01922">
        <ele>346.7</ele>
        <time>2020-09-08T11:34:24Z</time>
      </trkpt>
      <trkpt lat="44.15981" lon="5.01921">
        <ele>346.6</ele>
        <time>2020-09-08T11:34:25Z</time>
      </trkpt>
      <trkpt lat="44.15982" lon="5.0192">
        <ele>346.5</ele>
        <time>2020-09-08T11:34:26Z</time>
      </trkpt>
      <trkpt lat="44.15982" lon="5.01918">
        <ele>346.2</ele>
        <time>2020-09-08T11:34:27Z</time>
      </trkpt>
      <trkpt lat="44.15983" lon="5.01916">
        <ele>346.1</ele>
        <time>2020-09-08T11:34:28Z</time>
      </trkpt>
      <trkpt lat="44.15985" lon="5.01916">
        <ele>345.8</ele>
        <time>2020-09-08T11:34:29Z</time>
      </trkpt>
      <trkpt lat="44.15985" lon="5.01914">
        <ele>345.6</ele>
        <time>2020-09-08T11:34:30Z</time>
      </trkpt>
      <trkpt lat="44.15986" lon="5.01911">
        <ele>345.3</ele>
        <time>2020-09-08T11:34:31Z</time>
      </trkpt>
      <trkpt lat="44.15986" lon="5.0191">
        <ele>345.2</ele>
        <time>2020-09-08T11:34:32Z</time>
      </trkpt>
      <trkpt lat="44.15987" lon="5.01907">
        <ele>345</ele>
        <time>2020-09-08T11:34:33Z</time>
      </trkpt>
      <trkpt lat="44.15987" lon="5.01907">
        <ele>344.9</ele>
        <time>2020-09-08T11:34:34Z</time>
      </trkpt>
      <trkpt lat="44.15988" lon="5.01906">
        <ele>344.8</ele>
        <time>2020-09-08T11:34:35Z</time>
      </trkpt>
      <trkpt lat="44.15989" lon="5.01906">
        <ele>344.6</ele>
        <time>2020-09-08T11:34:36Z</time>
      </trkpt>
      <trkpt lat="44.1599" lon="5.01905">
        <ele>344.5</ele>
        <time>2020-09-08T11:34:37Z</time>
      </trkpt>
      <trkpt lat="44.1599" lon="5.01904">
        <ele>344.4</ele>
        <time>2020-09-08T11:34:38Z</time>
      </trkpt>
      <trkpt lat="44.15991" lon="5.01903">
        <ele>344.3</ele>
        <time>2020-09-08T11:34:39Z</time>
      </trkpt>
      <trkpt lat="44.15992" lon="5.01903">
        <ele>344.2</ele>
        <time>2020-09-08T11:34:40Z</time>
      </trkpt>
      <trkpt lat="44.15993" lon="5.01902">
        <ele>344</ele>
        <time>2020-09-08T11:34:41Z</time>
      </trkpt>
      <trkpt lat="44.15994" lon="5.01901">
        <ele>343.9</ele>
        <time>2020-09-08T11:34:42Z</time>
      </trkpt>
      <trkpt lat="44.15995" lon="5.019">
        <ele>343.7</ele>
        <time>2020-09-08T11:34:43Z</time>
      </trkpt>
      <trkpt lat="44.15996" lon="5.01899">
        <ele>343.6</ele>
        <time>2020-09-08T11:34:44Z</time>
      </trkpt>
      <trkpt lat="44.15997" lon="5.01896">
        <ele>343.3</ele>
        <time>2020-09-08T11:34:45Z</time>
      </trkpt>
      <trkpt lat="44.15998" lon="5.01895">
        <ele>334.4</ele>
        <time>2020-09-08T11:34:46Z</time>
      </trkpt>
      <trkpt lat="44.15999" lon="5.01894">
        <ele>334.3</ele>
        <time>2020-09-08T11:34:47Z</time>
      </trkpt>
      <trkpt lat="44.16" lon="5.01892">
        <ele>334.2</ele>
        <time>2020-09-08T11:34:48Z</time>
      </trkpt>
      <trkpt lat="44.16001" lon="5.01892">
        <ele>334.1</ele>
        <time>2020-09-08T11:34:49Z</time>
      </trkpt>
      <trkpt lat="44.16002" lon="5.01891">
        <ele>334.1</ele>
        <time>2020-09-08T11:34:50Z</time>
      </trkpt>
      <trkpt lat="44.16003" lon="5.0189">
        <ele>334</ele>
        <time>2020-09-08T11:34:51Z</time>
      </trkpt>
      <trkpt lat="44.16004" lon="5.01888">
        <ele>334</ele>
        <time>2020-09-08T11:34:52Z</time>
      </trkpt>
      <trkpt lat="44.16005" lon="5.01887">
        <ele>333.9</ele>
        <time>2020-09-08T11:34:53Z</time>
      </trkpt>
      <trkpt lat="44.16006" lon="5.01885">
        <ele>333.8</ele>
        <time>2020-09-08T11:34:54Z</time>
      </trkpt>
      <trkpt lat="44.16007" lon="5.01884">
        <ele>333.7</ele>
        <time>2020-09-08T11:34:55Z</time>
      </trkpt>
      <trkpt lat="44.16008" lon="5.01882">
        <ele>333.6</ele>
        <time>2020-09-08T11:34:56Z</time>
      </trkpt>
      <trkpt lat="44.16008" lon="5.01881">
        <ele>333.6</ele>
        <time>2020-09-08T11:34:57Z</time>
      </trkpt>
      <trkpt lat="44.1601" lon="5.01879">
        <ele>333.5</ele>
        <time>2020-09-08T11:34:58Z</time>
      </trkpt>
      <trkpt lat="44.16011" lon="5.0188">
        <ele>333.4</ele>
        <time>2020-09-08T11:34:59Z</time>
      </trkpt>
      <trkpt lat="44.16012" lon="5.01878">
        <ele>333.4</ele>
        <time>2020-09-08T11:35:00Z</time>
      </trkpt>
      <trkpt lat="44.16012" lon="5.01876">
        <ele>333.3</ele>
        <time>2020-09-08T11:35:01Z</time>
      </trkpt>
      <trkpt lat="44.16013" lon="5.01876">
        <ele>333.3</ele>
        <time>2020-09-08T11:35:02Z</time>
      </trkpt>
      <trkpt lat="44.16014" lon="5.01875">
        <ele>333.2</ele>
        <time>2020-09-08T11:35:03Z</time>
      </trkpt>
      <trkpt lat="44.16014" lon="5.01875">
        <ele>333.2</ele>
        <time>2020-09-08T11:35:04Z</time>
      </trkpt>
      <trkpt lat="44.16015" lon="5.01874">
        <ele>333.1</ele>
        <time>2020-09-08T11:35:05Z</time>
      </trkpt>
      <trkpt lat="44.16017" lon="5.01872">
        <ele>333</ele>
        <time>2020-09-08T11:35:06Z</time>
      </trkpt>
      <trkpt lat="44.16017" lon="5.01871">
        <ele>332.9</ele>
        <time>2020-09-08T11:35:07Z</time>
      </trkpt>
      <trkpt lat="44.16018" lon="5.01871">
        <ele>332.9</ele>
        <time>2020-09-08T11:35:08Z</time>
      </trkpt>
      <trkpt lat="44.16019" lon="5.01869">
        <ele>332.8</ele>
        <time>2020-09-08T11:35:09Z</time>
      </trkpt>
      <trkpt lat="44.16019" lon="5.01869">
        <ele>332.8</ele>
        <time>2020-09-08T11:35:10Z</time>
      </trkpt>
      <trkpt lat="44.1602" lon="5.01867">
        <ele>332.7</ele>
        <time>2020-09-08T11:35:11Z</time>
      </trkpt>
      <trkpt lat="44.16019" lon="5.01864">
        <ele>332.6</ele>
        <time>2020-09-08T11:35:12Z</time>
      </trkpt>
      <trkpt lat="44.16019" lon="5.01862">
        <ele>332.5</ele>
        <time>2020-09-08T11:35:13Z</time>
      </trkpt>
      <trkpt lat="44.16018" lon="5.0186">
        <ele>332.4</ele>
        <time>2020-09-08T11:35:14Z</time>
      </trkpt>
      <trkpt lat="44.16017" lon="5.01859">
        <ele>332.4</ele>
        <time>2020-09-08T11:35:15Z</time>
      </trkpt>
      <trkpt lat="44.16017" lon="5.01858">
        <ele>332.3</ele>
        <time>2020-09-08T11:35:16Z</time>
      </trkpt>
      <trkpt lat="44.16017" lon="5.01857">
        <ele>332.3</ele>
        <time>2020-09-08T11:35:17Z</time>
      </trkpt>
      <trkpt lat="44.16016" lon="5.01858">
        <ele>332.2</ele>
        <time>2020-09-08T11:35:18Z</time>
      </trkpt>
      <trkpt lat="44.16014" lon="5.01858">
        <ele>332.1</ele>
        <time>2020-09-08T11:35:19Z</time>
      </trkpt>
      <trkpt lat="44.16015" lon="5.0186">
        <ele>332</ele>
        <time>2020-09-08T11:35:20Z</time>
      </trkpt>
      <trkpt lat="44.16015" lon="5.0186">
        <ele>332</ele>
        <time>2020-09-08T11:35:21Z</time>
      </trkpt>
      <trkpt lat="44.16015" lon="5.0186">
        <ele>332</ele>
        <time>2020-09-08T11:35:22Z</time>
      </trkpt>
      <trkpt lat="44.16014" lon="5.01861">
        <ele>332</ele>
        <time>2020-09-08T11:35:23Z</time>
      </trkpt>
      <trkpt lat="44.16014" lon="5.01861">
        <ele>331.9</ele>
        <time>2020-09-08T11:35:24Z</time>
      </trkpt>
      <trkpt lat="44.16014" lon="5.01862">
        <ele>331.9</ele>
        <time>2020-09-08T11:35:25Z</time>
      </trkpt>
      <trkpt lat="44.16013" lon="5.01862">
        <ele>331.9</ele>
        <time>2020-09-08T11:35:26Z</time>
      </trkpt>
      <trkpt lat="44.16013" lon="5.01863">
        <ele>331.9</ele>
        <time>2020-09-08T11:35:27Z</time>
      </trkpt>
      <trkpt lat="44.16012" lon="5.01863">
        <ele>331.8</ele>
        <time>2020-09-08T11:35:28Z</time>
      </trkpt>
      <trkpt lat="44.16012" lon="5.01864">
        <ele>331.8</ele>
        <time>2020-09-08T11:35:29Z</time>
      </trkpt>
      <trkpt lat="44.16012" lon="5.01863">
        <ele>331.8</ele>
        <time>2020-09-08T11:35:30Z</time>
      </trkpt>
      <trkpt lat="44.16011" lon="5.01865">
        <ele>331.7</ele>
        <time>2020-09-08T11:35:31Z</time>
      </trkpt>
      <trkpt lat="44.16011" lon="5.01866">
        <ele>331.6</ele>
        <time>2020-09-08T11:35:32Z</time>
      </trkpt>
      <trkpt lat="44.16009" lon="5.01867">
        <ele>331.5</ele>
        <time>2020-09-08T11:35:33Z</time>
      </trkpt>
      <trkpt lat="44.16009" lon="5.01867">
        <ele>331.5</ele>
        <time>2020-09-08T11:35:34Z</time>
      </trkpt>
      <trkpt lat="44.16008" lon="5.01867">
        <ele>331.5</ele>
        <time>2020-09-08T11:35:35Z</time>
      </trkpt>
      <trkpt lat="44.16007" lon="5.01867">
        <ele>331.4</ele>
        <time>2020-09-08T11:35:36Z</time>
      </trkpt>
      <trkpt lat="44.16006" lon="5.01867">
        <ele>331.4</ele>
        <time>2020-09-08T11:35:37Z</time>
      </trkpt>
      <trkpt lat="44.16006" lon="5.01868">
        <ele>331.3</ele>
        <time>2020-09-08T11:35:38Z</time>
      </trkpt>
      <trkpt lat="44.16005" lon="5.01868">
        <ele>331.3</ele>
        <time>2020-09-08T11:35:39Z</time>
      </trkpt>
      <trkpt lat="44.16005" lon="5.01868">
        <ele>331.3</ele>
        <time>2020-09-08T11:35:40Z</time>
      </trkpt>
      <trkpt lat="44.16004" lon="5.01868">
        <ele>331.2</ele>
        <time>2020-09-08T11:35:41Z</time>
      </trkpt>
      <trkpt lat="44.16004" lon="5.01867">
        <ele>331.2</ele>
        <time>2020-09-08T11:35:42Z</time>
      </trkpt>
      <trkpt lat="44.16004" lon="5.01866">
        <ele>331.1</ele>
        <time>2020-09-08T11:35:43Z</time>
      </trkpt>
      <trkpt lat="44.16004" lon="5.01865">
        <ele>331.1</ele>
        <time>2020-09-08T11:35:44Z</time>
      </trkpt>
      <trkpt lat="44.16003" lon="5.01864">
        <ele>331.1</ele>
        <time>2020-09-08T11:35:45Z</time>
      </trkpt>
      <trkpt lat="44.16003" lon="5.01863">
        <ele>331</ele>
        <time>2020-09-08T11:35:46Z</time>
      </trkpt>
      <trkpt lat="44.16001" lon="5.01863">
        <ele>330.9</ele>
        <time>2020-09-08T11:35:47Z</time>
      </trkpt>
      <trkpt lat="44.16" lon="5.01863">
        <ele>330.8</ele>
        <time>2020-09-08T11:35:48Z</time>
      </trkpt>
      <trkpt lat="44.15999" lon="5.01862">
        <ele>330.8</ele>
        <time>2020-09-08T11:35:49Z</time>
      </trkpt>
      <trkpt lat="44.15998" lon="5.01861">
        <ele>330.7</ele>
        <time>2020-09-08T11:35:50Z</time>
      </trkpt>
      <trkpt lat="44.15997" lon="5.0186">
        <ele>330.7</ele>
        <time>2020-09-08T11:35:51Z</time>
      </trkpt>
      <trkpt lat="44.15997" lon="5.01859">
        <ele>330.6</ele>
        <time>2020-09-08T11:35:52Z</time>
      </trkpt>
      <trkpt lat="44.15997" lon="5.01859">
        <ele>330.6</ele>
        <time>2020-09-08T11:35:53Z</time>
      </trkpt>
      <trkpt lat="44.15997" lon="5.01858">
        <ele>330.5</ele>
        <time>2020-09-08T11:35:54Z</time>
      </trkpt>
      <trkpt lat="44.15996" lon="5.01857">
        <ele>330.5</ele>
        <time>2020-09-08T11:35:55Z</time>
      </trkpt>
      <trkpt lat="44.15996" lon="5.01859">
        <ele>330.4</ele>
        <time>2020-09-08T11:35:56Z</time>
      </trkpt>
      <trkpt lat="44.15995" lon="5.01859">
        <ele>330.4</ele>
        <time>2020-09-08T11:35:57Z</time>
      </trkpt>
      <trkpt lat="44.15994" lon="5.0186">
        <ele>330.3</ele>
        <time>2020-09-08T11:35:58Z</time>
      </trkpt>
      <trkpt lat="44.15992" lon="5.0186">
        <ele>330.2</ele>
        <time>2020-09-08T11:35:59Z</time>
      </trkpt>
      <trkpt lat="44.15992" lon="5.01861">
        <ele>330.2</ele>
        <time>2020-09-08T11:36:00Z</time>
      </trkpt>
      <trkpt lat="44.15991" lon="5.01861">
        <ele>330.1</ele>
        <time>2020-09-08T11:36:01Z</time>
      </trkpt>
      <trkpt lat="44.15991" lon="5.01862">
        <ele>330.1</ele>
        <time>2020-09-08T11:36:02Z</time>
      </trkpt>
      <trkpt lat="44.1599" lon="5.01863">
        <ele>330</ele>
        <time>2020-09-08T11:36:03Z</time>
      </trkpt>
      <trkpt lat="44.1599" lon="5.01863">
        <ele>330</ele>
        <time>2020-09-08T11:36:04Z</time>
      </trkpt>
      <trkpt lat="44.1599" lon="5.01862">
        <ele>330</ele>
        <time>2020-09-08T11:36:05Z</time>
      </trkpt>
      <trkpt lat="44.15988" lon="5.01863">
        <ele>329.9</ele>
        <time>2020-09-08T11:36:06Z</time>
      </trkpt>
      <trkpt lat="44.15988" lon="5.01864">
        <ele>329.9</ele>
        <time>2020-09-08T11:36:07Z</time>
      </trkpt>
      <trkpt lat="44.15988" lon="5.01864">
        <ele>329.9</ele>
        <time>2020-09-08T11:36:08Z</time>
      </trkpt>
      <trkpt lat="44.15987" lon="5.01864">
        <ele>329.8</ele>
        <time>2020-09-08T11:36:09Z</time>
      </trkpt>
      <trkpt lat="44.15987" lon="5.01862">
        <ele>329.7</ele>
        <time>2020-09-08T11:36:10Z</time>
      </trkpt>
      <trkpt lat="44.15987" lon="5.0186">
        <ele>329.6</ele>
        <time>2020-09-08T11:36:11Z</time>
      </trkpt>
      <trkpt lat="44.15987" lon="5.01856">
        <ele>329.5</ele>
        <time>2020-09-08T11:36:12Z</time>
      </trkpt>
      <trkpt lat="44.15987" lon="5.01856">
        <ele>329.5</ele>
        <time>2020-09-08T11:36:13Z</time>
      </trkpt>
      <trkpt lat="44.15987" lon="5.01854">
        <ele>329.4</ele>
        <time>2020-09-08T11:36:14Z</time>
      </trkpt>
      <trkpt lat="44.15986" lon="5.01854">
        <ele>329.4</ele>
        <time>2020-09-08T11:36:15Z</time>
      </trkpt>
      <trkpt lat="44.15986" lon="5.01853">
        <ele>329.4</ele>
        <time>2020-09-08T11:36:16Z</time>
      </trkpt>
      <trkpt lat="44.15986" lon="5.01853">
        <ele>329.3</ele>
        <time>2020-09-08T11:36:17Z</time>
      </trkpt>
      <trkpt lat="44.15986" lon="5.01853">
        <ele>329.3</ele>
        <time>2020-09-08T11:36:18Z</time>
      </trkpt>
      <trkpt lat="44.15986" lon="5.01853">
        <ele>329.3</ele>
        <time>2020-09-08T11:36:19Z</time>
      </trkpt>
      <trkpt lat="44.15986" lon="5.01852">
        <ele>329.3</ele>
        <time>2020-09-08T11:36:20Z</time>
      </trkpt>
      <trkpt lat="44.15985" lon="5.01852">
        <ele>326.9</ele>
        <time>2020-09-08T11:36:21Z</time>
      </trkpt>
      <trkpt lat="44.15985" lon="5.01851">
        <ele>326.8</ele>
        <time>2020-09-08T11:36:22Z</time>
      </trkpt>
      <trkpt lat="44.15985" lon="5.01851">
        <ele>326.8</ele>
        <time>2020-09-08T11:36:23Z</time>
      </trkpt>
      <trkpt lat="44.15984" lon="5.01851">
        <ele>326.7</ele>
        <time>2020-09-08T11:36:24Z</time>
      </trkpt>
      <trkpt lat="44.15984" lon="5.01851">
        <ele>326.7</ele>
        <time>2020-09-08T11:36:25Z</time>
      </trkpt>
      <trkpt lat="44.15983" lon="5.0185">
        <ele>326.6</ele>
        <time>2020-09-08T11:36:26Z</time>
      </trkpt>
      <trkpt lat="44.15983" lon="5.0185">
        <ele>326.6</ele>
        <time>2020-09-08T11:36:28Z</time>
      </trkpt>
      <trkpt lat="44.15982" lon="5.0185">
        <ele>326.5</ele>
        <time>2020-09-08T11:36:29Z</time>
      </trkpt>
      <trkpt lat="44.15982" lon="5.0185">
        <ele>326.4</ele>
        <time>2020-09-08T11:36:30Z</time>
      </trkpt>
      <trkpt lat="44.15982" lon="5.01848">
        <ele>326.3</ele>
        <time>2020-09-08T11:36:31Z</time>
      </trkpt>
      <trkpt lat="44.15983" lon="5.01848">
        <ele>326.2</ele>
        <time>2020-09-08T11:36:32Z</time>
      </trkpt>
      <trkpt lat="44.15984" lon="5.01847">
        <ele>326.1</ele>
        <time>2020-09-08T11:36:33Z</time>
      </trkpt>
      <trkpt lat="44.15985" lon="5.01847">
        <ele>326</ele>
        <time>2020-09-08T11:36:34Z</time>
      </trkpt>
      <trkpt lat="44.15985" lon="5.01844">
        <ele>325.8</ele>
        <time>2020-09-08T11:36:35Z</time>
      </trkpt>
      <trkpt lat="44.15985" lon="5.01843">
        <ele>325.7</ele>
        <time>2020-09-08T11:36:36Z</time>
      </trkpt>
      <trkpt lat="44.15985" lon="5.01843">
        <ele>325.6</ele>
        <time>2020-09-08T11:36:37Z</time>
      </trkpt>
      <trkpt lat="44.15986" lon="5.01843">
        <ele>325.6</ele>
        <time>2020-09-08T11:36:38Z</time>
      </trkpt>
      <trkpt lat="44.15986" lon="5.01842">
        <ele>325.5</ele>
        <time>2020-09-08T11:36:39Z</time>
      </trkpt>
      <trkpt lat="44.15987" lon="5.01842">
        <ele>325.4</ele>
        <time>2020-09-08T11:36:40Z</time>
      </trkpt>
      <trkpt lat="44.15987" lon="5.01841">
        <ele>325.3</ele>
        <time>2020-09-08T11:36:41Z</time>
      </trkpt>
      <trkpt lat="44.15988" lon="5.01841">
        <ele>325.2</ele>
        <time>2020-09-08T11:36:42Z</time>
      </trkpt>
      <trkpt lat="44.15988" lon="5.0184">
        <ele>325.1</ele>
        <time>2020-09-08T11:36:43Z</time>
      </trkpt>
      <trkpt lat="44.15988" lon="5.01839">
        <ele>325</ele>
        <time>2020-09-08T11:36:44Z</time>
      </trkpt>
      <trkpt lat="44.15988" lon="5.01838">
        <ele>324.9</ele>
        <time>2020-09-08T11:36:45Z</time>
      </trkpt>
      <trkpt lat="44.1599" lon="5.01838">
        <ele>324.7</ele>
        <time>2020-09-08T11:36:46Z</time>
      </trkpt>
      <trkpt lat="44.15991" lon="5.01836">
        <ele>324.5</ele>
        <time>2020-09-08T11:36:47Z</time>
      </trkpt>
      <trkpt lat="44.15991" lon="5.01834">
        <ele>324.3</ele>
        <time>2020-09-08T11:36:48Z</time>
      </trkpt>
      <trkpt lat="44.15992" lon="5.01834">
        <ele>324.2</ele>
        <time>2020-09-08T11:36:49Z</time>
      </trkpt>
      <trkpt lat="44.15994" lon="5.01833">
        <ele>324</ele>
        <time>2020-09-08T11:36:50Z</time>
      </trkpt>
      <trkpt lat="44.15994" lon="5.01832">
        <ele>323.9</ele>
        <time>2020-09-08T11:36:51Z</time>
      </trkpt>
      <trkpt lat="44.15994" lon="5.01831">
        <ele>323.7</ele>
        <time>2020-09-08T11:36:52Z</time>
      </trkpt>
      <trkpt lat="44.15995" lon="5.01829">
        <ele>323.5</ele>
        <time>2020-09-08T11:36:53Z</time>
      </trkpt>
      <trkpt lat="44.15996" lon="5.01827">
        <ele>323.3</ele>
        <time>2020-09-08T11:36:54Z</time>
      </trkpt>
      <trkpt lat="44.15996" lon="5.01826">
        <ele>323.1</ele>
        <time>2020-09-08T11:36:55Z</time>
      </trkpt>
      <trkpt lat="44.15996" lon="5.01823">
        <ele>322.8</ele>
        <time>2020-09-08T11:36:56Z</time>
      </trkpt>
      <trkpt lat="44.15996" lon="5.01822">
        <ele>322.6</ele>
        <time>2020-09-08T11:36:57Z</time>
      </trkpt>
      <trkpt lat="44.15997" lon="5.01821">
        <ele>322.5</ele>
        <time>2020-09-08T11:36:58Z</time>
      </trkpt>
      <trkpt lat="44.15997" lon="5.0182">
        <ele>322.4</ele>
        <time>2020-09-08T11:36:59Z</time>
      </trkpt>
      <trkpt lat="44.15998" lon="5.01819">
        <ele>322.2</ele>
        <time>2020-09-08T11:37:00Z</time>
      </trkpt>
      <trkpt lat="44.15998" lon="5.01818">
        <ele>322</ele>
        <time>2020-09-08T11:37:01Z</time>
      </trkpt>
      <trkpt lat="44.15999" lon="5.01817">
        <ele>321.9</ele>
        <time>2020-09-08T11:37:02Z</time>
      </trkpt>
      <trkpt lat="44.15999" lon="5.01816">
        <ele>321.8</ele>
        <time>2020-09-08T11:37:03Z</time>
      </trkpt>
      <trkpt lat="44.16" lon="5.01815">
        <ele>321.6</ele>
        <time>2020-09-08T11:37:04Z</time>
      </trkpt>
      <trkpt lat="44.16" lon="5.01813">
        <ele>321.4</ele>
        <time>2020-09-08T11:37:05Z</time>
      </trkpt>
      <trkpt lat="44.16" lon="5.01811">
        <ele>321.2</ele>
        <time>2020-09-08T11:37:06Z</time>
      </trkpt>
      <trkpt lat="44.16" lon="5.01809">
        <ele>320.9</ele>
        <time>2020-09-08T11:37:07Z</time>
      </trkpt>
      <trkpt lat="44.16001" lon="5.01809">
        <ele>320.8</ele>
        <time>2020-09-08T11:37:08Z</time>
      </trkpt>
      <trkpt lat="44.16001" lon="5.01807">
        <ele>320.6</ele>
        <time>2020-09-08T11:37:09Z</time>
      </trkpt>
      <trkpt lat="44.16001" lon="5.01805">
        <ele>320.4</ele>
        <time>2020-09-08T11:37:10Z</time>
      </trkpt>
      <trkpt lat="44.16001" lon="5.01804">
        <ele>320.3</ele>
        <time>2020-09-08T11:37:11Z</time>
      </trkpt>
      <trkpt lat="44.16001" lon="5.01803">
        <ele>320.3</ele>
        <time>2020-09-08T11:37:12Z</time>
      </trkpt>
      <trkpt lat="44.16002" lon="5.01802">
        <ele>320.3</ele>
        <time>2020-09-08T11:37:13Z</time>
      </trkpt>
      <trkpt lat="44.16002" lon="5.018">
        <ele>320.3</ele>
        <time>2020-09-08T11:37:14Z</time>
      </trkpt>
      <trkpt lat="44.16002" lon="5.01799">
        <ele>320.3</ele>
        <time>2020-09-08T11:37:15Z</time>
      </trkpt>
      <trkpt lat="44.16" lon="5.01798">
        <ele>320.3</ele>
        <time>2020-09-08T11:37:16Z</time>
      </trkpt>
      <trkpt lat="44.16" lon="5.01797">
        <ele>320.3</ele>
        <time>2020-09-08T11:37:17Z</time>
      </trkpt>
      <trkpt lat="44.15999" lon="5.01792">
        <ele>320.3</ele>
        <time>2020-09-08T11:37:18Z</time>
      </trkpt>
      <trkpt lat="44.15998" lon="5.01789">
        <ele>320.3</ele>
        <time>2020-09-08T11:37:19Z</time>
      </trkpt>
      <trkpt lat="44.15997" lon="5.01788">
        <ele>320.3</ele>
        <time>2020-09-08T11:37:20Z</time>
      </trkpt>
      <trkpt lat="44.15996" lon="5.01786">
        <ele>320.3</ele>
        <time>2020-09-08T11:37:21Z</time>
      </trkpt>
      <trkpt lat="44.15995" lon="5.01783">
        <ele>320.4</ele>
        <time>2020-09-08T11:37:22Z</time>
      </trkpt>
      <trkpt lat="44.15995" lon="5.01782">
        <ele>320.4</ele>
        <time>2020-09-08T11:37:23Z</time>
      </trkpt>
      <trkpt lat="44.15994" lon="5.01781">
        <ele>320.4</ele>
        <time>2020-09-08T11:37:24Z</time>
      </trkpt>
      <trkpt lat="44.15993" lon="5.01777">
        <ele>320.5</ele>
        <time>2020-09-08T11:37:25Z</time>
      </trkpt>
      <trkpt lat="44.15992" lon="5.01776">
        <ele>320.5</ele>
        <time>2020-09-08T11:37:26Z</time>
      </trkpt>
      <trkpt lat="44.15992" lon="5.01774">
        <ele>320.6</ele>
        <time>2020-09-08T11:37:27Z</time>
      </trkpt>
      <trkpt lat="44.15992" lon="5.01772">
        <ele>320.6</ele>
        <time>2020-09-08T11:37:28Z</time>
      </trkpt>
      <trkpt lat="44.15991" lon="5.0177">
        <ele>320.7</ele>
        <time>2020-09-08T11:37:29Z</time>
      </trkpt>
      <trkpt lat="44.15992" lon="5.01769">
        <ele>320.7</ele>
        <time>2020-09-08T11:37:30Z</time>
      </trkpt>
      <trkpt lat="44.15994" lon="5.01769">
        <ele>320.8</ele>
        <time>2020-09-08T11:37:31Z</time>
      </trkpt>
      <trkpt lat="44.15994" lon="5.01768">
        <ele>320.8</ele>
        <time>2020-09-08T11:37:32Z</time>
      </trkpt>
      <trkpt lat="44.15994" lon="5.01765">
        <ele>320.9</ele>
        <time>2020-09-08T11:37:33Z</time>
      </trkpt>
      <trkpt lat="44.15993" lon="5.01764">
        <ele>320.9</ele>
        <time>2020-09-08T11:37:34Z</time>
      </trkpt>
      <trkpt lat="44.15992" lon="5.01763">
        <ele>321</ele>
        <time>2020-09-08T11:37:35Z</time>
      </trkpt>
      <trkpt lat="44.15992" lon="5.01762">
        <ele>321</ele>
        <time>2020-09-08T11:37:36Z</time>
      </trkpt>
      <trkpt lat="44.15991" lon="5.01761">
        <ele>321.1</ele>
        <time>2020-09-08T11:37:37Z</time>
      </trkpt>
      <trkpt lat="44.15991" lon="5.0176">
        <ele>321.1</ele>
        <time>2020-09-08T11:37:38Z</time>
      </trkpt>
      <trkpt lat="44.15989" lon="5.01758">
        <ele>321.2</ele>
        <time>2020-09-08T11:37:39Z</time>
      </trkpt>
      <trkpt lat="44.15989" lon="5.01758">
        <ele>321.2</ele>
        <time>2020-09-08T11:37:40Z</time>
      </trkpt>
      <trkpt lat="44.15987" lon="5.01756">
        <ele>321.3</ele>
        <time>2020-09-08T11:37:41Z</time>
      </trkpt>
      <trkpt lat="44.15987" lon="5.01755">
        <ele>321.3</ele>
        <time>2020-09-08T11:37:42Z</time>
      </trkpt>
      <trkpt lat="44.15986" lon="5.01753">
        <ele>321.4</ele>
        <time>2020-09-08T11:37:43Z</time>
      </trkpt>
      <trkpt lat="44.15985" lon="5.01752">
        <ele>321.4</ele>
        <time>2020-09-08T11:37:44Z</time>
      </trkpt>
      <trkpt lat="44.15985" lon="5.01751">
        <ele>321.5</ele>
        <time>2020-09-08T11:37:45Z</time>
      </trkpt>
      <trkpt lat="44.15984" lon="5.0175">
        <ele>321.5</ele>
        <time>2020-09-08T11:37:46Z</time>
      </trkpt>
      <trkpt lat="44.15983" lon="5.01749">
        <ele>321.6</ele>
        <time>2020-09-08T11:37:47Z</time>
      </trkpt>
      <trkpt lat="44.15983" lon="5.01748">
        <ele>321.6</ele>
        <time>2020-09-08T11:37:48Z</time>
      </trkpt>
      <trkpt lat="44.15982" lon="5.01748">
        <ele>321.6</ele>
        <time>2020-09-08T11:37:49Z</time>
      </trkpt>
      <trkpt lat="44.15982" lon="5.01747">
        <ele>321.7</ele>
        <time>2020-09-08T11:37:50Z</time>
      </trkpt>
      <trkpt lat="44.15981" lon="5.01747">
        <ele>321.7</ele>
        <time>2020-09-08T11:37:51Z</time>
      </trkpt>
      <trkpt lat="44.1598" lon="5.01746">
        <ele>321.7</ele>
        <time>2020-09-08T11:37:52Z</time>
      </trkpt>
      <trkpt lat="44.1598" lon="5.01745">
        <ele>321.8</ele>
        <time>2020-09-08T11:37:53Z</time>
      </trkpt>
      <trkpt lat="44.15979" lon="5.01744">
        <ele>321.8</ele>
        <time>2020-09-08T11:37:54Z</time>
      </trkpt>
      <trkpt lat="44.15978" lon="5.01743">
        <ele>321.9</ele>
        <time>2020-09-08T11:37:55Z</time>
      </trkpt>
      <trkpt lat="44.15977" lon="5.01742">
        <ele>322</ele>
        <time>2020-09-08T11:37:56Z</time>
      </trkpt>
      <trkpt lat="44.15976" lon="5.01741">
        <ele>322</ele>
        <time>2020-09-08T11:37:57Z</time>
      </trkpt>
      <trkpt lat="44.15975" lon="5.01741">
        <ele>322.1</ele>
        <time>2020-09-08T11:37:58Z</time>
      </trkpt>
      <trkpt lat="44.15974" lon="5.01741">
        <ele>322.1</ele>
        <time>2020-09-08T11:37:59Z</time>
      </trkpt>
      <trkpt lat="44.15973" lon="5.01741">
        <ele>322.1</ele>
        <time>2020-09-08T11:38:00Z</time>
      </trkpt>
      <trkpt lat="44.15972" lon="5.0174">
        <ele>322.2</ele>
        <time>2020-09-08T11:38:01Z</time>
      </trkpt>
      <trkpt lat="44.15971" lon="5.01739">
        <ele>322.3</ele>
        <time>2020-09-08T11:38:02Z</time>
      </trkpt>
      <trkpt lat="44.1597" lon="5.01739">
        <ele>322.3</ele>
        <time>2020-09-08T11:38:03Z</time>
      </trkpt>
      <trkpt lat="44.15969" lon="5.01739">
        <ele>322.4</ele>
        <time>2020-09-08T11:38:04Z</time>
      </trkpt>
      <trkpt lat="44.15967" lon="5.01738">
        <ele>322.4</ele>
        <time>2020-09-08T11:38:05Z</time>
      </trkpt>
      <trkpt lat="44.15966" lon="5.01737">
        <ele>322.5</ele>
        <time>2020-09-08T11:38:06Z</time>
      </trkpt>
      <trkpt lat="44.15965" lon="5.01737">
        <ele>322.5</ele>
        <time>2020-09-08T11:38:07Z</time>
      </trkpt>
      <trkpt lat="44.15963" lon="5.01735">
        <ele>322.6</ele>
        <time>2020-09-08T11:38:08Z</time>
      </trkpt>
      <trkpt lat="44.15963" lon="5.01735">
        <ele>322.6</ele>
        <time>2020-09-08T11:38:09Z</time>
      </trkpt>
      <trkpt lat="44.15963" lon="5.01734">
        <ele>322.7</ele>
        <time>2020-09-08T11:38:10Z</time>
      </trkpt>
      <trkpt lat="44.15962" lon="5.01734">
        <ele>322.7</ele>
        <time>2020-09-08T11:38:11Z</time>
      </trkpt>
      <trkpt lat="44.15961" lon="5.01733">
        <ele>322.8</ele>
        <time>2020-09-08T11:38:12Z</time>
      </trkpt>
      <trkpt lat="44.15959" lon="5.01733">
        <ele>322.8</ele>
        <time>2020-09-08T11:38:13Z</time>
      </trkpt>
      <trkpt lat="44.15958" lon="5.01732">
        <ele>322.9</ele>
        <time>2020-09-08T11:38:14Z</time>
      </trkpt>
      <trkpt lat="44.15956" lon="5.01732">
        <ele>322.9</ele>
        <time>2020-09-08T11:38:15Z</time>
      </trkpt>
      <trkpt lat="44.15956" lon="5.01731">
        <ele>322.9</ele>
        <time>2020-09-08T11:38:16Z</time>
      </trkpt>
      <trkpt lat="44.15956" lon="5.01729">
        <ele>323</ele>
        <time>2020-09-08T11:38:17Z</time>
      </trkpt>
      <trkpt lat="44.15957" lon="5.01728">
        <ele>322.7</ele>
        <time>2020-09-08T11:38:18Z</time>
      </trkpt>
      <trkpt lat="44.15958" lon="5.01727">
        <ele>322.6</ele>
        <time>2020-09-08T11:38:19Z</time>
      </trkpt>
      <trkpt lat="44.15958" lon="5.01725">
        <ele>322.5</ele>
        <time>2020-09-08T11:38:20Z</time>
      </trkpt>
      <trkpt lat="44.15958" lon="5.01724">
        <ele>322.5</ele>
        <time>2020-09-08T11:38:21Z</time>
      </trkpt>
      <trkpt lat="44.15959" lon="5.01723">
        <ele>322.4</ele>
        <time>2020-09-08T11:38:22Z</time>
      </trkpt>
      <trkpt lat="44.1596" lon="5.01722">
        <ele>322.3</ele>
        <time>2020-09-08T11:38:23Z</time>
      </trkpt>
      <trkpt lat="44.15961" lon="5.01724">
        <ele>322.2</ele>
        <time>2020-09-08T11:38:24Z</time>
      </trkpt>
      <trkpt lat="44.15962" lon="5.01723">
        <ele>322</ele>
        <time>2020-09-08T11:38:25Z</time>
      </trkpt>
      <trkpt lat="44.15964" lon="5.01722">
        <ele>321.9</ele>
        <time>2020-09-08T11:38:26Z</time>
      </trkpt>
      <trkpt lat="44.15965" lon="5.01721">
        <ele>321.9</ele>
        <time>2020-09-08T11:38:27Z</time>
      </trkpt>
      <trkpt lat="44.15966" lon="5.0172">
        <ele>321.8</ele>
        <time>2020-09-08T11:38:28Z</time>
      </trkpt>
      <trkpt lat="44.15967" lon="5.0172">
        <ele>321.7</ele>
        <time>2020-09-08T11:38:29Z</time>
      </trkpt>
      <trkpt lat="44.15968" lon="5.0172">
        <ele>321.6</ele>
        <time>2020-09-08T11:38:30Z</time>
      </trkpt>
      <trkpt lat="44.15969" lon="5.01719">
        <ele>321.5</ele>
        <time>2020-09-08T11:38:31Z</time>
      </trkpt>
      <trkpt lat="44.1597" lon="5.01718">
        <ele>321.4</ele>
        <time>2020-09-08T11:38:32Z</time>
      </trkpt>
      <trkpt lat="44.15971" lon="5.01716">
        <ele>321.3</ele>
        <time>2020-09-08T11:38:33Z</time>
      </trkpt>
      <trkpt lat="44.15973" lon="5.01715">
        <ele>321.2</ele>
        <time>2020-09-08T11:38:34Z</time>
      </trkpt>
      <trkpt lat="44.15974" lon="5.01715">
        <ele>321</ele>
        <time>2020-09-08T11:38:35Z</time>
      </trkpt>
      <trkpt lat="44.15974" lon="5.01714">
        <ele>321</ele>
        <time>2020-09-08T11:38:36Z</time>
      </trkpt>
      <trkpt lat="44.15974" lon="5.01712">
        <ele>320.9</ele>
        <time>2020-09-08T11:38:37Z</time>
      </trkpt>
      <trkpt lat="44.15977" lon="5.0171">
        <ele>320.7</ele>
        <time>2020-09-08T11:38:38Z</time>
      </trkpt>
      <trkpt lat="44.15977" lon="5.01709">
        <ele>320.6</ele>
        <time>2020-09-08T11:38:39Z</time>
      </trkpt>
      <trkpt lat="44.15978" lon="5.01709">
        <ele>320.5</ele>
        <time>2020-09-08T11:38:40Z</time>
      </trkpt>
      <trkpt lat="44.15979" lon="5.01708">
        <ele>320.5</ele>
        <time>2020-09-08T11:38:41Z</time>
      </trkpt>
      <trkpt lat="44.15981" lon="5.01707">
        <ele>320.3</ele>
        <time>2020-09-08T11:38:42Z</time>
      </trkpt>
      <trkpt lat="44.15982" lon="5.01707">
        <ele>320.2</ele>
        <time>2020-09-08T11:38:43Z</time>
      </trkpt>
      <trkpt lat="44.15983" lon="5.01706">
        <ele>320.1</ele>
        <time>2020-09-08T11:38:44Z</time>
      </trkpt>
      <trkpt lat="44.15984" lon="5.01705">
        <ele>320</ele>
        <time>2020-09-08T11:38:45Z</time>
      </trkpt>
      <trkpt lat="44.15985" lon="5.01704">
        <ele>319.8</ele>
        <time>2020-09-08T11:38:46Z</time>
      </trkpt>
      <trkpt lat="44.15986" lon="5.01703">
        <ele>319.8</ele>
        <time>2020-09-08T11:38:47Z</time>
      </trkpt>
      <trkpt lat="44.15987" lon="5.01702">
        <ele>319.7</ele>
        <time>2020-09-08T11:38:48Z</time>
      </trkpt>
      <trkpt lat="44.15988" lon="5.01702">
        <ele>319.6</ele>
        <time>2020-09-08T11:38:49Z</time>
      </trkpt>
      <trkpt lat="44.15989" lon="5.017">
        <ele>319.5</ele>
        <time>2020-09-08T11:38:50Z</time>
      </trkpt>
      <trkpt lat="44.15989" lon="5.01699">
        <ele>319.4</ele>
        <time>2020-09-08T11:38:51Z</time>
      </trkpt>
      <trkpt lat="44.1599" lon="5.01697">
        <ele>319.3</ele>
        <time>2020-09-08T11:38:52Z</time>
      </trkpt>
      <trkpt lat="44.15991" lon="5.01695">
        <ele>319.2</ele>
        <time>2020-09-08T11:38:53Z</time>
      </trkpt>
      <trkpt lat="44.15991" lon="5.01695">
        <ele>319.1</ele>
        <time>2020-09-08T11:38:54Z</time>
      </trkpt>
      <trkpt lat="44.15992" lon="5.01694">
        <ele>319.1</ele>
        <time>2020-09-08T11:38:55Z</time>
      </trkpt>
      <trkpt lat="44.15992" lon="5.01694">
        <ele>319</ele>
        <time>2020-09-08T11:38:56Z</time>
      </trkpt>
      <trkpt lat="44.15994" lon="5.01693">
        <ele>318.9</ele>
        <time>2020-09-08T11:38:57Z</time>
      </trkpt>
      <trkpt lat="44.15994" lon="5.01692">
        <ele>318.9</ele>
        <time>2020-09-08T11:38:58Z</time>
      </trkpt>
      <trkpt lat="44.15996" lon="5.0169">
        <ele>318.7</ele>
        <time>2020-09-08T11:38:59Z</time>
      </trkpt>
      <trkpt lat="44.15996" lon="5.01689">
        <ele>318.7</ele>
        <time>2020-09-08T11:39:00Z</time>
      </trkpt>
      <trkpt lat="44.15998" lon="5.0169">
        <ele>318.6</ele>
        <time>2020-09-08T11:39:01Z</time>
      </trkpt>
      <trkpt lat="44.15998" lon="5.0169">
        <ele>318.6</ele>
        <time>2020-09-08T11:39:02Z</time>
      </trkpt>
      <trkpt lat="44.15999" lon="5.01689">
        <ele>318.5</ele>
        <time>2020-09-08T11:39:03Z</time>
      </trkpt>
      <trkpt lat="44.16001" lon="5.01689">
        <ele>318.4</ele>
        <time>2020-09-08T11:39:04Z</time>
      </trkpt>
      <trkpt lat="44.16002" lon="5.01688">
        <ele>318.4</ele>
        <time>2020-09-08T11:39:05Z</time>
      </trkpt>
      <trkpt lat="44.16002" lon="5.01688">
        <ele>318.4</ele>
        <time>2020-09-08T11:39:06Z</time>
      </trkpt>
      <trkpt lat="44.16003" lon="5.01688">
        <ele>318.3</ele>
        <time>2020-09-08T11:39:07Z</time>
      </trkpt>
      <trkpt lat="44.16004" lon="5.01687">
        <ele>318.3</ele>
        <time>2020-09-08T11:39:08Z</time>
      </trkpt>
      <trkpt lat="44.16005" lon="5.01687">
        <ele>318.2</ele>
        <time>2020-09-08T11:39:09Z</time>
      </trkpt>
      <trkpt lat="44.16006" lon="5.01686">
        <ele>318.1</ele>
        <time>2020-09-08T11:39:10Z</time>
      </trkpt>
      <trkpt lat="44.16008" lon="5.01685">
        <ele>318</ele>
        <time>2020-09-08T11:39:11Z</time>
      </trkpt>
      <trkpt lat="44.16009" lon="5.01684">
        <ele>318</ele>
        <time>2020-09-08T11:39:12Z</time>
      </trkpt>
      <trkpt lat="44.1601" lon="5.01683">
        <ele>317.9</ele>
        <time>2020-09-08T11:39:13Z</time>
      </trkpt>
      <trkpt lat="44.16011" lon="5.01681">
        <ele>317.8</ele>
        <time>2020-09-08T11:39:14Z</time>
      </trkpt>
      <trkpt lat="44.16013" lon="5.0168">
        <ele>317.7</ele>
        <time>2020-09-08T11:39:15Z</time>
      </trkpt>
      <trkpt lat="44.16013" lon="5.01679">
        <ele>317.6</ele>
        <time>2020-09-08T11:39:16Z</time>
      </trkpt>
      <trkpt lat="44.16014" lon="5.01677">
        <ele>317.5</ele>
        <time>2020-09-08T11:39:17Z</time>
      </trkpt>
      <trkpt lat="44.16015" lon="5.01676">
        <ele>317.4</ele>
        <time>2020-09-08T11:39:18Z</time>
      </trkpt>
      <trkpt lat="44.16015" lon="5.01676">
        <ele>317.3</ele>
        <time>2020-09-08T11:39:19Z</time>
      </trkpt>
      <trkpt lat="44.16016" lon="5.01675">
        <ele>317.3</ele>
        <time>2020-09-08T11:39:20Z</time>
      </trkpt>
      <trkpt lat="44.16017" lon="5.01674">
        <ele>317.1</ele>
        <time>2020-09-08T11:39:21Z</time>
      </trkpt>
      <trkpt lat="44.16019" lon="5.01673">
        <ele>316.9</ele>
        <time>2020-09-08T11:39:22Z</time>
      </trkpt>
      <trkpt lat="44.1602" lon="5.01672">
        <ele>316.9</ele>
        <time>2020-09-08T11:39:23Z</time>
      </trkpt>
      <trkpt lat="44.16021" lon="5.01672">
        <ele>316.8</ele>
        <time>2020-09-08T11:39:24Z</time>
      </trkpt>
      <trkpt lat="44.16021" lon="5.01671">
        <ele>316.7</ele>
        <time>2020-09-08T11:39:25Z</time>
      </trkpt>
      <trkpt lat="44.16022" lon="5.0167">
        <ele>316.5</ele>
        <time>2020-09-08T11:39:26Z</time>
      </trkpt>
      <trkpt lat="44.16023" lon="5.01669">
        <ele>316.5</ele>
        <time>2020-09-08T11:39:27Z</time>
      </trkpt>
      <trkpt lat="44.16024" lon="5.01668">
        <ele>316.3</ele>
        <time>2020-09-08T11:39:28Z</time>
      </trkpt>
      <trkpt lat="44.16025" lon="5.01668">
        <ele>316.2</ele>
        <time>2020-09-08T11:39:29Z</time>
      </trkpt>
      <trkpt lat="44.16026" lon="5.01667">
        <ele>316.1</ele>
        <time>2020-09-08T11:39:30Z</time>
      </trkpt>
      <trkpt lat="44.16028" lon="5.01667">
        <ele>315.9</ele>
        <time>2020-09-08T11:39:31Z</time>
      </trkpt>
      <trkpt lat="44.16029" lon="5.01667">
        <ele>315.8</ele>
        <time>2020-09-08T11:39:32Z</time>
      </trkpt>
      <trkpt lat="44.16029" lon="5.01667">
        <ele>315.8</ele>
        <time>2020-09-08T11:39:33Z</time>
      </trkpt>
      <trkpt lat="44.1603" lon="5.01666">
        <ele>315.7</ele>
        <time>2020-09-08T11:39:34Z</time>
      </trkpt>
      <trkpt lat="44.16031" lon="5.01665">
        <ele>315.6</ele>
        <time>2020-09-08T11:39:35Z</time>
      </trkpt>
      <trkpt lat="44.16031" lon="5.01665">
        <ele>315.5</ele>
        <time>2020-09-08T11:39:36Z</time>
      </trkpt>
      <trkpt lat="44.16032" lon="5.01664">
        <ele>315.4</ele>
        <time>2020-09-08T11:39:37Z</time>
      </trkpt>
      <trkpt lat="44.16033" lon="5.01663">
        <ele>315.3</ele>
        <time>2020-09-08T11:39:38Z</time>
      </trkpt>
      <trkpt lat="44.16035" lon="5.01662">
        <ele>315.1</ele>
        <time>2020-09-08T11:39:39Z</time>
      </trkpt>
      <trkpt lat="44.16037" lon="5.0166">
        <ele>314.8</ele>
        <time>2020-09-08T11:39:40Z</time>
      </trkpt>
      <trkpt lat="44.16039" lon="5.01659">
        <ele>314.7</ele>
        <time>2020-09-08T11:39:41Z</time>
      </trkpt>
      <trkpt lat="44.1604" lon="5.01658">
        <ele>314.6</ele>
        <time>2020-09-08T11:39:42Z</time>
      </trkpt>
      <trkpt lat="44.16042" lon="5.01656">
        <ele>314.4</ele>
        <time>2020-09-08T11:39:43Z</time>
      </trkpt>
      <trkpt lat="44.16043" lon="5.01656">
        <ele>314.3</ele>
        <time>2020-09-08T11:39:44Z</time>
      </trkpt>
      <trkpt lat="44.16043" lon="5.01655">
        <ele>314.3</ele>
        <time>2020-09-08T11:39:45Z</time>
      </trkpt>
      <trkpt lat="44.16044" lon="5.01655">
        <ele>314.2</ele>
        <time>2020-09-08T11:39:46Z</time>
      </trkpt>
      <trkpt lat="44.16046" lon="5.01655">
        <ele>314</ele>
        <time>2020-09-08T11:39:47Z</time>
      </trkpt>
      <trkpt lat="44.16048" lon="5.01654">
        <ele>313.9</ele>
        <time>2020-09-08T11:39:48Z</time>
      </trkpt>
      <trkpt lat="44.16049" lon="5.01653">
        <ele>313.8</ele>
        <time>2020-09-08T11:39:49Z</time>
      </trkpt>
      <trkpt lat="44.1605" lon="5.01652">
        <ele>313.8</ele>
        <time>2020-09-08T11:39:50Z</time>
      </trkpt>
      <trkpt lat="44.1605" lon="5.01651">
        <ele>313.7</ele>
        <time>2020-09-08T11:39:51Z</time>
      </trkpt>
      <trkpt lat="44.16051" lon="5.0165">
        <ele>313.6</ele>
        <time>2020-09-08T11:39:52Z</time>
      </trkpt>
      <trkpt lat="44.16053" lon="5.01649">
        <ele>313.5</ele>
        <time>2020-09-08T11:39:53Z</time>
      </trkpt>
      <trkpt lat="44.16054" lon="5.01648">
        <ele>313.4</ele>
        <time>2020-09-08T11:39:54Z</time>
      </trkpt>
      <trkpt lat="44.16056" lon="5.01646">
        <ele>313.3</ele>
        <time>2020-09-08T11:39:55Z</time>
      </trkpt>
      <trkpt lat="44.16057" lon="5.01646">
        <ele>313.2</ele>
        <time>2020-09-08T11:39:56Z</time>
      </trkpt>
      <trkpt lat="44.16057" lon="5.01645">
        <ele>313.2</ele>
        <time>2020-09-08T11:39:57Z</time>
      </trkpt>
      <trkpt lat="44.16059" lon="5.01643">
        <ele>313.1</ele>
        <time>2020-09-08T11:39:58Z</time>
      </trkpt>
      <trkpt lat="44.16059" lon="5.01642">
        <ele>313</ele>
        <time>2020-09-08T11:39:59Z</time>
      </trkpt>
      <trkpt lat="44.1606" lon="5.01642">
        <ele>312.9</ele>
        <time>2020-09-08T11:40:00Z</time>
      </trkpt>
      <trkpt lat="44.16062" lon="5.01641">
        <ele>312.8</ele>
        <time>2020-09-08T11:40:01Z</time>
      </trkpt>
      <trkpt lat="44.16063" lon="5.01641">
        <ele>312.7</ele>
        <time>2020-09-08T11:40:02Z</time>
      </trkpt>
      <trkpt lat="44.16064" lon="5.01641">
        <ele>312.7</ele>
        <time>2020-09-08T11:40:03Z</time>
      </trkpt>
      <trkpt lat="44.16064" lon="5.01641">
        <ele>312.6</ele>
        <time>2020-09-08T11:40:04Z</time>
      </trkpt>
      <trkpt lat="44.16066" lon="5.0164">
        <ele>312.5</ele>
        <time>2020-09-08T11:40:05Z</time>
      </trkpt>
      <trkpt lat="44.16068" lon="5.0164">
        <ele>312.4</ele>
        <time>2020-09-08T11:40:06Z</time>
      </trkpt>
      <trkpt lat="44.16069" lon="5.01639">
        <ele>312.2</ele>
        <time>2020-09-08T11:40:07Z</time>
      </trkpt>
      <trkpt lat="44.1607" lon="5.01639">
        <ele>312.1</ele>
        <time>2020-09-08T11:40:08Z</time>
      </trkpt>
      <trkpt lat="44.16072" lon="5.01639">
        <ele>312</ele>
        <time>2020-09-08T11:40:09Z</time>
      </trkpt>
      <trkpt lat="44.16073" lon="5.01638">
        <ele>311.9</ele>
        <time>2020-09-08T11:40:10Z</time>
      </trkpt>
      <trkpt lat="44.16074" lon="5.01638">
        <ele>311.8</ele>
        <time>2020-09-08T11:40:11Z</time>
      </trkpt>
      <trkpt lat="44.16075" lon="5.01638">
        <ele>311.7</ele>
        <time>2020-09-08T11:40:12Z</time>
      </trkpt>
      <trkpt lat="44.16076" lon="5.01638">
        <ele>311.7</ele>
        <time>2020-09-08T11:40:13Z</time>
      </trkpt>
      <trkpt lat="44.16078" lon="5.01637">
        <ele>311.5</ele>
        <time>2020-09-08T11:40:14Z</time>
      </trkpt>
      <trkpt lat="44.16079" lon="5.01635">
        <ele>311.3</ele>
        <time>2020-09-08T11:40:15Z</time>
      </trkpt>
      <trkpt lat="44.16081" lon="5.01635">
        <ele>311.2</ele>
        <time>2020-09-08T11:40:16Z</time>
      </trkpt>
      <trkpt lat="44.16082" lon="5.01635">
        <ele>311.1</ele>
        <time>2020-09-08T11:40:17Z</time>
      </trkpt>
      <trkpt lat="44.16084" lon="5.01635">
        <ele>310.9</ele>
        <time>2020-09-08T11:40:18Z</time>
      </trkpt>
      <trkpt lat="44.16086" lon="5.01635">
        <ele>310.8</ele>
        <time>2020-09-08T11:40:19Z</time>
      </trkpt>
      <trkpt lat="44.16087" lon="5.01635">
        <ele>310.7</ele>
        <time>2020-09-08T11:40:20Z</time>
      </trkpt>
      <trkpt lat="44.16088" lon="5.01634">
        <ele>310.6</ele>
        <time>2020-09-08T11:40:21Z</time>
      </trkpt>
      <trkpt lat="44.16089" lon="5.01633">
        <ele>310.6</ele>
        <time>2020-09-08T11:40:22Z</time>
      </trkpt>
      <trkpt lat="44.1609" lon="5.01633">
        <ele>310.5</ele>
        <time>2020-09-08T11:40:23Z</time>
      </trkpt>
      <trkpt lat="44.16091" lon="5.01632">
        <ele>310.4</ele>
        <time>2020-09-08T11:40:24Z</time>
      </trkpt>
      <trkpt lat="44.16091" lon="5.01631">
        <ele>310.4</ele>
        <time>2020-09-08T11:40:25Z</time>
      </trkpt>
      <trkpt lat="44.16092" lon="5.01631">
        <ele>310.3</ele>
        <time>2020-09-08T11:40:26Z</time>
      </trkpt>
      <trkpt lat="44.16094" lon="5.0163">
        <ele>310.2</ele>
        <time>2020-09-08T11:40:27Z</time>
      </trkpt>
      <trkpt lat="44.16095" lon="5.01628">
        <ele>310.1</ele>
        <time>2020-09-08T11:40:28Z</time>
      </trkpt>
      <trkpt lat="44.16096" lon="5.01628">
        <ele>310</ele>
        <time>2020-09-08T11:40:29Z</time>
      </trkpt>
      <trkpt lat="44.16097" lon="5.01627">
        <ele>309.9</ele>
        <time>2020-09-08T11:40:30Z</time>
      </trkpt>
      <trkpt lat="44.161" lon="5.01627">
        <ele>309.7</ele>
        <time>2020-09-08T11:40:31Z</time>
      </trkpt>
      <trkpt lat="44.16101" lon="5.01627">
        <ele>309.6</ele>
        <time>2020-09-08T11:40:32Z</time>
      </trkpt>
      <trkpt lat="44.16102" lon="5.01627">
        <ele>309.6</ele>
        <time>2020-09-08T11:40:33Z</time>
      </trkpt>
      <trkpt lat="44.16103" lon="5.01626">
        <ele>309.5</ele>
        <time>2020-09-08T11:40:34Z</time>
      </trkpt>
      <trkpt lat="44.16103" lon="5.01625">
        <ele>309.4</ele>
        <time>2020-09-08T11:40:35Z</time>
      </trkpt>
      <trkpt lat="44.16105" lon="5.01625">
        <ele>309.3</ele>
        <time>2020-09-08T11:40:36Z</time>
      </trkpt>
      <trkpt lat="44.16106" lon="5.01624">
        <ele>309.2</ele>
        <time>2020-09-08T11:40:37Z</time>
      </trkpt>
      <trkpt lat="44.16107" lon="5.01624">
        <ele>309.1</ele>
        <time>2020-09-08T11:40:38Z</time>
      </trkpt>
      <trkpt lat="44.16108" lon="5.01624">
        <ele>309.1</ele>
        <time>2020-09-08T11:40:39Z</time>
      </trkpt>
      <trkpt lat="44.16108" lon="5.01624">
        <ele>309</ele>
        <time>2020-09-08T11:40:40Z</time>
      </trkpt>
      <trkpt lat="44.16109" lon="5.01623">
        <ele>309</ele>
        <time>2020-09-08T11:40:41Z</time>
      </trkpt>
      <trkpt lat="44.1611" lon="5.01623">
        <ele>308.9</ele>
        <time>2020-09-08T11:40:42Z</time>
      </trkpt>
      <trkpt lat="44.16111" lon="5.01623">
        <ele>308.8</ele>
        <time>2020-09-08T11:40:43Z</time>
      </trkpt>
      <trkpt lat="44.16112" lon="5.01623">
        <ele>308.8</ele>
        <time>2020-09-08T11:40:44Z</time>
      </trkpt>
      <trkpt lat="44.16113" lon="5.01622">
        <ele>308.7</ele>
        <time>2020-09-08T11:40:45Z</time>
      </trkpt>
      <trkpt lat="44.16113" lon="5.01621">
        <ele>308.7</ele>
        <time>2020-09-08T11:40:46Z</time>
      </trkpt>
      <trkpt lat="44.16114" lon="5.0162">
        <ele>308.6</ele>
        <time>2020-09-08T11:40:47Z</time>
      </trkpt>
      <trkpt lat="44.16115" lon="5.01621">
        <ele>308.5</ele>
        <time>2020-09-08T11:40:48Z</time>
      </trkpt>
      <trkpt lat="44.16116" lon="5.0162">
        <ele>308.5</ele>
        <time>2020-09-08T11:40:49Z</time>
      </trkpt>
      <trkpt lat="44.16117" lon="5.01619">
        <ele>308.4</ele>
        <time>2020-09-08T11:40:50Z</time>
      </trkpt>
      <trkpt lat="44.16119" lon="5.01619">
        <ele>308.3</ele>
        <time>2020-09-08T11:40:51Z</time>
      </trkpt>
      <trkpt lat="44.16119" lon="5.01619">
        <ele>308.2</ele>
        <time>2020-09-08T11:40:52Z</time>
      </trkpt>
      <trkpt lat="44.16121" lon="5.01619">
        <ele>308.1</ele>
        <time>2020-09-08T11:40:53Z</time>
      </trkpt>
      <trkpt lat="44.16122" lon="5.01618">
        <ele>308.1</ele>
        <time>2020-09-08T11:40:54Z</time>
      </trkpt>
      <trkpt lat="44.16123" lon="5.0162">
        <ele>308</ele>
        <time>2020-09-08T11:40:55Z</time>
      </trkpt>
      <trkpt lat="44.16124" lon="5.01619">
        <ele>307.9</ele>
        <time>2020-09-08T11:40:56Z</time>
      </trkpt>
      <trkpt lat="44.16124" lon="5.01619">
        <ele>307.9</ele>
        <time>2020-09-08T11:40:57Z</time>
      </trkpt>
      <trkpt lat="44.16126" lon="5.01619">
        <ele>307.8</ele>
        <time>2020-09-08T11:40:58Z</time>
      </trkpt>
      <trkpt lat="44.16127" lon="5.01619">
        <ele>307.8</ele>
        <time>2020-09-08T11:40:59Z</time>
      </trkpt>
      <trkpt lat="44.16128" lon="5.01619">
        <ele>307.7</ele>
        <time>2020-09-08T11:41:00Z</time>
      </trkpt>
      <trkpt lat="44.16129" lon="5.01619">
        <ele>307.6</ele>
        <time>2020-09-08T11:41:01Z</time>
      </trkpt>
      <trkpt lat="44.16131" lon="5.01618">
        <ele>307.5</ele>
        <time>2020-09-08T11:41:02Z</time>
      </trkpt>
      <trkpt lat="44.16131" lon="5.01617">
        <ele>307.5</ele>
        <time>2020-09-08T11:41:03Z</time>
      </trkpt>
      <trkpt lat="44.16132" lon="5.01617">
        <ele>307.4</ele>
        <time>2020-09-08T11:41:04Z</time>
      </trkpt>
      <trkpt lat="44.16133" lon="5.01616">
        <ele>307.3</ele>
        <time>2020-09-08T11:41:05Z</time>
      </trkpt>
      <trkpt lat="44.16134" lon="5.01616">
        <ele>307.2</ele>
        <time>2020-09-08T11:41:06Z</time>
      </trkpt>
      <trkpt lat="44.16135" lon="5.01616">
        <ele>307.2</ele>
        <time>2020-09-08T11:41:07Z</time>
      </trkpt>
      <trkpt lat="44.16135" lon="5.01615">
        <ele>307.2</ele>
        <time>2020-09-08T11:41:08Z</time>
      </trkpt>
      <trkpt lat="44.16136" lon="5.01615">
        <ele>307.1</ele>
        <time>2020-09-08T11:41:09Z</time>
      </trkpt>
      <trkpt lat="44.16137" lon="5.01615">
        <ele>307</ele>
        <time>2020-09-08T11:41:10Z</time>
      </trkpt>
      <trkpt lat="44.16138" lon="5.01615">
        <ele>306.9</ele>
        <time>2020-09-08T11:41:11Z</time>
      </trkpt>
      <trkpt lat="44.16139" lon="5.01615">
        <ele>306.9</ele>
        <time>2020-09-08T11:41:12Z</time>
      </trkpt>
      <trkpt lat="44.16139" lon="5.01615">
        <ele>306.9</ele>
        <time>2020-09-08T11:41:14Z</time>
      </trkpt>
      <trkpt lat="44.1614" lon="5.01615">
        <ele>306.8</ele>
        <time>2020-09-08T11:41:15Z</time>
      </trkpt>
      <trkpt lat="44.16141" lon="5.01615">
        <ele>306.6</ele>
        <time>2020-09-08T11:41:16Z</time>
      </trkpt>
      <trkpt lat="44.16142" lon="5.01614">
        <ele>306.6</ele>
        <time>2020-09-08T11:41:17Z</time>
      </trkpt>
      <trkpt lat="44.16143" lon="5.01613">
        <ele>306.5</ele>
        <time>2020-09-08T11:41:18Z</time>
      </trkpt>
      <trkpt lat="44.16144" lon="5.01613">
        <ele>306.4</ele>
        <time>2020-09-08T11:41:19Z</time>
      </trkpt>
      <trkpt lat="44.16145" lon="5.01613">
        <ele>306.3</ele>
        <time>2020-09-08T11:41:20Z</time>
      </trkpt>
      <trkpt lat="44.16147" lon="5.01611">
        <ele>306.2</ele>
        <time>2020-09-08T11:41:21Z</time>
      </trkpt>
      <trkpt lat="44.16148" lon="5.0161">
        <ele>306.1</ele>
        <time>2020-09-08T11:41:22Z</time>
      </trkpt>
      <trkpt lat="44.16149" lon="5.0161">
        <ele>305.9</ele>
        <time>2020-09-08T11:41:23Z</time>
      </trkpt>
      <trkpt lat="44.1615" lon="5.01609">
        <ele>305.8</ele>
        <time>2020-09-08T11:41:24Z</time>
      </trkpt>
      <trkpt lat="44.16153" lon="5.01609">
        <ele>305.6</ele>
        <time>2020-09-08T11:41:25Z</time>
      </trkpt>
      <trkpt lat="44.16153" lon="5.01608">
        <ele>305.5</ele>
        <time>2020-09-08T11:41:26Z</time>
      </trkpt>
      <trkpt lat="44.16154" lon="5.01607">
        <ele>305.4</ele>
        <time>2020-09-08T11:41:27Z</time>
      </trkpt>
      <trkpt lat="44.16156" lon="5.01606">
        <ele>305.3</ele>
        <time>2020-09-08T11:41:28Z</time>
      </trkpt>
      <trkpt lat="44.16157" lon="5.01606">
        <ele>305.2</ele>
        <time>2020-09-08T11:41:29Z</time>
      </trkpt>
      <trkpt lat="44.16158" lon="5.01606">
        <ele>305.1</ele>
        <time>2020-09-08T11:41:30Z</time>
      </trkpt>
      <trkpt lat="44.16158" lon="5.01605">
        <ele>305.1</ele>
        <time>2020-09-08T11:41:31Z</time>
      </trkpt>
      <trkpt lat="44.16159" lon="5.01606">
        <ele>305</ele>
        <time>2020-09-08T11:41:32Z</time>
      </trkpt>
      <trkpt lat="44.16161" lon="5.01606">
        <ele>304.9</ele>
        <time>2020-09-08T11:41:33Z</time>
      </trkpt>
      <trkpt lat="44.16162" lon="5.01605">
        <ele>304.8</ele>
        <time>2020-09-08T11:41:34Z</time>
      </trkpt>
      <trkpt lat="44.16164" lon="5.01605">
        <ele>304.6</ele>
        <time>2020-09-08T11:41:35Z</time>
      </trkpt>
      <trkpt lat="44.16165" lon="5.01605">
        <ele>304.6</ele>
        <time>2020-09-08T11:41:36Z</time>
      </trkpt>
      <trkpt lat="44.16165" lon="5.01605">
        <ele>304.5</ele>
        <time>2020-09-08T11:41:37Z</time>
      </trkpt>
      <trkpt lat="44.16167" lon="5.01604">
        <ele>304.4</ele>
        <time>2020-09-08T11:41:38Z</time>
      </trkpt>
      <trkpt lat="44.16168" lon="5.01604">
        <ele>304.3</ele>
        <time>2020-09-08T11:41:39Z</time>
      </trkpt>
      <trkpt lat="44.16168" lon="5.01603">
        <ele>304.3</ele>
        <time>2020-09-08T11:41:40Z</time>
      </trkpt>
      <trkpt lat="44.16169" lon="5.01602">
        <ele>304.2</ele>
        <time>2020-09-08T11:41:41Z</time>
      </trkpt>
      <trkpt lat="44.16169" lon="5.01603">
        <ele>304.2</ele>
        <time>2020-09-08T11:41:42Z</time>
      </trkpt>
      <trkpt lat="44.1617" lon="5.01602">
        <ele>304.1</ele>
        <time>2020-09-08T11:41:43Z</time>
      </trkpt>
      <trkpt lat="44.16172" lon="5.01601">
        <ele>303.9</ele>
        <time>2020-09-08T11:41:44Z</time>
      </trkpt>
      <trkpt lat="44.16173" lon="5.016">
        <ele>303.8</ele>
        <time>2020-09-08T11:41:45Z</time>
      </trkpt>
      <trkpt lat="44.16174" lon="5.016">
        <ele>303.8</ele>
        <time>2020-09-08T11:41:46Z</time>
      </trkpt>
      <trkpt lat="44.16175" lon="5.016">
        <ele>303.7</ele>
        <time>2020-09-08T11:41:47Z</time>
      </trkpt>
      <trkpt lat="44.16176" lon="5.016">
        <ele>303.6</ele>
        <time>2020-09-08T11:41:48Z</time>
      </trkpt>
      <trkpt lat="44.16177" lon="5.016">
        <ele>303.6</ele>
        <time>2020-09-08T11:41:49Z</time>
      </trkpt>
      <trkpt lat="44.16177" lon="5.016">
        <ele>303.6</ele>
        <time>2020-09-08T11:41:50Z</time>
      </trkpt>
      <trkpt lat="44.16179" lon="5.01599">
        <ele>303.5</ele>
        <time>2020-09-08T11:41:51Z</time>
      </trkpt>
      <trkpt lat="44.1618" lon="5.01599">
        <ele>303.4</ele>
        <time>2020-09-08T11:41:52Z</time>
      </trkpt>
      <trkpt lat="44.16181" lon="5.01598">
        <ele>303.3</ele>
        <time>2020-09-08T11:41:53Z</time>
      </trkpt>
      <trkpt lat="44.16182" lon="5.01598">
        <ele>303.3</ele>
        <time>2020-09-08T11:41:54Z</time>
      </trkpt>
      <trkpt lat="44.16183" lon="5.01596">
        <ele>303.2</ele>
        <time>2020-09-08T11:41:55Z</time>
      </trkpt>
      <trkpt lat="44.16183" lon="5.01596">
        <ele>303.2</ele>
        <time>2020-09-08T11:41:56Z</time>
      </trkpt>
      <trkpt lat="44.16184" lon="5.01596">
        <ele>303.1</ele>
        <time>2020-09-08T11:41:57Z</time>
      </trkpt>
      <trkpt lat="44.16186" lon="5.01593">
        <ele>303</ele>
        <time>2020-09-08T11:41:58Z</time>
      </trkpt>
      <trkpt lat="44.16187" lon="5.01593">
        <ele>303</ele>
        <time>2020-09-08T11:41:59Z</time>
      </trkpt>
      <trkpt lat="44.16188" lon="5.01593">
        <ele>302.9</ele>
        <time>2020-09-08T11:42:00Z</time>
      </trkpt>
      <trkpt lat="44.16189" lon="5.01593">
        <ele>302.9</ele>
        <time>2020-09-08T11:42:01Z</time>
      </trkpt>
      <trkpt lat="44.1619" lon="5.01592">
        <ele>302.9</ele>
        <time>2020-09-08T11:42:02Z</time>
      </trkpt>
      <trkpt lat="44.16191" lon="5.01592">
        <ele>302.8</ele>
        <time>2020-09-08T11:42:03Z</time>
      </trkpt>
      <trkpt lat="44.16192" lon="5.01592">
        <ele>302.8</ele>
        <time>2020-09-08T11:42:04Z</time>
      </trkpt>
      <trkpt lat="44.16194" lon="5.01591">
        <ele>302.8</ele>
        <time>2020-09-08T11:42:05Z</time>
      </trkpt>
      <trkpt lat="44.16195" lon="5.01591">
        <ele>302.7</ele>
        <time>2020-09-08T11:42:06Z</time>
      </trkpt>
      <trkpt lat="44.16195" lon="5.01592">
        <ele>302.7</ele>
        <time>2020-09-08T11:42:07Z</time>
      </trkpt>
      <trkpt lat="44.16197" lon="5.01592">
        <ele>302.7</ele>
        <time>2020-09-08T11:42:08Z</time>
      </trkpt>
      <trkpt lat="44.16199" lon="5.01592">
        <ele>302.6</ele>
        <time>2020-09-08T11:42:09Z</time>
      </trkpt>
      <trkpt lat="44.162" lon="5.01591">
        <ele>302.6</ele>
        <time>2020-09-08T11:42:10Z</time>
      </trkpt>
      <trkpt lat="44.16201" lon="5.0159">
        <ele>302.6</ele>
        <time>2020-09-08T11:42:11Z</time>
      </trkpt>
      <trkpt lat="44.16203" lon="5.01589">
        <ele>302.5</ele>
        <time>2020-09-08T11:42:12Z</time>
      </trkpt>
      <trkpt lat="44.16203" lon="5.01587">
        <ele>302.5</ele>
        <time>2020-09-08T11:42:13Z</time>
      </trkpt>
      <trkpt lat="44.16205" lon="5.01587">
        <ele>302.4</ele>
        <time>2020-09-08T11:42:14Z</time>
      </trkpt>
      <trkpt lat="44.16208" lon="5.01588">
        <ele>302.4</ele>
        <time>2020-09-08T11:42:15Z</time>
      </trkpt>
      <trkpt lat="44.16209" lon="5.01588">
        <ele>302.3</ele>
        <time>2020-09-08T11:42:16Z</time>
      </trkpt>
      <trkpt lat="44.16209" lon="5.01587">
        <ele>302.3</ele>
        <time>2020-09-08T11:42:17Z</time>
      </trkpt>
      <trkpt lat="44.1621" lon="5.01587">
        <ele>302.3</ele>
        <time>2020-09-08T11:42:18Z</time>
      </trkpt>
      <trkpt lat="44.16211" lon="5.01586">
        <ele>302.3</ele>
        <time>2020-09-08T11:42:19Z</time>
      </trkpt>
      <trkpt lat="44.16211" lon="5.01586">
        <ele>302.2</ele>
        <time>2020-09-08T11:42:20Z</time>
      </trkpt>
      <trkpt lat="44.16213" lon="5.01586">
        <ele>302.2</ele>
        <time>2020-09-08T11:42:21Z</time>
      </trkpt>
      <trkpt lat="44.16214" lon="5.01586">
        <ele>302.1</ele>
        <time>2020-09-08T11:42:22Z</time>
      </trkpt>
      <trkpt lat="44.16215" lon="5.01586">
        <ele>302.1</ele>
        <time>2020-09-08T11:42:23Z</time>
      </trkpt>
      <trkpt lat="44.16217" lon="5.01587">
        <ele>302</ele>
        <time>2020-09-08T11:42:24Z</time>
      </trkpt>
      <trkpt lat="44.16218" lon="5.01588">
        <ele>302</ele>
        <time>2020-09-08T11:42:25Z</time>
      </trkpt>
      <trkpt lat="44.16219" lon="5.01588">
        <ele>301.9</ele>
        <time>2020-09-08T11:42:26Z</time>
      </trkpt>
      <trkpt lat="44.16221" lon="5.01589">
        <ele>301.8</ele>
        <time>2020-09-08T11:42:27Z</time>
      </trkpt>
      <trkpt lat="44.16222" lon="5.0159">
        <ele>301.8</ele>
        <time>2020-09-08T11:42:28Z</time>
      </trkpt>
      <trkpt lat="44.16223" lon="5.0159">
        <ele>301.7</ele>
        <time>2020-09-08T11:42:29Z</time>
      </trkpt>
      <trkpt lat="44.16224" lon="5.0159">
        <ele>301.6</ele>
        <time>2020-09-08T11:42:30Z</time>
      </trkpt>
      <trkpt lat="44.16225" lon="5.01591">
        <ele>301.6</ele>
        <time>2020-09-08T11:42:31Z</time>
      </trkpt>
      <trkpt lat="44.16226" lon="5.01591">
        <ele>301.5</ele>
        <time>2020-09-08T11:42:33Z</time>
      </trkpt>
      <trkpt lat="44.16226" lon="5.01591">
        <ele>301.5</ele>
        <time>2020-09-08T11:42:34Z</time>
      </trkpt>
      <trkpt lat="44.16227" lon="5.01591">
        <ele>301.5</ele>
        <time>2020-09-08T11:42:35Z</time>
      </trkpt>
      <trkpt lat="44.16227" lon="5.01591">
        <ele>301.4</ele>
        <time>2020-09-08T11:42:36Z</time>
      </trkpt>
      <trkpt lat="44.16229" lon="5.01592">
        <ele>301.3</ele>
        <time>2020-09-08T11:42:37Z</time>
      </trkpt>
      <trkpt lat="44.1623" lon="5.01593">
        <ele>301.2</ele>
        <time>2020-09-08T11:42:38Z</time>
      </trkpt>
      <trkpt lat="44.16231" lon="5.01593">
        <ele>301.2</ele>
        <time>2020-09-08T11:42:39Z</time>
      </trkpt>
      <trkpt lat="44.16232" lon="5.01594">
        <ele>301.1</ele>
        <time>2020-09-08T11:42:40Z</time>
      </trkpt>
      <trkpt lat="44.16233" lon="5.01593">
        <ele>301</ele>
        <time>2020-09-08T11:42:41Z</time>
      </trkpt>
      <trkpt lat="44.16234" lon="5.01593">
        <ele>300.9</ele>
        <time>2020-09-08T11:42:42Z</time>
      </trkpt>
      <trkpt lat="44.16234" lon="5.01594">
        <ele>300.9</ele>
        <time>2020-09-08T11:42:43Z</time>
      </trkpt>
      <trkpt lat="44.16235" lon="5.01594">
        <ele>300.8</ele>
        <time>2020-09-08T11:42:44Z</time>
      </trkpt>
      <trkpt lat="44.16238" lon="5.01593">
        <ele>300.6</ele>
        <time>2020-09-08T11:42:45Z</time>
      </trkpt>
      <trkpt lat="44.16239" lon="5.01593">
        <ele>300.5</ele>
        <time>2020-09-08T11:42:46Z</time>
      </trkpt>
      <trkpt lat="44.1624" lon="5.01593">
        <ele>300.5</ele>
        <time>2020-09-08T11:42:47Z</time>
      </trkpt>
      <trkpt lat="44.16241" lon="5.01593">
        <ele>300.3</ele>
        <time>2020-09-08T11:42:48Z</time>
      </trkpt>
      <trkpt lat="44.16242" lon="5.01593">
        <ele>300.3</ele>
        <time>2020-09-08T11:42:49Z</time>
      </trkpt>
      <trkpt lat="44.16243" lon="5.01593">
        <ele>300.2</ele>
        <time>2020-09-08T11:42:50Z</time>
      </trkpt>
      <trkpt lat="44.16244" lon="5.01593">
        <ele>300.2</ele>
        <time>2020-09-08T11:42:51Z</time>
      </trkpt>
      <trkpt lat="44.16244" lon="5.01594">
        <ele>300.1</ele>
        <time>2020-09-08T11:42:52Z</time>
      </trkpt>
      <trkpt lat="44.16246" lon="5.01594">
        <ele>300</ele>
        <time>2020-09-08T11:42:53Z</time>
      </trkpt>
      <trkpt lat="44.16247" lon="5.01594">
        <ele>299.9</ele>
        <time>2020-09-08T11:42:54Z</time>
      </trkpt>
      <trkpt lat="44.16248" lon="5.01593">
        <ele>299.8</ele>
        <time>2020-09-08T11:42:55Z</time>
      </trkpt>
      <trkpt lat="44.1625" lon="5.01594">
        <ele>299.7</ele>
        <time>2020-09-08T11:42:56Z</time>
      </trkpt>
      <trkpt lat="44.16252" lon="5.01594">
        <ele>299.6</ele>
        <time>2020-09-08T11:42:57Z</time>
      </trkpt>
      <trkpt lat="44.16253" lon="5.01594">
        <ele>299.5</ele>
        <time>2020-09-08T11:42:58Z</time>
      </trkpt>
      <trkpt lat="44.16254" lon="5.01594">
        <ele>299.5</ele>
        <time>2020-09-08T11:42:59Z</time>
      </trkpt>
      <trkpt lat="44.16256" lon="5.01594">
        <ele>299.3</ele>
        <time>2020-09-08T11:43:00Z</time>
      </trkpt>
      <trkpt lat="44.16257" lon="5.01593">
        <ele>299.3</ele>
        <time>2020-09-08T11:43:01Z</time>
      </trkpt>
      <trkpt lat="44.16257" lon="5.01593">
        <ele>299.2</ele>
        <time>2020-09-08T11:43:02Z</time>
      </trkpt>
      <trkpt lat="44.16258" lon="5.01592">
        <ele>299.2</ele>
        <time>2020-09-08T11:43:03Z</time>
      </trkpt>
      <trkpt lat="44.16258" lon="5.01592">
        <ele>299.1</ele>
        <time>2020-09-08T11:43:04Z</time>
      </trkpt>
      <trkpt lat="44.16259" lon="5.01591">
        <ele>299.1</ele>
        <time>2020-09-08T11:43:05Z</time>
      </trkpt>
      <trkpt lat="44.1626" lon="5.0159">
        <ele>299.1</ele>
        <time>2020-09-08T11:43:06Z</time>
      </trkpt>
      <trkpt lat="44.16261" lon="5.01589">
        <ele>299</ele>
        <time>2020-09-08T11:43:07Z</time>
      </trkpt>
      <trkpt lat="44.16262" lon="5.01588">
        <ele>298.9</ele>
        <time>2020-09-08T11:43:08Z</time>
      </trkpt>
      <trkpt lat="44.16264" lon="5.01588">
        <ele>298.8</ele>
        <time>2020-09-08T11:43:09Z</time>
      </trkpt>
      <trkpt lat="44.16265" lon="5.01588">
        <ele>298.7</ele>
        <time>2020-09-08T11:43:10Z</time>
      </trkpt>
      <trkpt lat="44.16266" lon="5.01587">
        <ele>298.7</ele>
        <time>2020-09-08T11:43:11Z</time>
      </trkpt>
      <trkpt lat="44.16267" lon="5.01587">
        <ele>298.6</ele>
        <time>2020-09-08T11:43:12Z</time>
      </trkpt>
      <trkpt lat="44.16268" lon="5.01587">
        <ele>298.6</ele>
        <time>2020-09-08T11:43:13Z</time>
      </trkpt>
      <trkpt lat="44.16269" lon="5.01587">
        <ele>298.5</ele>
        <time>2020-09-08T11:43:14Z</time>
      </trkpt>
      <trkpt lat="44.1627" lon="5.01587">
        <ele>298.5</ele>
        <time>2020-09-08T11:43:15Z</time>
      </trkpt>
      <trkpt lat="44.16272" lon="5.01586">
        <ele>298.3</ele>
        <time>2020-09-08T11:43:16Z</time>
      </trkpt>
      <trkpt lat="44.16273" lon="5.01585">
        <ele>298.3</ele>
        <time>2020-09-08T11:43:17Z</time>
      </trkpt>
      <trkpt lat="44.16274" lon="5.01585">
        <ele>298.2</ele>
        <time>2020-09-08T11:43:18Z</time>
      </trkpt>
      <trkpt lat="44.16274" lon="5.01585">
        <ele>298.2</ele>
        <time>2020-09-08T11:43:19Z</time>
      </trkpt>
      <trkpt lat="44.16276" lon="5.01584">
        <ele>298.1</ele>
        <time>2020-09-08T11:43:20Z</time>
      </trkpt>
      <trkpt lat="44.16277" lon="5.01583">
        <ele>298</ele>
        <time>2020-09-08T11:43:21Z</time>
      </trkpt>
      <trkpt lat="44.16278" lon="5.01582">
        <ele>297.9</ele>
        <time>2020-09-08T11:43:22Z</time>
      </trkpt>
      <trkpt lat="44.1628" lon="5.01583">
        <ele>297.8</ele>
        <time>2020-09-08T11:43:23Z</time>
      </trkpt>
      <trkpt lat="44.16282" lon="5.01582">
        <ele>297.7</ele>
        <time>2020-09-08T11:43:24Z</time>
      </trkpt>
      <trkpt lat="44.16282" lon="5.01581">
        <ele>297.7</ele>
        <time>2020-09-08T11:43:25Z</time>
      </trkpt>
      <trkpt lat="44.16283" lon="5.01581">
        <ele>297.6</ele>
        <time>2020-09-08T11:43:26Z</time>
      </trkpt>
      <trkpt lat="44.16284" lon="5.0158">
        <ele>297.5</ele>
        <time>2020-09-08T11:43:27Z</time>
      </trkpt>
      <trkpt lat="44.16285" lon="5.01579">
        <ele>297.4</ele>
        <time>2020-09-08T11:43:28Z</time>
      </trkpt>
      <trkpt lat="44.16285" lon="5.01579">
        <ele>297.4</ele>
        <time>2020-09-08T11:43:29Z</time>
      </trkpt>
      <trkpt lat="44.16285" lon="5.01578">
        <ele>297.4</ele>
        <time>2020-09-08T11:43:30Z</time>
      </trkpt>
      <trkpt lat="44.16286" lon="5.01578">
        <ele>297.3</ele>
        <time>2020-09-08T11:43:31Z</time>
      </trkpt>
      <trkpt lat="44.16287" lon="5.01578">
        <ele>297.3</ele>
        <time>2020-09-08T11:43:32Z</time>
      </trkpt>
      <trkpt lat="44.16289" lon="5.01578">
        <ele>297.1</ele>
        <time>2020-09-08T11:43:33Z</time>
      </trkpt>
      <trkpt lat="44.16289" lon="5.01578">
        <ele>297.1</ele>
        <time>2020-09-08T11:43:34Z</time>
      </trkpt>
      <trkpt lat="44.1629" lon="5.01576">
        <ele>297</ele>
        <time>2020-09-08T11:43:35Z</time>
      </trkpt>
      <trkpt lat="44.16291" lon="5.01576">
        <ele>296.9</ele>
        <time>2020-09-08T11:43:36Z</time>
      </trkpt>
      <trkpt lat="44.16292" lon="5.01576">
        <ele>296.9</ele>
        <time>2020-09-08T11:43:37Z</time>
      </trkpt>
      <trkpt lat="44.16293" lon="5.01575">
        <ele>296.8</ele>
        <time>2020-09-08T11:43:38Z</time>
      </trkpt>
      <trkpt lat="44.16294" lon="5.01576">
        <ele>296.7</ele>
        <time>2020-09-08T11:43:39Z</time>
      </trkpt>
      <trkpt lat="44.16295" lon="5.01575">
        <ele>296.6</ele>
        <time>2020-09-08T11:43:40Z</time>
      </trkpt>
      <trkpt lat="44.16297" lon="5.01574">
        <ele>296.4</ele>
        <time>2020-09-08T11:43:41Z</time>
      </trkpt>
      <trkpt lat="44.16298" lon="5.01573">
        <ele>296.3</ele>
        <time>2020-09-08T11:43:42Z</time>
      </trkpt>
      <trkpt lat="44.16299" lon="5.01571">
        <ele>296.2</ele>
        <time>2020-09-08T11:43:43Z</time>
      </trkpt>
      <trkpt lat="44.16301" lon="5.01571">
        <ele>296.1</ele>
        <time>2020-09-08T11:43:44Z</time>
      </trkpt>
      <trkpt lat="44.16302" lon="5.01571">
        <ele>295.9</ele>
        <time>2020-09-08T11:43:45Z</time>
      </trkpt>
      <trkpt lat="44.16304" lon="5.01571">
        <ele>295.8</ele>
        <time>2020-09-08T11:43:46Z</time>
      </trkpt>
      <trkpt lat="44.16305" lon="5.01569">
        <ele>295.7</ele>
        <time>2020-09-08T11:43:47Z</time>
      </trkpt>
      <trkpt lat="44.16306" lon="5.01569">
        <ele>295.6</ele>
        <time>2020-09-08T11:43:48Z</time>
      </trkpt>
      <trkpt lat="44.16307" lon="5.01569">
        <ele>295.6</ele>
        <time>2020-09-08T11:43:49Z</time>
      </trkpt>
      <trkpt lat="44.16308" lon="5.01569">
        <ele>295.5</ele>
        <time>2020-09-08T11:43:50Z</time>
      </trkpt>
      <trkpt lat="44.16309" lon="5.01567">
        <ele>295.3</ele>
        <time>2020-09-08T11:43:51Z</time>
      </trkpt>
      <trkpt lat="44.1631" lon="5.01567">
        <ele>295.3</ele>
        <time>2020-09-08T11:43:52Z</time>
      </trkpt>
      <trkpt lat="44.16311" lon="5.01566">
        <ele>295.2</ele>
        <time>2020-09-08T11:43:53Z</time>
      </trkpt>
      <trkpt lat="44.16312" lon="5.01566">
        <ele>295.1</ele>
        <time>2020-09-08T11:43:54Z</time>
      </trkpt>
      <trkpt lat="44.16313" lon="5.01566">
        <ele>295</ele>
        <time>2020-09-08T11:43:55Z</time>
      </trkpt>
      <trkpt lat="44.16314" lon="5.01565">
        <ele>294.9</ele>
        <time>2020-09-08T11:43:56Z</time>
      </trkpt>
      <trkpt lat="44.16314" lon="5.01566">
        <ele>294.9</ele>
        <time>2020-09-08T11:43:57Z</time>
      </trkpt>
      <trkpt lat="44.16314" lon="5.01565">
        <ele>294.8</ele>
        <time>2020-09-08T11:43:58Z</time>
      </trkpt>
      <trkpt lat="44.16315" lon="5.01564">
        <ele>294.7</ele>
        <time>2020-09-08T11:43:59Z</time>
      </trkpt>
      <trkpt lat="44.16317" lon="5.01564">
        <ele>294.6</ele>
        <time>2020-09-08T11:44:00Z</time>
      </trkpt>
      <trkpt lat="44.16318" lon="5.01563">
        <ele>294.5</ele>
        <time>2020-09-08T11:44:01Z</time>
      </trkpt>
      <trkpt lat="44.1632" lon="5.01563">
        <ele>294.3</ele>
        <time>2020-09-08T11:44:02Z</time>
      </trkpt>
      <trkpt lat="44.16322" lon="5.01563">
        <ele>294.2</ele>
        <time>2020-09-08T11:44:03Z</time>
      </trkpt>
      <trkpt lat="44.16322" lon="5.01563">
        <ele>294.2</ele>
        <time>2020-09-08T11:44:04Z</time>
      </trkpt>
      <trkpt lat="44.16323" lon="5.01563">
        <ele>294.1</ele>
        <time>2020-09-08T11:44:05Z</time>
      </trkpt>
      <trkpt lat="44.16324" lon="5.01562">
        <ele>294</ele>
        <time>2020-09-08T11:44:06Z</time>
      </trkpt>
      <trkpt lat="44.16325" lon="5.01562">
        <ele>293.9</ele>
        <time>2020-09-08T11:44:07Z</time>
      </trkpt>
      <trkpt lat="44.16326" lon="5.01562">
        <ele>293.8</ele>
        <time>2020-09-08T11:44:08Z</time>
      </trkpt>
      <trkpt lat="44.16327" lon="5.01562">
        <ele>293.7</ele>
        <time>2020-09-08T11:44:09Z</time>
      </trkpt>
      <trkpt lat="44.16328" lon="5.01562">
        <ele>293.6</ele>
        <time>2020-09-08T11:44:10Z</time>
      </trkpt>
      <trkpt lat="44.16329" lon="5.01561">
        <ele>293.5</ele>
        <time>2020-09-08T11:44:11Z</time>
      </trkpt>
      <trkpt lat="44.16331" lon="5.0156">
        <ele>293.4</ele>
        <time>2020-09-08T11:44:12Z</time>
      </trkpt>
      <trkpt lat="44.16333" lon="5.0156">
        <ele>293.1</ele>
        <time>2020-09-08T11:44:13Z</time>
      </trkpt>
      <trkpt lat="44.16334" lon="5.0156">
        <ele>293</ele>
        <time>2020-09-08T11:44:14Z</time>
      </trkpt>
      <trkpt lat="44.16335" lon="5.01559">
        <ele>292.9</ele>
        <time>2020-09-08T11:44:15Z</time>
      </trkpt>
      <trkpt lat="44.16336" lon="5.01558">
        <ele>292.9</ele>
        <time>2020-09-08T11:44:16Z</time>
      </trkpt>
      <trkpt lat="44.16337" lon="5.01559">
        <ele>292.8</ele>
        <time>2020-09-08T11:44:17Z</time>
      </trkpt>
      <trkpt lat="44.16338" lon="5.01558">
        <ele>292.7</ele>
        <time>2020-09-08T11:44:18Z</time>
      </trkpt>
      <trkpt lat="44.16338" lon="5.01558">
        <ele>292.6</ele>
        <time>2020-09-08T11:44:19Z</time>
      </trkpt>
      <trkpt lat="44.16341" lon="5.01557">
        <ele>292.4</ele>
        <time>2020-09-08T11:44:20Z</time>
      </trkpt>
      <trkpt lat="44.16342" lon="5.01557">
        <ele>292.3</ele>
        <time>2020-09-08T11:44:21Z</time>
      </trkpt>
      <trkpt lat="44.16342" lon="5.01557">
        <ele>292.3</ele>
        <time>2020-09-08T11:44:22Z</time>
      </trkpt>
      <trkpt lat="44.16344" lon="5.01556">
        <ele>292.1</ele>
        <time>2020-09-08T11:44:23Z</time>
      </trkpt>
      <trkpt lat="44.16345" lon="5.01557">
        <ele>292</ele>
        <time>2020-09-08T11:44:24Z</time>
      </trkpt>
      <trkpt lat="44.16346" lon="5.01557">
        <ele>292</ele>
        <time>2020-09-08T11:44:25Z</time>
      </trkpt>
      <trkpt lat="44.16347" lon="5.01556">
        <ele>291.8</ele>
        <time>2020-09-08T11:44:26Z</time>
      </trkpt>
      <trkpt lat="44.16348" lon="5.01556">
        <ele>291.8</ele>
        <time>2020-09-08T11:44:27Z</time>
      </trkpt>
      <trkpt lat="44.1635" lon="5.01554">
        <ele>291.6</ele>
        <time>2020-09-08T11:44:28Z</time>
      </trkpt>
      <trkpt lat="44.1635" lon="5.01554">
        <ele>291.6</ele>
        <time>2020-09-08T11:44:29Z</time>
      </trkpt>
      <trkpt lat="44.16352" lon="5.01553">
        <ele>291.5</ele>
        <time>2020-09-08T11:44:30Z</time>
      </trkpt>
      <trkpt lat="44.16352" lon="5.01553">
        <ele>291.5</ele>
        <time>2020-09-08T11:44:31Z</time>
      </trkpt>
      <trkpt lat="44.16353" lon="5.01552">
        <ele>291.4</ele>
        <time>2020-09-08T11:44:32Z</time>
      </trkpt>
      <trkpt lat="44.16353" lon="5.01552">
        <ele>291.3</ele>
        <time>2020-09-08T11:44:33Z</time>
      </trkpt>
      <trkpt lat="44.16355" lon="5.01551">
        <ele>291.2</ele>
        <time>2020-09-08T11:44:34Z</time>
      </trkpt>
      <trkpt lat="44.16355" lon="5.0155">
        <ele>291.2</ele>
        <time>2020-09-08T11:44:35Z</time>
      </trkpt>
      <trkpt lat="44.16357" lon="5.0155">
        <ele>291.1</ele>
        <time>2020-09-08T11:44:36Z</time>
      </trkpt>
      <trkpt lat="44.16357" lon="5.01549">
        <ele>291.1</ele>
        <time>2020-09-08T11:44:37Z</time>
      </trkpt>
      <trkpt lat="44.16358" lon="5.01549">
        <ele>291</ele>
        <time>2020-09-08T11:44:38Z</time>
      </trkpt>
      <trkpt lat="44.16359" lon="5.01548">
        <ele>290.9</ele>
        <time>2020-09-08T11:44:39Z</time>
      </trkpt>
      <trkpt lat="44.16361" lon="5.01548">
        <ele>290.8</ele>
        <time>2020-09-08T11:44:40Z</time>
      </trkpt>
      <trkpt lat="44.16363" lon="5.01546">
        <ele>290.7</ele>
        <time>2020-09-08T11:44:41Z</time>
      </trkpt>
      <trkpt lat="44.16364" lon="5.01545">
        <ele>290.6</ele>
        <time>2020-09-08T11:44:42Z</time>
      </trkpt>
      <trkpt lat="44.16365" lon="5.01544">
        <ele>290.5</ele>
        <time>2020-09-08T11:44:43Z</time>
      </trkpt>
      <trkpt lat="44.16365" lon="5.01545">
        <ele>290.5</ele>
        <time>2020-09-08T11:44:44Z</time>
      </trkpt>
      <trkpt lat="44.16366" lon="5.01545">
        <ele>290.4</ele>
        <time>2020-09-08T11:44:45Z</time>
      </trkpt>
      <trkpt lat="44.16368" lon="5.01546">
        <ele>290.3</ele>
        <time>2020-09-08T11:44:46Z</time>
      </trkpt>
      <trkpt lat="44.16368" lon="5.01545">
        <ele>290.3</ele>
        <time>2020-09-08T11:44:47Z</time>
      </trkpt>
      <trkpt lat="44.1637" lon="5.01545">
        <ele>290.2</ele>
        <time>2020-09-08T11:44:48Z</time>
      </trkpt>
      <trkpt lat="44.16371" lon="5.01544">
        <ele>290.1</ele>
        <time>2020-09-08T11:44:49Z</time>
      </trkpt>
      <trkpt lat="44.16372" lon="5.01544">
        <ele>290</ele>
        <time>2020-09-08T11:44:50Z</time>
      </trkpt>
      <trkpt lat="44.16373" lon="5.01543">
        <ele>290</ele>
        <time>2020-09-08T11:44:51Z</time>
      </trkpt>
      <trkpt lat="44.16374" lon="5.01543">
        <ele>289.9</ele>
        <time>2020-09-08T11:44:52Z</time>
      </trkpt>
      <trkpt lat="44.16375" lon="5.01542">
        <ele>289.8</ele>
        <time>2020-09-08T11:44:53Z</time>
      </trkpt>
      <trkpt lat="44.16377" lon="5.01542">
        <ele>289.6</ele>
        <time>2020-09-08T11:44:54Z</time>
      </trkpt>
      <trkpt lat="44.16378" lon="5.01542">
        <ele>289.6</ele>
        <time>2020-09-08T11:44:55Z</time>
      </trkpt>
      <trkpt lat="44.16379" lon="5.01542">
        <ele>289.5</ele>
        <time>2020-09-08T11:44:56Z</time>
      </trkpt>
      <trkpt lat="44.1638" lon="5.01542">
        <ele>289.4</ele>
        <time>2020-09-08T11:44:57Z</time>
      </trkpt>
      <trkpt lat="44.16381" lon="5.01541">
        <ele>289.4</ele>
        <time>2020-09-08T11:44:58Z</time>
      </trkpt>
      <trkpt lat="44.16382" lon="5.0154">
        <ele>289.3</ele>
        <time>2020-09-08T11:44:59Z</time>
      </trkpt>
      <trkpt lat="44.16384" lon="5.01539">
        <ele>289.2</ele>
        <time>2020-09-08T11:45:00Z</time>
      </trkpt>
      <trkpt lat="44.16385" lon="5.01539">
        <ele>289.1</ele>
        <time>2020-09-08T11:45:01Z</time>
      </trkpt>
      <trkpt lat="44.16386" lon="5.01539">
        <ele>289</ele>
        <time>2020-09-08T11:45:02Z</time>
      </trkpt>
      <trkpt lat="44.16387" lon="5.01538">
        <ele>289</ele>
        <time>2020-09-08T11:45:03Z</time>
      </trkpt>
      <trkpt lat="44.16387" lon="5.01537">
        <ele>288.9</ele>
        <time>2020-09-08T11:45:04Z</time>
      </trkpt>
      <trkpt lat="44.16389" lon="5.01537">
        <ele>288.8</ele>
        <time>2020-09-08T11:45:05Z</time>
      </trkpt>
      <trkpt lat="44.1639" lon="5.01536">
        <ele>288.8</ele>
        <time>2020-09-08T11:45:06Z</time>
      </trkpt>
      <trkpt lat="44.16391" lon="5.01535">
        <ele>288.7</ele>
        <time>2020-09-08T11:45:07Z</time>
      </trkpt>
      <trkpt lat="44.16392" lon="5.01535">
        <ele>288.7</ele>
        <time>2020-09-08T11:45:08Z</time>
      </trkpt>
      <trkpt lat="44.16393" lon="5.01534">
        <ele>288.7</ele>
        <time>2020-09-08T11:45:09Z</time>
      </trkpt>
      <trkpt lat="44.16393" lon="5.01535">
        <ele>288.6</ele>
        <time>2020-09-08T11:45:10Z</time>
      </trkpt>
      <trkpt lat="44.16395" lon="5.01536">
        <ele>288.6</ele>
        <time>2020-09-08T11:45:11Z</time>
      </trkpt>
      <trkpt lat="44.16397" lon="5.01534">
        <ele>288.5</ele>
        <time>2020-09-08T11:45:12Z</time>
      </trkpt>
      <trkpt lat="44.16398" lon="5.01534">
        <ele>288.5</ele>
        <time>2020-09-08T11:45:13Z</time>
      </trkpt>
      <trkpt lat="44.16398" lon="5.01534">
        <ele>288.5</ele>
        <time>2020-09-08T11:45:14Z</time>
      </trkpt>
      <trkpt lat="44.164" lon="5.01533">
        <ele>288.5</ele>
        <time>2020-09-08T11:45:15Z</time>
      </trkpt>
      <trkpt lat="44.16401" lon="5.01533">
        <ele>288.5</ele>
        <time>2020-09-08T11:45:16Z</time>
      </trkpt>
      <trkpt lat="44.16401" lon="5.01533">
        <ele>288.5</ele>
        <time>2020-09-08T11:45:17Z</time>
      </trkpt>
      <trkpt lat="44.16403" lon="5.01533">
        <ele>288.5</ele>
        <time>2020-09-08T11:45:18Z</time>
      </trkpt>
      <trkpt lat="44.16404" lon="5.01532">
        <ele>288.5</ele>
        <time>2020-09-08T11:45:19Z</time>
      </trkpt>
      <trkpt lat="44.16405" lon="5.01531">
        <ele>288.5</ele>
        <time>2020-09-08T11:45:20Z</time>
      </trkpt>
      <trkpt lat="44.16407" lon="5.01531">
        <ele>288.4</ele>
        <time>2020-09-08T11:45:21Z</time>
      </trkpt>
      <trkpt lat="44.16407" lon="5.0153">
        <ele>288.4</ele>
        <time>2020-09-08T11:45:22Z</time>
      </trkpt>
      <trkpt lat="44.16408" lon="5.0153">
        <ele>288.4</ele>
        <time>2020-09-08T11:45:23Z</time>
      </trkpt>
      <trkpt lat="44.1641" lon="5.0153">
        <ele>288.3</ele>
        <time>2020-09-08T11:45:24Z</time>
      </trkpt>
      <trkpt lat="44.16411" lon="5.01529">
        <ele>288.2</ele>
        <time>2020-09-08T11:45:25Z</time>
      </trkpt>
      <trkpt lat="44.16413" lon="5.01529">
        <ele>288.2</ele>
        <time>2020-09-08T11:45:26Z</time>
      </trkpt>
      <trkpt lat="44.16414" lon="5.01529">
        <ele>288.1</ele>
        <time>2020-09-08T11:45:27Z</time>
      </trkpt>
      <trkpt lat="44.16414" lon="5.01529">
        <ele>288.1</ele>
        <time>2020-09-08T11:45:28Z</time>
      </trkpt>
      <trkpt lat="44.16415" lon="5.01529">
        <ele>288.1</ele>
        <time>2020-09-08T11:45:29Z</time>
      </trkpt>
      <trkpt lat="44.16416" lon="5.01529">
        <ele>288</ele>
        <time>2020-09-08T11:45:30Z</time>
      </trkpt>
      <trkpt lat="44.16417" lon="5.01528">
        <ele>288</ele>
        <time>2020-09-08T11:45:31Z</time>
      </trkpt>
      <trkpt lat="44.16417" lon="5.01529">
        <ele>288</ele>
        <time>2020-09-08T11:45:32Z</time>
      </trkpt>
      <trkpt lat="44.16418" lon="5.01528">
        <ele>287.9</ele>
        <time>2020-09-08T11:45:33Z</time>
      </trkpt>
      <trkpt lat="44.16419" lon="5.01528">
        <ele>287.9</ele>
        <time>2020-09-08T11:45:34Z</time>
      </trkpt>
      <trkpt lat="44.1642" lon="5.01527">
        <ele>287.9</ele>
        <time>2020-09-08T11:45:35Z</time>
      </trkpt>
      <trkpt lat="44.16423" lon="5.01526">
        <ele>287.8</ele>
        <time>2020-09-08T11:45:36Z</time>
      </trkpt>
      <trkpt lat="44.16424" lon="5.01525">
        <ele>287.7</ele>
        <time>2020-09-08T11:45:37Z</time>
      </trkpt>
      <trkpt lat="44.16427" lon="5.01525">
        <ele>287.6</ele>
        <time>2020-09-08T11:45:38Z</time>
      </trkpt>
      <trkpt lat="44.16428" lon="5.01525">
        <ele>287.6</ele>
        <time>2020-09-08T11:45:39Z</time>
      </trkpt>
      <trkpt lat="44.1643" lon="5.01524">
        <ele>287.6</ele>
        <time>2020-09-08T11:45:40Z</time>
      </trkpt>
      <trkpt lat="44.1643" lon="5.01523">
        <ele>287.5</ele>
        <time>2020-09-08T11:45:41Z</time>
      </trkpt>
      <trkpt lat="44.16431" lon="5.01522">
        <ele>287.5</ele>
        <time>2020-09-08T11:45:42Z</time>
      </trkpt>
      <trkpt lat="44.16431" lon="5.01521">
        <ele>287.5</ele>
        <time>2020-09-08T11:45:43Z</time>
      </trkpt>
      <trkpt lat="44.16433" lon="5.01521">
        <ele>287.5</ele>
        <time>2020-09-08T11:45:44Z</time>
      </trkpt>
      <trkpt lat="44.16434" lon="5.0152">
        <ele>287.4</ele>
        <time>2020-09-08T11:45:45Z</time>
      </trkpt>
      <trkpt lat="44.16435" lon="5.0152">
        <ele>287.4</ele>
        <time>2020-09-08T11:45:46Z</time>
      </trkpt>
      <trkpt lat="44.16436" lon="5.01518">
        <ele>287.4</ele>
        <time>2020-09-08T11:45:47Z</time>
      </trkpt>
      <trkpt lat="44.16437" lon="5.01517">
        <ele>287.3</ele>
        <time>2020-09-08T11:45:48Z</time>
      </trkpt>
      <trkpt lat="44.16437" lon="5.01517">
        <ele>287.3</ele>
        <time>2020-09-08T11:45:49Z</time>
      </trkpt>
      <trkpt lat="44.16439" lon="5.01517">
        <ele>287.3</ele>
        <time>2020-09-08T11:45:50Z</time>
      </trkpt>
      <trkpt lat="44.1644" lon="5.01518">
        <ele>287.2</ele>
        <time>2020-09-08T11:45:51Z</time>
      </trkpt>
      <trkpt lat="44.1644" lon="5.01518">
        <ele>287.2</ele>
        <time>2020-09-08T11:45:52Z</time>
      </trkpt>
      <trkpt lat="44.16442" lon="5.01518">
        <ele>287.2</ele>
        <time>2020-09-08T11:45:53Z</time>
      </trkpt>
      <trkpt lat="44.16443" lon="5.01516">
        <ele>287.2</ele>
        <time>2020-09-08T11:45:54Z</time>
      </trkpt>
      <trkpt lat="44.16443" lon="5.01516">
        <ele>287.1</ele>
        <time>2020-09-08T11:45:55Z</time>
      </trkpt>
      <trkpt lat="44.16447" lon="5.01518">
        <ele>287</ele>
        <time>2020-09-08T11:45:56Z</time>
      </trkpt>
      <trkpt lat="44.16448" lon="5.01518">
        <ele>287</ele>
        <time>2020-09-08T11:45:57Z</time>
      </trkpt>
      <trkpt lat="44.16449" lon="5.01516">
        <ele>286.9</ele>
        <time>2020-09-08T11:45:58Z</time>
      </trkpt>
      <trkpt lat="44.16451" lon="5.01517">
        <ele>286.8</ele>
        <time>2020-09-08T11:45:59Z</time>
      </trkpt>
      <trkpt lat="44.16452" lon="5.01516">
        <ele>286.7</ele>
        <time>2020-09-08T11:46:00Z</time>
      </trkpt>
      <trkpt lat="44.16453" lon="5.01516">
        <ele>286.7</ele>
        <time>2020-09-08T11:46:01Z</time>
      </trkpt>
      <trkpt lat="44.16454" lon="5.01516">
        <ele>286.6</ele>
        <time>2020-09-08T11:46:02Z</time>
      </trkpt>
      <trkpt lat="44.16456" lon="5.01516">
        <ele>286.5</ele>
        <time>2020-09-08T11:46:03Z</time>
      </trkpt>
      <trkpt lat="44.16457" lon="5.01515">
        <ele>286.4</ele>
        <time>2020-09-08T11:46:04Z</time>
      </trkpt>
      <trkpt lat="44.16458" lon="5.01515">
        <ele>286.4</ele>
        <time>2020-09-08T11:46:05Z</time>
      </trkpt>
      <trkpt lat="44.16459" lon="5.01515">
        <ele>286.4</ele>
        <time>2020-09-08T11:46:06Z</time>
      </trkpt>
      <trkpt lat="44.1646" lon="5.01514">
        <ele>286.3</ele>
        <time>2020-09-08T11:46:07Z</time>
      </trkpt>
      <trkpt lat="44.1646" lon="5.01514">
        <ele>286.2</ele>
        <time>2020-09-08T11:46:08Z</time>
      </trkpt>
      <trkpt lat="44.1646" lon="5.01513">
        <ele>286.2</ele>
        <time>2020-09-08T11:46:09Z</time>
      </trkpt>
      <trkpt lat="44.16462" lon="5.01513">
        <ele>286.1</ele>
        <time>2020-09-08T11:46:10Z</time>
      </trkpt>
      <trkpt lat="44.16462" lon="5.01512">
        <ele>286.1</ele>
        <time>2020-09-08T11:46:11Z</time>
      </trkpt>
      <trkpt lat="44.16464" lon="5.01512">
        <ele>285.9</ele>
        <time>2020-09-08T11:46:12Z</time>
      </trkpt>
      <trkpt lat="44.16465" lon="5.01512">
        <ele>285.8</ele>
        <time>2020-09-08T11:46:13Z</time>
      </trkpt>
      <trkpt lat="44.16466" lon="5.01511">
        <ele>285.7</ele>
        <time>2020-09-08T11:46:14Z</time>
      </trkpt>
      <trkpt lat="44.16468" lon="5.0151">
        <ele>285.6</ele>
        <time>2020-09-08T11:46:15Z</time>
      </trkpt>
      <trkpt lat="44.1647" lon="5.0151">
        <ele>285.4</ele>
        <time>2020-09-08T11:46:16Z</time>
      </trkpt>
      <trkpt lat="44.1647" lon="5.01509">
        <ele>285.3</ele>
        <time>2020-09-08T11:46:17Z</time>
      </trkpt>
      <trkpt lat="44.16471" lon="5.01509">
        <ele>285.2</ele>
        <time>2020-09-08T11:46:18Z</time>
      </trkpt>
      <trkpt lat="44.16472" lon="5.01508">
        <ele>285.2</ele>
        <time>2020-09-08T11:46:19Z</time>
      </trkpt>
      <trkpt lat="44.16474" lon="5.01508">
        <ele>285</ele>
        <time>2020-09-08T11:46:20Z</time>
      </trkpt>
      <trkpt lat="44.16474" lon="5.01507">
        <ele>284.9</ele>
        <time>2020-09-08T11:46:21Z</time>
      </trkpt>
      <trkpt lat="44.16475" lon="5.01507">
        <ele>284.8</ele>
        <time>2020-09-08T11:46:22Z</time>
      </trkpt>
      <trkpt lat="44.16475" lon="5.01506">
        <ele>284.8</ele>
        <time>2020-09-08T11:46:23Z</time>
      </trkpt>
      <trkpt lat="44.16476" lon="5.01506">
        <ele>284.7</ele>
        <time>2020-09-08T11:46:24Z</time>
      </trkpt>
      <trkpt lat="44.16477" lon="5.01505">
        <ele>284.6</ele>
        <time>2020-09-08T11:46:25Z</time>
      </trkpt>
      <trkpt lat="44.16478" lon="5.01504">
        <ele>284.4</ele>
        <time>2020-09-08T11:46:26Z</time>
      </trkpt>
      <trkpt lat="44.1648" lon="5.01504">
        <ele>284.1</ele>
        <time>2020-09-08T11:46:27Z</time>
      </trkpt>
      <trkpt lat="44.16481" lon="5.01504">
        <ele>284.1</ele>
        <time>2020-09-08T11:46:28Z</time>
      </trkpt>
      <trkpt lat="44.16481" lon="5.01503">
        <ele>284</ele>
        <time>2020-09-08T11:46:29Z</time>
      </trkpt>
      <trkpt lat="44.16482" lon="5.01503">
        <ele>283.9</ele>
        <time>2020-09-08T11:46:30Z</time>
      </trkpt>
      <trkpt lat="44.16482" lon="5.01502">
        <ele>283.9</ele>
        <time>2020-09-08T11:46:31Z</time>
      </trkpt>
      <trkpt lat="44.16483" lon="5.01502">
        <ele>283.8</ele>
        <time>2020-09-08T11:46:32Z</time>
      </trkpt>
      <trkpt lat="44.16483" lon="5.01501">
        <ele>283.7</ele>
        <time>2020-09-08T11:46:33Z</time>
      </trkpt>
      <trkpt lat="44.16483" lon="5.015">
        <ele>283.6</ele>
        <time>2020-09-08T11:46:34Z</time>
      </trkpt>
      <trkpt lat="44.16485" lon="5.01501">
        <ele>283.5</ele>
        <time>2020-09-08T11:46:35Z</time>
      </trkpt>
      <trkpt lat="44.16486" lon="5.015">
        <ele>283.4</ele>
        <time>2020-09-08T11:46:36Z</time>
      </trkpt>
      <trkpt lat="44.16486" lon="5.01499">
        <ele>283.3</ele>
        <time>2020-09-08T11:46:37Z</time>
      </trkpt>
      <trkpt lat="44.16487" lon="5.01499">
        <ele>283.2</ele>
        <time>2020-09-08T11:46:38Z</time>
      </trkpt>
      <trkpt lat="44.16487" lon="5.01498">
        <ele>283.1</ele>
        <time>2020-09-08T11:46:39Z</time>
      </trkpt>
      <trkpt lat="44.16488" lon="5.01497">
        <ele>283</ele>
        <time>2020-09-08T11:46:40Z</time>
      </trkpt>
      <trkpt lat="44.16489" lon="5.01497">
        <ele>282.9</ele>
        <time>2020-09-08T11:46:41Z</time>
      </trkpt>
      <trkpt lat="44.1649" lon="5.01497">
        <ele>282.7</ele>
        <time>2020-09-08T11:46:42Z</time>
      </trkpt>
      <trkpt lat="44.16491" lon="5.01496">
        <ele>282.6</ele>
        <time>2020-09-08T11:46:43Z</time>
      </trkpt>
      <trkpt lat="44.16492" lon="5.01495">
        <ele>282.4</ele>
        <time>2020-09-08T11:46:44Z</time>
      </trkpt>
      <trkpt lat="44.16493" lon="5.01494">
        <ele>282.3</ele>
        <time>2020-09-08T11:46:45Z</time>
      </trkpt>
      <trkpt lat="44.16496" lon="5.01493">
        <ele>282</ele>
        <time>2020-09-08T11:46:46Z</time>
      </trkpt>
      <trkpt lat="44.16497" lon="5.01492">
        <ele>281.8</ele>
        <time>2020-09-08T11:46:47Z</time>
      </trkpt>
      <trkpt lat="44.16499" lon="5.01491">
        <ele>281.6</ele>
        <time>2020-09-08T11:46:48Z</time>
      </trkpt>
      <trkpt lat="44.16501" lon="5.0149">
        <ele>281.4</ele>
        <time>2020-09-08T11:46:49Z</time>
      </trkpt>
      <trkpt lat="44.16501" lon="5.0149">
        <ele>281.3</ele>
        <time>2020-09-08T11:46:50Z</time>
      </trkpt>
      <trkpt lat="44.16502" lon="5.0149">
        <ele>281.2</ele>
        <time>2020-09-08T11:46:51Z</time>
      </trkpt>
      <trkpt lat="44.16503" lon="5.01489">
        <ele>281.1</ele>
        <time>2020-09-08T11:46:52Z</time>
      </trkpt>
      <trkpt lat="44.16504" lon="5.01487">
        <ele>280.9</ele>
        <time>2020-09-08T11:46:53Z</time>
      </trkpt>
      <trkpt lat="44.16504" lon="5.01486">
        <ele>280.8</ele>
        <time>2020-09-08T11:46:54Z</time>
      </trkpt>
      <trkpt lat="44.16504" lon="5.01485">
        <ele>280.7</ele>
        <time>2020-09-08T11:46:55Z</time>
      </trkpt>
      <trkpt lat="44.16505" lon="5.01484">
        <ele>280.5</ele>
        <time>2020-09-08T11:46:56Z</time>
      </trkpt>
      <trkpt lat="44.16505" lon="5.01482">
        <ele>280.3</ele>
        <time>2020-09-08T11:46:57Z</time>
      </trkpt>
      <trkpt lat="44.16505" lon="5.01481">
        <ele>280.2</ele>
        <time>2020-09-08T11:46:58Z</time>
      </trkpt>
      <trkpt lat="44.16506" lon="5.01479">
        <ele>280.1</ele>
        <time>2020-09-08T11:46:59Z</time>
      </trkpt>
      <trkpt lat="44.16506" lon="5.01478">
        <ele>280</ele>
        <time>2020-09-08T11:47:00Z</time>
      </trkpt>
      <trkpt lat="44.16507" lon="5.01476">
        <ele>279.7</ele>
        <time>2020-09-08T11:47:01Z</time>
      </trkpt>
      <trkpt lat="44.16508" lon="5.01475">
        <ele>279.6</ele>
        <time>2020-09-08T11:47:02Z</time>
      </trkpt>
      <trkpt lat="44.16508" lon="5.01473">
        <ele>279.5</ele>
        <time>2020-09-08T11:47:03Z</time>
      </trkpt>
      <trkpt lat="44.1651" lon="5.01472">
        <ele>279.2</ele>
        <time>2020-09-08T11:47:04Z</time>
      </trkpt>
      <trkpt lat="44.16511" lon="5.01472">
        <ele>279.1</ele>
        <time>2020-09-08T11:47:05Z</time>
      </trkpt>
      <trkpt lat="44.16512" lon="5.01471">
        <ele>279</ele>
        <time>2020-09-08T11:47:06Z</time>
      </trkpt>
      <trkpt lat="44.16513" lon="5.0147">
        <ele>278.8</ele>
        <time>2020-09-08T11:47:07Z</time>
      </trkpt>
      <trkpt lat="44.16513" lon="5.01469">
        <ele>278.7</ele>
        <time>2020-09-08T11:47:08Z</time>
      </trkpt>
      <trkpt lat="44.16514" lon="5.01468">
        <ele>278.6</ele>
        <time>2020-09-08T11:47:09Z</time>
      </trkpt>
      <trkpt lat="44.16514" lon="5.01467">
        <ele>278.5</ele>
        <time>2020-09-08T11:47:10Z</time>
      </trkpt>
      <trkpt lat="44.16514" lon="5.01467">
        <ele>278.5</ele>
        <time>2020-09-08T11:47:11Z</time>
      </trkpt>
      <trkpt lat="44.16514" lon="5.01466">
        <ele>278.4</ele>
        <time>2020-09-08T11:47:12Z</time>
      </trkpt>
      <trkpt lat="44.16515" lon="5.01466">
        <ele>278.4</ele>
        <time>2020-09-08T11:47:13Z</time>
      </trkpt>
      <trkpt lat="44.16516" lon="5.01465">
        <ele>278.2</ele>
        <time>2020-09-08T11:47:14Z</time>
      </trkpt>
      <trkpt lat="44.16516" lon="5.01464">
        <ele>278</ele>
        <time>2020-09-08T11:47:15Z</time>
      </trkpt>
      <trkpt lat="44.16518" lon="5.01461">
        <ele>277.8</ele>
        <time>2020-09-08T11:47:16Z</time>
      </trkpt>
      <trkpt lat="44.16518" lon="5.0146">
        <ele>277.7</ele>
        <time>2020-09-08T11:47:17Z</time>
      </trkpt>
      <trkpt lat="44.16519" lon="5.01459">
        <ele>277.6</ele>
        <time>2020-09-08T11:47:18Z</time>
      </trkpt>
      <trkpt lat="44.1652" lon="5.01457">
        <ele>277.3</ele>
        <time>2020-09-08T11:47:19Z</time>
      </trkpt>
      <trkpt lat="44.16522" lon="5.01455">
        <ele>277.2</ele>
        <time>2020-09-08T11:47:20Z</time>
      </trkpt>
      <trkpt lat="44.16522" lon="5.01454">
        <ele>277</ele>
        <time>2020-09-08T11:47:21Z</time>
      </trkpt>
      <trkpt lat="44.16523" lon="5.01453">
        <ele>276.9</ele>
        <time>2020-09-08T11:47:22Z</time>
      </trkpt>
      <trkpt lat="44.16523" lon="5.01452">
        <ele>276.9</ele>
        <time>2020-09-08T11:47:23Z</time>
      </trkpt>
      <trkpt lat="44.16523" lon="5.0145">
        <ele>276.7</ele>
        <time>2020-09-08T11:47:24Z</time>
      </trkpt>
      <trkpt lat="44.16523" lon="5.01448">
        <ele>276.6</ele>
        <time>2020-09-08T11:47:25Z</time>
      </trkpt>
      <trkpt lat="44.16524" lon="5.01447">
        <ele>276.5</ele>
        <time>2020-09-08T11:47:26Z</time>
      </trkpt>
      <trkpt lat="44.16525" lon="5.01445">
        <ele>276.4</ele>
        <time>2020-09-08T11:47:27Z</time>
      </trkpt>
      <trkpt lat="44.16525" lon="5.01442">
        <ele>276.2</ele>
        <time>2020-09-08T11:47:28Z</time>
      </trkpt>
      <trkpt lat="44.16525" lon="5.01441">
        <ele>276.1</ele>
        <time>2020-09-08T11:47:29Z</time>
      </trkpt>
      <trkpt lat="44.16524" lon="5.0144">
        <ele>276.1</ele>
        <time>2020-09-08T11:47:30Z</time>
      </trkpt>
      <trkpt lat="44.16525" lon="5.0144">
        <ele>276</ele>
        <time>2020-09-08T11:47:31Z</time>
      </trkpt>
      <trkpt lat="44.16525" lon="5.01439">
        <ele>276</ele>
        <time>2020-09-08T11:47:32Z</time>
      </trkpt>
      <trkpt lat="44.16528" lon="5.01436">
        <ele>275.7</ele>
        <time>2020-09-08T11:47:33Z</time>
      </trkpt>
      <trkpt lat="44.16528" lon="5.01435">
        <ele>275.7</ele>
        <time>2020-09-08T11:47:34Z</time>
      </trkpt>
      <trkpt lat="44.16529" lon="5.01433">
        <ele>275.6</ele>
        <time>2020-09-08T11:47:35Z</time>
      </trkpt>
      <trkpt lat="44.1653" lon="5.01431">
        <ele>275.5</ele>
        <time>2020-09-08T11:47:36Z</time>
      </trkpt>
      <trkpt lat="44.16531" lon="5.01431">
        <ele>275.4</ele>
        <time>2020-09-08T11:47:37Z</time>
      </trkpt>
      <trkpt lat="44.16532" lon="5.0143">
        <ele>275.3</ele>
        <time>2020-09-08T11:47:38Z</time>
      </trkpt>
      <trkpt lat="44.16532" lon="5.0143">
        <ele>275.3</ele>
        <time>2020-09-08T11:47:39Z</time>
      </trkpt>
      <trkpt lat="44.16533" lon="5.01429">
        <ele>275.2</ele>
        <time>2020-09-08T11:47:40Z</time>
      </trkpt>
      <trkpt lat="44.16534" lon="5.01427">
        <ele>275.2</ele>
        <time>2020-09-08T11:47:41Z</time>
      </trkpt>
      <trkpt lat="44.16534" lon="5.01426">
        <ele>275.1</ele>
        <time>2020-09-08T11:47:42Z</time>
      </trkpt>
      <trkpt lat="44.16534" lon="5.01426">
        <ele>275.1</ele>
        <time>2020-09-08T11:47:43Z</time>
      </trkpt>
      <trkpt lat="44.16535" lon="5.01425">
        <ele>275</ele>
        <time>2020-09-08T11:47:44Z</time>
      </trkpt>
      <trkpt lat="44.16536" lon="5.01424">
        <ele>274.9</ele>
        <time>2020-09-08T11:47:45Z</time>
      </trkpt>
      <trkpt lat="44.16537" lon="5.01423">
        <ele>274.8</ele>
        <time>2020-09-08T11:47:46Z</time>
      </trkpt>
      <trkpt lat="44.16539" lon="5.01421">
        <ele>274.7</ele>
        <time>2020-09-08T11:47:47Z</time>
      </trkpt>
      <trkpt lat="44.1654" lon="5.01421">
        <ele>274.6</ele>
        <time>2020-09-08T11:47:48Z</time>
      </trkpt>
      <trkpt lat="44.1654" lon="5.0142">
        <ele>274.6</ele>
        <time>2020-09-08T11:47:49Z</time>
      </trkpt>
      <trkpt lat="44.16542" lon="5.01418">
        <ele>274.4</ele>
        <time>2020-09-08T11:47:50Z</time>
      </trkpt>
      <trkpt lat="44.16542" lon="5.01418">
        <ele>274.4</ele>
        <time>2020-09-08T11:47:51Z</time>
      </trkpt>
      <trkpt lat="44.16543" lon="5.01417">
        <ele>274.3</ele>
        <time>2020-09-08T11:47:52Z</time>
      </trkpt>
      <trkpt lat="44.16544" lon="5.01416">
        <ele>274.2</ele>
        <time>2020-09-08T11:47:53Z</time>
      </trkpt>
      <trkpt lat="44.16545" lon="5.01415">
        <ele>274.1</ele>
        <time>2020-09-08T11:47:54Z</time>
      </trkpt>
      <trkpt lat="44.16546" lon="5.01415">
        <ele>274.1</ele>
        <time>2020-09-08T11:47:55Z</time>
      </trkpt>
      <trkpt lat="44.16547" lon="5.01415">
        <ele>274</ele>
        <time>2020-09-08T11:47:56Z</time>
      </trkpt>
      <trkpt lat="44.16548" lon="5.01414">
        <ele>273.9</ele>
        <time>2020-09-08T11:47:57Z</time>
      </trkpt>
      <trkpt lat="44.16548" lon="5.01414">
        <ele>273.9</ele>
        <time>2020-09-08T11:47:58Z</time>
      </trkpt>
      <trkpt lat="44.16549" lon="5.01413">
        <ele>273.8</ele>
        <time>2020-09-08T11:47:59Z</time>
      </trkpt>
      <trkpt lat="44.1655" lon="5.01412">
        <ele>273.7</ele>
        <time>2020-09-08T11:48:00Z</time>
      </trkpt>
      <trkpt lat="44.16551" lon="5.01413">
        <ele>273.7</ele>
        <time>2020-09-08T11:48:01Z</time>
      </trkpt>
      <trkpt lat="44.16552" lon="5.01411">
        <ele>273.6</ele>
        <time>2020-09-08T11:48:02Z</time>
      </trkpt>
      <trkpt lat="44.16552" lon="5.0141">
        <ele>273.5</ele>
        <time>2020-09-08T11:48:03Z</time>
      </trkpt>
      <trkpt lat="44.16553" lon="5.0141">
        <ele>273.5</ele>
        <time>2020-09-08T11:48:04Z</time>
      </trkpt>
      <trkpt lat="44.16555" lon="5.01409">
        <ele>273.3</ele>
        <time>2020-09-08T11:48:05Z</time>
      </trkpt>
      <trkpt lat="44.16557" lon="5.01408">
        <ele>273.1</ele>
        <time>2020-09-08T11:48:06Z</time>
      </trkpt>
      <trkpt lat="44.16558" lon="5.01406">
        <ele>273</ele>
        <time>2020-09-08T11:48:07Z</time>
      </trkpt>
      <trkpt lat="44.16559" lon="5.01405">
        <ele>272.9</ele>
        <time>2020-09-08T11:48:08Z</time>
      </trkpt>
      <trkpt lat="44.1656" lon="5.01403">
        <ele>272.8</ele>
        <time>2020-09-08T11:48:09Z</time>
      </trkpt>
      <trkpt lat="44.16561" lon="5.01402">
        <ele>272.7</ele>
        <time>2020-09-08T11:48:10Z</time>
      </trkpt>
      <trkpt lat="44.16562" lon="5.01401">
        <ele>272.6</ele>
        <time>2020-09-08T11:48:11Z</time>
      </trkpt>
      <trkpt lat="44.16564" lon="5.014">
        <ele>272.5</ele>
        <time>2020-09-08T11:48:12Z</time>
      </trkpt>
      <trkpt lat="44.16565" lon="5.01399">
        <ele>272.3</ele>
        <time>2020-09-08T11:48:13Z</time>
      </trkpt>
      <trkpt lat="44.16566" lon="5.01397">
        <ele>272.2</ele>
        <time>2020-09-08T11:48:14Z</time>
      </trkpt>
      <trkpt lat="44.16567" lon="5.01396">
        <ele>272.1</ele>
        <time>2020-09-08T11:48:15Z</time>
      </trkpt>
      <trkpt lat="44.16568" lon="5.01395">
        <ele>272</ele>
        <time>2020-09-08T11:48:16Z</time>
      </trkpt>
      <trkpt lat="44.16568" lon="5.01395">
        <ele>272</ele>
        <time>2020-09-08T11:48:17Z</time>
      </trkpt>
      <trkpt lat="44.16569" lon="5.01394">
        <ele>271.9</ele>
        <time>2020-09-08T11:48:18Z</time>
      </trkpt>
      <trkpt lat="44.1657" lon="5.01394">
        <ele>271.8</ele>
        <time>2020-09-08T11:48:19Z</time>
      </trkpt>
      <trkpt lat="44.1657" lon="5.01393">
        <ele>271.8</ele>
        <time>2020-09-08T11:48:20Z</time>
      </trkpt>
      <trkpt lat="44.16571" lon="5.01391">
        <ele>271.6</ele>
        <time>2020-09-08T11:48:21Z</time>
      </trkpt>
      <trkpt lat="44.16572" lon="5.01389">
        <ele>271.5</ele>
        <time>2020-09-08T11:48:22Z</time>
      </trkpt>
      <trkpt lat="44.16573" lon="5.01389">
        <ele>271.4</ele>
        <time>2020-09-08T11:48:23Z</time>
      </trkpt>
      <trkpt lat="44.16573" lon="5.01389">
        <ele>271.3</ele>
        <time>2020-09-08T11:48:24Z</time>
      </trkpt>
      <trkpt lat="44.16574" lon="5.01389">
        <ele>271.3</ele>
        <time>2020-09-08T11:48:25Z</time>
      </trkpt>
      <trkpt lat="44.16574" lon="5.01389">
        <ele>271.2</ele>
        <time>2020-09-08T11:48:26Z</time>
      </trkpt>
      <trkpt lat="44.16576" lon="5.01388">
        <ele>271.1</ele>
        <time>2020-09-08T11:48:27Z</time>
      </trkpt>
      <trkpt lat="44.16577" lon="5.01388">
        <ele>270.9</ele>
        <time>2020-09-08T11:48:28Z</time>
      </trkpt>
      <trkpt lat="44.16578" lon="5.01387">
        <ele>270.9</ele>
        <time>2020-09-08T11:48:29Z</time>
      </trkpt>
      <trkpt lat="44.16579" lon="5.01387">
        <ele>270.6</ele>
        <time>2020-09-08T11:48:30Z</time>
      </trkpt>
      <trkpt lat="44.1658" lon="5.01387">
        <ele>270.6</ele>
        <time>2020-09-08T11:48:31Z</time>
      </trkpt>
      <trkpt lat="44.16581" lon="5.01386">
        <ele>270.5</ele>
        <time>2020-09-08T11:48:32Z</time>
      </trkpt>
      <trkpt lat="44.16581" lon="5.01386">
        <ele>270.4</ele>
        <time>2020-09-08T11:48:33Z</time>
      </trkpt>
      <trkpt lat="44.16584" lon="5.01383">
        <ele>270</ele>
        <time>2020-09-08T11:48:34Z</time>
      </trkpt>
      <trkpt lat="44.16584" lon="5.01382">
        <ele>269.9</ele>
        <time>2020-09-08T11:48:35Z</time>
      </trkpt>
      <trkpt lat="44.16585" lon="5.01381">
        <ele>269.7</ele>
        <time>2020-09-08T11:48:36Z</time>
      </trkpt>
      <trkpt lat="44.16586" lon="5.0138">
        <ele>269.6</ele>
        <time>2020-09-08T11:48:37Z</time>
      </trkpt>
      <trkpt lat="44.16587" lon="5.0138">
        <ele>269.5</ele>
        <time>2020-09-08T11:48:38Z</time>
      </trkpt>
      <trkpt lat="44.16587" lon="5.01379">
        <ele>269.3</ele>
        <time>2020-09-08T11:48:39Z</time>
      </trkpt>
      <trkpt lat="44.16589" lon="5.01377">
        <ele>269.1</ele>
        <time>2020-09-08T11:48:40Z</time>
      </trkpt>
      <trkpt lat="44.1659" lon="5.01376">
        <ele>268.9</ele>
        <time>2020-09-08T11:48:41Z</time>
      </trkpt>
      <trkpt lat="44.1659" lon="5.01375">
        <ele>268.8</ele>
        <time>2020-09-08T11:48:42Z</time>
      </trkpt>
      <trkpt lat="44.16591" lon="5.01375">
        <ele>268.7</ele>
        <time>2020-09-08T11:48:43Z</time>
      </trkpt>
      <trkpt lat="44.16592" lon="5.01374">
        <ele>268.6</ele>
        <time>2020-09-08T11:48:44Z</time>
      </trkpt>
      <trkpt lat="44.16592" lon="5.01373">
        <ele>268.5</ele>
        <time>2020-09-08T11:48:45Z</time>
      </trkpt>
      <trkpt lat="44.16592" lon="5.01373">
        <ele>268.4</ele>
        <time>2020-09-08T11:48:46Z</time>
      </trkpt>
      <trkpt lat="44.16594" lon="5.01372">
        <ele>268.3</ele>
        <time>2020-09-08T11:48:47Z</time>
      </trkpt>
      <trkpt lat="44.16594" lon="5.01371">
        <ele>268.1</ele>
        <time>2020-09-08T11:48:48Z</time>
      </trkpt>
      <trkpt lat="44.16594" lon="5.01371">
        <ele>268.1</ele>
        <time>2020-09-08T11:48:49Z</time>
      </trkpt>
      <trkpt lat="44.16595" lon="5.01372">
        <ele>268</ele>
        <time>2020-09-08T11:48:50Z</time>
      </trkpt>
      <trkpt lat="44.16595" lon="5.01372">
        <ele>268</ele>
        <time>2020-09-08T11:48:51Z</time>
      </trkpt>
      <trkpt lat="44.16596" lon="5.01373">
        <ele>267.9</ele>
        <time>2020-09-08T11:48:52Z</time>
      </trkpt>
      <trkpt lat="44.16596" lon="5.01371">
        <ele>267.9</ele>
        <time>2020-09-08T11:48:53Z</time>
      </trkpt>
      <trkpt lat="44.16596" lon="5.0137">
        <ele>267.9</ele>
        <time>2020-09-08T11:48:54Z</time>
      </trkpt>
      <trkpt lat="44.16596" lon="5.01369">
        <ele>268</ele>
        <time>2020-09-08T11:48:55Z</time>
      </trkpt>
      <trkpt lat="44.16597" lon="5.01368">
        <ele>268</ele>
        <time>2020-09-08T11:48:56Z</time>
      </trkpt>
      <trkpt lat="44.16597" lon="5.01366">
        <ele>268</ele>
        <time>2020-09-08T11:48:57Z</time>
      </trkpt>
      <trkpt lat="44.16597" lon="5.01365">
        <ele>268</ele>
        <time>2020-09-08T11:48:58Z</time>
      </trkpt>
      <trkpt lat="44.16598" lon="5.01364">
        <ele>268.1</ele>
        <time>2020-09-08T11:48:59Z</time>
      </trkpt>
      <trkpt lat="44.16598" lon="5.01362">
        <ele>268.1</ele>
        <time>2020-09-08T11:49:00Z</time>
      </trkpt>
      <trkpt lat="44.16598" lon="5.01361">
        <ele>268.1</ele>
        <time>2020-09-08T11:49:01Z</time>
      </trkpt>
      <trkpt lat="44.16598" lon="5.01359">
        <ele>268.1</ele>
        <time>2020-09-08T11:49:02Z</time>
      </trkpt>
      <trkpt lat="44.16599" lon="5.01358">
        <ele>268.1</ele>
        <time>2020-09-08T11:49:03Z</time>
      </trkpt>
      <trkpt lat="44.16599" lon="5.01355">
        <ele>268.1</ele>
        <time>2020-09-08T11:49:04Z</time>
      </trkpt>
      <trkpt lat="44.16599" lon="5.01354">
        <ele>268.1</ele>
        <time>2020-09-08T11:49:05Z</time>
      </trkpt>
      <trkpt lat="44.16599" lon="5.01353">
        <ele>268.1</ele>
        <time>2020-09-08T11:49:06Z</time>
      </trkpt>
      <trkpt lat="44.16599" lon="5.01352">
        <ele>268.1</ele>
        <time>2020-09-08T11:49:07Z</time>
      </trkpt>
      <trkpt lat="44.16599" lon="5.0135">
        <ele>268.1</ele>
        <time>2020-09-08T11:49:08Z</time>
      </trkpt>
      <trkpt lat="44.16599" lon="5.01349">
        <ele>268.1</ele>
        <time>2020-09-08T11:49:09Z</time>
      </trkpt>
      <trkpt lat="44.16599" lon="5.01348">
        <ele>268.1</ele>
        <time>2020-09-08T11:49:10Z</time>
      </trkpt>
      <trkpt lat="44.16599" lon="5.01347">
        <ele>268.1</ele>
        <time>2020-09-08T11:49:11Z</time>
      </trkpt>
      <trkpt lat="44.16598" lon="5.01346">
        <ele>268.1</ele>
        <time>2020-09-08T11:49:12Z</time>
      </trkpt>
      <trkpt lat="44.16598" lon="5.01345">
        <ele>268.1</ele>
        <time>2020-09-08T11:49:13Z</time>
      </trkpt>
      <trkpt lat="44.16598" lon="5.01344">
        <ele>268.1</ele>
        <time>2020-09-08T11:49:14Z</time>
      </trkpt>
      <trkpt lat="44.16599" lon="5.01343">
        <ele>268.1</ele>
        <time>2020-09-08T11:49:15Z</time>
      </trkpt>
      <trkpt lat="44.16599" lon="5.01342">
        <ele>268.1</ele>
        <time>2020-09-08T11:49:16Z</time>
      </trkpt>
      <trkpt lat="44.16599" lon="5.0134">
        <ele>268</ele>
        <time>2020-09-08T11:49:17Z</time>
      </trkpt>
      <trkpt lat="44.166" lon="5.01336">
        <ele>268</ele>
        <time>2020-09-08T11:49:18Z</time>
      </trkpt>
      <trkpt lat="44.166" lon="5.01335">
        <ele>268</ele>
        <time>2020-09-08T11:49:19Z</time>
      </trkpt>
      <trkpt lat="44.16601" lon="5.01334">
        <ele>267.9</ele>
        <time>2020-09-08T11:49:20Z</time>
      </trkpt>
      <trkpt lat="44.16602" lon="5.01331">
        <ele>267.9</ele>
        <time>2020-09-08T11:49:21Z</time>
      </trkpt>
      <trkpt lat="44.16602" lon="5.01329">
        <ele>267.8</ele>
        <time>2020-09-08T11:49:22Z</time>
      </trkpt>
      <trkpt lat="44.16602" lon="5.01328">
        <ele>267.8</ele>
        <time>2020-09-08T11:49:23Z</time>
      </trkpt>
      <trkpt lat="44.16603" lon="5.01325">
        <ele>267.7</ele>
        <time>2020-09-08T11:49:24Z</time>
      </trkpt>
      <trkpt lat="44.16603" lon="5.01324">
        <ele>267.7</ele>
        <time>2020-09-08T11:49:25Z</time>
      </trkpt>
      <trkpt lat="44.16603" lon="5.01323">
        <ele>267.7</ele>
        <time>2020-09-08T11:49:26Z</time>
      </trkpt>
      <trkpt lat="44.16604" lon="5.01321">
        <ele>267.6</ele>
        <time>2020-09-08T11:49:27Z</time>
      </trkpt>
      <trkpt lat="44.16604" lon="5.0132">
        <ele>267.6</ele>
        <time>2020-09-08T11:49:28Z</time>
      </trkpt>
      <trkpt lat="44.16604" lon="5.01319">
        <ele>267.6</ele>
        <time>2020-09-08T11:49:29Z</time>
      </trkpt>
      <trkpt lat="44.16604" lon="5.01318">
        <ele>267.5</ele>
        <time>2020-09-08T11:49:30Z</time>
      </trkpt>
      <trkpt lat="44.16605" lon="5.01316">
        <ele>267.5</ele>
        <time>2020-09-08T11:49:31Z</time>
      </trkpt>
      <trkpt lat="44.16604" lon="5.01314">
        <ele>267.5</ele>
        <time>2020-09-08T11:49:32Z</time>
      </trkpt>
      <trkpt lat="44.16604" lon="5.01313">
        <ele>267.4</ele>
        <time>2020-09-08T11:49:33Z</time>
      </trkpt>
      <trkpt lat="44.16605" lon="5.0131">
        <ele>267.4</ele>
        <time>2020-09-08T11:49:34Z</time>
      </trkpt>
      <trkpt lat="44.16606" lon="5.01309">
        <ele>267.3</ele>
        <time>2020-09-08T11:49:35Z</time>
      </trkpt>
      <trkpt lat="44.16606" lon="5.01308">
        <ele>267.3</ele>
        <time>2020-09-08T11:49:36Z</time>
      </trkpt>
      <trkpt lat="44.16606" lon="5.01306">
        <ele>267.3</ele>
        <time>2020-09-08T11:49:37Z</time>
      </trkpt>
      <trkpt lat="44.16606" lon="5.01305">
        <ele>267.2</ele>
        <time>2020-09-08T11:49:38Z</time>
      </trkpt>
      <trkpt lat="44.16606" lon="5.01304">
        <ele>267.2</ele>
        <time>2020-09-08T11:49:39Z</time>
      </trkpt>
      <trkpt lat="44.16606" lon="5.01299">
        <ele>267.1</ele>
        <time>2020-09-08T11:49:40Z</time>
      </trkpt>
      <trkpt lat="44.16606" lon="5.01298">
        <ele>267.1</ele>
        <time>2020-09-08T11:49:41Z</time>
      </trkpt>
      <trkpt lat="44.16606" lon="5.01296">
        <ele>267</ele>
        <time>2020-09-08T11:49:42Z</time>
      </trkpt>
      <trkpt lat="44.16606" lon="5.01294">
        <ele>267</ele>
        <time>2020-09-08T11:49:43Z</time>
      </trkpt>
      <trkpt lat="44.16607" lon="5.01294">
        <ele>266.9</ele>
        <time>2020-09-08T11:49:44Z</time>
      </trkpt>
      <trkpt lat="44.16607" lon="5.01293">
        <ele>266.9</ele>
        <time>2020-09-08T11:49:45Z</time>
      </trkpt>
      <trkpt lat="44.16606" lon="5.01292">
        <ele>266.9</ele>
        <time>2020-09-08T11:49:46Z</time>
      </trkpt>
      <trkpt lat="44.16606" lon="5.0129">
        <ele>266.8</ele>
        <time>2020-09-08T11:49:47Z</time>
      </trkpt>
      <trkpt lat="44.16607" lon="5.01289">
        <ele>266.8</ele>
        <time>2020-09-08T11:49:48Z</time>
      </trkpt>
      <trkpt lat="44.16607" lon="5.01287">
        <ele>266.7</ele>
        <time>2020-09-08T11:49:49Z</time>
      </trkpt>
      <trkpt lat="44.16608" lon="5.01285">
        <ele>266.7</ele>
        <time>2020-09-08T11:49:50Z</time>
      </trkpt>
      <trkpt lat="44.16608" lon="5.01283">
        <ele>266.6</ele>
        <time>2020-09-08T11:49:51Z</time>
      </trkpt>
      <trkpt lat="44.16609" lon="5.01281">
        <ele>266.5</ele>
        <time>2020-09-08T11:49:52Z</time>
      </trkpt>
      <trkpt lat="44.16609" lon="5.01277">
        <ele>266.4</ele>
        <time>2020-09-08T11:49:53Z</time>
      </trkpt>
      <trkpt lat="44.16609" lon="5.01277">
        <ele>266.4</ele>
        <time>2020-09-08T11:49:54Z</time>
      </trkpt>
      <trkpt lat="44.16609" lon="5.01276">
        <ele>266.3</ele>
        <time>2020-09-08T11:49:55Z</time>
      </trkpt>
      <trkpt lat="44.1661" lon="5.01273">
        <ele>266.3</ele>
        <time>2020-09-08T11:49:56Z</time>
      </trkpt>
      <trkpt lat="44.1661" lon="5.01272">
        <ele>266.2</ele>
        <time>2020-09-08T11:49:57Z</time>
      </trkpt>
      <trkpt lat="44.1661" lon="5.0127">
        <ele>266.2</ele>
        <time>2020-09-08T11:49:58Z</time>
      </trkpt>
      <trkpt lat="44.16611" lon="5.01268">
        <ele>266.1</ele>
        <time>2020-09-08T11:49:59Z</time>
      </trkpt>
      <trkpt lat="44.16611" lon="5.01266">
        <ele>266</ele>
        <time>2020-09-08T11:50:00Z</time>
      </trkpt>
      <trkpt lat="44.16612" lon="5.01264">
        <ele>265.9</ele>
        <time>2020-09-08T11:50:01Z</time>
      </trkpt>
      <trkpt lat="44.16613" lon="5.01263">
        <ele>265.9</ele>
        <time>2020-09-08T11:50:02Z</time>
      </trkpt>
      <trkpt lat="44.16613" lon="5.01261">
        <ele>265.8</ele>
        <time>2020-09-08T11:50:03Z</time>
      </trkpt>
      <trkpt lat="44.16614" lon="5.0126">
        <ele>265.8</ele>
        <time>2020-09-08T11:50:04Z</time>
      </trkpt>
      <trkpt lat="44.16614" lon="5.01259">
        <ele>265.7</ele>
        <time>2020-09-08T11:50:05Z</time>
      </trkpt>
      <trkpt lat="44.16615" lon="5.01258">
        <ele>265.7</ele>
        <time>2020-09-08T11:50:06Z</time>
      </trkpt>
      <trkpt lat="44.16615" lon="5.01256">
        <ele>265.6</ele>
        <time>2020-09-08T11:50:07Z</time>
      </trkpt>
      <trkpt lat="44.16615" lon="5.01255">
        <ele>265.6</ele>
        <time>2020-09-08T11:50:08Z</time>
      </trkpt>
      <trkpt lat="44.16616" lon="5.01253">
        <ele>265.5</ele>
        <time>2020-09-08T11:50:09Z</time>
      </trkpt>
      <trkpt lat="44.16616" lon="5.01253">
        <ele>265.5</ele>
        <time>2020-09-08T11:50:10Z</time>
      </trkpt>
      <trkpt lat="44.16616" lon="5.01252">
        <ele>265.5</ele>
        <time>2020-09-08T11:50:11Z</time>
      </trkpt>
      <trkpt lat="44.16616" lon="5.01251">
        <ele>265.5</ele>
        <time>2020-09-08T11:50:12Z</time>
      </trkpt>
      <trkpt lat="44.16617" lon="5.0125">
        <ele>265.4</ele>
        <time>2020-09-08T11:50:13Z</time>
      </trkpt>
      <trkpt lat="44.16618" lon="5.01248">
        <ele>265.3</ele>
        <time>2020-09-08T11:50:14Z</time>
      </trkpt>
      <trkpt lat="44.16619" lon="5.01245">
        <ele>265.3</ele>
        <time>2020-09-08T11:50:15Z</time>
      </trkpt>
      <trkpt lat="44.16619" lon="5.01244">
        <ele>265.2</ele>
        <time>2020-09-08T11:50:16Z</time>
      </trkpt>
      <trkpt lat="44.16619" lon="5.01243">
        <ele>265.2</ele>
        <time>2020-09-08T11:50:17Z</time>
      </trkpt>
      <trkpt lat="44.1662" lon="5.01241">
        <ele>265.2</ele>
        <time>2020-09-08T11:50:18Z</time>
      </trkpt>
      <trkpt lat="44.1662" lon="5.0124">
        <ele>265.1</ele>
        <time>2020-09-08T11:50:19Z</time>
      </trkpt>
      <trkpt lat="44.16621" lon="5.01239">
        <ele>265.1</ele>
        <time>2020-09-08T11:50:20Z</time>
      </trkpt>
      <trkpt lat="44.16622" lon="5.01236">
        <ele>265.1</ele>
        <time>2020-09-08T11:50:21Z</time>
      </trkpt>
      <trkpt lat="44.16622" lon="5.01235">
        <ele>265</ele>
        <time>2020-09-08T11:50:22Z</time>
      </trkpt>
      <trkpt lat="44.16623" lon="5.01233">
        <ele>265</ele>
        <time>2020-09-08T11:50:23Z</time>
      </trkpt>
      <trkpt lat="44.16623" lon="5.01232">
        <ele>265</ele>
        <time>2020-09-08T11:50:24Z</time>
      </trkpt>
      <trkpt lat="44.16623" lon="5.0123">
        <ele>264.9</ele>
        <time>2020-09-08T11:50:25Z</time>
      </trkpt>
      <trkpt lat="44.16624" lon="5.01228">
        <ele>264.9</ele>
        <time>2020-09-08T11:50:26Z</time>
      </trkpt>
      <trkpt lat="44.16624" lon="5.01227">
        <ele>264.9</ele>
        <time>2020-09-08T11:50:27Z</time>
      </trkpt>
      <trkpt lat="44.16625" lon="5.01227">
        <ele>264.8</ele>
        <time>2020-09-08T11:50:28Z</time>
      </trkpt>
      <trkpt lat="44.16627" lon="5.01225">
        <ele>264.8</ele>
        <time>2020-09-08T11:50:29Z</time>
      </trkpt>
      <trkpt lat="44.16627" lon="5.01225">
        <ele>264.8</ele>
        <time>2020-09-08T11:50:30Z</time>
      </trkpt>
      <trkpt lat="44.16628" lon="5.01224">
        <ele>264.7</ele>
        <time>2020-09-08T11:50:31Z</time>
      </trkpt>
      <trkpt lat="44.1663" lon="5.01224">
        <ele>264.7</ele>
        <time>2020-09-08T11:50:32Z</time>
      </trkpt>
      <trkpt lat="44.16631" lon="5.01223">
        <ele>264.6</ele>
        <time>2020-09-08T11:50:33Z</time>
      </trkpt>
      <trkpt lat="44.16633" lon="5.01221">
        <ele>264.6</ele>
        <time>2020-09-08T11:50:34Z</time>
      </trkpt>
      <trkpt lat="44.16633" lon="5.01219">
        <ele>264.5</ele>
        <time>2020-09-08T11:50:35Z</time>
      </trkpt>
      <trkpt lat="44.16636" lon="5.01216">
        <ele>264.4</ele>
        <time>2020-09-08T11:50:36Z</time>
      </trkpt>
      <trkpt lat="44.16637" lon="5.01215">
        <ele>264.4</ele>
        <time>2020-09-08T11:50:37Z</time>
      </trkpt>
      <trkpt lat="44.16637" lon="5.01213">
        <ele>264.3</ele>
        <time>2020-09-08T11:50:38Z</time>
      </trkpt>
      <trkpt lat="44.16638" lon="5.01211">
        <ele>264.2</ele>
        <time>2020-09-08T11:50:39Z</time>
      </trkpt>
      <trkpt lat="44.16639" lon="5.0121">
        <ele>264.2</ele>
        <time>2020-09-08T11:50:40Z</time>
      </trkpt>
      <trkpt lat="44.1664" lon="5.0121">
        <ele>264.1</ele>
        <time>2020-09-08T11:50:41Z</time>
      </trkpt>
      <trkpt lat="44.16641" lon="5.01208">
        <ele>264.1</ele>
        <time>2020-09-08T11:50:42Z</time>
      </trkpt>
      <trkpt lat="44.16642" lon="5.01206">
        <ele>264</ele>
        <time>2020-09-08T11:50:43Z</time>
      </trkpt>
      <trkpt lat="44.16643" lon="5.01205">
        <ele>263.9</ele>
        <time>2020-09-08T11:50:44Z</time>
      </trkpt>
      <trkpt lat="44.16645" lon="5.01203">
        <ele>263.8</ele>
        <time>2020-09-08T11:50:45Z</time>
      </trkpt>
      <trkpt lat="44.16646" lon="5.01203">
        <ele>263.8</ele>
        <time>2020-09-08T11:50:46Z</time>
      </trkpt>
      <trkpt lat="44.16646" lon="5.01202">
        <ele>263.7</ele>
        <time>2020-09-08T11:50:47Z</time>
      </trkpt>
      <trkpt lat="44.16647" lon="5.01201">
        <ele>263.7</ele>
        <time>2020-09-08T11:50:48Z</time>
      </trkpt>
      <trkpt lat="44.16648" lon="5.012">
        <ele>263.6</ele>
        <time>2020-09-08T11:50:49Z</time>
      </trkpt>
      <trkpt lat="44.16648" lon="5.01199">
        <ele>263.6</ele>
        <time>2020-09-08T11:50:50Z</time>
      </trkpt>
      <trkpt lat="44.16649" lon="5.01199">
        <ele>263.6</ele>
        <time>2020-09-08T11:50:51Z</time>
      </trkpt>
      <trkpt lat="44.1665" lon="5.01198">
        <ele>263.5</ele>
        <time>2020-09-08T11:50:52Z</time>
      </trkpt>
      <trkpt lat="44.16651" lon="5.01197">
        <ele>263.5</ele>
        <time>2020-09-08T11:50:53Z</time>
      </trkpt>
      <trkpt lat="44.16651" lon="5.01197">
        <ele>263.4</ele>
        <time>2020-09-08T11:50:54Z</time>
      </trkpt>
      <trkpt lat="44.16652" lon="5.01193">
        <ele>263.3</ele>
        <time>2020-09-08T11:50:55Z</time>
      </trkpt>
      <trkpt lat="44.16653" lon="5.01191">
        <ele>263.2</ele>
        <time>2020-09-08T11:50:56Z</time>
      </trkpt>
      <trkpt lat="44.16654" lon="5.0119">
        <ele>263.2</ele>
        <time>2020-09-08T11:50:57Z</time>
      </trkpt>
      <trkpt lat="44.16655" lon="5.01189">
        <ele>263.1</ele>
        <time>2020-09-08T11:50:58Z</time>
      </trkpt>
      <trkpt lat="44.16655" lon="5.01188">
        <ele>263.1</ele>
        <time>2020-09-08T11:50:59Z</time>
      </trkpt>
      <trkpt lat="44.16657" lon="5.01186">
        <ele>263</ele>
        <time>2020-09-08T11:51:00Z</time>
      </trkpt>
      <trkpt lat="44.16657" lon="5.01185">
        <ele>263</ele>
        <time>2020-09-08T11:51:01Z</time>
      </trkpt>
      <trkpt lat="44.16658" lon="5.01184">
        <ele>263</ele>
        <time>2020-09-08T11:51:02Z</time>
      </trkpt>
      <trkpt lat="44.16659" lon="5.01183">
        <ele>262.9</ele>
        <time>2020-09-08T11:51:03Z</time>
      </trkpt>
      <trkpt lat="44.1666" lon="5.01182">
        <ele>262.9</ele>
        <time>2020-09-08T11:51:04Z</time>
      </trkpt>
      <trkpt lat="44.1666" lon="5.01182">
        <ele>262.9</ele>
        <time>2020-09-08T11:51:05Z</time>
      </trkpt>
      <trkpt lat="44.16661" lon="5.0118">
        <ele>262.9</ele>
        <time>2020-09-08T11:51:06Z</time>
      </trkpt>
      <trkpt lat="44.16662" lon="5.01179">
        <ele>262.8</ele>
        <time>2020-09-08T11:51:07Z</time>
      </trkpt>
      <trkpt lat="44.16662" lon="5.01176">
        <ele>262.8</ele>
        <time>2020-09-08T11:51:08Z</time>
      </trkpt>
      <trkpt lat="44.16662" lon="5.01174">
        <ele>262.8</ele>
        <time>2020-09-08T11:51:09Z</time>
      </trkpt>
      <trkpt lat="44.16662" lon="5.01173">
        <ele>262.8</ele>
        <time>2020-09-08T11:51:10Z</time>
      </trkpt>
      <trkpt lat="44.16662" lon="5.0117">
        <ele>262.8</ele>
        <time>2020-09-08T11:51:11Z</time>
      </trkpt>
      <trkpt lat="44.16663" lon="5.01167">
        <ele>262.8</ele>
        <time>2020-09-08T11:51:12Z</time>
      </trkpt>
      <trkpt lat="44.16663" lon="5.01165">
        <ele>262.8</ele>
        <time>2020-09-08T11:51:13Z</time>
      </trkpt>
      <trkpt lat="44.16663" lon="5.01164">
        <ele>262.8</ele>
        <time>2020-09-08T11:51:14Z</time>
      </trkpt>
      <trkpt lat="44.16664" lon="5.01162">
        <ele>262.9</ele>
        <time>2020-09-08T11:51:15Z</time>
      </trkpt>
      <trkpt lat="44.16665" lon="5.0116">
        <ele>262.9</ele>
        <time>2020-09-08T11:51:16Z</time>
      </trkpt>
      <trkpt lat="44.16665" lon="5.01159">
        <ele>262.9</ele>
        <time>2020-09-08T11:51:17Z</time>
      </trkpt>
      <trkpt lat="44.16665" lon="5.01158">
        <ele>262.9</ele>
        <time>2020-09-08T11:51:18Z</time>
      </trkpt>
      <trkpt lat="44.16666" lon="5.01158">
        <ele>263</ele>
        <time>2020-09-08T11:51:19Z</time>
      </trkpt>
      <trkpt lat="44.16668" lon="5.01155">
        <ele>263</ele>
        <time>2020-09-08T11:51:20Z</time>
      </trkpt>
      <trkpt lat="44.16668" lon="5.01154">
        <ele>263.1</ele>
        <time>2020-09-08T11:51:21Z</time>
      </trkpt>
      <trkpt lat="44.16668" lon="5.01153">
        <ele>263.1</ele>
        <time>2020-09-08T11:51:22Z</time>
      </trkpt>
      <trkpt lat="44.16668" lon="5.01151">
        <ele>263.1</ele>
        <time>2020-09-08T11:51:23Z</time>
      </trkpt>
      <trkpt lat="44.16668" lon="5.01149">
        <ele>263.2</ele>
        <time>2020-09-08T11:51:24Z</time>
      </trkpt>
      <trkpt lat="44.16668" lon="5.01148">
        <ele>263.2</ele>
        <time>2020-09-08T11:51:25Z</time>
      </trkpt>
      <trkpt lat="44.16669" lon="5.01146">
        <ele>263.2</ele>
        <time>2020-09-08T11:51:26Z</time>
      </trkpt>
      <trkpt lat="44.16669" lon="5.01145">
        <ele>263.3</ele>
        <time>2020-09-08T11:51:27Z</time>
      </trkpt>
      <trkpt lat="44.16669" lon="5.01141">
        <ele>263.4</ele>
        <time>2020-09-08T11:51:28Z</time>
      </trkpt>
      <trkpt lat="44.16669" lon="5.01139">
        <ele>263.4</ele>
        <time>2020-09-08T11:51:29Z</time>
      </trkpt>
      <trkpt lat="44.1667" lon="5.01135">
        <ele>263.5</ele>
        <time>2020-09-08T11:51:30Z</time>
      </trkpt>
      <trkpt lat="44.1667" lon="5.01134">
        <ele>263.5</ele>
        <time>2020-09-08T11:51:31Z</time>
      </trkpt>
      <trkpt lat="44.1667" lon="5.01134">
        <ele>263.6</ele>
        <time>2020-09-08T11:51:32Z</time>
      </trkpt>
      <trkpt lat="44.16669" lon="5.01133">
        <ele>263.6</ele>
        <time>2020-09-08T11:51:33Z</time>
      </trkpt>
      <trkpt lat="44.1667" lon="5.0113">
        <ele>263.7</ele>
        <time>2020-09-08T11:51:34Z</time>
      </trkpt>
      <trkpt lat="44.1667" lon="5.01128">
        <ele>263.7</ele>
        <time>2020-09-08T11:51:35Z</time>
      </trkpt>
      <trkpt lat="44.16671" lon="5.01125">
        <ele>263.8</ele>
        <time>2020-09-08T11:51:36Z</time>
      </trkpt>
      <trkpt lat="44.1667" lon="5.01123">
        <ele>263.8</ele>
        <time>2020-09-08T11:51:37Z</time>
      </trkpt>
      <trkpt lat="44.1667" lon="5.01121">
        <ele>263.9</ele>
        <time>2020-09-08T11:51:38Z</time>
      </trkpt>
      <trkpt lat="44.16671" lon="5.0112">
        <ele>264</ele>
        <time>2020-09-08T11:51:39Z</time>
      </trkpt>
      <trkpt lat="44.16671" lon="5.01117">
        <ele>264</ele>
        <time>2020-09-08T11:51:40Z</time>
      </trkpt>
      <trkpt lat="44.16671" lon="5.01116">
        <ele>264.1</ele>
        <time>2020-09-08T11:51:41Z</time>
      </trkpt>
      <trkpt lat="44.1667" lon="5.01114">
        <ele>264.1</ele>
        <time>2020-09-08T11:51:42Z</time>
      </trkpt>
      <trkpt lat="44.1667" lon="5.01112">
        <ele>264.2</ele>
        <time>2020-09-08T11:51:43Z</time>
      </trkpt>
      <trkpt lat="44.16669" lon="5.0111">
        <ele>264.3</ele>
        <time>2020-09-08T11:51:44Z</time>
      </trkpt>
      <trkpt lat="44.16667" lon="5.01108">
        <ele>264.4</ele>
        <time>2020-09-08T11:51:45Z</time>
      </trkpt>
      <trkpt lat="44.16667" lon="5.01106">
        <ele>264.4</ele>
        <time>2020-09-08T11:51:46Z</time>
      </trkpt>
      <trkpt lat="44.16666" lon="5.01105">
        <ele>264.5</ele>
        <time>2020-09-08T11:51:47Z</time>
      </trkpt>
      <trkpt lat="44.16666" lon="5.01103">
        <ele>264.5</ele>
        <time>2020-09-08T11:51:48Z</time>
      </trkpt>
      <trkpt lat="44.16666" lon="5.01102">
        <ele>264.6</ele>
        <time>2020-09-08T11:51:49Z</time>
      </trkpt>
      <trkpt lat="44.16665" lon="5.01101">
        <ele>264.6</ele>
        <time>2020-09-08T11:51:50Z</time>
      </trkpt>
      <trkpt lat="44.16665" lon="5.011">
        <ele>264.6</ele>
        <time>2020-09-08T11:51:51Z</time>
      </trkpt>
      <trkpt lat="44.16664" lon="5.01097">
        <ele>264.7</ele>
        <time>2020-09-08T11:51:52Z</time>
      </trkpt>
      <trkpt lat="44.16664" lon="5.01096">
        <ele>264.8</ele>
        <time>2020-09-08T11:51:53Z</time>
      </trkpt>
      <trkpt lat="44.16664" lon="5.01095">
        <ele>264.8</ele>
        <time>2020-09-08T11:51:54Z</time>
      </trkpt>
      <trkpt lat="44.16663" lon="5.01092">
        <ele>264.9</ele>
        <time>2020-09-08T11:51:55Z</time>
      </trkpt>
      <trkpt lat="44.16663" lon="5.0109">
        <ele>265</ele>
        <time>2020-09-08T11:51:56Z</time>
      </trkpt>
      <trkpt lat="44.16663" lon="5.0109">
        <ele>265</ele>
        <time>2020-09-08T11:51:57Z</time>
      </trkpt>
      <trkpt lat="44.16662" lon="5.01088">
        <ele>265.1</ele>
        <time>2020-09-08T11:51:58Z</time>
      </trkpt>
      <trkpt lat="44.16661" lon="5.01087">
        <ele>265.1</ele>
        <time>2020-09-08T11:51:59Z</time>
      </trkpt>
      <trkpt lat="44.16661" lon="5.01084">
        <ele>265.2</ele>
        <time>2020-09-08T11:52:00Z</time>
      </trkpt>
      <trkpt lat="44.16661" lon="5.01083">
        <ele>265.2</ele>
        <time>2020-09-08T11:52:01Z</time>
      </trkpt>
      <trkpt lat="44.16661" lon="5.01082">
        <ele>265.3</ele>
        <time>2020-09-08T11:52:02Z</time>
      </trkpt>
      <trkpt lat="44.16661" lon="5.01081">
        <ele>265.3</ele>
        <time>2020-09-08T11:52:03Z</time>
      </trkpt>
      <trkpt lat="44.1666" lon="5.01079">
        <ele>265.4</ele>
        <time>2020-09-08T11:52:04Z</time>
      </trkpt>
      <trkpt lat="44.1666" lon="5.01078">
        <ele>265.4</ele>
        <time>2020-09-08T11:52:05Z</time>
      </trkpt>
      <trkpt lat="44.16659" lon="5.01076">
        <ele>265.5</ele>
        <time>2020-09-08T11:52:06Z</time>
      </trkpt>
      <trkpt lat="44.16659" lon="5.01074">
        <ele>265.5</ele>
        <time>2020-09-08T11:52:07Z</time>
      </trkpt>
      <trkpt lat="44.16658" lon="5.01071">
        <ele>265.6</ele>
        <time>2020-09-08T11:52:08Z</time>
      </trkpt>
      <trkpt lat="44.16658" lon="5.0107">
        <ele>265.6</ele>
        <time>2020-09-08T11:52:09Z</time>
      </trkpt>
      <trkpt lat="44.16658" lon="5.01068">
        <ele>265.7</ele>
        <time>2020-09-08T11:52:10Z</time>
      </trkpt>
      <trkpt lat="44.16657" lon="5.01067">
        <ele>265.7</ele>
        <time>2020-09-08T11:52:11Z</time>
      </trkpt>
      <trkpt lat="44.16657" lon="5.01065">
        <ele>265.8</ele>
        <time>2020-09-08T11:52:12Z</time>
      </trkpt>
      <trkpt lat="44.16657" lon="5.01064">
        <ele>265.8</ele>
        <time>2020-09-08T11:52:13Z</time>
      </trkpt>
      <trkpt lat="44.16656" lon="5.01062">
        <ele>265.9</ele>
        <time>2020-09-08T11:52:14Z</time>
      </trkpt>
      <trkpt lat="44.16655" lon="5.0106">
        <ele>265.9</ele>
        <time>2020-09-08T11:52:15Z</time>
      </trkpt>
      <trkpt lat="44.16655" lon="5.01058">
        <ele>266</ele>
        <time>2020-09-08T11:52:16Z</time>
      </trkpt>
      <trkpt lat="44.16654" lon="5.01056">
        <ele>266</ele>
        <time>2020-09-08T11:52:17Z</time>
      </trkpt>
      <trkpt lat="44.16655" lon="5.01053">
        <ele>266.1</ele>
        <time>2020-09-08T11:52:18Z</time>
      </trkpt>
      <trkpt lat="44.16655" lon="5.01052">
        <ele>266.1</ele>
        <time>2020-09-08T11:52:19Z</time>
      </trkpt>
      <trkpt lat="44.16654" lon="5.01051">
        <ele>266.1</ele>
        <time>2020-09-08T11:52:20Z</time>
      </trkpt>
      <trkpt lat="44.16654" lon="5.01049">
        <ele>266.1</ele>
        <time>2020-09-08T11:52:21Z</time>
      </trkpt>
      <trkpt lat="44.16654" lon="5.01048">
        <ele>266.2</ele>
        <time>2020-09-08T11:52:22Z</time>
      </trkpt>
      <trkpt lat="44.16654" lon="5.01046">
        <ele>266.2</ele>
        <time>2020-09-08T11:52:23Z</time>
      </trkpt>
      <trkpt lat="44.16653" lon="5.01045">
        <ele>266.2</ele>
        <time>2020-09-08T11:52:24Z</time>
      </trkpt>
      <trkpt lat="44.16652" lon="5.01043">
        <ele>266.2</ele>
        <time>2020-09-08T11:52:25Z</time>
      </trkpt>
      <trkpt lat="44.16652" lon="5.01041">
        <ele>266.2</ele>
        <time>2020-09-08T11:52:26Z</time>
      </trkpt>
      <trkpt lat="44.16651" lon="5.01039">
        <ele>266.2</ele>
        <time>2020-09-08T11:52:27Z</time>
      </trkpt>
      <trkpt lat="44.1665" lon="5.01036">
        <ele>266.2</ele>
        <time>2020-09-08T11:52:28Z</time>
      </trkpt>
      <trkpt lat="44.1665" lon="5.01035">
        <ele>266.2</ele>
        <time>2020-09-08T11:52:29Z</time>
      </trkpt>
      <trkpt lat="44.1665" lon="5.01034">
        <ele>266.2</ele>
        <time>2020-09-08T11:52:30Z</time>
      </trkpt>
      <trkpt lat="44.16649" lon="5.01033">
        <ele>266.2</ele>
        <time>2020-09-08T11:52:31Z</time>
      </trkpt>
      <trkpt lat="44.16649" lon="5.01031">
        <ele>266.2</ele>
        <time>2020-09-08T11:52:32Z</time>
      </trkpt>
      <trkpt lat="44.16648" lon="5.0103">
        <ele>266.2</ele>
        <time>2020-09-08T11:52:33Z</time>
      </trkpt>
      <trkpt lat="44.16647" lon="5.01029">
        <ele>266.2</ele>
        <time>2020-09-08T11:52:34Z</time>
      </trkpt>
      <trkpt lat="44.16646" lon="5.01027">
        <ele>266.1</ele>
        <time>2020-09-08T11:52:35Z</time>
      </trkpt>
      <trkpt lat="44.16645" lon="5.01025">
        <ele>266.1</ele>
        <time>2020-09-08T11:52:36Z</time>
      </trkpt>
      <trkpt lat="44.16645" lon="5.01024">
        <ele>266.1</ele>
        <time>2020-09-08T11:52:37Z</time>
      </trkpt>
      <trkpt lat="44.16644" lon="5.01023">
        <ele>266.1</ele>
        <time>2020-09-08T11:52:38Z</time>
      </trkpt>
      <trkpt lat="44.16644" lon="5.01022">
        <ele>266</ele>
        <time>2020-09-08T11:52:39Z</time>
      </trkpt>
      <trkpt lat="44.16643" lon="5.01021">
        <ele>266</ele>
        <time>2020-09-08T11:52:40Z</time>
      </trkpt>
      <trkpt lat="44.16643" lon="5.0102">
        <ele>265.9</ele>
        <time>2020-09-08T11:52:41Z</time>
      </trkpt>
      <trkpt lat="44.16642" lon="5.01017">
        <ele>265.9</ele>
        <time>2020-09-08T11:52:42Z</time>
      </trkpt>
      <trkpt lat="44.16641" lon="5.01016">
        <ele>265.8</ele>
        <time>2020-09-08T11:52:43Z</time>
      </trkpt>
      <trkpt lat="44.16641" lon="5.01015">
        <ele>265.8</ele>
        <time>2020-09-08T11:52:44Z</time>
      </trkpt>
      <trkpt lat="44.1664" lon="5.01015">
        <ele>265.7</ele>
        <time>2020-09-08T11:52:45Z</time>
      </trkpt>
      <trkpt lat="44.16639" lon="5.01013">
        <ele>265.7</ele>
        <time>2020-09-08T11:52:46Z</time>
      </trkpt>
      <trkpt lat="44.16639" lon="5.01012">
        <ele>265.6</ele>
        <time>2020-09-08T11:52:47Z</time>
      </trkpt>
      <trkpt lat="44.16637" lon="5.01009">
        <ele>265.4</ele>
        <time>2020-09-08T11:52:48Z</time>
      </trkpt>
      <trkpt lat="44.16637" lon="5.01008">
        <ele>265.4</ele>
        <time>2020-09-08T11:52:49Z</time>
      </trkpt>
      <trkpt lat="44.16636" lon="5.01007">
        <ele>265.3</ele>
        <time>2020-09-08T11:52:50Z</time>
      </trkpt>
      <trkpt lat="44.16636" lon="5.01005">
        <ele>265.2</ele>
        <time>2020-09-08T11:52:51Z</time>
      </trkpt>
      <trkpt lat="44.16636" lon="5.01004">
        <ele>265.2</ele>
        <time>2020-09-08T11:52:52Z</time>
      </trkpt>
      <trkpt lat="44.16635" lon="5.01001">
        <ele>265</ele>
        <time>2020-09-08T11:52:53Z</time>
      </trkpt>
      <trkpt lat="44.16635" lon="5.01">
        <ele>265</ele>
        <time>2020-09-08T11:52:54Z</time>
      </trkpt>
      <trkpt lat="44.16634" lon="5.00998">
        <ele>264.8</ele>
        <time>2020-09-08T11:52:56Z</time>
      </trkpt>
      <trkpt lat="44.16632" lon="5.00997">
        <ele>264.7</ele>
        <time>2020-09-08T11:52:57Z</time>
      </trkpt>
      <trkpt lat="44.16632" lon="5.00995">
        <ele>264.6</ele>
        <time>2020-09-08T11:52:58Z</time>
      </trkpt>
      <trkpt lat="44.16631" lon="5.00993">
        <ele>264.5</ele>
        <time>2020-09-08T11:53:00Z</time>
      </trkpt>
      <trkpt lat="44.16629" lon="5.00991">
        <ele>264.3</ele>
        <time>2020-09-08T11:53:01Z</time>
      </trkpt>
      <trkpt lat="44.16629" lon="5.0099">
        <ele>264.2</ele>
        <time>2020-09-08T11:53:02Z</time>
      </trkpt>
      <trkpt lat="44.16628" lon="5.00988">
        <ele>264.1</ele>
        <time>2020-09-08T11:53:04Z</time>
      </trkpt>
      <trkpt lat="44.16628" lon="5.00987">
        <ele>264</ele>
        <time>2020-09-08T11:53:05Z</time>
      </trkpt>
      <trkpt lat="44.16627" lon="5.00986">
        <ele>264</ele>
        <time>2020-09-08T11:53:06Z</time>
      </trkpt>
      <trkpt lat="44.16627" lon="5.00986">
        <ele>263.9</ele>
        <time>2020-09-08T11:53:07Z</time>
      </trkpt>
      <trkpt lat="44.16626" lon="5.00984">
        <ele>263.8</ele>
        <time>2020-09-08T11:53:08Z</time>
      </trkpt>
      <trkpt lat="44.16625" lon="5.00984">
        <ele>263.7</ele>
        <time>2020-09-08T11:53:09Z</time>
      </trkpt>
      <trkpt lat="44.16624" lon="5.00982">
        <ele>263.5</ele>
        <time>2020-09-08T11:53:10Z</time>
      </trkpt>
      <trkpt lat="44.16624" lon="5.0098">
        <ele>263.4</ele>
        <time>2020-09-08T11:53:11Z</time>
      </trkpt>
      <trkpt lat="44.16624" lon="5.00979">
        <ele>263.4</ele>
        <time>2020-09-08T11:53:12Z</time>
      </trkpt>
      <trkpt lat="44.16622" lon="5.00978">
        <ele>263.2</ele>
        <time>2020-09-08T11:53:13Z</time>
      </trkpt>
      <trkpt lat="44.16622" lon="5.00977">
        <ele>263.2</ele>
        <time>2020-09-08T11:53:14Z</time>
      </trkpt>
      <trkpt lat="44.16621" lon="5.00976">
        <ele>263.1</ele>
        <time>2020-09-08T11:53:15Z</time>
      </trkpt>
      <trkpt lat="44.1662" lon="5.00974">
        <ele>262.9</ele>
        <time>2020-09-08T11:53:16Z</time>
      </trkpt>
      <trkpt lat="44.16619" lon="5.00973">
        <ele>262.8</ele>
        <time>2020-09-08T11:53:17Z</time>
      </trkpt>
      <trkpt lat="44.16619" lon="5.00972">
        <ele>262.7</ele>
        <time>2020-09-08T11:53:18Z</time>
      </trkpt>
      <trkpt lat="44.16618" lon="5.0097">
        <ele>262.6</ele>
        <time>2020-09-08T11:53:19Z</time>
      </trkpt>
      <trkpt lat="44.16617" lon="5.00969">
        <ele>262.5</ele>
        <time>2020-09-08T11:53:20Z</time>
      </trkpt>
      <trkpt lat="44.16617" lon="5.00967">
        <ele>262.4</ele>
        <time>2020-09-08T11:53:21Z</time>
      </trkpt>
      <trkpt lat="44.16616" lon="5.00966">
        <ele>262.3</ele>
        <time>2020-09-08T11:53:22Z</time>
      </trkpt>
      <trkpt lat="44.16615" lon="5.00965">
        <ele>262.2</ele>
        <time>2020-09-08T11:53:23Z</time>
      </trkpt>
      <trkpt lat="44.16613" lon="5.00962">
        <ele>261.9</ele>
        <time>2020-09-08T11:53:24Z</time>
      </trkpt>
      <trkpt lat="44.16612" lon="5.00961">
        <ele>261.8</ele>
        <time>2020-09-08T11:53:25Z</time>
      </trkpt>
      <trkpt lat="44.16611" lon="5.0096">
        <ele>261.7</ele>
        <time>2020-09-08T11:53:26Z</time>
      </trkpt>
      <trkpt lat="44.1661" lon="5.00958">
        <ele>261.6</ele>
        <time>2020-09-08T11:53:27Z</time>
      </trkpt>
      <trkpt lat="44.16609" lon="5.00955">
        <ele>261.4</ele>
        <time>2020-09-08T11:53:28Z</time>
      </trkpt>
      <trkpt lat="44.16608" lon="5.00954">
        <ele>261.3</ele>
        <time>2020-09-08T11:53:29Z</time>
      </trkpt>
      <trkpt lat="44.16608" lon="5.00953">
        <ele>261.2</ele>
        <time>2020-09-08T11:53:30Z</time>
      </trkpt>
      <trkpt lat="44.16607" lon="5.00953">
        <ele>261.2</ele>
        <time>2020-09-08T11:53:31Z</time>
      </trkpt>
      <trkpt lat="44.16606" lon="5.00951">
        <ele>261</ele>
        <time>2020-09-08T11:53:32Z</time>
      </trkpt>
      <trkpt lat="44.16605" lon="5.00949">
        <ele>260.9</ele>
        <time>2020-09-08T11:53:33Z</time>
      </trkpt>
      <trkpt lat="44.16605" lon="5.00949">
        <ele>260.9</ele>
        <time>2020-09-08T11:53:34Z</time>
      </trkpt>
      <trkpt lat="44.16604" lon="5.00947">
        <ele>260.8</ele>
        <time>2020-09-08T11:53:35Z</time>
      </trkpt>
      <trkpt lat="44.16603" lon="5.00945">
        <ele>260.7</ele>
        <time>2020-09-08T11:53:36Z</time>
      </trkpt>
      <trkpt lat="44.16602" lon="5.00944">
        <ele>260.6</ele>
        <time>2020-09-08T11:53:37Z</time>
      </trkpt>
      <trkpt lat="44.166" lon="5.00942">
        <ele>260.5</ele>
        <time>2020-09-08T11:53:38Z</time>
      </trkpt>
      <trkpt lat="44.166" lon="5.00941">
        <ele>260.5</ele>
        <time>2020-09-08T11:53:39Z</time>
      </trkpt>
      <trkpt lat="44.16599" lon="5.00941">
        <ele>260.5</ele>
        <time>2020-09-08T11:53:40Z</time>
      </trkpt>
      <trkpt lat="44.16599" lon="5.00941">
        <ele>260.4</ele>
        <time>2020-09-08T11:53:41Z</time>
      </trkpt>
      <trkpt lat="44.16599" lon="5.00941">
        <ele>260.4</ele>
        <time>2020-09-08T11:53:42Z</time>
      </trkpt>
      <trkpt lat="44.16597" lon="5.0094">
        <ele>260.4</ele>
        <time>2020-09-08T11:53:43Z</time>
      </trkpt>
      <trkpt lat="44.16597" lon="5.00938">
        <ele>260.3</ele>
        <time>2020-09-08T11:53:44Z</time>
      </trkpt>
      <trkpt lat="44.16597" lon="5.00938">
        <ele>260.3</ele>
        <time>2020-09-08T11:53:45Z</time>
      </trkpt>
      <trkpt lat="44.16596" lon="5.00936">
        <ele>260.3</ele>
        <time>2020-09-08T11:53:46Z</time>
      </trkpt>
      <trkpt lat="44.16596" lon="5.00934">
        <ele>260.2</ele>
        <time>2020-09-08T11:53:47Z</time>
      </trkpt>
      <trkpt lat="44.16595" lon="5.00931">
        <ele>260.2</ele>
        <time>2020-09-08T11:53:48Z</time>
      </trkpt>
      <trkpt lat="44.16595" lon="5.00929">
        <ele>260.1</ele>
        <time>2020-09-08T11:53:49Z</time>
      </trkpt>
      <trkpt lat="44.16595" lon="5.00928">
        <ele>260.1</ele>
        <time>2020-09-08T11:53:50Z</time>
      </trkpt>
      <trkpt lat="44.16595" lon="5.00927">
        <ele>260.1</ele>
        <time>2020-09-08T11:53:51Z</time>
      </trkpt>
      <trkpt lat="44.16594" lon="5.00925">
        <ele>260.1</ele>
        <time>2020-09-08T11:53:52Z</time>
      </trkpt>
      <trkpt lat="44.16593" lon="5.00922">
        <ele>260.1</ele>
        <time>2020-09-08T11:53:53Z</time>
      </trkpt>
      <trkpt lat="44.16593" lon="5.00921">
        <ele>260.1</ele>
        <time>2020-09-08T11:53:54Z</time>
      </trkpt>
      <trkpt lat="44.16593" lon="5.00919">
        <ele>260.1</ele>
        <time>2020-09-08T11:53:55Z</time>
      </trkpt>
      <trkpt lat="44.16592" lon="5.00918">
        <ele>260.1</ele>
        <time>2020-09-08T11:53:56Z</time>
      </trkpt>
      <trkpt lat="44.16592" lon="5.00916">
        <ele>260.1</ele>
        <time>2020-09-08T11:53:57Z</time>
      </trkpt>
      <trkpt lat="44.16592" lon="5.00914">
        <ele>260.1</ele>
        <time>2020-09-08T11:53:58Z</time>
      </trkpt>
      <trkpt lat="44.16592" lon="5.00913">
        <ele>260.1</ele>
        <time>2020-09-08T11:53:59Z</time>
      </trkpt>
      <trkpt lat="44.16591" lon="5.00911">
        <ele>260.1</ele>
        <time>2020-09-08T11:54:00Z</time>
      </trkpt>
      <trkpt lat="44.1659" lon="5.00908">
        <ele>260.2</ele>
        <time>2020-09-08T11:54:01Z</time>
      </trkpt>
      <trkpt lat="44.1659" lon="5.00908">
        <ele>260.2</ele>
        <time>2020-09-08T11:54:02Z</time>
      </trkpt>
      <trkpt lat="44.1659" lon="5.00907">
        <ele>260.2</ele>
        <time>2020-09-08T11:54:03Z</time>
      </trkpt>
      <trkpt lat="44.1659" lon="5.00906">
        <ele>260.2</ele>
        <time>2020-09-08T11:54:04Z</time>
      </trkpt>
      <trkpt lat="44.16589" lon="5.00905">
        <ele>260.3</ele>
        <time>2020-09-08T11:54:05Z</time>
      </trkpt>
      <trkpt lat="44.16588" lon="5.00903">
        <ele>260.3</ele>
        <time>2020-09-08T11:54:06Z</time>
      </trkpt>
      <trkpt lat="44.16587" lon="5.00901">
        <ele>260.4</ele>
        <time>2020-09-08T11:54:07Z</time>
      </trkpt>
      <trkpt lat="44.16587" lon="5.009">
        <ele>260.4</ele>
        <time>2020-09-08T11:54:08Z</time>
      </trkpt>
      <trkpt lat="44.16586" lon="5.00899">
        <ele>260.4</ele>
        <time>2020-09-08T11:54:09Z</time>
      </trkpt>
      <trkpt lat="44.16585" lon="5.00896">
        <ele>260.5</ele>
        <time>2020-09-08T11:54:10Z</time>
      </trkpt>
      <trkpt lat="44.16584" lon="5.00894">
        <ele>260.6</ele>
        <time>2020-09-08T11:54:11Z</time>
      </trkpt>
      <trkpt lat="44.16584" lon="5.00893">
        <ele>260.6</ele>
        <time>2020-09-08T11:54:12Z</time>
      </trkpt>
      <trkpt lat="44.16583" lon="5.00893">
        <ele>260.7</ele>
        <time>2020-09-08T11:54:13Z</time>
      </trkpt>
      <trkpt lat="44.16582" lon="5.00891">
        <ele>260.7</ele>
        <time>2020-09-08T11:54:14Z</time>
      </trkpt>
      <trkpt lat="44.16581" lon="5.00889">
        <ele>260.9</ele>
        <time>2020-09-08T11:54:15Z</time>
      </trkpt>
      <trkpt lat="44.1658" lon="5.00888">
        <ele>260.9</ele>
        <time>2020-09-08T11:54:16Z</time>
      </trkpt>
      <trkpt lat="44.1658" lon="5.00887">
        <ele>260.9</ele>
        <time>2020-09-08T11:54:17Z</time>
      </trkpt>
      <trkpt lat="44.16579" lon="5.00886">
        <ele>261</ele>
        <time>2020-09-08T11:54:18Z</time>
      </trkpt>
      <trkpt lat="44.16579" lon="5.00884">
        <ele>261</ele>
        <time>2020-09-08T11:54:19Z</time>
      </trkpt>
      <trkpt lat="44.16578" lon="5.00883">
        <ele>261.1</ele>
        <time>2020-09-08T11:54:20Z</time>
      </trkpt>
      <trkpt lat="44.16578" lon="5.00881">
        <ele>261.2</ele>
        <time>2020-09-08T11:54:21Z</time>
      </trkpt>
      <trkpt lat="44.16577" lon="5.00879">
        <ele>261.2</ele>
        <time>2020-09-08T11:54:22Z</time>
      </trkpt>
      <trkpt lat="44.16576" lon="5.00878">
        <ele>261.3</ele>
        <time>2020-09-08T11:54:23Z</time>
      </trkpt>
      <trkpt lat="44.16575" lon="5.00876">
        <ele>261.4</ele>
        <time>2020-09-08T11:54:24Z</time>
      </trkpt>
      <trkpt lat="44.16574" lon="5.00875">
        <ele>261.5</ele>
        <time>2020-09-08T11:54:25Z</time>
      </trkpt>
      <trkpt lat="44.16573" lon="5.00874">
        <ele>261.5</ele>
        <time>2020-09-08T11:54:26Z</time>
      </trkpt>
      <trkpt lat="44.16572" lon="5.00872">
        <ele>261.7</ele>
        <time>2020-09-08T11:54:27Z</time>
      </trkpt>
      <trkpt lat="44.16571" lon="5.00871">
        <ele>261.7</ele>
        <time>2020-09-08T11:54:28Z</time>
      </trkpt>
      <trkpt lat="44.16571" lon="5.0087">
        <ele>261.8</ele>
        <time>2020-09-08T11:54:29Z</time>
      </trkpt>
      <trkpt lat="44.1657" lon="5.00868">
        <ele>261.8</ele>
        <time>2020-09-08T11:54:30Z</time>
      </trkpt>
      <trkpt lat="44.16569" lon="5.00867">
        <ele>261.9</ele>
        <time>2020-09-08T11:54:31Z</time>
      </trkpt>
      <trkpt lat="44.16568" lon="5.00866">
        <ele>262</ele>
        <time>2020-09-08T11:54:32Z</time>
      </trkpt>
      <trkpt lat="44.16567" lon="5.00864">
        <ele>262.1</ele>
        <time>2020-09-08T11:54:33Z</time>
      </trkpt>
      <trkpt lat="44.16567" lon="5.00863">
        <ele>262.1</ele>
        <time>2020-09-08T11:54:34Z</time>
      </trkpt>
      <trkpt lat="44.16566" lon="5.00862">
        <ele>262.2</ele>
        <time>2020-09-08T11:54:35Z</time>
      </trkpt>
      <trkpt lat="44.16566" lon="5.00861">
        <ele>262.2</ele>
        <time>2020-09-08T11:54:36Z</time>
      </trkpt>
      <trkpt lat="44.16565" lon="5.0086">
        <ele>262.3</ele>
        <time>2020-09-08T11:54:37Z</time>
      </trkpt>
      <trkpt lat="44.16565" lon="5.00859">
        <ele>262.3</ele>
        <time>2020-09-08T11:54:38Z</time>
      </trkpt>
      <trkpt lat="44.16564" lon="5.00858">
        <ele>262.4</ele>
        <time>2020-09-08T11:54:39Z</time>
      </trkpt>
      <trkpt lat="44.16563" lon="5.00857">
        <ele>262.4</ele>
        <time>2020-09-08T11:54:40Z</time>
      </trkpt>
      <trkpt lat="44.16562" lon="5.00856">
        <ele>262.5</ele>
        <time>2020-09-08T11:54:41Z</time>
      </trkpt>
      <trkpt lat="44.16561" lon="5.00854">
        <ele>262.6</ele>
        <time>2020-09-08T11:54:42Z</time>
      </trkpt>
      <trkpt lat="44.1656" lon="5.00853">
        <ele>262.6</ele>
        <time>2020-09-08T11:54:43Z</time>
      </trkpt>
      <trkpt lat="44.1656" lon="5.00852">
        <ele>262.7</ele>
        <time>2020-09-08T11:54:44Z</time>
      </trkpt>
      <trkpt lat="44.16559" lon="5.0085">
        <ele>262.7</ele>
        <time>2020-09-08T11:54:45Z</time>
      </trkpt>
      <trkpt lat="44.16558" lon="5.00848">
        <ele>262.8</ele>
        <time>2020-09-08T11:54:46Z</time>
      </trkpt>
      <trkpt lat="44.16557" lon="5.00845">
        <ele>262.9</ele>
        <time>2020-09-08T11:54:47Z</time>
      </trkpt>
      <trkpt lat="44.16556" lon="5.00844">
        <ele>262.9</ele>
        <time>2020-09-08T11:54:48Z</time>
      </trkpt>
      <trkpt lat="44.16556" lon="5.00843">
        <ele>262.9</ele>
        <time>2020-09-08T11:54:49Z</time>
      </trkpt>
      <trkpt lat="44.16555" lon="5.00842">
        <ele>263</ele>
        <time>2020-09-08T11:54:50Z</time>
      </trkpt>
      <trkpt lat="44.16554" lon="5.0084">
        <ele>263</ele>
        <time>2020-09-08T11:54:51Z</time>
      </trkpt>
      <trkpt lat="44.16554" lon="5.0084">
        <ele>263</ele>
        <time>2020-09-08T11:54:52Z</time>
      </trkpt>
      <trkpt lat="44.16553" lon="5.00838">
        <ele>263</ele>
        <time>2020-09-08T11:54:53Z</time>
      </trkpt>
      <trkpt lat="44.16552" lon="5.00837">
        <ele>263.1</ele>
        <time>2020-09-08T11:54:54Z</time>
      </trkpt>
      <trkpt lat="44.1655" lon="5.00835">
        <ele>263.1</ele>
        <time>2020-09-08T11:54:55Z</time>
      </trkpt>
      <trkpt lat="44.1655" lon="5.00834">
        <ele>263.1</ele>
        <time>2020-09-08T11:54:56Z</time>
      </trkpt>
      <trkpt lat="44.1655" lon="5.00833">
        <ele>263.1</ele>
        <time>2020-09-08T11:54:57Z</time>
      </trkpt>
      <trkpt lat="44.16549" lon="5.00832">
        <ele>263.1</ele>
        <time>2020-09-08T11:54:58Z</time>
      </trkpt>
      <trkpt lat="44.16548" lon="5.0083">
        <ele>263.1</ele>
        <time>2020-09-08T11:54:59Z</time>
      </trkpt>
      <trkpt lat="44.16547" lon="5.0083">
        <ele>263.1</ele>
        <time>2020-09-08T11:55:00Z</time>
      </trkpt>
      <trkpt lat="44.16547" lon="5.00829">
        <ele>263.1</ele>
        <time>2020-09-08T11:55:01Z</time>
      </trkpt>
      <trkpt lat="44.16546" lon="5.00828">
        <ele>263</ele>
        <time>2020-09-08T11:55:02Z</time>
      </trkpt>
      <trkpt lat="44.16545" lon="5.00827">
        <ele>263</ele>
        <time>2020-09-08T11:55:03Z</time>
      </trkpt>
      <trkpt lat="44.16544" lon="5.00825">
        <ele>263</ele>
        <time>2020-09-08T11:55:04Z</time>
      </trkpt>
      <trkpt lat="44.16544" lon="5.00825">
        <ele>263</ele>
        <time>2020-09-08T11:55:05Z</time>
      </trkpt>
      <trkpt lat="44.16543" lon="5.00824">
        <ele>263</ele>
        <time>2020-09-08T11:55:06Z</time>
      </trkpt>
      <trkpt lat="44.16543" lon="5.00823">
        <ele>262.9</ele>
        <time>2020-09-08T11:55:07Z</time>
      </trkpt>
      <trkpt lat="44.16542" lon="5.00822">
        <ele>262.9</ele>
        <time>2020-09-08T11:55:08Z</time>
      </trkpt>
      <trkpt lat="44.16541" lon="5.0082">
        <ele>262.9</ele>
        <time>2020-09-08T11:55:09Z</time>
      </trkpt>
      <trkpt lat="44.1654" lon="5.00818">
        <ele>262.8</ele>
        <time>2020-09-08T11:55:10Z</time>
      </trkpt>
      <trkpt lat="44.1654" lon="5.00816">
        <ele>262.8</ele>
        <time>2020-09-08T11:55:11Z</time>
      </trkpt>
      <trkpt lat="44.16539" lon="5.00815">
        <ele>262.7</ele>
        <time>2020-09-08T11:55:12Z</time>
      </trkpt>
      <trkpt lat="44.16538" lon="5.00813">
        <ele>262.6</ele>
        <time>2020-09-08T11:55:13Z</time>
      </trkpt>
      <trkpt lat="44.16538" lon="5.00812">
        <ele>262.6</ele>
        <time>2020-09-08T11:55:14Z</time>
      </trkpt>
      <trkpt lat="44.16537" lon="5.00811">
        <ele>262.5</ele>
        <time>2020-09-08T11:55:15Z</time>
      </trkpt>
      <trkpt lat="44.16536" lon="5.00809">
        <ele>262.5</ele>
        <time>2020-09-08T11:55:16Z</time>
      </trkpt>
      <trkpt lat="44.16536" lon="5.00807">
        <ele>262.4</ele>
        <time>2020-09-08T11:55:17Z</time>
      </trkpt>
      <trkpt lat="44.16535" lon="5.00806">
        <ele>262.3</ele>
        <time>2020-09-08T11:55:18Z</time>
      </trkpt>
      <trkpt lat="44.16535" lon="5.00805">
        <ele>262.3</ele>
        <time>2020-09-08T11:55:19Z</time>
      </trkpt>
      <trkpt lat="44.16534" lon="5.00805">
        <ele>262.3</ele>
        <time>2020-09-08T11:55:20Z</time>
      </trkpt>
      <trkpt lat="44.16534" lon="5.00803">
        <ele>262.2</ele>
        <time>2020-09-08T11:55:21Z</time>
      </trkpt>
      <trkpt lat="44.16533" lon="5.00801">
        <ele>262.1</ele>
        <time>2020-09-08T11:55:22Z</time>
      </trkpt>
      <trkpt lat="44.16532" lon="5.00798">
        <ele>262</ele>
        <time>2020-09-08T11:55:23Z</time>
      </trkpt>
      <trkpt lat="44.16532" lon="5.00797">
        <ele>261.9</ele>
        <time>2020-09-08T11:55:24Z</time>
      </trkpt>
      <trkpt lat="44.16531" lon="5.00796">
        <ele>261.9</ele>
        <time>2020-09-08T11:55:25Z</time>
      </trkpt>
      <trkpt lat="44.1653" lon="5.00795">
        <ele>261.8</ele>
        <time>2020-09-08T11:55:26Z</time>
      </trkpt>
      <trkpt lat="44.1653" lon="5.00794">
        <ele>261.8</ele>
        <time>2020-09-08T11:55:27Z</time>
      </trkpt>
      <trkpt lat="44.16529" lon="5.00793">
        <ele>261.7</ele>
        <time>2020-09-08T11:55:28Z</time>
      </trkpt>
      <trkpt lat="44.16528" lon="5.00791">
        <ele>261.6</ele>
        <time>2020-09-08T11:55:29Z</time>
      </trkpt>
      <trkpt lat="44.16527" lon="5.0079">
        <ele>261.6</ele>
        <time>2020-09-08T11:55:30Z</time>
      </trkpt>
      <trkpt lat="44.16527" lon="5.00788">
        <ele>261.5</ele>
        <time>2020-09-08T11:55:31Z</time>
      </trkpt>
      <trkpt lat="44.16526" lon="5.00786">
        <ele>261.4</ele>
        <time>2020-09-08T11:55:32Z</time>
      </trkpt>
      <trkpt lat="44.16526" lon="5.00785">
        <ele>261.3</ele>
        <time>2020-09-08T11:55:33Z</time>
      </trkpt>
      <trkpt lat="44.16525" lon="5.00784">
        <ele>261.3</ele>
        <time>2020-09-08T11:55:34Z</time>
      </trkpt>
      <trkpt lat="44.16524" lon="5.00782">
        <ele>261.2</ele>
        <time>2020-09-08T11:55:35Z</time>
      </trkpt>
      <trkpt lat="44.16524" lon="5.0078">
        <ele>261.1</ele>
        <time>2020-09-08T11:55:36Z</time>
      </trkpt>
      <trkpt lat="44.16522" lon="5.00778">
        <ele>261</ele>
        <time>2020-09-08T11:55:37Z</time>
      </trkpt>
      <trkpt lat="44.16522" lon="5.00777">
        <ele>260.9</ele>
        <time>2020-09-08T11:55:38Z</time>
      </trkpt>
      <trkpt lat="44.16521" lon="5.00776">
        <ele>260.9</ele>
        <time>2020-09-08T11:55:39Z</time>
      </trkpt>
      <trkpt lat="44.1652" lon="5.00775">
        <ele>260.8</ele>
        <time>2020-09-08T11:55:40Z</time>
      </trkpt>
      <trkpt lat="44.1652" lon="5.00774">
        <ele>260.8</ele>
        <time>2020-09-08T11:55:41Z</time>
      </trkpt>
      <trkpt lat="44.16519" lon="5.00772">
        <ele>260.7</ele>
        <time>2020-09-08T11:55:42Z</time>
      </trkpt>
      <trkpt lat="44.16518" lon="5.0077">
        <ele>260.6</ele>
        <time>2020-09-08T11:55:43Z</time>
      </trkpt>
      <trkpt lat="44.16518" lon="5.00769">
        <ele>260.6</ele>
        <time>2020-09-08T11:55:44Z</time>
      </trkpt>
      <trkpt lat="44.16517" lon="5.00768">
        <ele>260.5</ele>
        <time>2020-09-08T11:55:45Z</time>
      </trkpt>
      <trkpt lat="44.16516" lon="5.00765">
        <ele>260.4</ele>
        <time>2020-09-08T11:55:46Z</time>
      </trkpt>
      <trkpt lat="44.16516" lon="5.00765">
        <ele>260.4</ele>
        <time>2020-09-08T11:55:47Z</time>
      </trkpt>
      <trkpt lat="44.16516" lon="5.00764">
        <ele>260.4</ele>
        <time>2020-09-08T11:55:48Z</time>
      </trkpt>
      <trkpt lat="44.16515" lon="5.00763">
        <ele>260.4</ele>
        <time>2020-09-08T11:55:49Z</time>
      </trkpt>
      <trkpt lat="44.16514" lon="5.00762">
        <ele>260.3</ele>
        <time>2020-09-08T11:55:50Z</time>
      </trkpt>
      <trkpt lat="44.16514" lon="5.0076">
        <ele>260.3</ele>
        <time>2020-09-08T11:55:51Z</time>
      </trkpt>
      <trkpt lat="44.16513" lon="5.00758">
        <ele>260.2</ele>
        <time>2020-09-08T11:55:52Z</time>
      </trkpt>
      <trkpt lat="44.16512" lon="5.00757">
        <ele>260.1</ele>
        <time>2020-09-08T11:55:53Z</time>
      </trkpt>
      <trkpt lat="44.16512" lon="5.00756">
        <ele>260.1</ele>
        <time>2020-09-08T11:55:54Z</time>
      </trkpt>
      <trkpt lat="44.1651" lon="5.00755">
        <ele>260.1</ele>
        <time>2020-09-08T11:55:55Z</time>
      </trkpt>
      <trkpt lat="44.16509" lon="5.00753">
        <ele>260</ele>
        <time>2020-09-08T11:55:56Z</time>
      </trkpt>
      <trkpt lat="44.16507" lon="5.00751">
        <ele>259.9</ele>
        <time>2020-09-08T11:55:57Z</time>
      </trkpt>
      <trkpt lat="44.16506" lon="5.0075">
        <ele>259.9</ele>
        <time>2020-09-08T11:55:58Z</time>
      </trkpt>
      <trkpt lat="44.16505" lon="5.0075">
        <ele>259.9</ele>
        <time>2020-09-08T11:55:59Z</time>
      </trkpt>
      <trkpt lat="44.16505" lon="5.00748">
        <ele>259.8</ele>
        <time>2020-09-08T11:56:00Z</time>
      </trkpt>
      <trkpt lat="44.16503" lon="5.00745">
        <ele>259.8</ele>
        <time>2020-09-08T11:56:01Z</time>
      </trkpt>
      <trkpt lat="44.16502" lon="5.00744">
        <ele>259.7</ele>
        <time>2020-09-08T11:56:02Z</time>
      </trkpt>
      <trkpt lat="44.16501" lon="5.00742">
        <ele>259.7</ele>
        <time>2020-09-08T11:56:03Z</time>
      </trkpt>
      <trkpt lat="44.165" lon="5.0074">
        <ele>259.6</ele>
        <time>2020-09-08T11:56:04Z</time>
      </trkpt>
      <trkpt lat="44.16499" lon="5.00739">
        <ele>259.6</ele>
        <time>2020-09-08T11:56:05Z</time>
      </trkpt>
      <trkpt lat="44.16498" lon="5.00739">
        <ele>259.5</ele>
        <time>2020-09-08T11:56:06Z</time>
      </trkpt>
      <trkpt lat="44.16498" lon="5.00738">
        <ele>259.5</ele>
        <time>2020-09-08T11:56:07Z</time>
      </trkpt>
      <trkpt lat="44.16497" lon="5.00736">
        <ele>259.4</ele>
        <time>2020-09-08T11:56:08Z</time>
      </trkpt>
      <trkpt lat="44.16496" lon="5.00734">
        <ele>259.4</ele>
        <time>2020-09-08T11:56:09Z</time>
      </trkpt>
      <trkpt lat="44.16495" lon="5.00732">
        <ele>259.3</ele>
        <time>2020-09-08T11:56:10Z</time>
      </trkpt>
      <trkpt lat="44.16494" lon="5.0073">
        <ele>259.3</ele>
        <time>2020-09-08T11:56:11Z</time>
      </trkpt>
      <trkpt lat="44.16493" lon="5.00729">
        <ele>259.2</ele>
        <time>2020-09-08T11:56:12Z</time>
      </trkpt>
      <trkpt lat="44.16492" lon="5.00728">
        <ele>259.2</ele>
        <time>2020-09-08T11:56:13Z</time>
      </trkpt>
      <trkpt lat="44.16491" lon="5.00726">
        <ele>259.1</ele>
        <time>2020-09-08T11:56:14Z</time>
      </trkpt>
      <trkpt lat="44.1649" lon="5.00725">
        <ele>259.1</ele>
        <time>2020-09-08T11:56:15Z</time>
      </trkpt>
      <trkpt lat="44.16489" lon="5.00723">
        <ele>259</ele>
        <time>2020-09-08T11:56:16Z</time>
      </trkpt>
      <trkpt lat="44.16487" lon="5.00722">
        <ele>258.9</ele>
        <time>2020-09-08T11:56:17Z</time>
      </trkpt>
      <trkpt lat="44.16486" lon="5.00722">
        <ele>258.8</ele>
        <time>2020-09-08T11:56:18Z</time>
      </trkpt>
      <trkpt lat="44.16485" lon="5.00721">
        <ele>258.8</ele>
        <time>2020-09-08T11:56:19Z</time>
      </trkpt>
      <trkpt lat="44.16483" lon="5.0072">
        <ele>258.7</ele>
        <time>2020-09-08T11:56:20Z</time>
      </trkpt>
      <trkpt lat="44.16483" lon="5.0072">
        <ele>258.7</ele>
        <time>2020-09-08T11:56:21Z</time>
      </trkpt>
      <trkpt lat="44.16482" lon="5.00719">
        <ele>258.6</ele>
        <time>2020-09-08T11:56:22Z</time>
      </trkpt>
      <trkpt lat="44.1648" lon="5.00718">
        <ele>258.5</ele>
        <time>2020-09-08T11:56:23Z</time>
      </trkpt>
      <trkpt lat="44.16479" lon="5.00718">
        <ele>258.4</ele>
        <time>2020-09-08T11:56:24Z</time>
      </trkpt>
      <trkpt lat="44.16478" lon="5.00717">
        <ele>258.5</ele>
        <time>2020-09-08T11:56:25Z</time>
      </trkpt>
      <trkpt lat="44.16477" lon="5.00717">
        <ele>258.6</ele>
        <time>2020-09-08T11:56:26Z</time>
      </trkpt>
      <trkpt lat="44.16476" lon="5.00716">
        <ele>258.7</ele>
        <time>2020-09-08T11:56:27Z</time>
      </trkpt>
      <trkpt lat="44.16475" lon="5.00716">
        <ele>258.7</ele>
        <time>2020-09-08T11:56:28Z</time>
      </trkpt>
      <trkpt lat="44.16474" lon="5.00715">
        <ele>258.8</ele>
        <time>2020-09-08T11:56:29Z</time>
      </trkpt>
      <trkpt lat="44.16473" lon="5.00715">
        <ele>258.9</ele>
        <time>2020-09-08T11:56:30Z</time>
      </trkpt>
      <trkpt lat="44.16471" lon="5.00714">
        <ele>259</ele>
        <time>2020-09-08T11:56:31Z</time>
      </trkpt>
      <trkpt lat="44.1647" lon="5.00713">
        <ele>259.1</ele>
        <time>2020-09-08T11:56:32Z</time>
      </trkpt>
      <trkpt lat="44.1647" lon="5.00711">
        <ele>259.2</ele>
        <time>2020-09-08T11:56:33Z</time>
      </trkpt>
      <trkpt lat="44.16469" lon="5.0071">
        <ele>259.4</ele>
        <time>2020-09-08T11:56:34Z</time>
      </trkpt>
      <trkpt lat="44.16468" lon="5.00709">
        <ele>259.4</ele>
        <time>2020-09-08T11:56:35Z</time>
      </trkpt>
      <trkpt lat="44.16466" lon="5.00709">
        <ele>259.6</ele>
        <time>2020-09-08T11:56:36Z</time>
      </trkpt>
      <trkpt lat="44.16465" lon="5.00708">
        <ele>259.7</ele>
        <time>2020-09-08T11:56:37Z</time>
      </trkpt>
      <trkpt lat="44.16465" lon="5.00708">
        <ele>259.7</ele>
        <time>2020-09-08T11:56:38Z</time>
      </trkpt>
      <trkpt lat="44.16464" lon="5.00708">
        <ele>259.8</ele>
        <time>2020-09-08T11:56:39Z</time>
      </trkpt>
      <trkpt lat="44.16462" lon="5.00707">
        <ele>260</ele>
        <time>2020-09-08T11:56:40Z</time>
      </trkpt>
      <trkpt lat="44.16461" lon="5.00706">
        <ele>260.1</ele>
        <time>2020-09-08T11:56:41Z</time>
      </trkpt>
      <trkpt lat="44.1646" lon="5.00706">
        <ele>260.2</ele>
        <time>2020-09-08T11:56:42Z</time>
      </trkpt>
      <trkpt lat="44.16459" lon="5.00706">
        <ele>260.3</ele>
        <time>2020-09-08T11:56:43Z</time>
      </trkpt>
      <trkpt lat="44.16457" lon="5.00705">
        <ele>260.5</ele>
        <time>2020-09-08T11:56:44Z</time>
      </trkpt>
      <trkpt lat="44.16456" lon="5.00704">
        <ele>260.6</ele>
        <time>2020-09-08T11:56:45Z</time>
      </trkpt>
      <trkpt lat="44.16455" lon="5.00703">
        <ele>260.7</ele>
        <time>2020-09-08T11:56:46Z</time>
      </trkpt>
      <trkpt lat="44.16454" lon="5.00703">
        <ele>260.8</ele>
        <time>2020-09-08T11:56:47Z</time>
      </trkpt>
      <trkpt lat="44.16453" lon="5.00703">
        <ele>260.9</ele>
        <time>2020-09-08T11:56:48Z</time>
      </trkpt>
      <trkpt lat="44.16452" lon="5.00702">
        <ele>261</ele>
        <time>2020-09-08T11:56:49Z</time>
      </trkpt>
      <trkpt lat="44.1645" lon="5.00701">
        <ele>261.2</ele>
        <time>2020-09-08T11:56:50Z</time>
      </trkpt>
      <trkpt lat="44.16449" lon="5.007">
        <ele>261.4</ele>
        <time>2020-09-08T11:56:51Z</time>
      </trkpt>
      <trkpt lat="44.16448" lon="5.00699">
        <ele>261.6</ele>
        <time>2020-09-08T11:56:52Z</time>
      </trkpt>
      <trkpt lat="44.16447" lon="5.00698">
        <ele>261.7</ele>
        <time>2020-09-08T11:56:53Z</time>
      </trkpt>
      <trkpt lat="44.16446" lon="5.00698">
        <ele>261.7</ele>
        <time>2020-09-08T11:56:54Z</time>
      </trkpt>
      <trkpt lat="44.16445" lon="5.00697">
        <ele>261.8</ele>
        <time>2020-09-08T11:56:55Z</time>
      </trkpt>
      <trkpt lat="44.16444" lon="5.00696">
        <ele>261.9</ele>
        <time>2020-09-08T11:56:56Z</time>
      </trkpt>
      <trkpt lat="44.16443" lon="5.00695">
        <ele>262.1</ele>
        <time>2020-09-08T11:56:57Z</time>
      </trkpt>
      <trkpt lat="44.16441" lon="5.00694">
        <ele>262.3</ele>
        <time>2020-09-08T11:56:58Z</time>
      </trkpt>
      <trkpt lat="44.16441" lon="5.00693">
        <ele>262.5</ele>
        <time>2020-09-08T11:56:59Z</time>
      </trkpt>
      <trkpt lat="44.1644" lon="5.00692">
        <ele>262.6</ele>
        <time>2020-09-08T11:57:00Z</time>
      </trkpt>
      <trkpt lat="44.16439" lon="5.0069">
        <ele>262.8</ele>
        <time>2020-09-08T11:57:01Z</time>
      </trkpt>
      <trkpt lat="44.16438" lon="5.0069">
        <ele>262.9</ele>
        <time>2020-09-08T11:57:02Z</time>
      </trkpt>
      <trkpt lat="44.16437" lon="5.00689">
        <ele>263</ele>
        <time>2020-09-08T11:57:03Z</time>
      </trkpt>
      <trkpt lat="44.16436" lon="5.00688">
        <ele>263.1</ele>
        <time>2020-09-08T11:57:04Z</time>
      </trkpt>
      <trkpt lat="44.16435" lon="5.00688">
        <ele>263.2</ele>
        <time>2020-09-08T11:57:05Z</time>
      </trkpt>
      <trkpt lat="44.16434" lon="5.00688">
        <ele>263.3</ele>
        <time>2020-09-08T11:57:06Z</time>
      </trkpt>
      <trkpt lat="44.16432" lon="5.00687">
        <ele>263.5</ele>
        <time>2020-09-08T11:57:07Z</time>
      </trkpt>
      <trkpt lat="44.16431" lon="5.00686">
        <ele>263.6</ele>
        <time>2020-09-08T11:57:08Z</time>
      </trkpt>
      <trkpt lat="44.16431" lon="5.00686">
        <ele>263.8</ele>
        <time>2020-09-08T11:57:09Z</time>
      </trkpt>
      <trkpt lat="44.16429" lon="5.00684">
        <ele>263.9</ele>
        <time>2020-09-08T11:57:10Z</time>
      </trkpt>
      <trkpt lat="44.16428" lon="5.00685">
        <ele>264</ele>
        <time>2020-09-08T11:57:11Z</time>
      </trkpt>
      <trkpt lat="44.16427" lon="5.00684">
        <ele>264.2</ele>
        <time>2020-09-08T11:57:12Z</time>
      </trkpt>
      <trkpt lat="44.16426" lon="5.00684">
        <ele>264.3</ele>
        <time>2020-09-08T11:57:13Z</time>
      </trkpt>
      <trkpt lat="44.16426" lon="5.00683">
        <ele>264.4</ele>
        <time>2020-09-08T11:57:14Z</time>
      </trkpt>
      <trkpt lat="44.16425" lon="5.00682">
        <ele>264.6</ele>
        <time>2020-09-08T11:57:15Z</time>
      </trkpt>
      <trkpt lat="44.16424" lon="5.00681">
        <ele>264.7</ele>
        <time>2020-09-08T11:57:16Z</time>
      </trkpt>
      <trkpt lat="44.16423" lon="5.00681">
        <ele>264.8</ele>
        <time>2020-09-08T11:57:17Z</time>
      </trkpt>
      <trkpt lat="44.16422" lon="5.00681">
        <ele>264.9</ele>
        <time>2020-09-08T11:57:18Z</time>
      </trkpt>
      <trkpt lat="44.16421" lon="5.00682">
        <ele>265.1</ele>
        <time>2020-09-08T11:57:19Z</time>
      </trkpt>
      <trkpt lat="44.1642" lon="5.00683">
        <ele>265.2</ele>
        <time>2020-09-08T11:57:20Z</time>
      </trkpt>
    </trkseg>
  </trk>
</gpx>